<?xml version='1.0' encoding='UTF-8'?><gpx version="1.1" creator="JPX - https://github.com/jenetics/jpx" xmlns="http://www.topografix.com/GPX/1/1"><trk><trkseg><trkpt lat="43.527316753793066" lon="10.702254110957218"><ele>56.00000000000001</ele><time>2026-04-18T07:20:24.999Z</time></trkpt><trkpt lat="43.527446463744646" lon="10.702242879206969"><ele>56.0</ele><time>2026-04-18T07:20:26.999Z</time></trkpt><trkpt lat="43.52752370298237" lon="10.702251847843362"><ele>56.0</ele><time>2026-04-18T07:20:27.999Z</time></trkpt><trkpt lat="43.52759939156801" lon="10.702250087643696"><ele>56.0</ele><time>2026-04-18T07:20:28.999Z</time></trkpt><trkpt lat="43.527670176740294" lon="10.702242543930842"><ele>56.00000000000001</ele><time>2026-04-18T07:20:29.999Z</time></trkpt><trkpt lat="43.527763048227435" lon="10.702249920005633"><ele>56.0</ele><time>2026-04-18T07:20:30.999Z</time></trkpt><trkpt lat="43.52786828302175" lon="10.702255535880758"><ele>56.5</ele><time>2026-04-18T07:20:31.999Z</time></trkpt><trkpt lat="43.527979049872165" lon="10.702253105128838"><ele>57.0</ele><time>2026-04-18T07:20:32.999Z</time></trkpt><trkpt lat="43.528107041533595" lon="10.702243549759222"><ele>57.5</ele><time>2026-04-18T07:20:33.999Z</time></trkpt><trkpt lat="43.528247354592686" lon="10.70223810152216"><ele>58.0</ele><time>2026-04-18T07:20:34.999Z</time></trkpt><trkpt lat="43.528397097292846" lon="10.702224103743864"><ele>58.0</ele><time>2026-04-18T07:20:35.999Z</time></trkpt><trkpt lat="43.52855400652022" lon="10.702222175906135"><ele>58.0</ele><time>2026-04-18T07:20:36.999Z</time></trkpt><trkpt lat="43.528704671229725" lon="10.702212788174583"><ele>58.0</ele><time>2026-04-18T07:20:37.999Z</time></trkpt><trkpt lat="43.52885437202037" lon="10.702207004661394"><ele>57.0</ele><time>2026-04-18T07:20:38.999Z</time></trkpt><trkpt lat="43.52902770977796" lon="10.70219552145405"><ele>56.0</ele><time>2026-04-18T07:20:39.999Z</time></trkpt><trkpt lat="43.529224307316845" lon="10.702212871993614"><ele>55.0</ele><time>2026-04-18T07:20:40.999Z</time></trkpt><trkpt lat="43.52942090485573" lon="10.7021911628644"><ele>54.666666666666664</ele><time>2026-04-18T07:20:41.999Z</time></trkpt><trkpt lat="43.5296161193806" lon="10.702171884487106"><ele>54.33333333333333</ele><time>2026-04-18T07:20:42.999Z</time></trkpt><trkpt lat="43.52981959008009" lon="10.702143050740196"><ele>54.0</ele><time>2026-04-18T07:20:43.999Z</time></trkpt><trkpt lat="43.530027922283416" lon="10.70210902021332"><ele>54.0</ele><time>2026-04-18T07:20:44.999Z</time></trkpt><trkpt lat="43.530228668864375" lon="10.702079348276092"><ele>54.0</ele><time>2026-04-18T07:20:45.999Z</time></trkpt><trkpt lat="43.53041814178557" lon="10.702052023271753"><ele>54.0</ele><time>2026-04-18T07:20:46.999Z</time></trkpt><trkpt lat="43.5305987298894" lon="10.70202352480097"><ele>54.33333333333333</ele><time>2026-04-18T07:20:47.999Z</time></trkpt><trkpt lat="43.53078220974982" lon="10.701997708539201"><ele>54.666666666666664</ele><time>2026-04-18T07:20:48.999Z</time></trkpt><trkpt lat="43.530964097048646" lon="10.701969210068418"><ele>55.0</ele><time>2026-04-18T07:20:49.999Z</time></trkpt><trkpt lat="43.53114958856583" lon="10.701948422948552"><ele>55.0</ele><time>2026-04-18T07:20:50.999Z</time></trkpt><trkpt lat="43.531315550248635" lon="10.701914476240708"><ele>55.0</ele><time>2026-04-18T07:20:51.999Z</time></trkpt><trkpt lat="43.53147048972876" lon="10.701895616958572"><ele>55.0</ele><time>2026-04-18T07:20:52.999Z</time></trkpt><trkpt lat="43.53162224408568" lon="10.70186913014455"><ele>55.0</ele><time>2026-04-18T07:20:53.999Z</time></trkpt><trkpt lat="43.53179105561556" lon="10.701822610581948"><ele>55.0</ele><time>2026-04-18T07:20:54.999Z</time></trkpt><trkpt lat="43.53198844943525" lon="10.701781874532534"><ele>55.0</ele><time>2026-04-18T07:20:55.999Z</time></trkpt><trkpt lat="43.53216337975444" lon="10.70174407214923"><ele>55.0</ele><time>2026-04-18T07:20:56.999Z</time></trkpt><trkpt lat="43.53236165367396" lon="10.701711215088798"><ele>55.0</ele><time>2026-04-18T07:20:57.999Z</time></trkpt><trkpt lat="43.53256319653572" lon="10.701663689697815"><ele>55.0</ele><time>2026-04-18T07:20:58.999Z</time></trkpt><trkpt lat="43.53277178019614" lon="10.701623037467433"><ele>55.33333333333333</ele><time>2026-04-18T07:20:59.999Z</time></trkpt><trkpt lat="43.53296720426859" lon="10.701581547046732"><ele>55.66666666666667</ele><time>2026-04-18T07:21:00.999Z</time></trkpt><trkpt lat="43.533172393258226" lon="10.701537290597987"><ele>56.0</ele><time>2026-04-18T07:21:01.999Z</time></trkpt><trkpt lat="43.53339078374536" lon="10.701494878167939"><ele>56.0</ele><time>2026-04-18T07:21:02.999Z</time></trkpt><trkpt lat="43.53360808458508" lon="10.701454142118525"><ele>56.0</ele><time>2026-04-18T07:21:03.999Z</time></trkpt><trkpt lat="43.53381792553098" lon="10.701416172097158"><ele>56.0</ele><time>2026-04-18T07:21:04.999Z</time></trkpt><trkpt lat="43.53400966156603" lon="10.70137619041903"><ele>56.66666666666667</ele><time>2026-04-18T07:21:05.999Z</time></trkpt><trkpt lat="43.53419817056836" lon="10.70133176633222"><ele>57.33333333333333</ele><time>2026-04-18T07:21:06.999Z</time></trkpt><trkpt lat="43.53437075395466" lon="10.70130092092855"><ele>58.0</ele><time>2026-04-18T07:21:07.999Z</time></trkpt><trkpt lat="43.534534201066506" lon="10.701265884573292"><ele>57.5</ele><time>2026-04-18T07:21:08.999Z</time></trkpt><trkpt lat="43.534691738936615" lon="10.701235039169621"><ele>57.0</ele><time>2026-04-18T07:21:09.999Z</time></trkpt><trkpt lat="43.53481914386482" lon="10.701198577890825"><ele>56.5</ele><time>2026-04-18T07:21:10.999Z</time></trkpt><trkpt lat="43.53495497260572" lon="10.701170079420042"><ele>56.0</ele><time>2026-04-18T07:21:11.999Z</time></trkpt><trkpt lat="43.53509243581773" lon="10.701146610091161"><ele>56.0</ele><time>2026-04-18T07:21:12.999Z</time></trkpt><trkpt lat="43.53522683963509" lon="10.7011152617733"><ele>56.0</ele><time>2026-04-18T07:21:13.999Z</time></trkpt><trkpt lat="43.53534980215461" lon="10.70109330118699"><ele>56.0</ele><time>2026-04-18T07:21:14.999Z</time></trkpt><trkpt lat="43.53547628507347" lon="10.701059689755272"><ele>56.0</ele><time>2026-04-18T07:21:15.999Z</time></trkpt><trkpt lat="43.535591284784985" lon="10.701031610379648"><ele>56.199999999999996</ele><time>2026-04-18T07:21:16.999Z</time></trkpt><trkpt lat="43.535681725520206" lon="10.70100973361237"><ele>56.39999999999999</ele><time>2026-04-18T07:21:17.999Z</time></trkpt><trkpt lat="43.5357752675596" lon="10.700987437749934"><ele>56.6</ele><time>2026-04-18T07:21:18.999Z</time></trkpt><trkpt lat="43.53586763613255" lon="10.700961537669134"><ele>56.8</ele><time>2026-04-18T07:21:19.999Z</time></trkpt><trkpt lat="43.53597266137929" lon="10.70093790070219"><ele>57.0</ele><time>2026-04-18T07:21:20.999Z</time></trkpt><trkpt lat="43.53606444321902" lon="10.700916359211039"><ele>57.0</ele><time>2026-04-18T07:21:21.999Z</time></trkpt><trkpt lat="43.536180113482786" lon="10.700888196016383"><ele>57.0</ele><time>2026-04-18T07:21:22.999Z</time></trkpt><trkpt lat="43.536311038810325" lon="10.700863972316217"><ele>57.0</ele><time>2026-04-18T07:21:23.999Z</time></trkpt><trkpt lat="43.536440832580936" lon="10.700832456360292"><ele>57.0</ele><time>2026-04-18T07:21:24.999Z</time></trkpt><trkpt lat="43.53657133881332" lon="10.700795827443432"><ele>56.5</ele><time>2026-04-18T07:21:25.999Z</time></trkpt><trkpt lat="43.5366965644467" lon="10.700749140242767"><ele>56.0</ele><time>2026-04-18T07:21:26.999Z</time></trkpt><trkpt lat="43.53680775039227" lon="10.700723323980998"><ele>55.5</ele><time>2026-04-18T07:21:27.999Z</time></trkpt><trkpt lat="43.53693603542031" lon="10.700709829116892"><ele>55.0</ele><time>2026-04-18T07:21:28.999Z</time></trkpt><trkpt lat="43.53703883946271" lon="10.700692478577327"><ele>55.33333333333333</ele><time>2026-04-18T07:21:29.999Z</time></trkpt><trkpt lat="43.53713594381095" lon="10.700660124431085"><ele>55.666666666666664</ele><time>2026-04-18T07:21:30.999Z</time></trkpt><trkpt lat="43.5372172063622" lon="10.700636487464141"><ele>56.0</ele><time>2026-04-18T07:21:31.999Z</time></trkpt><trkpt lat="43.53732851803632" lon="10.700632212693524"><ele>56.33333333333333</ele><time>2026-04-18T07:21:33.999Z</time></trkpt><trkpt lat="43.53737017609508" lon="10.700711086402368"><ele>56.666666666666664</ele><time>2026-04-18T07:21:35.999Z</time></trkpt><trkpt lat="43.537363973486734" lon="10.700809825221729"><ele>57.0</ele><time>2026-04-18T07:21:37.999Z</time></trkpt><trkpt lat="43.537375289056016" lon="10.700922561819386"><ele>57.0</ele><time>2026-04-18T07:21:40.999Z</time></trkpt><trkpt lat="43.53737005036653" lon="10.701024569580984"><ele>57.0</ele><time>2026-04-18T07:21:43.999Z</time></trkpt><trkpt lat="43.53742667012246" lon="10.70098626428349"><ele>57.0</ele><time>2026-04-18T07:21:47.999Z</time></trkpt><trkpt lat="43.53739595044733" lon="10.700861541564297"><ele>57.0</ele><time>2026-04-18T07:21:49.999Z</time></trkpt><trkpt lat="43.537375708151174" lon="10.7007595338027"><ele>57.0</ele><time>2026-04-18T07:21:51.999Z</time></trkpt><trkpt lat="43.537330362055016" lon="10.700691472748947"><ele>57.0</ele><time>2026-04-18T07:21:56.999Z</time></trkpt><trkpt lat="43.537409906316114" lon="10.700648473585677"><ele>57.0</ele><time>2026-04-18T07:22:37.998Z</time></trkpt><trkpt lat="43.53751149498255" lon="10.700586196045112"><ele>57.0</ele><time>2026-04-18T07:22:39.998Z</time></trkpt><trkpt lat="43.53758860849173" lon="10.700558535764646"><ele>57.0</ele><time>2026-04-18T07:22:40.998Z</time></trkpt><trkpt lat="43.53769765705199" lon="10.700559960688185"><ele>57.0</ele><time>2026-04-18T07:22:41.998Z</time></trkpt><trkpt lat="43.53779874280424" lon="10.70055627265079"><ele>57.0</ele><time>2026-04-18T07:22:42.998Z</time></trkpt><trkpt lat="43.53791265286834" lon="10.700552668432426"><ele>57.0</ele><time>2026-04-18T07:22:43.998Z</time></trkpt><trkpt lat="43.53801063731642" lon="10.70053087548418"><ele>57.0</ele><time>2026-04-18T07:22:44.998Z</time></trkpt><trkpt lat="43.53812605612309" lon="10.700515871877503"><ele>57.0</ele><time>2026-04-18T07:22:45.998Z</time></trkpt><trkpt lat="43.53825232949437" lon="10.70051184856398"><ele>57.0</ele><time>2026-04-18T07:22:46.998Z</time></trkpt><trkpt lat="43.53836766448201" lon="10.700501203546953"><ele>57.0</ele><time>2026-04-18T07:22:47.998Z</time></trkpt><trkpt lat="43.53845701556982" lon="10.700497347871494"><ele>57.0</ele><time>2026-04-18T07:22:48.998Z</time></trkpt><trkpt lat="43.538555083836926" lon="10.700503634298872"><ele>57.0</ele><time>2026-04-18T07:22:50.998Z</time></trkpt><trkpt lat="43.53857230864794" lon="10.700594494129252"><ele>57.0</ele><time>2026-04-18T07:22:52.998Z</time></trkpt><trkpt lat="43.53858337276013" lon="10.700733968998026"><ele>57.0</ele><time>2026-04-18T07:22:54.998Z</time></trkpt><trkpt lat="43.53860084902824" lon="10.700822984809708"><ele>57.0</ele><time>2026-04-18T07:22:55.998Z</time></trkpt><trkpt lat="43.538615391630245" lon="10.700911832983326"><ele>56.666666666666664</ele><time>2026-04-18T07:22:56.998Z</time></trkpt><trkpt lat="43.53863902859719" lon="10.701090199882817"><ele>56.33333333333333</ele><time>2026-04-18T07:22:58.998Z</time></trkpt><trkpt lat="43.53865164336146" lon="10.701181478808355"><ele>56.0</ele><time>2026-04-18T07:22:59.998Z</time></trkpt><trkpt lat="43.5386670660633" lon="10.701280636722874"><ele>55.666666666666664</ele><time>2026-04-18T07:23:00.998Z</time></trkpt><trkpt lat="43.538682572584165" lon="10.701382393027377"><ele>55.33333333333333</ele><time>2026-04-18T07:23:01.998Z</time></trkpt><trkpt lat="43.53868726644994" lon="10.701479036370944"><ele>55.0</ele><time>2026-04-18T07:23:02.998Z</time></trkpt><trkpt lat="43.53869133167298" lon="10.701575428257417"><ele>54.99999999999999</ele><time>2026-04-18T07:23:03.998Z</time></trkpt><trkpt lat="43.53871073577882" lon="10.70169277490182"><ele>55.0</ele><time>2026-04-18T07:23:04.998Z</time></trkpt><trkpt lat="43.538719913962794" lon="10.701796459044052"><ele>55.0</ele><time>2026-04-18T07:23:05.998Z</time></trkpt><trkpt lat="43.53871354371638" lon="10.70188865997894"><ele>55.0</ele><time>2026-04-18T07:23:06.998Z</time></trkpt><trkpt lat="43.53872674521388" lon="10.701981782923175"><ele>55.0</ele><time>2026-04-18T07:23:07.998Z</time></trkpt><trkpt lat="43.538739318068636" lon="10.70208462887509"><ele>54.99999999999999</ele><time>2026-04-18T07:23:08.998Z</time></trkpt><trkpt lat="43.53875331584693" lon="10.702178254733516"><ele>55.0</ele><time>2026-04-18T07:23:09.998Z</time></trkpt><trkpt lat="43.53875909936012" lon="10.702284118170573"><ele>54.99999999999999</ele><time>2026-04-18T07:23:10.998Z</time></trkpt><trkpt lat="43.53876576297314" lon="10.702383862818314"><ele>55.0</ele><time>2026-04-18T07:23:11.998Z</time></trkpt><trkpt lat="43.5387585126269" lon="10.70247698576255"><ele>55.0</ele><time>2026-04-18T07:23:12.998Z</time></trkpt><trkpt lat="43.538737306411875" lon="10.70263238624735"><ele>55.0</ele><time>2026-04-18T07:23:14.998Z</time></trkpt><trkpt lat="43.53872075215311" lon="10.702788373465372"><ele>54.99999999999999</ele><time>2026-04-18T07:23:16.998Z</time></trkpt><trkpt lat="43.538720919791174" lon="10.702876299629642"><ele>55.0</ele><time>2026-04-18T07:23:17.998Z</time></trkpt><trkpt lat="43.5387101490456" lon="10.703024324039651"><ele>54.49999999999999</ele><time>2026-04-18T07:23:19.998Z</time></trkpt><trkpt lat="43.538695229257954" lon="10.703115100050999"><ele>54.0</ele><time>2026-04-18T07:23:20.998Z</time></trkpt><trkpt lat="43.538678213994515" lon="10.703199757273032"><ele>53.5</ele><time>2026-04-18T07:23:21.998Z</time></trkpt><trkpt lat="43.53866077963592" lon="10.70329396986468"><ele>53.0</ele><time>2026-04-18T07:23:22.998Z</time></trkpt><trkpt lat="43.53864933833809" lon="10.703381225476695"><ele>52.49999999999999</ele><time>2026-04-18T07:23:23.998Z</time></trkpt><trkpt lat="43.53863031141789" lon="10.703548276806906"><ele>52.0</ele><time>2026-04-18T07:23:25.998Z</time></trkpt><trkpt lat="43.538626120466304" lon="10.703636705885366"><ele>51.714285714285715</ele><time>2026-04-18T07:23:26.998Z</time></trkpt><trkpt lat="43.53862121705295" lon="10.703729074458316"><ele>51.42857142857143</ele><time>2026-04-18T07:23:27.998Z</time></trkpt><trkpt lat="43.53861958258183" lon="10.703831166038945"><ele>51.142857142857146</ele><time>2026-04-18T07:23:28.998Z</time></trkpt><trkpt lat="43.53862578519018" lon="10.703924540440276"><ele>50.85714285714286</ele><time>2026-04-18T07:23:29.998Z</time></trkpt><trkpt lat="43.5386488354239" lon="10.704023111621574"><ele>50.57142857142857</ele><time>2026-04-18T07:23:30.998Z</time></trkpt><trkpt lat="43.53868169248433" lon="10.704114642004207"><ele>50.28571428571429</ele><time>2026-04-18T07:23:31.998Z</time></trkpt><trkpt lat="43.53872737385662" lon="10.704200640330747"><ele>50.0</ele><time>2026-04-18T07:23:32.998Z</time></trkpt><trkpt lat="43.5387756955284" lon="10.704272808517054"><ele>50.00000000000001</ele><time>2026-04-18T07:23:33.998Z</time></trkpt><trkpt lat="43.53883223146529" lon="10.70434397087498"><ele>50.0</ele><time>2026-04-18T07:23:34.998Z</time></trkpt><trkpt lat="43.538886839564455" lon="10.70440406912072"><ele>50.0</ele><time>2026-04-18T07:23:35.998Z</time></trkpt><trkpt lat="43.53894249540152" lon="10.704460395510033"><ele>50.0</ele><time>2026-04-18T07:23:36.998Z</time></trkpt><trkpt lat="43.53902216539117" lon="10.704571791003183"><ele>50.00000000000001</ele><time>2026-04-18T07:23:38.998Z</time></trkpt><trkpt lat="43.53905803993674" lon="10.70472702384992"><ele>50.0</ele><time>2026-04-18T07:23:40.998Z</time></trkpt><trkpt lat="43.539065080735405" lon="10.704885693276957"><ele>50.0</ele><time>2026-04-18T07:23:42.998Z</time></trkpt><trkpt lat="43.539041108492334" lon="10.705024246136382"><ele>50.0</ele><time>2026-04-18T07:23:44.998Z</time></trkpt><trkpt lat="43.53903272658916" lon="10.705176964412168"><ele>50.0</ele><time>2026-04-18T07:23:46.998Z</time></trkpt><trkpt lat="43.53902610488566" lon="10.705294143418506"><ele>50.0</ele><time>2026-04-18T07:23:48.998Z</time></trkpt><trkpt lat="43.53902442850502" lon="10.705416183928683"><ele>50.0</ele><time>2026-04-18T07:23:50.998Z</time></trkpt><trkpt lat="43.53902560197147" lon="10.705507714311318"><ele>50.00000000000001</ele><time>2026-04-18T07:23:52.998Z</time></trkpt><trkpt lat="43.53901261002155" lon="10.705597568313317"><ele>50.0</ele><time>2026-04-18T07:25:46.998Z</time></trkpt><trkpt lat="43.53907899469467" lon="10.705570746223168"><ele>50.0</ele><time>2026-04-18T07:26:02.998Z</time></trkpt><trkpt lat="43.53904613763424" lon="10.70549413562818"><ele>50.0</ele><time>2026-04-18T07:26:05.998Z</time></trkpt><trkpt lat="43.539037252816875" lon="10.705377291897967"><ele>50.0</ele><time>2026-04-18T07:26:07.998Z</time></trkpt><trkpt lat="43.53904651481988" lon="10.705290790657237"><ele>50.00000000000001</ele><time>2026-04-18T07:26:08.998Z</time></trkpt><trkpt lat="43.53905787229868" lon="10.705181406820849"><ele>50.0</ele><time>2026-04-18T07:26:09.998Z</time></trkpt><trkpt lat="43.5390669247541" lon="10.705062467614844"><ele>50.00000000000001</ele><time>2026-04-18T07:26:10.998Z</time></trkpt><trkpt lat="43.53907203771504" lon="10.704935481781796"><ele>50.0</ele><time>2026-04-18T07:26:11.998Z</time></trkpt><trkpt lat="43.5390774859521" lon="10.704817129309014"><ele>50.0</ele><time>2026-04-18T07:26:12.998Z</time></trkpt><trkpt lat="43.53906977460118" lon="10.704695926989153"><ele>50.0</ele><time>2026-04-18T07:26:13.998Z</time></trkpt><trkpt lat="43.539041108492334" lon="10.704595260332063"><ele>50.00000000000001</ele><time>2026-04-18T07:26:14.998Z</time></trkpt><trkpt lat="43.53898847014042" lon="10.704501885930732"><ele>50.0</ele><time>2026-04-18T07:26:15.998Z</time></trkpt><trkpt lat="43.53893034164192" lon="10.704415636147097"><ele>50.00000000000001</ele><time>2026-04-18T07:26:16.998Z</time></trkpt><trkpt lat="43.53886232249768" lon="10.704338271180823"><ele>50.0</ele><time>2026-04-18T07:26:17.998Z</time></trkpt><trkpt lat="43.538784161250604" lon="10.704247411350444"><ele>50.0</ele><time>2026-04-18T07:26:18.998Z</time></trkpt><trkpt lat="43.53872410491438" lon="10.70414749906464"><ele>50.0</ele><time>2026-04-18T07:26:19.998Z</time></trkpt><trkpt lat="43.53867989037515" lon="10.704053789387181"><ele>50.00000000000001</ele><time>2026-04-18T07:26:20.998Z</time></trkpt><trkpt lat="43.53864971552373" lon="10.703955637301043"><ele>50.0</ele><time>2026-04-18T07:26:21.998Z</time></trkpt><trkpt lat="43.538640579249275" lon="10.703858491043285"><ele>50.00000000000001</ele><time>2026-04-18T07:26:22.998Z</time></trkpt><trkpt lat="43.53863412518383" lon="10.703766038651302"><ele>50.0</ele><time>2026-04-18T07:26:23.998Z</time></trkpt><trkpt lat="43.53863940578283" lon="10.703678112487033"><ele>50.0</ele><time>2026-04-18T07:26:24.998Z</time></trkpt><trkpt lat="43.53863881904961" lon="10.703547857711747"><ele>50.0</ele><time>2026-04-18T07:26:26.998Z</time></trkpt><trkpt lat="43.53861065585495" lon="10.703468313450648"><ele>50.00000000000001</ele><time>2026-04-18T07:26:28.998Z</time></trkpt><trkpt lat="43.53856543548734" lon="10.703405030081703"><ele>50.0</ele><time>2026-04-18T07:26:48.998Z</time></trkpt><trkpt lat="43.538481323089016" lon="10.703310398394896"><ele>50.333333333333336</ele><time>2026-04-18T07:26:50.998Z</time></trkpt><trkpt lat="43.53842059620054" lon="10.703250132511092"><ele>50.66666666666667</ele><time>2026-04-18T07:26:51.998Z</time></trkpt><trkpt lat="43.53836150378318" lon="10.703185088942481"><ele>51.0</ele><time>2026-04-18T07:26:52.998Z</time></trkpt><trkpt lat="43.53828594092609" lon="10.703115100050999"><ele>51.33333333333333</ele><time>2026-04-18T07:26:53.998Z</time></trkpt><trkpt lat="43.538209875154806" lon="10.703045111159517"><ele>51.666666666666664</ele><time>2026-04-18T07:26:54.998Z</time></trkpt><trkpt lat="43.538131462450636" lon="10.702972859154178"><ele>52.0</ele><time>2026-04-18T07:26:55.998Z</time></trkpt><trkpt lat="43.53804630231441" lon="10.70288845338924"><ele>52.0</ele><time>2026-04-18T07:26:56.998Z</time></trkpt><trkpt lat="43.53795510720791" lon="10.702813351536824"><ele>52.0</ele><time>2026-04-18T07:26:57.998Z</time></trkpt><trkpt lat="43.537881472188545" lon="10.702748391787244"><ele>52.0</ele><time>2026-04-18T07:26:58.998Z</time></trkpt><trkpt lat="43.53781081274481" lon="10.702685778970553"><ele>52.0</ele><time>2026-04-18T07:26:59.998Z</time></trkpt><trkpt lat="43.537748535204244" lon="10.702636996294094"><ele>52.0</ele><time>2026-04-18T07:27:00.998Z</time></trkpt><trkpt lat="43.537657172459674" lon="10.702522834772898"><ele>52.25</ele><time>2026-04-18T07:27:02.998Z</time></trkpt><trkpt lat="43.5376144247535" lon="10.702346730987264"><ele>52.5</ele><time>2026-04-18T07:27:04.998Z</time></trkpt><trkpt lat="43.537595942657006" lon="10.702209603051378"><ele>52.75</ele><time>2026-04-18T07:27:05.998Z</time></trkpt><trkpt lat="43.537567318457675" lon="10.702049173424674"><ele>53.0</ele><time>2026-04-18T07:27:06.998Z</time></trkpt><trkpt lat="43.53754443586202" lon="10.701881786818339"><ele>53.599999999999994</ele><time>2026-04-18T07:27:07.998Z</time></trkpt><trkpt lat="43.5375203378904" lon="10.701728230352236"><ele>54.199999999999996</ele><time>2026-04-18T07:27:08.998Z</time></trkpt><trkpt lat="43.53750059850843" lon="10.701583977798652"><ele>54.8</ele><time>2026-04-18T07:27:09.998Z</time></trkpt><trkpt lat="43.537488905753506" lon="10.701459003622364"><ele>55.4</ele><time>2026-04-18T07:27:10.998Z</time></trkpt><trkpt lat="43.53747876365067" lon="10.701344506825041"><ele>56.0</ele><time>2026-04-18T07:27:11.998Z</time></trkpt><trkpt lat="43.53746438868673" lon="10.701241157958936"><ele>56.0</ele><time>2026-04-18T07:27:12.998Z</time></trkpt><trkpt lat="43.537458856630636" lon="10.701142502958607"><ele>55.99999999999999</ele><time>2026-04-18T07:27:13.998Z</time></trkpt><trkpt lat="43.537432747002256" lon="10.700974278161954"><ele>55.99999999999999</ele><time>2026-04-18T07:27:15.998Z</time></trkpt><trkpt lat="43.53742939424099" lon="10.700821392248105"><ele>56.0</ele><time>2026-04-18T07:27:17.998Z</time></trkpt><trkpt lat="43.53746317331077" lon="10.700695328424406"><ele>56.0</ele><time>2026-04-18T07:27:19.998Z</time></trkpt><trkpt lat="43.53753366511644" lon="10.700623495514225"><ele>56.16666666666667</ele><time>2026-04-18T07:27:21.998Z</time></trkpt><trkpt lat="43.537603444460345" lon="10.700611928487849"><ele>56.333333333333336</ele><time>2026-04-18T07:27:22.998Z</time></trkpt><trkpt lat="43.537687305401576" lon="10.700612431402039"><ele>56.5</ele><time>2026-04-18T07:27:23.998Z</time></trkpt><trkpt lat="43.53777016051443" lon="10.700598014528584"><ele>56.66666666666667</ele><time>2026-04-18T07:27:24.998Z</time></trkpt><trkpt lat="43.53785452436985" lon="10.700579658160638"><ele>56.833333333333336</ele><time>2026-04-18T07:27:25.998Z</time></trkpt><trkpt lat="43.537953514646304" lon="10.700567672039103"><ele>57.0</ele><time>2026-04-18T07:27:26.998Z</time></trkpt><trkpt lat="43.538071280385864" lon="10.700556524107885"><ele>57.0</ele><time>2026-04-18T07:27:27.998Z</time></trkpt><trkpt lat="43.53820212189437" lon="10.70054311306281"><ele>57.0</ele><time>2026-04-18T07:27:28.998Z</time></trkpt><trkpt lat="43.53834285404862" lon="10.700515620420408"><ele>57.0</ele><time>2026-04-18T07:27:29.998Z</time></trkpt><trkpt lat="43.53848362811239" lon="10.700488211597037"><ele>57.0</ele><time>2026-04-18T07:27:30.998Z</time></trkpt><trkpt lat="43.53861564308734" lon="10.700464742268156"><ele>56.75</ele><time>2026-04-18T07:27:31.998Z</time></trkpt><trkpt lat="43.53874208409668" lon="10.700441775853466"><ele>56.5</ele><time>2026-04-18T07:27:32.998Z</time></trkpt><trkpt lat="43.538860939483655" lon="10.70042585023744"><ele>56.25</ele><time>2026-04-18T07:27:33.998Z</time></trkpt><trkpt lat="43.53898356672706" lon="10.700400201613736"><ele>56.0</ele><time>2026-04-18T07:27:34.998Z</time></trkpt><trkpt lat="43.53911109738382" lon="10.700389808053803"><ele>56.0</ele><time>2026-04-18T07:27:35.998Z</time></trkpt><trkpt lat="43.5392284021187" lon="10.700374636809062"><ele>55.99999999999999</ele><time>2026-04-18T07:27:36.998Z</time></trkpt><trkpt lat="43.53933497801753" lon="10.70036130958302"><ele>55.99999999999999</ele><time>2026-04-18T07:27:37.998Z</time></trkpt><trkpt lat="43.53943736296477" lon="10.700352592403721"><ele>56.0</ele><time>2026-04-18T07:27:38.998Z</time></trkpt><trkpt lat="43.53952893525692" lon="10.7003398519109"><ele>56.0</ele><time>2026-04-18T07:27:39.998Z</time></trkpt><trkpt lat="43.539614053483625" lon="10.700327530513238"><ele>56.16666666666667</ele><time>2026-04-18T07:27:40.998Z</time></trkpt><trkpt lat="43.539689532521685" lon="10.700311353440117"><ele>56.333333333333336</ele><time>2026-04-18T07:27:41.998Z</time></trkpt><trkpt lat="43.53976325136008" lon="10.700291739786696"><ele>56.5</ele><time>2026-04-18T07:27:42.998Z</time></trkpt><trkpt lat="43.539868108968754" lon="10.700245220224094"><ele>56.66666666666667</ele><time>2026-04-18T07:27:44.998Z</time></trkpt><trkpt lat="43.53993009314271" lon="10.700197443376016"><ele>56.833333333333336</ele><time>2026-04-18T07:27:46.998Z</time></trkpt><trkpt lat="43.5399805521998" lon="10.700255362326931"><ele>57.0</ele><time>2026-04-18T07:28:42.997Z</time></trkpt><trkpt lat="43.54005230129095" lon="10.700287800292205"><ele>57.0</ele><time>2026-04-18T07:28:44.997Z</time></trkpt><trkpt lat="43.54018268179478" lon="10.700282519693207"><ele>57.0</ele><time>2026-04-18T07:28:46.997Z</time></trkpt><trkpt lat="43.540270566049536" lon="10.70026407950623"><ele>57.0</ele><time>2026-04-18T07:28:47.997Z</time></trkpt><trkpt lat="43.54034814056339" lon="10.700260559106898"><ele>57.0</ele><time>2026-04-18T07:28:48.997Z</time></trkpt><trkpt lat="43.54043866511764" lon="10.70024798625214"><ele>57.0</ele><time>2026-04-18T07:28:49.997Z</time></trkpt><trkpt lat="43.54052751329126" lon="10.700227366770338"><ele>57.166666666666664</ele><time>2026-04-18T07:28:50.997Z</time></trkpt><trkpt lat="43.540613050613125" lon="10.700206076736283"><ele>57.33333333333333</ele><time>2026-04-18T07:28:51.997Z</time></trkpt><trkpt lat="43.540700054768045" lon="10.700188558558654"><ele>57.5</ele><time>2026-04-18T07:28:52.997Z</time></trkpt><trkpt lat="43.540788274298926" lon="10.700183697054815"><ele>57.666666666666664</ele><time>2026-04-18T07:28:53.997Z</time></trkpt><trkpt lat="43.540872763882895" lon="10.7001654245059"><ele>57.83333333333333</ele><time>2026-04-18T07:28:54.997Z</time></trkpt><trkpt lat="43.54097083215" lon="10.700145475576353"><ele>58.0</ele><time>2026-04-18T07:28:55.997Z</time></trkpt><trkpt lat="43.541060644242485" lon="10.700128879408073"><ele>57.99999999999999</ele><time>2026-04-18T07:28:56.997Z</time></trkpt><trkpt lat="43.541142703074534" lon="10.700114881629776"><ele>58.0</ele><time>2026-04-18T07:28:57.997Z</time></trkpt><trkpt lat="43.54121855929824" lon="10.700102141136956"><ele>58.0</ele><time>2026-04-18T07:28:58.997Z</time></trkpt><trkpt lat="43.541293032507916" lon="10.70009945892794"><ele>58.0</ele><time>2026-04-18T07:28:59.997Z</time></trkpt><trkpt lat="43.54136683516534" lon="10.700094597424101"><ele>57.99999999999999</ele><time>2026-04-18T07:29:00.997Z</time></trkpt><trkpt lat="43.54143707551392" lon="10.700095938528609"><ele>58.0</ele><time>2026-04-18T07:29:01.997Z</time></trkpt><trkpt lat="43.541542436036785" lon="10.700099039832782"><ele>57.666666666666664</ele><time>2026-04-18T07:29:03.997Z</time></trkpt><trkpt lat="43.54162726089688" lon="10.700132399807405"><ele>57.33333333333333</ele><time>2026-04-18T07:29:05.997Z</time></trkpt><trkpt lat="43.541686604771336" lon="10.700212027887535"><ele>57.0</ele><time>2026-04-18T07:29:07.997Z</time></trkpt><trkpt lat="43.54171694726082" lon="10.700318058962655"><ele>56.66666666666667</ele><time>2026-04-18T07:29:09.997Z</time></trkpt><trkpt lat="43.5417816555533" lon="10.700298696766328"><ele>56.333333333333336</ele><time>2026-04-18T07:29:13.997Z</time></trkpt><trkpt lat="43.54179808408352" lon="10.7001810148458"><ele>56.0</ele><time>2026-04-18T07:29:16.997Z</time></trkpt><trkpt lat="43.54183739520939" lon="10.70010968484981"><ele>56.0</ele><time>2026-04-18T07:29:19.997Z</time></trkpt><trkpt lat="43.54190197777333" lon="10.700019160295557"><ele>55.99999999999999</ele><time>2026-04-18T07:29:22.997Z</time></trkpt><trkpt lat="43.54198743127616" lon="10.69997775369389"><ele>55.99999999999999</ele><time>2026-04-18T07:29:24.997Z</time></trkpt><trkpt lat="43.54207301050754" lon="10.699952021251153"><ele>56.0</ele><time>2026-04-18T07:29:26.997Z</time></trkpt><trkpt lat="43.542194715741594" lon="10.699925115341973"><ele>56.0</ele><time>2026-04-18T07:29:28.997Z</time></trkpt><trkpt lat="43.54226981759401" lon="10.699905166412425"><ele>55.8</ele><time>2026-04-18T07:29:29.997Z</time></trkpt><trkpt lat="43.54236151561471" lon="10.699883708740305"><ele>55.599999999999994</ele><time>2026-04-18T07:29:30.997Z</time></trkpt><trkpt lat="43.54246469684275" lon="10.699850935498905"><ele>55.4</ele><time>2026-04-18T07:29:31.997Z</time></trkpt><trkpt lat="43.542574625502844" lon="10.699816569695901"><ele>55.2</ele><time>2026-04-18T07:29:32.997Z</time></trkpt><trkpt lat="43.54269691747012" lon="10.699784969920945"><ele>55.0</ele><time>2026-04-18T07:29:33.997Z</time></trkpt><trkpt lat="43.54281862270417" lon="10.699749179194402"><ele>54.25</ele><time>2026-04-18T07:29:34.997Z</time></trkpt><trkpt lat="43.54294456079932" lon="10.699717411781382"><ele>53.5</ele><time>2026-04-18T07:29:35.997Z</time></trkpt><trkpt lat="43.543070582713504" lon="10.699684470901916"><ele>52.75</ele><time>2026-04-18T07:29:36.997Z</time></trkpt><trkpt lat="43.54321772702368" lon="10.699645243595073"><ele>52.0</ele><time>2026-04-18T07:29:37.997Z</time></trkpt><trkpt lat="43.54336956519963" lon="10.699582463140318"><ele>52.0</ele><time>2026-04-18T07:29:38.997Z</time></trkpt><trkpt lat="43.54351926599028" lon="10.699510378773043"><ele>52.0</ele><time>2026-04-18T07:29:39.997Z</time></trkpt><trkpt lat="43.54368635923" lon="10.699444329376051"><ele>52.0</ele><time>2026-04-18T07:29:40.997Z</time></trkpt><trkpt lat="43.54384989016088" lon="10.69936947898073"><ele>52.0</ele><time>2026-04-18T07:29:41.997Z</time></trkpt><trkpt lat="43.544015390839" lon="10.699307285259197"><ele>52.0</ele><time>2026-04-18T07:29:42.997Z</time></trkpt><trkpt lat="43.544168109114786" lon="10.699233273054192"><ele>52.0</ele><time>2026-04-18T07:29:43.997Z</time></trkpt><trkpt lat="43.54432480879458" lon="10.699163367981742"><ele>52.0</ele><time>2026-04-18T07:29:44.997Z</time></trkpt><trkpt lat="43.54447970636519" lon="10.699093211452196"><ele>52.0</ele><time>2026-04-18T07:29:45.997Z</time></trkpt><trkpt lat="43.544628568965514" lon="10.69902305492265"><ele>52.0</ele><time>2026-04-18T07:29:46.997Z</time></trkpt><trkpt lat="43.544765738810916" lon="10.698968069637845"><ele>52.2</ele><time>2026-04-18T07:29:47.997Z</time></trkpt><trkpt lat="43.54490039408537" lon="10.698915682743023"><ele>52.400000000000006</ele><time>2026-04-18T07:29:48.997Z</time></trkpt><trkpt lat="43.54501719590606" lon="10.698879137645195"><ele>52.599999999999994</ele><time>2026-04-18T07:29:49.997Z</time></trkpt><trkpt lat="43.54510273322793" lon="10.698851225907633"><ele>52.8</ele><time>2026-04-18T07:29:50.997Z</time></trkpt><trkpt lat="43.54519430552008" lon="10.698856841782758"><ele>53.0</ele><time>2026-04-18T07:29:52.997Z</time></trkpt><trkpt lat="43.54519003074946" lon="10.698972679684589"><ele>53.0</ele><time>2026-04-18T07:29:55.997Z</time></trkpt><trkpt lat="43.54517251257183" lon="10.699068568656871"><ele>53.0</ele><time>2026-04-18T07:29:57.997Z</time></trkpt><trkpt lat="43.54515956253143" lon="10.699163954714964"><ele>53.0</ele><time>2026-04-18T07:29:59.997Z</time></trkpt><trkpt lat="43.545154072384854" lon="10.69925221615536"><ele>53.0</ele><time>2026-04-18T07:30:01.997Z</time></trkpt><trkpt lat="43.545155790675004" lon="10.699361516172717"><ele>53.0</ele><time>2026-04-18T07:30:42.997Z</time></trkpt><trkpt lat="43.54515784424128" lon="10.699448352689574"><ele>53.0</ele><time>2026-04-18T07:30:43.997Z</time></trkpt><trkpt lat="43.545157508965154" lon="10.699561340744326"><ele>53.0</ele><time>2026-04-18T07:30:44.997Z</time></trkpt><trkpt lat="43.54515625167968" lon="10.699698971594403"><ele>52.5</ele><time>2026-04-18T07:30:45.997Z</time></trkpt><trkpt lat="43.54515059389504" lon="10.69986484945817"><ele>52.0</ele><time>2026-04-18T07:30:46.997Z</time></trkpt><trkpt lat="43.545137769583185" lon="10.70005545393629"><ele>51.5</ele><time>2026-04-18T07:30:47.997Z</time></trkpt><trkpt lat="43.54514082897784" lon="10.700239269072842"><ele>51.0</ele><time>2026-04-18T07:30:48.997Z</time></trkpt><trkpt lat="43.545138482044955" lon="10.700418641800713"><ele>51.0</ele><time>2026-04-18T07:30:49.997Z</time></trkpt><trkpt lat="43.54512871712776" lon="10.700564486915898"><ele>51.0</ele><time>2026-04-18T07:30:50.997Z</time></trkpt><trkpt lat="43.54512955531808" lon="10.70067990572257"><ele>51.0</ele><time>2026-04-18T07:30:51.997Z</time></trkpt><trkpt lat="43.54514983952375" lon="10.700804628441762"><ele>51.0</ele><time>2026-04-18T07:30:53.997Z</time></trkpt><trkpt lat="43.54524212427767" lon="10.70085634478433"><ele>51.0</ele><time>2026-04-18T07:30:55.997Z</time></trkpt><trkpt lat="43.54531152643593" lon="10.700870342562627"><ele>50.75</ele><time>2026-04-18T07:30:56.997Z</time></trkpt><trkpt lat="43.545409636612554" lon="10.700887357826065"><ele>50.5</ele><time>2026-04-18T07:30:57.997Z</time></trkpt><trkpt lat="43.54552149311038" lon="10.700912252078485"><ele>50.25</ele><time>2026-04-18T07:30:58.997Z</time></trkpt><trkpt lat="43.54565246034743" lon="10.700934128845763"><ele>50.0</ele><time>2026-04-18T07:30:59.997Z</time></trkpt><trkpt lat="43.54578665461721" lon="10.700963633144926"><ele>50.0</ele><time>2026-04-18T07:31:00.997Z</time></trkpt><trkpt lat="43.54592042979183" lon="10.700981318960618"><ele>50.0</ele><time>2026-04-18T07:31:01.997Z</time></trkpt><trkpt lat="43.546061497222205" lon="10.701008560145926"><ele>50.0</ele><time>2026-04-18T07:31:02.997Z</time></trkpt><trkpt lat="43.54620503731402" lon="10.701036388064455"><ele>50.0</ele><time>2026-04-18T07:31:03.997Z</time></trkpt><trkpt lat="43.546344973187466" lon="10.70106740110619"><ele>49.75</ele><time>2026-04-18T07:31:04.997Z</time></trkpt><trkpt lat="43.546479251276274" lon="10.701092714453768"><ele>49.5</ele><time>2026-04-18T07:31:05.997Z</time></trkpt><trkpt lat="43.54662178553971" lon="10.701112411926221"><ele>49.25</ele><time>2026-04-18T07:31:06.997Z</time></trkpt><trkpt lat="43.546761805232194" lon="10.701138395826053"><ele>49.0</ele><time>2026-04-18T07:31:07.997Z</time></trkpt><trkpt lat="43.546878942329016" lon="10.70115532727046"><ele>49.0</ele><time>2026-04-18T07:31:08.997Z</time></trkpt><trkpt lat="43.5469869850609" lon="10.701180221522879"><ele>49.0</ele><time>2026-04-18T07:31:09.997Z</time></trkpt><trkpt lat="43.547079982276585" lon="10.701190782720875"><ele>49.0</ele><time>2026-04-18T07:31:10.997Z</time></trkpt><trkpt lat="43.54717951737675" lon="10.70116806776328"><ele>49.0</ele><time>2026-04-18T07:31:11.997Z</time></trkpt><trkpt lat="43.547297199297276" lon="10.701122889305186"><ele>49.0</ele><time>2026-04-18T07:31:12.997Z</time></trkpt><trkpt lat="43.547414462122646" lon="10.70108014159901"><ele>49.0</ele><time>2026-04-18T07:31:13.997Z</time></trkpt><trkpt lat="43.54753813710394" lon="10.701033957312536"><ele>49.0</ele><time>2026-04-18T07:31:14.997Z</time></trkpt><trkpt lat="43.547663069370714" lon="10.700988946492505"><ele>49.0</ele><time>2026-04-18T07:31:15.997Z</time></trkpt><trkpt lat="43.54779588062647" lon="10.700949719185662"><ele>49.0</ele><time>2026-04-18T07:31:16.997Z</time></trkpt><trkpt lat="43.54792655449691" lon="10.700896326462459"><ele>49.0</ele><time>2026-04-18T07:31:17.997Z</time></trkpt><trkpt lat="43.54804402686986" lon="10.700868330905866"><ele>49.0</ele><time>2026-04-18T07:31:18.997Z</time></trkpt><trkpt lat="43.54813882619473" lon="10.700854919860792"><ele>49.0</ele><time>2026-04-18T07:31:19.997Z</time></trkpt><trkpt lat="43.5482259560782" lon="10.700826169932913"><ele>49.0</ele><time>2026-04-18T07:31:20.997Z</time></trkpt><trkpt lat="43.54829887863579" lon="10.700806891555619"><ele>49.0</ele><time>2026-04-18T07:31:21.997Z</time></trkpt><trkpt lat="43.54836647868487" lon="10.700770011181664"><ele>49.0</ele><time>2026-04-18T07:31:22.997Z</time></trkpt><trkpt lat="43.548437138128605" lon="10.700748637328577"><ele>49.0</ele><time>2026-04-18T07:31:23.997Z</time></trkpt><trkpt lat="43.5485185264084" lon="10.7007405068825"><ele>49.0</ele><time>2026-04-18T07:31:24.997Z</time></trkpt><trkpt lat="43.54860180061641" lon="10.70074000396831"><ele>49.0</ele><time>2026-04-18T07:31:25.997Z</time></trkpt><trkpt lat="43.548716171685186" lon="10.700750146071147"><ele>49.0</ele><time>2026-04-18T07:31:26.997Z</time></trkpt><trkpt lat="43.54883837983343" lon="10.700764646763634"><ele>48.25</ele><time>2026-04-18T07:31:27.997Z</time></trkpt><trkpt lat="43.54895430155429" lon="10.700782919312548"><ele>47.5</ele><time>2026-04-18T07:31:28.997Z</time></trkpt><trkpt lat="43.54906498458567" lon="10.70079180412991"><ele>46.75</ele><time>2026-04-18T07:31:29.997Z</time></trkpt><trkpt lat="43.5491816187683" lon="10.700806388641428"><ele>46.0</ele><time>2026-04-18T07:31:30.997Z</time></trkpt><trkpt lat="43.54929150551888" lon="10.700814351449441"><ele>46.0</ele><time>2026-04-18T07:31:31.997Z</time></trkpt><trkpt lat="43.5494052060354" lon="10.700830277065467"><ele>46.0</ele><time>2026-04-18T07:31:32.997Z</time></trkpt><trkpt lat="43.54951907418999" lon="10.70084209554894"><ele>46.0</ele><time>2026-04-18T07:31:33.997Z</time></trkpt><trkpt lat="43.549629799130884" lon="10.700846286500525"><ele>46.0</ele><time>2026-04-18T07:31:34.997Z</time></trkpt><trkpt lat="43.54971550409081" lon="10.70084603504343"><ele>46.0</ele><time>2026-04-18T07:31:35.997Z</time></trkpt><trkpt lat="43.54979341388079" lon="10.700842933739256"><ele>45.833333333333336</ele><time>2026-04-18T07:31:36.997Z</time></trkpt><trkpt lat="43.54986918628546" lon="10.700838658968639"><ele>45.66666666666667</ele><time>2026-04-18T07:31:37.997Z</time></trkpt><trkpt lat="43.54994030673387" lon="10.700831701989006"><ele>45.5</ele><time>2026-04-18T07:31:38.997Z</time></trkpt><trkpt lat="43.55001742024305" lon="10.700832791636419"><ele>45.333333333333336</ele><time>2026-04-18T07:31:39.997Z</time></trkpt><trkpt lat="43.550080619792965" lon="10.700834384198021"><ele>45.166666666666664</ele><time>2026-04-18T07:31:40.997Z</time></trkpt><trkpt lat="43.55018455539229" lon="10.700870845476818"><ele>45.0</ele><time>2026-04-18T07:31:42.997Z</time></trkpt><trkpt lat="43.55023124259296" lon="10.700929351160955"><ele>45.0</ele><time>2026-04-18T07:31:43.997Z</time></trkpt><trkpt lat="43.55026762005272" lon="10.701023060838413"><ele>45.0</ele><time>2026-04-18T07:31:44.997Z</time></trkpt><trkpt lat="43.55030538052651" lon="10.70114023984475"><ele>45.0</ele><time>2026-04-18T07:31:45.997Z</time></trkpt><trkpt lat="43.55033924341532" lon="10.70126772859199"><ele>45.0</ele><time>2026-04-18T07:31:46.997Z</time></trkpt><trkpt lat="43.55038739744904" lon="10.701378118256759"><ele>45.0</ele><time>2026-04-18T07:31:47.997Z</time></trkpt><trkpt lat="43.550447789061394" lon="10.701458081613016"><ele>45.0</ele><time>2026-04-18T07:31:48.997Z</time></trkpt><trkpt lat="43.55051622730079" lon="10.70151256398363"><ele>44.6</ele><time>2026-04-18T07:31:49.997Z</time></trkpt><trkpt lat="43.55059464000496" lon="10.701543660844397"><ele>44.2</ele><time>2026-04-18T07:31:50.997Z</time></trkpt><trkpt lat="43.55067519009444" lon="10.701561262841057"><ele>43.8</ele><time>2026-04-18T07:31:51.997Z</time></trkpt><trkpt lat="43.55076533746305" lon="10.701579703028035"><ele>43.4</ele><time>2026-04-18T07:31:52.997Z</time></trkpt><trkpt lat="43.5508608911592" lon="10.701581798503828"><ele>43.0</ele><time>2026-04-18T07:31:53.997Z</time></trkpt><trkpt lat="43.55097936936053" lon="10.7015936169873"><ele>43.0</ele><time>2026-04-18T07:31:54.997Z</time></trkpt><trkpt lat="43.55109017812046" lon="10.701597891757917"><ele>43.0</ele><time>2026-04-18T07:31:55.997Z</time></trkpt><trkpt lat="43.55119159914884" lon="10.701599903414678"><ele>43.0</ele><time>2026-04-18T07:31:56.997Z</time></trkpt><trkpt lat="43.55129142761561" lon="10.70159906522436"><ele>43.0</ele><time>2026-04-18T07:31:57.997Z</time></trkpt><trkpt lat="43.55138844814482" lon="10.701592024425697"><ele>43.0</ele><time>2026-04-18T07:31:58.997Z</time></trkpt><trkpt lat="43.551455587189224" lon="10.701595796282124"><ele>42.599999999999994</ele><time>2026-04-18T07:31:59.997Z</time></trkpt><trkpt lat="43.551554828922775" lon="10.70155648515625"><ele>42.199999999999996</ele><time>2026-04-18T07:32:01.997Z</time></trkpt><trkpt lat="43.551604910794225" lon="10.701447436595988"><ele>41.8</ele><time>2026-04-18T07:32:03.997Z</time></trkpt><trkpt lat="43.55159212839189" lon="10.701264711106848"><ele>41.4</ele><time>2026-04-18T07:32:05.997Z</time></trkpt><trkpt lat="43.55158349503162" lon="10.70112506860001"><ele>41.0</ele><time>2026-04-18T07:32:06.997Z</time></trkpt><trkpt lat="43.55158148337486" lon="10.700984168807697"><ele>41.666666666666664</ele><time>2026-04-18T07:32:07.997Z</time></trkpt><trkpt lat="43.55158718306902" lon="10.700878556827735"><ele>42.33333333333333</ele><time>2026-04-18T07:32:08.997Z</time></trkpt><trkpt lat="43.55162276424798" lon="10.700744949291181"><ele>43.0</ele><time>2026-04-18T07:32:10.997Z</time></trkpt><trkpt lat="43.551703859161165" lon="10.70070731454594"><ele>43.666666666666664</ele><time>2026-04-18T07:32:12.997Z</time></trkpt><trkpt lat="43.55178017638954" lon="10.700703626508545"><ele>44.333333333333336</ele><time>2026-04-18T07:32:13.997Z</time></trkpt><trkpt lat="43.55187816083762" lon="10.700681330646109"><ele>45.0</ele><time>2026-04-18T07:32:14.997Z</time></trkpt><trkpt lat="43.55197941422793" lon="10.700652832175326"><ele>44.4</ele><time>2026-04-18T07:32:15.997Z</time></trkpt><trkpt lat="43.55207215998652" lon="10.700629362846446"><ele>43.8</ele><time>2026-04-18T07:32:16.997Z</time></trkpt><trkpt lat="43.55215199761423" lon="10.700585190216731"><ele>43.2</ele><time>2026-04-18T07:32:17.997Z</time></trkpt><trkpt lat="43.55222789574745" lon="10.700535569349956"><ele>42.6</ele><time>2026-04-18T07:32:18.997Z</time></trkpt><trkpt lat="43.552351067814556" lon="10.700428616265487"><ele>42.0</ele><time>2026-04-18T07:32:20.997Z</time></trkpt><trkpt lat="43.55242223017248" lon="10.700372289876174"><ele>42.0</ele><time>2026-04-18T07:32:21.997Z</time></trkpt><trkpt lat="43.55249456599685" lon="10.700320657352638"><ele>42.0</ele><time>2026-04-18T07:32:22.997Z</time></trkpt><trkpt lat="43.55254904836747" lon="10.700277071456146"><ele>42.0</ele><time>2026-04-18T07:32:23.997Z</time></trkpt><trkpt lat="43.55261874389234" lon="10.700244717309904"><ele>42.0</ele><time>2026-04-18T07:32:24.997Z</time></trkpt><trkpt lat="43.55269338474008" lon="10.70020984859271"><ele>42.0</ele><time>2026-04-18T07:32:25.997Z</time></trkpt><trkpt lat="43.552770037244585" lon="10.700170453647804"><ele>42.0</ele><time>2026-04-18T07:32:26.997Z</time></trkpt><trkpt lat="43.552845306735065" lon="10.700123682628107"><ele>42.0</ele><time>2026-04-18T07:32:27.997Z</time></trkpt><trkpt lat="43.55291919321152" lon="10.700074313218426"><ele>42.0</ele><time>2026-04-18T07:32:28.997Z</time></trkpt><trkpt lat="43.55297979437145" lon="10.700031649331283"><ele>42.0</ele><time>2026-04-18T07:32:29.997Z</time></trkpt><trkpt lat="43.55305066336277" lon="10.69999191911025"><ele>42.0</ele><time>2026-04-18T07:32:30.997Z</time></trkpt><trkpt lat="43.5531326802853" lon="10.699939951310586"><ele>42.0</ele><time>2026-04-18T07:32:31.997Z</time></trkpt><trkpt lat="43.55321289509865" lon="10.699906172240805"><ele>42.0</ele><time>2026-04-18T07:32:32.997Z</time></trkpt><trkpt lat="43.55328761976543" lon="10.69986979478104"><ele>42.0</ele><time>2026-04-18T07:32:33.997Z</time></trkpt><trkpt lat="43.55335408825758" lon="10.699848672385048"><ele>42.0</ele><time>2026-04-18T07:32:34.997Z</time></trkpt><trkpt lat="43.55346829168829" lon="10.69983165712161"><ele>42.0</ele><time>2026-04-18T07:32:36.997Z</time></trkpt><trkpt lat="43.55359334968361" lon="10.699835428978037"><ele>42.0</ele><time>2026-04-18T07:32:38.997Z</time></trkpt><trkpt lat="43.55366040490898" lon="10.699844229976367"><ele>42.0</ele><time>2026-04-18T07:32:39.997Z</time></trkpt><trkpt lat="43.553734626661566" lon="10.69984733128054"><ele>41.5</ele><time>2026-04-18T07:32:40.997Z</time></trkpt><trkpt lat="43.5538021009821" lon="10.699850348765683"><ele>41.0</ele><time>2026-04-18T07:32:41.997Z</time></trkpt><trkpt lat="43.55387255087825" lon="10.699854874993395"><ele>40.5</ele><time>2026-04-18T07:32:42.997Z</time></trkpt><trkpt lat="43.553941533941355" lon="10.69985269569857"><ele>40.0</ele><time>2026-04-18T07:32:44.997Z</time></trkpt><trkpt lat="43.55401034936639" lon="10.699858814487886"><ele>39.5</ele><time>2026-04-18T07:32:46.997Z</time></trkpt><trkpt lat="43.55406302962783" lon="10.699919834742975"><ele>39.0</ele><time>2026-04-18T07:32:48.997Z</time></trkpt><trkpt lat="43.554134359623816" lon="10.700050424794387"><ele>39.0</ele><time>2026-04-18T07:32:50.997Z</time></trkpt><trkpt lat="43.554194332141016" lon="10.7001326512645"><ele>39.0</ele><time>2026-04-18T07:32:51.997Z</time></trkpt><trkpt lat="43.554258788976405" lon="10.700220325971674"><ele>39.0</ele><time>2026-04-18T07:32:52.997Z</time></trkpt><trkpt lat="43.55433020279143" lon="10.700306659574341"><ele>39.0</ele><time>2026-04-18T07:32:53.997Z</time></trkpt><trkpt lat="43.55439704846922" lon="10.700404895479512"><ele>39.0</ele><time>2026-04-18T07:32:55.055Z</time></trkpt><trkpt lat="43.55446774982247" lon="10.700498856614065"><ele>38.8</ele><time>2026-04-18T07:32:56.082Z</time></trkpt><trkpt lat="43.55453233238641" lon="10.700596086690854"><ele>38.599999999999994</ele><time>2026-04-18T07:32:57.076Z</time></trkpt><trkpt lat="43.554597124497924" lon="10.700693903500866"><ele>38.4</ele><time>2026-04-18T07:32:58.083Z</time></trkpt><trkpt lat="43.554665395099256" lon="10.700781829665136"><ele>38.199999999999996</ele><time>2026-04-18T07:32:59.055Z</time></trkpt><trkpt lat="43.5547355516288" lon="10.700875455523562"><ele>38.0</ele><time>2026-04-18T07:33:00.069Z</time></trkpt><trkpt lat="43.55480600152496" lon="10.700951227928233"><ele>38.0</ele><time>2026-04-18T07:33:01.066Z</time></trkpt><trkpt lat="43.55487490076903" lon="10.701032113293838"><ele>38.0</ele><time>2026-04-18T07:33:02.057Z</time></trkpt><trkpt lat="43.55493566956702" lon="10.701118446896505"><ele>38.0</ele><time>2026-04-18T07:33:03.056Z</time></trkpt><trkpt lat="43.554984619881544" lon="10.701207881803345"><ele>38.0</ele><time>2026-04-18T07:33:04.052Z</time></trkpt><trkpt lat="43.55505096264515" lon="10.7012965623389"><ele>38.0</ele><time>2026-04-18T07:33:05.071Z</time></trkpt><trkpt lat="43.555111396167014" lon="10.701391529301834"><ele>38.0</ele><time>2026-04-18T07:33:06.081Z</time></trkpt><trkpt lat="43.555178367573355" lon="10.701482808227372"><ele>37.83333333333333</ele><time>2026-04-18T07:33:07.073Z</time></trkpt><trkpt lat="43.55524114802811" lon="10.701572997505497"><ele>37.666666666666664</ele><time>2026-04-18T07:33:08.067Z</time></trkpt><trkpt lat="43.55529860597435" lon="10.701660672212673"><ele>37.5</ele><time>2026-04-18T07:33:09.064Z</time></trkpt><trkpt lat="43.555356315377686" lon="10.701737785721852"><ele>37.333333333333336</ele><time>2026-04-18T07:33:10.056Z</time></trkpt><trkpt lat="43.555407319258485" lon="10.701810373003317"><ele>37.16666666666667</ele><time>2026-04-18T07:33:11.062Z</time></trkpt><trkpt lat="43.55546758514229" lon="10.70189896971984"><ele>37.0</ele><time>2026-04-18T07:33:12.065Z</time></trkpt><trkpt lat="43.55552705474529" lon="10.701981447647048"><ele>36.833333333333336</ele><time>2026-04-18T07:33:13.051Z</time></trkpt><trkpt lat="43.55558380022976" lon="10.702060321355892"><ele>36.66666666666667</ele><time>2026-04-18T07:33:14.074Z</time></trkpt><trkpt lat="43.55564000089053" lon="10.70212368854387"><ele>36.5</ele><time>2026-04-18T07:33:15.061Z</time></trkpt><trkpt lat="43.555714599828754" lon="10.702214213098122"><ele>36.333333333333336</ele><time>2026-04-18T07:33:17.072Z</time></trkpt><trkpt lat="43.55578111023042" lon="10.702239358807637"><ele>36.166666666666664</ele><time>2026-04-18T07:33:19.053Z</time></trkpt><trkpt lat="43.5559021030027" lon="10.702204154814316"><ele>36.0</ele><time>2026-04-18T07:33:21.078Z</time></trkpt><trkpt lat="43.5559676494855" lon="10.702167525897456"><ele>36.0</ele><time>2026-04-18T07:33:22.096Z</time></trkpt><trkpt lat="43.55602724481705" lon="10.702107846746875"><ele>36.0</ele><time>2026-04-18T07:33:23.056Z</time></trkpt><trkpt lat="43.55607267473224" lon="10.702031571428014"><ele>36.0</ele><time>2026-04-18T07:33:24.052Z</time></trkpt><trkpt lat="43.55611718263808" lon="10.701946495110823"><ele>36.0</ele><time>2026-04-18T07:33:25.051Z</time></trkpt><trkpt lat="43.556143962818716" lon="10.701842475692464"><ele>36.0</ele><time>2026-04-18T07:33:26.046Z</time></trkpt><trkpt lat="43.55617153928015" lon="10.701726637790633"><ele>36.0</ele><time>2026-04-18T07:33:27.058Z</time></trkpt><trkpt lat="43.5561938770521" lon="10.701613146821689"><ele>36.5</ele><time>2026-04-18T07:33:28.047Z</time></trkpt><trkpt lat="43.55621353261504" lon="10.701491357768607"><ele>37.0</ele><time>2026-04-18T07:33:29.075Z</time></trkpt><trkpt lat="43.55622719511721" lon="10.701365545402002"><ele>37.5</ele><time>2026-04-18T07:33:30.053Z</time></trkpt><trkpt lat="43.55622275270853" lon="10.701247947300505"><ele>38.0</ele><time>2026-04-18T07:33:31.058Z</time></trkpt><trkpt lat="43.55620665945444" lon="10.701152142147254"><ele>38.5</ele><time>2026-04-18T07:33:32.05Z</time></trkpt><trkpt lat="43.556181597563956" lon="10.701023060838413"><ele>39.0</ele><time>2026-04-18T07:33:34.048Z</time></trkpt><trkpt lat="43.55615108743641" lon="10.700936643416714"><ele>39.0</ele><time>2026-04-18T07:33:35.053Z</time></trkpt><trkpt lat="43.55611567389551" lon="10.70083480329318"><ele>39.0</ele><time>2026-04-18T07:33:36.06Z</time></trkpt><trkpt lat="43.556066178757284" lon="10.700708655650448"><ele>39.0</ele><time>2026-04-18T07:33:37.069Z</time></trkpt><trkpt lat="43.55600603860203" lon="10.700555853555631"><ele>39.0</ele><time>2026-04-18T07:33:38.054Z</time></trkpt><trkpt lat="43.55592842217866" lon="10.700375391180348"><ele>40.0</ele><time>2026-04-18T07:33:39.068Z</time></trkpt><trkpt lat="43.555855415802036" lon="10.700188055644464"><ele>41.0</ele><time>2026-04-18T07:33:40.073Z</time></trkpt><trkpt lat="43.55578626510087" lon="10.700021591047477"><ele>42.0</ele><time>2026-04-18T07:33:41.068Z</time></trkpt><trkpt lat="43.555716569576" lon="10.699867531667184"><ele>43.0</ele><time>2026-04-18T07:33:42.058Z</time></trkpt><trkpt lat="43.55565839916799" lon="10.699719674895238"><ele>43.0</ele><time>2026-04-18T07:33:43.058Z</time></trkpt><trkpt lat="43.555597630369995" lon="10.699584810073206"><ele>43.0</ele><time>2026-04-18T07:33:44.048Z</time></trkpt><trkpt lat="43.55553912468586" lon="10.6994383782248"><ele>43.0</ele><time>2026-04-18T07:33:45.047Z</time></trkpt><trkpt lat="43.555477643426094" lon="10.699295885870884"><ele>43.0</ele><time>2026-04-18T07:33:46.069Z</time></trkpt><trkpt lat="43.55541565925214" lon="10.69914962166054"><ele>43.5</ele><time>2026-04-18T07:33:47.066Z</time></trkpt><trkpt lat="43.55534713719371" lon="10.698990868414471"><ele>44.0</ele><time>2026-04-18T07:33:48.066Z</time></trkpt><trkpt lat="43.55527119715098" lon="10.69881878794236"><ele>44.5</ele><time>2026-04-18T07:33:49.066Z</time></trkpt><trkpt lat="43.555193245451484" lon="10.69863212295873"><ele>45.0</ele><time>2026-04-18T07:33:50.054Z</time></trkpt><trkpt lat="43.5551095102388" lon="10.698433052758405"><ele>45.333333333333336</ele><time>2026-04-18T07:33:51.064Z</time></trkpt><trkpt lat="43.55503038507286" lon="10.698237000043223"><ele>45.66666666666667</ele><time>2026-04-18T07:33:52.059Z</time></trkpt><trkpt lat="43.554952349554334" lon="10.69805553183956"><ele>46.0</ele><time>2026-04-18T07:33:53.071Z</time></trkpt><trkpt lat="43.554878798354004" lon="10.697889067242572"><ele>46.0</ele><time>2026-04-18T07:33:54.081Z</time></trkpt><trkpt lat="43.55481995739374" lon="10.697745569060274"><ele>46.0</ele><time>2026-04-18T07:33:55.076Z</time></trkpt><trkpt lat="43.55476501401845" lon="10.697621600712367"><ele>46.0</ele><time>2026-04-18T07:33:56.072Z</time></trkpt><trkpt lat="43.55471635707054" lon="10.697522191340752"><ele>46.0</ele><time>2026-04-18T07:33:57.066Z</time></trkpt><trkpt lat="43.55469896462146" lon="10.69740526379151"><ele>46.0</ele><time>2026-04-18T07:33:59.052Z</time></trkpt><trkpt lat="43.55478140063915" lon="10.697309291000195"><ele>46.0</ele><time>2026-04-18T07:34:01.047Z</time></trkpt><trkpt lat="43.55485918470058" lon="10.6972503662209"><ele>46.0</ele><time>2026-04-18T07:34:02.049Z</time></trkpt><trkpt lat="43.5549644194949" lon="10.697178952405878"><ele>46.0</ele><time>2026-04-18T07:34:03.048Z</time></trkpt><trkpt lat="43.555068983736966" lon="10.697110220799871"><ele>46.0</ele><time>2026-04-18T07:34:04.047Z</time></trkpt><trkpt lat="43.5551742604408" lon="10.697031598548122"><ele>46.0</ele><time>2026-04-18T07:34:05.062Z</time></trkpt><trkpt lat="43.55527291544113" lon="10.696969069550462"><ele>46.0</ele><time>2026-04-18T07:34:06.054Z</time></trkpt><trkpt lat="43.55536884632293" lon="10.696905618543454"><ele>46.0</ele><time>2026-04-18T07:34:07.057Z</time></trkpt><trkpt lat="43.55545291681174" lon="10.696848537782856"><ele>46.0</ele><time>2026-04-18T07:34:08.074Z</time></trkpt><trkpt lat="43.55553396981541" lon="10.696790870289036"><ele>46.0</ele><time>2026-04-18T07:34:09.085Z</time></trkpt><trkpt lat="43.55561070613894" lon="10.696747703487702"><ele>46.0</ele><time>2026-04-18T07:34:10.081Z</time></trkpt><trkpt lat="43.555671391117905" lon="10.69669875317318"><ele>46.0</ele><time>2026-04-18T07:34:11.078Z</time></trkpt><trkpt lat="43.55572578966949" lon="10.696618286902734"><ele>46.0</ele><time>2026-04-18T07:34:13.064Z</time></trkpt><trkpt lat="43.55572021570388" lon="10.6965233199398"><ele>46.0</ele><time>2026-04-18T07:34:15.066Z</time></trkpt><trkpt lat="43.5556795634735" lon="10.696394154811927"><ele>46.0</ele><time>2026-04-18T07:34:17.047Z</time></trkpt><trkpt lat="43.55565324429754" lon="10.696306731561847"><ele>46.0</ele><time>2026-04-18T07:34:18.064Z</time></trkpt><trkpt lat="43.555622817989025" lon="10.696212183694072"><ele>46.0</ele><time>2026-04-18T07:34:19.057Z</time></trkpt><trkpt lat="43.55559230786148" lon="10.696109840656348"><ele>46.0</ele><time>2026-04-18T07:34:20.05Z</time></trkpt><trkpt lat="43.555555553216074" lon="10.69600439631445"><ele>46.4</ele><time>2026-04-18T07:34:21.055Z</time></trkpt><trkpt lat="43.55550786018703" lon="10.695905741314121"><ele>46.8</ele><time>2026-04-18T07:34:22.075Z</time></trkpt><trkpt lat="43.55546557348553" lon="10.695802811543173"><ele>47.199999999999996</ele><time>2026-04-18T07:34:23.103Z</time></trkpt><trkpt lat="43.555428567383025" lon="10.695688985298103"><ele>47.599999999999994</ele><time>2026-04-18T07:34:24.087Z</time></trkpt><trkpt lat="43.55538720269087" lon="10.695569543177909"><ele>48.0</ele><time>2026-04-18T07:34:25.052Z</time></trkpt><trkpt lat="43.55533485770557" lon="10.695440042773908"><ele>48.25</ele><time>2026-04-18T07:34:26.05Z</time></trkpt><trkpt lat="43.5552786570448" lon="10.695296293134517"><ele>48.5</ele><time>2026-04-18T07:34:27.07Z</time></trkpt><trkpt lat="43.55521834925148" lon="10.695138461897796"><ele>48.75</ele><time>2026-04-18T07:34:28.073Z</time></trkpt><trkpt lat="43.55516625572327" lon="10.694973589862412"><ele>49.0</ele><time>2026-04-18T07:34:29.074Z</time></trkpt><trkpt lat="43.555120490531955" lon="10.694807963455743"><ele>49.2</ele><time>2026-04-18T07:34:30.07Z</time></trkpt><trkpt lat="43.55507975448254" lon="10.694664968187636"><ele>49.400000000000006</ele><time>2026-04-18T07:34:31.073Z</time></trkpt><trkpt lat="43.55504023380909" lon="10.6945425085823"><ele>49.6</ele><time>2026-04-18T07:34:32.061Z</time></trkpt><trkpt lat="43.55500176087353" lon="10.694435220221704"><ele>49.8</ele><time>2026-04-18T07:34:33.054Z</time></trkpt><trkpt lat="43.5549868829954" lon="10.694267833615369"><ele>50.0</ele><time>2026-04-18T07:34:35.048Z</time></trkpt><trkpt lat="43.55505557269189" lon="10.694154175008363"><ele>50.4</ele><time>2026-04-18T07:34:37.076Z</time></trkpt><trkpt lat="43.555118059780035" lon="10.694124586890167"><ele>50.8</ele><time>2026-04-18T07:34:38.079Z</time></trkpt><trkpt lat="43.55519450273696" lon="10.69408024662239"><ele>51.2</ele><time>2026-04-18T07:34:39.054Z</time></trkpt><trkpt lat="43.55528163262043" lon="10.694026099527902"><ele>51.6</ele><time>2026-04-18T07:34:40.064Z</time></trkpt><trkpt lat="43.55539080690924" lon="10.693964408720557"><ele>52.0</ele><time>2026-04-18T07:34:41.075Z</time></trkpt><trkpt lat="43.555513559881184" lon="10.693910932178323"><ele>52.0</ele><time>2026-04-18T07:34:42.054Z</time></trkpt><trkpt lat="43.55564867616031" lon="10.69385703654093"><ele>52.0</ele><time>2026-04-18T07:34:43.054Z</time></trkpt><trkpt lat="43.55580030478868" lon="10.693804146731917"><ele>52.0</ele><time>2026-04-18T07:34:44.055Z</time></trkpt><trkpt lat="43.555955495725904" lon="10.693751676018064"><ele>52.0</ele><time>2026-04-18T07:34:45.053Z</time></trkpt><trkpt lat="43.5561042745072" lon="10.693712951625411"><ele>52.0</ele><time>2026-04-18T07:34:46.067Z</time></trkpt><trkpt lat="43.556247688870464" lon="10.693672718490188"><ele>52.0</ele><time>2026-04-18T07:34:47.097Z</time></trkpt><trkpt lat="43.55636956174258" lon="10.693637263039772"><ele>52.0</ele><time>2026-04-18T07:34:48.052Z</time></trkpt><trkpt lat="43.556482801254425" lon="10.693598119551961"><ele>52.8</ele><time>2026-04-18T07:34:49.073Z</time></trkpt><trkpt lat="43.55659050871018" lon="10.693564172844116"><ele>53.6</ele><time>2026-04-18T07:34:50.068Z</time></trkpt><trkpt lat="43.55669339657161" lon="10.693537602211062"><ele>54.39999999999999</ele><time>2026-04-18T07:34:51.057Z</time></trkpt><trkpt lat="43.55678995609615" lon="10.693508433188025"><ele>55.199999999999996</ele><time>2026-04-18T07:34:52.052Z</time></trkpt><trkpt lat="43.55688035492185" lon="10.693485550592367"><ele>56.0</ele><time>2026-04-18T07:34:53.062Z</time></trkpt><trkpt lat="43.55695566632185" lon="10.693460153425757"><ele>56.0</ele><time>2026-04-18T07:34:54.067Z</time></trkpt><trkpt lat="43.55703001380298" lon="10.69344313816232"><ele>56.0</ele><time>2026-04-18T07:34:55.097Z</time></trkpt><trkpt lat="43.557095099281106" lon="10.693422518680517"><ele>56.0</ele><time>2026-04-18T07:34:56.081Z</time></trkpt><trkpt lat="43.557161064859066" lon="10.693402569750969"><ele>56.0</ele><time>2026-04-18T07:34:57.069Z</time></trkpt><trkpt lat="43.55722464159462" lon="10.693375160927598"><ele>56.0</ele><time>2026-04-18T07:34:58.078Z</time></trkpt><trkpt lat="43.55729173872951" lon="10.693350182856147"><ele>56.0</ele><time>2026-04-18T07:34:59.057Z</time></trkpt><trkpt lat="43.55735950641665" lon="10.693313302482192"><ele>56.0</ele><time>2026-04-18T07:35:00.058Z</time></trkpt><trkpt lat="43.55742002375755" lon="10.693280277783696"><ele>55.199999999999996</ele><time>2026-04-18T07:35:01.05Z</time></trkpt><trkpt lat="43.55750137012783" lon="10.693214312205736"><ele>54.39999999999999</ele><time>2026-04-18T07:35:03.064Z</time></trkpt><trkpt lat="43.557475218589936" lon="10.693130157897894"><ele>53.6</ele><time>2026-04-18T07:35:05.051Z</time></trkpt><trkpt lat="43.55739483613852" lon="10.693058408806746"><ele>52.8</ele><time>2026-04-18T07:35:07.049Z</time></trkpt><trkpt lat="43.55732778091315" lon="10.693053128207747"><ele>52.0</ele><time>2026-04-18T07:35:08.062Z</time></trkpt><trkpt lat="43.55719513729546" lon="10.693023288632457"><ele>52.0</ele><time>2026-04-18T07:35:10.056Z</time></trkpt><trkpt lat="43.557118778157566" lon="10.693005183721606"><ele>52.0</ele><time>2026-04-18T07:35:11.068Z</time></trkpt><trkpt lat="43.55702657722268" lon="10.69297308103246"><ele>52.0</ele><time>2026-04-18T07:35:12.06Z</time></trkpt><trkpt lat="43.556919666047726" lon="10.692941229800407"><ele>52.0</ele><time>2026-04-18T07:35:13.049Z</time></trkpt><trkpt lat="43.55680055920366" lon="10.69290325977904"><ele>52.0</ele><time>2026-04-18T07:35:14.051Z</time></trkpt><trkpt lat="43.55666963387612" lon="10.692857494587724"><ele>53.0</ele><time>2026-04-18T07:35:15.052Z</time></trkpt><trkpt lat="43.55653841518197" lon="10.692816507081215"><ele>54.0</ele><time>2026-04-18T07:35:16.084Z</time></trkpt><trkpt lat="43.55641465638164" lon="10.692777615050499"><ele>55.0</ele><time>2026-04-18T07:35:17.056Z</time></trkpt><trkpt lat="43.55628423396829" lon="10.692745596180384"><ele>56.0</ele><time>2026-04-18T07:35:18.073Z</time></trkpt><trkpt lat="43.55616554621938" lon="10.692710895101253"><ele>58.75</ele><time>2026-04-18T07:35:19.075Z</time></trkpt><trkpt lat="43.55605113324109" lon="10.692681642259185"><ele>61.5</ele><time>2026-04-18T07:35:20.068Z</time></trkpt><trkpt lat="43.55594652708951" lon="10.692645516256515"><ele>64.25</ele><time>2026-04-18T07:35:21.055Z</time></trkpt><trkpt lat="43.555834167677496" lon="10.692604780207102"><ele>67.0</ele><time>2026-04-18T07:35:22.064Z</time></trkpt><trkpt lat="43.555705673101876" lon="10.692548872912948"><ele>67.0</ele><time>2026-04-18T07:35:23.074Z</time></trkpt><trkpt lat="43.55556854516599" lon="10.6924805604021"><ele>67.0</ele><time>2026-04-18T07:35:24.055Z</time></trkpt><trkpt lat="43.555424837436114" lon="10.692409984777395"><ele>67.0</ele><time>2026-04-18T07:35:25.072Z</time></trkpt><trkpt lat="43.55525548108253" lon="10.6923285964976"><ele>69.33333333333333</ele><time>2026-04-18T07:35:26.073Z</time></trkpt><trkpt lat="43.555079503025446" lon="10.692240251238172"><ele>71.66666666666667</ele><time>2026-04-18T07:35:27.07Z</time></trkpt><trkpt lat="43.55490394406352" lon="10.692152995626156"><ele>74.0</ele><time>2026-04-18T07:35:28.056Z</time></trkpt><trkpt lat="43.55473802429024" lon="10.692080073068563"><ele>74.0</ele><time>2026-04-18T07:35:29.053Z</time></trkpt><trkpt lat="43.55459360409859" lon="10.692010503272238"><ele>74.0</ele><time>2026-04-18T07:35:30.062Z</time></trkpt><trkpt lat="43.55444943536404" lon="10.691939424733343"><ele>74.0</ele><time>2026-04-18T07:35:31.048Z</time></trkpt><trkpt lat="43.55430903848592" lon="10.691884439448538"><ele>77.33333333333334</ele><time>2026-04-18T07:35:32.047Z</time></trkpt><trkpt lat="43.55416298382315" lon="10.691835321495953"><ele>80.66666666666667</ele><time>2026-04-18T07:35:33.051Z</time></trkpt><trkpt lat="43.554000919725326" lon="10.691794333989444"><ele>84.0</ele><time>2026-04-18T07:35:34.052Z</time></trkpt><trkpt lat="43.55380138852033" lon="10.691753262663903"><ele>84.33333333333333</ele><time>2026-04-18T07:35:35.053Z</time></trkpt><trkpt lat="43.553596618625846" lon="10.691703474159064"><ele>84.66666666666666</ele><time>2026-04-18T07:35:36.057Z</time></trkpt><trkpt lat="43.55337215125891" lon="10.691622756431522"><ele>85.0</ele><time>2026-04-18T07:35:37.058Z</time></trkpt><trkpt lat="43.553144875954416" lon="10.691543295989456"><ele>85.0</ele><time>2026-04-18T07:35:38.077Z</time></trkpt><trkpt lat="43.55291910939249" lon="10.691461153338375"><ele>85.0</ele><time>2026-04-18T07:35:39.076Z</time></trkpt><trkpt lat="43.55270889126095" lon="10.691389823342385"><ele>87.33333333333333</ele><time>2026-04-18T07:35:40.074Z</time></trkpt><trkpt lat="43.55253333229902" lon="10.691361492509666"><ele>89.66666666666667</ele><time>2026-04-18T07:35:41.079Z</time></trkpt><trkpt lat="43.55236246720287" lon="10.691326959068599"><ele>92.0</ele><time>2026-04-18T07:35:42.072Z</time></trkpt><trkpt lat="43.55223170951339" lon="10.691292760903659"><ele>92.0</ele><time>2026-04-18T07:35:43.053Z</time></trkpt><trkpt lat="43.55210443031373" lon="10.691242888579788"><ele>92.0</ele><time>2026-04-18T07:35:44.05Z</time></trkpt><trkpt lat="43.551978240761485" lon="10.691171726221862"><ele>92.0</ele><time>2026-04-18T07:35:45.049Z</time></trkpt><trkpt lat="43.55184299875381" lon="10.691094193617525"><ele>92.0</ele><time>2026-04-18T07:35:46.065Z</time></trkpt><trkpt lat="43.55171282779756" lon="10.691013727347078"><ele>94.25</ele><time>2026-04-18T07:35:47.06Z</time></trkpt><trkpt lat="43.551587015430954" lon="10.690937284390154"><ele>96.5</ele><time>2026-04-18T07:35:48.073Z</time></trkpt><trkpt lat="43.55148559440258" lon="10.69084525109333"><ele>98.75</ele><time>2026-04-18T07:35:49.053Z</time></trkpt><trkpt lat="43.55139636904332" lon="10.690741064036908"><ele>101.0</ele><time>2026-04-18T07:35:50.05Z</time></trkpt><trkpt lat="43.55129666630509" lon="10.690623298297348"><ele>101.5</ele><time>2026-04-18T07:35:51.05Z</time></trkpt><trkpt lat="43.55118782729241" lon="10.690497737387838"><ele>102.0</ele><time>2026-04-18T07:35:52.05Z</time></trkpt><trkpt lat="43.55107261803332" lon="10.690378965819898"><ele>102.5</ele><time>2026-04-18T07:35:53.052Z</time></trkpt><trkpt lat="43.55094508737656" lon="10.690256506214562"><ele>103.0</ele><time>2026-04-18T07:35:54.046Z</time></trkpt><trkpt lat="43.5508024692941" lon="10.690135890627921"><ele>104.0</ele><time>2026-04-18T07:35:55.052Z</time></trkpt><trkpt lat="43.550627580884424" lon="10.690010078261317"><ele>105.0</ele><time>2026-04-18T07:35:56.054Z</time></trkpt><trkpt lat="43.55045918844971" lon="10.689890384684027"><ele>106.0</ele><time>2026-04-18T07:35:57.067Z</time></trkpt><trkpt lat="43.5503101163018" lon="10.689771696935118"><ele>106.0</ele><time>2026-04-18T07:35:58.056Z</time></trkpt><trkpt lat="43.550165109376934" lon="10.689657535413922"><ele>106.0</ele><time>2026-04-18T07:35:59.054Z</time></trkpt><trkpt lat="43.55003686625841" lon="10.689554270366848"><ele>106.0</ele><time>2026-04-18T07:36:00.051Z</time></trkpt><trkpt lat="43.54991696313354" lon="10.689477240676702"><ele>106.0</ele><time>2026-04-18T07:36:01.053Z</time></trkpt><trkpt lat="43.54980070613655" lon="10.689394259835304"><ele>106.0</ele><time>2026-04-18T07:36:02.05Z</time></trkpt><trkpt lat="43.54968327567312" lon="10.689303735281051"><ele>106.0</ele><time>2026-04-18T07:36:03.05Z</time></trkpt><trkpt lat="43.549551679793325" lon="10.689203236262024"><ele>106.0</ele><time>2026-04-18T07:36:04.053Z</time></trkpt><trkpt lat="43.54942729235026" lon="10.689084045598925"><ele>106.0</ele><time>2026-04-18T07:36:05.052Z</time></trkpt><trkpt lat="43.54930395264509" lon="10.688985809693754"><ele>107.0</ele><time>2026-04-18T07:36:06.067Z</time></trkpt><trkpt lat="43.54917030319902" lon="10.688889250169218"><ele>108.0</ele><time>2026-04-18T07:36:07.066Z</time></trkpt><trkpt lat="43.54903107978734" lon="10.688809454451025"><ele>109.0</ele><time>2026-04-18T07:36:08.058Z</time></trkpt><trkpt lat="43.54888410311523" lon="10.688752373690427"><ele>109.0</ele><time>2026-04-18T07:36:09.046Z</time></trkpt><trkpt lat="43.548745508346286" lon="10.688705015937508"><ele>109.0</ele><time>2026-04-18T07:36:10.049Z</time></trkpt><trkpt lat="43.54861462492826" lon="10.688664698983253"><ele>109.0</ele><time>2026-04-18T07:36:11.052Z</time></trkpt><trkpt lat="43.54848118502977" lon="10.688596470291436"><ele>109.0</ele><time>2026-04-18T07:36:12.066Z</time></trkpt><trkpt lat="43.548350217792716" lon="10.688505107546867"><ele>107.0</ele><time>2026-04-18T07:36:13.081Z</time></trkpt><trkpt lat="43.54822520170691" lon="10.688411146412314"><ele>105.0</ele><time>2026-04-18T07:36:14.072Z</time></trkpt><trkpt lat="43.54812520560208" lon="10.6883254833619"><ele>103.0</ele><time>2026-04-18T07:36:15.075Z</time></trkpt><trkpt lat="43.54803317230525" lon="10.688231438408314"><ele>101.0</ele><time>2026-04-18T07:36:16.055Z</time></trkpt><trkpt lat="43.547947970259514" lon="10.688134208331524"><ele>101.0</ele><time>2026-04-18T07:36:17.059Z</time></trkpt><trkpt lat="43.54786079846653" lon="10.688029602179943"><ele>101.0</ele><time>2026-04-18T07:36:18.054Z</time></trkpt><trkpt lat="43.54777601551595" lon="10.68793999963504"><ele>101.0</ele><time>2026-04-18T07:36:19.056Z</time></trkpt><trkpt lat="43.54770015929225" lon="10.687858192260085"><ele>101.0</ele><time>2026-04-18T07:36:20.079Z</time></trkpt><trkpt lat="43.54763322979542" lon="10.687789879749237"><ele>101.0</ele><time>2026-04-18T07:36:21.091Z</time></trkpt><trkpt lat="43.547565629746344" lon="10.687730032960593"><ele>101.0</ele><time>2026-04-18T07:36:22.051Z</time></trkpt><trkpt lat="43.54748344518575" lon="10.687666498134552"><ele>101.0</ele><time>2026-04-18T07:36:23.051Z</time></trkpt><trkpt lat="43.54740327228191" lon="10.687607154260098"><ele>101.0</ele><time>2026-04-18T07:36:24.05Z</time></trkpt><trkpt lat="43.547319453250196" lon="10.687521155933558"><ele>101.0</ele><time>2026-04-18T07:36:25.052Z</time></trkpt><trkpt lat="43.547227713319984" lon="10.687430966655432"><ele>101.0</ele><time>2026-04-18T07:36:26.055Z</time></trkpt><trkpt lat="43.54712951932433" lon="10.687337592254101"><ele>102.75</ele><time>2026-04-18T07:36:27.052Z</time></trkpt><trkpt lat="43.54703346271398" lon="10.687239691625058"><ele>104.5</ele><time>2026-04-18T07:36:28.061Z</time></trkpt><trkpt lat="43.54693786710831" lon="10.687150172899186"><ele>106.25</ele><time>2026-04-18T07:36:29.049Z</time></trkpt><trkpt lat="43.546842020045545" lon="10.687057720507203"><ele>108.0</ele><time>2026-04-18T07:36:30.076Z</time></trkpt><trkpt lat="43.546750070567754" lon="10.686971805999695"><ele>108.25</ele><time>2026-04-18T07:36:31.089Z</time></trkpt><trkpt lat="43.54664663788262" lon="10.68687818014127"><ele>108.5</ele><time>2026-04-18T07:36:32.053Z</time></trkpt><trkpt lat="43.54654110972168" lon="10.686776842931925"><ele>108.75</ele><time>2026-04-18T07:36:33.066Z</time></trkpt><trkpt lat="43.54642833121451" lon="10.686674416075169"><ele>109.0</ele><time>2026-04-18T07:36:34.055Z</time></trkpt><trkpt lat="43.546324437524696" lon="10.686585651720582"><ele>109.0</ele><time>2026-04-18T07:36:35.054Z</time></trkpt><trkpt lat="43.54624149859281" lon="10.686505939821421"><ele>109.0</ele><time>2026-04-18T07:36:36.056Z</time></trkpt><trkpt lat="43.54616413362654" lon="10.686436789120256"><ele>109.0</ele><time>2026-04-18T07:36:37.064Z</time></trkpt><trkpt lat="43.54608437981786" lon="10.686369482437788"><ele>109.0</ele><time>2026-04-18T07:36:38.085Z</time></trkpt><trkpt lat="43.54599687274875" lon="10.686295721689877"><ele>109.0</ele><time>2026-04-18T07:36:39.084Z</time></trkpt><trkpt lat="43.54591452055009" lon="10.686218943456826"><ele>110.2</ele><time>2026-04-18T07:36:40.068Z</time></trkpt><trkpt lat="43.54582642674776" lon="10.686143338690218"><ele>111.4</ele><time>2026-04-18T07:36:41.071Z</time></trkpt><trkpt lat="43.545729531947096" lon="10.68605256267887"><ele>112.6</ele><time>2026-04-18T07:36:42.07Z</time></trkpt><trkpt lat="43.54564852085294" lon="10.685972096408424"><ele>113.8</ele><time>2026-04-18T07:36:43.065Z</time></trkpt><trkpt lat="43.54555615227999" lon="10.685889450843153"><ele>115.0</ele><time>2026-04-18T07:36:44.057Z</time></trkpt><trkpt lat="43.54548880368801" lon="10.685825496921954"><ele>115.00000000000001</ele><time>2026-04-18T07:36:45.071Z</time></trkpt><trkpt lat="43.545416593592186" lon="10.685761710638818"><ele>115.0</ele><time>2026-04-18T07:36:46.085Z</time></trkpt><trkpt lat="43.54535578288468" lon="10.685700941840825"><ele>115.0</ele><time>2026-04-18T07:36:47.075Z</time></trkpt><trkpt lat="43.54529354725363" lon="10.685634389529643"><ele>115.0</ele><time>2026-04-18T07:36:48.069Z</time></trkpt><trkpt lat="43.54522603102358" lon="10.685575967664537"><ele>115.00000000000001</ele><time>2026-04-18T07:36:49.056Z</time></trkpt><trkpt lat="43.545143343548794" lon="10.685507571334657"><ele>115.0</ele><time>2026-04-18T07:36:50.048Z</time></trkpt><trkpt lat="43.54504594583394" lon="10.685422495017466"><ele>116.75</ele><time>2026-04-18T07:36:51.049Z</time></trkpt><trkpt lat="43.544943225610574" lon="10.685320654893932"><ele>118.5</ele><time>2026-04-18T07:36:52.05Z</time></trkpt><trkpt lat="43.54483912237318" lon="10.685216551656541"><ele>120.25</ele><time>2026-04-18T07:36:53.048Z</time></trkpt><trkpt lat="43.54474780153813" lon="10.685127116749701"><ele>122.0</ele><time>2026-04-18T07:36:54.064Z</time></trkpt><trkpt lat="43.544666497077365" lon="10.68505427801114"><ele>121.99999999999999</ele><time>2026-04-18T07:36:55.065Z</time></trkpt><trkpt lat="43.54460178878488" lon="10.684998203078923"><ele>122.0</ele><time>2026-04-18T07:36:56.079Z</time></trkpt><trkpt lat="43.54455191646101" lon="10.684945061812815"><ele>122.0</ele><time>2026-04-18T07:36:57.073Z</time></trkpt><trkpt lat="43.54449676353814" lon="10.684835929433522"><ele>122.0</ele><time>2026-04-18T07:36:59.053Z</time></trkpt><trkpt lat="43.54446629532011" lon="10.68472344429296"><ele>121.99999999999999</ele><time>2026-04-18T07:37:01.054Z</time></trkpt><trkpt lat="43.544477820436974" lon="10.684565780694303"><ele>122.0</ele><time>2026-04-18T07:37:03.088Z</time></trkpt><trkpt lat="43.54447773661794" lon="10.684423791254575"><ele>123.6</ele><time>2026-04-18T07:37:05.059Z</time></trkpt><trkpt lat="43.544482053298076" lon="10.684242071593816"><ele>125.19999999999999</ele><time>2026-04-18T07:37:07.074Z</time></trkpt><trkpt lat="43.544479119631966" lon="10.684152971963103"><ele>126.8</ele><time>2026-04-18T07:37:08.059Z</time></trkpt><trkpt lat="43.544472456018944" lon="10.684064542884643"><ele>128.4</ele><time>2026-04-18T07:37:09.048Z</time></trkpt><trkpt lat="43.54446411602529" lon="10.683904448534067"><ele>130.0</ele><time>2026-04-18T07:37:11.054Z</time></trkpt><trkpt lat="43.54447652124198" lon="10.68380244077247"><ele>130.0</ele><time>2026-04-18T07:37:12.05Z</time></trkpt><trkpt lat="43.54445661422195" lon="10.68370864727598"><ele>130.0</ele><time>2026-04-18T07:37:13.06Z</time></trkpt><trkpt lat="43.544448819052" lon="10.68360554986697"><ele>130.0</ele><time>2026-04-18T07:37:14.05Z</time></trkpt><trkpt lat="43.544441987800916" lon="10.683511001999195"><ele>130.0</ele><time>2026-04-18T07:37:15.048Z</time></trkpt><trkpt lat="43.54444332890542" lon="10.683345962325747"><ele>130.0</ele><time>2026-04-18T07:37:17.053Z</time></trkpt><trkpt lat="43.54442572690876" lon="10.683232974270995"><ele>130.0</ele><time>2026-04-18T07:37:18.047Z</time></trkpt><trkpt lat="43.5444464302096" lon="10.683104563514407"><ele>129.0</ele><time>2026-04-18T07:37:19.064Z</time></trkpt><trkpt lat="43.54446013462128" lon="10.68297523074847"><ele>128.0</ele><time>2026-04-18T07:37:20.049Z</time></trkpt><trkpt lat="43.5444892617348" lon="10.68284229376417"><ele>127.0</ele><time>2026-04-18T07:37:21.052Z</time></trkpt><trkpt lat="43.544522831257005" lon="10.682737017060335"><ele>126.0</ele><time>2026-04-18T07:37:22.049Z</time></trkpt><trkpt lat="43.54455250319423" lon="10.68259259686869"><ele>125.0</ele><time>2026-04-18T07:37:24.059Z</time></trkpt><trkpt lat="43.54460199833246" lon="10.682435184727126"><ele>123.4</ele><time>2026-04-18T07:37:26.053Z</time></trkpt><trkpt lat="43.54463481348338" lon="10.682323537776881"><ele>121.8</ele><time>2026-04-18T07:37:27.049Z</time></trkpt><trkpt lat="43.54467374742361" lon="10.682197725410276"><ele>120.19999999999999</ele><time>2026-04-18T07:37:28.05Z</time></trkpt><trkpt lat="43.544712220359166" lon="10.682072248319798"><ele>118.6</ele><time>2026-04-18T07:37:29.064Z</time></trkpt><trkpt lat="43.54475677017452" lon="10.681940149525815"><ele>117.0</ele><time>2026-04-18T07:37:30.052Z</time></trkpt><trkpt lat="43.544794698286374" lon="10.681817187006288"><ele>117.0</ele><time>2026-04-18T07:37:31.05Z</time></trkpt><trkpt lat="43.54483266830774" lon="10.681700678552204"><ele>117.0</ele><time>2026-04-18T07:37:32.049Z</time></trkpt><trkpt lat="43.544873697723766" lon="10.681596072400623"><ele>117.0</ele><time>2026-04-18T07:37:33.05Z</time></trkpt><trkpt lat="43.5448883241448" lon="10.681489203135186"><ele>117.0</ele><time>2026-04-18T07:37:34.05Z</time></trkpt><trkpt lat="43.54492021728637" lon="10.681391553963238"><ele>117.0</ele><time>2026-04-18T07:37:35.05Z</time></trkpt><trkpt lat="43.54494406380089" lon="10.681304130713158"><ele>117.0</ele><time>2026-04-18T07:37:36.046Z</time></trkpt><trkpt lat="43.54496715594413" lon="10.681201955313497"><ele>117.0</ele><time>2026-04-18T07:37:37.05Z</time></trkpt><trkpt lat="43.54499263692977" lon="10.681108413274103"><ele>117.0</ele><time>2026-04-18T07:37:38.047Z</time></trkpt><trkpt lat="43.545028804841955" lon="10.681008752445393"><ele>117.0</ele><time>2026-04-18T07:37:39.05Z</time></trkpt><trkpt lat="43.54505009487601" lon="10.680905152122193"><ele>117.0</ele><time>2026-04-18T07:37:40.048Z</time></trkpt><trkpt lat="43.54505680039855" lon="10.680801300341898"><ele>117.0</ele><time>2026-04-18T07:37:41.052Z</time></trkpt><trkpt lat="43.545064427930434" lon="10.680685462440067"><ele>117.0</ele><time>2026-04-18T07:37:42.052Z</time></trkpt><trkpt lat="43.54506757114412" lon="10.680567193786315"><ele>117.19999999999999</ele><time>2026-04-18T07:37:43.049Z</time></trkpt><trkpt lat="43.545066649134775" lon="10.680446326742581"><ele>117.39999999999999</ele><time>2026-04-18T07:37:44.049Z</time></trkpt><trkpt lat="43.54506924752476" lon="10.680315233776978"><ele>117.60000000000001</ele><time>2026-04-18T07:37:45.067Z</time></trkpt><trkpt lat="43.54507457003327" lon="10.680173411975316"><ele>117.80000000000001</ele><time>2026-04-18T07:37:46.054Z</time></trkpt><trkpt lat="43.54506581094446" lon="10.680027399222068"><ele>118.0</ele><time>2026-04-18T07:37:47.058Z</time></trkpt><trkpt lat="43.545073731842955" lon="10.679897814999036"><ele>117.4</ele><time>2026-04-18T07:37:48.051Z</time></trkpt><trkpt lat="43.54507871907534" lon="10.679766470576338"><ele>116.80000000000001</ele><time>2026-04-18T07:37:49.058Z</time></trkpt><trkpt lat="43.545069582800885" lon="10.679652560512237"><ele>116.2</ele><time>2026-04-18T07:37:50.066Z</time></trkpt><trkpt lat="43.545043263624926" lon="10.679537728438786"><ele>115.6</ele><time>2026-04-18T07:37:51.068Z</time></trkpt><trkpt lat="43.545000180642624" lon="10.679442677656821"><ele>115.0</ele><time>2026-04-18T07:37:52.085Z</time></trkpt><trkpt lat="43.54492222894313" lon="10.679349638531617"><ele>114.2</ele><time>2026-04-18T07:37:53.055Z</time></trkpt><trkpt lat="43.544824747409244" lon="10.679259533072523"><ele>113.4</ele><time>2026-04-18T07:37:54.074Z</time></trkpt><trkpt lat="43.54473057672711" lon="10.679173450926951"><ele>112.6</ele><time>2026-04-18T07:37:55.063Z</time></trkpt><trkpt lat="43.54464390784832" lon="10.679091643551997"><ele>111.8</ele><time>2026-04-18T07:37:56.054Z</time></trkpt><trkpt lat="43.54455866389306" lon="10.67899013870459"><ele>111.0</ele><time>2026-04-18T07:37:57.059Z</time></trkpt><trkpt lat="43.5444850288737" lon="10.678890729332975"><ele>109.5</ele><time>2026-04-18T07:37:58.063Z</time></trkpt><trkpt lat="43.54441533334883" lon="10.678804144273213"><ele>108.0</ele><time>2026-04-18T07:37:59.073Z</time></trkpt><trkpt lat="43.54435410354616" lon="10.67873608321946"><ele>106.5</ele><time>2026-04-18T07:38:00.064Z</time></trkpt><trkpt lat="43.54429987263264" lon="10.678667100156357"><ele>105.0</ele><time>2026-04-18T07:38:01.074Z</time></trkpt><trkpt lat="43.544248030561526" lon="10.678599877292921"><ele>103.5</ele><time>2026-04-18T07:38:02.055Z</time></trkpt><trkpt lat="43.54421257511111" lon="10.678527792925646"><ele>102.0</ele><time>2026-04-18T07:38:03.067Z</time></trkpt><trkpt lat="43.544194931204935" lon="10.678368620584418"><ele>101.66666666666667</ele><time>2026-04-18T07:38:05.059Z</time></trkpt><trkpt lat="43.54421986736687" lon="10.678273150707295"><ele>101.33333333333334</ele><time>2026-04-18T07:38:06.057Z</time></trkpt><trkpt lat="43.54426378853949" lon="10.678184218714645"><ele>101.0</ele><time>2026-04-18T07:38:07.08Z</time></trkpt><trkpt lat="43.5443304246697" lon="10.678084474066903"><ele>100.66666666666667</ele><time>2026-04-18T07:38:08.081Z</time></trkpt><trkpt lat="43.544389684725125" lon="10.67800073885422"><ele>100.33333333333334</ele><time>2026-04-18T07:38:09.069Z</time></trkpt><trkpt lat="43.54445254899891" lon="10.677929995591452"><ele>100.0</ele><time>2026-04-18T07:38:10.057Z</time></trkpt><trkpt lat="43.54450066112312" lon="10.677864113832523"><ele>98.0</ele><time>2026-04-18T07:38:11.066Z</time></trkpt><trkpt lat="43.54453934360625" lon="10.677715167413165"><ele>96.0</ele><time>2026-04-18T07:38:13.052Z</time></trkpt><trkpt lat="43.54453536220225" lon="10.677571417773773"><ele>94.0</ele><time>2026-04-18T07:38:15.057Z</time></trkpt><trkpt lat="43.544467384967525" lon="10.677440911541392"><ele>92.0</ele><time>2026-04-18T07:38:17.074Z</time></trkpt><trkpt lat="43.54437074162396" lon="10.67732448690634"><ele>92.0</ele><time>2026-04-18T07:38:19.054Z</time></trkpt><trkpt lat="43.54430506941261" lon="10.67730638199549"><ele>92.0</ele><time>2026-04-18T07:38:20.052Z</time></trkpt><trkpt lat="43.544243378605266" lon="10.677336389208843"><ele>92.0</ele><time>2026-04-18T07:38:21.061Z</time></trkpt><trkpt lat="43.54412175719025" lon="10.677348878244569"><ele>92.0</ele><time>2026-04-18T07:38:23.085Z</time></trkpt><trkpt lat="43.544018995057364" lon="10.67726681941252"><ele>92.0</ele><time>2026-04-18T07:38:25.048Z</time></trkpt><trkpt lat="43.543966063338836" lon="10.67721795291703"><ele>92.0</ele><time>2026-04-18T07:38:26.058Z</time></trkpt><trkpt lat="43.543880609836" lon="10.677109407270958"><ele>92.0</ele><time>2026-04-18T07:38:28.059Z</time></trkpt><trkpt lat="43.54382285852315" lon="10.677060959870627"><ele>92.0</ele><time>2026-04-18T07:38:29.059Z</time></trkpt><trkpt lat="43.54376762178125" lon="10.677015865231564"><ele>92.0</ele><time>2026-04-18T07:38:30.076Z</time></trkpt><trkpt lat="43.54367575612249" lon="10.676954174424221"><ele>92.0</ele><time>2026-04-18T07:38:32.08Z</time></trkpt><trkpt lat="43.54360404894086" lon="10.676915450031569"><ele>92.0</ele><time>2026-04-18T07:38:33.076Z</time></trkpt><trkpt lat="43.54348393626841" lon="10.676889717588832"><ele>92.0</ele><time>2026-04-18T07:38:35.061Z</time></trkpt><trkpt lat="43.5433953814614" lon="10.676898686225226"><ele>90.16666666666667</ele><time>2026-04-18T07:38:37.053Z</time></trkpt><trkpt lat="43.543322500813325" lon="10.676898015672972"><ele>88.33333333333334</ele><time>2026-04-18T07:38:39.091Z</time></trkpt><trkpt lat="43.54323243726375" lon="10.676934644589831"><ele>86.5</ele><time>2026-04-18T07:38:41.069Z</time></trkpt><trkpt lat="43.543142415623684" lon="10.676988037313034"><ele>84.66666666666667</ele><time>2026-04-18T07:38:43.05Z</time></trkpt><trkpt lat="43.543067020404656" lon="10.67705090158682"><ele>82.83333333333333</ele><time>2026-04-18T07:38:45.047Z</time></trkpt><trkpt lat="43.543002898845394" lon="10.677071185792496"><ele>81.0</ele><time>2026-04-18T07:38:48.057Z</time></trkpt><trkpt lat="43.54293110784473" lon="10.677057523290326"><ele>79.16666666666667</ele><time>2026-04-18T07:38:51.052Z</time></trkpt><trkpt lat="43.54287159633221" lon="10.6770122610132"><ele>77.33333333333333</ele><time>2026-04-18T07:38:54.048Z</time></trkpt><trkpt lat="43.542891587171276" lon="10.676917713145425"><ele>75.5</ele><time>2026-04-18T07:38:57.053Z</time></trkpt><trkpt lat="43.542961408424695" lon="10.676858285451939"><ele>73.66666666666666</ele><time>2026-04-18T07:38:59.053Z</time></trkpt><trkpt lat="43.54304040786209" lon="10.676808161670971"><ele>71.83333333333333</ele><time>2026-04-18T07:39:01.046Z</time></trkpt><trkpt lat="43.54310431987377" lon="10.676743285740423"><ele>70.0</ele><time>2026-04-18T07:39:03.048Z</time></trkpt><trkpt lat="43.54313864376726" lon="10.676655443395186"><ele>70.0</ele><time>2026-04-18T07:39:05.048Z</time></trkpt><trkpt lat="43.543115383985956" lon="10.676556117842603"><ele>70.0</ele><time>2026-04-18T07:39:07.049Z</time></trkpt><trkpt lat="43.543060650158246" lon="10.676494594673324"><ele>70.0</ele><time>2026-04-18T07:39:09.049Z</time></trkpt><trkpt lat="43.54298617694857" lon="10.67644363270204"><ele>70.0</ele><time>2026-04-18T07:39:13.049Z</time></trkpt><trkpt lat="43.54290244173588" lon="10.67643231713276"><ele>70.0</ele><time>2026-04-18T07:39:16.066Z</time></trkpt><trkpt lat="43.54283609897228" lon="10.67648705096047"><ele>70.0</ele><time>2026-04-18T07:39:18.06Z</time></trkpt><trkpt lat="43.54276661299499" lon="10.676563242460299"><ele>69.5</ele><time>2026-04-18T07:39:20.094Z</time></trkpt><trkpt lat="43.54270303625943" lon="10.676647732044268"><ele>69.0</ele><time>2026-04-18T07:39:22.08Z</time></trkpt><trkpt lat="43.54263061661603" lon="10.676753930757451"><ele>68.5</ele><time>2026-04-18T07:39:24.062Z</time></trkpt><trkpt lat="43.54256871626111" lon="10.676829703162124"><ele>68.0</ele><time>2026-04-18T07:39:26.072Z</time></trkpt><trkpt lat="43.542524836998005" lon="10.676914444203188"><ele>67.5</ele><time>2026-04-18T07:39:28.07Z</time></trkpt><trkpt lat="43.54253053669216" lon="10.677002370367457"><ele>67.0</ele><time>2026-04-18T07:39:30.055Z</time></trkpt><trkpt lat="43.54259235322805" lon="10.677080741162111"><ele>67.0</ele><time>2026-04-18T07:39:32.047Z</time></trkpt><trkpt lat="43.542650817002674" lon="10.677117034802844"><ele>67.0</ele><time>2026-04-18T07:39:34.049Z</time></trkpt><trkpt lat="43.54271871041836" lon="10.677097504968454"><ele>67.0</ele><time>2026-04-18T07:39:36.048Z</time></trkpt><trkpt lat="43.542787274386306" lon="10.677059283489992"><ele>67.0</ele><time>2026-04-18T07:39:38.048Z</time></trkpt><trkpt lat="43.54285361714991" lon="10.67703673617046"><ele>67.0</ele><time>2026-04-18T07:39:40.051Z</time></trkpt><trkpt lat="43.542926413978954" lon="10.677036400894334"><ele>67.0</ele><time>2026-04-18T07:39:42.049Z</time></trkpt><trkpt lat="43.543001976836045" lon="10.67704645917814"><ele>67.0</ele><time>2026-04-18T07:39:44.05Z</time></trkpt><trkpt lat="43.5430940939519" lon="10.677043609331061"><ele>67.6</ele><time>2026-04-18T07:39:46.063Z</time></trkpt><trkpt lat="43.54318059519263" lon="10.676974877725055"><ele>68.2</ele><time>2026-04-18T07:39:48.068Z</time></trkpt><trkpt lat="43.543255613226016" lon="10.676910337070634"><ele>68.8</ele><time>2026-04-18T07:39:50.053Z</time></trkpt><trkpt lat="43.543280004564245" lon="10.676829367885997"><ele>69.4</ele><time>2026-04-18T07:39:52.044Z</time></trkpt><trkpt lat="43.543229210231026" lon="10.676728198314715"><ele>70.0</ele><time>2026-04-18T07:39:54.047Z</time></trkpt><trkpt lat="43.54315410837861" lon="10.676606744537759"><ele>70.0</ele><time>2026-04-18T07:39:56.051Z</time></trkpt><trkpt lat="43.543070079799314" lon="10.676494510854292"><ele>70.0</ele><time>2026-04-18T07:39:58.048Z</time></trkpt><trkpt lat="43.54300910145374" lon="10.676421755934763"><ele>70.0</ele><time>2026-04-18T07:40:00.048Z</time></trkpt><trkpt lat="43.54295373898329" lon="10.67634003237884"><ele>70.0</ele><time>2026-04-18T07:40:03.049Z</time></trkpt><trkpt lat="43.54288224134924" lon="10.676273480067659"><ele>70.0</ele><time>2026-04-18T07:40:06.05Z</time></trkpt><trkpt lat="43.542811581905504" lon="10.676224110657978"><ele>70.0</ele><time>2026-04-18T07:40:09.049Z</time></trkpt><trkpt lat="43.542734971310516" lon="10.676145656044293"><ele>68.0</ele><time>2026-04-18T07:40:12.048Z</time></trkpt><trkpt lat="43.54267349005075" lon="10.67603409291308"><ele>66.0</ele><time>2026-04-18T07:40:14.046Z</time></trkpt><trkpt lat="43.54259470016094" lon="10.675926888371515"><ele>64.0</ele><time>2026-04-18T07:40:16.048Z</time></trkpt><trkpt lat="43.542529991868456" lon="10.675841979692388"><ele>62.0</ele><time>2026-04-18T07:40:18.051Z</time></trkpt><trkpt lat="43.54247529995026" lon="10.675755059356499"><ele>60.0</ele><time>2026-04-18T07:40:27.048Z</time></trkpt><trkpt lat="43.54243305515828" lon="10.675673754895735"><ele>60.0</ele><time>2026-04-18T07:40:30.047Z</time></trkpt><trkpt lat="43.54240644261571" lon="10.675534112388897"><ele>60.0</ele><time>2026-04-18T07:40:33.049Z</time></trkpt><trkpt lat="43.54240811899634" lon="10.675435289750505"><ele>60.0</ele><time>2026-04-18T07:40:35.051Z</time></trkpt><trkpt lat="43.54253518864842" lon="10.675305034975219"><ele>60.0</ele><time>2026-04-18T07:40:37.055Z</time></trkpt><trkpt lat="43.54260505181136" lon="10.675244098539162"><ele>60.0</ele><time>2026-04-18T07:40:38.001Z</time></trkpt><trkpt lat="43.54266125247212" lon="10.675198333347845"><ele>60.4</ele><time>2026-04-18T07:40:39.001Z</time></trkpt><trkpt lat="43.54274373039933" lon="10.675141252587247"><ele>60.8</ele><time>2026-04-18T07:40:41.001Z</time></trkpt><trkpt lat="43.54283769153388" lon="10.67507394590478"><ele>61.2</ele><time>2026-04-18T07:40:43.001Z</time></trkpt><trkpt lat="43.54295055386009" lon="10.675034550959873"><ele>61.6</ele><time>2026-04-18T07:40:45.001Z</time></trkpt><trkpt lat="43.54305809367778" lon="10.67500311882298"><ele>62.0</ele><time>2026-04-18T07:40:47.001Z</time></trkpt><trkpt lat="43.54316479530515" lon="10.67494989373784"><ele>61.333333333333336</ele><time>2026-04-18T07:40:49Z</time></trkpt><trkpt lat="43.5432513384554" lon="10.674903709451364"><ele>60.66666666666667</ele><time>2026-04-18T07:40:51Z</time></trkpt><trkpt lat="43.543332810554226" lon="10.6748517416517"><ele>60.0</ele><time>2026-04-18T07:40:53Z</time></trkpt><trkpt lat="43.54342513721766" lon="10.674802288422988"><ele>59.33333333333333</ele><time>2026-04-18T07:40:55Z</time></trkpt><trkpt lat="43.543484271544536" lon="10.674770185733841"><ele>58.666666666666664</ele><time>2026-04-18T07:40:57Z</time></trkpt><trkpt lat="43.54346268814387" lon="10.67468754016857"><ele>58.0</ele><time>2026-04-18T07:41:01Z</time></trkpt><trkpt lat="43.543417803052385" lon="10.674762893478082"><ele>57.99999999999999</ele><time>2026-04-18T07:41:03Z</time></trkpt><trkpt lat="43.54336252440097" lon="10.674816118563221"><ele>58.0</ele><time>2026-04-18T07:41:04Z</time></trkpt><trkpt lat="43.54330213278862" lon="10.67486976274352"><ele>58.0</ele><time>2026-04-18T07:41:05Z</time></trkpt><trkpt lat="43.54324404619964" lon="10.674909744421647"><ele>58.0</ele><time>2026-04-18T07:41:06Z</time></trkpt><trkpt lat="43.54315046225073" lon="10.674965148801613"><ele>57.99999999999999</ele><time>2026-04-18T07:41:08Z</time></trkpt><trkpt lat="43.5430655535716" lon="10.674994736919809"><ele>58.0</ele><time>2026-04-18T07:41:10Z</time></trkpt><trkpt lat="43.543001264374276" lon="10.675019044439006"><ele>58.0</ele><time>2026-04-18T07:41:12Z</time></trkpt><trkpt lat="43.542903531383296" lon="10.675022061924148"><ele>58.0</ele><time>2026-04-18T07:41:15Z</time></trkpt><trkpt lat="43.542864681262095" lon="10.67493564450245"><ele>58.0</ele><time>2026-04-18T07:41:17Z</time></trkpt><trkpt lat="43.54285286277862" lon="10.674759456897782"><ele>58.0</ele><time>2026-04-18T07:41:19Z</time></trkpt><trkpt lat="43.54282951917829" lon="10.674632387245701"><ele>58.0</ele><time>2026-04-18T07:41:20Z</time></trkpt><trkpt lat="43.54280240372153" lon="10.674503725032018"><ele>60.33333333333333</ele><time>2026-04-18T07:41:21Z</time></trkpt><trkpt lat="43.54275647089215" lon="10.674402304003642"><ele>62.666666666666664</ele><time>2026-04-18T07:41:22Z</time></trkpt><trkpt lat="43.54270228188815" lon="10.674344133595632"><ele>65.0</ele><time>2026-04-18T07:41:23Z</time></trkpt><trkpt lat="43.542650817002674" lon="10.67428495735924"><ele>67.33333333333333</ele><time>2026-04-18T07:41:24Z</time></trkpt><trkpt lat="43.542591012123545" lon="10.674223434189962"><ele>69.66666666666667</ele><time>2026-04-18T07:41:25Z</time></trkpt><trkpt lat="43.54252529800268" lon="10.67415495404105"><ele>72.0</ele><time>2026-04-18T07:41:26Z</time></trkpt><trkpt lat="43.54246318810018" lon="10.674101309860752"><ele>72.0</ele><time>2026-04-18T07:41:27Z</time></trkpt><trkpt lat="43.542411723214705" lon="10.674039451415346"><ele>72.0</ele><time>2026-04-18T07:41:28Z</time></trkpt><trkpt lat="43.54230992500069" lon="10.673901150013016"><ele>72.0</ele><time>2026-04-18T07:41:30Z</time></trkpt><trkpt lat="43.542254394892176" lon="10.673822276304172"><ele>72.0</ele><time>2026-04-18T07:41:31Z</time></trkpt><trkpt lat="43.542192284989675" lon="10.673753628517197"><ele>72.0</ele><time>2026-04-18T07:41:32Z</time></trkpt><trkpt lat="43.5420943005416" lon="10.673710713172959"><ele>74.8</ele><time>2026-04-18T07:41:34Z</time></trkpt><trkpt lat="43.54198521007182" lon="10.67379436456661"><ele>77.6</ele><time>2026-04-18T07:41:36Z</time></trkpt><trkpt lat="43.5418955656174" lon="10.67385052331786"><ele>80.39999999999999</ele><time>2026-04-18T07:41:38Z</time></trkpt><trkpt lat="43.5418189131129" lon="10.673802578831719"><ele>83.2</ele><time>2026-04-18T07:41:40Z</time></trkpt><trkpt lat="43.54177377656432" lon="10.673646843070792"><ele>86.0</ele><time>2026-04-18T07:41:42Z</time></trkpt><trkpt lat="43.54173559699537" lon="10.67356905900936"><ele>87.28571428571429</ele><time>2026-04-18T07:41:43Z</time></trkpt><trkpt lat="43.54168723341407" lon="10.673494543890165"><ele>88.57142857142857</ele><time>2026-04-18T07:41:44Z</time></trkpt><trkpt lat="43.5416513588685" lon="10.673414580533908"><ele>89.85714285714286</ele><time>2026-04-18T07:41:45Z</time></trkpt><trkpt lat="43.54162139356466" lon="10.673319613570975"><ele>91.14285714285714</ele><time>2026-04-18T07:41:46Z</time></trkpt><trkpt lat="43.5415918892655" lon="10.67324023694794"><ele>92.42857142857143</ele><time>2026-04-18T07:41:47Z</time></trkpt><trkpt lat="43.54155308105381" lon="10.673161614696191"><ele>93.71428571428572</ele><time>2026-04-18T07:41:48Z</time></trkpt><trkpt lat="43.541517248417755" lon="10.673087602491186"><ele>95.0</ele><time>2026-04-18T07:41:49Z</time></trkpt><trkpt lat="43.54145719208153" lon="10.672943936670825"><ele>95.0</ele><time>2026-04-18T07:41:51Z</time></trkpt><trkpt lat="43.541431250091215" lon="10.672864392409727"><ele>95.0</ele><time>2026-04-18T07:41:52Z</time></trkpt><trkpt lat="43.541370858478864" lon="10.672720139856144"><ele>95.0</ele><time>2026-04-18T07:41:54Z</time></trkpt><trkpt lat="43.5413154540989" lon="10.672617880637452"><ele>95.0</ele><time>2026-04-18T07:41:56Z</time></trkpt><trkpt lat="43.54126507886084" lon="10.672541270042464"><ele>95.0</ele><time>2026-04-18T07:41:58Z</time></trkpt><trkpt lat="43.54120217267754" lon="10.67249952816467"><ele>95.0</ele><time>2026-04-18T07:42:00Z</time></trkpt><trkpt lat="43.54114408608856" lon="10.672452421868845"><ele>96.16666666666667</ele><time>2026-04-18T07:42:13Z</time></trkpt><trkpt lat="43.541104062500914" lon="10.67234463059406"><ele>97.33333333333334</ele><time>2026-04-18T07:42:15Z</time></trkpt><trkpt lat="43.54102267422112" lon="10.672217058027789"><ele>98.5</ele><time>2026-04-18T07:42:17Z</time></trkpt><trkpt lat="43.540967353660186" lon="10.672152936468526"><ele>99.66666666666667</ele><time>2026-04-18T07:42:18Z</time></trkpt><trkpt lat="43.54090880606653" lon="10.67207934335868"><ele>100.83333333333333</ele><time>2026-04-18T07:42:19Z</time></trkpt><trkpt lat="43.5408526892248" lon="10.671994099403426"><ele>102.0</ele><time>2026-04-18T07:42:20Z</time></trkpt><trkpt lat="43.54079887740644" lon="10.671902736658856"><ele>103.16666666666667</ele><time>2026-04-18T07:42:21Z</time></trkpt><trkpt lat="43.540741754736324" lon="10.67181497813265"><ele>104.33333333333334</ele><time>2026-04-18T07:42:22Z</time></trkpt><trkpt lat="43.54068987075569" lon="10.671731159100935"><ele>105.5</ele><time>2026-04-18T07:42:23Z</time></trkpt><trkpt lat="43.54065864816638" lon="10.67164398730795"><ele>106.66666666666667</ele><time>2026-04-18T07:42:24Z</time></trkpt><trkpt lat="43.540621432516296" lon="10.671556312600776"><ele>107.83333333333334</ele><time>2026-04-18T07:42:25Z</time></trkpt><trkpt lat="43.54059775363984" lon="10.671459501619145"><ele>109.0</ele><time>2026-04-18T07:42:26Z</time></trkpt><trkpt lat="43.54055341337206" lon="10.671312734494611"><ele>109.0</ele><time>2026-04-18T07:42:28Z</time></trkpt><trkpt lat="43.540509450289925" lon="10.671163117523"><ele>109.0</ele><time>2026-04-18T07:42:30Z</time></trkpt><trkpt lat="43.54043271396639" lon="10.67104401067893"><ele>109.0</ele><time>2026-04-18T07:42:32Z</time></trkpt><trkpt lat="43.54039637841614" lon="10.670922473082943"><ele>109.0</ele><time>2026-04-18T07:42:33Z</time></trkpt><trkpt lat="43.54035907894703" lon="10.670826416472597"><ele>109.0</ele><time>2026-04-18T07:42:34Z</time></trkpt><trkpt lat="43.54031046390863" lon="10.670709069828195"><ele>110.6</ele><time>2026-04-18T07:42:35Z</time></trkpt><trkpt lat="43.5402776068482" lon="10.670626172805829"><ele>112.2</ele><time>2026-04-18T07:42:36Z</time></trkpt><trkpt lat="43.540189429226835" lon="10.670533049861593"><ele>113.79999999999998</ele><time>2026-04-18T07:42:38Z</time></trkpt><trkpt lat="43.54008419443252" lon="10.670451577762766"><ele>115.39999999999999</ele><time>2026-04-18T07:42:40Z</time></trkpt><trkpt lat="43.54002719749095" lon="10.670401537800831"><ele>117.0</ele><time>2026-04-18T07:42:41Z</time></trkpt><trkpt lat="43.539953688200136" lon="10.670346133420868"><ele>117.0</ele><time>2026-04-18T07:42:42Z</time></trkpt><trkpt lat="43.539876490871926" lon="10.670292740697665"><ele>116.99999999999999</ele><time>2026-04-18T07:42:43Z</time></trkpt><trkpt lat="43.53980423886659" lon="10.670229038233561"><ele>116.99999999999999</ele><time>2026-04-18T07:42:44Z</time></trkpt><trkpt lat="43.53970566768529" lon="10.670160893360777"><ele>117.0</ele><time>2026-04-18T07:42:46Z</time></trkpt><trkpt lat="43.53958605792703" lon="10.670149577791495"><ele>117.0</ele><time>2026-04-18T07:42:48Z</time></trkpt><trkpt lat="43.53951007597478" lon="10.670146225030226"><ele>118.83333333333333</ele><time>2026-04-18T07:42:49Z</time></trkpt><trkpt lat="43.53942541875275" lon="10.670148236686988"><ele>120.66666666666666</ele><time>2026-04-18T07:42:50Z</time></trkpt><trkpt lat="43.539342312182804" lon="10.670151170353098"><ele>122.5</ele><time>2026-04-18T07:42:51Z</time></trkpt><trkpt lat="43.53924818341019" lon="10.67013172433774"><ele>124.33333333333333</ele><time>2026-04-18T07:42:52Z</time></trkpt><trkpt lat="43.53916327473106" lon="10.670121079320712"><ele>126.16666666666666</ele><time>2026-04-18T07:42:53Z</time></trkpt><trkpt lat="43.53908230554642" lon="10.670081265280647"><ele>128.0</ele><time>2026-04-18T07:42:54Z</time></trkpt><trkpt lat="43.53900246791871" lon="10.670037763203187"><ele>128.0</ele><time>2026-04-18T07:42:55Z</time></trkpt><trkpt lat="43.53892300747665" lon="10.669983532289667"><ele>128.0</ele><time>2026-04-18T07:42:56Z</time></trkpt><trkpt lat="43.53885016873808" lon="10.66992460751037"><ele>128.0</ele><time>2026-04-18T07:42:57Z</time></trkpt><trkpt lat="43.53877054065795" lon="10.669861156503362"><ele>128.0</ele><time>2026-04-18T07:42:58Z</time></trkpt><trkpt lat="43.53867683098049" lon="10.669799633334083"><ele>128.0</ele><time>2026-04-18T07:42:59Z</time></trkpt><trkpt lat="43.53858043909402" lon="10.669730398813886"><ele>128.25</ele><time>2026-04-18T07:43:00Z</time></trkpt><trkpt lat="43.53846644521089" lon="10.669655716056628"><ele>128.5</ele><time>2026-04-18T07:43:01Z</time></trkpt><trkpt lat="43.538341596763146" lon="10.66956929863493"><ele>128.75</ele><time>2026-04-18T07:43:02Z</time></trkpt><trkpt lat="43.53821247354479" lon="10.669490424926085"><ele>129.0</ele><time>2026-04-18T07:43:03Z</time></trkpt><trkpt lat="43.538083811331106" lon="10.669411551217241"><ele>129.0</ele><time>2026-04-18T07:43:04Z</time></trkpt><trkpt lat="43.537962399463666" lon="10.669338461021585"><ele>129.0</ele><time>2026-04-18T07:43:05Z</time></trkpt><trkpt lat="43.53786977943362" lon="10.669249948124094"><ele>129.0</ele><time>2026-04-18T07:43:06Z</time></trkpt><trkpt lat="43.5377793386984" lon="10.669182557622593"><ele>129.0</ele><time>2026-04-18T07:43:07Z</time></trkpt><trkpt lat="43.537709182168854" lon="10.66912036390106"><ele>129.0</ele><time>2026-04-18T07:43:08Z</time></trkpt><trkpt lat="43.53765700482161" lon="10.669056661436956"><ele>129.0</ele><time>2026-04-18T07:43:09Z</time></trkpt><trkpt lat="43.537606881040645" lon="10.668924478823941"><ele>129.0</ele><time>2026-04-18T07:43:11Z</time></trkpt><trkpt lat="43.53758768648238" lon="10.668841414163511"><ele>129.0</ele><time>2026-04-18T07:43:12Z</time></trkpt><trkpt lat="43.53759338617654" lon="10.668677296499412"><ele>129.0</ele><time>2026-04-18T07:43:14Z</time></trkpt><trkpt lat="43.537603444460345" lon="10.668573947633307"><ele>129.0</ele><time>2026-04-18T07:43:15Z</time></trkpt><trkpt lat="43.537597786675704" lon="10.668478980670374"><ele>129.0</ele><time>2026-04-18T07:43:15.999Z</time></trkpt><trkpt lat="43.53759175170542" lon="10.668391557420295"><ele>129.0</ele><time>2026-04-18T07:43:16.999Z</time></trkpt><trkpt lat="43.537591206881714" lon="10.668269265453022"><ele>129.0</ele><time>2026-04-18T07:43:17.999Z</time></trkpt><trkpt lat="43.537566522176874" lon="10.668159043426316"><ele>129.0</ele><time>2026-04-18T07:43:18.999Z</time></trkpt><trkpt lat="43.53753265928806" lon="10.668078325698774"><ele>129.0</ele><time>2026-04-18T07:43:19.999Z</time></trkpt><trkpt lat="43.5374936415288" lon="10.66798134707908"><ele>129.0</ele><time>2026-04-18T07:43:20.999Z</time></trkpt><trkpt lat="43.537426586303425" lon="10.667927786717813"><ele>129.0</ele><time>2026-04-18T07:43:21.999Z</time></trkpt><trkpt lat="43.53736191992046" lon="10.667856372902792"><ele>129.0</ele><time>2026-04-18T07:43:22.999Z</time></trkpt><trkpt lat="43.537301025393916" lon="10.667803231636684"><ele>129.0</ele><time>2026-04-18T07:43:23.999Z</time></trkpt><trkpt lat="43.537234975996924" lon="10.667744725952547"><ele>129.0</ele><time>2026-04-18T07:43:24.999Z</time></trkpt><trkpt lat="43.53717680558891" lon="10.667679095650714"><ele>129.0</ele><time>2026-04-18T07:43:25.999Z</time></trkpt><trkpt lat="43.53712035347105" lon="10.667632576088112"><ele>129.0</ele><time>2026-04-18T07:43:26.999Z</time></trkpt><trkpt lat="43.537008329335166" lon="10.667531741792958"><ele>129.0</ele><time>2026-04-18T07:43:28.999Z</time></trkpt><trkpt lat="43.53695082947941" lon="10.667472817013662"><ele>130.6</ele><time>2026-04-18T07:43:29.999Z</time></trkpt><trkpt lat="43.536880966316474" lon="10.667402241388958"><ele>132.2</ele><time>2026-04-18T07:43:30.999Z</time></trkpt><trkpt lat="43.53681546174319" lon="10.667342897514503"><ele>133.79999999999998</ele><time>2026-04-18T07:43:31.999Z</time></trkpt><trkpt lat="43.536743670742524" lon="10.667265029634038"><ele>135.4</ele><time>2026-04-18T07:43:32.999Z</time></trkpt><trkpt lat="43.536662827286435" lon="10.667171403775612"><ele>137.0</ele><time>2026-04-18T07:43:33.999Z</time></trkpt><trkpt lat="43.5365879349816" lon="10.667072497318188"><ele>137.0</ele><time>2026-04-18T07:43:34.999Z</time></trkpt><trkpt lat="43.53652100548477" lon="10.666973842317859"><ele>137.0</ele><time>2026-04-18T07:43:35.999Z</time></trkpt><trkpt lat="43.536449046846045" lon="10.666888346905509"><ele>137.0</ele><time>2026-04-18T07:43:36.999Z</time></trkpt><trkpt lat="43.536374992731524" lon="10.66679069773356"><ele>137.0</ele><time>2026-04-18T07:43:37.999Z</time></trkpt><trkpt lat="43.536306093487454" lon="10.666721714670459"><ele>137.0</ele><time>2026-04-18T07:43:38.999Z</time></trkpt><trkpt lat="43.53624058891417" lon="10.6666504684935"><ele>136.79999999999998</ele><time>2026-04-18T07:43:39.999Z</time></trkpt><trkpt lat="43.53614629250349" lon="10.666599506522218"><ele>136.6</ele><time>2026-04-18T07:43:40.999Z</time></trkpt><trkpt lat="43.53605413347812" lon="10.666551142940918"><ele>136.39999999999998</ele><time>2026-04-18T07:43:41.999Z</time></trkpt><trkpt lat="43.535964824299825" lon="10.666532032201687"><ele>136.2</ele><time>2026-04-18T07:43:42.999Z</time></trkpt><trkpt lat="43.53587392255993" lon="10.666506551216045"><ele>136.0</ele><time>2026-04-18T07:43:43.999Z</time></trkpt><trkpt lat="43.535782811272455" lon="10.666488111029068"><ele>136.0</ele><time>2026-04-18T07:43:44.999Z</time></trkpt><trkpt lat="43.53568897586645" lon="10.666472353051105"><ele>136.0</ele><time>2026-04-18T07:43:45.999Z</time></trkpt><trkpt lat="43.53559287734659" lon="10.666433544839421"><ele>136.0</ele><time>2026-04-18T07:43:46.999Z</time></trkpt><trkpt lat="43.53550633419634" lon="10.666384007791677"><ele>136.0</ele><time>2026-04-18T07:43:47.999Z</time></trkpt><trkpt lat="43.53541891094626" lon="10.666315779099861"><ele>136.0</ele><time>2026-04-18T07:43:48.999Z</time></trkpt><trkpt lat="43.535328134934915" lon="10.666222488517562"><ele>137.5</ele><time>2026-04-18T07:43:49.999Z</time></trkpt><trkpt lat="43.53522470224978" lon="10.666112182671824"><ele>139.0</ele><time>2026-04-18T07:43:50.999Z</time></trkpt><trkpt lat="43.53513484824778" lon="10.665984274829427"><ele>140.5</ele><time>2026-04-18T07:43:51.999Z</time></trkpt><trkpt lat="43.535026218782676" lon="10.66585888155798"><ele>142.0</ele><time>2026-04-18T07:43:52.999Z</time></trkpt><trkpt lat="43.5349134402755" lon="10.665728040049473"><ele>143.5</ele><time>2026-04-18T07:43:53.999Z</time></trkpt><trkpt lat="43.53480275724412" lon="10.665620248774687"><ele>145.0</ele><time>2026-04-18T07:43:54.999Z</time></trkpt><trkpt lat="43.53469576225014" lon="10.665533747533956"><ele>146.5</ele><time>2026-04-18T07:43:55.999Z</time></trkpt><trkpt lat="43.534590359817756" lon="10.665438026199737"><ele>148.0</ele><time>2026-04-18T07:43:56.999Z</time></trkpt><trkpt lat="43.534501846920264" lon="10.665349429483213"><ele>148.0</ele><time>2026-04-18T07:43:57.999Z</time></trkpt><trkpt lat="43.53443847973229" lon="10.665283966819443"><ele>148.0</ele><time>2026-04-18T07:43:58.999Z</time></trkpt><trkpt lat="43.534381440881205" lon="10.665217665965356"><ele>148.0</ele><time>2026-04-18T07:43:59.999Z</time></trkpt><trkpt lat="43.534328131977034" lon="10.665151365111269"><ele>148.0</ele><time>2026-04-18T07:44:00.999Z</time></trkpt><trkpt lat="43.534289868589056" lon="10.665075508887567"><ele>148.0</ele><time>2026-04-18T07:44:01.999Z</time></trkpt><trkpt lat="43.53425424550058" lon="10.664998227740325"><ele>148.0</ele><time>2026-04-18T07:44:02.999Z</time></trkpt><trkpt lat="43.53422231044949" lon="10.664906781176724"><ele>148.0</ele><time>2026-04-18T07:44:03.999Z</time></trkpt><trkpt lat="43.534197709563685" lon="10.664809802557029"><ele>149.33333333333334</ele><time>2026-04-18T07:44:04.999Z</time></trkpt><trkpt lat="43.53415483612896" lon="10.664705447862543"><ele>150.66666666666669</ele><time>2026-04-18T07:44:05.999Z</time></trkpt><trkpt lat="43.53412461936803" lon="10.664591537798442"><ele>152.0</ele><time>2026-04-18T07:44:06.999Z</time></trkpt><trkpt lat="43.53408505678506" lon="10.664484584713973"><ele>153.33333333333334</ele><time>2026-04-18T07:44:07.999Z</time></trkpt><trkpt lat="43.5340433987263" lon="10.664380649114646"><ele>154.66666666666666</ele><time>2026-04-18T07:44:08.999Z</time></trkpt><trkpt lat="43.533992730121625" lon="10.664285514513649"><ele>156.0</ele><time>2026-04-18T07:44:09.999Z</time></trkpt><trkpt lat="43.533933050971044" lon="10.664202868948378"><ele>156.2</ele><time>2026-04-18T07:44:10.999Z</time></trkpt><trkpt lat="43.53386846840711" lon="10.664133299152054"><ele>156.39999999999998</ele><time>2026-04-18T07:44:11.999Z</time></trkpt><trkpt lat="43.53378397882314" lon="10.664061801518"><ele>156.6</ele><time>2026-04-18T07:44:12.999Z</time></trkpt><trkpt lat="43.53370824832798" lon="10.663999356339373"><ele>156.79999999999998</ele><time>2026-04-18T07:44:13.999Z</time></trkpt><trkpt lat="43.533612107898605" lon="10.663926098505653"><ele>157.0</ele><time>2026-04-18T07:44:15.999Z</time></trkpt><trkpt lat="43.5335605591941" lon="10.66385753453771"><ele>158.33333333333334</ele><time>2026-04-18T07:44:17.999Z</time></trkpt><trkpt lat="43.53354773488225" lon="10.663748653615512"><ele>159.66666666666669</ele><time>2026-04-18T07:44:19.999Z</time></trkpt><trkpt lat="43.53356977928759" lon="10.663665169859923"><ele>161.0</ele><time>2026-04-18T07:44:20.999Z</time></trkpt><trkpt lat="43.53358738128425" lon="10.663548493767776"><ele>162.33333333333334</ele><time>2026-04-18T07:44:21.999Z</time></trkpt><trkpt lat="43.53360875513734" lon="10.663426537076628"><ele>163.66666666666666</ele><time>2026-04-18T07:44:22.999Z</time></trkpt><trkpt lat="43.53364303712131" lon="10.663274992267286"><ele>165.0</ele><time>2026-04-18T07:44:23.999Z</time></trkpt><trkpt lat="43.533677277195764" lon="10.663105174909031"><ele>163.0</ele><time>2026-04-18T07:44:24.999Z</time></trkpt><trkpt lat="43.53372576650561" lon="10.662921946505701"><ele>161.0</ele><time>2026-04-18T07:44:25.999Z</time></trkpt><trkpt lat="43.53377626747222" lon="10.66273813136915"><ele>159.0</ele><time>2026-04-18T07:44:26.999Z</time></trkpt><trkpt lat="43.53382886391462" lon="10.66259060987333"><ele>157.0</ele><time>2026-04-18T07:44:27.999Z</time></trkpt><trkpt lat="43.533884980756355" lon="10.662425654018914"><ele>157.0</ele><time>2026-04-18T07:44:28.999Z</time></trkpt><trkpt lat="43.53393326051862" lon="10.66227050499121"><ele>157.0</ele><time>2026-04-18T07:44:29.999Z</time></trkpt><trkpt lat="43.53397818751962" lon="10.662121642390883"><ele>157.0</ele><time>2026-04-18T07:44:30.999Z</time></trkpt><trkpt lat="43.534015906083894" lon="10.661989962692058"><ele>157.0</ele><time>2026-04-18T07:44:31.999Z</time></trkpt><trkpt lat="43.5340518644485" lon="10.66185375676552"><ele>157.0</ele><time>2026-04-18T07:44:32.999Z</time></trkpt><trkpt lat="43.534098970744324" lon="10.661715706820285"><ele>158.0</ele><time>2026-04-18T07:44:33.999Z</time></trkpt><trkpt lat="43.53413350418539" lon="10.661597438166535"><ele>159.0</ele><time>2026-04-18T07:44:34.999Z</time></trkpt><trkpt lat="43.5341736954111" lon="10.661496520052347"><ele>160.0</ele><time>2026-04-18T07:44:35.999Z</time></trkpt><trkpt lat="43.53421133015634" lon="10.661405073488746"><ele>161.0</ele><time>2026-04-18T07:44:36.999Z</time></trkpt><trkpt lat="43.53424422912629" lon="10.661293510357533"><ele>162.0</ele><time>2026-04-18T07:44:38.999Z</time></trkpt><trkpt lat="43.534230273257506" lon="10.661207595850025"><ele>163.0</ele><time>2026-04-18T07:44:40.999Z</time></trkpt><trkpt lat="43.534161290194405" lon="10.661200806508456"><ele>163.0</ele><time>2026-04-18T07:44:42.999Z</time></trkpt><trkpt lat="43.53403338235201" lon="10.661189407120142"><ele>163.0</ele><time>2026-04-18T07:44:44.999Z</time></trkpt><trkpt lat="43.53395505346687" lon="10.661168368543182"><ele>163.0</ele><time>2026-04-18T07:44:45.999Z</time></trkpt><trkpt lat="43.53387244981111" lon="10.66114238464335"><ele>163.0</ele><time>2026-04-18T07:44:46.999Z</time></trkpt><trkpt lat="43.53379759941579" lon="10.661120340238009"><ele>163.0</ele><time>2026-04-18T07:44:47.999Z</time></trkpt><trkpt lat="43.53372949645252" lon="10.661083040768895"><ele>163.0</ele><time>2026-04-18T07:44:48.999Z</time></trkpt><trkpt lat="43.533661686855865" lon="10.661058900887761"><ele>163.0</ele><time>2026-04-18T07:44:49.999Z</time></trkpt><trkpt lat="43.5335795861143" lon="10.661006849269066"><ele>163.0</ele><time>2026-04-18T07:44:51.999Z</time></trkpt><trkpt lat="43.53355905045153" lon="10.66110039130846"><ele>163.0</ele><time>2026-04-18T07:44:57.999Z</time></trkpt><trkpt lat="43.53364835962982" lon="10.66110424698392"><ele>163.0</ele><time>2026-04-18T07:45:46.999Z</time></trkpt><trkpt lat="43.5337178036976" lon="10.661123441542182"><ele>163.0</ele><time>2026-04-18T07:45:48.999Z</time></trkpt><trkpt lat="43.533793408464206" lon="10.661144983033333"><ele>163.0</ele><time>2026-04-18T07:45:50.999Z</time></trkpt><trkpt lat="43.533903085667205" lon="10.661177923912797"><ele>163.0</ele><time>2026-04-18T07:45:52.999Z</time></trkpt><trkpt lat="43.53399918418707" lon="10.661199213946853"><ele>163.0</ele><time>2026-04-18T07:45:54.999Z</time></trkpt><trkpt lat="43.53408962492229" lon="10.66119661555687"><ele>163.0</ele><time>2026-04-18T07:45:57.999Z</time></trkpt><trkpt lat="43.534156931604755" lon="10.661228215331827"><ele>163.0</ele><time>2026-04-18T07:45:59.999Z</time></trkpt><trkpt lat="43.534185555804086" lon="10.66131488421062"><ele>163.0</ele><time>2026-04-18T07:46:01.999Z</time></trkpt><trkpt lat="43.53414243091227" lon="10.661462489525471"><ele>163.0</ele><time>2026-04-18T07:46:03.999Z</time></trkpt><trkpt lat="43.534104628528965" lon="10.661542033786569"><ele>163.0</ele><time>2026-04-18T07:46:04.999Z</time></trkpt><trkpt lat="43.534066993783725" lon="10.661634234721458"><ele>163.0</ele><time>2026-04-18T07:46:05.999Z</time></trkpt><trkpt lat="43.53403719611795" lon="10.661751665184891"><ele>163.0</ele><time>2026-04-18T07:46:06.999Z</time></trkpt><trkpt lat="43.534010751213444" lon="10.661866245801246"><ele>163.0</ele><time>2026-04-18T07:46:07.999Z</time></trkpt><trkpt lat="43.53397382892997" lon="10.661975210542476"><ele>163.0</ele><time>2026-04-18T07:46:08.999Z</time></trkpt><trkpt lat="43.53394004986019" lon="10.66208878533045"><ele>163.0</ele><time>2026-04-18T07:46:09.999Z</time></trkpt><trkpt lat="43.533897427882565" lon="10.662208059812581"><ele>162.0</ele><time>2026-04-18T07:46:10.999Z</time></trkpt><trkpt lat="43.53385799102814" lon="10.66232481972376"><ele>161.0</ele><time>2026-04-18T07:46:11.999Z</time></trkpt><trkpt lat="43.533825888338995" lon="10.66241123714546"><ele>160.0</ele><time>2026-04-18T07:46:12.999Z</time></trkpt><trkpt lat="43.53379257027389" lon="10.662507796669995"><ele>159.0</ele><time>2026-04-18T07:46:13.999Z</time></trkpt><trkpt lat="43.533761347684575" lon="10.662593878815567"><ele>158.0</ele><time>2026-04-18T07:46:14.999Z</time></trkpt><trkpt lat="43.53373771071763" lon="10.662688426683342"><ele>157.0</ele><time>2026-04-18T07:46:15.999Z</time></trkpt><trkpt lat="43.533705608028484" lon="10.662797223786509"><ele>160.0</ele><time>2026-04-18T07:46:16.999Z</time></trkpt><trkpt lat="43.53367375679643" lon="10.662921108315384"><ele>163.0</ele><time>2026-04-18T07:46:17.999Z</time></trkpt><trkpt lat="43.533645090687585" lon="10.663035688931739"><ele>166.0</ele><time>2026-04-18T07:46:18.999Z</time></trkpt><trkpt lat="43.53360636629493" lon="10.66319209524492"><ele>169.0</ele><time>2026-04-18T07:46:19.999Z</time></trkpt><trkpt lat="43.533571958582414" lon="10.66333576106528"><ele>172.0</ele><time>2026-04-18T07:46:20.999Z</time></trkpt><trkpt lat="43.53355603296639" lon="10.663468949506678"><ele>172.0</ele><time>2026-04-18T07:46:21.999Z</time></trkpt><trkpt lat="43.53352942042382" lon="10.663608508194484"><ele>172.0</ele><time>2026-04-18T07:46:22.999Z</time></trkpt><trkpt lat="43.533507795113636" lon="10.663744797940053"><ele>172.0</ele><time>2026-04-18T07:46:23.999Z</time></trkpt><trkpt lat="43.533489983569396" lon="10.663865245888628"><ele>172.0</ele><time>2026-04-18T07:46:24.999Z</time></trkpt><trkpt lat="43.533481014933" lon="10.66397773102919"><ele>172.0</ele><time>2026-04-18T07:46:25.999Z</time></trkpt><trkpt lat="43.53347028609694" lon="10.664104884500302"><ele>170.83333333333334</ele><time>2026-04-18T07:46:26.999Z</time></trkpt><trkpt lat="43.53345490530462" lon="10.66422550008694"><ele>169.66666666666669</ele><time>2026-04-18T07:46:27.999Z</time></trkpt><trkpt lat="43.53343826722683" lon="10.664343936378755"><ele>168.5</ele><time>2026-04-18T07:46:28.999Z</time></trkpt><trkpt lat="43.53341085840346" lon="10.664453571672238"><ele>167.33333333333334</ele><time>2026-04-18T07:46:29.999Z</time></trkpt><trkpt lat="43.53336718868793" lon="10.664556501443185"><ele>166.16666666666666</ele><time>2026-04-18T07:46:30.999Z</time></trkpt><trkpt lat="43.53330528833301" lon="10.66465205513934"><ele>165.0</ele><time>2026-04-18T07:46:31.999Z</time></trkpt><trkpt lat="43.53322448678644" lon="10.66474777647356"><ele>162.5</ele><time>2026-04-18T07:46:32.999Z</time></trkpt><trkpt lat="43.53313827891232" lon="10.664846934388079"><ele>160.0</ele><time>2026-04-18T07:46:33.999Z</time></trkpt><trkpt lat="43.53304779626758" lon="10.664920862774052"><ele>157.5</ele><time>2026-04-18T07:46:34.999Z</time></trkpt><trkpt lat="43.53294381875874" lon="10.664982050667204"><ele>155.0</ele><time>2026-04-18T07:46:35.999Z</time></trkpt><trkpt lat="43.5328247957337" lon="10.66500283778707"><ele>154.6</ele><time>2026-04-18T07:46:36.999Z</time></trkpt><trkpt lat="43.53271465752603" lon="10.664990013475217"><ele>154.2</ele><time>2026-04-18T07:46:37.999Z</time></trkpt><trkpt lat="43.53260619569899" lon="10.66496771761278"><ele>153.8</ele><time>2026-04-18T07:46:38.999Z</time></trkpt><trkpt lat="43.53249924261452" lon="10.664948774511613"><ele>153.4</ele><time>2026-04-18T07:46:39.999Z</time></trkpt><trkpt lat="43.532396187115026" lon="10.664941146979727"><ele>153.0</ele><time>2026-04-18T07:46:40.999Z</time></trkpt><trkpt lat="43.532302100251925" lon="10.664955144758023"><ele>153.0</ele><time>2026-04-18T07:46:41.999Z</time></trkpt><trkpt lat="43.532210947054935" lon="10.664997305730976"><ele>153.0</ele><time>2026-04-18T07:46:42.999Z</time></trkpt><trkpt lat="43.53212612219484" lon="10.665082801143326"><ele>153.0</ele><time>2026-04-18T07:46:43.999Z</time></trkpt><trkpt lat="43.53206011470736" lon="10.66521154717604"><ele>153.0</ele><time>2026-04-18T07:46:44.999Z</time></trkpt><trkpt lat="43.53199540641488" lon="10.665348172197737"><ele>153.0</ele><time>2026-04-18T07:46:45.999Z</time></trkpt><trkpt lat="43.531933422240925" lon="10.66547825933496"><ele>151.0</ele><time>2026-04-18T07:46:46.999Z</time></trkpt><trkpt lat="43.53187562901856" lon="10.665602060044804"><ele>149.0</ele><time>2026-04-18T07:46:47.999Z</time></trkpt><trkpt lat="43.53182085328133" lon="10.665715634832779"><ele>147.0</ele><time>2026-04-18T07:46:48.999Z</time></trkpt><trkpt lat="43.53177089713843" lon="10.66584664397935"><ele>145.0</ele><time>2026-04-18T07:46:49.999Z</time></trkpt><trkpt lat="43.53171410974444" lon="10.665975390012065"><ele>143.0</ele><time>2026-04-18T07:46:50.999Z</time></trkpt><trkpt lat="43.53165430486531" lon="10.666098520169655"><ele>143.8</ele><time>2026-04-18T07:46:51.999Z</time></trkpt><trkpt lat="43.531591859686685" lon="10.66621653736631"><ele>144.60000000000002</ele><time>2026-04-18T07:46:52.999Z</time></trkpt><trkpt lat="43.53152673229904" lon="10.666334051648775"><ele>145.39999999999998</ele><time>2026-04-18T07:46:53.999Z</time></trkpt><trkpt lat="43.53145297155113" lon="10.666451733569303"><ele>146.2</ele><time>2026-04-18T07:46:54.999Z</time></trkpt><trkpt lat="43.53138038426967" lon="10.66657419317464"><ele>147.0</ele><time>2026-04-18T07:46:55.999Z</time></trkpt><trkpt lat="43.531306958797884" lon="10.66669095308582"><ele>147.0</ele><time>2026-04-18T07:46:56.999Z</time></trkpt><trkpt lat="43.53122858800322" lon="10.66679698416094"><ele>147.0</ele><time>2026-04-18T07:46:57.999Z</time></trkpt><trkpt lat="43.53114250585765" lon="10.666891029114524"><ele>147.0</ele><time>2026-04-18T07:46:58.999Z</time></trkpt><trkpt lat="43.53107218169004" lon="10.666987672458092"><ele>147.0</ele><time>2026-04-18T07:46:59.999Z</time></trkpt><trkpt lat="43.531013466458326" lon="10.667080627764264"><ele>147.0</ele><time>2026-04-18T07:47:00.999Z</time></trkpt><trkpt lat="43.53095877454013" lon="10.667176097641388"><ele>149.0</ele><time>2026-04-18T07:47:01.999Z</time></trkpt><trkpt lat="43.530907938297396" lon="10.667262095967928"><ele>151.0</ele><time>2026-04-18T07:47:02.999Z</time></trkpt><trkpt lat="43.530860915820604" lon="10.66733837128679"><ele>153.0</ele><time>2026-04-18T07:47:03.999Z</time></trkpt><trkpt lat="43.530812845605915" lon="10.667410539473098"><ele>155.0</ele><time>2026-04-18T07:47:04.999Z</time></trkpt><trkpt lat="43.530759830068355" lon="10.66747566686074"><ele>157.0</ele><time>2026-04-18T07:47:05.999Z</time></trkpt><trkpt lat="43.53068078872145" lon="10.667580775926512"><ele>159.0</ele><time>2026-04-18T07:47:07.999Z</time></trkpt><trkpt lat="43.53059445511878" lon="10.667650261903804"><ele>159.0</ele><time>2026-04-18T07:47:09.999Z</time></trkpt><trkpt lat="43.53050393056453" lon="10.667716311300795"><ele>159.0</ele><time>2026-04-18T07:47:11.999Z</time></trkpt><trkpt lat="43.530419692437654" lon="10.667787222201627"><ele>159.0</ele><time>2026-04-18T07:47:13.999Z</time></trkpt><trkpt lat="43.530321330803936" lon="10.667866766462724"><ele>159.0</ele><time>2026-04-18T07:47:15.999Z</time></trkpt><trkpt lat="43.5302583408016" lon="10.668005654598277"><ele>159.0</ele><time>2026-04-18T07:47:17.999Z</time></trkpt><trkpt lat="43.53020431943566" lon="10.66810699180762"><ele>159.8</ele><time>2026-04-18T07:47:18.999Z</time></trkpt><trkpt lat="43.5301296366784" lon="10.66820614972214"><ele>160.60000000000002</ele><time>2026-04-18T07:47:19.999Z</time></trkpt><trkpt lat="43.53006459310979" lon="10.668320227424305"><ele>161.4</ele><time>2026-04-18T07:47:20.999Z</time></trkpt><trkpt lat="43.52999938190312" lon="10.668447883809607"><ele>162.20000000000002</ele><time>2026-04-18T07:47:21.999Z</time></trkpt><trkpt lat="43.52993186567307" lon="10.668549304837983"><ele>163.0</ele><time>2026-04-18T07:47:22.999Z</time></trkpt><trkpt lat="43.529852991964226" lon="10.668655335913103"><ele>162.60000000000002</ele><time>2026-04-18T07:47:23.999Z</time></trkpt><trkpt lat="43.529785727191275" lon="10.668760780255"><ele>162.20000000000002</ele><time>2026-04-18T07:47:24.999Z</time></trkpt><trkpt lat="43.52972139608443" lon="10.66887603142361"><ele>161.8</ele><time>2026-04-18T07:47:25.999Z</time></trkpt><trkpt lat="43.52961884349913" lon="10.66897720099489"><ele>161.4</ele><time>2026-04-18T07:47:26.999Z</time></trkpt><trkpt lat="43.52954256818027" lon="10.669080130765837"><ele>161.0</ele><time>2026-04-18T07:47:27.999Z</time></trkpt><trkpt lat="43.529457827139204" lon="10.669176941747468"><ele>161.0</ele><time>2026-04-18T07:47:28.999Z</time></trkpt><trkpt lat="43.529388508799975" lon="10.66927953624229"><ele>161.0</ele><time>2026-04-18T07:47:29.999Z</time></trkpt><trkpt lat="43.52930355821133" lon="10.669381376365823"><ele>161.0</ele><time>2026-04-18T07:47:30.999Z</time></trkpt><trkpt lat="43.52923013273955" lon="10.669447425762815"><ele>161.0</ele><time>2026-04-18T07:47:31.999Z</time></trkpt><trkpt lat="43.529131938743895" lon="10.669540381068988"><ele>161.0</ele><time>2026-04-18T07:47:32.999Z</time></trkpt><trkpt lat="43.52903181691051" lon="10.669626798490686"><ele>161.4</ele><time>2026-04-18T07:47:33.999Z</time></trkpt><trkpt lat="43.528935341205006" lon="10.669720256711049"><ele>161.8</ele><time>2026-04-18T07:47:34.999Z</time></trkpt><trkpt lat="43.52884552911252" lon="10.669811619455619"><ele>162.20000000000002</ele><time>2026-04-18T07:47:35.999Z</time></trkpt><trkpt lat="43.528765984851425" lon="10.669905664409203"><ele>162.60000000000002</ele><time>2026-04-18T07:47:36.999Z</time></trkpt><trkpt lat="43.528682123910194" lon="10.669999206448598"><ele>163.0</ele><time>2026-04-18T07:47:37.999Z</time></trkpt><trkpt lat="43.528620810288494" lon="10.670096687982483"><ele>162.60000000000002</ele><time>2026-04-18T07:47:38.999Z</time></trkpt><trkpt lat="43.52854436733157" lon="10.670192912230892"><ele>162.20000000000002</ele><time>2026-04-18T07:47:39.999Z</time></trkpt><trkpt lat="43.52847001985044" lon="10.670287460098667"><ele>161.8</ele><time>2026-04-18T07:47:40.999Z</time></trkpt><trkpt lat="43.52839550473124" lon="10.670380834499998"><ele>161.4</ele><time>2026-04-18T07:47:41.999Z</time></trkpt><trkpt lat="43.52831562519402" lon="10.670474376539392"><ele>161.0</ele><time>2026-04-18T07:47:42.999Z</time></trkpt><trkpt lat="43.5282320576194" lon="10.67057345063488"><ele>161.0</ele><time>2026-04-18T07:47:43.999Z</time></trkpt><trkpt lat="43.5281593865189" lon="10.670667495588464"><ele>161.0</ele><time>2026-04-18T07:47:44.999Z</time></trkpt><trkpt lat="43.52808390748084" lon="10.670757517228527"><ele>161.0</ele><time>2026-04-18T07:47:45.999Z</time></trkpt><trkpt lat="43.52800675206215" lon="10.670855836952729"><ele>161.0</ele><time>2026-04-18T07:47:46.999Z</time></trkpt><trkpt lat="43.527921885292535" lon="10.670966729531688"><ele>161.0</ele><time>2026-04-18T07:47:47.999Z</time></trkpt><trkpt lat="43.52783634797067" lon="10.671080304319663"><ele>162.25</ele><time>2026-04-18T07:47:48.999Z</time></trkpt><trkpt lat="43.52772482674897" lon="10.671197986240193"><ele>163.5</ele><time>2026-04-18T07:47:49.999Z</time></trkpt><trkpt lat="43.5276273871246" lon="10.671317763636514"><ele>164.75</ele><time>2026-04-18T07:47:50.999Z</time></trkpt><trkpt lat="43.52754516065449" lon="10.671458998704955"><ele>166.0</ele><time>2026-04-18T07:47:51.999Z</time></trkpt><trkpt lat="43.52747274101109" lon="10.671599227945014"><ele>166.0</ele><time>2026-04-18T07:47:52.999Z</time></trkpt><trkpt lat="43.52740937382311" lon="10.671732667843505"><ele>166.0</ele><time>2026-04-18T07:47:53.999Z</time></trkpt><trkpt lat="43.527357602762336" lon="10.671864521120908"><ele>166.0</ele><time>2026-04-18T07:47:54.999Z</time></trkpt><trkpt lat="43.527298565063184" lon="10.672000972564026"><ele>166.0</ele><time>2026-04-18T07:47:55.999Z</time></trkpt><trkpt lat="43.52723800581277" lon="10.672130892063185"><ele>167.25</ele><time>2026-04-18T07:47:56.999Z</time></trkpt><trkpt lat="43.52715028919608" lon="10.672258296991393"><ele>168.5</ele><time>2026-04-18T07:47:57.999Z</time></trkpt><trkpt lat="43.527076486538654" lon="10.672377236197397"><ele>169.75</ele><time>2026-04-18T07:47:58.999Z</time></trkpt><trkpt lat="43.52695352401913" lon="10.67243557424347"><ele>171.0</ele><time>2026-04-18T07:47:59.999Z</time></trkpt><trkpt lat="43.526853192638164" lon="10.672501875097558"><ele>171.0</ele><time>2026-04-18T07:48:00.999Z</time></trkpt><trkpt lat="43.52674770638675" lon="10.67249030807118"><ele>171.0</ele><time>2026-04-18T07:48:01.999Z</time></trkpt><trkpt lat="43.526641717221146" lon="10.672465665275856"><ele>171.0</ele><time>2026-04-18T07:48:02.999Z</time></trkpt><trkpt lat="43.526531746651536" lon="10.672445548708245"><ele>171.0</ele><time>2026-04-18T07:48:03.999Z</time></trkpt><trkpt lat="43.5264470894295" lon="10.67246482708554"><ele>171.0</ele><time>2026-04-18T07:48:04.999Z</time></trkpt><trkpt lat="43.52635323004876" lon="10.67245458055617"><ele>171.0</ele><time>2026-04-18T07:48:05.999Z</time></trkpt><trkpt lat="43.526272279756455" lon="10.672488390563892"><ele>171.0</ele><time>2026-04-18T07:48:06.999Z</time></trkpt><trkpt lat="43.5261976020816" lon="10.672567421580359"><ele>171.0</ele><time>2026-04-18T07:48:07.999Z</time></trkpt><trkpt lat="43.526122305551766" lon="10.672604086356449"><ele>171.0</ele><time>2026-04-18T07:48:08.999Z</time></trkpt><trkpt lat="43.52605216410922" lon="10.67267193110718"><ele>171.0</ele><time>2026-04-18T07:48:09.999Z</time></trkpt><trkpt lat="43.52598779662202" lon="10.672746813513573"><ele>171.0</ele><time>2026-04-18T07:48:10.999Z</time></trkpt><trkpt lat="43.52593654332891" lon="10.672828603630835"><ele>170.8</ele><time>2026-04-18T07:48:11.999Z</time></trkpt><trkpt lat="43.525884256034786" lon="10.672944997993639"><ele>170.60000000000002</ele><time>2026-04-18T07:48:12.999Z</time></trkpt><trkpt lat="43.525847759004776" lon="10.67306506636323"><ele>170.4</ele><time>2026-04-18T07:48:13.998Z</time></trkpt><trkpt lat="43.525829040191965" lon="10.6732084832467"><ele>170.2</ele><time>2026-04-18T07:48:14.998Z</time></trkpt><trkpt lat="43.52581718129617" lon="10.673350798553711"><ele>170.0</ele><time>2026-04-18T07:48:15.998Z</time></trkpt><trkpt lat="43.52581004648532" lon="10.673495916772097"><ele>171.6</ele><time>2026-04-18T07:48:16.998Z</time></trkpt><trkpt lat="43.525801260201874" lon="10.673625094694053"><ele>173.2</ele><time>2026-04-18T07:48:17.998Z</time></trkpt><trkpt lat="43.525789545902406" lon="10.673759002917256"><ele>174.8</ele><time>2026-04-18T07:48:18.998Z</time></trkpt><trkpt lat="43.5257766357654" lon="10.673882326022927"><ele>176.4</ele><time>2026-04-18T07:48:19.998Z</time></trkpt><trkpt lat="43.5257601217167" lon="10.674002735778949"><ele>178.0</ele><time>2026-04-18T07:48:20.998Z</time></trkpt><trkpt lat="43.525742657186335" lon="10.674116771998177"><ele>178.0</ele><time>2026-04-18T07:48:21.998Z</time></trkpt><trkpt lat="43.52572695909073" lon="10.674219274119745"><ele>178.0</ele><time>2026-04-18T07:48:22.998Z</time></trkpt><trkpt lat="43.52571046209489" lon="10.674326992783199"><ele>178.0</ele><time>2026-04-18T07:48:23.998Z</time></trkpt><trkpt lat="43.525693320716655" lon="10.674437553520713"><ele>178.0</ele><time>2026-04-18T07:48:24.998Z</time></trkpt><trkpt lat="43.52567332201223" lon="10.674563124672028"><ele>178.0</ele><time>2026-04-18T07:48:25.998Z</time></trkpt><trkpt lat="43.5256524384949" lon="10.674700024188228"><ele>178.0</ele><time>2026-04-18T07:48:26.998Z</time></trkpt><trkpt lat="43.52563193529123" lon="10.674841383028248"><ele>178.83333333333334</ele><time>2026-04-18T07:48:27.998Z</time></trkpt><trkpt lat="43.52561307859432" lon="10.674970519948488"><ele>179.66666666666669</ele><time>2026-04-18T07:48:28.998Z</time></trkpt><trkpt lat="43.525594566720464" lon="10.675097295420834"><ele>180.5</ele><time>2026-04-18T07:48:29.998Z</time></trkpt><trkpt lat="43.525577650077864" lon="10.675213146192181"><ele>181.33333333333334</ele><time>2026-04-18T07:48:30.998Z</time></trkpt><trkpt lat="43.52556081218464" lon="10.675307881827775"><ele>182.16666666666666</ele><time>2026-04-18T07:48:31.998Z</time></trkpt><trkpt lat="43.5255391266627" lon="10.675393206172089"><ele>183.0</ele><time>2026-04-18T07:48:32.998Z</time></trkpt><trkpt lat="43.52551149683466" lon="10.675478408123404"><ele>183.0</ele><time>2026-04-18T07:48:33.998Z</time></trkpt><trkpt lat="43.52548119065094" lon="10.675557305102117"><ele>183.0</ele><time>2026-04-18T07:48:34.998Z</time></trkpt><trkpt lat="43.52542758398658" lon="10.675687760844902"><ele>183.0</ele><time>2026-04-18T07:48:36.998Z</time></trkpt><trkpt lat="43.52536756712279" lon="10.675795244009393"><ele>183.0</ele><time>2026-04-18T07:48:38.998Z</time></trkpt><trkpt lat="43.52528329982244" lon="10.675896924763855"><ele>183.0</ele><time>2026-04-18T07:48:40.998Z</time></trkpt><trkpt lat="43.52517174095244" lon="10.675999140376854"><ele>183.0</ele><time>2026-04-18T07:48:42.998Z</time></trkpt><trkpt lat="43.525103470351105" lon="10.676052365461993"><ele>183.0</ele><time>2026-04-18T07:48:43.998Z</time></trkpt><trkpt lat="43.525038720149105" lon="10.676109530041623"><ele>183.0</ele><time>2026-04-18T07:48:44.998Z</time></trkpt><trkpt lat="43.524972964118724" lon="10.676173064867664"><ele>183.0</ele><time>2026-04-18T07:48:45.998Z</time></trkpt><trkpt lat="43.524868944700366" lon="10.676271719867993"><ele>183.0</ele><time>2026-04-18T07:48:47.998Z</time></trkpt><trkpt lat="43.52477154698551" lon="10.676368614668656"><ele>182.83333333333334</ele><time>2026-04-18T07:48:49.998Z</time></trkpt><trkpt lat="43.524707383516734" lon="10.676442291597533"><ele>182.66666666666666</ele><time>2026-04-18T07:48:51.998Z</time></trkpt><trkpt lat="43.52464992557049" lon="10.676505323509383"><ele>182.5</ele><time>2026-04-18T07:48:56.998Z</time></trkpt><trkpt lat="43.52460453756482" lon="10.676571875820565"><ele>182.33333333333331</ele><time>2026-04-18T07:48:58.998Z</time></trkpt><trkpt lat="43.52458416954011" lon="10.676706824461627"><ele>182.16666666666666</ele><time>2026-04-18T07:49:00.998Z</time></trkpt><trkpt lat="43.52455168966532" lon="10.676788128922391"><ele>182.0</ele><time>2026-04-18T07:49:02.998Z</time></trkpt><trkpt lat="43.52452629249871" lon="10.676879659305026"><ele>181.5</ele><time>2026-04-18T07:49:06.998Z</time></trkpt><trkpt lat="43.52450680457384" lon="10.676984852189829"><ele>181.0</ele><time>2026-04-18T07:49:09.998Z</time></trkpt><trkpt lat="43.52451497692943" lon="10.67708065734308"><ele>180.5</ele><time>2026-04-18T07:49:12.998Z</time></trkpt><trkpt lat="43.52454276156546" lon="10.677171008829195"><ele>180.0</ele><time>2026-04-18T07:49:15.001Z</time></trkpt><trkpt lat="43.52460646429105" lon="10.677266477667118"><ele>179.5</ele><time>2026-04-18T07:49:18.001Z</time></trkpt><trkpt lat="43.52465284351549" lon="10.677347026287087"><ele>179.0</ele><time>2026-04-18T07:49:20Z</time></trkpt><trkpt lat="43.524700380905266" lon="10.677432486733018"><ele>178.33333333333331</ele><time>2026-04-18T07:49:22Z</time></trkpt><trkpt lat="43.52473216946268" lon="10.677540740927496"><ele>177.66666666666666</ele><time>2026-04-18T07:49:24Z</time></trkpt><trkpt lat="43.52474011158934" lon="10.677644201216"><ele>177.0</ele><time>2026-04-18T07:49:28Z</time></trkpt><trkpt lat="43.524803901131754" lon="10.677796471873929"><ele>176.33333333333334</ele><time>2026-04-18T07:49:31Z</time></trkpt><trkpt lat="43.524783155921405" lon="10.677894875417163"><ele>175.66666666666669</ele><time>2026-04-18T07:49:32Z</time></trkpt><trkpt lat="43.52477443874211" lon="10.677996464083602"><ele>175.0</ele><time>2026-04-18T07:49:33Z</time></trkpt><trkpt lat="43.52476790085763" lon="10.678096376369407"><ele>174.5</ele><time>2026-04-18T07:49:34Z</time></trkpt><trkpt lat="43.52477452256114" lon="10.678204335282256"><ele>174.0</ele><time>2026-04-18T07:49:35Z</time></trkpt><trkpt lat="43.52473053808656" lon="10.67830187659842"><ele>173.5</ele><time>2026-04-18T07:49:36Z</time></trkpt><trkpt lat="43.52474233509013" lon="10.678419035001907"><ele>173.0</ele><time>2026-04-18T07:49:37Z</time></trkpt><trkpt lat="43.52478328164995" lon="10.678489990542342"><ele>172.5</ele><time>2026-04-18T07:49:38Z</time></trkpt><trkpt lat="43.52478889752508" lon="10.678587388257196"><ele>172.0</ele><time>2026-04-18T07:49:39Z</time></trkpt><trkpt lat="43.524813917506044" lon="10.678680511201431"><ele>173.16666666666669</ele><time>2026-04-18T07:49:40Z</time></trkpt><trkpt lat="43.524840110953456" lon="10.678787296647839"><ele>174.33333333333334</ele><time>2026-04-18T07:49:41Z</time></trkpt><trkpt lat="43.52483925675923" lon="10.6789208589907"><ele>175.5</ele><time>2026-04-18T07:49:42Z</time></trkpt><trkpt lat="43.52485136415518" lon="10.679024777079931"><ele>176.66666666666666</ele><time>2026-04-18T07:49:43Z</time></trkpt><trkpt lat="43.52485864163223" lon="10.679158344880546"><ele>177.83333333333331</ele><time>2026-04-18T07:49:44Z</time></trkpt><trkpt lat="43.52486413304622" lon="10.67927113299115"><ele>179.0</ele><time>2026-04-18T07:49:45Z</time></trkpt><trkpt lat="43.524863495008894" lon="10.679383647867157"><ele>179.5</ele><time>2026-04-18T07:49:46Z</time></trkpt><trkpt lat="43.52486907042891" lon="10.679486850286535"><ele>180.0</ele><time>2026-04-18T07:49:47Z</time></trkpt><trkpt lat="43.52484178911409" lon="10.679596881216847"><ele>180.5</ele><time>2026-04-18T07:49:48Z</time></trkpt><trkpt lat="43.524829668143965" lon="10.679712141202149"><ele>181.0</ele><time>2026-04-18T07:49:49Z</time></trkpt><trkpt lat="43.52481974433288" lon="10.679828696395576"><ele>181.5</ele><time>2026-04-18T07:49:50Z</time></trkpt><trkpt lat="43.52483255740848" lon="10.679987774183497"><ele>182.0</ele><time>2026-04-18T07:49:51Z</time></trkpt><trkpt lat="43.524860977574605" lon="10.680132583465612"><ele>182.0</ele><time>2026-04-18T07:49:52Z</time></trkpt><trkpt lat="43.52488612372398" lon="10.680231899358915"><ele>182.0</ele><time>2026-04-18T07:49:53Z</time></trkpt><trkpt lat="43.5249156063162" lon="10.680362572475426"><ele>182.0</ele><time>2026-04-18T07:49:54Z</time></trkpt><trkpt lat="43.52493870500739" lon="10.68048832109879"><ele>182.0</ele><time>2026-04-18T07:49:55Z</time></trkpt><trkpt lat="43.524950188022004" lon="10.68060564972811"><ele>182.0</ele><time>2026-04-18T07:49:56Z</time></trkpt><trkpt lat="43.52495436899098" lon="10.680727051274399"><ele>182.0</ele><time>2026-04-18T07:49:57Z</time></trkpt><trkpt lat="43.52495477538884" lon="10.680822674194985"><ele>180.83333333333331</ele><time>2026-04-18T07:49:58Z</time></trkpt><trkpt lat="43.52494530383826" lon="10.680938931191974"><ele>179.66666666666666</ele><time>2026-04-18T07:49:59Z</time></trkpt><trkpt lat="43.524942202534085" lon="10.681058624769264"><ele>178.5</ele><time>2026-04-18T07:50:00Z</time></trkpt><trkpt lat="43.52494023278684" lon="10.68116499112051"><ele>177.33333333333334</ele><time>2026-04-18T07:50:01Z</time></trkpt><trkpt lat="43.524970742914384" lon="10.681296922276431"><ele>176.16666666666669</ele><time>2026-04-18T07:50:02Z</time></trkpt><trkpt lat="43.52496257055879" lon="10.681394403810316"><ele>175.0</ele><time>2026-04-18T07:50:03Z</time></trkpt><trkpt lat="43.52495054252774" lon="10.681485850373917"><ele>174.5</ele><time>2026-04-18T07:50:04Z</time></trkpt><trkpt lat="43.524960014078324" lon="10.681584589193278"><ele>174.0</ele><time>2026-04-18T07:50:05Z</time></trkpt><trkpt lat="43.52495397910804" lon="10.681688021878415"><ele>173.5</ele><time>2026-04-18T07:50:06Z</time></trkpt><trkpt lat="43.52494953669936" lon="10.68179036491614"><ele>173.0</ele><time>2026-04-18T07:50:07Z</time></trkpt><trkpt lat="43.52494723167599" lon="10.681901676590257"><ele>172.5</ele><time>2026-04-18T07:50:08Z</time></trkpt><trkpt lat="43.524943417910045" lon="10.682037882516795"><ele>172.0</ele><time>2026-04-18T07:50:09Z</time></trkpt><trkpt lat="43.5249483213234" lon="10.68215196021896"><ele>171.66666666666669</ele><time>2026-04-18T07:50:10Z</time></trkpt><trkpt lat="43.52493339511798" lon="10.682264065559952"><ele>171.33333333333334</ele><time>2026-04-18T07:50:11Z</time></trkpt><trkpt lat="43.524943385027385" lon="10.682385097323175"><ele>171.0</ele><time>2026-04-18T07:50:12Z</time></trkpt><trkpt lat="43.52497454003611" lon="10.68250221556461"><ele>170.66666666666666</ele><time>2026-04-18T07:50:13Z</time></trkpt><trkpt lat="43.5250339756586" lon="10.68258810097152"><ele>170.33333333333331</ele><time>2026-04-18T07:50:14Z</time></trkpt><trkpt lat="43.525131127502874" lon="10.682624776099049"><ele>170.0</ele><time>2026-04-18T07:50:15Z</time></trkpt><trkpt lat="43.525223387226816" lon="10.682651825864603"><ele>170.0</ele><time>2026-04-18T07:50:16Z</time></trkpt><trkpt lat="43.525297606079626" lon="10.682681981665066"><ele>170.0</ele><time>2026-04-18T07:50:17Z</time></trkpt><trkpt lat="43.5253631364075" lon="10.682719046818214"><ele>170.0</ele><time>2026-04-18T07:50:18Z</time></trkpt><trkpt lat="43.5254250668379" lon="10.682770369504418"><ele>170.0</ele><time>2026-04-18T07:50:19Z</time></trkpt><trkpt lat="43.52548267875801" lon="10.682859790060132"><ele>170.0</ele><time>2026-04-18T07:50:20Z</time></trkpt><trkpt lat="43.52552801588675" lon="10.682960082625952"><ele>170.0</ele><time>2026-04-18T07:50:21Z</time></trkpt><trkpt lat="43.52557587434437" lon="10.683087313329409"><ele>168.8</ele><time>2026-04-18T07:50:23Z</time></trkpt><trkpt lat="43.52562205870033" lon="10.683201290677006"><ele>167.6</ele><time>2026-04-18T07:50:25Z</time></trkpt><trkpt lat="43.52559867319048" lon="10.683330539623912"><ele>166.39999999999998</ele><time>2026-04-18T07:50:27Z</time></trkpt><trkpt lat="43.52557198299031" lon="10.683428007681785"><ele>165.2</ele><time>2026-04-18T07:50:28Z</time></trkpt><trkpt lat="43.52545035541386" lon="10.68350144662958"><ele>164.0</ele><time>2026-04-18T07:50:30Z</time></trkpt><trkpt lat="43.525371984619206" lon="10.683550732220228"><ele>162.16666666666666</ele><time>2026-04-18T07:50:31Z</time></trkpt><trkpt lat="43.52528602820218" lon="10.683614686141427"><ele>160.33333333333331</ele><time>2026-04-18T07:50:32Z</time></trkpt><trkpt lat="43.5252083698693" lon="10.683681992823894"><ele>158.5</ele><time>2026-04-18T07:50:33Z</time></trkpt><trkpt lat="43.52512488611371" lon="10.683737061927731"><ele>156.66666666666666</ele><time>2026-04-18T07:50:34Z</time></trkpt><trkpt lat="43.52504806597114" lon="10.683795567611869"><ele>154.83333333333334</ele><time>2026-04-18T07:50:35Z</time></trkpt><trkpt lat="43.5249906080249" lon="10.68384937943023"><ele>153.0</ele><time>2026-04-18T07:50:36Z</time></trkpt><trkpt lat="43.52491533853442" lon="10.683881314481313"><ele>153.0</ele><time>2026-04-18T07:50:37Z</time></trkpt><trkpt lat="43.5248248977992" lon="10.683912327523048"><ele>153.0</ele><time>2026-04-18T07:50:39Z</time></trkpt><trkpt lat="43.52473567243994" lon="10.683899419392164"><ele>153.0</ele><time>2026-04-18T07:50:42Z</time></trkpt><trkpt lat="43.52466907821924" lon="10.683897156278308"><ele>153.0</ele><time>2026-04-18T07:50:44Z</time></trkpt><trkpt lat="43.524593054357474" lon="10.68389824592572"><ele>153.0</ele><time>2026-04-18T07:50:46Z</time></trkpt><trkpt lat="43.52452189199955" lon="10.683995224545415"><ele>153.0</ele><time>2026-04-18T07:50:48Z</time></trkpt><trkpt lat="43.524501512983306" lon="10.684137845902098"><ele>151.0</ele><time>2026-04-18T07:50:50Z</time></trkpt><trkpt lat="43.52450577774181" lon="10.684297915482711"><ele>149.0</ele><time>2026-04-18T07:50:52Z</time></trkpt><trkpt lat="43.52452386174679" lon="10.684450026611504"><ele>147.0</ele><time>2026-04-18T07:50:54Z</time></trkpt><trkpt lat="43.52464785520603" lon="10.684519663135786"><ele>145.0</ele><time>2026-04-18T07:50:56Z</time></trkpt><trkpt lat="43.52474608273397" lon="10.684545621257316"><ele>145.0</ele><time>2026-04-18T07:50:57Z</time></trkpt><trkpt lat="43.52483263786244" lon="10.68456476233991"><ele>145.0</ele><time>2026-04-18T07:50:58Z</time></trkpt><trkpt lat="43.52492135755593" lon="10.684587265857772"><ele>145.0</ele><time>2026-04-18T07:50:59Z</time></trkpt><trkpt lat="43.52500752191365" lon="10.684623332057798"><ele>145.0</ele><time>2026-04-18T07:51:00Z</time></trkpt><trkpt lat="43.52509969849468" lon="10.684669883931694"><ele>145.0</ele><time>2026-04-18T07:51:01Z</time></trkpt><trkpt lat="43.525176728184825" lon="10.684775412092623"><ele>145.0</ele><time>2026-04-18T07:51:02Z</time></trkpt><trkpt lat="43.525243196676975" lon="10.684874653826174"><ele>145.0</ele><time>2026-04-18T07:51:03Z</time></trkpt><trkpt lat="43.52529455011952" lon="10.685036420771524"><ele>145.0</ele><time>2026-04-18T07:51:04Z</time></trkpt><trkpt lat="43.52532499273669" lon="10.685177588867875"><ele>145.0</ele><time>2026-04-18T07:51:05Z</time></trkpt><trkpt lat="43.525350690216776" lon="10.685340263132407"><ele>146.0</ele><time>2026-04-18T07:51:06Z</time></trkpt><trkpt lat="43.525386650090724" lon="10.685525247501683"><ele>147.0</ele><time>2026-04-18T07:51:07Z</time></trkpt><trkpt lat="43.525435070354305" lon="10.68570827690287"><ele>148.0</ele><time>2026-04-18T07:51:08Z</time></trkpt><trkpt lat="43.525482103932006" lon="10.6858818149563"><ele>149.0</ele><time>2026-04-18T07:51:09Z</time></trkpt><trkpt lat="43.52551632099182" lon="10.686054825792727"><ele>146.0</ele><time>2026-04-18T07:51:09.999Z</time></trkpt><trkpt lat="43.52554431654841" lon="10.686232270682869"><ele>143.0</ele><time>2026-04-18T07:51:10.999Z</time></trkpt><trkpt lat="43.52555848196477" lon="10.686391359205066"><ele>140.0</ele><time>2026-04-18T07:51:11.999Z</time></trkpt><trkpt lat="43.5255664866823" lon="10.686576850722252"><ele>137.0</ele><time>2026-04-18T07:51:12.999Z</time></trkpt><trkpt lat="43.52556707341552" lon="10.68677214906615"><ele>135.25</ele><time>2026-04-18T07:51:13.999Z</time></trkpt><trkpt lat="43.52553744338781" lon="10.686960490430414"><ele>133.5</ele><time>2026-04-18T07:51:14.999Z</time></trkpt><trkpt lat="43.52550244894207" lon="10.68715042435628"><ele>131.75</ele><time>2026-04-18T07:51:15.999Z</time></trkpt><trkpt lat="43.52543941703022" lon="10.687351087118207"><ele>130.0</ele><time>2026-04-18T07:51:16.999Z</time></trkpt><trkpt lat="43.52537781004191" lon="10.687556695203005"><ele>127.0</ele><time>2026-04-18T07:51:17.999Z</time></trkpt><trkpt lat="43.52531544868231" lon="10.68776121364039"><ele>124.0</ele><time>2026-04-18T07:51:18.999Z</time></trkpt><trkpt lat="43.52525702681721" lon="10.687968581924855"><ele>121.0</ele><time>2026-04-18T07:51:19.999Z</time></trkpt><trkpt lat="43.52520447228432" lon="10.688164215544878"><ele>121.0</ele><time>2026-04-18T07:51:20.999Z</time></trkpt><trkpt lat="43.52516780145795" lon="10.688367728153885"><ele>121.0</ele><time>2026-04-18T07:51:21.999Z</time></trkpt><trkpt lat="43.52514219474376" lon="10.68856537343067"><ele>121.0</ele><time>2026-04-18T07:51:22.999Z</time></trkpt><trkpt lat="43.52512517948032" lon="10.688771149153531"><ele>121.0</ele><time>2026-04-18T07:51:23.999Z</time></trkpt><trkpt lat="43.525104182812875" lon="10.688973991210283"><ele>120.66666666666667</ele><time>2026-04-18T07:51:24.999Z</time></trkpt><trkpt lat="43.52507560052306" lon="10.689195944006265"><ele>120.33333333333334</ele><time>2026-04-18T07:51:25.999Z</time></trkpt><trkpt lat="43.52503880396814" lon="10.689411778012932"><ele>120.0</ele><time>2026-04-18T07:51:26.999Z</time></trkpt><trkpt lat="43.52501441262991" lon="10.689632976437629"><ele>120.0</ele><time>2026-04-18T07:51:27.999Z</time></trkpt><trkpt lat="43.52497866381288" lon="10.689851576472343"><ele>120.0</ele><time>2026-04-18T07:51:28.999Z</time></trkpt><trkpt lat="43.52499144621522" lon="10.690078558410228"><ele>120.0</ele><time>2026-04-18T07:51:29.999Z</time></trkpt><trkpt lat="43.525011814239924" lon="10.690315850089016"><ele>118.66666666666666</ele><time>2026-04-18T07:51:30.999Z</time></trkpt><trkpt lat="43.525043288286334" lon="10.690570492307367"><ele>117.33333333333333</ele><time>2026-04-18T07:51:31.999Z</time></trkpt><trkpt lat="43.52507350504727" lon="10.690819434831562"><ele>116.0</ele><time>2026-04-18T07:51:32.999Z</time></trkpt><trkpt lat="43.52510606874109" lon="10.691057229424539"><ele>114.0</ele><time>2026-04-18T07:51:33.999Z</time></trkpt><trkpt lat="43.525140308815544" lon="10.691288821409168"><ele>112.0</ele><time>2026-04-18T07:51:34.999Z</time></trkpt><trkpt lat="43.52518619973541" lon="10.691514462242546"><ele>110.0</ele><time>2026-04-18T07:51:35.999Z</time></trkpt><trkpt lat="43.52525187194676" lon="10.691724009821835"><ele>107.0</ele><time>2026-04-18T07:51:36.999Z</time></trkpt><trkpt lat="43.52529939733774" lon="10.691957194368067"><ele>104.0</ele><time>2026-04-18T07:51:37.999Z</time></trkpt><trkpt lat="43.52533468515009" lon="10.69220747799677"><ele>101.0</ele><time>2026-04-18T07:51:38.999Z</time></trkpt><trkpt lat="43.52536737457246" lon="10.69244879298908"><ele>101.0</ele><time>2026-04-18T07:51:39.999Z</time></trkpt><trkpt lat="43.52537760049433" lon="10.692682731906597"><ele>101.0</ele><time>2026-04-18T07:51:40.999Z</time></trkpt><trkpt lat="43.52538233626962" lon="10.692907953644816"><ele>101.0</ele><time>2026-04-18T07:51:41.999Z</time></trkpt><trkpt lat="43.52539847143323" lon="10.693118423233454"><ele>102.5</ele><time>2026-04-18T07:51:42.999Z</time></trkpt><trkpt lat="43.52542990357012" lon="10.693319337452476"><ele>104.0</ele><time>2026-04-18T07:51:43.999Z</time></trkpt><trkpt lat="43.525487948249584" lon="10.693484963859145"><ele>105.5</ele><time>2026-04-18T07:51:44.999Z</time></trkpt><trkpt lat="43.52555307563723" lon="10.693670036281173"><ele>107.0</ele><time>2026-04-18T07:51:45.999Z</time></trkpt><trkpt lat="43.52563823577345" lon="10.693850833932583"><ele>107.0</ele><time>2026-04-18T07:51:46.999Z</time></trkpt><trkpt lat="43.52570441089899" lon="10.694036157811707"><ele>107.0</ele><time>2026-04-18T07:51:47.999Z</time></trkpt><trkpt lat="43.52578148249865" lon="10.694223158071464"><ele>107.0</ele><time>2026-04-18T07:51:48.999Z</time></trkpt><trkpt lat="43.5258289240706" lon="10.69440915250284"><ele>107.0</ele><time>2026-04-18T07:51:49.999Z</time></trkpt><trkpt lat="43.525848118628865" lon="10.69460947998864"><ele>106.5</ele><time>2026-04-18T07:51:50.999Z</time></trkpt><trkpt lat="43.5258410778302" lon="10.694809472198314"><ele>106.0</ele><time>2026-04-18T07:51:51.999Z</time></trkpt><trkpt lat="43.52580314971835" lon="10.69499890320999"><ele>105.5</ele><time>2026-04-18T07:51:52.999Z</time></trkpt><trkpt lat="43.525745021219855" lon="10.695145837972587"><ele>105.0</ele><time>2026-04-18T07:51:53.999Z</time></trkpt><trkpt lat="43.525682995136386" lon="10.695269303406304"><ele>103.75</ele><time>2026-04-18T07:51:54.999Z</time></trkpt><trkpt lat="43.52563773285926" lon="10.695392014468736"><ele>102.5</ele><time>2026-04-18T07:51:55.999Z</time></trkpt><trkpt lat="43.5256217234242" lon="10.695535512651032"><ele>101.25</ele><time>2026-04-18T07:51:56.999Z</time></trkpt><trkpt lat="43.52564703677178" lon="10.69568831474585"><ele>100.0</ele><time>2026-04-18T07:51:57.999Z</time></trkpt><trkpt lat="43.52569791492403" lon="10.695876907567209"><ele>100.0</ele><time>2026-04-18T07:51:58.999Z</time></trkpt><trkpt lat="43.525730646255916" lon="10.696051167334147"><ele>100.0</ele><time>2026-04-18T07:51:59.999Z</time></trkpt><trkpt lat="43.525742800015514" lon="10.696241939450331"><ele>100.0</ele><time>2026-04-18T07:52:00.999Z</time></trkpt><trkpt lat="43.525728425051575" lon="10.696453833962508"><ele>100.0</ele><time>2026-04-18T07:52:01.999Z</time></trkpt><trkpt lat="43.52569904648096" lon="10.696655418733783"><ele>98.75</ele><time>2026-04-18T07:52:02.999Z</time></trkpt><trkpt lat="43.52567473896176" lon="10.696852393458315"><ele>97.5</ele><time>2026-04-18T07:52:03.999Z</time></trkpt><trkpt lat="43.52562813558013" lon="10.697047775621243"><ele>96.25</ele><time>2026-04-18T07:52:04.999Z</time></trkpt><trkpt lat="43.525575036223536" lon="10.69723184221489"><ele>95.0</ele><time>2026-04-18T07:52:05.999Z</time></trkpt><trkpt lat="43.52550865155042" lon="10.697374083111711"><ele>94.5</ele><time>2026-04-18T07:52:06.999Z</time></trkpt><trkpt lat="43.52545852776945" lon="10.697521353150435"><ele>94.0</ele><time>2026-04-18T07:52:07.999Z</time></trkpt><trkpt lat="43.52542537734241" lon="10.69766870700819"><ele>93.5</ele><time>2026-04-18T07:52:08.999Z</time></trkpt><trkpt lat="43.52542147975743" lon="10.697826119149754"><ele>93.0</ele><time>2026-04-18T07:52:09.999Z</time></trkpt><trkpt lat="43.52543476507396" lon="10.697978083054254"><ele>92.0</ele><time>2026-04-18T07:52:10.999Z</time></trkpt><trkpt lat="43.52545752194107" lon="10.698127951482961"><ele>91.0</ele><time>2026-04-18T07:52:11.999Z</time></trkpt><trkpt lat="43.52548082363189" lon="10.698276311169097"><ele>90.0</ele><time>2026-04-18T07:52:12.999Z</time></trkpt><trkpt lat="43.52550546642721" lon="10.698448978374431"><ele>89.0</ele><time>2026-04-18T07:52:13.999Z</time></trkpt><trkpt lat="43.5255257925424" lon="10.69864042104287"><ele>88.25</ele><time>2026-04-18T07:52:14.999Z</time></trkpt><trkpt lat="43.525500688742405" lon="10.698858182887266"><ele>87.5</ele><time>2026-04-18T07:52:15.999Z</time></trkpt><trkpt lat="43.5254636826399" lon="10.699048200632165"><ele>86.75</ele><time>2026-04-18T07:52:16.999Z</time></trkpt><trkpt lat="43.52540559605092" lon="10.69921659306688"><ele>86.0</ele><time>2026-04-18T07:52:17.999Z</time></trkpt><trkpt lat="43.52534583308131" lon="10.69936017506821"><ele>80.0</ele><time>2026-04-18T07:52:18.999Z</time></trkpt><trkpt lat="43.525303504470294" lon="10.699505517269204"><ele>74.0</ele><time>2026-04-18T07:52:19.999Z</time></trkpt><trkpt lat="43.525300445075636" lon="10.699660833934972"><ele>68.0</ele><time>2026-04-18T07:52:20.999Z</time></trkpt><trkpt lat="43.52533082947463" lon="10.699817156429123"><ele>62.0</ele><time>2026-04-18T07:52:21.999Z</time></trkpt><trkpt lat="43.52537244562388" lon="10.699991248557996"><ele>63.0</ele><time>2026-04-18T07:52:22.999Z</time></trkpt><trkpt lat="43.52542634126127" lon="10.700165927420091"><ele>64.0</ele><time>2026-04-18T07:52:23.999Z</time></trkpt><trkpt lat="43.52548120081753" lon="10.700345383966994"><ele>65.0</ele><time>2026-04-18T07:52:24.999Z</time></trkpt><trkpt lat="43.52557608396143" lon="10.700515117506217"><ele>66.0</ele><time>2026-04-18T07:52:25.999Z</time></trkpt><trkpt lat="43.52563094351769" lon="10.700691472748947"><ele>66.0</ele><time>2026-04-18T07:52:26.999Z</time></trkpt><trkpt lat="43.52570826657445" lon="10.70088660345478"><ele>66.0</ele><time>2026-04-18T07:52:27.999Z</time></trkpt><trkpt lat="43.52573559157879" lon="10.7010478712718"><ele>66.0</ele><time>2026-04-18T07:52:28.999Z</time></trkpt><trkpt lat="43.525743596296316" lon="10.701224142695498"><ele>66.0</ele><time>2026-04-18T07:52:29.999Z</time></trkpt><trkpt lat="43.52576002482653" lon="10.70138012991352"><ele>64.5</ele><time>2026-04-18T07:52:30.999Z</time></trkpt><trkpt lat="43.52574870925725" lon="10.701548857624363"><ele>63.0</ele><time>2026-04-18T07:52:31.999Z</time></trkpt><trkpt lat="43.52573898624957" lon="10.701714651669098"><ele>61.5</ele><time>2026-04-18T07:52:32.999Z</time></trkpt><trkpt lat="43.52574665569097" lon="10.701885810131861"><ele>60.0</ele><time>2026-04-18T07:52:33.999Z</time></trkpt><trkpt lat="43.52577636953772" lon="10.70205043071015"><ele>59.4</ele><time>2026-04-18T07:52:34.999Z</time></trkpt><trkpt lat="43.52581459101618" lon="10.702212033803297"><ele>58.8</ele><time>2026-04-18T07:52:35.999Z</time></trkpt><trkpt lat="43.52585344113738" lon="10.702339271093441"><ele>58.2</ele><time>2026-04-18T07:52:36.999Z</time></trkpt><trkpt lat="43.525877664837545" lon="10.702452929700447"><ele>57.6</ele><time>2026-04-18T07:52:37.999Z</time></trkpt><trkpt lat="43.52591156963587" lon="10.702577400962545"><ele>57.0</ele><time>2026-04-18T07:52:39.999Z</time></trkpt><trkpt lat="43.525980259332364" lon="10.702687455351187"><ele>57.0</ele><time>2026-04-18T07:52:42.999Z</time></trkpt><trkpt lat="43.52607451383353" lon="10.702656526128484"><ele>57.0</ele><time>2026-04-18T07:52:44.999Z</time></trkpt><trkpt lat="43.52620338559479" lon="10.702564073736502"><ele>57.0</ele><time>2026-04-18T07:52:46.999Z</time></trkpt><trkpt lat="43.52629483215839" lon="10.702494420121146"><ele>57.0</ele><time>2026-04-18T07:52:47.999Z</time></trkpt><trkpt lat="43.52639734283418" lon="10.702422922487093"><ele>56.66666666666667</ele><time>2026-04-18T07:52:48.999Z</time></trkpt><trkpt lat="43.526534386951035" lon="10.702358549470736"><ele>56.333333333333336</ele><time>2026-04-18T07:52:49.999Z</time></trkpt><trkpt lat="43.52668530311764" lon="10.702303312728835"><ele>56.0</ele><time>2026-04-18T07:52:50.999Z</time></trkpt><trkpt lat="43.52684657093466" lon="10.702271126220657"><ele>56.0</ele><time>2026-04-18T07:52:51.999Z</time></trkpt><trkpt lat="43.527008383575385" lon="10.702261319393946"><ele>56.0</ele><time>2026-04-18T07:52:52.999Z</time></trkpt><trkpt lat="43.52714836135835" lon="10.702240867550207"><ele>56.0</ele><time>2026-04-18T07:52:53.999Z</time></trkpt><trkpt lat="43.52729605049223" lon="10.702236006046368"><ele>56.0</ele><time>2026-04-18T07:52:54.999Z</time></trkpt><trkpt lat="43.52743892003179" lon="10.702238436798288"><ele>56.0</ele><time>2026-04-18T07:52:55.999Z</time></trkpt><trkpt lat="43.52757977791459" lon="10.702230893085433"><ele>56.0</ele><time>2026-04-18T07:52:56.999Z</time></trkpt><trkpt lat="43.52772243790657" lon="10.702231898913814"><ele>56.0</ele><time>2026-04-18T07:52:57.999Z</time></trkpt><trkpt lat="43.527865433174675" lon="10.702221086258723"><ele>56.5</ele><time>2026-04-18T07:52:58.999Z</time></trkpt><trkpt lat="43.52800147146315" lon="10.702216392392947"><ele>57.0</ele><time>2026-04-18T07:52:59.999Z</time></trkpt><trkpt lat="43.528140024322575" lon="10.702221170077754"><ele>57.5</ele><time>2026-04-18T07:53:00.999Z</time></trkpt><trkpt lat="43.528284612152284" lon="10.702217817316486"><ele>58.0</ele><time>2026-04-18T07:53:01.999Z</time></trkpt><trkpt lat="43.52842404511154" lon="10.702210357422663"><ele>58.0</ele><time>2026-04-18T07:53:02.999Z</time></trkpt><trkpt lat="43.52856519636095" lon="10.702210441241695"><ele>58.0</ele><time>2026-04-18T07:53:03.999Z</time></trkpt><trkpt lat="43.528720052022045" lon="10.702204490090443"><ele>58.0</ele><time>2026-04-18T07:53:04.999Z</time></trkpt><trkpt lat="43.52888023019165" lon="10.702204070995284"><ele>57.0</ele><time>2026-04-18T07:53:05.999Z</time></trkpt><trkpt lat="43.529042503837054" lon="10.702201053510143"><ele>56.0</ele><time>2026-04-18T07:53:06.999Z</time></trkpt><trkpt lat="43.52920632813454" lon="10.702187474827005"><ele>55.0</ele><time>2026-04-18T07:53:07.999Z</time></trkpt><trkpt lat="43.52937744468779" lon="10.70216132328911"><ele>55.0</ele><time>2026-04-18T07:53:08.999Z</time></trkpt><trkpt lat="43.52955300364972" lon="10.702141206721498"><ele>55.0</ele><time>2026-04-18T07:53:09.999Z</time></trkpt><trkpt lat="43.529741722199624" lon="10.702122850353552"><ele>55.0</ele><time>2026-04-18T07:53:10.999Z</time></trkpt><trkpt lat="43.52992863864035" lon="10.702101057405306"><ele>55.0</ele><time>2026-04-18T07:53:11.999Z</time></trkpt><trkpt lat="43.530112202319806" lon="10.702073816219999"><ele>55.0</ele><time>2026-04-18T07:53:12.999Z</time></trkpt><trkpt lat="43.530296059365874" lon="10.702041881168915"><ele>55.0</ele><time>2026-04-18T07:53:13.999Z</time></trkpt><trkpt lat="43.53048620283932" lon="10.702014975259734"><ele>55.0</ele><time>2026-04-18T07:53:14.999Z</time></trkpt><trkpt lat="43.53067492138923" lon="10.701986728246046"><ele>55.0</ele><time>2026-04-18T07:53:15.999Z</time></trkpt><trkpt lat="43.53085689250708" lon="10.701952027166916"><ele>55.0</ele><time>2026-04-18T07:53:16.999Z</time></trkpt><trkpt lat="43.53105533406467" lon="10.701917912821008"><ele>55.0</ele><time>2026-04-18T07:53:17.999Z</time></trkpt><trkpt lat="43.53122791745097" lon="10.701878098780943"><ele>55.0</ele><time>2026-04-18T07:53:18.999Z</time></trkpt><trkpt lat="43.53142103650005" lon="10.701845912272764"><ele>55.0</ele><time>2026-04-18T07:53:19.999Z</time></trkpt><trkpt lat="43.5316143650967" lon="10.701802074919177"><ele>55.0</ele><time>2026-04-18T07:53:20.999Z</time></trkpt><trkpt lat="43.53182135619552" lon="10.701777348304821"><ele>55.0</ele><time>2026-04-18T07:53:21.999Z</time></trkpt><trkpt lat="43.53202130649568" lon="10.701739797378613"><ele>55.0</ele><time>2026-04-18T07:53:22.999Z</time></trkpt><trkpt lat="43.532215389463616" lon="10.701692523444725"><ele>55.0</ele><time>2026-04-18T07:53:23.999Z</time></trkpt><trkpt lat="43.532417351420534" lon="10.70165463724239"><ele>55.0</ele><time>2026-04-18T07:53:24.999Z</time></trkpt><trkpt lat="43.53260841690333" lon="10.70161750541134"><ele>55.0</ele><time>2026-04-18T07:53:25.999Z</time></trkpt><trkpt lat="43.532787957269264" lon="10.701571991677117"><ele>55.33333333333333</ele><time>2026-04-18T07:53:26.999Z</time></trkpt><trkpt lat="43.532968545373095" lon="10.701542068282794"><ele>55.66666666666667</ele><time>2026-04-18T07:53:27.999Z</time></trkpt><trkpt lat="43.53314284704955" lon="10.701502002785634"><ele>56.0</ele><time>2026-04-18T07:53:28.999Z</time></trkpt><trkpt lat="43.53330176793368" lon="10.701466798792314"><ele>56.0</ele><time>2026-04-18T07:53:29.999Z</time></trkpt><trkpt lat="43.533465927507294" lon="10.701436204845738"><ele>56.0</ele><time>2026-04-18T07:53:30.999Z</time></trkpt><trkpt lat="43.53365242485286" lon="10.701398318643403"><ele>56.0</ele><time>2026-04-18T07:53:31.999Z</time></trkpt><trkpt lat="43.53382530160577" lon="10.701359342793655"><ele>56.66666666666667</ele><time>2026-04-18T07:53:32.999Z</time></trkpt><trkpt lat="43.533985856961024" lon="10.701322546238732"><ele>57.33333333333333</ele><time>2026-04-18T07:53:33.999Z</time></trkpt><trkpt lat="43.53416217029424" lon="10.701281642551255"><ele>58.0</ele><time>2026-04-18T07:53:34.999Z</time></trkpt><trkpt lat="43.534331861923945" lon="10.701243421072792"><ele>58.0</ele><time>2026-04-18T07:53:35.999Z</time></trkpt><trkpt lat="43.53448286190958" lon="10.701210815469455"><ele>58.0</ele><time>2026-04-18T07:53:36.999Z</time></trkpt><trkpt lat="43.534637927118254" lon="10.701187010864448"><ele>58.0</ele><time>2026-04-18T07:53:37.999Z</time></trkpt><trkpt lat="43.534792112227095" lon="10.70115633309884"><ele>57.75</ele><time>2026-04-18T07:53:38.999Z</time></trkpt><trkpt lat="43.534941854927254" lon="10.701131355027389"><ele>57.5</ele><time>2026-04-18T07:53:39.999Z</time></trkpt><trkpt lat="43.53507726457299" lon="10.701094474653434"><ele>57.25</ele><time>2026-04-18T07:53:40.999Z</time></trkpt><trkpt lat="43.53523358706714" lon="10.701066143820714"><ele>57.0</ele><time>2026-04-18T07:53:41.999Z</time></trkpt><trkpt lat="43.535387311171306" lon="10.701033538217377"><ele>57.0</ele><time>2026-04-18T07:53:42.999Z</time></trkpt><trkpt lat="43.5355466511506" lon="10.70100579411788"><ele>57.0</ele><time>2026-04-18T07:53:43.999Z</time></trkpt><trkpt lat="43.5357018001783" lon="10.700973020876479"><ele>57.0</ele><time>2026-04-18T07:53:44.999Z</time></trkpt><trkpt lat="43.53584307715626" lon="10.700935050855112"><ele>57.0</ele><time>2026-04-18T07:53:45.999Z</time></trkpt><trkpt lat="43.53599776517929" lon="10.70089540445311"><ele>57.0</ele><time>2026-04-18T07:53:46.999Z</time></trkpt><trkpt lat="43.5361481784317" lon="10.70085483604176"><ele>57.0</ele><time>2026-04-18T07:53:47.999Z</time></trkpt><trkpt lat="43.53629725057961" lon="10.700820973152947"><ele>56.5</ele><time>2026-04-18T07:53:48.999Z</time></trkpt><trkpt lat="43.536439030471755" lon="10.70079716854794"><ele>56.0</ele><time>2026-04-18T07:53:49.999Z</time></trkpt><trkpt lat="43.5365792178023" lon="10.700765568772983"><ele>55.5</ele><time>2026-04-18T07:53:50.999Z</time></trkpt><trkpt lat="43.536707754287434" lon="10.700733382264804"><ele>55.0</ele><time>2026-04-18T07:53:51.999Z</time></trkpt><trkpt lat="43.53683922443868" lon="10.700701531032752"><ele>55.0</ele><time>2026-04-18T07:53:52.999Z</time></trkpt><trkpt lat="43.53696235459627" lon="10.70066674613459"><ele>55.0</ele><time>2026-04-18T07:53:53.999Z</time></trkpt><trkpt lat="43.5370705230567" lon="10.700654340917897"><ele>55.0</ele><time>2026-04-18T07:53:54.999Z</time></trkpt><trkpt lat="43.53714989967973" lon="10.700636571283173"><ele>55.0</ele><time>2026-04-18T07:53:55.999Z</time></trkpt><trkpt lat="43.53721519470544" lon="10.700634811083507"><ele>55.0</ele><time>2026-04-18T07:53:56.999Z</time></trkpt><trkpt lat="43.53728958409609" lon="10.700626596818399"><ele>55.28571428571428</ele><time>2026-04-18T07:53:58.999Z</time></trkpt><trkpt lat="43.53735366374583" lon="10.700672362009715"><ele>55.57142857142857</ele><time>2026-04-18T07:54:11.999Z</time></trkpt><trkpt lat="43.537380150559855" lon="10.70075324737532"><ele>55.857142857142854</ele><time>2026-04-18T07:54:29.999Z</time></trkpt><trkpt lat="43.537337863858355" lon="10.700677810246777"><ele>56.14285714285714</ele><time>2026-04-18T07:55:12.998Z</time></trkpt><trkpt lat="43.537396956275714" lon="10.700637660930585"><ele>56.42857142857142</ele><time>2026-04-18T07:55:14.998Z</time></trkpt><trkpt lat="43.537470800842655" lon="10.700617712001037"><ele>56.71428571428571</ele><time>2026-04-18T07:55:15.998Z</time></trkpt><trkpt lat="43.53755763735951" lon="10.700599690909218"><ele>57.0</ele><time>2026-04-18T07:55:16.998Z</time></trkpt><trkpt lat="43.53765415497453" lon="10.70058460348351"><ele>57.0</ele><time>2026-04-18T07:55:17.998Z</time></trkpt><trkpt lat="43.537762993987215" lon="10.70057680831356"><ele>57.0</ele><time>2026-04-18T07:55:18.998Z</time></trkpt><trkpt lat="43.53788725570173" lon="10.700558368126583"><ele>57.0</ele><time>2026-04-18T07:55:19.998Z</time></trkpt><trkpt lat="43.53801352907301" lon="10.700536323721241"><ele>57.0</ele><time>2026-04-18T07:55:20.998Z</time></trkpt><trkpt lat="43.53814910635681" lon="10.700516877705883"><ele>57.0</ele><time>2026-04-18T07:55:21.998Z</time></trkpt><trkpt lat="43.53828996423961" lon="10.700500365356636"><ele>57.0</ele><time>2026-04-18T07:55:22.998Z</time></trkpt><trkpt lat="43.538437318097365" lon="10.700479662055802"><ele>57.0</ele><time>2026-04-18T07:55:23.998Z</time></trkpt><trkpt lat="43.53857788261355" lon="10.700450912127923"><ele>57.0</ele><time>2026-04-18T07:55:24.998Z</time></trkpt><trkpt lat="43.53873705495478" lon="10.700421659285855"><ele>56.66666666666667</ele><time>2026-04-18T07:55:25.998Z</time></trkpt><trkpt lat="43.538896059657944" lon="10.700393747548294"><ele>56.333333333333336</ele><time>2026-04-18T07:55:26.998Z</time></trkpt><trkpt lat="43.539062859531064" lon="10.700367596010398"><ele>56.0</ele><time>2026-04-18T07:55:27.998Z</time></trkpt><trkpt lat="43.539228779304345" lon="10.700342366481852"><ele>56.0</ele><time>2026-04-18T07:55:28.998Z</time></trkpt><trkpt lat="43.539394489530046" lon="10.700328536341619"><ele>56.0</ele><time>2026-04-18T07:55:29.998Z</time></trkpt><trkpt lat="43.539577634114345" lon="10.700326524684858"><ele>56.0</ele><time>2026-04-18T07:55:30.998Z</time></trkpt><trkpt lat="43.53975465990933" lon="10.70032224991424"><ele>56.25</ele><time>2026-04-18T07:55:31.998Z</time></trkpt><trkpt lat="43.53990809064688" lon="10.700309257964324"><ele>56.5</ele><time>2026-04-18T07:55:32.998Z</time></trkpt><trkpt lat="43.54005594741883" lon="10.700294673452806"><ele>56.75</ele><time>2026-04-18T07:55:33.998Z</time></trkpt><trkpt lat="43.540189722593446" lon="10.700277825827431"><ele>57.0</ele><time>2026-04-18T07:55:34.998Z</time></trkpt><trkpt lat="43.54031536732199" lon="10.700263828049135"><ele>57.2</ele><time>2026-04-18T07:55:35.998Z</time></trkpt><trkpt lat="43.54043615054669" lon="10.700245639319252"><ele>57.400000000000006</ele><time>2026-04-18T07:55:36.998Z</time></trkpt><trkpt lat="43.54054230735036" lon="10.700226025665831"><ele>57.599999999999994</ele><time>2026-04-18T07:55:37.998Z</time></trkpt><trkpt lat="43.54062612638207" lon="10.700214626277518"><ele>57.8</ele><time>2026-04-18T07:55:38.998Z</time></trkpt><trkpt lat="43.540700264315625" lon="10.700197359556984"><ele>58.0</ele><time>2026-04-18T07:55:39.998Z</time></trkpt><trkpt lat="43.54079204615535" lon="10.700178751731944"><ele>57.99999999999999</ele><time>2026-04-18T07:55:40.998Z</time></trkpt><trkpt lat="43.5408741049874" lon="10.70016249083979"><ele>58.0</ele><time>2026-04-18T07:55:41.998Z</time></trkpt><trkpt lat="43.54095863648089" lon="10.700144218290877"><ele>58.0</ele><time>2026-04-18T07:55:42.998Z</time></trkpt><trkpt lat="43.54104316797437" lon="10.700136758397054"><ele>58.0</ele><time>2026-04-18T07:55:43.998Z</time></trkpt><trkpt lat="43.541122167411764" lon="10.70011898876233"><ele>57.99999999999999</ele><time>2026-04-18T07:55:44.998Z</time></trkpt><trkpt lat="43.54120942302378" lon="10.700103230784368"><ele>58.0</ele><time>2026-04-18T07:55:45.998Z</time></trkpt><trkpt lat="43.541292026679535" lon="10.700089484463167"><ele>57.666666666666664</ele><time>2026-04-18T07:55:46.998Z</time></trkpt><trkpt lat="43.54135610632928" lon="10.700086466978025"><ele>57.33333333333333</ele><time>2026-04-18T07:55:47.998Z</time></trkpt><trkpt lat="43.54147965558203" lon="10.700143044824433"><ele>57.0</ele><time>2026-04-18T07:55:49.998Z</time></trkpt><trkpt lat="43.541549602564" lon="10.700152600194048"><ele>56.66666666666667</ele><time>2026-04-18T07:55:50.998Z</time></trkpt><trkpt lat="43.541617705527266" lon="10.700179003189039"><ele>56.333333333333336</ele><time>2026-04-18T07:55:51.998Z</time></trkpt><trkpt lat="43.54168962225648" lon="10.700238263244461"><ele>56.0</ele><time>2026-04-18T07:55:52.998Z</time></trkpt><trkpt lat="43.54172239549788" lon="10.70032518358035"><ele>56.0</ele><time>2026-04-18T07:55:53.998Z</time></trkpt><trkpt lat="43.5417568032104" lon="10.700456360364985"><ele>56.0</ele><time>2026-04-18T07:55:54.998Z</time></trkpt><trkpt lat="43.54178387675764" lon="10.700619472200703"><ele>56.0</ele><time>2026-04-18T07:55:55.998Z</time></trkpt><trkpt lat="43.54180177212091" lon="10.700785517702531"><ele>56.0</ele><time>2026-04-18T07:55:56.998Z</time></trkpt><trkpt lat="43.541813087690194" lon="10.700977295647096"><ele>55.5</ele><time>2026-04-18T07:55:57.998Z</time></trkpt><trkpt lat="43.54183136023911" lon="10.701154572899174"><ele>55.0</ele><time>2026-04-18T07:55:58.998Z</time></trkpt><trkpt lat="43.5418540751967" lon="10.701329838494491"><ele>54.5</ele><time>2026-04-18T07:55:59.998Z</time></trkpt><trkpt lat="43.541882070753296" lon="10.701491357768607"><ele>54.0</ele><time>2026-04-18T07:56:00.998Z</time></trkpt><trkpt lat="43.54190922811957" lon="10.701673831800653"><ele>54.0</ele><time>2026-04-18T07:56:01.998Z</time></trkpt><trkpt lat="43.54194112126114" lon="10.701858149851395"><ele>54.0</ele><time>2026-04-18T07:56:02.998Z</time></trkpt><trkpt lat="43.54196337521406" lon="10.702047245586945"><ele>54.0</ele><time>2026-04-18T07:56:03.998Z</time></trkpt><trkpt lat="43.54199015539469" lon="10.702249836186601"><ele>54.0</ele><time>2026-04-18T07:56:04.998Z</time></trkpt><trkpt lat="43.54202380873593" lon="10.702457539747192"><ele>53.66666666666667</ele><time>2026-04-18T07:56:05.998Z</time></trkpt><trkpt lat="43.54204606268885" lon="10.702665746221973"><ele>53.333333333333336</ele><time>2026-04-18T07:56:06.998Z</time></trkpt><trkpt lat="43.54207648899736" lon="10.702871689582897"><ele>53.0</ele><time>2026-04-18T07:56:07.998Z</time></trkpt><trkpt lat="43.54210230525913" lon="10.703076459477378"><ele>52.333333333333336</ele><time>2026-04-18T07:56:08.998Z</time></trkpt><trkpt lat="43.54213407267215" lon="10.703284582133128"><ele>51.66666666666667</ele><time>2026-04-18T07:56:09.998Z</time></trkpt><trkpt lat="43.54216391224744" lon="10.703503685082032"><ele>51.0</ele><time>2026-04-18T07:56:10.998Z</time></trkpt><trkpt lat="43.54219241071822" lon="10.703704264024928"><ele>51.0</ele><time>2026-04-18T07:56:11.998Z</time></trkpt><trkpt lat="43.54221592195662" lon="10.703901406387523"><ele>51.0</ele><time>2026-04-18T07:56:12.998Z</time></trkpt><trkpt lat="43.54224173821839" lon="10.704079521829918"><ele>51.0</ele><time>2026-04-18T07:56:13.998Z</time></trkpt><trkpt lat="43.54226277679535" lon="10.704241963113382"><ele>51.0</ele><time>2026-04-18T07:56:14.998Z</time></trkpt><trkpt lat="43.54228197135361" lon="10.704380767429903"><ele>50.599999999999994</ele><time>2026-04-18T07:56:15.998Z</time></trkpt><trkpt lat="43.542293035465796" lon="10.704535581181482"><ele>50.2</ele><time>2026-04-18T07:56:16.998Z</time></trkpt><trkpt lat="43.54231432549985" lon="10.704662399376467"><ele>49.8</ele><time>2026-04-18T07:56:17.998Z</time></trkpt><trkpt lat="43.542331382672806" lon="10.704796677465275"><ele>49.400000000000006</ele><time>2026-04-18T07:56:18.998Z</time></trkpt><trkpt lat="43.542348481755276" lon="10.704925339678958"><ele>49.0</ele><time>2026-04-18T07:56:19.998Z</time></trkpt><trkpt lat="43.542360216419716" lon="10.705046374360755"><ele>49.0</ele><time>2026-04-18T07:56:20.998Z</time></trkpt><trkpt lat="43.54238418866279" lon="10.705159865329698"><ele>49.0</ele><time>2026-04-18T07:56:21.998Z</time></trkpt><trkpt lat="43.542398563626726" lon="10.705276709059909"><ele>49.0</ele><time>2026-04-18T07:56:22.998Z</time></trkpt><trkpt lat="43.54241666853758" lon="10.705396737913325"><ele>49.0</ele><time>2026-04-18T07:56:23.998Z</time></trkpt><trkpt lat="43.54243158832522" lon="10.705524478117662"><ele>49.0</ele><time>2026-04-18T07:56:24.998Z</time></trkpt><trkpt lat="43.54245120197864" lon="10.705656493092613"><ele>49.2</ele><time>2026-04-18T07:56:25.998Z</time></trkpt><trkpt lat="43.54247412648382" lon="10.705795800323324"><ele>49.400000000000006</ele><time>2026-04-18T07:56:26.998Z</time></trkpt><trkpt lat="43.54249545842739" lon="10.705941896895604"><ele>49.6</ele><time>2026-04-18T07:56:27.998Z</time></trkpt><trkpt lat="43.54251276705744" lon="10.706102577979403"><ele>49.8</ele><time>2026-04-18T07:56:28.998Z</time></trkpt><trkpt lat="43.542531710158606" lon="10.706263929615455"><ele>50.0</ele><time>2026-04-18T07:56:29.998Z</time></trkpt><trkpt lat="43.542556813958605" lon="10.706421090299921"><ele>50.2</ele><time>2026-04-18T07:56:30.998Z</time></trkpt><trkpt lat="43.54258225303473" lon="10.706573054204421"><ele>50.4</ele><time>2026-04-18T07:56:31.998Z</time></trkpt><trkpt lat="43.542598178650756" lon="10.706712026159005"><ele>50.599999999999994</ele><time>2026-04-18T07:56:32.998Z</time></trkpt><trkpt lat="43.54261909149917" lon="10.706852171580033"><ele>50.8</ele><time>2026-04-18T07:56:33.998Z</time></trkpt><trkpt lat="43.542647170874794" lon="10.70699466393395"><ele>51.0</ele><time>2026-04-18T07:56:34.998Z</time></trkpt><trkpt lat="43.54267453778865" lon="10.70712709800406"><ele>50.666666666666664</ele><time>2026-04-18T07:56:35.998Z</time></trkpt><trkpt lat="43.54269624691786" lon="10.707250395799713"><ele>50.33333333333333</ele><time>2026-04-18T07:56:36.998Z</time></trkpt><trkpt lat="43.54271104097696" lon="10.70736648515864"><ele>50.0</ele><time>2026-04-18T07:56:37.998Z</time></trkpt><trkpt lat="43.542729313525875" lon="10.70748710074528"><ele>49.666666666666664</ele><time>2026-04-18T07:56:38.998Z</time></trkpt><trkpt lat="43.54274758607479" lon="10.707605537037093"><ele>49.33333333333333</ele><time>2026-04-18T07:56:39.998Z</time></trkpt><trkpt lat="43.542760368477126" lon="10.70773000829919"><ele>49.0</ele><time>2026-04-18T07:56:40.998Z</time></trkpt><trkpt lat="43.54277834765943" lon="10.707857664684493"><ele>48.75</ele><time>2026-04-18T07:56:41.998Z</time></trkpt><trkpt lat="43.542804289649744" lon="10.707989512021381"><ele>48.5</ele><time>2026-04-18T07:56:42.998Z</time></trkpt><trkpt lat="43.542825747321864" lon="10.708121024082143"><ele>48.25</ele><time>2026-04-18T07:56:43.998Z</time></trkpt><trkpt lat="43.54284582197996" lon="10.70831389167412"><ele>48.0</ele><time>2026-04-18T07:56:44.998Z</time></trkpt><trkpt lat="43.54286857884707" lon="10.70849955082937"><ele>48.25</ele><time>2026-04-18T07:56:45.998Z</time></trkpt><trkpt lat="43.54288961742403" lon="10.708669200549561"><ele>48.5</ele><time>2026-04-18T07:56:46.998Z</time></trkpt><trkpt lat="43.542916690971275" lon="10.708842538307149"><ele>48.75</ele><time>2026-04-18T07:56:47.998Z</time></trkpt><trkpt lat="43.542942800599654" lon="10.709014702598292"><ele>49.0</ele><time>2026-04-18T07:56:48.998Z</time></trkpt><trkpt lat="43.54296153415324" lon="10.709249228249034"><ele>48.666666666666664</ele><time>2026-04-18T07:56:49.998Z</time></trkpt><trkpt lat="43.54299451694222" lon="10.70946548135086"><ele>48.33333333333333</ele><time>2026-04-18T07:56:50.998Z</time></trkpt><trkpt lat="43.54301358577194" lon="10.709713669503769"><ele>48.0</ele><time>2026-04-18T07:56:51.998Z</time></trkpt><trkpt lat="43.543039904947896" lon="10.709954900677046"><ele>48.0</ele><time>2026-04-18T07:56:52.998Z</time></trkpt><trkpt lat="43.54307276200833" lon="10.710208117971858"><ele>48.0</ele><time>2026-04-18T07:56:53.998Z</time></trkpt><trkpt lat="43.54310817554923" lon="10.710459072152814"><ele>48.0</ele><time>2026-04-18T07:56:54.998Z</time></trkpt><trkpt lat="43.543144846375604" lon="10.710708685229262"><ele>47.0</ele><time>2026-04-18T07:56:55.998Z</time></trkpt><trkpt lat="43.543168315704484" lon="10.71093432606264"><ele>46.0</ele><time>2026-04-18T07:56:56.998Z</time></trkpt><trkpt lat="43.54319782000365" lon="10.711169019351445"><ele>45.0</ele><time>2026-04-18T07:56:57.998Z</time></trkpt><trkpt lat="43.543231431435366" lon="10.711414860571466"><ele>44.333333333333336</ele><time>2026-04-18T07:56:58.998Z</time></trkpt><trkpt lat="43.54327522687944" lon="10.711640752861939"><ele>43.66666666666667</ele><time>2026-04-18T07:56:59.998Z</time></trkpt><trkpt lat="43.543300037312825" lon="10.711876451979123"><ele>43.0</ele><time>2026-04-18T07:57:00.998Z</time></trkpt><trkpt lat="43.54333205618294" lon="10.712123718122683"><ele>43.0</ele><time>2026-04-18T07:57:01.998Z</time></trkpt><trkpt lat="43.54336713444771" lon="10.712377019236527"><ele>43.0</ele><time>2026-04-18T07:57:02.998Z</time></trkpt><trkpt lat="43.543404350097795" lon="10.712623531008802"><ele>43.0</ele><time>2026-04-18T07:57:03.998Z</time></trkpt><trkpt lat="43.54343993127676" lon="10.712883537645183"><ele>42.66666666666667</ele><time>2026-04-18T07:57:04.998Z</time></trkpt><trkpt lat="43.543473458889444" lon="10.713141029710615"><ele>42.333333333333336</ele><time>2026-04-18T07:57:05.998Z</time></trkpt><trkpt lat="43.543512602377255" lon="10.713394498462522"><ele>42.0</ele><time>2026-04-18T07:57:06.998Z</time></trkpt><trkpt lat="43.54355250023635" lon="10.713661797354662"><ele>41.666666666666664</ele><time>2026-04-18T07:57:07.998Z</time></trkpt><trkpt lat="43.54359197900029" lon="10.713875954980695"><ele>41.33333333333333</ele><time>2026-04-18T07:57:08.998Z</time></trkpt><trkpt lat="43.543617334257384" lon="10.71409757250055"><ele>41.0</ele><time>2026-04-18T07:57:09.998Z</time></trkpt><trkpt lat="43.54364176750513" lon="10.71429840290054"><ele>42.0</ele><time>2026-04-18T07:57:10.998Z</time></trkpt><trkpt lat="43.54366661984803" lon="10.714472075934255"><ele>43.0</ele><time>2026-04-18T07:57:11.998Z</time></trkpt><trkpt lat="43.543691639829" lon="10.71459545754894"><ele>44.0</ele><time>2026-04-18T07:57:12.998Z</time></trkpt><trkpt lat="43.54370769117357" lon="10.714690508330905"><ele>45.0</ele><time>2026-04-18T07:57:13.998Z</time></trkpt><trkpt lat="43.54370840363534" lon="10.714833168322885"><ele>46.0</ele><time>2026-04-18T07:57:15.998Z</time></trkpt><trkpt lat="43.54375626430245" lon="10.714904833595002"><ele>46.0</ele><time>2026-04-18T08:04:52.999Z</time></trkpt><trkpt lat="43.5437910072911" lon="10.714996447796668"><ele>46.0</ele><time>2026-04-18T08:04:54.999Z</time></trkpt><trkpt lat="43.54375940751614" lon="10.715096862996663"><ele>46.0</ele><time>2026-04-18T08:04:56.999Z</time></trkpt><trkpt lat="43.5436744569275" lon="10.715019414211358"><ele>46.0</ele><time>2026-04-18T08:04:58.999Z</time></trkpt><trkpt lat="43.543632086406966" lon="10.71486954578265"><ele>46.0</ele><time>2026-04-18T08:05:00.999Z</time></trkpt><trkpt lat="43.54360111527475" lon="10.714759323755944"><ele>46.0</ele><time>2026-04-18T08:05:01.999Z</time></trkpt><trkpt lat="43.54357089851381" lon="10.714636780331576"><ele>46.0</ele><time>2026-04-18T08:05:02.999Z</time></trkpt><trkpt lat="43.54353766426774" lon="10.714519349868143"><ele>46.0</ele><time>2026-04-18T08:05:03.999Z</time></trkpt><trkpt lat="43.54349990379395" lon="10.714401751766646"><ele>46.0</ele><time>2026-04-18T08:05:04.999Z</time></trkpt><trkpt lat="43.543466585728844" lon="10.7142763584952"><ele>46.0</ele><time>2026-04-18T08:05:05.999Z</time></trkpt><trkpt lat="43.54341725822868" lon="10.714184744293535"><ele>45.16666666666667</ele><time>2026-04-18T08:05:06.999Z</time></trkpt><trkpt lat="43.54336038701566" lon="10.71410972626015"><ele>44.333333333333336</ele><time>2026-04-18T08:05:07.999Z</time></trkpt><trkpt lat="43.543305108364244" lon="10.714045101786697"><ele>43.5</ele><time>2026-04-18T08:05:08.999Z</time></trkpt><trkpt lat="43.54324190881433" lon="10.71400956251725"><ele>42.666666666666664</ele><time>2026-04-18T08:05:09.999Z</time></trkpt><trkpt lat="43.543155449483116" lon="10.714002102623427"><ele>41.83333333333333</ele><time>2026-04-18T08:05:10.999Z</time></trkpt><trkpt lat="43.54306081779631" lon="10.714006796489203"><ele>41.0</ele><time>2026-04-18T08:05:11.999Z</time></trkpt><trkpt lat="43.54296719193788" lon="10.714007215584362"><ele>41.0</ele><time>2026-04-18T08:05:12.999Z</time></trkpt><trkpt lat="43.54285692800166" lon="10.714010652164662"><ele>41.0</ele><time>2026-04-18T08:05:13.999Z</time></trkpt><trkpt lat="43.54272478729816" lon="10.714016100401723"><ele>41.0</ele><time>2026-04-18T08:05:14.999Z</time></trkpt><trkpt lat="43.54259390388014" lon="10.714012747640455"><ele>41.0</ele><time>2026-04-18T08:05:15.999Z</time></trkpt><trkpt lat="43.542459793429394" lon="10.714024482304895"><ele>41.0</ele><time>2026-04-18T08:05:16.999Z</time></trkpt><trkpt lat="43.54231294248583" lon="10.714046778167331"><ele>41.0</ele><time>2026-04-18T08:05:17.999Z</time></trkpt><trkpt lat="43.542158086824735" lon="10.714063122878516"><ele>41.0</ele><time>2026-04-18T08:05:18.999Z</time></trkpt><trkpt lat="43.54203897998067" lon="10.714092375720584"><ele>41.0</ele><time>2026-04-18T08:05:19.999Z</time></trkpt><trkpt lat="43.54191706519904" lon="10.714133279408061"><ele>40.75</ele><time>2026-04-18T08:05:20.999Z</time></trkpt><trkpt lat="43.54180009574028" lon="10.714171249429429"><ele>40.5</ele><time>2026-04-18T08:05:21.999Z</time></trkpt><trkpt lat="43.54169041853728" lon="10.71421039291724"><ele>40.25</ele><time>2026-04-18T08:05:22.999Z</time></trkpt><trkpt lat="43.54157089259805" lon="10.714263282726252"><ele>40.0</ele><time>2026-04-18T08:05:23.999Z</time></trkpt><trkpt lat="43.54144235611292" lon="10.714299408728921"><ele>40.0</ele><time>2026-04-18T08:05:24.999Z</time></trkpt><trkpt lat="43.54132115379306" lon="10.71436721832558"><ele>40.0</ele><time>2026-04-18T08:05:25.999Z</time></trkpt><trkpt lat="43.54120787237169" lon="10.714410971860135"><ele>40.0</ele><time>2026-04-18T08:05:26.999Z</time></trkpt><trkpt lat="43.541098069440146" lon="10.714450031528914"><ele>40.0</ele><time>2026-04-18T08:05:27.999Z</time></trkpt><trkpt lat="43.5409890627894" lon="10.71448456496998"><ele>41.5</ele><time>2026-04-18T08:05:28.999Z</time></trkpt><trkpt lat="43.54087678719642" lon="10.714501915509546"><ele>43.0</ele><time>2026-04-18T08:05:29.999Z</time></trkpt><trkpt lat="43.54075374085786" lon="10.714512811983669"><ele>44.5</ele><time>2026-04-18T08:05:30.999Z</time></trkpt><trkpt lat="43.540616990107615" lon="10.714516416202033"><ele>46.0</ele><time>2026-04-18T08:05:31.999Z</time></trkpt><trkpt lat="43.540480616543014" lon="10.7145422324638"><ele>47.199999999999996</ele><time>2026-04-18T08:05:32.999Z</time></trkpt><trkpt lat="43.540372448082586" lon="10.714545249948943"><ele>48.4</ele><time>2026-04-18T08:05:33.999Z</time></trkpt><trkpt lat="43.540270985144694" lon="10.714554553861463"><ele>49.6</ele><time>2026-04-18T08:05:34.999Z</time></trkpt><trkpt lat="43.5401853640038" lon="10.714550446728909"><ele>50.8</ele><time>2026-04-18T08:05:35.999Z</time></trkpt><trkpt lat="43.54007656690063" lon="10.714545501406038"><ele>52.0</ele><time>2026-04-18T08:05:36.999Z</time></trkpt><trkpt lat="43.53998256385656" lon="10.714540807540262"><ele>52.0</ele><time>2026-04-18T08:05:37.999Z</time></trkpt><trkpt lat="43.539850297424515" lon="10.714508118117893"><ele>52.0</ele><time>2026-04-18T08:05:39.999Z</time></trkpt><trkpt lat="43.53977850642385" lon="10.714498478929245"><ele>52.0</ele><time>2026-04-18T08:05:40.999Z</time></trkpt><trkpt lat="43.53903103850659" lon="10.714378139493476"><ele>51.75</ele><time>2026-04-18T08:05:52.899Z</time></trkpt><trkpt lat="43.538961773778816" lon="10.714617334316218"><ele>51.5</ele><time>2026-04-18T08:05:54.876Z</time></trkpt><trkpt lat="43.53894668635311" lon="10.714528653780663"><ele>51.25</ele><time>2026-04-18T08:05:55.464Z</time></trkpt><trkpt lat="43.5389540624279" lon="10.714399740109885"><ele>51.0</ele><time>2026-04-18T08:05:56.462Z</time></trkpt><trkpt lat="43.5388956824723" lon="10.71423243732258"><ele>49.4</ele><time>2026-04-18T08:05:58.462Z</time></trkpt><trkpt lat="43.538781520951105" lon="10.714140404025757"><ele>47.8</ele><time>2026-04-18T08:05:59.465Z</time></trkpt><trkpt lat="43.538690451573146" lon="10.714071001867497"><ele>46.199999999999996</ele><time>2026-04-18T08:06:00.458Z</time></trkpt><trkpt lat="43.538630769497175" lon="10.71400827918951"><ele>44.599999999999994</ele><time>2026-04-18T08:06:01.461Z</time></trkpt><trkpt lat="43.53857602767084" lon="10.71394917448986"><ele>43.0</ele><time>2026-04-18T08:06:02.467Z</time></trkpt><trkpt lat="43.53851271214512" lon="10.713873241167244"><ele>43.0</ele><time>2026-04-18T08:06:04.053Z</time></trkpt><trkpt lat="43.5384276620435" lon="10.71376774290041"><ele>43.0</ele><time>2026-04-18T08:06:06.071Z</time></trkpt><trkpt lat="43.53834435459597" lon="10.713657201932396"><ele>43.0</ele><time>2026-04-18T08:06:08.076Z</time></trkpt><trkpt lat="43.53829757590725" lon="10.713545041713573"><ele>43.0</ele><time>2026-04-18T08:06:10.076Z</time></trkpt><trkpt lat="43.538294598672294" lon="10.713409136706545"><ele>43.0</ele><time>2026-04-18T08:06:12.072Z</time></trkpt><trkpt lat="43.53833944083264" lon="10.71326494017768"><ele>42.833333333333336</ele><time>2026-04-18T08:06:14.075Z</time></trkpt><trkpt lat="43.538335047970676" lon="10.713145304481232"><ele>42.66666666666667</ele><time>2026-04-18T08:06:16.069Z</time></trkpt><trkpt lat="43.53827531399082" lon="10.71308482301304"><ele>42.5</ele><time>2026-04-18T08:06:18.074Z</time></trkpt><trkpt lat="43.538162216970846" lon="10.713065209233529"><ele>42.333333333333336</ele><time>2026-04-18T08:06:19.063Z</time></trkpt><trkpt lat="43.538095094651005" lon="10.713010149390286"><ele>42.166666666666664</ele><time>2026-04-18T08:06:20.061Z</time></trkpt><trkpt lat="43.538042237091375" lon="10.712930979217134"><ele>42.0</ele><time>2026-04-18T08:06:21.049Z</time></trkpt><trkpt lat="43.53796981744797" lon="10.71286090650662"><ele>42.0</ele><time>2026-04-18T08:06:22.084Z</time></trkpt><trkpt lat="43.53790188212277" lon="10.71275437251731"><ele>42.0</ele><time>2026-04-18T08:06:23.057Z</time></trkpt><trkpt lat="43.53782413997085" lon="10.712663680324994"><ele>42.0</ele><time>2026-04-18T08:06:24.054Z</time></trkpt><trkpt lat="43.53772276085199" lon="10.71257550270363"><ele>42.0</ele><time>2026-04-18T08:06:25.074Z</time></trkpt><trkpt lat="43.53760327682228" lon="10.712465280676923"><ele>42.0</ele><time>2026-04-18T08:06:26.054Z</time></trkpt><trkpt lat="43.53745474949808" lon="10.712304683412157"><ele>42.0</ele><time>2026-04-18T08:06:27.046Z</time></trkpt><trkpt lat="43.537316322367204" lon="10.712169902409158"><ele>42.0</ele><time>2026-04-18T08:06:28.057Z</time></trkpt><trkpt lat="43.537214943248344" lon="10.712040066729031"><ele>42.0</ele><time>2026-04-18T08:06:29.084Z</time></trkpt><trkpt lat="43.53710560132147" lon="10.711948284889303"><ele>42.0</ele><time>2026-04-18T08:06:30.103Z</time></trkpt><trkpt lat="43.5369962593946" lon="10.711836135024868"><ele>42.0</ele><time>2026-04-18T08:06:31.064Z</time></trkpt><trkpt lat="43.53689965796055" lon="10.711833117539726"><ele>42.0</ele><time>2026-04-18T08:06:32.069Z</time></trkpt><trkpt lat="43.536787256639016" lon="10.711759608248911"><ele>42.0</ele><time>2026-04-18T08:06:33.081Z</time></trkpt><trkpt lat="43.536663539748204" lon="10.711678639064274"><ele>42.0</ele><time>2026-04-18T08:06:34.065Z</time></trkpt><trkpt lat="43.53653014175923" lon="10.711660031239234"><ele>42.0</ele><time>2026-04-18T08:06:35.054Z</time></trkpt><trkpt lat="43.536401353817" lon="10.711634382615529"><ele>42.0</ele><time>2026-04-18T08:06:36.059Z</time></trkpt><trkpt lat="43.53629410736592" lon="10.711635639901004"><ele>41.8</ele><time>2026-04-18T08:06:37.094Z</time></trkpt><trkpt lat="43.53618924975724" lon="10.71162465960785"><ele>41.6</ele><time>2026-04-18T08:06:38.077Z</time></trkpt><trkpt lat="43.53607219647945" lon="10.711614601324044"><ele>41.4</ele><time>2026-04-18T08:06:39.088Z</time></trkpt><trkpt lat="43.53599227503271" lon="10.71160269902154"><ele>41.199999999999996</ele><time>2026-04-18T08:06:40.076Z</time></trkpt><trkpt lat="43.53589533832253" lon="10.711591131995164"><ele>41.0</ele><time>2026-04-18T08:06:41.076Z</time></trkpt><trkpt lat="43.535804855677796" lon="10.711565986285649"><ele>41.0</ele><time>2026-04-18T08:06:42.063Z</time></trkpt><trkpt lat="43.535705613944245" lon="10.711538409824215"><ele>41.0</ele><time>2026-04-18T08:06:43.076Z</time></trkpt><trkpt lat="43.53561261672856" lon="10.711495997394167"><ele>41.0</ele><time>2026-04-18T08:06:44.067Z</time></trkpt><trkpt lat="43.535510357509864" lon="10.711443610499344"><ele>41.0</ele><time>2026-04-18T08:06:45.052Z</time></trkpt><trkpt lat="43.53542268280269" lon="10.711399018774472"><ele>41.0</ele><time>2026-04-18T08:06:46.086Z</time></trkpt><trkpt lat="43.535325201268805" lon="10.71135937237247"><ele>41.166666666666664</ele><time>2026-04-18T08:06:47.093Z</time></trkpt><trkpt lat="43.53523027621539" lon="10.7113198097895"><ele>41.33333333333333</ele><time>2026-04-18T08:06:48.048Z</time></trkpt><trkpt lat="43.535145996179" lon="10.711273122588835"><ele>41.5</ele><time>2026-04-18T08:06:49.071Z</time></trkpt><trkpt lat="43.53505811192424" lon="10.711221238608204"><ele>41.666666666666664</ele><time>2026-04-18T08:06:50.077Z</time></trkpt><trkpt lat="43.534975340630425" lon="10.711192907775484"><ele>41.833333333333336</ele><time>2026-04-18T08:06:51.073Z</time></trkpt><trkpt lat="43.5349128954518" lon="10.711173713217221"><ele>42.0</ele><time>2026-04-18T08:06:52.063Z</time></trkpt><trkpt lat="43.53484567258836" lon="10.711137419576486"><ele>42.0</ele><time>2026-04-18T08:06:53.054Z</time></trkpt><trkpt lat="43.53478020992459" lon="10.711100203926405"><ele>42.0</ele><time>2026-04-18T08:06:54.064Z</time></trkpt><trkpt lat="43.5347210336882" lon="10.711069526160797"><ele>42.0</ele><time>2026-04-18T08:06:55.071Z</time></trkpt><trkpt lat="43.53461952884079" lon="10.710955699915727"><ele>42.0</ele><time>2026-04-18T08:06:57.053Z</time></trkpt><trkpt lat="43.534532692323936" lon="10.710912281657299"><ele>42.0</ele><time>2026-04-18T08:06:58.053Z</time></trkpt><trkpt lat="43.53446882222177" lon="10.71086986922725"><ele>42.0</ele><time>2026-04-18T08:06:59.049Z</time></trkpt><trkpt lat="43.53436735928388" lon="10.7108258642356"><ele>42.0</ele><time>2026-04-18T08:07:01.056Z</time></trkpt><trkpt lat="43.534277044277204" lon="10.71087716148301"><ele>42.0</ele><time>2026-04-18T08:07:03.077Z</time></trkpt><trkpt lat="43.534200349863184" lon="10.710961064333757"><ele>42.0</ele><time>2026-04-18T08:07:05.072Z</time></trkpt><trkpt lat="43.53419260080648" lon="10.711076836442361"><ele>42.0</ele><time>2026-04-18T08:07:06.073Z</time></trkpt><trkpt lat="43.53416705552408" lon="10.711189254624284"><ele>42.0</ele><time>2026-04-18T08:07:07.069Z</time></trkpt><trkpt lat="43.53414044002953" lon="10.711286569386182"><ele>42.0</ele><time>2026-04-18T08:07:08.059Z</time></trkpt><trkpt lat="43.534111152254575" lon="10.711386550933852"><ele>41.8</ele><time>2026-04-18T08:07:09.058Z</time></trkpt><trkpt lat="43.534060707356346" lon="10.711481915796838"><ele>41.6</ele><time>2026-04-18T08:07:10.081Z</time></trkpt><trkpt lat="43.53402852084817" lon="10.711637148643575"><ele>41.4</ele><time>2026-04-18T08:07:12.079Z</time></trkpt><trkpt lat="43.53395291608156" lon="10.711696241060935"><ele>41.199999999999996</ele><time>2026-04-18T08:07:14.048Z</time></trkpt><trkpt lat="43.5338790296051" lon="10.71170772426828"><ele>41.0</ele><time>2026-04-18T08:07:15.068Z</time></trkpt><trkpt lat="43.533782889175725" lon="10.711719878027878"><ele>41.666666666666664</ele><time>2026-04-18T08:07:16.055Z</time></trkpt><trkpt lat="43.53365699299009" lon="10.711762625734053"><ele>42.333333333333336</ele><time>2026-04-18T08:07:17.065Z</time></trkpt><trkpt lat="43.53349937130095" lon="10.711826747293316"><ele>43.0</ele><time>2026-04-18T08:07:18.072Z</time></trkpt><trkpt lat="43.533330643590105" lon="10.711888438100658"><ele>43.333333333333336</ele><time>2026-04-18T08:07:19.057Z</time></trkpt><trkpt lat="43.53316656783552" lon="10.711955577145062"><ele>43.666666666666664</ele><time>2026-04-18T08:07:20.084Z</time></trkpt><trkpt lat="43.53301938161583" lon="10.71201852523788"><ele>44.0</ele><time>2026-04-18T08:07:21.076Z</time></trkpt><trkpt lat="43.53288736664088" lon="10.712072337056242"><ele>44.0</ele><time>2026-04-18T08:07:22.066Z</time></trkpt><trkpt lat="43.532766709144724" lon="10.712117264057241"><ele>44.0</ele><time>2026-04-18T08:07:23.071Z</time></trkpt><trkpt lat="43.532654182094646" lon="10.712158670658908"><ele>44.0</ele><time>2026-04-18T08:07:24.054Z</time></trkpt><trkpt lat="43.53253092620851" lon="10.712200077260576"><ele>44.0</ele><time>2026-04-18T08:07:25.06Z</time></trkpt><trkpt lat="43.53241416629733" lon="10.712246513004146"><ele>44.0</ele><time>2026-04-18T08:07:26.079Z</time></trkpt><trkpt lat="43.53229862176211" lon="10.712300241003476"><ele>44.0</ele><time>2026-04-18T08:07:27.068Z</time></trkpt><trkpt lat="43.5321841668743" lon="10.712351705888949"><ele>44.0</ele><time>2026-04-18T08:07:28.091Z</time></trkpt><trkpt lat="43.532063635106695" lon="10.712401745850883"><ele>44.0</ele><time>2026-04-18T08:07:29.076Z</time></trkpt><trkpt lat="43.53194532454343" lon="10.712450528527341"><ele>43.5</ele><time>2026-04-18T08:07:30.079Z</time></trkpt><trkpt lat="43.53184189185829" lon="10.71249637753769"><ele>43.0</ele><time>2026-04-18T08:07:31.072Z</time></trkpt><trkpt lat="43.53173326239319" lon="10.712543232376419"><ele>42.5</ele><time>2026-04-18T08:07:32.058Z</time></trkpt><trkpt lat="43.53162060961456" lon="10.712588829929672"><ele>42.0</ele><time>2026-04-18T08:07:33.052Z</time></trkpt><trkpt lat="43.5315004550326" lon="10.712636020044528"><ele>42.0</ele><time>2026-04-18T08:07:34.05Z</time></trkpt><trkpt lat="43.53140087802292" lon="10.712677342827163"><ele>42.0</ele><time>2026-04-18T08:07:35.08Z</time></trkpt><trkpt lat="43.53129648141892" lon="10.712719755257211"><ele>42.0</ele><time>2026-04-18T08:07:36.08Z</time></trkpt><trkpt lat="43.53119560521424" lon="10.712757138545356"><ele>42.0</ele><time>2026-04-18T08:07:37.069Z</time></trkpt><trkpt lat="43.53110558357418" lon="10.712800053889595"><ele>42.0</ele><time>2026-04-18T08:07:38.082Z</time></trkpt><trkpt lat="43.53100898214013" lon="10.712835257882915"><ele>42.25</ele><time>2026-04-18T08:07:39.074Z</time></trkpt><trkpt lat="43.53090676483095" lon="10.71287607775136"><ele>42.5</ele><time>2026-04-18T08:07:40.071Z</time></trkpt><trkpt lat="43.53078950200558" lon="10.71292494424685"><ele>42.75</ele><time>2026-04-18T08:07:41.075Z</time></trkpt><trkpt lat="43.53065610401661" lon="10.712977834055863"><ele>43.0</ele><time>2026-04-18T08:07:42.075Z</time></trkpt><trkpt lat="43.53052706461728" lon="10.713022928694926"><ele>43.0</ele><time>2026-04-18T08:07:43.092Z</time></trkpt><trkpt lat="43.53040322199792" lon="10.713073974485242"><ele>43.0</ele><time>2026-04-18T08:07:44.07Z</time></trkpt><trkpt lat="43.53028579153449" lon="10.713120074952686"><ele>43.0</ele><time>2026-04-18T08:07:45.088Z</time></trkpt><trkpt lat="43.530163415748184" lon="10.71316475049659"><ele>43.0</ele><time>2026-04-18T08:07:46.071Z</time></trkpt><trkpt lat="43.53003458589644" lon="10.713204983631814"><ele>43.333333333333336</ele><time>2026-04-18T08:07:47.051Z</time></trkpt><trkpt lat="43.529892554547196" lon="10.713255694146001"><ele>43.666666666666664</ele><time>2026-04-18T08:07:48.049Z</time></trkpt><trkpt lat="43.529749098274415" lon="10.713315540934646"><ele>44.0</ele><time>2026-04-18T08:07:49.047Z</time></trkpt><trkpt lat="43.52960090622634" lon="10.71337580681845"><ele>44.25</ele><time>2026-04-18T08:07:50.05Z</time></trkpt><trkpt lat="43.52946109608144" lon="10.713432803760016"><ele>44.5</ele><time>2026-04-18T08:07:51.051Z</time></trkpt><trkpt lat="43.52931977719397" lon="10.713478149856174"><ele>44.75</ele><time>2026-04-18T08:07:52.049Z</time></trkpt><trkpt lat="43.529212363104826" lon="10.71351603605851"><ele>45.0</ele><time>2026-04-18T08:07:53.049Z</time></trkpt><trkpt lat="43.529119491617685" lon="10.713557945574367"><ele>45.0</ele><time>2026-04-18T08:07:54.049Z</time></trkpt><trkpt lat="43.52904698815525" lon="10.713598430166686"><ele>45.0</ele><time>2026-04-18T08:07:55.05Z</time></trkpt><trkpt lat="43.528960445005005" lon="10.71363824420675"><ele>45.0</ele><time>2026-04-18T08:07:56.051Z</time></trkpt><trkpt lat="43.52886388548047" lon="10.713675208399737"><ele>45.0</ele><time>2026-04-18T08:07:57.049Z</time></trkpt><trkpt lat="43.52875399872989" lon="10.713722566152656"><ele>45.0</ele><time>2026-04-18T08:07:58.058Z</time></trkpt><trkpt lat="43.52864780001671" lon="10.713771767924273"><ele>45.0</ele><time>2026-04-18T08:07:59.087Z</time></trkpt><trkpt lat="43.528528022620385" lon="10.713822310800397"><ele>45.0</ele><time>2026-04-18T08:08:00.069Z</time></trkpt><trkpt lat="43.528418554964965" lon="10.713866483430111"><ele>45.0</ele><time>2026-04-18T08:08:01.086Z</time></trkpt><trkpt lat="43.5282933712411" lon="10.713903866718256"><ele>45.0</ele><time>2026-04-18T08:08:02.047Z</time></trkpt><trkpt lat="43.52817631796331" lon="10.713955750698888"><ele>45.0</ele><time>2026-04-18T08:08:03.08Z</time></trkpt><trkpt lat="43.528032358776336" lon="10.714008053774679"><ele>45.0</ele><time>2026-04-18T08:08:04.053Z</time></trkpt><trkpt lat="43.527864930260485" lon="10.71408382617935"><ele>45.0</ele><time>2026-04-18T08:08:05.072Z</time></trkpt><trkpt lat="43.527668248902565" lon="10.714148450652802"><ele>45.0</ele><time>2026-04-18T08:08:06.069Z</time></trkpt><trkpt lat="43.52747475266785" lon="10.714228665466154"><ele>45.0</ele><time>2026-04-18T08:08:07.054Z</time></trkpt><trkpt lat="43.52728356145651" lon="10.714304018775666"><ele>45.0</ele><time>2026-04-18T08:08:08.046Z</time></trkpt><trkpt lat="43.52710817013264" lon="10.714375935504878"><ele>46.75</ele><time>2026-04-18T08:08:09.061Z</time></trkpt><trkpt lat="43.526962241198426" lon="10.714443158368313"><ele>48.5</ele><time>2026-04-18T08:08:10.075Z</time></trkpt><trkpt lat="43.52681966502548" lon="10.714503843347275"><ele>50.25</ele><time>2026-04-18T08:08:11.08Z</time></trkpt><trkpt lat="43.52668509357006" lon="10.714554302404368"><ele>52.0</ele><time>2026-04-18T08:08:12.084Z</time></trkpt><trkpt lat="43.52657105777741" lon="10.714630493904197"><ele>52.0</ele><time>2026-04-18T08:08:13.051Z</time></trkpt><trkpt lat="43.526430283713644" lon="10.714685143912876"><ele>52.0</ele><time>2026-04-18T08:08:14.048Z</time></trkpt><trkpt lat="43.52628988683552" lon="10.714741470302188"><ele>52.0</ele><time>2026-04-18T08:08:15.048Z</time></trkpt><trkpt lat="43.52614504754872" lon="10.714796455586994"><ele>52.0</ele><time>2026-04-18T08:08:16.059Z</time></trkpt><trkpt lat="43.52600347720415" lon="10.71484708228215"><ele>50.5</ele><time>2026-04-18T08:08:17.048Z</time></trkpt><trkpt lat="43.52585821882219" lon="10.714903408671463"><ele>49.0</ele><time>2026-04-18T08:08:18.071Z</time></trkpt><trkpt lat="43.52572008505792" lon="10.714958393956268"><ele>47.5</ele><time>2026-04-18T08:08:19.076Z</time></trkpt><trkpt lat="43.52560412142754" lon="10.715018240744914"><ele>46.0</ele><time>2026-04-18T08:08:20.075Z</time></trkpt><trkpt lat="43.525469633791154" lon="10.715065095583643"><ele>45.5</ele><time>2026-04-18T08:08:21.055Z</time></trkpt><trkpt lat="43.52532923691303" lon="10.715115219364609"><ele>45.0</ele><time>2026-04-18T08:08:22.064Z</time></trkpt><trkpt lat="43.525212854187494" lon="10.715164924050416"><ele>44.5</ele><time>2026-04-18T08:08:23.053Z</time></trkpt><trkpt lat="43.52509592663825" lon="10.715199373672451"><ele>44.0</ele><time>2026-04-18T08:08:24.055Z</time></trkpt><trkpt lat="43.52501713674844" lon="10.715250838557925"><ele>44.666666666666664</ele><time>2026-04-18T08:08:25.067Z</time></trkpt><trkpt lat="43.524921457323735" lon="10.715278079743232"><ele>45.33333333333333</ele><time>2026-04-18T08:08:26.05Z</time></trkpt><trkpt lat="43.524837680201536" lon="10.715302135805334"><ele>46.0</ele><time>2026-04-18T08:08:27.051Z</time></trkpt><trkpt lat="43.52476350035847" lon="10.715340105826701"><ele>46.666666666666664</ele><time>2026-04-18T08:08:28.052Z</time></trkpt><trkpt lat="43.524701474275" lon="10.71540162899598"><ele>47.333333333333336</ele><time>2026-04-18T08:08:29.069Z</time></trkpt><trkpt lat="43.524640915024584" lon="10.71547538974389"><ele>48.0</ele><time>2026-04-18T08:08:30.054Z</time></trkpt><trkpt lat="43.524583540897375" lon="10.715551329786624"><ele>48.0</ele><time>2026-04-18T08:08:31.055Z</time></trkpt><trkpt lat="43.52456992030472" lon="10.715777054439034"><ele>48.0</ele><time>2026-04-18T08:08:32.058Z</time></trkpt><trkpt lat="43.52455751508803" lon="10.715955421338524"><ele>48.0</ele><time>2026-04-18T08:08:33.052Z</time></trkpt><trkpt lat="43.524548839818245" lon="10.716123646135177"><ele>48.0</ele><time>2026-04-18T08:08:34.048Z</time></trkpt><trkpt lat="43.52454561278552" lon="10.716287679980244"><ele>47.0</ele><time>2026-04-18T08:08:35.051Z</time></trkpt><trkpt lat="43.524534758220916" lon="10.716446600864376"><ele>46.0</ele><time>2026-04-18T08:08:36.048Z</time></trkpt><trkpt lat="43.524510995525425" lon="10.716604683558192"><ele>45.0</ele><time>2026-04-18T08:08:37.048Z</time></trkpt><trkpt lat="43.52445165165097" lon="10.716796377683725"><ele>44.0</ele><time>2026-04-18T08:08:38.054Z</time></trkpt><trkpt lat="43.52441980041892" lon="10.716961752633301"><ele>44.0</ele><time>2026-04-18T08:08:39.049Z</time></trkpt><trkpt lat="43.524366323876684" lon="10.717129642153827"><ele>44.0</ele><time>2026-04-18T08:08:40.055Z</time></trkpt><trkpt lat="43.524322193156486" lon="10.717269619936792"><ele>44.0</ele><time>2026-04-18T08:08:41.077Z</time></trkpt><trkpt lat="43.524266872595554" lon="10.71740590968236"><ele>44.0</ele><time>2026-04-18T08:08:42.049Z</time></trkpt><trkpt lat="43.52422948930741" lon="10.717527614916412"><ele>44.0</ele><time>2026-04-18T08:08:43.049Z</time></trkpt><trkpt lat="43.5241929861191" lon="10.717654852206556"><ele>44.0</ele><time>2026-04-18T08:08:44.052Z</time></trkpt><trkpt lat="43.524157279211586" lon="10.717777647088019"><ele>44.0</ele><time>2026-04-18T08:08:45.053Z</time></trkpt><trkpt lat="43.52412655953646" lon="10.717893652627913"><ele>44.0</ele><time>2026-04-18T08:08:46.049Z</time></trkpt><trkpt lat="43.524097600061005" lon="10.718015106404868"><ele>44.0</ele><time>2026-04-18T08:08:47.049Z</time></trkpt><trkpt lat="43.524072705808585" lon="10.718134297067968"><ele>44.6</ele><time>2026-04-18T08:08:48.05Z</time></trkpt><trkpt lat="43.52404546462328" lon="10.718266144404856"><ele>45.2</ele><time>2026-04-18T08:08:49.043Z</time></trkpt><trkpt lat="43.524017971980875" lon="10.718404948721377"><ele>45.800000000000004</ele><time>2026-04-18T08:08:50.048Z</time></trkpt><trkpt lat="43.52398729421527" lon="10.71854484268531"><ele>46.400000000000006</ele><time>2026-04-18T08:08:51.05Z</time></trkpt><trkpt lat="43.52395188067437" lon="10.718681132430879"><ele>47.0</ele><time>2026-04-18T08:08:52.048Z</time></trkpt><trkpt lat="43.52391378492445" lon="10.71881842800483"><ele>47.2</ele><time>2026-04-18T08:08:53.054Z</time></trkpt><trkpt lat="43.5238681873712" lon="10.71894105524823"><ele>47.400000000000006</ele><time>2026-04-18T08:08:54.049Z</time></trkpt><trkpt lat="43.52382124871344" lon="10.719069382185786"><ele>47.599999999999994</ele><time>2026-04-18T08:08:55.048Z</time></trkpt><trkpt lat="43.5237860028106" lon="10.719212880368083"><ele>47.8</ele><time>2026-04-18T08:08:56.051Z</time></trkpt><trkpt lat="43.52375951599658" lon="10.71936031804487"><ele>48.0</ele><time>2026-04-18T08:08:57.049Z</time></trkpt><trkpt lat="43.52372716185034" lon="10.719482358555048"><ele>47.25</ele><time>2026-04-18T08:08:58.086Z</time></trkpt><trkpt lat="43.52368822791011" lon="10.719611775140017"><ele>46.5</ele><time>2026-04-18T08:08:59.05Z</time></trkpt><trkpt lat="43.52364074442863" lon="10.719746220866888"><ele>45.75</ele><time>2026-04-18T08:09:00.051Z</time></trkpt><trkpt lat="43.52358269974917" lon="10.719897514219134"><ele>45.0</ele><time>2026-04-18T08:09:01.05Z</time></trkpt><trkpt lat="43.523519919294415" lon="10.720057692388743"><ele>45.0</ele><time>2026-04-18T08:09:02.048Z</time></trkpt><trkpt lat="43.52345755793482" lon="10.72020906956002"><ele>45.0</ele><time>2026-04-18T08:09:03.051Z</time></trkpt><trkpt lat="43.52339662149876" lon="10.720362290749996"><ele>45.0</ele><time>2026-04-18T08:09:04.05Z</time></trkpt><trkpt lat="43.523344276513455" lon="10.720517020682543"><ele>45.0</ele><time>2026-04-18T08:09:05.057Z</time></trkpt><trkpt lat="43.52330618076354" lon="10.720705613503904"><ele>45.25</ele><time>2026-04-18T08:09:06.057Z</time></trkpt><trkpt lat="43.52326439697623" lon="10.720883645127268"><ele>45.5</ele><time>2026-04-18T08:09:07.048Z</time></trkpt><trkpt lat="43.52322764233082" lon="10.721051618466825"><ele>45.75</ele><time>2026-04-18T08:09:08.059Z</time></trkpt><trkpt lat="43.523188079747854" lon="10.721213221559973"><ele>46.0</ele><time>2026-04-18T08:09:09.08Z</time></trkpt><trkpt lat="43.52313544139594" lon="10.721357055018396"><ele>46.0</ele><time>2026-04-18T08:09:10.09Z</time></trkpt><trkpt lat="43.52307785772115" lon="10.721498206267805"><ele>46.0</ele><time>2026-04-18T08:09:11.075Z</time></trkpt><trkpt lat="43.52302060932249" lon="10.721626030291171"><ele>46.0</ele><time>2026-04-18T08:09:12.092Z</time></trkpt><trkpt lat="43.522974089759884" lon="10.721711693341584"><ele>46.0</ele><time>2026-04-18T08:09:13.072Z</time></trkpt><trkpt lat="43.522912859957216" lon="10.721817640597672"><ele>46.0</ele><time>2026-04-18T08:09:14.081Z</time></trkpt><trkpt lat="43.52283348333418" lon="10.721930628652425"><ele>46.8</ele><time>2026-04-18T08:09:15.073Z</time></trkpt><trkpt lat="43.52277200207442" lon="10.722036492089481"><ele>47.599999999999994</ele><time>2026-04-18T08:09:16.061Z</time></trkpt><trkpt lat="43.52271969899863" lon="10.722133805985303"><ele>48.4</ele><time>2026-04-18T08:09:17.057Z</time></trkpt><trkpt lat="43.52266102567643" lon="10.722218127931209"><ele>49.2</ele><time>2026-04-18T08:09:18.051Z</time></trkpt><trkpt lat="43.52259702984571" lon="10.722299516211004"><ele>50.0</ele><time>2026-04-18T08:09:19.047Z</time></trkpt><trkpt lat="43.522510109509824" lon="10.722406888390632"><ele>50.0</ele><time>2026-04-18T08:09:20.055Z</time></trkpt><trkpt lat="43.522427841130195" lon="10.722495066011996"><ele>50.0</ele><time>2026-04-18T08:09:21.052Z</time></trkpt><trkpt lat="43.52234075315624" lon="10.72257687338695"><ele>50.0</ele><time>2026-04-18T08:09:22.049Z</time></trkpt><trkpt lat="43.52225450337261" lon="10.722665134827349"><ele>50.0</ele><time>2026-04-18T08:09:23.051Z</time></trkpt><trkpt lat="43.52216020696193" lon="10.722748115668747"><ele>50.0</ele><time>2026-04-18T08:09:24.049Z</time></trkpt><trkpt lat="43.52207378954023" lon="10.722830006862733"><ele>50.0</ele><time>2026-04-18T08:09:25.048Z</time></trkpt><trkpt lat="43.52199122779399" lon="10.722899409020993"><ele>50.0</ele><time>2026-04-18T08:09:26.048Z</time></trkpt><trkpt lat="43.52190682202905" lon="10.722966967160556"><ele>50.0</ele><time>2026-04-18T08:09:27.047Z</time></trkpt><trkpt lat="43.52182752922505" lon="10.723048523078415"><ele>50.0</ele><time>2026-04-18T08:09:28.05Z</time></trkpt><trkpt lat="43.5217375494945" lon="10.723131168643686"><ele>50.0</ele><time>2026-04-18T08:09:29.052Z</time></trkpt><trkpt lat="43.52165444292456" lon="10.723227895806286"><ele>50.0</ele><time>2026-04-18T08:09:30.05Z</time></trkpt><trkpt lat="43.5215615295279" lon="10.723311798657033"><ele>50.0</ele><time>2026-04-18T08:09:31.05Z</time></trkpt><trkpt lat="43.521476998034416" lon="10.723405340696427"><ele>50.0</ele><time>2026-04-18T08:09:32.05Z</time></trkpt><trkpt lat="43.52139246654093" lon="10.723528219396922"><ele>50.0</ele><time>2026-04-18T08:09:33.049Z</time></trkpt><trkpt lat="43.521314933936594" lon="10.723676243806931"><ele>49.75</ele><time>2026-04-18T08:09:34.051Z</time></trkpt><trkpt lat="43.52123597640872" lon="10.723818736160847"><ele>49.5</ele><time>2026-04-18T08:09:35.048Z</time></trkpt><trkpt lat="43.521171268116234" lon="10.723944213251325"><ele>49.25</ele><time>2026-04-18T08:09:36.047Z</time></trkpt><trkpt lat="43.521098722744284" lon="10.724075306216928"><ele>49.0</ele><time>2026-04-18T08:09:37.048Z</time></trkpt><trkpt lat="43.52101205386549" lon="10.724212601790878"><ele>48.800000000000004</ele><time>2026-04-18T08:09:38.047Z</time></trkpt><trkpt lat="43.52092840247184" lon="10.724347969527098"><ele>48.6</ele><time>2026-04-18T08:09:39.049Z</time></trkpt><trkpt lat="43.52085795257568" lon="10.724465735266659"><ele>48.4</ele><time>2026-04-18T08:09:40.046Z</time></trkpt><trkpt lat="43.520817132707236" lon="10.724572185436939"><ele>48.2</ele><time>2026-04-18T08:09:41.046Z</time></trkpt><trkpt lat="43.52078523956567" lon="10.724686514596199"><ele>48.0</ele><time>2026-04-18T08:09:42.069Z</time></trkpt><trkpt lat="43.52077145133495" lon="10.724810063848947"><ele>48.0</ele><time>2026-04-18T08:09:43.068Z</time></trkpt><trkpt lat="43.52075925566584" lon="10.72495339439318"><ele>48.0</ele><time>2026-04-18T08:09:44.09Z</time></trkpt><trkpt lat="43.520770194049476" lon="10.72513905354843"><ele>48.0</ele><time>2026-04-18T08:09:45.073Z</time></trkpt><trkpt lat="43.52077572610557" lon="10.725319432104682"><ele>48.0</ele><time>2026-04-18T08:09:46.087Z</time></trkpt><trkpt lat="43.52079345383078" lon="10.725494110966777"><ele>48.25</ele><time>2026-04-18T08:09:47.069Z</time></trkpt><trkpt lat="43.52082015019238" lon="10.72567800992236"><ele>48.5</ele><time>2026-04-18T08:09:48.059Z</time></trkpt><trkpt lat="43.520858832675515" lon="10.725842462862586"><ele>48.75</ele><time>2026-04-18T08:09:49.072Z</time></trkpt><trkpt lat="43.52089248601675" lon="10.72598881089196"><ele>49.0</ele><time>2026-04-18T08:09:50.052Z</time></trkpt><trkpt lat="43.520927522372006" lon="10.726100793118333"><ele>49.33333333333333</ele><time>2026-04-18T08:09:51.08Z</time></trkpt><trkpt lat="43.52094629783511" lon="10.726192323500966"><ele>49.666666666666664</ele><time>2026-04-18T08:09:52.051Z</time></trkpt><trkpt lat="43.52090673525214" lon="10.726316962401127"><ele>50.0</ele><time>2026-04-18T08:09:54.059Z</time></trkpt><trkpt lat="43.520848397206066" lon="10.726382005969738"><ele>50.33333333333333</ele><time>2026-04-18T08:09:55.048Z</time></trkpt><trkpt lat="43.52078197062343" lon="10.726455179984427"><ele>50.666666666666664</ele><time>2026-04-18T08:09:56.05Z</time></trkpt><trkpt lat="43.520717178511916" lon="10.726517792801118"><ele>51.0</ele><time>2026-04-18T08:09:57.047Z</time></trkpt><trkpt lat="43.520647692534624" lon="10.726568084220148"><ele>51.0</ele><time>2026-04-18T08:09:58.072Z</time></trkpt><trkpt lat="43.520555910694895" lon="10.726589541892267"><ele>51.0</ele><time>2026-04-18T08:09:59.051Z</time></trkpt><trkpt lat="43.52043998897403" lon="10.726664308468557"><ele>51.0</ele><time>2026-04-18T08:10:00.05Z</time></trkpt><trkpt lat="43.520353068638144" lon="10.7267397455971"><ele>51.0</ele><time>2026-04-18T08:10:01.043Z</time></trkpt><trkpt lat="43.520260280970035" lon="10.726824989552355"><ele>51.0</ele><time>2026-04-18T08:10:02.036Z</time></trkpt><trkpt lat="43.52018647831261" lon="10.726897325376726"><ele>51.0</ele><time>2026-04-18T08:10:03.062Z</time></trkpt><trkpt lat="43.52011527404517" lon="10.726962201307273"><ele>51.0</ele><time>2026-04-18T08:10:04.058Z</time></trkpt><trkpt lat="43.52004830263883" lon="10.727040320644832"><ele>51.0</ele><time>2026-04-18T08:10:05.051Z</time></trkpt><trkpt lat="43.51998313334167" lon="10.727117182696915"><ele>51.0</ele><time>2026-04-18T08:10:06.076Z</time></trkpt><trkpt lat="43.51989294406354" lon="10.727178370590067"><ele>51.0</ele><time>2026-04-18T08:10:07.053Z</time></trkpt><trkpt lat="43.51983724631697" lon="10.727233691151"><ele>51.0</ele><time>2026-04-18T08:10:08.051Z</time></trkpt><trkpt lat="43.5197844822365" lon="10.727288257340646"><ele>51.0</ele><time>2026-04-18T08:10:09.052Z</time></trkpt><trkpt lat="43.519703303504286" lon="10.727389259273863"><ele>51.0</ele><time>2026-04-18T08:10:11.054Z</time></trkpt><trkpt lat="43.51967685859978" lon="10.727506270642138"><ele>51.0</ele><time>2026-04-18T08:10:13.052Z</time></trkpt><trkpt lat="43.51964613892466" lon="10.727597884843803"><ele>51.0</ele><time>2026-04-18T08:10:15.047Z</time></trkpt><trkpt lat="43.51966126825988" lon="10.72769746185348"><ele>51.0</ele><time>2026-04-18T08:10:18.049Z</time></trkpt><trkpt lat="43.519676900509296" lon="10.727844396616078"><ele>52.0</ele><time>2026-04-18T08:15:24.999Z</time></trkpt><trkpt lat="43.51966621358275" lon="10.727960066879845"><ele>53.0</ele><time>2026-04-18T08:15:25.999Z</time></trkpt><trkpt lat="43.51965347308993" lon="10.728084370503879"><ele>53.99999999999999</ele><time>2026-04-18T08:15:26.999Z</time></trkpt><trkpt lat="43.51964295380145" lon="10.728225018839098"><ele>55.0</ele><time>2026-04-18T08:15:27.999Z</time></trkpt><trkpt lat="43.519630967679916" lon="10.728361643860795"><ele>56.0</ele><time>2026-04-18T08:15:28.999Z</time></trkpt><trkpt lat="43.51961709563017" lon="10.728484774018385"><ele>56.8</ele><time>2026-04-18T08:15:29.999Z</time></trkpt><trkpt lat="43.519606995436845" lon="10.72860178538666"><ele>57.599999999999994</ele><time>2026-04-18T08:15:30.999Z</time></trkpt><trkpt lat="43.519604355137346" lon="10.728716533641078"><ele>58.4</ele><time>2026-04-18T08:15:31.999Z</time></trkpt><trkpt lat="43.51957480892867" lon="10.728882830600002"><ele>59.2</ele><time>2026-04-18T08:15:32.999Z</time></trkpt><trkpt lat="43.51959119554937" lon="10.729000931615689"><ele>60.0</ele><time>2026-04-18T08:15:33.999Z</time></trkpt><trkpt lat="43.519609132822154" lon="10.729123726497152"><ele>60.0</ele><time>2026-04-18T08:15:34.999Z</time></trkpt><trkpt lat="43.51963398516506" lon="10.729216597984292"><ele>60.0</ele><time>2026-04-18T08:15:35.999Z</time></trkpt><trkpt lat="43.51964672565788" lon="10.729326987649062"><ele>60.0</ele><time>2026-04-18T08:15:36.999Z</time></trkpt><trkpt lat="43.519655861932335" lon="10.729501750330188"><ele>60.0</ele><time>2026-04-18T08:15:38.999Z</time></trkpt><trkpt lat="43.519659214693604" lon="10.729662179956891"><ele>60.0</ele><time>2026-04-18T08:15:40.999Z</time></trkpt><trkpt lat="43.51963469762683" lon="10.729806600148537"><ele>59.8</ele><time>2026-04-18T08:15:42.999Z</time></trkpt><trkpt lat="43.519595051224826" lon="10.729970633993604"><ele>59.6</ele><time>2026-04-18T08:15:44.999Z</time></trkpt><trkpt lat="43.51956894159645" lon="10.730074653411963"><ele>59.400000000000006</ele><time>2026-04-18T08:15:45.999Z</time></trkpt><trkpt lat="43.51954480171531" lon="10.73016878218458"><ele>59.2</ele><time>2026-04-18T08:15:46.999Z</time></trkpt><trkpt lat="43.51956282280713" lon="10.730267101908783"><ele>59.0</ele><time>2026-04-18T08:15:47.999Z</time></trkpt><trkpt lat="43.51958147254169" lon="10.730437589819292"><ele>60.333333333333336</ele><time>2026-04-18T08:15:49.999Z</time></trkpt><trkpt lat="43.51960410368025" lon="10.730551499883394"><ele>61.66666666666667</ele><time>2026-04-18T08:15:50.999Z</time></trkpt><trkpt lat="43.519626734818814" lon="10.730645963932137"><ele>63.0</ele><time>2026-04-18T08:15:51.999Z</time></trkpt><trkpt lat="43.51964136123985" lon="10.73074093089507"><ele>64.33333333333333</ele><time>2026-04-18T08:15:52.999Z</time></trkpt><trkpt lat="43.519637757021485" lon="10.73085232638822"><ele>65.66666666666666</ele><time>2026-04-18T08:15:53.999Z</time></trkpt><trkpt lat="43.51962375924319" lon="10.730958106006245"><ele>67.0</ele><time>2026-04-18T08:15:54.999Z</time></trkpt><trkpt lat="43.51963042285621" lon="10.731055922816257"><ele>69.4</ele><time>2026-04-18T08:15:55.999Z</time></trkpt><trkpt lat="43.51963955913067" lon="10.73121735827134"><ele>71.80000000000001</ele><time>2026-04-18T08:15:57.999Z</time></trkpt><trkpt lat="43.51965934042215" lon="10.731315594176511"><ele>74.2</ele><time>2026-04-18T08:15:58.999Z</time></trkpt><trkpt lat="43.51964752193868" lon="10.731484740982513"><ele>76.60000000000001</ele><time>2026-04-18T08:16:00.999Z</time></trkpt><trkpt lat="43.519665082025824" lon="10.731608793149451"><ele>79.0</ele><time>2026-04-18T08:16:02.999Z</time></trkpt><trkpt lat="43.51968482140779" lon="10.731694037104706"><ele>79.0</ele><time>2026-04-18T08:16:03.999Z</time></trkpt><trkpt lat="43.51972958077073" lon="10.73176804930971"><ele>79.0</ele><time>2026-04-18T08:16:04.999Z</time></trkpt><trkpt lat="43.51976143200278" lon="10.731846420104365"><ele>79.0</ele><time>2026-04-18T08:16:05.999Z</time></trkpt><trkpt lat="43.519792151677905" lon="10.731937196115712"><ele>79.0</ele><time>2026-04-18T08:16:06.999Z</time></trkpt><trkpt lat="43.51982106924385" lon="10.732104079807858"><ele>79.0</ele><time>2026-04-18T08:16:08.999Z</time></trkpt><trkpt lat="43.51983431265086" lon="10.732208769778472"><ele>79.0</ele><time>2026-04-18T08:16:09.999Z</time></trkpt><trkpt lat="43.5198460473153" lon="10.732302395636898"><ele>80.4</ele><time>2026-04-18T08:16:10.999Z</time></trkpt><trkpt lat="43.51985300429493" lon="10.732393758381468"><ele>81.80000000000001</ele><time>2026-04-18T08:16:11.999Z</time></trkpt><trkpt lat="43.51985753052264" lon="10.732567263777119"><ele>83.19999999999999</ele><time>2026-04-18T08:16:13.999Z</time></trkpt><trkpt lat="43.51984370038241" lon="10.7327012065898"><ele>84.6</ele><time>2026-04-18T08:16:15.999Z</time></trkpt><trkpt lat="43.51984399374902" lon="10.73286389933036"><ele>86.0</ele><time>2026-04-18T08:16:17.999Z</time></trkpt><trkpt lat="43.5198486876148" lon="10.73295819574104"><ele>87.42857142857143</ele><time>2026-04-18T08:16:18.999Z</time></trkpt><trkpt lat="43.51985685997039" lon="10.733067411939365"><ele>88.85714285714286</ele><time>2026-04-18T08:16:19.999Z</time></trkpt><trkpt lat="43.519858410622476" lon="10.733163803825837"><ele>90.28571428571428</ele><time>2026-04-18T08:16:20.999Z</time></trkpt><trkpt lat="43.519854177761374" lon="10.733265811587435"><ele>91.71428571428572</ele><time>2026-04-18T08:16:21.999Z</time></trkpt><trkpt lat="43.519861344288586" lon="10.73337896728025"><ele>93.14285714285714</ele><time>2026-04-18T08:16:22.999Z</time></trkpt><trkpt lat="43.51986113474101" lon="10.733476532633167"><ele>94.57142857142857</ele><time>2026-04-18T08:16:23.999Z</time></trkpt><trkpt lat="43.519857404794095" lon="10.733565296987754"><ele>96.0</ele><time>2026-04-18T08:16:24.999Z</time></trkpt><trkpt lat="43.51984168872565" lon="10.733656743551355"><ele>97.0</ele><time>2026-04-18T08:16:25.999Z</time></trkpt><trkpt lat="43.51983502511263" lon="10.733764115730983"><ele>98.0</ele><time>2026-04-18T08:16:26.999Z</time></trkpt><trkpt lat="43.51983116943717" lon="10.733942985544664"><ele>99.0</ele><time>2026-04-18T08:16:28.999Z</time></trkpt><trkpt lat="43.51982312281012" lon="10.734036695222121"><ele>100.0</ele><time>2026-04-18T08:16:29.999Z</time></trkpt><trkpt lat="43.519812477793096" lon="10.734187485660179"><ele>101.0</ele><time>2026-04-18T08:16:31.999Z</time></trkpt><trkpt lat="43.51983460601747" lon="10.734286643574698"><ele>101.0</ele><time>2026-04-18T08:16:33.999Z</time></trkpt><trkpt lat="43.519919933791755" lon="10.73435956613229"><ele>101.0</ele><time>2026-04-18T08:16:47.999Z</time></trkpt><trkpt lat="43.520028186071215" lon="10.734432153413756"><ele>101.0</ele><time>2026-04-18T08:16:49.999Z</time></trkpt><trkpt lat="43.52009352300644" lon="10.734489653269513"><ele>101.0</ele><time>2026-04-18T08:16:50.999Z</time></trkpt><trkpt lat="43.52016510445952" lon="10.734546734030111"><ele>101.0</ele><time>2026-04-18T08:16:51.999Z</time></trkpt><trkpt lat="43.52023391988456" lon="10.73459845037268"><ele>100.49999999999999</ele><time>2026-04-18T08:16:52.999Z</time></trkpt><trkpt lat="43.520307135808764" lon="10.73464631103979"><ele>100.0</ele><time>2026-04-18T08:16:53.999Z</time></trkpt><trkpt lat="43.52040478498071" lon="10.734699200848802"><ele>99.5</ele><time>2026-04-18T08:16:54.999Z</time></trkpt><trkpt lat="43.520471840206085" lon="10.734750246639116"><ele>99.0</ele><time>2026-04-18T08:16:55.999Z</time></trkpt><trkpt lat="43.52052611302912" lon="10.734822666282518"><ele>98.49999999999999</ele><time>2026-04-18T08:16:56.999Z</time></trkpt><trkpt lat="43.52058994122177" lon="10.734886871660812"><ele>98.0</ele><time>2026-04-18T08:16:57.999Z</time></trkpt><trkpt lat="43.52064718962043" lon="10.734962811703546"><ele>100.33333333333333</ele><time>2026-04-18T08:16:58.999Z</time></trkpt><trkpt lat="43.52069945078671" lon="10.73504654691623"><ele>102.66666666666666</ele><time>2026-04-18T08:16:59.999Z</time></trkpt><trkpt lat="43.52072442885816" lon="10.735146375383003"><ele>105.0</ele><time>2026-04-18T08:17:00.999Z</time></trkpt><trkpt lat="43.52075711828053" lon="10.735248047868474"><ele>107.33333333333334</ele><time>2026-04-18T08:17:01.999Z</time></trkpt><trkpt lat="43.5208088346231" lon="10.735344523573978"><ele>109.66666666666667</ele><time>2026-04-18T08:17:02.999Z</time></trkpt><trkpt lat="43.52084005721241" lon="10.735422726730569"><ele>112.0</ele><time>2026-04-18T08:17:03.999Z</time></trkpt><trkpt lat="43.52092425342977" lon="10.735539905736907"><ele>112.50000000000001</ele><time>2026-04-18T08:17:05.999Z</time></trkpt><trkpt lat="43.520992691669164" lon="10.735623808587654"><ele>113.0</ele><time>2026-04-18T08:17:06.999Z</time></trkpt><trkpt lat="43.52105341855764" lon="10.735702430839403"><ele>113.5</ele><time>2026-04-18T08:17:07.999Z</time></trkpt><trkpt lat="43.5211056378144" lon="10.735768061141236"><ele>114.0</ele><time>2026-04-18T08:17:08.999Z</time></trkpt><trkpt lat="43.521167915354965" lon="10.735814832160933"><ele>114.50000000000001</ele><time>2026-04-18T08:17:09.999Z</time></trkpt><trkpt lat="43.52127004884511" lon="10.735897058631046"><ele>115.0</ele><time>2026-04-18T08:17:11.999Z</time></trkpt><trkpt lat="43.52132490840137" lon="10.73598850519465"><ele>117.42857142857142</ele><time>2026-04-18T08:17:12.999Z</time></trkpt><trkpt lat="43.52138249207616" lon="10.73604667560266"><ele>119.85714285714286</ele><time>2026-04-18T08:17:13.999Z</time></trkpt><trkpt lat="43.5214396985653" lon="10.736105181286797"><ele>122.28571428571428</ele><time>2026-04-18T08:17:14.999Z</time></trkpt><trkpt lat="43.521488648879824" lon="10.736170057217345"><ele>124.71428571428571</ele><time>2026-04-18T08:17:15.999Z</time></trkpt><trkpt lat="43.52153546180904" lon="10.736246164898143"><ele>127.14285714285714</ele><time>2026-04-18T08:17:16.999Z</time></trkpt><trkpt lat="43.521597404073475" lon="10.736321099112496"><ele>129.57142857142856</ele><time>2026-04-18T08:17:17.999Z</time></trkpt><trkpt lat="43.52165741850018" lon="10.736389914537535"><ele>132.0</ele><time>2026-04-18T08:17:18.999Z</time></trkpt><trkpt lat="43.5217367532137" lon="10.736485719690785"><ele>132.0</ele><time>2026-04-18T08:17:20.999Z</time></trkpt><trkpt lat="43.521809675771294" lon="10.736604826534853"><ele>132.0</ele><time>2026-04-18T08:17:22.999Z</time></trkpt><trkpt lat="43.52188771128982" lon="10.736726196492777"><ele>132.0</ele><time>2026-04-18T08:17:24.999Z</time></trkpt><trkpt lat="43.521934314671455" lon="10.736789060766563"><ele>132.0</ele><time>2026-04-18T08:17:25.999Z</time></trkpt><trkpt lat="43.52202027108848" lon="10.736902551735506"><ele>132.0</ele><time>2026-04-18T08:17:27.999Z</time></trkpt><trkpt lat="43.52207487918764" lon="10.736984191472397"><ele>132.0</ele><time>2026-04-18T08:17:29.999Z</time></trkpt><trkpt lat="43.52210693996727" lon="10.737099442641005"><ele>132.0</ele><time>2026-04-18T08:19:04Z</time></trkpt><trkpt lat="43.52211427413255" lon="10.73724771850811"><ele>132.0</ele><time>2026-04-18T08:19:06Z</time></trkpt><trkpt lat="43.5220673773843" lon="10.737372441227302"><ele>132.0</ele><time>2026-04-18T08:19:07Z</time></trkpt><trkpt lat="43.522025174501834" lon="10.737504037107096"><ele>132.0</ele><time>2026-04-18T08:19:08Z</time></trkpt><trkpt lat="43.521971153135894" lon="10.737630268568859"><ele>134.0</ele><time>2026-04-18T08:19:09Z</time></trkpt><trkpt lat="43.52190250534892" lon="10.737758176411257"><ele>136.0</ele><time>2026-04-18T08:19:10Z</time></trkpt><trkpt lat="43.52184081454158" lon="10.737844426194892"><ele>138.0</ele><time>2026-04-18T08:19:11Z</time></trkpt><trkpt lat="43.52177367549717" lon="10.737924808646309"><ele>140.0</ele><time>2026-04-18T08:19:12Z</time></trkpt><trkpt lat="43.521727197844086" lon="10.73800351471709"><ele>142.0</ele><time>2026-04-18T08:19:13Z</time></trkpt><trkpt lat="43.52170875765711" lon="10.738102672631609"><ele>144.0</ele><time>2026-04-18T08:19:14Z</time></trkpt><trkpt lat="43.521709595847426" lon="10.73820635677384"><ele>144.00000000000003</ele><time>2026-04-18T08:19:15Z</time></trkpt><trkpt lat="43.5217195703122" lon="10.738315992067324"><ele>144.0</ele><time>2026-04-18T08:19:16Z</time></trkpt><trkpt lat="43.52173474155694" lon="10.738416491086351"><ele>144.0</ele><time>2026-04-18T08:19:17Z</time></trkpt><trkpt lat="43.52175582204342" lon="10.738514224077331"><ele>144.0</ele><time>2026-04-18T08:19:18Z</time></trkpt><trkpt lat="43.52177761499166" lon="10.738605922098028"><ele>144.0</ele><time>2026-04-18T08:19:19Z</time></trkpt><trkpt lat="43.52179333106011" lon="10.73869301007198"><ele>144.00000000000003</ele><time>2026-04-18T08:19:20Z</time></trkpt><trkpt lat="43.52181860249817" lon="10.738781606788503"><ele>144.0</ele><time>2026-04-18T08:19:21Z</time></trkpt><trkpt lat="43.52186109874725" lon="10.738929631198513"><ele>144.0</ele><time>2026-04-18T08:19:23Z</time></trkpt><trkpt lat="43.52191558111787" lon="10.739078409979808"><ele>144.0</ele><time>2026-04-18T08:19:25Z</time></trkpt><trkpt lat="43.52196511816561" lon="10.739240515987145"><ele>144.0</ele><time>2026-04-18T08:19:27Z</time></trkpt><trkpt lat="43.521989970508514" lon="10.739324921752083"><ele>144.0</ele><time>2026-04-18T08:19:28Z</time></trkpt><trkpt lat="43.52201603822738" lon="10.739415362487303"><ele>144.0</ele><time>2026-04-18T08:19:29Z</time></trkpt><trkpt lat="43.522042483131884" lon="10.739498930061924"><ele>146.4</ele><time>2026-04-18T08:19:30Z</time></trkpt><trkpt lat="43.52207378954023" lon="10.739592388282286"><ele>148.8</ele><time>2026-04-18T08:19:31Z</time></trkpt><trkpt lat="43.52210643705308" lon="10.739694312224852"><ele>151.2</ele><time>2026-04-18T08:19:32Z</time></trkpt><trkpt lat="43.52214503571719" lon="10.739809228117336"><ele>153.6</ele><time>2026-04-18T08:19:33Z</time></trkpt><trkpt lat="43.52219042372286" lon="10.739936046312321"><ele>156.0</ele><time>2026-04-18T08:19:34Z</time></trkpt><trkpt lat="43.52224004458964" lon="10.740068145106305"><ele>156.0</ele><time>2026-04-18T08:19:35Z</time></trkpt><trkpt lat="43.522295616607664" lon="10.740201249728669"><ele>156.0</ele><time>2026-04-18T08:19:36Z</time></trkpt><trkpt lat="43.52236221082836" lon="10.74033670128392"><ele>156.0</ele><time>2026-04-18T08:19:37Z</time></trkpt><trkpt lat="43.52241937540799" lon="10.740479025999774"><ele>156.0</ele><time>2026-04-18T08:19:38Z</time></trkpt><trkpt lat="43.5224749055165" lon="10.740608777860869"><ele>156.4</ele><time>2026-04-18T08:19:39Z</time></trkpt><trkpt lat="43.522528004873095" lon="10.740728639076222"><ele>156.8</ele><time>2026-04-18T08:19:40Z</time></trkpt><trkpt lat="43.522586091462074" lon="10.740845734263528"><ele>157.20000000000002</ele><time>2026-04-18T08:19:41Z</time></trkpt><trkpt lat="43.52264572870314" lon="10.74096358382212"><ele>157.6</ele><time>2026-04-18T08:19:42Z</time></trkpt><trkpt lat="43.52270733569145" lon="10.741083696494568"><ele>158.0</ele><time>2026-04-18T08:19:43Z</time></trkpt><trkpt lat="43.522777911316155" lon="10.741199199120272"><ele>158.0</ele><time>2026-04-18T08:19:44Z</time></trkpt><trkpt lat="43.52286202371448" lon="10.741307912404407"><ele>158.0</ele><time>2026-04-18T08:19:45Z</time></trkpt><trkpt lat="43.5229569487679" lon="10.74140774087118"><ele>158.0</ele><time>2026-04-18T08:19:46Z</time></trkpt><trkpt lat="43.5230499878931" lon="10.741510251546968"><ele>158.0</ele><time>2026-04-18T08:19:47Z</time></trkpt><trkpt lat="43.52313942279994" lon="10.741599183539618"><ele>158.20000000000002</ele><time>2026-04-18T08:19:48Z</time></trkpt><trkpt lat="43.52323103700161" lon="10.74168082327651"><ele>158.4</ele><time>2026-04-18T08:19:49Z</time></trkpt><trkpt lat="43.523312718648015" lon="10.741760283718577"><ele>158.60000000000002</ele><time>2026-04-18T08:19:50Z</time></trkpt><trkpt lat="43.5233956575799" lon="10.741837983960977"><ele>158.8</ele><time>2026-04-18T08:19:51Z</time></trkpt><trkpt lat="43.52346837058991" lon="10.741905625919571"><ele>159.0</ele><time>2026-04-18T08:19:52Z</time></trkpt><trkpt lat="43.523552692535816" lon="10.741968657831421"><ele>159.6</ele><time>2026-04-18T08:19:53Z</time></trkpt><trkpt lat="43.52363730784833" lon="10.74200235308217"><ele>160.2</ele><time>2026-04-18T08:19:54Z</time></trkpt><trkpt lat="43.523734496015614" lon="10.741990534598699"><ele>160.79999999999998</ele><time>2026-04-18T08:19:55Z</time></trkpt><trkpt lat="43.523845975327795" lon="10.741947535435429"><ele>161.4</ele><time>2026-04-18T08:19:56Z</time></trkpt><trkpt lat="43.52397115905166" lon="10.741897076378336"><ele>162.0</ele><time>2026-04-18T08:19:57Z</time></trkpt><trkpt lat="43.52409512739957" lon="10.741862207661143"><ele>162.6</ele><time>2026-04-18T08:19:58Z</time></trkpt><trkpt lat="43.524217084090715" lon="10.74181904085981"><ele>163.2</ele><time>2026-04-18T08:19:59Z</time></trkpt><trkpt lat="43.52432470772744" lon="10.741787608722916"><ele>163.8</ele><time>2026-04-18T08:20:00Z</time></trkpt><trkpt lat="43.52443312764496" lon="10.741757182414403"><ele>164.4</ele><time>2026-04-18T08:20:01Z</time></trkpt><trkpt lat="43.52452620867968" lon="10.741732371981016"><ele>165.0</ele><time>2026-04-18T08:20:02Z</time></trkpt><trkpt lat="43.52461962499053" lon="10.741727761934271"><ele>166.4</ele><time>2026-04-18T08:20:03Z</time></trkpt><trkpt lat="43.52469971407533" lon="10.741738155494204"><ele>167.8</ele><time>2026-04-18T08:20:04Z</time></trkpt><trkpt lat="43.52478793360621" lon="10.7417521532725"><ele>169.2</ele><time>2026-04-18T08:20:05Z</time></trkpt><trkpt lat="43.52487963162691" lon="10.741767492155304"><ele>170.6</ele><time>2026-04-18T08:20:06Z</time></trkpt><trkpt lat="43.52498482451171" lon="10.741768665621748"><ele>172.0</ele><time>2026-04-18T08:20:07Z</time></trkpt><trkpt lat="43.525108625221556" lon="10.741755254576674"><ele>172.0</ele><time>2026-04-18T08:20:08Z</time></trkpt><trkpt lat="43.525230456184154" lon="10.741724409173003"><ele>172.0</ele><time>2026-04-18T08:20:09Z</time></trkpt><trkpt lat="43.52533468515009" lon="10.741675961772671"><ele>172.0</ele><time>2026-04-18T08:20:10Z</time></trkpt><trkpt lat="43.52543463934541" lon="10.741630950952638"><ele>172.0</ele><time>2026-04-18T08:20:11Z</time></trkpt><trkpt lat="43.5255223559621" lon="10.741567332307566"><ele>172.0</ele><time>2026-04-18T08:20:12Z</time></trkpt><trkpt lat="43.525596200529044" lon="10.74150010944413"><ele>171.5</ele><time>2026-04-18T08:20:13Z</time></trkpt><trkpt lat="43.525662878568774" lon="10.74144043029355"><ele>171.0</ele><time>2026-04-18T08:20:14Z</time></trkpt><trkpt lat="43.52572523992837" lon="10.741377985114921"><ele>170.5</ele><time>2026-04-18T08:20:15Z</time></trkpt><trkpt lat="43.525833659845894" lon="10.741286203275193"><ele>170.0</ele><time>2026-04-18T08:20:17Z</time></trkpt><trkpt lat="43.52590260099948" lon="10.741248233253826"><ele>169.5</ele><time>2026-04-18T08:20:19Z</time></trkpt><trkpt lat="43.52596089713604" lon="10.741303302357663"><ele>169.0</ele><time>2026-04-18T08:20:21Z</time></trkpt><trkpt lat="43.52604446471066" lon="10.741437915722598"><ele>169.0</ele><time>2026-04-18T08:20:23Z</time></trkpt><trkpt lat="43.526108628179436" lon="10.741517124707569"><ele>169.0</ele><time>2026-04-18T08:20:24Z</time></trkpt><trkpt lat="43.52617233064354" lon="10.741591807464827"><ele>169.0</ele><time>2026-04-18T08:20:25Z</time></trkpt><trkpt lat="43.526234901550716" lon="10.741659700880517"><ele>169.0</ele><time>2026-04-18T08:20:26Z</time></trkpt><trkpt lat="43.52629998702884" lon="10.741724157715907"><ele>169.0</ele><time>2026-04-18T08:20:27Z</time></trkpt><trkpt lat="43.52637031119645" lon="10.741823315630427"><ele>169.0</ele><time>2026-04-18T08:20:28Z</time></trkpt><trkpt lat="43.5264420602876" lon="10.741932196552625"><ele>169.39999999999998</ele><time>2026-04-18T08:20:29Z</time></trkpt><trkpt lat="43.52652361620546" lon="10.742048453549614"><ele>169.8</ele><time>2026-04-18T08:20:30Z</time></trkpt><trkpt lat="43.52660781242282" lon="10.742167225117555"><ele>170.2</ele><time>2026-04-18T08:20:31Z</time></trkpt><trkpt lat="43.52668102834702" lon="10.742272753278485"><ele>170.60000000000002</ele><time>2026-04-18T08:20:32Z</time></trkpt><trkpt lat="43.52674749683917" lon="10.742377862344256"><ele>171.0</ele><time>2026-04-18T08:20:33Z</time></trkpt><trkpt lat="43.52683098059476" lon="10.74250753038632"><ele>171.0</ele><time>2026-04-18T08:20:34Z</time></trkpt><trkpt lat="43.5269101057607" lon="10.742652118216029"><ele>171.0</ele><time>2026-04-18T08:20:35Z</time></trkpt><trkpt lat="43.52697456259609" lon="10.742827467630377"><ele>171.0</ele><time>2026-04-18T08:20:36Z</time></trkpt><trkpt lat="43.527042372192746" lon="10.743016395727864"><ele>171.0</ele><time>2026-04-18T08:20:37Z</time></trkpt><trkpt lat="43.527100542600756" lon="10.743185877809992"><ele>171.0</ele><time>2026-04-18T08:20:38Z</time></trkpt><trkpt lat="43.527146601158684" lon="10.743337338800302"><ele>171.0</ele><time>2026-04-18T08:20:39Z</time></trkpt><trkpt lat="43.527184235903924" lon="10.743487542505136"><ele>171.0</ele><time>2026-04-18T08:20:40Z</time></trkpt><trkpt lat="43.52721633859307" lon="10.743637746209972"><ele>171.0</ele><time>2026-04-18T08:20:41Z</time></trkpt><trkpt lat="43.52724211294532" lon="10.743784513334505"><ele>171.0</ele><time>2026-04-18T08:20:42Z</time></trkpt><trkpt lat="43.52728678848923" lon="10.743929687897436"><ele>171.0</ele><time>2026-04-18T08:20:43Z</time></trkpt><trkpt lat="43.527335990260845" lon="10.744039909924142"><ele>171.0</ele><time>2026-04-18T08:20:44Z</time></trkpt><trkpt lat="43.52738003716201" lon="10.744143761704438"><ele>171.0</ele><time>2026-04-18T08:20:45Z</time></trkpt><trkpt lat="43.52745023560107" lon="10.744195561866038"><ele>171.0</ele><time>2026-04-18T08:20:46Z</time></trkpt><trkpt lat="43.5275171650979" lon="10.744239566857688"><ele>171.0</ele><time>2026-04-18T08:20:47Z</time></trkpt><trkpt lat="43.52760320533395" lon="10.74426454492914"><ele>171.0</ele><time>2026-04-18T08:20:48Z</time></trkpt><trkpt lat="43.527689999941295" lon="10.744306202987902"><ele>171.0</ele><time>2026-04-18T08:20:49Z</time></trkpt><trkpt lat="43.52777717173428" lon="10.744351632903092"><ele>171.0</ele><time>2026-04-18T08:20:50Z</time></trkpt><trkpt lat="43.52784921419204" lon="10.74439848774182"><ele>171.0</ele><time>2026-04-18T08:20:51Z</time></trkpt><trkpt lat="43.52793009955764" lon="10.74444341474282"><ele>171.0</ele><time>2026-04-18T08:20:52Z</time></trkpt><trkpt lat="43.528010523918574" lon="10.744503429169528"><ele>171.0</ele><time>2026-04-18T08:20:53Z</time></trkpt><trkpt lat="43.52807954889119" lon="10.744575010622613"><ele>170.0</ele><time>2026-04-18T08:20:54Z</time></trkpt><trkpt lat="43.528139311860805" lon="10.744660086939804"><ele>169.0</ele><time>2026-04-18T08:20:55Z</time></trkpt><trkpt lat="43.528199284378" lon="10.744736026982538"><ele>168.0</ele><time>2026-04-18T08:20:56Z</time></trkpt><trkpt lat="43.528239475603705" lon="10.744835352535121"><ele>167.0</ele><time>2026-04-18T08:20:57Z</time></trkpt><trkpt lat="43.52827162020237" lon="10.744938617582195"><ele>166.0</ele><time>2026-04-18T08:20:58Z</time></trkpt><trkpt lat="43.52830246560604" lon="10.745044816295378"><ele>165.0</ele><time>2026-04-18T08:20:59Z</time></trkpt><trkpt lat="43.52834010035128" lon="10.74514707551407"><ele>163.83333333333334</ele><time>2026-04-18T08:21:00Z</time></trkpt><trkpt lat="43.52837681308717" lon="10.745228547612898"><ele>162.66666666666666</ele><time>2026-04-18T08:21:01Z</time></trkpt><trkpt lat="43.528432007919555" lon="10.745342792953126"><ele>161.5</ele><time>2026-04-18T08:21:03Z</time></trkpt><trkpt lat="43.528484730090504" lon="10.74539920316147"><ele>160.33333333333331</ele><time>2026-04-18T08:22:26Z</time></trkpt><trkpt lat="43.528572656254774" lon="10.745418984452956"><ele>159.16666666666666</ele><time>2026-04-18T08:22:29Z</time></trkpt><trkpt lat="43.52862948555828" lon="10.745325526232593"><ele>158.0</ele><time>2026-04-18T08:22:32Z</time></trkpt><trkpt lat="43.528680698986655" lon="10.745244976143114"><ele>158.0</ele><time>2026-04-18T08:22:35Z</time></trkpt><trkpt lat="43.52878417358131" lon="10.745243551219575"><ele>158.0</ele><time>2026-04-18T08:22:37Z</time></trkpt><trkpt lat="43.52891120132387" lon="10.74520717375981"><ele>158.0</ele><time>2026-04-18T08:22:39Z</time></trkpt><trkpt lat="43.5289736465025" lon="10.745192589248292"><ele>158.0</ele><time>2026-04-18T08:22:40Z</time></trkpt><trkpt lat="43.52904032454223" lon="10.74518714101123"><ele>158.0</ele><time>2026-04-18T08:22:41Z</time></trkpt><trkpt lat="43.529159054200655" lon="10.745151517922752"><ele>158.0</ele><time>2026-04-18T08:22:43Z</time></trkpt><trkpt lat="43.52922149937928" lon="10.74512117543327"><ele>158.0</ele><time>2026-04-18T08:22:44Z</time></trkpt><trkpt lat="43.529309509362584" lon="10.745088234553807"><ele>158.0</ele><time>2026-04-18T08:22:46Z</time></trkpt><trkpt lat="43.529377486597305" lon="10.745098041380517"><ele>158.0</ele><time>2026-04-18T08:22:48Z</time></trkpt><trkpt lat="43.52944240443737" lon="10.745114553729765"><ele>158.0</ele><time>2026-04-18T08:22:50Z</time></trkpt><trkpt lat="43.529521655331855" lon="10.745177250365488"><ele>158.0</ele><time>2026-04-18T08:22:52Z</time></trkpt><trkpt lat="43.52962693203569" lon="10.745238522077672"><ele>157.83333333333331</ele><time>2026-04-18T08:22:54Z</time></trkpt><trkpt lat="43.52972089317024" lon="10.745269870395534"><ele>157.66666666666666</ele><time>2026-04-18T08:22:56Z</time></trkpt><trkpt lat="43.529802616726165" lon="10.745259309197538"><ele>157.5</ele><time>2026-04-18T08:22:59Z</time></trkpt><trkpt lat="43.529870510141855" lon="10.745219914252631"><ele>157.33333333333334</ele><time>2026-04-18T08:23:02Z</time></trkpt><trkpt lat="43.529946072998946" lon="10.745191667238943"><ele>157.16666666666669</ele><time>2026-04-18T08:23:05Z</time></trkpt><trkpt lat="43.53001099083901" lon="10.745142549286358"><ele>157.0</ele><time>2026-04-18T08:23:07Z</time></trkpt><trkpt lat="43.530078632797604" lon="10.745097789923422"><ele>156.83333333333334</ele><time>2026-04-18T08:23:09Z</time></trkpt><trkpt lat="43.53014598138959" lon="10.745049426342122"><ele>156.66666666666669</ele><time>2026-04-18T08:23:12Z</time></trkpt><trkpt lat="43.53020633109242" lon="10.744969714442961"><ele>156.5</ele><time>2026-04-18T08:23:17Z</time></trkpt><trkpt lat="43.53027384732247" lon="10.744890337819927"><ele>156.33333333333334</ele><time>2026-04-18T08:23:20Z</time></trkpt><trkpt lat="43.530339854809945" lon="10.744831999773853"><ele>156.16666666666666</ele><time>2026-04-18T08:23:22Z</time></trkpt><trkpt lat="43.53043054700226" lon="10.744749521846645"><ele>156.0</ele><time>2026-04-18T08:23:24Z</time></trkpt><trkpt lat="43.530528447631305" lon="10.744701661179535"><ele>156.0</ele><time>2026-04-18T08:23:26Z</time></trkpt><trkpt lat="43.53064403407604" lon="10.74466771447169"><ele>156.0</ele><time>2026-04-18T08:23:28Z</time></trkpt><trkpt lat="43.53072596717954" lon="10.744619602347486"><ele>156.0</ele><time>2026-04-18T08:23:29Z</time></trkpt><trkpt lat="43.530806265811925" lon="10.744555899883382"><ele>156.0</ele><time>2026-04-18T08:23:30Z</time></trkpt><trkpt lat="43.530864436219936" lon="10.744475349793904"><ele>156.0</ele><time>2026-04-18T08:23:31Z</time></trkpt><trkpt lat="43.53090462744564" lon="10.744381053383224"><ele>156.0</ele><time>2026-04-18T08:23:32Z</time></trkpt><trkpt lat="43.53094829716117" lon="10.744260102520458"><ele>156.0</ele><time>2026-04-18T08:23:33Z</time></trkpt><trkpt lat="43.53096568961025" lon="10.744111072282069"><ele>156.0</ele><time>2026-04-18T08:23:34Z</time></trkpt><trkpt lat="43.53098488416851" lon="10.743991211066716"><ele>156.0</ele><time>2026-04-18T08:23:35Z</time></trkpt><trkpt lat="43.53099573873312" lon="10.743871349851362"><ele>156.0</ele><time>2026-04-18T08:23:36Z</time></trkpt><trkpt lat="43.5309666116196" lon="10.743747465322487"><ele>156.0</ele><time>2026-04-18T08:23:37Z</time></trkpt><trkpt lat="43.53093320973546" lon="10.743633219982259"><ele>156.0</ele><time>2026-04-18T08:23:38Z</time></trkpt><trkpt lat="43.530911500606244" lon="10.743514867509475"><ele>156.0</ele><time>2026-04-18T08:23:39Z</time></trkpt><trkpt lat="43.53088593580157" lon="10.74340716005372"><ele>156.0</ele><time>2026-04-18T08:23:40Z</time></trkpt><trkpt lat="43.5308611672777" lon="10.743269026289454"><ele>156.0</ele><time>2026-04-18T08:23:41Z</time></trkpt><trkpt lat="43.530856263864344" lon="10.743149332712164"><ele>157.0</ele><time>2026-04-18T08:23:42Z</time></trkpt><trkpt lat="43.53084842678488" lon="10.743032069886794"><ele>158.0</ele><time>2026-04-18T08:23:43Z</time></trkpt><trkpt lat="43.530852701555496" lon="10.742913717414012"><ele>159.0</ele><time>2026-04-18T08:23:44Z</time></trkpt><trkpt lat="43.53086347230107" lon="10.742808943624368"><ele>160.0</ele><time>2026-04-18T08:23:45Z</time></trkpt><trkpt lat="43.53087432686568" lon="10.742706516767612"><ele>161.0</ele><time>2026-04-18T08:23:46Z</time></trkpt><trkpt lat="43.53088765409172" lon="10.74261456728982"><ele>162.0</ele><time>2026-04-18T08:23:47Z</time></trkpt><trkpt lat="43.53090324443162" lon="10.74244550430285"><ele>162.8</ele><time>2026-04-18T08:23:49Z</time></trkpt><trkpt lat="43.53088534906835" lon="10.742316339174977"><ele>163.6</ele><time>2026-04-18T08:23:50Z</time></trkpt><trkpt lat="43.53085731160224" lon="10.742179043601027"><ele>164.4</ele><time>2026-04-18T08:23:51Z</time></trkpt><trkpt lat="43.5308281425792" lon="10.742056500176659"><ele>165.20000000000002</ele><time>2026-04-18T08:23:52Z</time></trkpt><trkpt lat="43.530791387933796" lon="10.74193387293326"><ele>166.0</ele><time>2026-04-18T08:23:53Z</time></trkpt><trkpt lat="43.53075459137887" lon="10.74182197452592"><ele>166.5</ele><time>2026-04-18T08:23:54Z</time></trkpt><trkpt lat="43.530736654106086" lon="10.741734718913904"><ele>167.0</ele><time>2026-04-18T08:23:55Z</time></trkpt><trkpt lat="43.530717040452664" lon="10.74164084159838"><ele>167.5</ele><time>2026-04-18T08:23:56Z</time></trkpt><trkpt lat="43.53070807181627" lon="10.741462307060827"><ele>168.0</ele><time>2026-04-18T08:23:58Z</time></trkpt><trkpt lat="43.53071372960091" lon="10.741372955973018"><ele>168.5</ele><time>2026-04-18T08:23:59Z</time></trkpt><trkpt lat="43.530728984664684" lon="10.741268601278533"><ele>169.0</ele><time>2026-04-18T08:24:00Z</time></trkpt><trkpt lat="43.530745664651995" lon="10.74115217664348"><ele>169.0</ele><time>2026-04-18T08:24:01Z</time></trkpt><trkpt lat="43.530796752351826" lon="10.741050923253168"><ele>169.0</ele><time>2026-04-18T08:24:02Z</time></trkpt><trkpt lat="43.53082864549339" lon="10.740943718711604"><ele>169.0</ele><time>2026-04-18T08:24:03Z</time></trkpt><trkpt lat="43.530884888063675" lon="10.740837352360357"><ele>169.0</ele><time>2026-04-18T08:24:04Z</time></trkpt><trkpt lat="43.53092583366067" lon="10.74072411284851"><ele>169.0</ele><time>2026-04-18T08:24:05Z</time></trkpt><trkpt lat="43.5309734847802" lon="10.740575753162373"><ele>169.0</ele><time>2026-04-18T08:24:06Z</time></trkpt><trkpt lat="43.5310112871635" lon="10.740430746237505"><ele>169.0</ele><time>2026-04-18T08:24:07Z</time></trkpt><trkpt lat="43.53106107566834" lon="10.740258833403457"><ele>169.0</ele><time>2026-04-18T08:24:08Z</time></trkpt><trkpt lat="43.53110973261625" lon="10.740102678547371"><ele>169.0</ele><time>2026-04-18T08:24:09Z</time></trkpt><trkpt lat="43.53113957219154" lon="10.739957923079599"><ele>169.0</ele><time>2026-04-18T08:24:10Z</time></trkpt><trkpt lat="43.53117863186032" lon="10.739837726588119"><ele>169.0</ele><time>2026-04-18T08:24:11Z</time></trkpt><trkpt lat="43.531205914955144" lon="10.739721721048223"><ele>169.0</ele><time>2026-04-18T08:24:12Z</time></trkpt><trkpt lat="43.53126375008703" lon="10.739627173180448"><ele>169.0</ele><time>2026-04-18T08:24:13Z</time></trkpt><trkpt lat="43.5313130775872" lon="10.739537486816513"><ele>169.0</ele><time>2026-04-18T08:24:14Z</time></trkpt><trkpt lat="43.53139920164229" lon="10.73944402859615"><ele>166.79999999999998</ele><time>2026-04-18T08:24:15Z</time></trkpt><trkpt lat="43.53149257604362" lon="10.739364987249242"><ele>164.6</ele><time>2026-04-18T08:24:16Z</time></trkpt><trkpt lat="43.531586285721076" lon="10.739277983094322"><ele>162.4</ele><time>2026-04-18T08:24:17Z</time></trkpt><trkpt lat="43.53166901510538" lon="10.739185111607181"><ele>160.2</ele><time>2026-04-18T08:24:18Z</time></trkpt><trkpt lat="43.53174700871439" lon="10.73910053820418"><ele>158.0</ele><time>2026-04-18T08:24:19Z</time></trkpt><trkpt lat="43.531830827746106" lon="10.739022502685653"><ele>158.0</ele><time>2026-04-18T08:24:20Z</time></trkpt><trkpt lat="43.531914101954115" lon="10.73893290014075"><ele>158.0</ele><time>2026-04-18T08:24:21Z</time></trkpt><trkpt lat="43.53199662179084" lon="10.738867856572138"><ele>158.0</ele><time>2026-04-18T08:24:22Z</time></trkpt><trkpt lat="43.53207059208633" lon="10.73880784214543"><ele>158.0</ele><time>2026-04-18T08:24:23Z</time></trkpt><trkpt lat="43.532156422774804" lon="10.73874288239585"><ele>158.0</ele><time>2026-04-18T08:24:24Z</time></trkpt><trkpt lat="43.532238858792496" lon="10.738688819120394"><ele>157.0</ele><time>2026-04-18T08:24:25Z</time></trkpt><trkpt lat="43.532321839633894" lon="10.738619836057293"><ele>156.0</ele><time>2026-04-18T08:24:26Z</time></trkpt><trkpt lat="43.5324000847" lon="10.738582620407211"><ele>155.0</ele><time>2026-04-18T08:24:27Z</time></trkpt><trkpt lat="43.53245762646527" lon="10.738531574616896"><ele>154.0</ele><time>2026-04-18T08:24:28Z</time></trkpt><trkpt lat="43.53253214158447" lon="10.738478098074662"><ele>153.0</ele><time>2026-04-18T08:24:29Z</time></trkpt><trkpt lat="43.5326004121858" lon="10.738425292084681"><ele>152.0</ele><time>2026-04-18T08:24:30Z</time></trkpt><trkpt lat="43.532666042487634" lon="10.738371228809225"><ele>152.0</ele><time>2026-04-18T08:24:31Z</time></trkpt><trkpt lat="43.532738462131036" lon="10.73831775226699"><ele>152.0</ele><time>2026-04-18T08:24:32Z</time></trkpt><trkpt lat="43.53281109132202" lon="10.738276764760482"><ele>152.0</ele><time>2026-04-18T08:24:33Z</time></trkpt><trkpt lat="43.53287672162385" lon="10.738221695656645"><ele>152.0</ele><time>2026-04-18T08:24:34Z</time></trkpt><trkpt lat="43.53293581404121" lon="10.738152796412574"><ele>152.0</ele><time>2026-04-18T08:24:35Z</time></trkpt><trkpt lat="43.53299742102952" lon="10.738091692338454"><ele>152.0</ele><time>2026-04-18T08:24:36Z</time></trkpt><trkpt lat="43.53305672299446" lon="10.738026313493716"><ele>151.33333333333331</ele><time>2026-04-18T08:24:37Z</time></trkpt><trkpt lat="43.53312277239145" lon="10.737962275753485"><ele>150.66666666666666</ele><time>2026-04-18T08:24:38Z</time></trkpt><trkpt lat="43.53318567857475" lon="10.737889856110083"><ele>150.0</ele><time>2026-04-18T08:24:39Z</time></trkpt><trkpt lat="43.533243136520994" lon="10.737829003493056"><ele>149.33333333333334</ele><time>2026-04-18T08:24:40Z</time></trkpt><trkpt lat="43.533306461799455" lon="10.737779466445312"><ele>148.66666666666669</ele><time>2026-04-18T08:24:41Z</time></trkpt><trkpt lat="43.533375863957716" lon="10.73773194105433"><ele>148.0</ele><time>2026-04-18T08:24:42Z</time></trkpt><trkpt lat="43.533454486209465" lon="10.737671256075368"><ele>147.8</ele><time>2026-04-18T08:24:43Z</time></trkpt><trkpt lat="43.53352745067657" lon="10.737630603844986"><ele>147.60000000000002</ele><time>2026-04-18T08:24:44Z</time></trkpt><trkpt lat="43.533617472316635" lon="10.737602608288393"><ele>147.39999999999998</ele><time>2026-04-18T08:24:45Z</time></trkpt><trkpt lat="43.53371214591296" lon="10.737571343789563"><ele>147.2</ele><time>2026-04-18T08:24:46Z</time></trkpt><trkpt lat="43.53380472403349" lon="10.737535804520116"><ele>147.0</ele><time>2026-04-18T08:24:47Z</time></trkpt><trkpt lat="43.53390660606654" lon="10.73749297299491"><ele>146.4</ele><time>2026-04-18T08:24:48Z</time></trkpt><trkpt lat="43.534008907194746" lon="10.73745005765067"><ele>145.79999999999998</ele><time>2026-04-18T08:24:49Z</time></trkpt><trkpt lat="43.534109699580384" lon="10.73740311899291"><ele>145.2</ele><time>2026-04-18T08:24:50Z</time></trkpt><trkpt lat="43.534203870262516" lon="10.737361209477053"><ele>144.6</ele><time>2026-04-18T08:24:51Z</time></trkpt><trkpt lat="43.534306171390725" lon="10.737297758470044"><ele>144.0</ele><time>2026-04-18T08:24:52Z</time></trkpt><trkpt lat="43.53441396266551" lon="10.737233469272718"><ele>144.0</ele><time>2026-04-18T08:24:53Z</time></trkpt><trkpt lat="43.5345259868014" lon="10.737169766808615"><ele>144.0</ele><time>2026-04-18T08:24:54Z</time></trkpt><trkpt lat="43.53465913333328" lon="10.73709768244134"><ele>144.0</ele><time>2026-04-18T08:24:55Z</time></trkpt><trkpt lat="43.53479336951257" lon="10.737034063796267"><ele>144.0</ele><time>2026-04-18T08:24:56Z</time></trkpt><trkpt lat="43.534916457760644" lon="10.736950999135837"><ele>142.5</ele><time>2026-04-18T08:24:57Z</time></trkpt><trkpt lat="43.53503640279503" lon="10.73686072603868"><ele>141.0</ele><time>2026-04-18T08:24:58Z</time></trkpt><trkpt lat="43.535152492153955" lon="10.736753437678084"><ele>139.5</ele><time>2026-04-18T08:24:59Z</time></trkpt><trkpt lat="43.53527231145979" lon="10.736650004992947"><ele>138.0</ele><time>2026-04-18T08:25:00Z</time></trkpt><trkpt lat="43.53539405860336" lon="10.736542800451383"><ele>137.5</ele><time>2026-04-18T08:25:01Z</time></trkpt><trkpt lat="43.53549929339768" lon="10.736442636708484"><ele>137.0</ele><time>2026-04-18T08:25:02Z</time></trkpt><trkpt lat="43.53560184598298" lon="10.736341383318171"><ele>136.5</ele><time>2026-04-18T08:25:03Z</time></trkpt><trkpt lat="43.53569312490852" lon="10.736251277859077"><ele>136.0</ele><time>2026-04-18T08:25:04Z</time></trkpt><trkpt lat="43.535777446854425" lon="10.736173661435709"><ele>136.0</ele><time>2026-04-18T08:25:05Z</time></trkpt><trkpt lat="43.535851920064104" lon="10.73609948159264"><ele>136.0</ele><time>2026-04-18T08:25:06Z</time></trkpt><trkpt lat="43.535925764631045" lon="10.73603100144373"><ele>136.0</ele><time>2026-04-18T08:25:06.999Z</time></trkpt><trkpt lat="43.5359901376474" lon="10.735972747216687"><ele>136.0</ele><time>2026-04-18T08:25:07.999Z</time></trkpt><trkpt lat="43.53605363056393" lon="10.735924802730544"><ele>136.0</ele><time>2026-04-18T08:25:08.999Z</time></trkpt><trkpt lat="43.53614071853788" lon="10.735862692828043"><ele>136.0</ele><time>2026-04-18T08:25:10.999Z</time></trkpt><trkpt lat="43.53621812541367" lon="10.735789434994324"><ele>134.33333333333334</ele><time>2026-04-18T08:25:12.999Z</time></trkpt><trkpt lat="43.53632830553086" lon="10.735687343413694"><ele>132.66666666666669</ele><time>2026-04-18T08:25:14.999Z</time></trkpt><trkpt lat="43.53638148870648" lon="10.735622551302178"><ele>131.0</ele><time>2026-04-18T08:25:15.999Z</time></trkpt><trkpt lat="43.536441545042706" lon="10.735560357580646"><ele>129.33333333333334</ele><time>2026-04-18T08:25:16.999Z</time></trkpt><trkpt lat="43.536496697965575" lon="10.735494727278812"><ele>127.66666666666667</ele><time>2026-04-18T08:25:17.999Z</time></trkpt><trkpt lat="43.53656186726273" lon="10.73542574421571"><ele>126.0</ele><time>2026-04-18T08:25:18.999Z</time></trkpt><trkpt lat="43.53663566992016" lon="10.735354330400689"><ele>126.0</ele><time>2026-04-18T08:25:20Z</time></trkpt><trkpt lat="43.53670637127341" lon="10.735295824716552"><ele>126.0</ele><time>2026-04-18T08:25:20.999Z</time></trkpt><trkpt lat="43.536779880564225" lon="10.735236313204034"><ele>126.0</ele><time>2026-04-18T08:25:21.999Z</time></trkpt><trkpt lat="43.536851001012636" lon="10.735174287120564"><ele>126.0</ele><time>2026-04-18T08:25:22.999Z</time></trkpt><trkpt lat="43.53692564186038" lon="10.735103627676828"><ele>126.0</ele><time>2026-04-18T08:25:23.999Z</time></trkpt><trkpt lat="43.53698280644001" lon="10.735047468925579"><ele>126.0</ele><time>2026-04-18T08:25:24.999Z</time></trkpt><trkpt lat="43.53704361714752" lon="10.734986281032427"><ele>125.33333333333333</ele><time>2026-04-18T08:25:25.999Z</time></trkpt><trkpt lat="43.53710551750244" lon="10.734927523891194"><ele>124.66666666666666</ele><time>2026-04-18T08:25:26.999Z</time></trkpt><trkpt lat="43.53716247253449" lon="10.73486968875931"><ele>124.0</ele><time>2026-04-18T08:25:27.999Z</time></trkpt><trkpt lat="43.53722370233716" lon="10.734817720959647"><ele>123.33333333333333</ele><time>2026-04-18T08:25:28.999Z</time></trkpt><trkpt lat="43.537277053150845" lon="10.734762819493874"><ele>122.66666666666666</ele><time>2026-04-18T08:25:29.999Z</time></trkpt><trkpt lat="43.53738383859725" lon="10.734665086502893"><ele>122.0</ele><time>2026-04-18T08:25:31.999Z</time></trkpt><trkpt lat="43.53744779251845" lon="10.73459702544914"><ele>121.99999999999999</ele><time>2026-04-18T08:25:32.999Z</time></trkpt><trkpt lat="43.53751455437721" lon="10.734536759565337"><ele>122.0</ele><time>2026-04-18T08:25:33.999Z</time></trkpt><trkpt lat="43.53758010086001" lon="10.734468782330616"><ele>122.0</ele><time>2026-04-18T08:25:34.999Z</time></trkpt><trkpt lat="43.53763806172044" lon="10.734392926106914"><ele>122.0</ele><time>2026-04-18T08:25:35.999Z</time></trkpt><trkpt lat="43.53769598067136" lon="10.734311034912928"><ele>121.99999999999999</ele><time>2026-04-18T08:25:36.999Z</time></trkpt><trkpt lat="43.537740530486715" lon="10.734215313578709"><ele>122.0</ele><time>2026-04-18T08:25:37.999Z</time></trkpt><trkpt lat="43.537781517993224" lon="10.734114144007428"><ele>120.19999999999999</ele><time>2026-04-18T08:25:38.999Z</time></trkpt><trkpt lat="43.537806202698064" lon="10.733999731029135"><ele>118.39999999999999</ele><time>2026-04-18T08:25:39.999Z</time></trkpt><trkpt lat="43.53782154158087" lon="10.733873080472213"><ele>116.60000000000001</ele><time>2026-04-18T08:25:40.999Z</time></trkpt><trkpt lat="43.537835036444974" lon="10.73374341243015"><ele>114.80000000000001</ele><time>2026-04-18T08:25:41.999Z</time></trkpt><trkpt lat="43.53784811221392" lon="10.733616091320973"><ele>113.0</ele><time>2026-04-18T08:25:42.999Z</time></trkpt><trkpt lat="43.537846980656994" lon="10.733488602573734"><ele>111.4</ele><time>2026-04-18T08:25:43.999Z</time></trkpt><trkpt lat="43.53783742528738" lon="10.733349379162055"><ele>109.80000000000001</ele><time>2026-04-18T08:25:44.999Z</time></trkpt><trkpt lat="43.53781982329072" lon="10.733207054446202"><ele>108.2</ele><time>2026-04-18T08:25:45.999Z</time></trkpt><trkpt lat="43.537796395871354" lon="10.733068082491618"><ele>106.6</ele><time>2026-04-18T08:25:46.999Z</time></trkpt><trkpt lat="43.537776446941805" lon="10.732929110537034"><ele>105.0</ele><time>2026-04-18T08:25:47.999Z</time></trkpt><trkpt lat="43.53775997650207" lon="10.732793323705655"><ele>103.8</ele><time>2026-04-18T08:25:48.999Z</time></trkpt><trkpt lat="43.53774530817152" lon="10.73265334592269"><ele>102.6</ele><time>2026-04-18T08:25:49.999Z</time></trkpt><trkpt lat="43.53774162013413" lon="10.732528455565435"><ele>101.4</ele><time>2026-04-18T08:25:50.999Z</time></trkpt><trkpt lat="43.53775603700758" lon="10.732400380084973"><ele>100.2</ele><time>2026-04-18T08:25:51.999Z</time></trkpt><trkpt lat="43.537768358405245" lon="10.732296528304678"><ele>99.0</ele><time>2026-04-18T08:25:52.999Z</time></trkpt><trkpt lat="43.53779782079489" lon="10.73218085804091"><ele>99.0</ele><time>2026-04-18T08:25:53.999Z</time></trkpt><trkpt lat="43.53783566508771" lon="10.732078431184153"><ele>99.0</ele><time>2026-04-18T08:25:54.999Z</time></trkpt><trkpt lat="43.53788465731175" lon="10.731971561918716"><ele>99.0</ele><time>2026-04-18T08:25:55.999Z</time></trkpt><trkpt lat="43.53793557737352" lon="10.731855388740758"><ele>99.0</ele><time>2026-04-18T08:25:56.999Z</time></trkpt><trkpt lat="43.53799345441492" lon="10.73177483865128"><ele>99.0</ele><time>2026-04-18T08:25:57.999Z</time></trkpt><trkpt lat="43.53805464230807" lon="10.73168640957282"><ele>99.0</ele><time>2026-04-18T08:25:58.999Z</time></trkpt><trkpt lat="43.538132174912406" lon="10.731618348519067"><ele>100.0</ele><time>2026-04-18T08:25:59.999Z</time></trkpt><trkpt lat="43.538233763578845" lon="10.731540229181508"><ele>101.0</ele><time>2026-04-18T08:26:00.999Z</time></trkpt><trkpt lat="43.538352954241944" lon="10.73146412150071"><ele>102.0</ele><time>2026-04-18T08:26:01.999Z</time></trkpt><trkpt lat="43.5384725640002" lon="10.731376949707727"><ele>103.0</ele><time>2026-04-18T08:26:02.999Z</time></trkpt><trkpt lat="43.53860105857582" lon="10.731291286657314"><ele>103.0</ele><time>2026-04-18T08:26:03.999Z</time></trkpt><trkpt lat="43.53871299889268" lon="10.731197912255983"><ele>103.0</ele><time>2026-04-18T08:26:04.999Z</time></trkpt><trkpt lat="43.53881483901621" lon="10.73111325503395"><ele>103.0</ele><time>2026-04-18T08:26:05.999Z</time></trkpt><trkpt lat="43.53890611794175" lon="10.731027591983537"><ele>103.0</ele><time>2026-04-18T08:26:06.999Z</time></trkpt><trkpt lat="43.53899287063958" lon="10.73092516512678"><ele>100.80000000000001</ele><time>2026-04-18T08:26:07.999Z</time></trkpt><trkpt lat="43.539075097109695" lon="10.730831120173196"><ele>98.6</ele><time>2026-04-18T08:26:08.999Z</time></trkpt><trkpt lat="43.53915946096512" lon="10.730721317241649"><ele>96.4</ele><time>2026-04-18T08:26:09.999Z</time></trkpt><trkpt lat="43.53923762221219" lon="10.730599025274376"><ele>94.19999999999999</ele><time>2026-04-18T08:26:10.999Z</time></trkpt><trkpt lat="43.539302833418866" lon="10.73048193008707"><ele>92.0</ele><time>2026-04-18T08:26:11.999Z</time></trkpt><trkpt lat="43.539366284425874" lon="10.730354608977894"><ele>92.0</ele><time>2026-04-18T08:26:12.999Z</time></trkpt><trkpt lat="43.53943451311769" lon="10.730233574296097"><ele>92.0</ele><time>2026-04-18T08:26:13.999Z</time></trkpt><trkpt lat="43.53950240653338" lon="10.730123268450358"><ele>92.0</ele><time>2026-04-18T08:26:14.999Z</time></trkpt><trkpt lat="43.53956627663555" lon="10.730025786916473"><ele>92.0</ele><time>2026-04-18T08:26:15.999Z</time></trkpt><trkpt lat="43.539636726531704" lon="10.729932747791269"><ele>92.0</ele><time>2026-04-18T08:26:16.999Z</time></trkpt><trkpt lat="43.5397189110923" lon="10.72985412553952"><ele>88.5</ele><time>2026-04-18T08:26:17.999Z</time></trkpt><trkpt lat="43.53981773373069" lon="10.729788579056718"><ele>85.0</ele><time>2026-04-18T08:26:18.999Z</time></trkpt><trkpt lat="43.5399253154579" lon="10.729713141928174"><ele>81.5</ele><time>2026-04-18T08:26:19.999Z</time></trkpt><trkpt lat="43.540034825022836" lon="10.729645667607643"><ele>78.0</ele><time>2026-04-18T08:26:20.999Z</time></trkpt><trkpt lat="43.54013993408861" lon="10.72958640755222"><ele>78.0</ele><time>2026-04-18T08:26:21.999Z</time></trkpt><trkpt lat="43.540234859142025" lon="10.729521028707483"><ele>78.0</ele><time>2026-04-18T08:26:22.999Z</time></trkpt><trkpt lat="43.54032739535304" lon="10.729480963210323"><ele>78.0</ele><time>2026-04-18T08:26:23.999Z</time></trkpt><trkpt lat="43.5404044669527" lon="10.729461517194965"><ele>78.0</ele><time>2026-04-18T08:26:24.999Z</time></trkpt><trkpt lat="43.54048308920445" lon="10.729455817500808"><ele>78.0</ele><time>2026-04-18T08:26:25.999Z</time></trkpt><trkpt lat="43.540552030358036" lon="10.729434359828689"><ele>78.0</ele><time>2026-04-18T08:26:26.999Z</time></trkpt><trkpt lat="43.540617995935996" lon="10.729415668184616"><ele>76.33333333333333</ele><time>2026-04-18T08:26:27.999Z</time></trkpt><trkpt lat="43.54068106975736" lon="10.72938406840966"><ele>74.66666666666667</ele><time>2026-04-18T08:26:28.999Z</time></trkpt><trkpt lat="43.54074556850227" lon="10.729350205520847"><ele>73.0</ele><time>2026-04-18T08:26:29.999Z</time></trkpt><trkpt lat="43.54080424182447" lon="10.729293543855407"><ele>71.33333333333334</ele><time>2026-04-18T08:26:30.999Z</time></trkpt><trkpt lat="43.540851725305934" lon="10.729216178889134"><ele>69.66666666666667</ele><time>2026-04-18T08:26:31.999Z</time></trkpt><trkpt lat="43.54090583049091" lon="10.729110315452077"><ele>68.0</ele><time>2026-04-18T08:26:32.999Z</time></trkpt><trkpt lat="43.540949667844494" lon="10.72899271735058"><ele>68.0</ele><time>2026-04-18T08:26:33.999Z</time></trkpt><trkpt lat="43.54098105807187" lon="10.72887293995426"><ele>68.0</ele><time>2026-04-18T08:26:34.999Z</time></trkpt><trkpt lat="43.54101969864549" lon="10.728754503662445"><ele>68.0</ele><time>2026-04-18T08:26:35.999Z</time></trkpt><trkpt lat="43.5410617338899" lon="10.7286169566314"><ele>68.0</ele><time>2026-04-18T08:26:36.999Z</time></trkpt><trkpt lat="43.541108714457174" lon="10.72848594748483"><ele>68.0</ele><time>2026-04-18T08:26:37.999Z</time></trkpt><trkpt lat="43.54114240970792" lon="10.72835602798567"><ele>66.6</ele><time>2026-04-18T08:26:38.999Z</time></trkpt><trkpt lat="43.541184780228456" lon="10.728228790695525"><ele>65.19999999999999</ele><time>2026-04-18T08:26:39.999Z</time></trkpt><trkpt lat="43.541233143809755" lon="10.728101721043444"><ele>63.8</ele><time>2026-04-18T08:26:40.999Z</time></trkpt><trkpt lat="43.54127652015867" lon="10.727976998324252"><ele>62.4</ele><time>2026-04-18T08:26:41.999Z</time></trkpt><trkpt lat="43.54131574746551" lon="10.727847162644125"><ele>61.0</ele><time>2026-04-18T08:26:42.999Z</time></trkpt><trkpt lat="43.54133833669456" lon="10.727686230103231"><ele>60.199999999999996</ele><time>2026-04-18T08:26:43.999Z</time></trkpt><trkpt lat="43.54135501668187" lon="10.72753225454197"><ele>59.39999999999999</ele><time>2026-04-18T08:26:44.999Z</time></trkpt><trkpt lat="43.541384898166676" lon="10.727393366406417"><ele>58.6</ele><time>2026-04-18T08:26:45.999Z</time></trkpt><trkpt lat="43.54143456094297" lon="10.727256573746658"><ele>57.8</ele><time>2026-04-18T08:26:46.999Z</time></trkpt><trkpt lat="43.54148229588153" lon="10.727118607620454"><ele>57.0</ele><time>2026-04-18T08:26:47.999Z</time></trkpt><trkpt lat="43.54154134638937" lon="10.726979048932648"><ele>57.5</ele><time>2026-04-18T08:26:48.999Z</time></trkpt><trkpt lat="43.541621770750304" lon="10.726841250444508"><ele>58.0</ele><time>2026-04-18T08:26:49.999Z</time></trkpt><trkpt lat="43.5417161090705" lon="10.726701356480575"><ele>58.5</ele><time>2026-04-18T08:26:50.999Z</time></trkpt><trkpt lat="43.541818745474835" lon="10.72655207478509"><ele>59.0</ele><time>2026-04-18T08:26:51.999Z</time></trkpt><trkpt lat="43.54191048540505" lon="10.726418383429504"><ele>59.0</ele><time>2026-04-18T08:26:52.999Z</time></trkpt><trkpt lat="43.54197741490187" lon="10.726290559406136"><ele>59.00000000000001</ele><time>2026-04-18T08:26:53.999Z</time></trkpt><trkpt lat="43.542046272236426" lon="10.726173548037861"><ele>59.00000000000001</ele><time>2026-04-18T08:26:54.999Z</time></trkpt><trkpt lat="43.54212279901238" lon="10.726062487820839"><ele>59.0</ele><time>2026-04-18T08:26:55.999Z</time></trkpt><trkpt lat="43.542190063785334" lon="10.725963665182446"><ele>59.0</ele><time>2026-04-18T08:26:56.999Z</time></trkpt><trkpt lat="43.54224328887047" lon="10.725877918313001"><ele>60.16666666666667</ele><time>2026-04-18T08:26:57.999Z</time></trkpt><trkpt lat="43.54230766188683" lon="10.72579577566192"><ele>61.333333333333336</ele><time>2026-04-18T08:26:58.999Z</time></trkpt><trkpt lat="43.542372579726894" lon="10.725714722658251"><ele>62.5</ele><time>2026-04-18T08:26:59.999Z</time></trkpt><trkpt lat="43.54242349978866" lon="10.725662084306334"><ele>63.66666666666667</ele><time>2026-04-18T08:27:00.999Z</time></trkpt><trkpt lat="43.542551742907186" lon="10.725615145648574"><ele>64.83333333333333</ele><time>2026-04-18T08:27:02.999Z</time></trkpt><trkpt lat="43.542616702656765" lon="10.725617827857588"><ele>66.0</ele><time>2026-04-18T08:27:03.999Z</time></trkpt><trkpt lat="43.54268329687746" lon="10.725603410984133"><ele>66.0</ele><time>2026-04-18T08:27:04.999Z</time></trkpt><trkpt lat="43.54274796326043" lon="10.725559992725705"><ele>66.0</ele><time>2026-04-18T08:27:05.999Z</time></trkpt><trkpt lat="43.54280961215826" lon="10.725487489263271"><ele>66.0</ele><time>2026-04-18T08:27:06.999Z</time></trkpt><trkpt lat="43.54284569625141" lon="10.725387828434561"><ele>66.0</ele><time>2026-04-18T08:27:07.999Z</time></trkpt><trkpt lat="43.54287038095625" lon="10.725285485396837"><ele>66.0</ele><time>2026-04-18T08:27:08.999Z</time></trkpt><trkpt lat="43.54288630657228" lon="10.725185237834905"><ele>66.0</ele><time>2026-04-18T08:27:09.999Z</time></trkpt><trkpt lat="43.542907177511175" lon="10.725082224244927"><ele>70.83333333333333</ele><time>2026-04-18T08:27:10.999Z</time></trkpt><trkpt lat="43.542931568849404" lon="10.724970409656619"><ele>75.66666666666667</ele><time>2026-04-18T08:27:11.999Z</time></trkpt><trkpt lat="43.54294971566977" lon="10.724836718301033"><ele>80.5</ele><time>2026-04-18T08:27:12.999Z</time></trkpt><trkpt lat="43.54297523856493" lon="10.724714761609887"><ele>85.33333333333334</ele><time>2026-04-18T08:27:13.999Z</time></trkpt><trkpt lat="43.54300700597795" lon="10.724626332531427"><ele>90.16666666666667</ele><time>2026-04-18T08:27:14.999Z</time></trkpt><trkpt lat="43.54305826131584" lon="10.72454636917517"><ele>95.0</ele><time>2026-04-18T08:27:15.999Z</time></trkpt><trkpt lat="43.543120664584954" lon="10.724488869319412"><ele>95.0</ele><time>2026-04-18T08:27:16.999Z</time></trkpt><trkpt lat="43.543198867741545" lon="10.724437236795875"><ele>95.0</ele><time>2026-04-18T08:27:17.999Z</time></trkpt><trkpt lat="43.54328633290114" lon="10.724385352815244"><ele>95.0</ele><time>2026-04-18T08:27:18.999Z</time></trkpt><trkpt lat="43.54336633816691" lon="10.724330283711407"><ele>95.0</ele><time>2026-04-18T08:27:19.999Z</time></trkpt><trkpt lat="43.54343087882133" lon="10.724248308698389"><ele>95.0</ele><time>2026-04-18T08:27:20.999Z</time></trkpt><trkpt lat="43.54347454853686" lon="10.724147809679362"><ele>95.0</ele><time>2026-04-18T08:27:21.999Z</time></trkpt><trkpt lat="43.54351121936323" lon="10.72403775529072"><ele>95.5</ele><time>2026-04-18T08:27:22.999Z</time></trkpt><trkpt lat="43.54354914747508" lon="10.723933400596234"><ele>96.0</ele><time>2026-04-18T08:27:23.999Z</time></trkpt><trkpt lat="43.543589715886434" lon="10.723836086700413"><ele>96.5</ele><time>2026-04-18T08:27:24.999Z</time></trkpt><trkpt lat="43.54364532981398" lon="10.723757212991568"><ele>97.0</ele><time>2026-04-18T08:27:25.999Z</time></trkpt><trkpt lat="43.54371008001598" lon="10.723676579083058"><ele>97.49999999999999</ele><time>2026-04-18T08:27:26.999Z</time></trkpt><trkpt lat="43.54377583604636" lon="10.723588569099757"><ele>98.0</ele><time>2026-04-18T08:27:27.999Z</time></trkpt><trkpt lat="43.54385253046038" lon="10.723491674299094"><ele>101.16666666666666</ele><time>2026-04-18T08:27:28.999Z</time></trkpt><trkpt lat="43.54392587211313" lon="10.723399221907112"><ele>104.33333333333333</ele><time>2026-04-18T08:27:29.999Z</time></trkpt><trkpt lat="43.543980228755196" lon="10.723315486694428"><ele>107.5</ele><time>2026-04-18T08:27:30.999Z</time></trkpt><trkpt lat="43.54402083907606" lon="10.723234768966886"><ele>110.66666666666666</ele><time>2026-04-18T08:27:31.999Z</time></trkpt><trkpt lat="43.544049044180234" lon="10.7231563143532"><ele>113.83333333333333</ele><time>2026-04-18T08:27:32.999Z</time></trkpt><trkpt lat="43.54408408053549" lon="10.723038297156545"><ele>117.0</ele><time>2026-04-18T08:27:34.999Z</time></trkpt><trkpt lat="43.54410939388307" lon="10.72293343954787"><ele>117.0</ele><time>2026-04-18T08:27:36.999Z</time></trkpt><trkpt lat="43.54414317295285" lon="10.72283134796724"><ele>117.0</ele><time>2026-04-18T08:27:39.999Z</time></trkpt><trkpt lat="43.54417799976053" lon="10.722712241123173"><ele>117.0</ele><time>2026-04-18T08:27:41.999Z</time></trkpt><trkpt lat="43.5442072526026" lon="10.722623141492459"><ele>117.0</ele><time>2026-04-18T08:27:42.999Z</time></trkpt><trkpt lat="43.54424270805301" lon="10.722531108195634"><ele>117.0</ele><time>2026-04-18T08:27:43.999Z</time></trkpt><trkpt lat="43.54428004943164" lon="10.722436392689795"><ele>117.0</ele><time>2026-04-18T08:27:44.999Z</time></trkpt><trkpt lat="43.54431516960593" lon="10.722353663305492"><ele>117.5</ele><time>2026-04-18T08:27:45.999Z</time></trkpt><trkpt lat="43.544350331689735" lon="10.722269592816682"><ele>118.0</ele><time>2026-04-18T08:27:46.999Z</time></trkpt><trkpt lat="43.54438972663464" lon="10.722189126546235"><ele>118.5</ele><time>2026-04-18T08:27:47.999Z</time></trkpt><trkpt lat="43.544457787688394" lon="10.722055183733554"><ele>119.0</ele><time>2026-04-18T08:27:49.999Z</time></trkpt><trkpt lat="43.54448917791577" lon="10.721972705806346"><ele>119.5</ele><time>2026-04-18T08:27:50.999Z</time></trkpt><trkpt lat="43.544539008330126" lon="10.721895424659104"><ele>120.0</ele><time>2026-04-18T08:27:51.999Z</time></trkpt><trkpt lat="43.54460329752745" lon="10.721836751336904"><ele>120.0</ele><time>2026-04-18T08:27:52.999Z</time></trkpt><trkpt lat="43.54466331195416" lon="10.7217696122925"><ele>120.0</ele><time>2026-04-18T08:27:53.999Z</time></trkpt><trkpt lat="43.544738036620934" lon="10.72169979103908"><ele>120.0</ele><time>2026-04-18T08:27:54.999Z</time></trkpt><trkpt lat="43.54481427003028" lon="10.721645308668466"><ele>120.0</ele><time>2026-04-18T08:27:55.999Z</time></trkpt><trkpt lat="43.544894233386536" lon="10.721582360575647"><ele>120.0</ele><time>2026-04-18T08:27:56.999Z</time></trkpt><trkpt lat="43.544981153722425" lon="10.721540115783663"><ele>120.0</ele><time>2026-04-18T08:27:57.999Z</time></trkpt><trkpt lat="43.545064721297045" lon="10.72151111439869"><ele>120.0</ele><time>2026-04-18T08:27:58.999Z</time></trkpt><trkpt lat="43.54513944596382" lon="10.721483202661128"><ele>120.0</ele><time>2026-04-18T08:27:59.999Z</time></trkpt><trkpt lat="43.54521329053076" lon="10.721444981182666"><ele>120.0</ele><time>2026-04-18T08:28:00.999Z</time></trkpt><trkpt lat="43.5452744365144" lon="10.721409274275155"><ele>120.0</ele><time>2026-04-18T08:28:01.999Z</time></trkpt><trkpt lat="43.545348909724076" lon="10.721363760540934"><ele>120.0</ele><time>2026-04-18T08:28:02.999Z</time></trkpt><trkpt lat="43.54541542012574" lon="10.721332915137262"><ele>120.0</ele><time>2026-04-18T08:28:03.999Z</time></trkpt><trkpt lat="43.545486917759796" lon="10.7212981302391"><ele>119.5</ele><time>2026-04-18T08:28:04.999Z</time></trkpt><trkpt lat="43.54555665519418" lon="10.721263848255129"><ele>119.0</ele><time>2026-04-18T08:28:05.999Z</time></trkpt><trkpt lat="43.545622285496016" lon="10.721222106377335"><ele>118.5</ele><time>2026-04-18T08:28:06.999Z</time></trkpt><trkpt lat="43.54573745284559" lon="10.721158990646453"><ele>118.0</ele><time>2026-04-18T08:28:08.999Z</time></trkpt><trkpt lat="43.545795204158445" lon="10.721076847995372"><ele>117.5</ele><time>2026-04-18T08:28:10.999Z</time></trkpt><trkpt lat="43.545753923285325" lon="10.720969308177681"><ele>117.0</ele><time>2026-04-18T08:28:12.999Z</time></trkpt><trkpt lat="43.545653549994846" lon="10.720879789451809"><ele>117.66666666666667</ele><time>2026-04-18T08:28:14.999Z</time></trkpt><trkpt lat="43.5455860337648" lon="10.720817595730276"><ele>118.33333333333334</ele><time>2026-04-18T08:28:15.999Z</time></trkpt><trkpt lat="43.545510890002866" lon="10.720765125016422"><ele>119.0</ele><time>2026-04-18T08:28:16.999Z</time></trkpt><trkpt lat="43.54543666825028" lon="10.720728999013753"><ele>119.66666666666667</ele><time>2026-04-18T08:28:17.999Z</time></trkpt><trkpt lat="43.545357333536764" lon="10.720693040649147"><ele>120.33333333333334</ele><time>2026-04-18T08:28:18.999Z</time></trkpt><trkpt lat="43.545272131491025" lon="10.72067619302377"><ele>121.0</ele><time>2026-04-18T08:28:19.999Z</time></trkpt><trkpt lat="43.5451888153735" lon="10.72065121495232"><ele>121.00000000000001</ele><time>2026-04-18T08:28:20.999Z</time></trkpt><trkpt lat="43.54511203714045" lon="10.720603019009083"><ele>121.0</ele><time>2026-04-18T08:28:21.999Z</time></trkpt><trkpt lat="43.54504657447668" lon="10.720535125593393"><ele>121.0</ele><time>2026-04-18T08:28:22.999Z</time></trkpt><trkpt lat="43.54501178957852" lon="10.720456503341644"><ele>121.0</ele><time>2026-04-18T08:28:23.999Z</time></trkpt><trkpt lat="43.54505013678553" lon="10.720357345427125"><ele>121.00000000000001</ele><time>2026-04-18T08:28:24.999Z</time></trkpt><trkpt lat="43.54510009292843" lon="10.720261372635811"><ele>121.0</ele><time>2026-04-18T08:28:25.999Z</time></trkpt><trkpt lat="43.54516278956415" lon="10.720156095931976"><ele>120.5</ele><time>2026-04-18T08:28:26.999Z</time></trkpt><trkpt lat="43.54524648286732" lon="10.720035899440497"><ele>120.0</ele><time>2026-04-18T08:28:27.999Z</time></trkpt><trkpt lat="43.54532984089436" lon="10.719921905557364"><ele>119.5</ele><time>2026-04-18T08:28:28.999Z</time></trkpt><trkpt lat="43.54543264493676" lon="10.719815623025148"><ele>119.0</ele><time>2026-04-18T08:28:29.999Z</time></trkpt><trkpt lat="43.545547728467305" lon="10.719737252230495"><ele>119.0</ele><time>2026-04-18T08:28:30.999Z</time></trkpt><trkpt lat="43.54567613922389" lon="10.719677153984755"><ele>119.0</ele><time>2026-04-18T08:28:31.999Z</time></trkpt><trkpt lat="43.545794491696675" lon="10.71962560528025"><ele>119.0</ele><time>2026-04-18T08:28:32.999Z</time></trkpt><trkpt lat="43.54592051361086" lon="10.719574475670903"><ele>119.0</ele><time>2026-04-18T08:28:33.999Z</time></trkpt><trkpt lat="43.546031238551755" lon="10.71952200495705"><ele>119.0</ele><time>2026-04-18T08:28:34.999Z</time></trkpt><trkpt lat="43.54614565720097" lon="10.719498786951062"><ele>119.0</ele><time>2026-04-18T08:28:35.999Z</time></trkpt><trkpt lat="43.54625169810077" lon="10.71945071703797"><ele>119.0</ele><time>2026-04-18T08:28:36.999Z</time></trkpt><trkpt lat="43.54635286580065" lon="10.719406227256872"><ele>119.0</ele><time>2026-04-18T08:28:37.999Z</time></trkpt><trkpt lat="43.54644390797113" lon="10.719368055036618"><ele>119.0</ele><time>2026-04-18T08:28:38.999Z</time></trkpt><trkpt lat="43.54651093487026" lon="10.719336597258895"><ele>117.2</ele><time>2026-04-18T08:28:39.999Z</time></trkpt><trkpt lat="43.54660640474739" lon="10.719353612522333"><ele>115.4</ele><time>2026-04-18T08:28:41.999Z</time></trkpt><trkpt lat="43.546675094443884" lon="10.719375237832516"><ele>113.6</ele><time>2026-04-18T08:28:59.999Z</time></trkpt><trkpt lat="43.546794138087634" lon="10.719384202929644"><ele>111.8</ele><time>2026-04-18T08:29:02.999Z</time></trkpt><trkpt lat="43.54685861657918" lon="10.719391580845546"><ele>110.0</ele><time>2026-04-18T08:29:03.999Z</time></trkpt><trkpt lat="43.54698229964379" lon="10.71939215991175"><ele>109.6</ele><time>2026-04-18T08:29:05.999Z</time></trkpt><trkpt lat="43.54704958282645" lon="10.719386467987302"><ele>109.2</ele><time>2026-04-18T08:29:06.999Z</time></trkpt><trkpt lat="43.547133272958575" lon="10.719378429195569"><ele>108.80000000000001</ele><time>2026-04-18T08:29:07.999Z</time></trkpt><trkpt lat="43.547236358289936" lon="10.719370187733498"><ele>108.4</ele><time>2026-04-18T08:29:08.999Z</time></trkpt><trkpt lat="43.54734170720312" lon="10.719322096566408"><ele>108.0</ele><time>2026-04-18T08:29:09.999Z</time></trkpt><trkpt lat="43.54745327033433" lon="10.71932025254771"><ele>108.0</ele><time>2026-04-18T08:29:10.999Z</time></trkpt><trkpt lat="43.54756093588057" lon="10.719313714663237"><ele>108.00000000000001</ele><time>2026-04-18T08:29:11.999Z</time></trkpt><trkpt lat="43.54766034525218" lon="10.719315055767744"><ele>108.00000000000001</ele><time>2026-04-18T08:29:12.999Z</time></trkpt><trkpt lat="43.547761598642495" lon="10.719310194263905"><ele>108.0</ele><time>2026-04-18T08:29:13.999Z</time></trkpt><trkpt lat="43.54784998581144" lon="10.719325700784772"><ele>108.0</ele><time>2026-04-18T08:29:14.999Z</time></trkpt><trkpt lat="43.547947467345324" lon="10.719325533146709"><ele>109.2</ele><time>2026-04-18T08:29:15.999Z</time></trkpt><trkpt lat="43.54804059028956" lon="10.719319330538362"><ele>110.4</ele><time>2026-04-18T08:29:16.999Z</time></trkpt><trkpt lat="43.54813568298104" lon="10.71931488812968"><ele>111.60000000000001</ele><time>2026-04-18T08:29:17.999Z</time></trkpt><trkpt lat="43.54823727164748" lon="10.719313211749046"><ele>112.80000000000001</ele><time>2026-04-18T08:29:18.999Z</time></trkpt><trkpt lat="43.54835231326851" lon="10.719305668036192"><ele>114.0</ele><time>2026-04-18T08:29:19.999Z</time></trkpt><trkpt lat="43.54845813479605" lon="10.719301812360733"><ele>114.0</ele><time>2026-04-18T08:29:20.999Z</time></trkpt><trkpt lat="43.54857091330322" lon="10.719301057989448"><ele>114.0</ele><time>2026-04-18T08:29:21.999Z</time></trkpt><trkpt lat="43.548686625476506" lon="10.719305919493287"><ele>114.0</ele><time>2026-04-18T08:29:22.999Z</time></trkpt><trkpt lat="43.548812395933595" lon="10.719324024404138"><ele>114.0</ele><time>2026-04-18T08:29:23.999Z</time></trkpt><trkpt lat="43.548944746184674" lon="10.719358474026173"><ele>118.80000000000001</ele><time>2026-04-18T08:29:24.999Z</time></trkpt><trkpt lat="43.549070097546604" lon="10.719405077407806"><ele>123.60000000000001</ele><time>2026-04-18T08:29:25.999Z</time></trkpt><trkpt lat="43.54917679917398" lon="10.7194624096255"><ele>128.4</ele><time>2026-04-18T08:29:26.999Z</time></trkpt><trkpt lat="43.54926623408082" lon="10.719532733793109"><ele>133.20000000000002</ele><time>2026-04-18T08:29:27.999Z</time></trkpt><trkpt lat="43.5493407072905" lon="10.719625772918313"><ele>138.0</ele><time>2026-04-18T08:29:28.999Z</time></trkpt><trkpt lat="43.54939669840368" lon="10.719718392948359"><ele>138.0</ele><time>2026-04-18T08:29:29.999Z</time></trkpt><trkpt lat="43.549453946802345" lon="10.719815623025148"><ele>138.0</ele><time>2026-04-18T08:29:30.999Z</time></trkpt><trkpt lat="43.54951048273924" lon="10.719909416521638"><ele>138.0</ele><time>2026-04-18T08:29:31.999Z</time></trkpt><trkpt lat="43.549573640379634" lon="10.720001198361366"><ele>138.0</ele><time>2026-04-18T08:29:32.999Z</time></trkpt><trkpt lat="43.549626236822036" lon="10.720104631046503"><ele>138.0</ele><time>2026-04-18T08:29:33.999Z</time></trkpt><trkpt lat="43.54966646995726" lon="10.720230191956013"><ele>136.0</ele><time>2026-04-18T08:29:34.999Z</time></trkpt><trkpt lat="43.54969890792253" lon="10.720362542207091"><ele>134.0</ele><time>2026-04-18T08:29:35.999Z</time></trkpt><trkpt lat="43.54969056792888" lon="10.720514589930623"><ele>132.0</ele><time>2026-04-18T08:29:36.999Z</time></trkpt><trkpt lat="43.54969178330484" lon="10.720669906596392"><ele>130.0</ele><time>2026-04-18T08:29:37.999Z</time></trkpt><trkpt lat="43.549690903205004" lon="10.720820026482196"><ele>128.0</ele><time>2026-04-18T08:29:38.999Z</time></trkpt><trkpt lat="43.54967401367011" lon="10.720971655110569"><ele>129.20000000000002</ele><time>2026-04-18T08:29:39.999Z</time></trkpt><trkpt lat="43.5496652545813" lon="10.721095204363317"><ele>130.4</ele><time>2026-04-18T08:29:40.999Z</time></trkpt><trkpt lat="43.54965209499332" lon="10.72120182217166"><ele>131.60000000000002</ele><time>2026-04-18T08:29:41.999Z</time></trkpt><trkpt lat="43.549602683674124" lon="10.721342386687846"><ele>132.8</ele><time>2026-04-18T08:29:43.999Z</time></trkpt><trkpt lat="43.549580010626045" lon="10.72148236447081"><ele>134.0</ele><time>2026-04-18T08:29:45.999Z</time></trkpt><trkpt lat="43.5495901946384" lon="10.721572386110873"><ele>134.0</ele><time>2026-04-18T08:29:46.999Z</time></trkpt><trkpt lat="43.54960343804541" lon="10.721665341417046"><ele>134.0</ele><time>2026-04-18T08:29:47.999Z</time></trkpt><trkpt lat="43.54964995760801" lon="10.72179459036395"><ele>134.0</ele><time>2026-04-18T08:29:48.999Z</time></trkpt><trkpt lat="43.54967162482771" lon="10.721903136010022"><ele>134.0</ele><time>2026-04-18T08:29:49.999Z</time></trkpt><trkpt lat="43.54972237725141" lon="10.722031462947578"><ele>134.0</ele><time>2026-04-18T08:29:50.999Z</time></trkpt><trkpt lat="43.54976298757228" lon="10.722158700237722"><ele>133.75</ele><time>2026-04-18T08:29:51.999Z</time></trkpt><trkpt lat="43.54981935587111" lon="10.72228903883204"><ele>133.5</ele><time>2026-04-18T08:29:52.999Z</time></trkpt><trkpt lat="43.54986382186743" lon="10.722423065463753"><ele>133.25</ele><time>2026-04-18T08:29:53.999Z</time></trkpt><trkpt lat="43.549842950928536" lon="10.722597911963913"><ele>133.0</ele><time>2026-04-18T08:29:54.999Z</time></trkpt><trkpt lat="43.54983494621101" lon="10.722757251943204"><ele>133.0</ele><time>2026-04-18T08:29:55.999Z</time></trkpt><trkpt lat="43.54985665534022" lon="10.722922962168905"><ele>133.0</ele><time>2026-04-18T08:29:56.999Z</time></trkpt><trkpt lat="43.549910550977614" lon="10.723098898316476"><ele>133.0</ele><time>2026-04-18T08:29:57.999Z</time></trkpt><trkpt lat="43.54995816018763" lon="10.723274583006951"><ele>133.0</ele><time>2026-04-18T08:29:58.999Z</time></trkpt><trkpt lat="43.54998892177227" lon="10.723449094230983"><ele>130.25</ele><time>2026-04-18T08:29:59.999Z</time></trkpt><trkpt lat="43.550020814913836" lon="10.723628969873044"><ele>127.5</ele><time>2026-04-18T08:30:00.999Z</time></trkpt><trkpt lat="43.55006507136258" lon="10.723797278488728"><ele>124.75</ele><time>2026-04-18T08:30:01.999Z</time></trkpt><trkpt lat="43.550129989202645" lon="10.723958546305749"><ele>122.0</ele><time>2026-04-18T08:30:02.999Z</time></trkpt><trkpt lat="43.550186944234696" lon="10.724101122478697"><ele>122.0</ele><time>2026-04-18T08:30:03.999Z</time></trkpt><trkpt lat="43.55024666529479" lon="10.724250739450309"><ele>122.0</ele><time>2026-04-18T08:30:04.999Z</time></trkpt><trkpt lat="43.5503679933432" lon="10.724284267062995"><ele>122.0</ele><time>2026-04-18T08:30:05.999Z</time></trkpt><trkpt lat="43.550489363301125" lon="10.724329864616248"><ele>122.0</ele><time>2026-04-18T08:30:06.999Z</time></trkpt><trkpt lat="43.55058571327808" lon="10.724383592615577"><ele>115.66666666666666</ele><time>2026-04-18T08:30:07.999Z</time></trkpt><trkpt lat="43.55067963250312" lon="10.724449055279347"><ele>109.33333333333334</ele><time>2026-04-18T08:30:08.999Z</time></trkpt><trkpt lat="43.55089278430077" lon="10.724443607042286"><ele>103.0</ele><time>2026-04-18T08:30:09.999Z</time></trkpt><trkpt lat="43.55107559360894" lon="10.724460370848629"><ele>102.33333333333334</ele><time>2026-04-18T08:30:10.999Z</time></trkpt><trkpt lat="43.55122705459925" lon="10.724502867097709"><ele>101.66666666666666</ele><time>2026-04-18T08:30:11.999Z</time></trkpt><trkpt lat="43.55138002433213" lon="10.724527174616908"><ele>101.0</ele><time>2026-04-18T08:30:13.004Z</time></trkpt><trkpt lat="43.55152633045199" lon="10.724547123546456"><ele>101.0</ele><time>2026-04-18T08:30:14.004Z</time></trkpt><trkpt lat="43.55166785888704" lon="10.72459816933677"><ele>101.0</ele><time>2026-04-18T08:30:15.003Z</time></trkpt><trkpt lat="43.551824977661994" lon="10.724616860980843"><ele>101.0</ele><time>2026-04-18T08:30:16.003Z</time></trkpt><trkpt lat="43.55200045280489" lon="10.724604120488022"><ele>99.0</ele><time>2026-04-18T08:30:17.003Z</time></trkpt><trkpt lat="43.55218196291807" lon="10.724572017798875"><ele>97.0</ele><time>2026-04-18T08:30:18.003Z</time></trkpt><trkpt lat="43.55236238338384" lon="10.724545195708727"><ele>95.0</ele><time>2026-04-18T08:30:19.003Z</time></trkpt><trkpt lat="43.552543809677985" lon="10.724550895402883"><ele>95.0</ele><time>2026-04-18T08:30:20.002Z</time></trkpt><trkpt lat="43.55273093566629" lon="10.724584590653633"><ele>95.0</ele><time>2026-04-18T08:30:21.002Z</time></trkpt><trkpt lat="43.55292723983857" lon="10.724631696949457"><ele>95.0</ele><time>2026-04-18T08:30:22.002Z</time></trkpt><trkpt lat="43.55311641939315" lon="10.724676037217234"><ele>92.0</ele><time>2026-04-18T08:30:23.002Z</time></trkpt><trkpt lat="43.55331372939381" lon="10.724725909541105"><ele>89.0</ele><time>2026-04-18T08:30:24.002Z</time></trkpt><trkpt lat="43.55349720925423" lon="10.724762119362806"><ele>86.0</ele><time>2026-04-18T08:30:25.002Z</time></trkpt><trkpt lat="43.55367876127693" lon="10.724803023050283"><ele>84.33333333333334</ele><time>2026-04-18T08:30:26.002Z</time></trkpt><trkpt lat="43.5538510093871" lon="10.7248712517421"><ele>82.66666666666667</ele><time>2026-04-18T08:30:27.001Z</time></trkpt><trkpt lat="43.55403285477641" lon="10.724890446300362"><ele>81.0</ele><time>2026-04-18T08:30:28.001Z</time></trkpt><trkpt lat="43.55421482589427" lon="10.724898576746439"><ele>81.0</ele><time>2026-04-18T08:30:29.001Z</time></trkpt><trkpt lat="43.55440727439109" lon="10.724892709414219"><ele>81.0</ele><time>2026-04-18T08:30:30.001Z</time></trkpt><trkpt lat="43.55459930379275" lon="10.724890446300362"><ele>81.0</ele><time>2026-04-18T08:30:31.001Z</time></trkpt><trkpt lat="43.554790872189734" lon="10.724875777969812"><ele>78.0</ele><time>2026-04-18T08:30:32.001Z</time></trkpt><trkpt lat="43.55497812390659" lon="10.724862115467642"><ele>75.0</ele><time>2026-04-18T08:30:33.001Z</time></trkpt><trkpt lat="43.55515552688721" lon="10.72485708632574"><ele>72.0</ele><time>2026-04-18T08:30:34.001Z</time></trkpt><trkpt lat="43.555326978716586" lon="10.724855326126074"><ele>70.33333333333333</ele><time>2026-04-18T08:30:35.001Z</time></trkpt><trkpt lat="43.55550651908252" lon="10.724858427430247"><ele>68.66666666666666</ele><time>2026-04-18T08:30:36.001Z</time></trkpt><trkpt lat="43.55568886738602" lon="10.724853482107376"><ele>67.0</ele><time>2026-04-18T08:30:37.001Z</time></trkpt><trkpt lat="43.555860989767645" lon="10.724876951436256"><ele>67.0</ele><time>2026-04-18T08:30:38.001Z</time></trkpt><trkpt lat="43.55603273496363" lon="10.724926656122063"><ele>67.0</ele><time>2026-04-18T08:30:39.001Z</time></trkpt><trkpt lat="43.55620091785077" lon="10.72498122231171"><ele>67.0</ele><time>2026-04-18T08:30:40Z</time></trkpt><trkpt lat="43.55637287259433" lon="10.725050205374812"><ele>66.33333333333333</ele><time>2026-04-18T08:30:41Z</time></trkpt><trkpt lat="43.55655228723172" lon="10.725117344419216"><ele>65.66666666666667</ele><time>2026-04-18T08:30:42Z</time></trkpt><trkpt lat="43.55674347844306" lon="10.725181382159446"><ele>65.0</ele><time>2026-04-18T08:30:43Z</time></trkpt><trkpt lat="43.55694460220966" lon="10.725269643599843"><ele>60.0</ele><time>2026-04-18T08:30:44Z</time></trkpt><trkpt lat="43.557145181152556" lon="10.725392019386147"><ele>55.0</ele><time>2026-04-18T08:30:45Z</time></trkpt><trkpt lat="43.55733067266974" lon="10.725545659671281"><ele>50.0</ele><time>2026-04-18T08:30:46Z</time></trkpt><trkpt lat="43.55749508370045" lon="10.725740119824861"><ele>50.0</ele><time>2026-04-18T08:30:47Z</time></trkpt><trkpt lat="43.557654717046354" lon="10.725962156439875"><ele>50.0</ele><time>2026-04-18T08:30:48Z</time></trkpt><trkpt lat="43.557794233824644" lon="10.72617740371332"><ele>50.0</ele><time>2026-04-18T08:30:49Z</time></trkpt><trkpt lat="43.55792528488073" lon="10.72639038787291"><ele>50.66666666666667</ele><time>2026-04-18T08:30:50Z</time></trkpt><trkpt lat="43.55804799594316" lon="10.726600270728326"><ele>51.33333333333333</ele><time>2026-04-18T08:30:51Z</time></trkpt><trkpt lat="43.55817267675284" lon="10.726800682033158"><ele>52.0</ele><time>2026-04-18T08:30:52Z</time></trkpt><trkpt lat="43.55829157404933" lon="10.727007631222463"><ele>50.33333333333333</ele><time>2026-04-18T08:30:53Z</time></trkpt><trkpt lat="43.558416548225615" lon="10.72721173056469"><ele>48.666666666666664</ele><time>2026-04-18T08:30:54Z</time></trkpt><trkpt lat="43.55855137113813" lon="10.727418512115932"><ele>47.0</ele><time>2026-04-18T08:30:55Z</time></trkpt><trkpt lat="43.55868590068403" lon="10.727628394971347"><ele>47.0</ele><time>2026-04-18T08:30:56Z</time></trkpt><trkpt lat="43.55882210661057" lon="10.72783769109354"><ele>47.0</ele><time>2026-04-18T08:30:57Z</time></trkpt><trkpt lat="43.55895131364796" lon="10.728062996650792"><ele>47.0</ele><time>2026-04-18T08:30:58Z</time></trkpt><trkpt lat="43.55909921232942" lon="10.728282518694854"><ele>47.0</ele><time>2026-04-18T08:30:59Z</time></trkpt><trkpt lat="43.559253355528746" lon="10.728522492582657"><ele>47.0</ele><time>2026-04-18T08:31:00Z</time></trkpt><trkpt lat="43.559407666366134" lon="10.72876447812722"><ele>46.0</ele><time>2026-04-18T08:31:01Z</time></trkpt><trkpt lat="43.55956009127531" lon="10.729006044576623"><ele>45.0</ele><time>2026-04-18T08:31:02Z</time></trkpt><trkpt lat="43.559721610549424" lon="10.729259261871436"><ele>45.0</ele><time>2026-04-18T08:31:03Z</time></trkpt><trkpt lat="43.55988551866594" lon="10.729520106698134"><ele>45.0</ele><time>2026-04-18T08:31:04Z</time></trkpt><trkpt lat="43.560049301053915" lon="10.729784807200291"><ele>45.0</ele><time>2026-04-18T08:31:05Z</time></trkpt><trkpt lat="43.56019791219715" lon="10.73004816659794"><ele>45.0</ele><time>2026-04-18T08:31:06Z</time></trkpt><trkpt lat="43.560363538603816" lon="10.730311106900434"><ele>45.0</ele><time>2026-04-18T08:31:07Z</time></trkpt><trkpt lat="43.56052853636775" lon="10.730576142678718"><ele>45.0</ele><time>2026-04-18T08:31:08Z</time></trkpt><trkpt lat="43.56069110337976" lon="10.730837909514765"><ele>46.0</ele><time>2026-04-18T08:31:09Z</time></trkpt><trkpt lat="43.560852329287265" lon="10.73110395112143"><ele>47.0</ele><time>2026-04-18T08:31:10Z</time></trkpt><trkpt lat="43.56101305228058" lon="10.731369992728094"><ele>47.0</ele><time>2026-04-18T08:31:11Z</time></trkpt><trkpt lat="43.561175996478234" lon="10.731628071526746"><ele>47.0</ele><time>2026-04-18T08:31:12Z</time></trkpt><trkpt lat="43.56133571364317" lon="10.73188673705862"><ele>46.0</ele><time>2026-04-18T08:31:13Z</time></trkpt><trkpt lat="43.56149928648356" lon="10.732139032344085"><ele>45.0</ele><time>2026-04-18T08:31:14Z</time></trkpt><trkpt lat="43.561661224852834" lon="10.732389651248914"><ele>45.0</ele><time>2026-04-18T08:31:15Z</time></trkpt><trkpt lat="43.561812350567024" lon="10.73264010251568"><ele>45.0</ele><time>2026-04-18T08:31:16Z</time></trkpt><trkpt lat="43.56197122954164" lon="10.732893487448555"><ele>46.0</ele><time>2026-04-18T08:31:17Z</time></trkpt><trkpt lat="43.562127593945306" lon="10.73314343580113"><ele>47.0</ele><time>2026-04-18T08:31:18Z</time></trkpt><trkpt lat="43.562280689406734" lon="10.733396653095943"><ele>47.0</ele><time>2026-04-18T08:31:19Z</time></trkpt><trkpt lat="43.56243135411624" lon="10.733646349991423"><ele>47.0</ele><time>2026-04-18T08:31:20Z</time></trkpt><trkpt lat="43.5626011714745" lon="10.733896549801093"><ele>47.0</ele><time>2026-04-18T08:31:21Z</time></trkpt><trkpt lat="43.56275766160671" lon="10.73414993473397"><ele>47.0</ele><time>2026-04-18T08:31:22Z</time></trkpt><trkpt lat="43.56291050561104" lon="10.734410779560669"><ele>47.5</ele><time>2026-04-18T08:31:23Z</time></trkpt><trkpt lat="43.56305350087915" lon="10.734678162271841"><ele>48.0</ele><time>2026-04-18T08:31:24Z</time></trkpt><trkpt lat="43.56318622831587" lon="10.734956022361978"><ele>47.5</ele><time>2026-04-18T08:31:25Z</time></trkpt><trkpt lat="43.563304371241074" lon="10.735244695107205"><ele>47.0</ele><time>2026-04-18T08:31:25.999Z</time></trkpt><trkpt lat="43.563427375670116" lon="10.735526913786991"><ele>47.0</ele><time>2026-04-18T08:31:26.999Z</time></trkpt><trkpt lat="43.563553858588975" lon="10.735808461914523"><ele>47.0</ele><time>2026-04-18T08:31:27.999Z</time></trkpt><trkpt lat="43.56367459990416" lon="10.736093195165262"><ele>47.5</ele><time>2026-04-18T08:31:28.999Z</time></trkpt><trkpt lat="43.56379094072018" lon="10.736378598968253"><ele>48.0</ele><time>2026-04-18T08:31:29.999Z</time></trkpt><trkpt lat="43.5639056889746" lon="10.736667774627671"><ele>48.0</ele><time>2026-04-18T08:31:30.999Z</time></trkpt><trkpt lat="43.56402140114788" lon="10.736956279734835"><ele>48.0</ele><time>2026-04-18T08:31:31.999Z</time></trkpt><trkpt lat="43.56414281301532" lon="10.737227266664371"><ele>48.0</ele><time>2026-04-18T08:31:32.999Z</time></trkpt><trkpt lat="43.5642595729265" lon="10.73749984615551"><ele>48.0</ele><time>2026-04-18T08:31:33.999Z</time></trkpt><trkpt lat="43.56437142942433" lon="10.737757589678035"><ele>48.0</ele><time>2026-04-18T08:31:34.999Z</time></trkpt><trkpt lat="43.56447306000028" lon="10.738000916327106"><ele>48.33333333333333</ele><time>2026-04-18T08:31:35.999Z</time></trkpt><trkpt lat="43.56457280464802" lon="10.738224964598881"><ele>48.666666666666664</ele><time>2026-04-18T08:31:36.999Z</time></trkpt><trkpt lat="43.56466521513049" lon="10.738431410873996"><ele>49.0</ele><time>2026-04-18T08:31:37.999Z</time></trkpt><trkpt lat="43.56476579796855" lon="10.738613968725073"><ele>49.5</ele><time>2026-04-18T08:31:38.999Z</time></trkpt><trkpt lat="43.56485967528407" lon="10.73877263815211"><ele>50.0</ele><time>2026-04-18T08:31:39.999Z</time></trkpt><trkpt lat="43.564950870390575" lon="10.738920997838246"><ele>50.5</ele><time>2026-04-18T08:31:40.999Z</time></trkpt><trkpt lat="43.56502023063932" lon="10.739073297018873"><ele>51.0</ele><time>2026-04-18T08:31:41.999Z</time></trkpt><trkpt lat="43.565058116841655" lon="10.739229284236895"><ele>51.0</ele><time>2026-04-18T08:31:42.999Z</time></trkpt><trkpt lat="43.56505258478556" lon="10.739380242313015"><ele>51.0</ele><time>2026-04-18T08:31:43.999Z</time></trkpt><trkpt lat="43.565005520399254" lon="10.73953145184623"><ele>51.0</ele><time>2026-04-18T08:31:44.999Z</time></trkpt><trkpt lat="43.56493364557956" lon="10.739663299183118"><ele>51.0</ele><time>2026-04-18T08:31:45.999Z</time></trkpt><trkpt lat="43.56485267639492" lon="10.739796990538705"><ele>51.0</ele><time>2026-04-18T08:31:46.999Z</time></trkpt><trkpt lat="43.56476164892648" lon="10.739944344396461"><ele>51.0</ele><time>2026-04-18T08:31:47.999Z</time></trkpt><trkpt lat="43.56467347130511" lon="10.740097397948373"><ele>51.0</ele><time>2026-04-18T08:31:48.999Z</time></trkpt><trkpt lat="43.564580180722814" lon="10.740263694907297"><ele>51.0</ele><time>2026-04-18T08:31:49.999Z</time></trkpt><trkpt lat="43.564486596773904" lon="10.740427393476237"><ele>51.0</ele><time>2026-04-18T08:31:50.999Z</time></trkpt><trkpt lat="43.564390665892105" lon="10.740600731233824"><ele>51.0</ele><time>2026-04-18T08:31:51.999Z</time></trkpt><trkpt lat="43.564291507977586" lon="10.740773398439158"><ele>51.0</ele><time>2026-04-18T08:31:52.999Z</time></trkpt><trkpt lat="43.564191972877424" lon="10.740948999310602"><ele>53.0</ele><time>2026-04-18T08:31:53.999Z</time></trkpt><trkpt lat="43.56409901757125" lon="10.741118649030794"><ele>55.0</ele><time>2026-04-18T08:31:54.999Z</time></trkpt><trkpt lat="43.56400543362234" lon="10.741287795836795"><ele>57.0</ele><time>2026-04-18T08:31:55.999Z</time></trkpt><trkpt lat="43.56390589852218" lon="10.74145467952894"><ele>57.0</ele><time>2026-04-18T08:31:56.999Z</time></trkpt><trkpt lat="43.56380837507878" lon="10.74162173085915"><ele>57.0</ele><time>2026-04-18T08:31:57.999Z</time></trkpt><trkpt lat="43.56372111946676" lon="10.74178685435163"><ele>57.0</ele><time>2026-04-18T08:31:58.999Z</time></trkpt><trkpt lat="43.56362937953655" lon="10.741951558748951"><ele>56.33333333333333</ele><time>2026-04-18T08:31:59.999Z</time></trkpt><trkpt lat="43.56353244282637" lon="10.742115760232082"><ele>55.666666666666664</ele><time>2026-04-18T08:32:00.999Z</time></trkpt><trkpt lat="43.56343382973556" lon="10.742285661409369"><ele>55.0</ele><time>2026-04-18T08:32:01.999Z</time></trkpt><trkpt lat="43.56333752166812" lon="10.742457406605354"><ele>55.0</ele><time>2026-04-18T08:32:02.999Z</time></trkpt><trkpt lat="43.56323672928248" lon="10.74263602496194"><ele>55.0</ele><time>2026-04-18T08:32:03.999Z</time></trkpt><trkpt lat="43.56313304514025" lon="10.742817996079793"><ele>55.0</ele><time>2026-04-18T08:32:04.999Z</time></trkpt><trkpt lat="43.56302202683274" lon="10.743017820651403"><ele>55.0</ele><time>2026-04-18T08:32:05.999Z</time></trkpt><trkpt lat="43.56290849395428" lon="10.743220243612996"><ele>55.0</ele><time>2026-04-18T08:32:06.999Z</time></trkpt><trkpt lat="43.56279529635195" lon="10.743436831990948"><ele>55.0</ele><time>2026-04-18T08:32:07.999Z</time></trkpt><trkpt lat="43.56267489031289" lon="10.743649564693444"><ele>55.0</ele><time>2026-04-18T08:32:08.999Z</time></trkpt><trkpt lat="43.56255766939704" lon="10.743878223011963"><ele>55.0</ele><time>2026-04-18T08:32:09.999Z</time></trkpt><trkpt lat="43.562447615008395" lon="10.744125740612619"><ele>55.0</ele><time>2026-04-18T08:32:10.999Z</time></trkpt><trkpt lat="43.56235612653528" lon="10.744387842724793"><ele>56.0</ele><time>2026-04-18T08:32:11.999Z</time></trkpt><trkpt lat="43.56228110850189" lon="10.744669307033293"><ele>57.0</ele><time>2026-04-18T08:32:12.999Z</time></trkpt><trkpt lat="43.562224111560326" lon="10.744961667815916"><ele>58.0</ele><time>2026-04-18T08:32:13.999Z</time></trkpt><trkpt lat="43.56218245350156" lon="10.745272552604549"><ele>58.0</ele><time>2026-04-18T08:32:14.999Z</time></trkpt><trkpt lat="43.56216254648153" lon="10.745578659708375"><ele>58.0</ele><time>2026-04-18T08:32:15.999Z</time></trkpt><trkpt lat="43.562153494026106" lon="10.745881916965121"><ele>58.0</ele><time>2026-04-18T08:32:16.999Z</time></trkpt><trkpt lat="43.562159780453484" lon="10.746195651600832"><ele>56.0</ele><time>2026-04-18T08:32:17.999Z</time></trkpt><trkpt lat="43.56218115430657" lon="10.746510978798145"><ele>54.0</ele><time>2026-04-18T08:32:18.999Z</time></trkpt><trkpt lat="43.56222717095498" lon="10.74681415223586"><ele>53.33333333333333</ele><time>2026-04-18T08:32:19.999Z</time></trkpt><trkpt lat="43.56229024477635" lon="10.747108105580086"><ele>52.666666666666664</ele><time>2026-04-18T08:32:20.999Z</time></trkpt><trkpt lat="43.56237418953661" lon="10.747391833002442"><ele>52.0</ele><time>2026-04-18T08:32:21.999Z</time></trkpt><trkpt lat="43.56246626474295" lon="10.747664328674551"><ele>52.33333333333333</ele><time>2026-04-18T08:32:22.999Z</time></trkpt><trkpt lat="43.56255054477934" lon="10.747910337532636"><ele>52.66666666666667</ele><time>2026-04-18T08:32:23.999Z</time></trkpt><trkpt lat="43.562630633864146" lon="10.748148132125612"><ele>53.0</ele><time>2026-04-18T08:32:24.999Z</time></trkpt><trkpt lat="43.56271332133893" lon="10.748379556472178"><ele>52.66666666666667</ele><time>2026-04-18T08:32:25.999Z</time></trkpt><trkpt lat="43.562800828408044" lon="10.748620955283519"><ele>52.33333333333333</ele><time>2026-04-18T08:32:26.999Z</time></trkpt><trkpt lat="43.56288431216363" lon="10.74886973016965"><ele>52.0</ele><time>2026-04-18T08:32:27.999Z</time></trkpt><trkpt lat="43.56296414979134" lon="10.749123701835748"><ele>53.33333333333333</ele><time>2026-04-18T08:32:28.999Z</time></trkpt><trkpt lat="43.563045957166295" lon="10.749375075111864"><ele>54.66666666666667</ele><time>2026-04-18T08:32:29.999Z</time></trkpt><trkpt lat="43.56313157830719" lon="10.749632650996325"><ele>56.0</ele><time>2026-04-18T08:32:30.999Z</time></trkpt><trkpt lat="43.56321833100502" lon="10.749890562156914"><ele>56.333333333333336</ele><time>2026-04-18T08:32:31.999Z</time></trkpt><trkpt lat="43.56330642480735" lon="10.750146964574931"><ele>56.66666666666667</ele><time>2026-04-18T08:32:32.999Z</time></trkpt><trkpt lat="43.56339183640067" lon="10.750407138849376"><ele>57.0</ele><time>2026-04-18T08:32:33.999Z</time></trkpt><trkpt lat="43.56347796045576" lon="10.750667564580915"><ele>55.66666666666667</ele><time>2026-04-18T08:32:34.999Z</time></trkpt><trkpt lat="43.56355918109749" lon="10.750923128808616"><ele>54.333333333333336</ele><time>2026-04-18T08:32:35.999Z</time></trkpt><trkpt lat="43.56364928655658" lon="10.751185063282726"><ele>53.0</ele><time>2026-04-18T08:32:36.999Z</time></trkpt><trkpt lat="43.56373599734489" lon="10.751446830118775"><ele>55.333333333333336</ele><time>2026-04-18T08:32:37.999Z</time></trkpt><trkpt lat="43.56382857546542" lon="10.751712536449313"><ele>57.66666666666667</ele><time>2026-04-18T08:32:38.999Z</time></trkpt><trkpt lat="43.5639204830337" lon="10.751975895846963"><ele>60.0</ele><time>2026-04-18T08:32:39.999Z</time></trkpt><trkpt lat="43.56401276778762" lon="10.752245122576833"><ele>60.0</ele><time>2026-04-18T08:32:40.999Z</time></trkpt><trkpt lat="43.56410739947442" lon="10.752510493631243"><ele>60.0</ele><time>2026-04-18T08:32:41.999Z</time></trkpt><trkpt lat="43.56421196371649" lon="10.752773098657608"><ele>60.0</ele><time>2026-04-18T08:32:42.999Z</time></trkpt><trkpt lat="43.56433182493184" lon="10.7530204486202"><ele>57.0</ele><time>2026-04-18T08:32:43.999Z</time></trkpt><trkpt lat="43.56447678994719" lon="10.753259919593813"><ele>54.0</ele><time>2026-04-18T08:32:44.999Z</time></trkpt><trkpt lat="43.564644930924814" lon="10.753483381132366"><ele>55.5</ele><time>2026-04-18T08:32:45.999Z</time></trkpt><trkpt lat="43.564819232601266" lon="10.7536922581594"><ele>57.0</ele><time>2026-04-18T08:32:46.999Z</time></trkpt><trkpt lat="43.565013692754846" lon="10.753881102437855"><ele>57.0</ele><time>2026-04-18T08:32:47.999Z</time></trkpt><trkpt lat="43.56521293059323" lon="10.754060810441853"><ele>57.0</ele><time>2026-04-18T08:32:48.999Z</time></trkpt><trkpt lat="43.56541853867803" lon="10.75422383845854"><ele>56.5</ele><time>2026-04-18T08:32:49.999Z</time></trkpt><trkpt lat="43.56562423058186" lon="10.754393069083573"><ele>56.0</ele><time>2026-04-18T08:32:50.999Z</time></trkpt><trkpt lat="43.56582904238586" lon="10.75455416926253"><ele>56.0</ele><time>2026-04-18T08:32:51.999Z</time></trkpt><trkpt lat="43.56603012424294" lon="10.75471686200309"><ele>56.0</ele><time>2026-04-18T08:32:52.999Z</time></trkpt><trkpt lat="43.566230032633584" lon="10.754876034344317"><ele>57.0</ele><time>2026-04-18T08:32:53.999Z</time></trkpt><trkpt lat="43.566429438110035" lon="10.755039146180037"><ele>58.0</ele><time>2026-04-18T08:32:54.999Z</time></trkpt><trkpt lat="43.56662171896879" lon="10.755210220823768"><ele>56.0</ele><time>2026-04-18T08:32:55.999Z</time></trkpt><trkpt lat="43.566818358417194" lon="10.755373835573677"><ele>54.0</ele><time>2026-04-18T08:32:56.999Z</time></trkpt><trkpt lat="43.567009884904664" lon="10.75553619303811"><ele>55.33333333333333</ele><time>2026-04-18T08:32:57.999Z</time></trkpt><trkpt lat="43.56719730425958" lon="10.755693018446449"><ele>56.666666666666664</ele><time>2026-04-18T08:32:58.999Z</time></trkpt><trkpt lat="43.56738061648194" lon="10.75585478917766"><ele>58.0</ele><time>2026-04-18T08:32:59.999Z</time></trkpt><trkpt lat="43.567562084685605" lon="10.756011614585999"><ele>58.33333333333333</ele><time>2026-04-18T08:33:00.999Z</time></trkpt><trkpt lat="43.56774858203117" lon="10.756159387538913"><ele>58.66666666666667</ele><time>2026-04-18T08:33:01.999Z</time></trkpt><trkpt lat="43.56793327726756" lon="10.756312021995667"><ele>59.0</ele><time>2026-04-18T08:33:02.999Z</time></trkpt><trkpt lat="43.56811897833232" lon="10.756471697251085"><ele>59.0</ele><time>2026-04-18T08:33:03.999Z</time></trkpt><trkpt lat="43.568308660801094" lon="10.756629444668773"><ele>59.0</ele><time>2026-04-18T08:33:04.999Z</time></trkpt><trkpt lat="43.56849503241811" lon="10.756775122145894"><ele>59.0</ele><time>2026-04-18T08:33:05.999Z</time></trkpt><trkpt lat="43.568664891685884" lon="10.75692348183203"><ele>58.333333333333336</ele><time>2026-04-18T08:33:06.999Z</time></trkpt><trkpt lat="43.56881731659506" lon="10.757051724950557"><ele>57.66666666666667</ele><time>2026-04-18T08:33:07.999Z</time></trkpt><trkpt lat="43.56895163659338" lon="10.757165551195627"><ele>57.0</ele><time>2026-04-18T08:33:08.999Z</time></trkpt><trkpt lat="43.569068270776015" lon="10.757266217852717"><ele>57.0</ele><time>2026-04-18T08:33:09.999Z</time></trkpt><trkpt lat="43.56916260909621" lon="10.757351126531844"><ele>57.0</ele><time>2026-04-18T08:33:10.999Z</time></trkpt><trkpt lat="43.56922714975063" lon="10.757404351616984"><ele>57.0</ele><time>2026-04-18T08:33:11.999Z</time></trkpt><trkpt lat="43.569295923266154" lon="10.75747115538526"><ele>57.0</ele><time>2026-04-18T08:33:13.999Z</time></trkpt><trkpt lat="43.56925921053026" lon="10.757560674111133"><ele>57.0</ele><time>2026-04-18T08:33:16.999Z</time></trkpt><trkpt lat="43.56920493770723" lon="10.75761280954886"><ele>57.0</ele><time>2026-04-18T08:33:18.999Z</time></trkpt><trkpt lat="43.56914877895598" lon="10.757696209485417"><ele>56.75</ele><time>2026-04-18T08:33:20.999Z</time></trkpt><trkpt lat="43.569056536111574" lon="10.7578766718607"><ele>56.5</ele><time>2026-04-18T08:33:22.999Z</time></trkpt><trkpt lat="43.5689997906271" lon="10.758003657693749"><ele>56.25</ele><time>2026-04-18T08:33:23.999Z</time></trkpt><trkpt lat="43.56893717781041" lon="10.758144557486062"><ele>56.0</ele><time>2026-04-18T08:33:24.999Z</time></trkpt><trkpt lat="43.56887519363646" lon="10.758296772847658"><ele>56.0</ele><time>2026-04-18T08:33:25.999Z</time></trkpt><trkpt lat="43.56880700685416" lon="10.758434152240639"><ele>55.99999999999999</ele><time>2026-04-18T08:33:26.999Z</time></trkpt><trkpt lat="43.56874841735099" lon="10.758566502491718"><ele>55.99999999999999</ele><time>2026-04-18T08:33:27.999Z</time></trkpt><trkpt lat="43.56868048202578" lon="10.758670941005235"><ele>56.0</ele><time>2026-04-18T08:33:28.999Z</time></trkpt><trkpt lat="43.56860684700642" lon="10.758776552985196"><ele>56.0</ele><time>2026-04-18T08:33:29.999Z</time></trkpt><trkpt lat="43.568532038520615" lon="10.758871771405227"><ele>55.4</ele><time>2026-04-18T08:33:30.999Z</time></trkpt><trkpt lat="43.56844511818473" lon="10.758978556851632"><ele>54.8</ele><time>2026-04-18T08:33:31.999Z</time></trkpt><trkpt lat="43.568371692712944" lon="10.759065980101711"><ele>54.199999999999996</ele><time>2026-04-18T08:33:32.999Z</time></trkpt><trkpt lat="43.56831335466687" lon="10.759158432493694"><ele>53.599999999999994</ele><time>2026-04-18T08:33:33.999Z</time></trkpt><trkpt lat="43.568268385756355" lon="10.759250214333422"><ele>53.0</ele><time>2026-04-18T08:33:34.999Z</time></trkpt><trkpt lat="43.56824089311395" lon="10.759337721402533"><ele>53.00000000000001</ele><time>2026-04-18T08:33:35.999Z</time></trkpt><trkpt lat="43.56818377044384" lon="10.759439058611877"><ele>53.0</ele><time>2026-04-18T08:33:37.999Z</time></trkpt><trkpt lat="43.56812166054134" lon="10.759466383616216"><ele>53.0</ele><time>2026-04-18T08:33:39.998Z</time></trkpt><trkpt lat="43.56802640021179" lon="10.759471245120055"><ele>53.0</ele><time>2026-04-18T08:33:42.998Z</time></trkpt><trkpt lat="43.567949077155035" lon="10.759446686143763"><ele>53.00000000000001</ele><time>2026-04-18T08:33:45.998Z</time></trkpt><trkpt lat="43.56788348876272" lon="10.75944559649635"><ele>53.0</ele><time>2026-04-18T08:33:49.998Z</time></trkpt><trkpt lat="43.56782309715037" lon="10.759472586224563"><ele>54.16666666666667</ele><time>2026-04-18T08:34:19.998Z</time></trkpt><trkpt lat="43.56774003248994" lon="10.759506030018217"><ele>55.333333333333336</ele><time>2026-04-18T08:34:22.998Z</time></trkpt><trkpt lat="43.56767507274036" lon="10.759530169899351"><ele>56.5</ele><time>2026-04-18T08:34:27.998Z</time></trkpt><trkpt lat="43.56759204998944" lon="10.75955841691304"><ele>57.66666666666667</ele><time>2026-04-18T08:34:30.998Z</time></trkpt><trkpt lat="43.56752621014003" lon="10.759541150192506"><ele>58.833333333333336</ele><time>2026-04-18T08:34:33.998Z</time></trkpt><trkpt lat="43.56747030284588" lon="10.759620359177477"><ele>60.0</ele><time>2026-04-18T08:40:35Z</time></trkpt><trkpt lat="43.56737889819179" lon="10.759732509041912"><ele>60.0</ele><time>2026-04-18T08:40:37Z</time></trkpt><trkpt lat="43.56731314216141" lon="10.75981054456044"><ele>60.0</ele><time>2026-04-18T08:40:38Z</time></trkpt><trkpt lat="43.56726213828061" lon="10.75988480822254"><ele>60.0</ele><time>2026-04-18T08:40:39Z</time></trkpt><trkpt lat="43.56718938336108" lon="10.759950522343404"><ele>60.0</ele><time>2026-04-18T08:40:40Z</time></trkpt><trkpt lat="43.56712081939314" lon="10.760012129331715"><ele>60.0</ele><time>2026-04-18T08:40:41Z</time></trkpt><trkpt lat="43.56705380607728" lon="10.760083291689641"><ele>60.0</ele><time>2026-04-18T08:40:42Z</time></trkpt><trkpt lat="43.56699462984089" lon="10.760135762403495"><ele>60.666666666666664</ele><time>2026-04-18T08:40:43Z</time></trkpt><trkpt lat="43.566928538534384" lon="10.760190160955078"><ele>61.33333333333333</ele><time>2026-04-18T08:40:44Z</time></trkpt><trkpt lat="43.56686776973639" lon="10.760254198695309"><ele>62.0</ele><time>2026-04-18T08:40:45Z</time></trkpt><trkpt lat="43.56679849330668" lon="10.760324774320013"><ele>62.666666666666664</ele><time>2026-04-18T08:40:46Z</time></trkpt><trkpt lat="43.56672636702989" lon="10.760405659685619"><ele>63.33333333333333</ele><time>2026-04-18T08:40:47Z</time></trkpt><trkpt lat="43.56666605923657" lon="10.760460644970424"><ele>64.0</ele><time>2026-04-18T08:40:48Z</time></trkpt><trkpt lat="43.56660554189567" lon="10.760515546436197"><ele>65.16666666666666</ele><time>2026-04-18T08:40:49Z</time></trkpt><trkpt lat="43.566550347063284" lon="10.760586373517997"><ele>66.33333333333333</ele><time>2026-04-18T08:40:50Z</time></trkpt><trkpt lat="43.56649058409367" lon="10.760660720999129"><ele>67.5</ele><time>2026-04-18T08:40:51Z</time></trkpt><trkpt lat="43.56643354524259" lon="10.760741187269575"><ele>68.66666666666667</ele><time>2026-04-18T08:40:52Z</time></trkpt><trkpt lat="43.56638660658483" lon="10.760814445103296"><ele>69.83333333333334</ele><time>2026-04-18T08:40:53Z</time></trkpt><trkpt lat="43.566312468651276" lon="10.76094947756339"><ele>71.0</ele><time>2026-04-18T08:40:55Z</time></trkpt><trkpt lat="43.566283341537755" lon="10.7610266748916"><ele>71.8</ele><time>2026-04-18T08:40:56Z</time></trkpt><trkpt lat="43.566261674318056" lon="10.76119624079276"><ele>72.6</ele><time>2026-04-18T08:40:58Z</time></trkpt><trkpt lat="43.56627445672039" lon="10.76131207869459"><ele>73.4</ele><time>2026-04-18T08:40:58.999Z</time></trkpt><trkpt lat="43.566278689581495" lon="10.761439986536988"><ele>74.2</ele><time>2026-04-18T08:40:59.999Z</time></trkpt><trkpt lat="43.566279988776486" lon="10.761579042310604"><ele>75.0</ele><time>2026-04-18T08:41:00.999Z</time></trkpt><trkpt lat="43.56626393743191" lon="10.761739052842149"><ele>74.8</ele><time>2026-04-18T08:41:01.999Z</time></trkpt><trkpt lat="43.56624390468333" lon="10.761899231011757"><ele>74.6</ele><time>2026-04-18T08:41:02.999Z</time></trkpt><trkpt lat="43.56621033516113" lon="10.762036778042802"><ele>74.4</ele><time>2026-04-18T08:41:03.999Z</time></trkpt><trkpt lat="43.566175885539096" lon="10.762187484661826"><ele>74.2</ele><time>2026-04-18T08:41:04.999Z</time></trkpt><trkpt lat="43.566144034307044" lon="10.762327043349632"><ele>74.0</ele><time>2026-04-18T08:41:05.999Z</time></trkpt><trkpt lat="43.56610954277549" lon="10.762476827959308"><ele>69.75</ele><time>2026-04-18T08:41:06.999Z</time></trkpt><trkpt lat="43.566079870838266" lon="10.76264748350788"><ele>65.5</ele><time>2026-04-18T08:41:07.999Z</time></trkpt><trkpt lat="43.566065705421906" lon="10.762827442968975"><ele>61.25</ele><time>2026-04-18T08:41:08.999Z</time></trkpt><trkpt lat="43.56606415476982" lon="10.763019891465794"><ele>57.0</ele><time>2026-04-18T08:41:09.999Z</time></trkpt><trkpt lat="43.56607823636715" lon="10.763239916424046"><ele>57.0</ele><time>2026-04-18T08:41:10.999Z</time></trkpt><trkpt lat="43.56609135404561" lon="10.763468574742566"><ele>57.0</ele><time>2026-04-18T08:41:11.999Z</time></trkpt><trkpt lat="43.56610681865696" lon="10.763687510053407"><ele>57.0</ele><time>2026-04-18T08:41:12.999Z</time></trkpt><trkpt lat="43.56611339845095" lon="10.763893537233363"><ele>57.2</ele><time>2026-04-18T08:41:13.999Z</time></trkpt><trkpt lat="43.56612710286264" lon="10.764077939103137"><ele>57.400000000000006</ele><time>2026-04-18T08:41:14.999Z</time></trkpt><trkpt lat="43.566134604665976" lon="10.764233507226"><ele>57.599999999999994</ele><time>2026-04-18T08:41:15.999Z</time></trkpt><trkpt lat="43.56614244174544" lon="10.764372982094775"><ele>57.8</ele><time>2026-04-18T08:41:16.999Z</time></trkpt><trkpt lat="43.56616498906497" lon="10.764498123909126"><ele>58.0</ele><time>2026-04-18T08:41:17.999Z</time></trkpt><trkpt lat="43.56619424190704" lon="10.764625361199272"><ele>61.2</ele><time>2026-04-18T08:41:18.999Z</time></trkpt><trkpt lat="43.566216873045605" lon="10.764757124717129"><ele>64.4</ele><time>2026-04-18T08:41:19.999Z</time></trkpt><trkpt lat="43.56623560659919" lon="10.764891821901095"><ele>67.60000000000001</ele><time>2026-04-18T08:41:20.999Z</time></trkpt><trkpt lat="43.56626376979385" lon="10.765030207122457"><ele>70.8</ele><time>2026-04-18T08:41:21.999Z</time></trkpt><trkpt lat="43.566303080919724" lon="10.765171358371866"><ele>74.0</ele><time>2026-04-18T08:41:22.999Z</time></trkpt><trkpt lat="43.56633841064159" lon="10.765323657552493"><ele>74.0</ele><time>2026-04-18T08:41:23.999Z</time></trkpt><trkpt lat="43.56635928158049" lon="10.765493307272685"><ele>74.0</ele><time>2026-04-18T08:41:24.999Z</time></trkpt><trkpt lat="43.5663828347284" lon="10.765652898709071"><ele>74.0</ele><time>2026-04-18T08:41:25.999Z</time></trkpt><trkpt lat="43.566388869698685" lon="10.76582095586766"><ele>74.0</ele><time>2026-04-18T08:41:26.999Z</time></trkpt><trkpt lat="43.5664026579294" lon="10.766016673306716"><ele>73.33333333333334</ele><time>2026-04-18T08:41:27.999Z</time></trkpt><trkpt lat="43.566403831395846" lon="10.766244996349108"><ele>72.66666666666667</ele><time>2026-04-18T08:41:28.999Z</time></trkpt><trkpt lat="43.56641087219451" lon="10.766472145925059"><ele>72.0</ele><time>2026-04-18T08:41:29.999Z</time></trkpt><trkpt lat="43.566411123651605" lon="10.766687896112694"><ele>72.25</ele><time>2026-04-18T08:41:30.999Z</time></trkpt><trkpt lat="43.56641259048466" lon="10.766911273832216"><ele>72.5</ele><time>2026-04-18T08:41:31.999Z</time></trkpt><trkpt lat="43.566415985155444" lon="10.767111601318016"><ele>72.75</ele><time>2026-04-18T08:41:32.999Z</time></trkpt><trkpt lat="43.56640831571404" lon="10.767285609627857"><ele>73.0</ele><time>2026-04-18T08:41:33.999Z</time></trkpt><trkpt lat="43.56641464405094" lon="10.76744796709229"><ele>73.0</ele><time>2026-04-18T08:41:34.999Z</time></trkpt><trkpt lat="43.566410620737415" lon="10.767605211595788"><ele>73.0</ele><time>2026-04-18T08:41:35.999Z</time></trkpt><trkpt lat="43.566404962952774" lon="10.76774753631164"><ele>73.0</ele><time>2026-04-18T08:41:36.999Z</time></trkpt><trkpt lat="43.56640760325227" lon="10.76787703671564"><ele>73.0</ele><time>2026-04-18T08:41:37.999Z</time></trkpt><trkpt lat="43.56641979892139" lon="10.76801139862348"><ele>73.0</ele><time>2026-04-18T08:41:38.999Z</time></trkpt><trkpt lat="43.566443100612204" lon="10.768133439133658"><ele>72.8</ele><time>2026-04-18T08:41:39.999Z</time></trkpt><trkpt lat="43.56647407174442" lon="10.76825858094801"><ele>72.6</ele><time>2026-04-18T08:41:40.999Z</time></trkpt><trkpt lat="43.56651241895143" lon="10.76838606969525"><ele>72.4</ele><time>2026-04-18T08:41:41.999Z</time></trkpt><trkpt lat="43.56654372535978" lon="10.768505847091571"><ele>72.2</ele><time>2026-04-18T08:41:42.999Z</time></trkpt><trkpt lat="43.566571679006856" lon="10.768624451021449"><ele>72.0</ele><time>2026-04-18T08:41:43.999Z</time></trkpt><trkpt lat="43.56657578613941" lon="10.76876820066084"><ele>72.0</ele><time>2026-04-18T08:41:44.999Z</time></trkpt><trkpt lat="43.5665842099521" lon="10.768934246162669"><ele>72.0</ele><time>2026-04-18T08:41:45.999Z</time></trkpt><trkpt lat="43.56660239868198" lon="10.769114457080857"><ele>72.0</ele><time>2026-04-18T08:41:46.999Z</time></trkpt><trkpt lat="43.56662264097814" lon="10.769276730726258"><ele>72.0</ele><time>2026-04-18T08:41:47.999Z</time></trkpt><trkpt lat="43.566625826101344" lon="10.769429868097202"><ele>71.8</ele><time>2026-04-18T08:41:48.999Z</time></trkpt><trkpt lat="43.56662301816378" lon="10.769573785374657"><ele>71.6</ele><time>2026-04-18T08:41:49.999Z</time></trkpt><trkpt lat="43.56663110670034" lon="10.76969800517966"><ele>71.39999999999999</ele><time>2026-04-18T08:41:50.999Z</time></trkpt><trkpt lat="43.5666254489157" lon="10.769821722070471"><ele>71.2</ele><time>2026-04-18T08:41:51.999Z</time></trkpt><trkpt lat="43.56661773756478" lon="10.769934207211033"><ele>71.0</ele><time>2026-04-18T08:41:52.999Z</time></trkpt><trkpt lat="43.56660185385827" lon="10.770052392045752"><ele>71.0</ele><time>2026-04-18T08:41:53.999Z</time></trkpt><trkpt lat="43.5665850062329" lon="10.770163452262775"><ele>71.0</ele><time>2026-04-18T08:41:54.999Z</time></trkpt><trkpt lat="43.56655332263891" lon="10.770259089777962"><ele>71.0</ele><time>2026-04-18T08:41:55.999Z</time></trkpt><trkpt lat="43.56647905897681" lon="10.770387751991647"><ele>71.0</ele><time>2026-04-18T08:41:57.999Z</time></trkpt><trkpt lat="43.566376925486665" lon="10.770441899086135"><ele>71.0</ele><time>2026-04-18T08:41:59.999Z</time></trkpt><trkpt lat="43.56631523467932" lon="10.770463021482128"><ele>69.8</ele><time>2026-04-18T08:42:00.999Z</time></trkpt><trkpt lat="43.56621813033108" lon="10.770576847727197"><ele>68.6</ele><time>2026-04-18T08:42:02.999Z</time></trkpt><trkpt lat="43.56618917085562" lon="10.770659409473437"><ele>67.4</ele><time>2026-04-18T08:42:03.999Z</time></trkpt><trkpt lat="43.56617693327699" lon="10.770792765552896"><ele>66.2</ele><time>2026-04-18T08:42:04.999Z</time></trkpt><trkpt lat="43.56616892855946" lon="10.77092486434688"><ele>65.0</ele><time>2026-04-18T08:42:05.999Z</time></trkpt><trkpt lat="43.56616301931773" lon="10.771029889593619"><ele>65.0</ele><time>2026-04-18T08:42:06.999Z</time></trkpt><trkpt lat="43.56617391579185" lon="10.771127119670409"><ele>65.0</ele><time>2026-04-18T08:42:07.999Z</time></trkpt><trkpt lat="43.56616905428801" lon="10.771250920380252"><ele>65.0</ele><time>2026-04-18T08:42:09.999Z</time></trkpt><trkpt lat="43.56615794826631" lon="10.7713451329719"><ele>65.0</ele><time>2026-04-18T08:42:12.999Z</time></trkpt><trkpt lat="43.56615761299018" lon="10.771460635597604"><ele>65.0</ele><time>2026-04-18T08:42:14.999Z</time></trkpt><trkpt lat="43.566187326836925" lon="10.771583262841004"><ele>65.0</ele><time>2026-04-18T08:42:16.999Z</time></trkpt><trkpt lat="43.566219303797524" lon="10.771676637242335"><ele>65.0</ele><time>2026-04-18T08:42:18.999Z</time></trkpt><trkpt lat="43.56624051001255" lon="10.771765233958858"><ele>65.0</ele><time>2026-04-18T08:42:21.999Z</time></trkpt><trkpt lat="43.56630505066697" lon="10.771783087412613"><ele>65.0</ele><time>2026-04-18T08:42:30.999Z</time></trkpt><trkpt lat="43.56629117861722" lon="10.771692311401265"><ele>65.0</ele><time>2026-04-18T08:42:33.999Z</time></trkpt><trkpt lat="43.566195834468644" lon="10.771608911464709"><ele>65.0</ele><time>2026-04-18T08:42:34.999Z</time></trkpt><trkpt lat="43.566166078712385" lon="10.771510507921475"><ele>65.0</ele><time>2026-04-18T08:42:35.999Z</time></trkpt><trkpt lat="43.566151200834256" lon="10.771369608129161"><ele>65.0</ele><time>2026-04-18T08:42:36.999Z</time></trkpt><trkpt lat="43.56614700988267" lon="10.771187134097117"><ele>65.0</ele><time>2026-04-18T08:42:37.999Z</time></trkpt><trkpt lat="43.56615044646297" lon="10.771009018654722"><ele>65.0</ele><time>2026-04-18T08:42:38.999Z</time></trkpt><trkpt lat="43.56617006011639" lon="10.77083844692518"><ele>65.0</ele><time>2026-04-18T08:42:39.999Z</time></trkpt><trkpt lat="43.56617684945796" lon="10.770676005641716"><ele>68.2</ele><time>2026-04-18T08:42:40.999Z</time></trkpt><trkpt lat="43.56620660521422" lon="10.770545080314177"><ele>71.4</ele><time>2026-04-18T08:42:42.999Z</time></trkpt><trkpt lat="43.566284263547104" lon="10.770421782518524"><ele>74.6</ele><time>2026-04-18T08:42:44.999Z</time></trkpt><trkpt lat="43.56635747947131" lon="10.770401498312848"><ele>77.8</ele><time>2026-04-18T08:42:45.999Z</time></trkpt><trkpt lat="43.56645500291471" lon="10.77038590797295"><ele>81.0</ele><time>2026-04-18T08:42:47.999Z</time></trkpt><trkpt lat="43.56652335733507" lon="10.770310303206342"><ele>81.0</ele><time>2026-04-18T08:42:50.999Z</time></trkpt><trkpt lat="43.56656128544692" lon="10.770192369828717"><ele>81.0</ele><time>2026-04-18T08:42:52.999Z</time></trkpt><trkpt lat="43.56660227295343" lon="10.770026575783984"><ele>81.0</ele><time>2026-04-18T08:42:54.999Z</time></trkpt><trkpt lat="43.56661652218882" lon="10.769922975460783"><ele>81.0</ele><time>2026-04-18T08:42:55.999Z</time></trkpt><trkpt lat="43.5666254489157" lon="10.769813256348268"><ele>81.0</ele><time>2026-04-18T08:42:56.999Z</time></trkpt><trkpt lat="43.566625197458606" lon="10.769714936624066"><ele>81.0</ele><time>2026-04-18T08:42:57.999Z</time></trkpt><trkpt lat="43.56662356298749" lon="10.769546628008381"><ele>79.5</ele><time>2026-04-18T08:42:59.999Z</time></trkpt><trkpt lat="43.566608307923715" lon="10.769358538101212"><ele>78.0</ele><time>2026-04-18T08:43:01.999Z</time></trkpt><trkpt lat="43.56659791436378" lon="10.769252758483187"><ele>76.5</ele><time>2026-04-18T08:43:02.999Z</time></trkpt><trkpt lat="43.566581402014535" lon="10.769154606397048"><ele>75.0</ele><time>2026-04-18T08:43:03.999Z</time></trkpt><trkpt lat="43.56657716915343" lon="10.769050670797721"><ele>73.5</ele><time>2026-04-18T08:43:04.999Z</time></trkpt><trkpt lat="43.566579893271964" lon="10.768957128758327"><ele>72.0</ele><time>2026-04-18T08:43:05.999Z</time></trkpt><trkpt lat="43.56657297820185" lon="10.768856294463173"><ele>72.0</ele><time>2026-04-18T08:43:06.999Z</time></trkpt><trkpt lat="43.566567529964786" lon="10.768725872049824"><ele>72.0</ele><time>2026-04-18T08:43:08.999Z</time></trkpt><trkpt lat="43.56656421911303" lon="10.76863769442846"><ele>72.0</ele><time>2026-04-18T08:43:10.999Z</time></trkpt><trkpt lat="43.56654292907898" lon="10.768508948395745"><ele>72.0</ele><time>2026-04-18T08:43:12.999Z</time></trkpt><trkpt lat="43.56651216749434" lon="10.768402582044498"><ele>72.0</ele><time>2026-04-18T08:43:14.999Z</time></trkpt><trkpt lat="43.566470718983155" lon="10.7682918571036"><ele>72.0</ele><time>2026-04-18T08:43:16.999Z</time></trkpt><trkpt lat="43.56643748473708" lon="10.768179204324975"><ele>72.8</ele><time>2026-04-18T08:43:18.999Z</time></trkpt><trkpt lat="43.56641338676546" lon="10.768057247633829"><ele>73.6</ele><time>2026-04-18T08:43:20.999Z</time></trkpt><trkpt lat="43.56640207119618" lon="10.767950713644519"><ele>74.39999999999999</ele><time>2026-04-18T08:43:23.999Z</time></trkpt><trkpt lat="43.56647025797848" lon="10.76793319546689"><ele>75.2</ele><time>2026-04-18T08:43:26.999Z</time></trkpt><trkpt lat="43.56648207646195" lon="10.768084321181073"><ele>76.0</ele><time>2026-04-18T08:43:29.999Z</time></trkpt><trkpt lat="43.56652884748165" lon="10.768224634240164"><ele>76.0</ele><time>2026-04-18T08:43:31.999Z</time></trkpt><trkpt lat="43.566555795300346" lon="10.768314991156354"><ele>76.0</ele><time>2026-04-18T08:43:32.999Z</time></trkpt><trkpt lat="43.56659376532171" lon="10.76838749461879"><ele>76.0</ele><time>2026-04-18T08:43:33.999Z</time></trkpt><trkpt lat="43.566686720627885" lon="10.768509618947999"><ele>76.0</ele><time>2026-04-18T08:43:35.999Z</time></trkpt><trkpt lat="43.56673110280518" lon="10.768575333068863"><ele>76.0</ele><time>2026-04-18T08:43:36.999Z</time></trkpt><trkpt lat="43.56677892156277" lon="10.768640544275538"><ele>76.0</ele><time>2026-04-18T08:43:37.999Z</time></trkpt><trkpt lat="43.566825231577795" lon="10.768715227032796"><ele>75.33333333333333</ele><time>2026-04-18T08:43:38.999Z</time></trkpt><trkpt lat="43.566896561573785" lon="10.768878925601737"><ele>74.66666666666666</ele><time>2026-04-18T08:43:40.999Z</time></trkpt><trkpt lat="43.56693754908029" lon="10.768950758511917"><ele>74.0</ele><time>2026-04-18T08:43:41.999Z</time></trkpt><trkpt lat="43.56698465537612" lon="10.769015634442464"><ele>73.33333333333333</ele><time>2026-04-18T08:43:42.999Z</time></trkpt><trkpt lat="43.56704869311635" lon="10.769071206460492"><ele>72.66666666666667</ele><time>2026-04-18T08:43:43.999Z</time></trkpt><trkpt lat="43.56711583216075" lon="10.769132394353644"><ele>72.0</ele><time>2026-04-18T08:43:44.999Z</time></trkpt><trkpt lat="43.56720891319547" lon="10.769245214770333"><ele>75.83333333333333</ele><time>2026-04-18T08:43:46.999Z</time></trkpt><trkpt lat="43.56724436864589" lon="10.769327776516572"><ele>79.66666666666667</ele><time>2026-04-18T08:43:49.999Z</time></trkpt><trkpt lat="43.567319554317336" lon="10.769338840628759"><ele>83.5</ele><time>2026-04-18T08:43:51.999Z</time></trkpt><trkpt lat="43.567442181560736" lon="10.769363064328925"><ele>87.33333333333334</ele><time>2026-04-18T08:43:53.999Z</time></trkpt><trkpt lat="43.56751409828995" lon="10.769370859498874"><ele>91.16666666666667</ele><time>2026-04-18T08:43:54.999Z</time></trkpt><trkpt lat="43.5675882362235" lon="10.769368764023081"><ele>95.0</ele><time>2026-04-18T08:43:55.999Z</time></trkpt><trkpt lat="43.56766027868126" lon="10.769365159804718"><ele>95.0</ele><time>2026-04-18T08:43:56.999Z</time></trkpt><trkpt lat="43.56772100556974" lon="10.769397094855801"><ele>95.0</ele><time>2026-04-18T08:43:57.999Z</time></trkpt><trkpt lat="43.56781362559978" lon="10.769401788721577"><ele>95.0</ele><time>2026-04-18T08:43:59.999Z</time></trkpt><trkpt lat="43.56785025451664" lon="10.769479405144946"><ele>95.0</ele><time>2026-04-18T08:44:01.999Z</time></trkpt><trkpt lat="43.56792699084018" lon="10.76951871627082"><ele>95.0</ele><time>2026-04-18T08:44:03.999Z</time></trkpt><trkpt lat="43.5679931240562" lon="10.769534558067814"><ele>95.0</ele><time>2026-04-18T08:44:04.999Z</time></trkpt><trkpt lat="43.568060472648185" lon="10.76958904043843"><ele>98.0</ele><time>2026-04-18T08:44:05.999Z</time></trkpt><trkpt lat="43.56814135801379" lon="10.769615024338261"><ele>101.0</ele><time>2026-04-18T08:44:06.999Z</time></trkpt><trkpt lat="43.568220818455856" lon="10.769626339907543"><ele>104.0</ele><time>2026-04-18T08:44:07.999Z</time></trkpt><trkpt lat="43.56828280262981" lon="10.769688952724234"><ele>107.0</ele><time>2026-04-18T08:44:08.999Z</time></trkpt><trkpt lat="43.568364903371375" lon="10.769757432873146"><ele>109.99999999999999</ele><time>2026-04-18T08:44:10.999Z</time></trkpt><trkpt lat="43.568380284163695" lon="10.769873773689167"><ele>113.0</ele><time>2026-04-18T08:44:13.999Z</time></trkpt><trkpt lat="43.56833724309091" lon="10.770014841119544"><ele>112.99999999999999</ele><time>2026-04-18T08:44:15.999Z</time></trkpt><trkpt lat="43.56827915650193" lon="10.770090697343246"><ele>113.0</ele><time>2026-04-18T08:44:17.999Z</time></trkpt><trkpt lat="43.56820426419709" lon="10.770232016230718"><ele>113.0</ele><time>2026-04-18T08:44:19.999Z</time></trkpt><trkpt lat="43.56815451760177" lon="10.770340058962601"><ele>113.0</ele><time>2026-04-18T08:44:20.999Z</time></trkpt><trkpt lat="43.5681133624572" lon="10.770430751154917"><ele>112.99999999999999</ele><time>2026-04-18T08:44:21.999Z</time></trkpt><trkpt lat="43.568066339980405" lon="10.770502919341224"><ele>113.0</ele><time>2026-04-18T08:44:22.999Z</time></trkpt><trkpt lat="43.568056826520305" lon="10.77059998177995"><ele>113.16666666666666</ele><time>2026-04-18T08:44:23.999Z</time></trkpt><trkpt lat="43.56802082624618" lon="10.770678520212668"><ele>113.33333333333333</ele><time>2026-04-18T08:44:24.999Z</time></trkpt><trkpt lat="43.56798977129493" lon="10.770766949291128"><ele>113.5</ele><time>2026-04-18T08:44:25.999Z</time></trkpt><trkpt lat="43.56795632750128" lon="10.770848421389955"><ele>113.66666666666666</ele><time>2026-04-18T08:44:26.999Z</time></trkpt><trkpt lat="43.5679222969744" lon="10.770935928459066"><ele>113.83333333333333</ele><time>2026-04-18T08:44:27.999Z</time></trkpt><trkpt lat="43.56788973328058" lon="10.771016059453386"><ele>114.0</ele><time>2026-04-18T08:44:28.999Z</time></trkpt><trkpt lat="43.56783608910028" lon="10.771172381947535"><ele>114.0</ele><time>2026-04-18T08:44:30.999Z</time></trkpt><trkpt lat="43.567800759378414" lon="10.771265169615644"><ele>114.0</ele><time>2026-04-18T08:44:31.999Z</time></trkpt><trkpt lat="43.567792251746695" lon="10.77143599280228"><ele>114.0</ele><time>2026-04-18T08:44:33.999Z</time></trkpt><trkpt lat="43.567766142118316" lon="10.771532636145848"><ele>114.0</ele><time>2026-04-18T08:44:34.999Z</time></trkpt><trkpt lat="43.567753401625495" lon="10.771629279489416"><ele>114.0</ele><time>2026-04-18T08:44:35.999Z</time></trkpt><trkpt lat="43.56773475189094" lon="10.771725587556856"><ele>114.0</ele><time>2026-04-18T08:44:36.999Z</time></trkpt><trkpt lat="43.56774770193134" lon="10.771859027455347"><ele>113.66666666666667</ele><time>2026-04-18T08:44:38.999Z</time></trkpt><trkpt lat="43.567776870954376" lon="10.771954329694408"><ele>113.33333333333334</ele><time>2026-04-18T08:44:39.999Z</time></trkpt><trkpt lat="43.56782091785554" lon="10.77207662166168"><ele>113.0</ele><time>2026-04-18T08:44:40.999Z</time></trkpt><trkpt lat="43.5678689042512" lon="10.772185167307752"><ele>112.66666666666667</ele><time>2026-04-18T08:44:41.999Z</time></trkpt><trkpt lat="43.56790817346756" lon="10.772276697690387"><ele>112.33333333333334</ele><time>2026-04-18T08:44:42.999Z</time></trkpt><trkpt lat="43.56794610157941" lon="10.77234819532444"><ele>112.0</ele><time>2026-04-18T08:44:43.999Z</time></trkpt><trkpt lat="43.5679717082936" lon="10.772494878629942"><ele>114.25</ele><time>2026-04-18T08:44:45.999Z</time></trkpt><trkpt lat="43.56798838828091" lon="10.772618930796881"><ele>116.5</ele><time>2026-04-18T08:44:47.999Z</time></trkpt><trkpt lat="43.56802396945987" lon="10.772770056511064"><ele>118.75</ele><time>2026-04-18T08:44:49.999Z</time></trkpt><trkpt lat="43.56807400942181" lon="10.772919338206549"><ele>121.0</ele><time>2026-04-18T08:44:51.999Z</time></trkpt><trkpt lat="43.56810674075369" lon="10.77309678309669"><ele>121.14285714285714</ele><time>2026-04-18T08:44:53.999Z</time></trkpt><trkpt lat="43.56810900386755" lon="10.773190660412212"><ele>121.28571428571428</ele><time>2026-04-18T08:44:54.999Z</time></trkpt><trkpt lat="43.56809731111262" lon="10.77328001150002"><ele>121.42857142857142</ele><time>2026-04-18T08:44:55.999Z</time></trkpt><trkpt lat="43.568090102675896" lon="10.773368608216543"><ele>121.57142857142856</ele><time>2026-04-18T08:44:56.999Z</time></trkpt><trkpt lat="43.56809634719376" lon="10.773466089750428"><ele>121.71428571428571</ele><time>2026-04-18T08:44:57.999Z</time></trkpt><trkpt lat="43.5681199841607" lon="10.773568516607185"><ele>121.85714285714283</ele><time>2026-04-18T08:44:58.999Z</time></trkpt><trkpt lat="43.56816160030995" lon="10.773671446378131"><ele>121.99999999999999</ele><time>2026-04-18T08:44:59.999Z</time></trkpt><trkpt lat="43.568204934749346" lon="10.773779572929044"><ele>122.39999999999999</ele><time>2026-04-18T08:45:00.999Z</time></trkpt><trkpt lat="43.568241479847174" lon="10.773915778855581"><ele>122.79999999999998</ele><time>2026-04-18T08:45:01.999Z</time></trkpt><trkpt lat="43.56829252563749" lon="10.77406036668529"><ele>123.2</ele><time>2026-04-18T08:45:02.999Z</time></trkpt><trkpt lat="43.568342230323296" lon="10.774197410802147"><ele>123.6</ele><time>2026-04-18T08:45:03.999Z</time></trkpt><trkpt lat="43.56838652868156" lon="10.774319786588451"><ele>124.0</ele><time>2026-04-18T08:45:04.999Z</time></trkpt><trkpt lat="43.56842516925518" lon="10.774447359154722"><ele>124.0</ele><time>2026-04-18T08:45:05.999Z</time></trkpt><trkpt lat="43.5684527038071" lon="10.774575602273247"><ele>124.0</ele><time>2026-04-18T08:45:06.999Z</time></trkpt><trkpt lat="43.568476005497914" lon="10.774706611419818"><ele>124.0</ele><time>2026-04-18T08:45:07.999Z</time></trkpt><trkpt lat="43.568497546989065" lon="10.774845415736339"><ele>124.0</ele><time>2026-04-18T08:45:08.999Z</time></trkpt><trkpt lat="43.56852508154098" lon="10.77498916537573"><ele>124.0</ele><time>2026-04-18T08:45:09.999Z</time></trkpt><trkpt lat="43.568530823144656" lon="10.775136016319296"><ele>122.0</ele><time>2026-04-18T08:45:10.999Z</time></trkpt><trkpt lat="43.5685544601116" lon="10.77527062968423"><ele>120.0</ele><time>2026-04-18T08:45:11.999Z</time></trkpt><trkpt lat="43.56857222974632" lon="10.775413708771369"><ele>118.0</ele><time>2026-04-18T08:45:12.999Z</time></trkpt><trkpt lat="43.568585766519945" lon="10.775546981031797"><ele>116.0</ele><time>2026-04-18T08:45:13.999Z</time></trkpt><trkpt lat="43.56860056057904" lon="10.77568444424381"><ele>114.0</ele><time>2026-04-18T08:45:14.999Z</time></trkpt><trkpt lat="43.56861694719974" lon="10.77582710423579"><ele>114.0</ele><time>2026-04-18T08:45:15.999Z</time></trkpt><trkpt lat="43.5686355969343" lon="10.77597278171291"><ele>114.0</ele><time>2026-04-18T08:45:16.999Z</time></trkpt><trkpt lat="43.5686527798358" lon="10.776131115863823"><ele>114.0</ele><time>2026-04-18T08:45:17.999Z</time></trkpt><trkpt lat="43.568666903342645" lon="10.776282828311228"><ele>114.0</ele><time>2026-04-18T08:45:18.999Z</time></trkpt><trkpt lat="43.56869066603814" lon="10.77643051744511"><ele>114.0</ele><time>2026-04-18T08:45:19.999Z</time></trkpt><trkpt lat="43.56872167907987" lon="10.77659564093759"><ele>114.4</ele><time>2026-04-18T08:45:20.999Z</time></trkpt><trkpt lat="43.56874049645249" lon="10.776751209060453"><ele>114.80000000000001</ele><time>2026-04-18T08:45:21.999Z</time></trkpt><trkpt lat="43.568753614130955" lon="10.776898814375304"><ele>115.19999999999999</ele><time>2026-04-18T08:45:22.999Z</time></trkpt><trkpt lat="43.56876845009957" lon="10.777028314779304"><ele>115.6</ele><time>2026-04-18T08:45:23.999Z</time></trkpt><trkpt lat="43.56878177732561" lon="10.777157647545241"><ele>116.0</ele><time>2026-04-18T08:45:24.999Z</time></trkpt><trkpt lat="43.56880092997436" lon="10.777272731075787"><ele>105.0</ele><time>2026-04-18T08:45:25.999Z</time></trkpt><trkpt lat="43.569084545938985" lon="10.778649207337471"><ele>120.0</ele><time>2026-04-18T08:45:38.245Z</time></trkpt><trkpt lat="43.568292860913616" lon="10.778867891068364"><ele>120.0</ele><time>2026-04-18T08:45:39.995Z</time></trkpt><trkpt lat="43.56818670410995" lon="10.778932431722785"><ele>120.0</ele><time>2026-04-18T08:45:40.993Z</time></trkpt><trkpt lat="43.56804240964685" lon="10.779057908813263"><ele>120.0</ele><time>2026-04-18T08:45:41.994Z</time></trkpt><trkpt lat="43.56798855591897" lon="10.779179111133123"><ele>120.0</ele><time>2026-04-18T08:45:42.996Z</time></trkpt><trkpt lat="43.56796412267123" lon="10.779286986226941"><ele>119.33333333333333</ele><time>2026-04-18T08:45:43.997Z</time></trkpt><trkpt lat="43.567971750203114" lon="10.779394190768505"><ele>118.66666666666666</ele><time>2026-04-18T08:45:44.945Z</time></trkpt><trkpt lat="43.56797187593166" lon="10.779531653980518"><ele>118.0</ele><time>2026-04-18T08:45:46.001Z</time></trkpt><trkpt lat="43.56793072078709" lon="10.779636176313067"><ele>117.33333333333333</ele><time>2026-04-18T08:45:47.001Z</time></trkpt><trkpt lat="43.56788839217607" lon="10.779733490208889"><ele>116.66666666666666</ele><time>2026-04-18T08:45:48.001Z</time></trkpt><trkpt lat="43.5678358795527" lon="10.779813872660304"><ele>116.0</ele><time>2026-04-18T08:45:49.001Z</time></trkpt><trkpt lat="43.567809560376745" lon="10.779893416921404"><ele>116.0</ele><time>2026-04-18T08:45:50Z</time></trkpt><trkpt lat="43.567801262292605" lon="10.780051415796187"><ele>116.0</ele><time>2026-04-18T08:45:52Z</time></trkpt><trkpt lat="43.56778806079511" lon="10.780150992805865"><ele>116.0</ele><time>2026-04-18T08:45:53Z</time></trkpt><trkpt lat="43.56776681267057" lon="10.780286025265958"><ele>116.0</ele><time>2026-04-18T08:45:54Z</time></trkpt><trkpt lat="43.56774082877074" lon="10.780432289476302"><ele>116.0</ele><time>2026-04-18T08:45:55Z</time></trkpt><trkpt lat="43.56771128256206" lon="10.780573105449584"><ele>116.6</ele><time>2026-04-18T08:45:56Z</time></trkpt><trkpt lat="43.56768869333301" lon="10.780701097111013"><ele>117.19999999999999</ele><time>2026-04-18T08:45:57Z</time></trkpt><trkpt lat="43.56765994340513" lon="10.780824730182793"><ele>117.80000000000001</ele><time>2026-04-18T08:45:58Z</time></trkpt><trkpt lat="43.56764988512133" lon="10.780953392396476"><ele>118.4</ele><time>2026-04-18T08:45:59Z</time></trkpt><trkpt lat="43.56763551015739" lon="10.78106353060415"><ele>119.0</ele><time>2026-04-18T08:46:00Z</time></trkpt><trkpt lat="43.56762323066924" lon="10.781182385991123"><ele>119.6</ele><time>2026-04-18T08:46:01Z</time></trkpt><trkpt lat="43.56760797560547" lon="10.781298978264239"><ele>120.2</ele><time>2026-04-18T08:46:02Z</time></trkpt><trkpt lat="43.567594857927006" lon="10.781452702368405"><ele>120.79999999999998</ele><time>2026-04-18T08:46:04Z</time></trkpt><trkpt lat="43.56753190983419" lon="10.78153895215204"><ele>121.39999999999999</ele><time>2026-04-18T08:46:06Z</time></trkpt><trkpt lat="43.56746502224688" lon="10.781655041510966"><ele>122.0</ele><time>2026-04-18T08:46:08Z</time></trkpt><trkpt lat="43.56741875414137" lon="10.781746404255538"><ele>122.0</ele><time>2026-04-18T08:46:10Z</time></trkpt><trkpt lat="43.567358613986116" lon="10.781804574663548"><ele>121.99999999999999</ele><time>2026-04-18T08:46:12Z</time></trkpt><trkpt lat="43.56727286711667" lon="10.781898116702942"><ele>121.99999999999999</ele><time>2026-04-18T08:46:14Z</time></trkpt><trkpt lat="43.567217672284286" lon="10.781985037038831"><ele>122.0</ele><time>2026-04-18T08:46:15Z</time></trkpt><trkpt lat="43.56716323182319" lon="10.782089978466539"><ele>122.0</ele><time>2026-04-18T08:46:16Z</time></trkpt><trkpt lat="43.56711511969898" lon="10.782212773348002"><ele>121.39999999999999</ele><time>2026-04-18T08:46:17Z</time></trkpt><trkpt lat="43.567066337022524" lon="10.782345794151334"><ele>120.79999999999998</ele><time>2026-04-18T08:46:18Z</time></trkpt><trkpt lat="43.56702195484523" lon="10.782475462193398"><ele>120.2</ele><time>2026-04-18T08:46:19Z</time></trkpt><trkpt lat="43.56698465537612" lon="10.782606303701906"><ele>119.6</ele><time>2026-04-18T08:46:20Z</time></trkpt><trkpt lat="43.56694194957946" lon="10.782764470214753"><ele>119.0</ele><time>2026-04-18T08:46:21Z</time></trkpt><trkpt lat="43.56689258016978" lon="10.782926240945963"><ele>121.0</ele><time>2026-04-18T08:46:22Z</time></trkpt><trkpt lat="43.56684572533105" lon="10.783100416893868"><ele>123.0</ele><time>2026-04-18T08:46:23Z</time></trkpt><trkpt lat="43.56679505672638" lon="10.783256655568985"><ele>125.0</ele><time>2026-04-18T08:46:24Z</time></trkpt><trkpt lat="43.56675038118247" lon="10.783401411036758"><ele>127.0</ele><time>2026-04-18T08:46:25Z</time></trkpt><trkpt lat="43.56671207588498" lon="10.783531749631075"><ele>127.39999999999999</ele><time>2026-04-18T08:46:26Z</time></trkpt><trkpt lat="43.56667071119283" lon="10.783651275570303"><ele>127.79999999999998</ele><time>2026-04-18T08:46:27Z</time></trkpt><trkpt lat="43.5666212160546" lon="10.783778512860447"><ele>128.2</ele><time>2026-04-18T08:46:28Z</time></trkpt><trkpt lat="43.56655638203357" lon="10.78391647898665"><ele>128.6</ele><time>2026-04-18T08:46:29Z</time></trkpt><trkpt lat="43.566494397859614" lon="10.784051846722871"><ele>129.0</ele><time>2026-04-18T08:46:30Z</time></trkpt><trkpt lat="43.5664391192082" lon="10.784180006022364"><ele>129.0</ele><time>2026-04-18T08:46:31Z</time></trkpt><trkpt lat="43.56637973342423" lon="10.784305818388969"><ele>129.0</ele><time>2026-04-18T08:46:32Z</time></trkpt><trkpt lat="43.56631699487899" lon="10.78442408704272"><ele>129.0</ele><time>2026-04-18T08:46:33Z</time></trkpt><trkpt lat="43.56624696407799" lon="10.784524921337873"><ele>129.0</ele><time>2026-04-18T08:46:34Z</time></trkpt><trkpt lat="43.56617756191973" lon="10.78461125494054"><ele>129.0</ele><time>2026-04-18T08:46:35Z</time></trkpt><trkpt lat="43.56610765684728" lon="10.784687781716496"><ele>130.4</ele><time>2026-04-18T08:46:36Z</time></trkpt><trkpt lat="43.56603892524127" lon="10.78474905342868"><ele>131.8</ele><time>2026-04-18T08:46:37Z</time></trkpt><trkpt lat="43.56593574401323" lon="10.784814096997291"><ele>133.2</ele><time>2026-04-18T08:46:39Z</time></trkpt><trkpt lat="43.56586370155547" lon="10.784910237426669"><ele>134.6</ele><time>2026-04-18T08:46:41Z</time></trkpt><trkpt lat="43.565829461481016" lon="10.785040156925827"><ele>136.0</ele><time>2026-04-18T08:46:43Z</time></trkpt><trkpt lat="43.565797694067996" lon="10.785151636238009"><ele>135.8</ele><time>2026-04-18T08:46:44Z</time></trkpt><trkpt lat="43.565767351578515" lon="10.785272168005616"><ele>135.6</ele><time>2026-04-18T08:46:45Z</time></trkpt><trkpt lat="43.56572682507668" lon="10.785402255142838"><ele>135.4</ele><time>2026-04-18T08:46:46Z</time></trkpt><trkpt lat="43.56567753948603" lon="10.785520439977557"><ele>135.2</ele><time>2026-04-18T08:46:47Z</time></trkpt><trkpt lat="43.56562766716216" lon="10.785643905411275"><ele>135.0</ele><time>2026-04-18T08:46:48Z</time></trkpt><trkpt lat="43.565581399056654" lon="10.78575362452379"><ele>135.0</ele><time>2026-04-18T08:46:49Z</time></trkpt><trkpt lat="43.56554389003996" lon="10.785850519324454"><ele>135.0</ele><time>2026-04-18T08:46:50Z</time></trkpt><trkpt lat="43.5654995916817" lon="10.786002483228954"><ele>135.0</ele><time>2026-04-18T08:46:52Z</time></trkpt><trkpt lat="43.56548232496117" lon="10.786094600344809"><ele>135.0</ele><time>2026-04-18T08:46:53Z</time></trkpt><trkpt lat="43.56546229221259" lon="10.78618504108003"><ele>135.0</ele><time>2026-04-18T08:46:54Z</time></trkpt><trkpt lat="43.56544204991643" lon="10.786325940872343"><ele>135.0</ele><time>2026-04-18T08:46:56Z</time></trkpt><trkpt lat="43.565430231432956" lon="10.786434989432605"><ele>135.0</ele><time>2026-04-18T08:46:58Z</time></trkpt><trkpt lat="43.56541153978888" lon="10.786583935851963"><ele>135.0</ele><time>2026-04-18T08:47:00Z</time></trkpt><trkpt lat="43.56538769327436" lon="10.786698935563477"><ele>135.0</ele><time>2026-04-18T08:47:01Z</time></trkpt><trkpt lat="43.56532751120959" lon="10.786833213652285"><ele>135.0</ele><time>2026-04-18T08:47:02Z</time></trkpt><trkpt lat="43.565184308341294" lon="10.786854981417266"><ele>135.0</ele><time>2026-04-18T08:47:03Z</time></trkpt><trkpt lat="43.565099540804795" lon="10.786925993650334"><ele>135.0</ele><time>2026-04-18T08:47:04Z</time></trkpt><trkpt lat="43.56497298198325" lon="10.787022150244848"><ele>135.0</ele><time>2026-04-18T08:47:05Z</time></trkpt><trkpt lat="43.56498221870844" lon="10.78724149615577"><ele>135.0</ele><time>2026-04-18T08:47:06Z</time></trkpt><trkpt lat="43.564925263676386" lon="10.787303941334399"><ele>135.0</ele><time>2026-04-18T08:47:07Z</time></trkpt><trkpt lat="43.56486763809208" lon="10.787423383454593"><ele>135.0</ele><time>2026-04-18T08:47:09Z</time></trkpt><trkpt lat="43.56484911408607" lon="10.787522206092987"><ele>135.0</ele><time>2026-04-18T08:47:11Z</time></trkpt><trkpt lat="43.56484303720627" lon="10.78764500097445"><ele>135.0</ele><time>2026-04-18T08:47:14Z</time></trkpt><trkpt lat="43.56481047351245" lon="10.787796629602823"><ele>135.0</ele><time>2026-04-18T08:47:16Z</time></trkpt><trkpt lat="43.56478486679826" lon="10.787884304309998"><ele>135.14285714285714</ele><time>2026-04-18T08:47:17Z</time></trkpt><trkpt lat="43.56475703887973" lon="10.78797432595006"><ele>135.28571428571428</ele><time>2026-04-18T08:47:18Z</time></trkpt><trkpt lat="43.56472388845269" lon="10.78806275502852"><ele>135.42857142857142</ele><time>2026-04-18T08:47:19Z</time></trkpt><trkpt lat="43.56468910355453" lon="10.788153447220836"><ele>135.57142857142856</ele><time>2026-04-18T08:47:20Z</time></trkpt><trkpt lat="43.56465264227573" lon="10.788249755288277"><ele>135.71428571428572</ele><time>2026-04-18T08:47:21Z</time></trkpt><trkpt lat="43.56462079104368" lon="10.788348829383764"><ele>135.85714285714283</ele><time>2026-04-18T08:47:22Z</time></trkpt><trkpt lat="43.56459723789577" lon="10.788440862680588"><ele>136.0</ele><time>2026-04-18T08:47:23Z</time></trkpt><trkpt lat="43.56457452293817" lon="10.788541529337678"><ele>136.0</ele><time>2026-04-18T08:47:24Z</time></trkpt><trkpt lat="43.564572678919475" lon="10.788642195994768"><ele>136.0</ele><time>2026-04-18T08:47:25Z</time></trkpt><trkpt lat="43.564586760516804" lon="10.788746131594095"><ele>136.0</ele><time>2026-04-18T08:47:26Z</time></trkpt><trkpt lat="43.56459451377724" lon="10.788856521258865"><ele>136.0</ele><time>2026-04-18T08:47:27Z</time></trkpt><trkpt lat="43.564581689465385" lon="10.788989542062197"><ele>136.0</ele><time>2026-04-18T08:47:28Z</time></trkpt><trkpt lat="43.564554783556204" lon="10.78913773411027"><ele>136.0</ele><time>2026-04-18T08:47:29Z</time></trkpt><trkpt lat="43.56451869946305" lon="10.789276789883885"><ele>135.4</ele><time>2026-04-18T08:47:30Z</time></trkpt><trkpt lat="43.56448207054619" lon="10.789406541744983"><ele>134.8</ele><time>2026-04-18T08:47:31Z</time></trkpt><trkpt lat="43.56444858484302" lon="10.789538389081871"><ele>134.20000000000002</ele><time>2026-04-18T08:47:32Z</time></trkpt><trkpt lat="43.564425576518815" lon="10.789674846465504"><ele>133.6</ele><time>2026-04-18T08:47:33Z</time></trkpt><trkpt lat="43.56440495703701" lon="10.789795629690206"><ele>133.0</ele><time>2026-04-18T08:47:34Z</time></trkpt><trkpt lat="43.564383080269735" lon="10.78991607763878"><ele>133.0</ele><time>2026-04-18T08:47:35Z</time></trkpt><trkpt lat="43.56435701255087" lon="10.790040548900878"><ele>133.0</ele><time>2026-04-18T08:47:36Z</time></trkpt><trkpt lat="43.564334004226666" lon="10.79017457553259"><ele>133.0</ele><time>2026-04-18T08:47:37Z</time></trkpt><trkpt lat="43.56429825540964" lon="10.790310613821065"><ele>133.0</ele><time>2026-04-18T08:47:38Z</time></trkpt><trkpt lat="43.56425475333218" lon="10.790463164458787"><ele>133.0</ele><time>2026-04-18T08:47:39Z</time></trkpt><trkpt lat="43.564215023111146" lon="10.790613451982653"><ele>133.6</ele><time>2026-04-18T08:47:40Z</time></trkpt><trkpt lat="43.56417898092751" lon="10.790752507756268"><ele>134.20000000000002</ele><time>2026-04-18T08:47:41Z</time></trkpt><trkpt lat="43.564155343960564" lon="10.790883097807681"><ele>134.8</ele><time>2026-04-18T08:47:42Z</time></trkpt><trkpt lat="43.5641448665816" lon="10.791006479422366"><ele>135.4</ele><time>2026-04-18T08:47:43Z</time></trkpt><trkpt lat="43.5641490994427" lon="10.791147630671775"><ele>136.0</ele><time>2026-04-18T08:47:44Z</time></trkpt><trkpt lat="43.56414080135856" lon="10.791288949559249"><ele>136.0</ele><time>2026-04-18T08:47:44.999Z</time></trkpt><trkpt lat="43.564128312322836" lon="10.791427083323516"><ele>136.0</ele><time>2026-04-18T08:47:45.999Z</time></trkpt><trkpt lat="43.564099688123505" lon="10.791564462716497"><ele>136.0</ele><time>2026-04-18T08:47:46.999Z</time></trkpt><trkpt lat="43.56407676361833" lon="10.791688766340531"><ele>136.0</ele><time>2026-04-18T08:47:47.999Z</time></trkpt><trkpt lat="43.56406402312551" lon="10.79180594534687"><ele>136.0</ele><time>2026-04-18T08:47:48.999Z</time></trkpt><trkpt lat="43.564064274582606" lon="10.791940474892773"><ele>137.4</ele><time>2026-04-18T08:47:49.999Z</time></trkpt><trkpt lat="43.5640766797993" lon="10.792089002216972"><ele>138.8</ele><time>2026-04-18T08:47:50.999Z</time></trkpt><trkpt lat="43.56410220269446" lon="10.79223593697957"><ele>140.20000000000002</ele><time>2026-04-18T08:47:51.999Z</time></trkpt><trkpt lat="43.56412106197659" lon="10.792372059087075"><ele>141.6</ele><time>2026-04-18T08:47:52.999Z</time></trkpt><trkpt lat="43.56413053352718" lon="10.792490495378889"><ele>143.0</ele><time>2026-04-18T08:47:53.999Z</time></trkpt><trkpt lat="43.56413623322133" lon="10.792596861730136"><ele>144.0</ele><time>2026-04-18T08:47:54.999Z</time></trkpt><trkpt lat="43.564141891005974" lon="10.792685206989564"><ele>145.0</ele><time>2026-04-18T08:47:55.999Z</time></trkpt><trkpt lat="43.56415287129913" lon="10.792775228629626"><ele>146.0</ele><time>2026-04-18T08:47:56.999Z</time></trkpt><trkpt lat="43.56418287851248" lon="10.792861562232293"><ele>147.0</ele><time>2026-04-18T08:47:57.999Z</time></trkpt><trkpt lat="43.564239204901796" lon="10.793043281893052"><ele>148.0</ele><time>2026-04-18T08:47:59.999Z</time></trkpt><trkpt lat="43.564278264570575" lon="10.793154677386202"><ele>149.0</ele><time>2026-04-18T08:48:00.999Z</time></trkpt><trkpt lat="43.56429892596189" lon="10.793247967968503"><ele>149.0</ele><time>2026-04-18T08:48:01.999Z</time></trkpt><trkpt lat="43.564321682829004" lon="10.793345449502388"><ele>149.0</ele><time>2026-04-18T08:48:02.999Z</time></trkpt><trkpt lat="43.56432189237658" lon="10.793451648215571"><ele>149.0</ele><time>2026-04-18T08:48:03.999Z</time></trkpt><trkpt lat="43.56433044191782" lon="10.793561954061309"><ele>149.0</ele><time>2026-04-18T08:48:04.999Z</time></trkpt><trkpt lat="43.56431451630179" lon="10.793691454465309"><ele>149.0</ele><time>2026-04-18T08:48:05.999Z</time></trkpt><trkpt lat="43.56431372002099" lon="10.793819949040929"><ele>149.0</ele><time>2026-04-18T08:48:06.999Z</time></trkpt><trkpt lat="43.5642899573255" lon="10.793968476365128"><ele>149.0</ele><time>2026-04-18T08:48:07.999Z</time></trkpt><trkpt lat="43.56428622737859" lon="10.794126642877975"><ele>149.0</ele><time>2026-04-18T08:48:08.999Z</time></trkpt><trkpt lat="43.56427658818994" lon="10.794280115525046"><ele>149.0</ele><time>2026-04-18T08:48:09.999Z</time></trkpt><trkpt lat="43.5642709304053" lon="10.794438701133052"><ele>149.0</ele><time>2026-04-18T08:48:10.999Z</time></trkpt><trkpt lat="43.564239121082764" lon="10.794603154073277"><ele>149.0</ele><time>2026-04-18T08:48:11.999Z</time></trkpt><trkpt lat="43.56421548411582" lon="10.794777330021182"><ele>149.0</ele><time>2026-04-18T08:48:12.999Z</time></trkpt><trkpt lat="43.564210077788275" lon="10.794922085488954"><ele>149.0</ele><time>2026-04-18T08:48:13.999Z</time></trkpt><trkpt lat="43.56420999396924" lon="10.795026775459567"><ele>149.0</ele><time>2026-04-18T08:48:14.999Z</time></trkpt><trkpt lat="43.56418908112083" lon="10.795122077698629"><ele>149.0</ele><time>2026-04-18T08:48:15.999Z</time></trkpt><trkpt lat="43.564144321757894" lon="10.79521838576607"><ele>149.75</ele><time>2026-04-18T08:48:16.999Z</time></trkpt><trkpt lat="43.56408397205506" lon="10.795324249203126"><ele>150.5</ele><time>2026-04-18T08:48:17.999Z</time></trkpt><trkpt lat="43.56399227403436" lon="10.795439835647862"><ele>151.25</ele><time>2026-04-18T08:48:18.999Z</time></trkpt><trkpt lat="43.563906862441044" lon="10.795558355758708"><ele>152.0</ele><time>2026-04-18T08:48:19.999Z</time></trkpt><trkpt lat="43.56380485467945" lon="10.795662207539003"><ele>152.0</ele><time>2026-04-18T08:48:20.999Z</time></trkpt><trkpt lat="43.56369756631885" lon="10.795767400423806"><ele>152.0</ele><time>2026-04-18T08:48:21.999Z</time></trkpt><trkpt lat="43.56356990993355" lon="10.79586630688123"><ele>152.0</ele><time>2026-04-18T08:48:22.999Z</time></trkpt><trkpt lat="43.56347485915158" lon="10.795957082892578"><ele>152.0</ele><time>2026-04-18T08:48:23.999Z</time></trkpt><trkpt lat="43.56340336151753" lon="10.79603486695401"><ele>154.6</ele><time>2026-04-18T08:48:24.999Z</time></trkpt><trkpt lat="43.56335143562738" lon="10.796118015433471"><ele>157.2</ele><time>2026-04-18T08:48:25.999Z</time></trkpt><trkpt lat="43.56332385916595" lon="10.796214155862849"><ele>159.8</ele><time>2026-04-18T08:48:26.999Z</time></trkpt><trkpt lat="43.56331514198665" lon="10.796340052048485"><ele>162.4</ele><time>2026-04-18T08:48:27.999Z</time></trkpt><trkpt lat="43.563331067602675" lon="10.796493943790715"><ele>165.0</ele><time>2026-04-18T08:48:28.999Z</time></trkpt><trkpt lat="43.563359188887816" lon="10.796684715906899"><ele>165.66666666666666</ele><time>2026-04-18T08:48:29.999Z</time></trkpt><trkpt lat="43.56340419970785" lon="10.796897197152298"><ele>166.33333333333331</ele><time>2026-04-18T08:48:30.999Z</time></trkpt><trkpt lat="43.563458053435724" lon="10.797113282616062"><ele>167.0</ele><time>2026-04-18T08:48:31.999Z</time></trkpt><trkpt lat="43.563518738414686" lon="10.797321572909874"><ele>167.0</ele><time>2026-04-18T08:48:32.999Z</time></trkpt><trkpt lat="43.56360188689415" lon="10.797543274248762"><ele>167.0</ele><time>2026-04-18T08:48:33.999Z</time></trkpt><trkpt lat="43.56368218552653" lon="10.797758437703175"><ele>167.0</ele><time>2026-04-18T08:48:34.999Z</time></trkpt><trkpt lat="43.56374291241501" lon="10.797948036352915"><ele>168.75</ele><time>2026-04-18T08:48:35.999Z</time></trkpt><trkpt lat="43.56378607921634" lon="10.798114165673775"><ele>170.5</ele><time>2026-04-18T08:48:36.999Z</time></trkpt><trkpt lat="43.563805776688795" lon="10.798273924748225"><ele>172.25</ele><time>2026-04-18T08:48:37.999Z</time></trkpt><trkpt lat="43.56380489658896" lon="10.798431420708818"><ele>174.0</ele><time>2026-04-18T08:48:38.999Z</time></trkpt><trkpt lat="43.563791820820015" lon="10.798567291359229"><ele>175.0</ele><time>2026-04-18T08:48:39.999Z</time></trkpt><trkpt lat="43.563769860233705" lon="10.798673238615317"><ele>176.0</ele><time>2026-04-18T08:48:40.999Z</time></trkpt><trkpt lat="43.563720909919184" lon="10.798741215850038"><ele>177.0</ele><time>2026-04-18T08:48:41.999Z</time></trkpt><trkpt lat="43.56365687217895" lon="10.79877013341598"><ele>178.0</ele><time>2026-04-18T08:48:42.999Z</time></trkpt><trkpt lat="43.56357686691318" lon="10.798780946071071"><ele>179.0</ele><time>2026-04-18T08:48:43.999Z</time></trkpt><trkpt lat="43.563488689291816" lon="10.798773402358217"><ele>180.0</ele><time>2026-04-18T08:48:44.999Z</time></trkpt><trkpt lat="43.56341052804474" lon="10.798753201971573"><ele>181.5</ele><time>2026-04-18T08:48:45.999Z</time></trkpt><trkpt lat="43.563346448394995" lon="10.798729900280756"><ele>183.0</ele><time>2026-04-18T08:48:46.999Z</time></trkpt><trkpt lat="43.56326451529149" lon="10.798700647438688"><ele>184.5</ele><time>2026-04-18T08:48:49.999Z</time></trkpt><trkpt lat="43.56332603846077" lon="10.798735348517818"><ele>186.0</ele><time>2026-04-18T08:50:49.999Z</time></trkpt><trkpt lat="43.56333601292555" lon="10.798828555281085"><ele>187.5</ele><time>2026-04-18T09:00:55.998Z</time></trkpt><trkpt lat="43.563417987938564" lon="10.79887809232883"><ele>189.0</ele><time>2026-04-18T09:00:59.998Z</time></trkpt><trkpt lat="43.56351790022437" lon="10.798961659903451"><ele>189.0</ele><time>2026-04-18T09:01:01.998Z</time></trkpt><trkpt lat="43.563571753952246" lon="10.79901387916021"><ele>189.0</ele><time>2026-04-18T09:01:02.998Z</time></trkpt><trkpt lat="43.563623554113846" lon="10.799070205549523"><ele>189.0</ele><time>2026-04-18T09:01:03.998Z</time></trkpt><trkpt lat="43.56367275588546" lon="10.799128459776565"><ele>189.0</ele><time>2026-04-18T09:01:04.998Z</time></trkpt><trkpt lat="43.56371244419698" lon="10.799213955188915"><ele>189.0</ele><time>2026-04-18T09:01:05.998Z</time></trkpt><trkpt lat="43.563770866062086" lon="10.799359129751846"><ele>189.0</ele><time>2026-04-18T09:01:07.998Z</time></trkpt><trkpt lat="43.563800118904155" lon="10.7994375005465"><ele>188.33333333333334</ele><time>2026-04-18T09:01:08.998Z</time></trkpt><trkpt lat="43.5638131946731" lon="10.799527689824625"><ele>187.66666666666666</ele><time>2026-04-18T09:01:09.998Z</time></trkpt><trkpt lat="43.56383385606442" lon="10.79962366261594"><ele>187.0</ele><time>2026-04-18T09:01:10.998Z</time></trkpt><trkpt lat="43.56387182608579" lon="10.79971795902662"><ele>186.33333333333331</ele><time>2026-04-18T09:01:11.998Z</time></trkpt><trkpt lat="43.56392651800398" lon="10.799805717552825"><ele>185.66666666666666</ele><time>2026-04-18T09:01:12.998Z</time></trkpt><trkpt lat="43.56398452077393" lon="10.799877215186878"><ele>185.0</ele><time>2026-04-18T09:01:13.998Z</time></trkpt><trkpt lat="43.564056479412656" lon="10.79993546941392"><ele>185.0</ele><time>2026-04-18T09:01:14.998Z</time></trkpt><trkpt lat="43.564128312322836" lon="10.79999263399355"><ele>185.0</ele><time>2026-04-18T09:01:15.998Z</time></trkpt><trkpt lat="43.56421338864003" lon="10.800035884613916"><ele>185.0</ele><time>2026-04-18T09:01:16.998Z</time></trkpt><trkpt lat="43.5643047513846" lon="10.800089025880023"><ele>185.0</ele><time>2026-04-18T09:01:17.998Z</time></trkpt><trkpt lat="43.56438538529311" lon="10.80013185740523"><ele>185.0</ele><time>2026-04-18T09:01:18.998Z</time></trkpt><trkpt lat="43.564468072767895" lon="10.800172174359485"><ele>185.0</ele><time>2026-04-18T09:01:19.998Z</time></trkpt><trkpt lat="43.564549419138174" lon="10.800215173522755"><ele>184.0</ele><time>2026-04-18T09:01:20.998Z</time></trkpt><trkpt lat="43.56463847685937" lon="10.800263620923086"><ele>183.0</ele><time>2026-04-18T09:01:21.998Z</time></trkpt><trkpt lat="43.56472996533249" lon="10.800302932048961"><ele>182.0</ele><time>2026-04-18T09:01:22.998Z</time></trkpt><trkpt lat="43.564813490997594" lon="10.800344171012565"><ele>181.0</ele><time>2026-04-18T09:01:23.998Z</time></trkpt><trkpt lat="43.564895424101096" lon="10.800378452996537"><ele>180.0</ele><time>2026-04-18T09:01:24.998Z</time></trkpt><trkpt lat="43.56498154815618" lon="10.800401251773163"><ele>180.0</ele><time>2026-04-18T09:01:25.998Z</time></trkpt><trkpt lat="43.56506658256386" lon="10.800418015579506"><ele>180.0</ele><time>2026-04-18T09:01:26.998Z</time></trkpt><trkpt lat="43.56515589174215" lon="10.800418769950792"><ele>180.0</ele><time>2026-04-18T09:01:27.998Z</time></trkpt><trkpt lat="43.56524880513881" lon="10.800415836284682"><ele>180.0</ele><time>2026-04-18T09:01:28.998Z</time></trkpt><trkpt lat="43.56533295944665" lon="10.800421033064648"><ele>180.0</ele><time>2026-04-18T09:01:29.998Z</time></trkpt><trkpt lat="43.56541573074047" lon="10.800432097176834"><ele>180.0</ele><time>2026-04-18T09:01:30.998Z</time></trkpt><trkpt lat="43.56549770575349" lon="10.800463110218569"><ele>180.4</ele><time>2026-04-18T09:01:31.998Z</time></trkpt><trkpt lat="43.5655833688039" lon="10.800515497113391"><ele>180.8</ele><time>2026-04-18T09:01:32.998Z</time></trkpt><trkpt lat="43.565662745426934" lon="10.800601076344773"><ele>181.2</ele><time>2026-04-18T09:01:33.998Z</time></trkpt><trkpt lat="43.5657310998473" lon="10.8007084485244"><ele>181.6</ele><time>2026-04-18T09:01:34.998Z</time></trkpt><trkpt lat="43.56580339376215" lon="10.800809366638587"><ele>182.0</ele><time>2026-04-18T09:01:35.998Z</time></trkpt><trkpt lat="43.565881387371164" lon="10.800894862050937"><ele>182.0</ele><time>2026-04-18T09:01:36.998Z</time></trkpt><trkpt lat="43.56598469432775" lon="10.800981279472635"><ele>182.0</ele><time>2026-04-18T09:01:37.998Z</time></trkpt><trkpt lat="43.56611331463192" lon="10.801062500114368"><ele>182.0</ele><time>2026-04-18T09:01:38.998Z</time></trkpt><trkpt lat="43.56626154858951" lon="10.801156293610857"><ele>182.0</ele><time>2026-04-18T09:01:39.998Z</time></trkpt><trkpt lat="43.566433796699684" lon="10.801263162876294"><ele>182.33333333333331</ele><time>2026-04-18T09:01:40.998Z</time></trkpt><trkpt lat="43.566611157770794" lon="10.8013768214833"><ele>182.66666666666666</ele><time>2026-04-18T09:01:41.998Z</time></trkpt><trkpt lat="43.56677418578748" lon="10.80148092472069"><ele>183.0</ele><time>2026-04-18T09:01:42.998Z</time></trkpt><trkpt lat="43.566940063651245" lon="10.801584105948733"><ele>185.0</ele><time>2026-04-18T09:01:43.998Z</time></trkpt><trkpt lat="43.56710900090967" lon="10.801673708493636"><ele>187.0</ele><time>2026-04-18T09:01:44.998Z</time></trkpt><trkpt lat="43.56727508832101" lon="10.801751911650227"><ele>189.0</ele><time>2026-04-18T09:01:45.998Z</time></trkpt><trkpt lat="43.567441091913324" lon="10.80181511120014"><ele>187.0</ele><time>2026-04-18T09:01:46.998Z</time></trkpt><trkpt lat="43.5676157288659" lon="10.80185760744922"><ele>185.0</ele><time>2026-04-18T09:01:47.998Z</time></trkpt><trkpt lat="43.567802184301954" lon="10.801876131455229"><ele>183.0</ele><time>2026-04-18T09:01:48.998Z</time></trkpt><trkpt lat="43.568002595606785" lon="10.801894655461238"><ele>182.33333333333334</ele><time>2026-04-18T09:01:49.998Z</time></trkpt><trkpt lat="43.568201917264204" lon="10.801909742886947"><ele>181.66666666666669</ele><time>2026-04-18T09:01:50.998Z</time></trkpt><trkpt lat="43.568395748775046" lon="10.801920555542038"><ele>181.0</ele><time>2026-04-18T09:01:51.998Z</time></trkpt><trkpt lat="43.568568457889896" lon="10.801930027092622"><ele>184.25</ele><time>2026-04-18T09:01:52.998Z</time></trkpt><trkpt lat="43.56872394219373" lon="10.801935391510652"><ele>187.5</ele><time>2026-04-18T09:01:53.998Z</time></trkpt><trkpt lat="43.56885805264447" lon="10.80193237402551"><ele>190.75</ele><time>2026-04-18T09:01:54.998Z</time></trkpt><trkpt lat="43.56899342038069" lon="10.801909826705979"><ele>194.0</ele><time>2026-04-18T09:01:55.998Z</time></trkpt><trkpt lat="43.56912396852259" lon="10.801858361820505"><ele>194.0</ele><time>2026-04-18T09:01:56.998Z</time></trkpt><trkpt lat="43.569243913556974" lon="10.801809998239206"><ele>194.0</ele><time>2026-04-18T09:01:57.998Z</time></trkpt><trkpt lat="43.569346298504215" lon="10.801793066794799"><ele>194.0</ele><time>2026-04-18T09:01:58.998Z</time></trkpt><trkpt lat="43.569434476125586" lon="10.80181268044822"><ele>194.0</ele><time>2026-04-18T09:01:59.998Z</time></trkpt><trkpt lat="43.569507733959306" lon="10.801879987130688"><ele>194.0</ele><time>2026-04-18T09:02:00.998Z</time></trkpt><trkpt lat="43.569577345665145" lon="10.80198174343519"><ele>199.0</ele><time>2026-04-18T09:02:01.998Z</time></trkpt><trkpt lat="43.569640670943606" lon="10.802111327658222"><ele>204.0</ele><time>2026-04-18T09:02:02.998Z</time></trkpt><trkpt lat="43.569704415317226" lon="10.802240828062223"><ele>208.99999999999997</ele><time>2026-04-18T09:02:03.998Z</time></trkpt><trkpt lat="43.56975466482674" lon="10.80236722716205"><ele>214.0</ele><time>2026-04-18T09:02:04.998Z</time></trkpt><trkpt lat="43.56980139393692" lon="10.802497817213462"><ele>219.0</ele><time>2026-04-18T09:02:05.998Z</time></trkpt><trkpt lat="43.56985189490353" lon="10.80261399039142"><ele>216.66666666666666</ele><time>2026-04-18T09:02:06.998Z</time></trkpt><trkpt lat="43.569894013966966" lon="10.80272094347589"><ele>214.33333333333331</ele><time>2026-04-18T09:02:07.998Z</time></trkpt><trkpt lat="43.569934708106864" lon="10.802819514657187"><ele>212.0</ele><time>2026-04-18T09:02:08.998Z</time></trkpt><trkpt lat="43.569983155507195" lon="10.80291397870593"><ele>209.66666666666666</ele><time>2026-04-18T09:02:09.998Z</time></trkpt><trkpt lat="43.57003562622105" lon="10.803003162155676"><ele>207.33333333333331</ele><time>2026-04-18T09:02:10.998Z</time></trkpt><trkpt lat="43.57008998286312" lon="10.803107265393066"><ele>205.0</ele><time>2026-04-18T09:02:11.998Z</time></trkpt><trkpt lat="43.570148069452095" lon="10.803210614259172"><ele>205.0</ele><time>2026-04-18T09:02:12.998Z</time></trkpt><trkpt lat="43.570224763866115" lon="10.803294684747982"><ele>205.0</ele><time>2026-04-18T09:02:13.998Z</time></trkpt><trkpt lat="43.570318347815025" lon="10.80337179825716"><ele>205.0</ele><time>2026-04-18T09:02:14.998Z</time></trkpt><trkpt lat="43.57043326370751" lon="10.803433153788376"><ele>205.0</ele><time>2026-04-18T09:02:15.998Z</time></trkpt><trkpt lat="43.57054914351885" lon="10.803492832938957"><ele>204.25</ele><time>2026-04-18T09:02:16.998Z</time></trkpt><trkpt lat="43.57066116765474" lon="10.803562738011408"><ele>203.5</ele><time>2026-04-18T09:02:17.998Z</time></trkpt><trkpt lat="43.570775748271096" lon="10.803630882884192"><ele>202.75</ele><time>2026-04-18T09:02:18.998Z</time></trkpt><trkpt lat="43.570879558141876" lon="10.803724424923587"><ele>202.0</ele><time>2026-04-18T09:02:19.998Z</time></trkpt><trkpt lat="43.570971633348215" lon="10.803869767124581"><ele>202.0</ele><time>2026-04-18T09:02:20.998Z</time></trkpt><trkpt lat="43.571049752685774" lon="10.80403732136898"><ele>202.0</ele><time>2026-04-18T09:02:21.998Z</time></trkpt><trkpt lat="43.57108457949345" lon="10.804252736280489"><ele>202.0</ele><time>2026-04-18T09:02:22.998Z</time></trkpt><trkpt lat="43.57109329667275" lon="10.8044887706738"><ele>198.66666666666666</ele><time>2026-04-18T09:02:23.998Z</time></trkpt><trkpt lat="43.57108793225472" lon="10.804756069565942"><ele>195.33333333333331</ele><time>2026-04-18T09:02:24.998Z</time></trkpt><trkpt lat="43.57106660031115" lon="10.805025883029034"><ele>192.0</ele><time>2026-04-18T09:02:25.998Z</time></trkpt><trkpt lat="43.571038814302135" lon="10.805282620723178"><ele>188.33333333333334</ele><time>2026-04-18T09:02:26.998Z</time></trkpt><trkpt lat="43.57101358477359" lon="10.805511614317824"><ele>184.66666666666669</ele><time>2026-04-18T09:02:27.998Z</time></trkpt><trkpt lat="43.57100021563803" lon="10.80572149717324"><ele>181.0</ele><time>2026-04-18T09:02:28.998Z</time></trkpt><trkpt lat="43.570995396043706" lon="10.805929116914799"><ele>179.33333333333334</ele><time>2026-04-18T09:02:29.998Z</time></trkpt><trkpt lat="43.57101396195923" lon="10.806149980063369"><ele>177.66666666666666</ele><time>2026-04-18T09:02:30.998Z</time></trkpt><trkpt lat="43.57104971077626" lon="10.806382577876379"><ele>176.0</ele><time>2026-04-18T09:02:31.998Z</time></trkpt><trkpt lat="43.571084747131515" lon="10.806624647239975"><ele>177.33333333333331</ele><time>2026-04-18T09:02:32.998Z</time></trkpt><trkpt lat="43.57112347152417" lon="10.80684576184564"><ele>178.66666666666666</ele><time>2026-04-18T09:02:33.998Z</time></trkpt><trkpt lat="43.571152221452046" lon="10.807060170928768"><ele>180.0</ele><time>2026-04-18T09:02:34.998Z</time></trkpt><trkpt lat="43.57116747651582" lon="10.80726016313844"><ele>180.0</ele><time>2026-04-18T09:02:35.998Z</time></trkpt><trkpt lat="43.57115699913685" lon="10.807464011023573"><ele>180.0</ele><time>2026-04-18T09:02:36.998Z</time></trkpt><trkpt lat="43.57110381596123" lon="10.80765788444393"><ele>180.0</ele><time>2026-04-18T09:02:37.998Z</time></trkpt><trkpt lat="43.571021715219665" lon="10.807842621589831"><ele>178.66666666666666</ele><time>2026-04-18T09:02:38.998Z</time></trkpt><trkpt lat="43.57090512294655" lon="10.80805074424558"><ele>177.33333333333331</ele><time>2026-04-18T09:02:39.998Z</time></trkpt><trkpt lat="43.570777173194635" lon="10.808266075338057"><ele>176.0</ele><time>2026-04-18T09:02:40.998Z</time></trkpt><trkpt lat="43.57064985208546" lon="10.808469168851905"><ele>174.0</ele><time>2026-04-18T09:02:41.997Z</time></trkpt><trkpt lat="43.570529613684464" lon="10.80863311887794"><ele>172.0</ele><time>2026-04-18T09:02:42.997Z</time></trkpt><trkpt lat="43.57041029729282" lon="10.808764463300639"><ele>170.0</ele><time>2026-04-18T09:02:43.997Z</time></trkpt><trkpt lat="43.57027924623673" lon="10.808815425271922"><ele>170.0</ele><time>2026-04-18T09:02:44.997Z</time></trkpt><trkpt lat="43.57014350131487" lon="10.808865800509983"><ele>170.0</ele><time>2026-04-18T09:02:45.997Z</time></trkpt><trkpt lat="43.57000859458332" lon="10.808816514919334"><ele>170.0</ele><time>2026-04-18T09:02:46.997Z</time></trkpt><trkpt lat="43.56985407419835" lon="10.80872741528862"><ele>170.0</ele><time>2026-04-18T09:02:47.997Z</time></trkpt><trkpt lat="43.56971510224377" lon="10.808651894341045"><ele>170.0</ele><time>2026-04-18T09:02:48.997Z</time></trkpt><trkpt lat="43.56957403481339" lon="10.808639489124351"><ele>170.0</ele><time>2026-04-18T09:02:49.997Z</time></trkpt><trkpt lat="43.56942948889319" lon="10.808691624562078"><ele>170.0</ele><time>2026-04-18T09:02:50.997Z</time></trkpt><trkpt lat="43.56928410478268" lon="10.80879379996174"><ele>169.33333333333331</ele><time>2026-04-18T09:02:51.997Z</time></trkpt><trkpt lat="43.56914245061908" lon="10.808940231810146"><ele>168.66666666666666</ele><time>2026-04-18T09:02:52.997Z</time></trkpt><trkpt lat="43.56901764408086" lon="10.809095716113978"><ele>168.0</ele><time>2026-04-18T09:02:53.997Z</time></trkpt><trkpt lat="43.568910229991715" lon="10.809252122427159"><ele>168.25</ele><time>2026-04-18T09:02:54.997Z</time></trkpt><trkpt lat="43.56880558193062" lon="10.809403751055532"><ele>168.5</ele><time>2026-04-18T09:02:55.997Z</time></trkpt><trkpt lat="43.568717488128286" lon="10.80953559839242"><ele>168.75</ele><time>2026-04-18T09:02:56.997Z</time></trkpt><trkpt lat="43.5686337529156" lon="10.809662835682564"><ele>169.0</ele><time>2026-04-18T09:02:57.997Z</time></trkpt><trkpt lat="43.56855923779641" lon="10.809762580330306"><ele>169.0</ele><time>2026-04-18T09:02:58.997Z</time></trkpt><trkpt lat="43.56847826861177" lon="10.809829887012773"><ele>169.0</ele><time>2026-04-18T09:02:59.997Z</time></trkpt><trkpt lat="43.56837881733064" lon="10.809876238937312"><ele>169.0</ele><time>2026-04-18T09:03:00.997Z</time></trkpt><trkpt lat="43.56826729610894" lon="10.809911945844823"><ele>169.0</ele><time>2026-04-18T09:03:01.997Z</time></trkpt><trkpt lat="43.56815346986387" lon="10.809961818168693"><ele>169.0</ele><time>2026-04-18T09:03:02.997Z</time></trkpt><trkpt lat="43.5680528451163" lon="10.8100530132752"><ele>167.75</ele><time>2026-04-18T09:03:03.997Z</time></trkpt><trkpt lat="43.56796165000979" lon="10.810190476487213"><ele>166.5</ele><time>2026-04-18T09:03:04.997Z</time></trkpt><trkpt lat="43.56787913017307" lon="10.810343194763"><ele>165.25</ele><time>2026-04-18T09:03:05.997Z</time></trkpt><trkpt lat="43.56781517625187" lon="10.810504043484862"><ele>164.0</ele><time>2026-04-18T09:03:06.997Z</time></trkpt><trkpt lat="43.56777611658309" lon="10.810674112300212"><ele>164.75</ele><time>2026-04-18T09:03:07.997Z</time></trkpt><trkpt lat="43.56777318291698" lon="10.810845186943943"><ele>165.5</ele><time>2026-04-18T09:03:08.997Z</time></trkpt><trkpt lat="43.567802561487596" lon="10.81102238037699"><ele>166.25</ele><time>2026-04-18T09:03:09.997Z</time></trkpt><trkpt lat="43.567847488488596" lon="10.811219606558616"><ele>167.0</ele><time>2026-04-18T09:03:10.997Z</time></trkpt><trkpt lat="43.567913454066556" lon="10.811440804983313"><ele>167.0</ele><time>2026-04-18T09:03:11.997Z</time></trkpt><trkpt lat="43.56797074437473" lon="10.81165127457195"><ele>167.0</ele><time>2026-04-18T09:03:12.997Z</time></trkpt><trkpt lat="43.56801931750361" lon="10.811851685876782"><ele>167.0</ele><time>2026-04-18T09:03:13.997Z</time></trkpt><trkpt lat="43.56806273576204" lon="10.812048157687123"><ele>168.25</ele><time>2026-04-18T09:03:14.997Z</time></trkpt><trkpt lat="43.56810774658207" lon="10.812249155725178"><ele>169.5</ele><time>2026-04-18T09:03:15.997Z</time></trkpt><trkpt lat="43.5681582894582" lon="10.812434647242364"><ele>170.75</ele><time>2026-04-18T09:03:16.997Z</time></trkpt><trkpt lat="43.56819718148891" lon="10.812608320276079"><ele>172.0</ele><time>2026-04-18T09:03:17.997Z</time></trkpt><trkpt lat="43.568208371329646" lon="10.81276129000896"><ele>172.0</ele><time>2026-04-18T09:03:18.997Z</time></trkpt><trkpt lat="43.568198564502936" lon="10.812920210893092"><ele>172.0</ele><time>2026-04-18T09:03:19.997Z</time></trkpt><trkpt lat="43.56815150011663" lon="10.813084496195254"><ele>172.0</ele><time>2026-04-18T09:03:20.997Z</time></trkpt><trkpt lat="43.56808842629526" lon="10.813260516161856"><ele>172.0</ele><time>2026-04-18T09:03:21.997Z</time></trkpt><trkpt lat="43.56803088452999" lon="10.813442906374869"><ele>172.33333333333334</ele><time>2026-04-18T09:03:22.997Z</time></trkpt><trkpt lat="43.568003308068555" lon="10.813641054565844"><ele>172.66666666666666</ele><time>2026-04-18T09:03:23.997Z</time></trkpt><trkpt lat="43.56800246987824" lon="10.81384607591742"><ele>173.0</ele><time>2026-04-18T09:03:24.997Z</time></trkpt><trkpt lat="43.568025981116634" lon="10.814096611003217"><ele>174.66666666666666</ele><time>2026-04-18T09:03:25.997Z</time></trkpt><trkpt lat="43.568053599487584" lon="10.814370447779833"><ele>176.33333333333334</ele><time>2026-04-18T09:03:26.997Z</time></trkpt><trkpt lat="43.568080714944344" lon="10.814647302041589"><ele>178.0</ele><time>2026-04-18T09:03:27.997Z</time></trkpt><trkpt lat="43.56810795612965" lon="10.814916528771459"><ele>179.0</ele><time>2026-04-18T09:03:28.997Z</time></trkpt><trkpt lat="43.56813599359576" lon="10.815175026665269"><ele>180.0</ele><time>2026-04-18T09:03:29.997Z</time></trkpt><trkpt lat="43.568179663311284" lon="10.815424472103654"><ele>181.0</ele><time>2026-04-18T09:03:30.997Z</time></trkpt><trkpt lat="43.56823980346654" lon="10.815666541467248"><ele>181.0</ele><time>2026-04-18T09:03:31.997Z</time></trkpt><trkpt lat="43.5683205631036" lon="10.815903330231844"><ele>181.0</ele><time>2026-04-18T09:03:32.997Z</time></trkpt><trkpt lat="43.568422277498584" lon="10.8161302283507"><ele>181.0</ele><time>2026-04-18T09:03:33.997Z</time></trkpt><trkpt lat="43.56853736102913" lon="10.816361568878234"><ele>181.33333333333334</ele><time>2026-04-18T09:03:34.997Z</time></trkpt><trkpt lat="43.56864833742712" lon="10.816595591614783"><ele>181.66666666666666</ele><time>2026-04-18T09:03:35.997Z</time></trkpt><trkpt lat="43.56876023583446" lon="10.81681821496302"><ele>182.0</ele><time>2026-04-18T09:03:36.997Z</time></trkpt><trkpt lat="43.568869954946976" lon="10.817039329568685"><ele>182.0</ele><time>2026-04-18T09:03:37.997Z</time></trkpt><trkpt lat="43.56896580200974" lon="10.817252481366337"><ele>182.0</ele><time>2026-04-18T09:03:38.997Z</time></trkpt><trkpt lat="43.569052470888536" lon="10.81745733507985"><ele>182.0</ele><time>2026-04-18T09:03:39.997Z</time></trkpt><trkpt lat="43.56913235042576" lon="10.817661937336267"><ele>178.66666666666666</ele><time>2026-04-18T09:03:40.997Z</time></trkpt><trkpt lat="43.56920640454028" lon="10.817864108840764"><ele>175.33333333333334</ele><time>2026-04-18T09:03:41.997Z</time></trkpt><trkpt lat="43.5692873318154" lon="10.81806468778366"><ele>172.0</ele><time>2026-04-18T09:03:42.997Z</time></trkpt><trkpt lat="43.56936377477233" lon="10.818254621709528"><ele>172.0</ele><time>2026-04-18T09:03:43.997Z</time></trkpt><trkpt lat="43.56942676477466" lon="10.818449836234393"><ele>172.0</ele><time>2026-04-18T09:03:44.997Z</time></trkpt><trkpt lat="43.569460501934934" lon="10.818654354671779"><ele>172.0</ele><time>2026-04-18T09:03:45.997Z</time></trkpt><trkpt lat="43.569472823332596" lon="10.818850407386961"><ele>172.0</ele><time>2026-04-18T09:03:46.997Z</time></trkpt><trkpt lat="43.569457652087856" lon="10.819040508950891"><ele>171.5</ele><time>2026-04-18T09:03:47.997Z</time></trkpt><trkpt lat="43.56941171925847" lon="10.819211667413654"><ele>171.0</ele><time>2026-04-18T09:03:48.997Z</time></trkpt><trkpt lat="43.569340514991026" lon="10.819382742057385"><ele>170.5</ele><time>2026-04-18T09:03:49.997Z</time></trkpt><trkpt lat="43.56924772732292" lon="10.819563455889764"><ele>170.0</ele><time>2026-04-18T09:03:50.997Z</time></trkpt><trkpt lat="43.56915179644112" lon="10.819760095338168"><ele>169.66666666666666</ele><time>2026-04-18T09:03:51.997Z</time></trkpt><trkpt lat="43.569066636304896" lon="10.819948604340498"><ele>169.33333333333334</ele><time>2026-04-18T09:03:52.997Z</time></trkpt><trkpt lat="43.56899174400006" lon="10.820138035352175"><ele>169.0</ele><time>2026-04-18T09:03:53.997Z</time></trkpt><trkpt lat="43.56893328022544" lon="10.820303829396908"><ele>167.25</ele><time>2026-04-18T09:03:54.997Z</time></trkpt><trkpt lat="43.56889086779539" lon="10.820469874898736"><ele>165.5</ele><time>2026-04-18T09:03:55.997Z</time></trkpt><trkpt lat="43.56888629965816" lon="10.820638602609579"><ele>163.75</ele><time>2026-04-18T09:03:56.997Z</time></trkpt><trkpt lat="43.5689091403443" lon="10.820824764679019"><ele>162.0</ele><time>2026-04-18T09:03:57.997Z</time></trkpt><trkpt lat="43.568944428156655" lon="10.821024421612565"><ele>159.0</ele><time>2026-04-18T09:03:58.997Z</time></trkpt><trkpt lat="43.56897699185048" lon="10.821241429085676"><ele>156.0</ele><time>2026-04-18T09:03:59.997Z</time></trkpt><trkpt lat="43.569007879163664" lon="10.821448378274981"><ele>153.0</ele><time>2026-04-18T09:04:00.997Z</time></trkpt><trkpt lat="43.56904643591825" lon="10.821668067957107"><ele>151.33333333333334</ele><time>2026-04-18T09:04:01.997Z</time></trkpt><trkpt lat="43.569085411768" lon="10.821868395442909"><ele>149.66666666666669</ele><time>2026-04-18T09:04:02.997Z</time></trkpt><trkpt lat="43.569088806438785" lon="10.822089510048574"><ele>148.0</ele><time>2026-04-18T09:04:03.997Z</time></trkpt><trkpt lat="43.56908985417668" lon="10.822311714301652"><ele>148.0</ele><time>2026-04-18T09:04:04.997Z</time></trkpt><trkpt lat="43.56908205900673" lon="10.82255403512234"><ele>148.0</ele><time>2026-04-18T09:04:05.997Z</time></trkpt><trkpt lat="43.56906831268553" lon="10.822821501652545"><ele>148.0</ele><time>2026-04-18T09:04:06.997Z</time></trkpt><trkpt lat="43.56904555581842" lon="10.823110342035836"><ele>147.33333333333334</ele><time>2026-04-18T09:04:07.997Z</time></trkpt><trkpt lat="43.56901936237101" lon="10.82339004614467"><ele>146.66666666666666</ele><time>2026-04-18T09:04:08.997Z</time></trkpt><trkpt lat="43.568982062901895" lon="10.823657261217779"><ele>146.0</ele><time>2026-04-18T09:04:09.997Z</time></trkpt><trkpt lat="43.56893994383846" lon="10.823904862637468"><ele>144.33333333333331</ele><time>2026-04-18T09:04:10.997Z</time></trkpt><trkpt lat="43.56890084226016" lon="10.824126731614419"><ele>142.66666666666666</ele><time>2026-04-18T09:04:11.997Z</time></trkpt><trkpt lat="43.568861866410415" lon="10.824329992766328"><ele>141.0</ele><time>2026-04-18T09:04:12.997Z</time></trkpt><trkpt lat="43.56882641096" lon="10.824516071016737"><ele>140.2</ele><time>2026-04-18T09:04:13.997Z</time></trkpt><trkpt lat="43.56879305098538" lon="10.824693264449783"><ele>139.39999999999998</ele><time>2026-04-18T09:04:14.997Z</time></trkpt><trkpt lat="43.56875658970658" lon="10.82485193387682"><ele>138.6</ele><time>2026-04-18T09:04:15.997Z</time></trkpt><trkpt lat="43.56873626359139" lon="10.824966346855112"><ele>137.79999999999998</ele><time>2026-04-18T09:04:16.997Z</time></trkpt><trkpt lat="43.568679057102244" lon="10.82502242178733"><ele>137.0</ele><time>2026-04-18T09:04:18.997Z</time></trkpt><trkpt lat="43.56860374570225" lon="10.824921084577985"><ele>136.75</ele><time>2026-04-18T09:04:20.997Z</time></trkpt><trkpt lat="43.56857449286018" lon="10.824803486476489"><ele>136.5</ele><time>2026-04-18T09:04:21.997Z</time></trkpt><trkpt lat="43.56855416674499" lon="10.824646828706213"><ele>136.25</ele><time>2026-04-18T09:04:22.997Z</time></trkpt><trkpt lat="43.568534469272535" lon="10.824457816789694"><ele>136.0</ele><time>2026-04-18T09:04:23.997Z</time></trkpt><trkpt lat="43.56851196386252" lon="10.824260255331941"><ele>134.75</ele><time>2026-04-18T09:04:24.997Z</time></trkpt><trkpt lat="43.56848623141978" lon="10.824063951159664"><ele>133.5</ele><time>2026-04-18T09:04:25.997Z</time></trkpt><trkpt lat="43.568461420986395" lon="10.823879465470858"><ele>132.25</ele><time>2026-04-18T09:04:26.997Z</time></trkpt><trkpt lat="43.568442100699585" lon="10.82369389013464"><ele>131.0</ele><time>2026-04-18T09:04:27.997Z</time></trkpt><trkpt lat="43.56842956975434" lon="10.823504542941993"><ele>130.5</ele><time>2026-04-18T09:04:28.997Z</time></trkpt><trkpt lat="43.56842060111795" lon="10.823314860473221"><ele>130.0</ele><time>2026-04-18T09:04:29.997Z</time></trkpt><trkpt lat="43.56840442404483" lon="10.82310615108425"><ele>129.5</ele><time>2026-04-18T09:04:30.997Z</time></trkpt><trkpt lat="43.568387702148" lon="10.822894759486264"><ele>129.0</ele><time>2026-04-18T09:04:31.997Z</time></trkpt><trkpt lat="43.56837688949291" lon="10.82268588245923"><ele>129.25</ele><time>2026-04-18T09:04:32.997Z</time></trkpt><trkpt lat="43.56835870076303" lon="10.822479017088956"><ele>129.5</ele><time>2026-04-18T09:04:33.997Z</time></trkpt><trkpt lat="43.56832546651695" lon="10.822294782857245"><ele>129.75</ele><time>2026-04-18T09:04:34.997Z</time></trkpt><trkpt lat="43.568262602243166" lon="10.82212689333672"><ele>130.0</ele><time>2026-04-18T09:04:35.997Z</time></trkpt><trkpt lat="43.568166503723305" lon="10.82199454308564"><ele>130.0</ele><time>2026-04-18T09:04:36.997Z</time></trkpt><trkpt lat="43.568054605315965" lon="10.821895720447248"><ele>130.0</ele><time>2026-04-18T09:04:37.997Z</time></trkpt><trkpt lat="43.56791425034736" lon="10.821844758475965"><ele>130.0</ele><time>2026-04-18T09:04:38.997Z</time></trkpt><trkpt lat="43.567758766043525" lon="10.821800837303346"><ele>130.0</ele><time>2026-04-18T09:04:39.997Z</time></trkpt><trkpt lat="43.56759519320313" lon="10.821755910302345"><ele>128.66666666666669</ele><time>2026-04-18T09:04:40.997Z</time></trkpt><trkpt lat="43.56742424428795" lon="10.821705870340411"><ele>127.33333333333334</ele><time>2026-04-18T09:04:41.997Z</time></trkpt><trkpt lat="43.567252289544385" lon="10.821655076007191"><ele>126.0</ele><time>2026-04-18T09:04:42.997Z</time></trkpt><trkpt lat="43.567094039212506" lon="10.82160369494075"><ele>120.66666666666666</ele><time>2026-04-18T09:04:43.997Z</time></trkpt><trkpt lat="43.566936207975786" lon="10.821549799303357"><ele>115.33333333333333</ele><time>2026-04-18T09:04:44.997Z</time></trkpt><trkpt lat="43.5667914105985" lon="10.82150252536947"><ele>110.0</ele><time>2026-04-18T09:04:45.997Z</time></trkpt><trkpt lat="43.566646655130725" lon="10.821460699672643"><ele>110.0</ele><time>2026-04-18T09:04:46.997Z</time></trkpt><trkpt lat="43.566504665691" lon="10.821417700509373"><ele>110.0</ele><time>2026-04-18T09:04:47.997Z</time></trkpt><trkpt lat="43.56636950750236" lon="10.821370258937423"><ele>110.0</ele><time>2026-04-18T09:04:48.997Z</time></trkpt><trkpt lat="43.56624817945395" lon="10.82132759505028"><ele>110.0</ele><time>2026-04-18T09:04:49.997Z</time></trkpt><trkpt lat="43.56612898879085" lon="10.821303371350114"><ele>107.25</ele><time>2026-04-18T09:04:50.997Z</time></trkpt><trkpt lat="43.56601185169403" lon="10.821277219812218"><ele>104.5</ele><time>2026-04-18T09:04:51.997Z</time></trkpt><trkpt lat="43.5658991989154" lon="10.821246625865642"><ele>101.75</ele><time>2026-04-18T09:04:52.997Z</time></trkpt><trkpt lat="43.56579652060155" lon="10.821215612823908"><ele>99.0</ele><time>2026-04-18T09:04:53.997Z</time></trkpt><trkpt lat="43.565686717670005" lon="10.821171356375162"><ele>99.0</ele><time>2026-04-18T09:04:54.997Z</time></trkpt><trkpt lat="43.565577333833616" lon="10.821103714416568"><ele>99.0</ele><time>2026-04-18T09:04:55.997Z</time></trkpt><trkpt lat="43.56546560306434" lon="10.821007993082349"><ele>99.0</ele><time>2026-04-18T09:04:56.997Z</time></trkpt><trkpt lat="43.56535399802361" lon="10.820899279798214"><ele>99.0</ele><time>2026-04-18T09:04:57.997Z</time></trkpt><trkpt lat="43.56524834413413" lon="10.820779586220924"><ele>99.0</ele><time>2026-04-18T09:04:58.997Z</time></trkpt><trkpt lat="43.565140175673704" lon="10.82065922209138"><ele>99.0</ele><time>2026-04-18T09:04:59.997Z</time></trkpt><trkpt lat="43.565029073547166" lon="10.820541959266011"><ele>99.0</ele><time>2026-04-18T09:05:00.997Z</time></trkpt><trkpt lat="43.56492056981061" lon="10.82042117604131"><ele>99.0</ele><time>2026-04-18T09:05:01.997Z</time></trkpt><trkpt lat="43.56481919069175" lon="10.82030441613013"><ele>99.0</ele><time>2026-04-18T09:05:02.997Z</time></trkpt><trkpt lat="43.56472145770077" lon="10.820187069485728"><ele>99.0</ele><time>2026-04-18T09:05:03.997Z</time></trkpt><trkpt lat="43.56462556872849" lon="10.820067208270375"><ele>99.0</ele><time>2026-04-18T09:05:04.997Z</time></trkpt><trkpt lat="43.564518867101114" lon="10.819928403953854"><ele>99.0</ele><time>2026-04-18T09:05:05.997Z</time></trkpt><trkpt lat="43.56440692678426" lon="10.819752803082409"><ele>95.0</ele><time>2026-04-18T09:05:06.997Z</time></trkpt><trkpt lat="43.56430139862333" lon="10.819553062329831"><ele>91.0</ele><time>2026-04-18T09:05:07.997Z</time></trkpt><trkpt lat="43.56421435255889" lon="10.819352315748873"><ele>87.0</ele><time>2026-04-18T09:05:08.997Z</time></trkpt><trkpt lat="43.56413091071282" lon="10.819163471470418"><ele>87.0</ele><time>2026-04-18T09:05:09.997Z</time></trkpt><trkpt lat="43.56405773669813" lon="10.81898619421834"><ele>87.0</ele><time>2026-04-18T09:05:10.997Z</time></trkpt><trkpt lat="43.5639929026771" lon="10.818841522569599"><ele>87.0</ele><time>2026-04-18T09:05:11.997Z</time></trkpt><trkpt lat="43.563923961523514" lon="10.818724092106166"><ele>87.0</ele><time>2026-04-18T09:05:12.997Z</time></trkpt><trkpt lat="43.56384286661033" lon="10.818636082122865"><ele>87.0</ele><time>2026-04-18T09:05:13.997Z</time></trkpt><trkpt lat="43.56375787411217" lon="10.81857330166811"><ele>87.0</ele><time>2026-04-18T09:05:14.997Z</time></trkpt><trkpt lat="43.563660895492475" lon="10.818546311939897"><ele>87.0</ele><time>2026-04-18T09:05:15.997Z</time></trkpt><trkpt lat="43.56357263405208" lon="10.818537091846409"><ele>87.0</ele><time>2026-04-18T09:05:16.997Z</time></trkpt><trkpt lat="43.563477667089145" lon="10.818564333031716"><ele>87.0</ele><time>2026-04-18T09:05:17.997Z</time></trkpt><trkpt lat="43.56338605288748" lon="10.818615462641063"><ele>85.0</ele><time>2026-04-18T09:05:18.997Z</time></trkpt><trkpt lat="43.563284925225716" lon="10.818681512038054"><ele>83.0</ele><time>2026-04-18T09:05:19.997Z</time></trkpt><trkpt lat="43.56318350419734" lon="10.818749573091807"><ele>81.0</ele><time>2026-04-18T09:05:20.997Z</time></trkpt><trkpt lat="43.563080448697846" lon="10.818827776248398"><ele>79.0</ele><time>2026-04-18T09:05:21.997Z</time></trkpt><trkpt lat="43.56296842456196" lon="10.818904470662417"><ele>80.25</ele><time>2026-04-18T09:05:22.997Z</time></trkpt><trkpt lat="43.56285518505011" lon="10.818987116227689"><ele>81.5</ele><time>2026-04-18T09:05:23.997Z</time></trkpt><trkpt lat="43.56273620393459" lon="10.819060625518503"><ele>82.75</ele><time>2026-04-18T09:05:24.997Z</time></trkpt><trkpt lat="43.56262573045079" lon="10.819130279133859"><ele>84.0</ele><time>2026-04-18T09:05:25.997Z</time></trkpt><trkpt lat="43.56252284258936" lon="10.819175122315826"><ele>84.0</ele><time>2026-04-18T09:05:26.997Z</time></trkpt><trkpt lat="43.56242175683711" lon="10.819195406521501"><ele>84.0</ele><time>2026-04-18T09:05:27.997Z</time></trkpt><trkpt lat="43.562310109886866" lon="10.819196412349882"><ele>84.0</ele><time>2026-04-18T09:05:28.997Z</time></trkpt><trkpt lat="43.56220931750123" lon="10.81914838404471"><ele>84.0</ele><time>2026-04-18T09:05:29.997Z</time></trkpt><trkpt lat="43.5621061781827" lon="10.819066660488787"><ele>84.0</ele><time>2026-04-18T09:05:30.997Z</time></trkpt><trkpt lat="43.56199918318872" lon="10.818941853950562"><ele>83.33333333333333</ele><time>2026-04-18T09:05:31.997Z</time></trkpt><trkpt lat="43.56189901944582" lon="10.818794248635712"><ele>82.66666666666666</ele><time>2026-04-18T09:05:32.997Z</time></trkpt><trkpt lat="43.561797305050824" lon="10.818631639714184"><ele>82.0</ele><time>2026-04-18T09:05:33.997Z</time></trkpt><trkpt lat="43.56167656373564" lon="10.818420164297166"><ele>82.0</ele><time>2026-04-18T09:05:34.997Z</time></trkpt><trkpt lat="43.561551128554676" lon="10.818179687495174"><ele>82.0</ele><time>2026-04-18T09:05:35.997Z</time></trkpt><trkpt lat="43.56142594483081" lon="10.817946335310877"><ele>82.0</ele><time>2026-04-18T09:05:36.997Z</time></trkpt><trkpt lat="43.56130755044851" lon="10.817736703912557"><ele>83.0</ele><time>2026-04-18T09:05:37.997Z</time></trkpt><trkpt lat="43.56119133536104" lon="10.817547440538943"><ele>84.0</ele><time>2026-04-18T09:05:38.997Z</time></trkpt><trkpt lat="43.56108555574301" lon="10.817364379773677"><ele>85.0</ele><time>2026-04-18T09:05:39.997Z</time></trkpt><trkpt lat="43.56098044667724" lon="10.817191796387375"><ele>85.0</ele><time>2026-04-18T09:05:40.997Z</time></trkpt><trkpt lat="43.56088455770496" lon="10.817023906866849"><ele>85.0</ele><time>2026-04-18T09:05:41.997Z</time></trkpt><trkpt lat="43.56077156965021" lon="10.816886276016772"><ele>85.0</ele><time>2026-04-18T09:05:42.997Z</time></trkpt><trkpt lat="43.56065954551432" lon="10.816759290183724"><ele>86.0</ele><time>2026-04-18T09:05:43.997Z</time></trkpt><trkpt lat="43.560531302395795" lon="10.816624676818789"><ele>87.0</ele><time>2026-04-18T09:05:44.997Z</time></trkpt><trkpt lat="43.56038969014171" lon="10.816488051797092"><ele>88.0</ele><time>2026-04-18T09:05:45.997Z</time></trkpt><trkpt lat="43.560244180302654" lon="10.816347403461874"><ele>88.0</ele><time>2026-04-18T09:05:46.997Z</time></trkpt><trkpt lat="43.56011157859448" lon="10.816215220848859"><ele>88.0</ele><time>2026-04-18T09:05:47.997Z</time></trkpt><trkpt lat="43.55997386392537" lon="10.81608965993935"><ele>88.0</ele><time>2026-04-18T09:05:48.997Z</time></trkpt><trkpt lat="43.5598436510596" lon="10.815970804552375"><ele>86.25</ele><time>2026-04-18T09:05:49.997Z</time></trkpt><trkpt lat="43.55971993416879" lon="10.815866701314985"><ele>84.5</ele><time>2026-04-18T09:05:50.997Z</time></trkpt><trkpt lat="43.55959445707831" lon="10.81578095444554"><ele>82.75</ele><time>2026-04-18T09:05:51.997Z</time></trkpt><trkpt lat="43.559447103220556" lon="10.81572529860848"><ele>81.0</ele><time>2026-04-18T09:05:52.997Z</time></trkpt><trkpt lat="43.55927879460487" lon="10.81568179653102"><ele>81.0</ele><time>2026-04-18T09:05:53.997Z</time></trkpt><trkpt lat="43.559097745496366" lon="10.815636282796799"><ele>81.0</ele><time>2026-04-18T09:05:54.997Z</time></trkpt><trkpt lat="43.55890605137083" lon="10.815586159015833"><ele>81.0</ele><time>2026-04-18T09:05:55.997Z</time></trkpt><trkpt lat="43.55870597534213" lon="10.815533604482948"><ele>80.66666666666667</ele><time>2026-04-18T09:05:56.997Z</time></trkpt><trkpt lat="43.55850615077052" lon="10.815485995272933"><ele>80.33333333333334</ele><time>2026-04-18T09:05:57.997Z</time></trkpt><trkpt lat="43.5582991596717" lon="10.815443247566758"><ele>80.0</ele><time>2026-04-18T09:05:58.997Z</time></trkpt><trkpt lat="43.55808630124066" lon="10.815392453233539"><ele>80.0</ele><time>2026-04-18T09:05:59.997Z</time></trkpt><trkpt lat="43.5578871472213" lon="10.815352387736379"><ele>80.0</ele><time>2026-04-18T09:06:00.997Z</time></trkpt><trkpt lat="43.55769595600996" lon="10.81529723481351"><ele>80.0</ele><time>2026-04-18T09:06:01.997Z</time></trkpt><trkpt lat="43.55752404317591" lon="10.815252391631542"><ele>80.25</ele><time>2026-04-18T09:06:02.997Z</time></trkpt><trkpt lat="43.55736964851949" lon="10.815217774371444"><ele>80.5</ele><time>2026-04-18T09:06:03.997Z</time></trkpt><trkpt lat="43.557228455360566" lon="10.81518676132971"><ele>80.75</ele><time>2026-04-18T09:06:04.997Z</time></trkpt><trkpt lat="43.55708617255423" lon="10.815183157111345"><ele>81.0</ele><time>2026-04-18T09:06:05.997Z</time></trkpt><trkpt lat="43.556944769847725" lon="10.815187180424868"><ele>81.0</ele><time>2026-04-18T09:06:06.997Z</time></trkpt><trkpt lat="43.556791087653075" lon="10.815215008343397"><ele>81.0</ele><time>2026-04-18T09:06:07.997Z</time></trkpt><trkpt lat="43.55662944265041" lon="10.815273430208503"><ele>81.0</ele><time>2026-04-18T09:06:08.997Z</time></trkpt><trkpt lat="43.5564642353389" lon="10.815335959206163"><ele>81.0</ele><time>2026-04-18T09:06:09.997Z</time></trkpt><trkpt lat="43.55628423396829" lon="10.81540519372636"><ele>81.0</ele><time>2026-04-18T09:06:10.997Z</time></trkpt><trkpt lat="43.55610829782072" lon="10.815458837906657"><ele>81.0</ele><time>2026-04-18T09:06:11.997Z</time></trkpt><trkpt lat="43.555947784374986" lon="10.815510805706321"><ele>83.66666666666667</ele><time>2026-04-18T09:06:12.997Z</time></trkpt><trkpt lat="43.55579732921306" lon="10.815564114610492"><ele>86.33333333333334</ele><time>2026-04-18T09:06:13.997Z</time></trkpt><trkpt lat="43.555649137164984" lon="10.815632846216499"><ele>89.0</ele><time>2026-04-18T09:06:14.997Z</time></trkpt><trkpt lat="43.55552676137868" lon="10.815734351063906"><ele>89.0</ele><time>2026-04-18T09:06:15.997Z</time></trkpt><trkpt lat="43.55541788045648" lon="10.815849183137356"><ele>89.0</ele><time>2026-04-18T09:06:16.997Z</time></trkpt><trkpt lat="43.555316166061495" lon="10.816000560308634"><ele>89.0</ele><time>2026-04-18T09:06:17.997Z</time></trkpt><trkpt lat="43.555209841619764" lon="10.816182279969395"><ele>91.66666666666667</ele><time>2026-04-18T09:06:18.997Z</time></trkpt><trkpt lat="43.5550999967787" lon="10.816383445645512"><ele>94.33333333333334</ele><time>2026-04-18T09:06:19.997Z</time></trkpt><trkpt lat="43.55498629626218" lon="10.816586958254517"><ele>97.0</ele><time>2026-04-18T09:06:20.997Z</time></trkpt><trkpt lat="43.55487657714966" lon="10.81678401679808"><ele>98.33333333333334</ele><time>2026-04-18T09:06:21.997Z</time></trkpt><trkpt lat="43.55477029461745" lon="10.816977638761342"><ele>99.66666666666666</ele><time>2026-04-18T09:06:22.997Z</time></trkpt><trkpt lat="43.554653073701594" lon="10.817174110571683"><ele>101.0</ele><time>2026-04-18T09:06:23.997Z</time></trkpt><trkpt lat="43.55454628825519" lon="10.817373516048134"><ele>101.66666666666666</ele><time>2026-04-18T09:06:24.997Z</time></trkpt><trkpt lat="43.55444134682748" lon="10.817574011171997"><ele>102.33333333333334</ele><time>2026-04-18T09:06:25.997Z</time></trkpt><trkpt lat="43.554329406510625" lon="10.817769393334926"><ele>103.0</ele><time>2026-04-18T09:06:26.997Z</time></trkpt><trkpt lat="43.55420954529527" lon="10.817974582324567"><ele>105.0</ele><time>2026-04-18T09:06:27.997Z</time></trkpt><trkpt lat="43.554104310500946" lon="10.81817750820035"><ele>107.0</ele><time>2026-04-18T09:06:28.997Z</time></trkpt><trkpt lat="43.55399379510763" lon="10.818376494581642"><ele>109.0</ele><time>2026-04-18T09:06:29.997Z</time></trkpt><trkpt lat="43.55387883730563" lon="10.818576989705505"><ele>110.33333333333334</ele><time>2026-04-18T09:06:30.997Z</time></trkpt><trkpt lat="43.553766603622165" lon="10.818779747943225"><ele>111.66666666666666</ele><time>2026-04-18T09:06:31.997Z</time></trkpt><trkpt lat="43.55364598803553" lon="10.81898770296091"><ele>113.0</ele><time>2026-04-18T09:06:32.997Z</time></trkpt><trkpt lat="43.55352730028662" lon="10.819203536967578"><ele>116.0</ele><time>2026-04-18T09:06:33.997Z</time></trkpt><trkpt lat="43.55340781625691" lon="10.819419790069404"><ele>119.0</ele><time>2026-04-18T09:06:34.997Z</time></trkpt><trkpt lat="43.55329030197444" lon="10.819631349305453"><ele>122.0</ele><time>2026-04-18T09:06:35.997Z</time></trkpt><trkpt lat="43.553169770206836" lon="10.81984181889409"><ele>122.0</ele><time>2026-04-18T09:06:36.997Z</time></trkpt><trkpt lat="43.55305489622387" lon="10.820047259340827"><ele>122.0</ele><time>2026-04-18T09:06:37.996Z</time></trkpt><trkpt lat="43.55295452293339" lon="10.820242557684724"><ele>122.0</ele><time>2026-04-18T09:06:38.996Z</time></trkpt><trkpt lat="43.55284756984892" lon="10.820442633713428"><ele>123.33333333333333</ele><time>2026-04-18T09:06:39.996Z</time></trkpt><trkpt lat="43.552748998667624" lon="10.820625191564504"><ele>124.66666666666666</ele><time>2026-04-18T09:06:40.996Z</time></trkpt><trkpt lat="43.55264422487798" lon="10.820813532928769"><ele>126.0</ele><time>2026-04-18T09:06:41.996Z</time></trkpt><trkpt lat="43.55252901561889" lon="10.821012770767156"><ele>127.66666666666666</ele><time>2026-04-18T09:06:42.996Z</time></trkpt><trkpt lat="43.552415315102365" lon="10.82122256980354"><ele>129.33333333333331</ele><time>2026-04-18T09:06:43.996Z</time></trkpt><trkpt lat="43.55229666926297" lon="10.82143756561989"><ele>131.0</ele><time>2026-04-18T09:06:44.996Z</time></trkpt><trkpt lat="43.55217504784795" lon="10.821662032986824"><ele>133.0</ele><time>2026-04-18T09:06:45.996Z</time></trkpt><trkpt lat="43.552058078389194" lon="10.82188893110568"><ele>135.0</ele><time>2026-04-18T09:06:46.996Z</time></trkpt><trkpt lat="43.551941108930436" lon="10.822103256369775"><ele>137.0</ele><time>2026-04-18T09:06:47.996Z</time></trkpt><trkpt lat="43.55183310810807" lon="10.822288747886962"><ele>137.0</ele><time>2026-04-18T09:06:48.996Z</time></trkpt><trkpt lat="43.55173793159756" lon="10.822452697912997"><ele>137.0</ele><time>2026-04-18T09:06:49.996Z</time></trkpt><trkpt lat="43.551648706238296" lon="10.822602314884609"><ele>137.0</ele><time>2026-04-18T09:06:50.996Z</time></trkpt><trkpt lat="43.55156031906935" lon="10.822731228555387"><ele>137.0</ele><time>2026-04-18T09:06:51.996Z</time></trkpt><trkpt lat="43.55146757331076" lon="10.822824770594782"><ele>139.5</ele><time>2026-04-18T09:06:52.996Z</time></trkpt><trkpt lat="43.551365942734805" lon="10.822883024821824"><ele>142.0</ele><time>2026-04-18T09:06:53.996Z</time></trkpt><trkpt lat="43.55124738071444" lon="10.822920408109969"><ele>144.5</ele><time>2026-04-18T09:06:54.996Z</time></trkpt><trkpt lat="43.55111180343064" lon="10.82293465734536"><ele>147.0</ele><time>2026-04-18T09:06:55.996Z</time></trkpt><trkpt lat="43.55097396303299" lon="10.82293365151698"><ele>147.0</ele><time>2026-04-18T09:06:56.996Z</time></trkpt><trkpt lat="43.55084492363366" lon="10.822905655960387"><ele>147.0</ele><time>2026-04-18T09:06:57.996Z</time></trkpt><trkpt lat="43.550703101832" lon="10.822869781414813"><ele>147.0</ele><time>2026-04-18T09:06:58.996Z</time></trkpt><trkpt lat="43.550540870096114" lon="10.822819070900625"><ele>147.0</ele><time>2026-04-18T09:06:59.996Z</time></trkpt><trkpt lat="43.55035546239796" lon="10.82277146169061"><ele>148.0</ele><time>2026-04-18T09:07:00.996Z</time></trkpt><trkpt lat="43.55015844576391" lon="10.822718907157725"><ele>149.0</ele><time>2026-04-18T09:07:01.996Z</time></trkpt><trkpt lat="43.549948185722855" lon="10.822668280462569"><ele>150.0</ele><time>2026-04-18T09:07:02.996Z</time></trkpt><trkpt lat="43.549752007279125" lon="10.822623940194791"><ele>148.33333333333334</ele><time>2026-04-18T09:07:03.996Z</time></trkpt><trkpt lat="43.54957204781803" lon="10.822582030678934"><ele>146.66666666666669</ele><time>2026-04-18T09:07:04.996Z</time></trkpt><trkpt lat="43.54940642141136" lon="10.82253978588695"><ele>145.0</ele><time>2026-04-18T09:07:05.996Z</time></trkpt><trkpt lat="43.549254625144926" lon="10.822499636570758"><ele>145.0</ele><time>2026-04-18T09:07:06.996Z</time></trkpt><trkpt lat="43.54910098485979" lon="10.822463845844215"><ele>145.0</ele><time>2026-04-18T09:07:07.996Z</time></trkpt><trkpt lat="43.5489477217603" lon="10.822420511404818"><ele>145.0</ele><time>2026-04-18T09:07:08.996Z</time></trkpt><trkpt lat="43.54880397212091" lon="10.822365945215171"><ele>147.25</ele><time>2026-04-18T09:07:09.996Z</time></trkpt><trkpt lat="43.54867375925514" lon="10.822302913303322"><ele>149.5</ele><time>2026-04-18T09:07:10.996Z</time></trkpt><trkpt lat="43.54855695743444" lon="10.822228062908"><ele>151.75</ele><time>2026-04-18T09:07:11.996Z</time></trkpt><trkpt lat="43.54844828605982" lon="10.822137622172779"><ele>154.0</ele><time>2026-04-18T09:07:12.996Z</time></trkpt><trkpt lat="43.54834414091292" lon="10.822022622461265"><ele>154.0</ele><time>2026-04-18T09:07:13.996Z</time></trkpt><trkpt lat="43.54824255224648" lon="10.8218860812586"><ele>154.0</ele><time>2026-04-18T09:07:14.996Z</time></trkpt><trkpt lat="43.54813811373296" lon="10.821750545884315"><ele>154.0</ele><time>2026-04-18T09:07:15.996Z</time></trkpt><trkpt lat="43.54803945873263" lon="10.821609394634907"><ele>154.0</ele><time>2026-04-18T09:07:16.996Z</time></trkpt><trkpt lat="43.54794717397871" lon="10.821473440165464"><ele>151.25</ele><time>2026-04-18T09:07:17.996Z</time></trkpt><trkpt lat="43.547854176763025" lon="10.821349723274652"><ele>148.5</ele><time>2026-04-18T09:07:18.996Z</time></trkpt><trkpt lat="43.547762520651844" lon="10.821227347488348"><ele>145.75</ele><time>2026-04-18T09:07:19.996Z</time></trkpt><trkpt lat="43.54767627086821" lon="10.821107570092027"><ele>143.0</ele><time>2026-04-18T09:07:20.996Z</time></trkpt><trkpt lat="43.54759278711262" lon="10.820985864857976"><ele>143.20000000000002</ele><time>2026-04-18T09:07:21.996Z</time></trkpt><trkpt lat="43.5475065792385" lon="10.820871954793875"><ele>143.4</ele><time>2026-04-18T09:07:22.996Z</time></trkpt><trkpt lat="43.54742820844385" lon="10.820756619806234"><ele>143.60000000000002</ele><time>2026-04-18T09:07:23.996Z</time></trkpt><trkpt lat="43.54735440578642" lon="10.820650756369178"><ele>143.8</ele><time>2026-04-18T09:07:24.996Z</time></trkpt><trkpt lat="43.547294684726324" lon="10.820552771921102"><ele>144.0</ele><time>2026-04-18T09:07:25.996Z</time></trkpt><trkpt lat="43.54723856788459" lon="10.820471467460338"><ele>144.0</ele><time>2026-04-18T09:07:26.996Z</time></trkpt><trkpt lat="43.547182870138016" lon="10.82040407695884"><ele>144.0</ele><time>2026-04-18T09:07:27.996Z</time></trkpt><trkpt lat="43.547121263149705" lon="10.820367615680043"><ele>144.0</ele><time>2026-04-18T09:07:28.996Z</time></trkpt><trkpt lat="43.54699817490163" lon="10.820379937077705"><ele>144.0</ele><time>2026-04-18T09:07:30.996Z</time></trkpt><trkpt lat="43.54693292178544" lon="10.820437772209589"><ele>144.0</ele><time>2026-04-18T09:07:31.996Z</time></trkpt><trkpt lat="43.54687538002017" lon="10.820536091933791"><ele>144.0</ele><time>2026-04-18T09:07:32.996Z</time></trkpt><trkpt lat="43.546833009499636" lon="10.82065285184497"><ele>140.25</ele><time>2026-04-18T09:07:33.996Z</time></trkpt><trkpt lat="43.54679482993069" lon="10.820805989215915"><ele>136.5</ele><time>2026-04-18T09:07:34.996Z</time></trkpt><trkpt lat="43.54675413579079" lon="10.82097387873644"><ele>132.75</ele><time>2026-04-18T09:07:35.996Z</time></trkpt><trkpt lat="43.546722829382446" lon="10.821151994178836"><ele>129.0</ele><time>2026-04-18T09:07:36.996Z</time></trkpt><trkpt lat="43.546685823279944" lon="10.821324996660296"><ele>128.5</ele><time>2026-04-18T09:07:37.996Z</time></trkpt><trkpt lat="43.54664751798245" lon="10.82150646486396"><ele>128.0</ele><time>2026-04-18T09:07:38.996Z</time></trkpt><trkpt lat="43.54661436755541" lon="10.821695225323383"><ele>127.5</ele><time>2026-04-18T09:07:39.996Z</time></trkpt><trkpt lat="43.546575517434206" lon="10.82187769935543"><ele>127.0</ele><time>2026-04-18T09:07:40.996Z</time></trkpt><trkpt lat="43.54653352409931" lon="10.822060424844569"><ele>126.39999999999999</ele><time>2026-04-18T09:07:41.996Z</time></trkpt><trkpt lat="43.54649790101083" lon="10.82222856582219"><ele>125.79999999999998</ele><time>2026-04-18T09:07:42.996Z</time></trkpt><trkpt lat="43.54646252937945" lon="10.82238103264088"><ele>125.2</ele><time>2026-04-18T09:07:43.996Z</time></trkpt><trkpt lat="43.5464365035701" lon="10.82251396962518"><ele>124.6</ele><time>2026-04-18T09:07:44.996Z</time></trkpt><trkpt lat="43.54641391434105" lon="10.822619665424174"><ele>124.0</ele><time>2026-04-18T09:07:45.996Z</time></trkpt><trkpt lat="43.54638072200449" lon="10.822710022340363"><ele>123.71428571428572</ele><time>2026-04-18T09:07:46.996Z</time></trkpt><trkpt lat="43.54633721992703" lon="10.822786213840192"><ele>123.42857142857144</ele><time>2026-04-18T09:07:47.996Z</time></trkpt><trkpt lat="43.54628483303221" lon="10.822836672897285"><ele>123.14285714285714</ele><time>2026-04-18T09:07:48.996Z</time></trkpt><trkpt lat="43.54621928654941" lon="10.822851760322994"><ele>122.85714285714286</ele><time>2026-04-18T09:07:49.996Z</time></trkpt><trkpt lat="43.54614422660651" lon="10.822842456410473"><ele>122.57142857142857</ele><time>2026-04-18T09:07:50.996Z</time></trkpt><trkpt lat="43.54607591409566" lon="10.822798032323664"><ele>122.28571428571428</ele><time>2026-04-18T09:07:51.996Z</time></trkpt><trkpt lat="43.54600751776578" lon="10.822710609073585"><ele>121.99999999999999</ele><time>2026-04-18T09:07:52.996Z</time></trkpt><trkpt lat="43.54593681641253" lon="10.8225872274589"><ele>119.0</ele><time>2026-04-18T09:07:53.996Z</time></trkpt><trkpt lat="43.54586464822622" lon="10.822441549981779"><ele>116.0</ele><time>2026-04-18T09:07:54.996Z</time></trkpt><trkpt lat="43.545791767578145" lon="10.822256980473941"><ele>113.0</ele><time>2026-04-18T09:07:55.996Z</time></trkpt><trkpt lat="43.545721652958115" lon="10.822061263034886"><ele>110.0</ele><time>2026-04-18T09:07:56.996Z</time></trkpt><trkpt lat="43.54566758968266" lon="10.82184551284725"><ele>110.0</ele><time>2026-04-18T09:07:57.996Z</time></trkpt><trkpt lat="43.54561897464426" lon="10.821602940569464"><ele>110.0</ele><time>2026-04-18T09:07:58.996Z</time></trkpt><trkpt lat="43.545570485334416" lon="10.821350980560128"><ele>110.0</ele><time>2026-04-18T09:07:59.996Z</time></trkpt><trkpt lat="43.54552279230537" lon="10.821109497929756"><ele>109.66666666666666</ele><time>2026-04-18T09:08:00.996Z</time></trkpt><trkpt lat="43.5454782005805" lon="10.820871787155811"><ele>109.33333333333334</ele><time>2026-04-18T09:08:01.996Z</time></trkpt><trkpt lat="43.54543277066531" lon="10.820667352537457"><ele>109.0</ele><time>2026-04-18T09:08:02.996Z</time></trkpt><trkpt lat="43.545391405973156" lon="10.820496864626948"><ele>106.6</ele><time>2026-04-18T09:08:03.996Z</time></trkpt><trkpt lat="43.545342749025245" lon="10.820363927642648"><ele>104.2</ele><time>2026-04-18T09:08:04.996Z</time></trkpt><trkpt lat="43.54528541680755" lon="10.820258567119781"><ele>101.8</ele><time>2026-04-18T09:08:05.996Z</time></trkpt><trkpt lat="43.54522058278652" lon="10.82018321381027"><ele>99.39999999999999</ele><time>2026-04-18T09:08:06.996Z</time></trkpt><trkpt lat="43.5451584309745" lon="10.820120600993578"><ele>97.0</ele><time>2026-04-18T09:08:07.996Z</time></trkpt><trkpt lat="43.54508370630773" lon="10.820050025368873"><ele>97.0</ele><time>2026-04-18T09:08:08.996Z</time></trkpt><trkpt lat="43.54499930054279" lon="10.819958914081399"><ele>97.0</ele><time>2026-04-18T09:08:09.996Z</time></trkpt><trkpt lat="43.54491749316784" lon="10.819840980703773"><ele>97.0</ele><time>2026-04-18T09:08:10.996Z</time></trkpt><trkpt lat="43.54483895473512" lon="10.819703685129824"><ele>97.0</ele><time>2026-04-18T09:08:11.996Z</time></trkpt><trkpt lat="43.54477332443329" lon="10.81956085749978"><ele>97.0</ele><time>2026-04-18T09:08:12.996Z</time></trkpt><trkpt lat="43.54473879099222" lon="10.81939715893084"><ele>97.0</ele><time>2026-04-18T09:08:13.996Z</time></trkpt><trkpt lat="43.54470488619389" lon="10.819200603301468"><ele>97.0</ele><time>2026-04-18T09:08:14.996Z</time></trkpt><trkpt lat="43.54467190340491" lon="10.818976052115502"><ele>97.0</ele><time>2026-04-18T09:08:15.996Z</time></trkpt><trkpt lat="43.54463376574548" lon="10.818733647475781"><ele>96.66666666666667</ele><time>2026-04-18T09:08:16.996Z</time></trkpt><trkpt lat="43.544599735218604" lon="10.818491326655092"><ele>96.33333333333334</ele><time>2026-04-18T09:08:17.996Z</time></trkpt><trkpt lat="43.54456235193046" lon="10.818249927843752"><ele>96.0</ele><time>2026-04-18T09:08:18.996Z</time></trkpt><trkpt lat="43.544533392455" lon="10.81800844521338"><ele>92.75</ele><time>2026-04-18T09:08:19.996Z</time></trkpt><trkpt lat="43.54450711518856" lon="10.81778766588384"><ele>89.5</ele><time>2026-04-18T09:08:20.996Z</time></trkpt><trkpt lat="43.544482472393234" lon="10.817578118304551"><ele>86.25</ele><time>2026-04-18T09:08:21.996Z</time></trkpt><trkpt lat="43.54445477020325" lon="10.817398661757649"><ele>83.0</ele><time>2026-04-18T09:08:22.996Z</time></trkpt><trkpt lat="43.54442224841895" lon="10.817236639569343"><ele>83.0</ele><time>2026-04-18T09:08:23.996Z</time></trkpt><trkpt lat="43.54438235055985" lon="10.817092219377697"><ele>83.0</ele><time>2026-04-18T09:08:24.996Z</time></trkpt><trkpt lat="43.544329293112774" lon="10.816960623497904"><ele>83.0</ele><time>2026-04-18T09:08:25.996Z</time></trkpt><trkpt lat="43.54426546492012" lon="10.816862136135638"><ele>83.0</ele><time>2026-04-18T09:08:26.996Z</time></trkpt><trkpt lat="43.54418843522998" lon="10.816807905222118"><ele>83.0</ele><time>2026-04-18T09:08:27.996Z</time></trkpt><trkpt lat="43.544089696410616" lon="10.81678016112262"><ele>83.0</ele><time>2026-04-18T09:08:28.996Z</time></trkpt><trkpt lat="43.54398886211546" lon="10.816781837503255"><ele>83.0</ele><time>2026-04-18T09:08:29.996Z</time></trkpt><trkpt lat="43.54388375304969" lon="10.81679969095701"><ele>83.0</ele><time>2026-04-18T09:08:30.996Z</time></trkpt><trkpt lat="43.54378178719761" lon="10.816842773939312"><ele>83.0</ele><time>2026-04-18T09:08:31.996Z</time></trkpt><trkpt lat="43.54367278054686" lon="10.816882336522282"><ele>83.0</ele><time>2026-04-18T09:08:32.996Z</time></trkpt><trkpt lat="43.54353938255789" lon="10.816928269351662"><ele>82.25</ele><time>2026-04-18T09:08:33.996Z</time></trkpt><trkpt lat="43.543402338441034" lon="10.81698727794999"><ele>81.5</ele><time>2026-04-18T09:08:34.996Z</time></trkpt><trkpt lat="43.54326156437727" lon="10.817049052576364"><ele>80.75</ele><time>2026-04-18T09:08:35.996Z</time></trkpt><trkpt lat="43.54313625492485" lon="10.817099930728615"><ele>80.0</ele><time>2026-04-18T09:08:36.996Z</time></trkpt><trkpt lat="43.54303449862035" lon="10.817155502746642"><ele>80.0</ele><time>2026-04-18T09:08:37.996Z</time></trkpt><trkpt lat="43.542945734265764" lon="10.817212667326272"><ele>80.0</ele><time>2026-04-18T09:08:38.996Z</time></trkpt><trkpt lat="43.542863884981294" lon="10.817294474701226"><ele>80.0</ele><time>2026-04-18T09:08:39.996Z</time></trkpt><trkpt lat="43.54279858995559" lon="10.817405199642122"><ele>80.0</ele><time>2026-04-18T09:08:40.996Z</time></trkpt><trkpt lat="43.54274461049916" lon="10.817535957331598"><ele>80.0</ele><time>2026-04-18T09:08:41.996Z</time></trkpt><trkpt lat="43.542702198069115" lon="10.817681550989688"><ele>83.0</ele><time>2026-04-18T09:08:42.996Z</time></trkpt><trkpt lat="43.54267395105543" lon="10.817840807149947"><ele>86.0</ele><time>2026-04-18T09:08:43.996Z</time></trkpt><trkpt lat="43.54265517559232" lon="10.818012719983997"><ele>89.0</ele><time>2026-04-18T09:08:44.996Z</time></trkpt><trkpt lat="43.54263849560501" lon="10.818176670010033"><ele>92.0</ele><time>2026-04-18T09:08:45.996Z</time></trkpt><trkpt lat="43.54262977842571" lon="10.818334165970626"><ele>93.0</ele><time>2026-04-18T09:08:46.996Z</time></trkpt><trkpt lat="43.54261393662872" lon="10.818486381332221"><ele>94.0</ele><time>2026-04-18T09:08:47.996Z</time></trkpt><trkpt lat="43.54260350115927" lon="10.818633232275786"><ele>95.0</ele><time>2026-04-18T09:08:48.996Z</time></trkpt><trkpt lat="43.542594658251424" lon="10.818775556991639"><ele>96.0</ele><time>2026-04-18T09:08:49.996Z</time></trkpt><trkpt lat="43.54258832991453" lon="10.81891536713654"><ele>97.0</ele><time>2026-04-18T09:08:50.996Z</time></trkpt><trkpt lat="43.542579780373295" lon="10.819064816470089"><ele>97.0</ele><time>2026-04-18T09:08:51.996Z</time></trkpt><trkpt lat="43.54257156610819" lon="10.819210661585274"><ele>97.0</ele><time>2026-04-18T09:08:52.996Z</time></trkpt><trkpt lat="43.542560963000675" lon="10.81935659051949"><ele>97.0</ele><time>2026-04-18T09:08:53.996Z</time></trkpt><trkpt lat="43.542552664916535" lon="10.81951584667975"><ele>97.0</ele><time>2026-04-18T09:08:54.996Z</time></trkpt><trkpt lat="43.54253246452989" lon="10.81969035790378"><ele>98.0</ele><time>2026-04-18T09:08:55.996Z</time></trkpt><trkpt lat="43.542509665753265" lon="10.81987786107773"><ele>99.0</ele><time>2026-04-18T09:08:56.996Z</time></trkpt><trkpt lat="43.54246913925143" lon="10.820079529668037"><ele>100.0</ele><time>2026-04-18T09:08:57.996Z</time></trkpt><trkpt lat="43.54242479898365" lon="10.820286897952501"><ele>101.0</ele><time>2026-04-18T09:08:58.996Z</time></trkpt><trkpt lat="43.5423810454491" lon="10.820475155497734"><ele>101.75</ele><time>2026-04-18T09:08:59.996Z</time></trkpt><trkpt lat="43.54233704045745" lon="10.8206513431024"><ele>102.5</ele><time>2026-04-18T09:09:00.996Z</time></trkpt><trkpt lat="43.54228846732857" lon="10.820816382775847"><ele>103.25</ele><time>2026-04-18T09:09:01.996Z</time></trkpt><trkpt lat="43.54224106766613" lon="10.820968849594538"><ele>104.0</ele><time>2026-04-18T09:09:02.996Z</time></trkpt><trkpt lat="43.54217422198834" lon="10.82112047822291"><ele>104.0</ele><time>2026-04-18T09:09:03.996Z</time></trkpt><trkpt lat="43.54209886867883" lon="10.821276213983838"><ele>104.0</ele><time>2026-04-18T09:09:04.996Z</time></trkpt><trkpt lat="43.542007631662806" lon="10.821432285020892"><ele>104.0</ele><time>2026-04-18T09:09:05.996Z</time></trkpt><trkpt lat="43.54192611765446" lon="10.82158315927798"><ele>104.0</ele><time>2026-04-18T09:09:06.996Z</time></trkpt><trkpt lat="43.54186300192358" lon="10.821730848411862"><ele>108.5</ele><time>2026-04-18T09:09:07.996Z</time></trkpt><trkpt lat="43.541821679140945" lon="10.821882477040237"><ele>113.0</ele><time>2026-04-18T09:09:08.996Z</time></trkpt><trkpt lat="43.541801227297206" lon="10.822042487571782"><ele>117.5</ele><time>2026-04-18T09:09:09.996Z</time></trkpt><trkpt lat="43.54179569524111" lon="10.822222782309002"><ele>122.0</ele><time>2026-04-18T09:09:10.996Z</time></trkpt><trkpt lat="43.5417911690134" lon="10.822412632415837"><ele>122.0</ele><time>2026-04-18T09:09:11.996Z</time></trkpt><trkpt lat="43.54177712932559" lon="10.822593178610152"><ele>122.0</ele><time>2026-04-18T09:09:12.996Z</time></trkpt><trkpt lat="43.54175554592492" lon="10.822766851643866"><ele>122.0</ele><time>2026-04-18T09:09:13.996Z</time></trkpt><trkpt lat="43.5417221859503" lon="10.8229463920098"><ele>122.0</ele><time>2026-04-18T09:09:14.996Z</time></trkpt><trkpt lat="43.5416756663877" lon="10.823133895183748"><ele>123.0</ele><time>2026-04-18T09:09:15.996Z</time></trkpt><trkpt lat="43.54162160311224" lon="10.823328103880232"><ele>124.0</ele><time>2026-04-18T09:09:16.996Z</time></trkpt><trkpt lat="43.54155655954363" lon="10.823528263727969"><ele>125.0</ele><time>2026-04-18T09:09:17.996Z</time></trkpt><trkpt lat="43.541494365822096" lon="10.823739906783052"><ele>125.0</ele><time>2026-04-18T09:09:18.996Z</time></trkpt><trkpt lat="43.541424167383035" lon="10.8239636197787"><ele>125.0</ele><time>2026-04-18T09:09:19.996Z</time></trkpt><trkpt lat="43.541350909549315" lon="10.824178028861828"><ele>125.0</ele><time>2026-04-18T09:09:20.996Z</time></trkpt><trkpt lat="43.541287584270854" lon="10.824375171224423"><ele>124.0</ele><time>2026-04-18T09:09:21.996Z</time></trkpt><trkpt lat="43.54123209607186" lon="10.824570721025415"><ele>123.0</ele><time>2026-04-18T09:09:22.996Z</time></trkpt><trkpt lat="43.54117815852495" lon="10.824777837852784"><ele>122.0</ele><time>2026-04-18T09:09:23.996Z</time></trkpt><trkpt lat="43.54112208359273" lon="10.824984954680152"><ele>128.33333333333331</ele><time>2026-04-18T09:09:24.996Z</time></trkpt><trkpt lat="43.54106504474165" lon="10.825199699039407"><ele>134.66666666666666</ele><time>2026-04-18T09:09:25.996Z</time></trkpt><trkpt lat="43.541004485491236" lon="10.825427100072451"><ele>141.0</ele><time>2026-04-18T09:09:26.996Z</time></trkpt><trkpt lat="43.540933365042825" lon="10.825672186921189"><ele>141.0</ele><time>2026-04-18T09:09:27.996Z</time></trkpt><trkpt lat="43.540867692831476" lon="10.82592825406308"><ele>141.0</ele><time>2026-04-18T09:09:28.996Z</time></trkpt><trkpt lat="43.54080260735335" lon="10.826175184930513"><ele>141.0</ele><time>2026-04-18T09:09:29.996Z</time></trkpt><trkpt lat="43.54074091654601" lon="10.826411303142855"><ele>141.0</ele><time>2026-04-18T09:09:30.996Z</time></trkpt><trkpt lat="43.540682452771385" lon="10.826633004481742"><ele>141.0</ele><time>2026-04-18T09:09:31.996Z</time></trkpt><trkpt lat="43.54062935341479" lon="10.826835511262367"><ele>141.0</ele><time>2026-04-18T09:09:32.996Z</time></trkpt><trkpt lat="43.540567327331324" lon="10.827027875940153"><ele>141.0</ele><time>2026-04-18T09:09:33.996Z</time></trkpt><trkpt lat="43.54050513360979" lon="10.82721579820926"><ele>141.0</ele><time>2026-04-18T09:09:34.996Z</time></trkpt><trkpt lat="43.54042986411931" lon="10.827396260584543"><ele>141.0</ele><time>2026-04-18T09:09:35.996Z</time></trkpt><trkpt lat="43.54034700900646" lon="10.827579824264001"><ele>143.0</ele><time>2026-04-18T09:09:36.996Z</time></trkpt><trkpt lat="43.540268051478584" lon="10.827738996605229"><ele>145.0</ele><time>2026-04-18T09:09:37.996Z</time></trkpt><trkpt lat="43.5401954222876" lon="10.827872604141783"><ele>147.0</ele><time>2026-04-18T09:09:38.996Z</time></trkpt><trkpt lat="43.54014064655038" lon="10.827983748177838"><ele>149.0</ele><time>2026-04-18T09:09:39.996Z</time></trkpt><trkpt lat="43.54009467181148" lon="10.82807569765563"><ele>151.0</ele><time>2026-04-18T09:09:40.996Z</time></trkpt><trkpt lat="43.540063574950715" lon="10.828173514465641"><ele>151.0</ele><time>2026-04-18T09:09:41.996Z</time></trkpt><trkpt lat="43.54005753998043" lon="10.828288933272313"><ele>151.0</ele><time>2026-04-18T09:09:42.996Z</time></trkpt><trkpt lat="43.54005653415205" lon="10.82840896212573"><ele>151.0</ele><time>2026-04-18T09:09:43.996Z</time></trkpt><trkpt lat="43.540064580779095" lon="10.828531254093003"><ele>151.0</ele><time>2026-04-18T09:09:44.996Z</time></trkpt><trkpt lat="43.540086625184436" lon="10.828676093379807"><ele>151.0</ele><time>2026-04-18T09:09:45.996Z</time></trkpt><trkpt lat="43.540106071199794" lon="10.828847670937728"><ele>151.25</ele><time>2026-04-18T09:09:46.996Z</time></trkpt><trkpt lat="43.54013042062851" lon="10.829024780551743"><ele>151.5</ele><time>2026-04-18T09:09:47.996Z</time></trkpt><trkpt lat="43.540155650157054" lon="10.829199207956743"><ele>151.75</ele><time>2026-04-18T09:09:48.996Z</time></trkpt><trkpt lat="43.54017886802884" lon="10.829381011436533"><ele>152.0</ele><time>2026-04-18T09:09:49.996Z</time></trkpt><trkpt lat="43.540202882181426" lon="10.829564156020833"><ele>152.25</ele><time>2026-04-18T09:09:50.996Z</time></trkpt><trkpt lat="43.54022136427792" lon="10.829744031662894"><ele>152.5</ele><time>2026-04-18T09:09:51.996Z</time></trkpt><trkpt lat="43.54024449833067" lon="10.829920889819814"><ele>152.75</ele><time>2026-04-18T09:09:52.996Z</time></trkpt><trkpt lat="43.54026050776573" lon="10.830110069374395"><ele>153.0</ele><time>2026-04-18T09:09:53.996Z</time></trkpt><trkpt lat="43.54027710393401" lon="10.830311989421798"><ele>154.33333333333334</ele><time>2026-04-18T09:09:54.996Z</time></trkpt><trkpt lat="43.54027203288259" lon="10.830536624426795"><ele>155.66666666666669</ele><time>2026-04-18T09:09:55.996Z</time></trkpt><trkpt lat="43.54027316443952" lon="10.830760588879539"><ele>157.0</ele><time>2026-04-18T09:09:56.996Z</time></trkpt><trkpt lat="43.54026243560346" lon="10.830977512533618"><ele>158.66666666666669</ele><time>2026-04-18T09:09:57.996Z</time></trkpt><trkpt lat="43.54025220968159" lon="10.831195693473173"><ele>160.33333333333334</ele><time>2026-04-18T09:09:58.996Z</time></trkpt><trkpt lat="43.540238211903294" lon="10.83141043783243"><ele>162.0</ele><time>2026-04-18T09:09:59.996Z</time></trkpt><trkpt lat="43.540223836939354" lon="10.831616800288513"><ele>163.0</ele><time>2026-04-18T09:10:00.996Z</time></trkpt><trkpt lat="43.54020950388493" lon="10.831813858832076"><ele>164.0</ele><time>2026-04-18T09:10:01.996Z</time></trkpt><trkpt lat="43.54020636067124" lon="10.832004044215038"><ele>165.0</ele><time>2026-04-18T09:10:02.996Z</time></trkpt><trkpt lat="43.540220484178086" lon="10.832181405286148"><ele>166.0</ele><time>2026-04-18T09:10:03.996Z</time></trkpt><trkpt lat="43.54024806063952" lon="10.832365304241732"><ele>166.0</ele><time>2026-04-18T09:10:04.996Z</time></trkpt><trkpt lat="43.54028519247057" lon="10.832569822679117"><ele>166.0</ele><time>2026-04-18T09:10:05.996Z</time></trkpt><trkpt lat="43.54032219857307" lon="10.83275908605273"><ele>166.0</ele><time>2026-04-18T09:10:06.996Z</time></trkpt><trkpt lat="43.54034759573968" lon="10.832932339991286"><ele>166.0</ele><time>2026-04-18T09:10:07.996Z</time></trkpt><trkpt lat="43.540362347889264" lon="10.83311330528076"><ele>165.0</ele><time>2026-04-18T09:10:08.996Z</time></trkpt><trkpt lat="43.54037060406389" lon="10.833323104317145"><ele>164.0</ele><time>2026-04-18T09:10:09.996Z</time></trkpt><trkpt lat="43.5403674608502" lon="10.833554277206616"><ele>163.0</ele><time>2026-04-18T09:10:10.996Z</time></trkpt><trkpt lat="43.54035673201414" lon="10.833806488673048"><ele>162.33333333333334</ele><time>2026-04-18T09:10:11.996Z</time></trkpt><trkpt lat="43.54034457825454" lon="10.834063561643319"><ele>161.66666666666666</ele><time>2026-04-18T09:10:12.996Z</time></trkpt><trkpt lat="43.540331586304625" lon="10.83432993852611"><ele>161.0</ele><time>2026-04-18T09:10:13.996Z</time></trkpt><trkpt lat="43.5403241264108" lon="10.834591453905063"><ele>161.0</ele><time>2026-04-18T09:10:14.996Z</time></trkpt><trkpt lat="43.54031494822683" lon="10.834848610694365"><ele>161.0</ele><time>2026-04-18T09:10:15.996Z</time></trkpt><trkpt lat="43.540301830548366" lon="10.835081795240598"><ele>161.0</ele><time>2026-04-18T09:10:16.996Z</time></trkpt><trkpt lat="43.54028795849862" lon="10.83530852572139"><ele>160.66666666666666</ele><time>2026-04-18T09:10:17.996Z</time></trkpt><trkpt lat="43.54027898986222" lon="10.835531903440911"><ele>160.33333333333334</ele><time>2026-04-18T09:10:18.996Z</time></trkpt><trkpt lat="43.54026821911665" lon="10.83573851735409"><ele>160.0</ele><time>2026-04-18T09:10:19.996Z</time></trkpt><trkpt lat="43.54025585580947" lon="10.83594085649665"><ele>159.25</ele><time>2026-04-18T09:10:20.996Z</time></trkpt><trkpt lat="43.54024340868326" lon="10.836139507601816"><ele>158.5</ele><time>2026-04-18T09:10:21.996Z</time></trkpt><trkpt lat="43.540233140851875" lon="10.836337739611823"><ele>157.75</ele><time>2026-04-18T09:10:22.996Z</time></trkpt><trkpt lat="43.54023288939478" lon="10.836545946086604"><ele>157.0</ele><time>2026-04-18T09:10:23.996Z</time></trkpt><trkpt lat="43.54023959491732" lon="10.836762534464556"><ele>157.0</ele><time>2026-04-18T09:10:24.996Z</time></trkpt><trkpt lat="43.540249024558385" lon="10.836989348764378"><ele>157.0</ele><time>2026-04-18T09:10:25.996Z</time></trkpt><trkpt lat="43.54026901539745" lon="10.837228819737991"><ele>157.0</ele><time>2026-04-18T09:10:26.996Z</time></trkpt><trkpt lat="43.540300824719985" lon="10.837472900758346"><ele>157.66666666666669</ele><time>2026-04-18T09:10:27.996Z</time></trkpt><trkpt lat="43.5403381241891" lon="10.837724609310587"><ele>158.33333333333334</ele><time>2026-04-18T09:10:28.996Z</time></trkpt><trkpt lat="43.54038694877507" lon="10.837982939566334"><ele>159.0</ele><time>2026-04-18T09:10:29.996Z</time></trkpt><trkpt lat="43.54042894210996" lon="10.8382299542528"><ele>162.0</ele><time>2026-04-18T09:10:30.996Z</time></trkpt><trkpt lat="43.54047194127323" lon="10.838469006131252"><ele>165.0</ele><time>2026-04-18T09:10:31.996Z</time></trkpt><trkpt lat="43.540515401441176" lon="10.83870244213458"><ele>168.0</ele><time>2026-04-18T09:10:32.995Z</time></trkpt><trkpt lat="43.54056242391797" lon="10.838927663872798"><ele>168.0</ele><time>2026-04-18T09:10:33.995Z</time></trkpt><trkpt lat="43.5406082310188" lon="10.83913385869082"><ele>168.0</ele><time>2026-04-18T09:10:34.995Z</time></trkpt><trkpt lat="43.540641674812456" lon="10.8393214456838"><ele>168.0</ele><time>2026-04-18T09:10:35.995Z</time></trkpt><trkpt lat="43.54067168202581" lon="10.839476259435378"><ele>168.0</ele><time>2026-04-18T09:10:36.995Z</time></trkpt><trkpt lat="43.54069653436871" lon="10.839591259146891"><ele>169.4</ele><time>2026-04-18T09:10:37.995Z</time></trkpt><trkpt lat="43.54068077639075" lon="10.839706258858405"><ele>170.8</ele><time>2026-04-18T09:10:39.995Z</time></trkpt><trkpt lat="43.54061342779877" lon="10.839675078178606"><ele>172.2</ele><time>2026-04-18T09:10:41.995Z</time></trkpt><trkpt lat="43.540503373410125" lon="10.839589582766257"><ele>173.6</ele><time>2026-04-18T09:10:43.995Z</time></trkpt><trkpt lat="43.54043975476505" lon="10.839569885293804"><ele>175.0</ele><time>2026-04-18T09:10:44.995Z</time></trkpt><trkpt lat="43.54033141866656" lon="10.839553205306492"><ele>175.2</ele><time>2026-04-18T09:10:46.995Z</time></trkpt><trkpt lat="43.54022874035271" lon="10.839537866423688"><ele>175.4</ele><time>2026-04-18T09:10:48.995Z</time></trkpt><trkpt lat="43.54014232293101" lon="10.839491095403991"><ele>175.60000000000002</ele><time>2026-04-18T09:10:50.995Z</time></trkpt><trkpt lat="43.540060431737025" lon="10.839420435960255"><ele>175.8</ele><time>2026-04-18T09:10:52.995Z</time></trkpt><trkpt lat="43.539940025697966" lon="10.839330162863098"><ele>176.0</ele><time>2026-04-18T09:10:54.995Z</time></trkpt><trkpt lat="43.5398682346973" lon="10.839270735169611"><ele>175.0</ele><time>2026-04-18T09:10:55.995Z</time></trkpt><trkpt lat="43.53979254611166" lon="10.839207787076793"><ele>174.0</ele><time>2026-04-18T09:10:56.995Z</time></trkpt><trkpt lat="43.53972431741985" lon="10.83914316260334"><ele>173.0</ele><time>2026-04-18T09:10:57.995Z</time></trkpt><trkpt lat="43.539656549732705" lon="10.839078035215698"><ele>172.0</ele><time>2026-04-18T09:10:58.995Z</time></trkpt><trkpt lat="43.539586728479286" lon="10.839014081294499"><ele>171.0</ele><time>2026-04-18T09:10:59.995Z</time></trkpt><trkpt lat="43.539508525322695" lon="10.838957838724218"><ele>170.0</ele><time>2026-04-18T09:11:00.995Z</time></trkpt><trkpt lat="43.539436399045904" lon="10.838897991935571"><ele>169.83333333333331</ele><time>2026-04-18T09:11:01.995Z</time></trkpt><trkpt lat="43.5393639794025" lon="10.838842922831734"><ele>169.66666666666666</ele><time>2026-04-18T09:11:02.995Z</time></trkpt><trkpt lat="43.53930329442354" lon="10.838792547593673"><ele>169.5</ele><time>2026-04-18T09:11:03.995Z</time></trkpt><trkpt lat="43.539242232258935" lon="10.83873965778466"><ele>169.33333333333334</ele><time>2026-04-18T09:11:04.995Z</time></trkpt><trkpt lat="43.53917886507096" lon="10.838677380244096"><ele>169.16666666666669</ele><time>2026-04-18T09:11:05.995Z</time></trkpt><trkpt lat="43.53910870854141" lon="10.83861309104677"><ele>169.0</ele><time>2026-04-18T09:11:06.995Z</time></trkpt><trkpt lat="43.53904031221153" lon="10.838551567877492"><ele>169.0</ele><time>2026-04-18T09:11:07.995Z</time></trkpt><trkpt lat="43.538966928649266" lon="10.838479734967311"><ele>169.0</ele><time>2026-04-18T09:11:08.995Z</time></trkpt><trkpt lat="43.53888486981721" lon="10.83841569722708"><ele>169.0</ele><time>2026-04-18T09:11:09.995Z</time></trkpt><trkpt lat="43.538787178735745" lon="10.838345373059472"><ele>169.0</ele><time>2026-04-18T09:11:10.995Z</time></trkpt><trkpt lat="43.53868789509268" lon="10.838274629796704"><ele>169.0</ele><time>2026-04-18T09:11:11.995Z</time></trkpt><trkpt lat="43.538593431043935" lon="10.838211849341949"><ele>168.2</ele><time>2026-04-18T09:11:12.995Z</time></trkpt><trkpt lat="43.53850818708868" lon="10.838140267888864"><ele>167.39999999999998</ele><time>2026-04-18T09:11:13.995Z</time></trkpt><trkpt lat="43.53843178604127" lon="10.83807019517835"><ele>166.6</ele><time>2026-04-18T09:11:14.995Z</time></trkpt><trkpt lat="43.538354756351126" lon="10.83800666035231"><ele>165.8</ele><time>2026-04-18T09:11:15.995Z</time></trkpt><trkpt lat="43.53827642746599" lon="10.837938599298557"><ele>165.0</ele><time>2026-04-18T09:11:16.995Z</time></trkpt><trkpt lat="43.53819193788202" lon="10.83786986769255"><ele>165.0</ele><time>2026-04-18T09:11:17.995Z</time></trkpt><trkpt lat="43.53810480799855" lon="10.83779560403045"><ele>165.0</ele><time>2026-04-18T09:11:18.995Z</time></trkpt><trkpt lat="43.53801901921959" lon="10.837717987607082"><ele>165.0</ele><time>2026-04-18T09:11:19.995Z</time></trkpt><trkpt lat="43.53793268561692" lon="10.837632240737637"><ele>165.0</ele><time>2026-04-18T09:11:20.995Z</time></trkpt><trkpt lat="43.53784874085666" lon="10.837556719790062"><ele>165.0</ele><time>2026-04-18T09:11:21.995Z</time></trkpt><trkpt lat="43.53777464483262" lon="10.837488826374372"><ele>163.6</ele><time>2026-04-18T09:11:22.995Z</time></trkpt><trkpt lat="43.53769505866201" lon="10.837423028434475"><ele>162.2</ele><time>2026-04-18T09:11:23.995Z</time></trkpt><trkpt lat="43.53760642003597" lon="10.83736804314967"><ele>160.8</ele><time>2026-04-18T09:11:24.995Z</time></trkpt><trkpt lat="43.53748681027771" lon="10.83731917665418"><ele>159.4</ele><time>2026-04-18T09:11:25.995Z</time></trkpt><trkpt lat="43.537361836101425" lon="10.8372766804051"><ele>158.0</ele><time>2026-04-18T09:11:26.995Z</time></trkpt><trkpt lat="43.53723317388774" lon="10.837239800031146"><ele>158.0</ele><time>2026-04-18T09:11:27.995Z</time></trkpt><trkpt lat="43.53712035347105" lon="10.837198728705605"><ele>158.0</ele><time>2026-04-18T09:11:28.995Z</time></trkpt><trkpt lat="43.53701830379994" lon="10.837144833068212"><ele>158.0</ele><time>2026-04-18T09:11:29.995Z</time></trkpt><trkpt lat="43.53691784669043" lon="10.83705875092264"><ele>158.0</ele><time>2026-04-18T09:11:30.995Z</time></trkpt><trkpt lat="43.536816509481085" lon="10.836958251903612"><ele>157.75</ele><time>2026-04-18T09:11:31.995Z</time></trkpt><trkpt lat="43.53670691609712" lon="10.836865715692598"><ele>157.5</ele><time>2026-04-18T09:11:32.995Z</time></trkpt><trkpt lat="43.53659476623268" lon="10.836784495050866"><ele>157.25</ele><time>2026-04-18T09:11:33.995Z</time></trkpt><trkpt lat="43.536495482589615" lon="10.836706459532339"><ele>157.0</ele><time>2026-04-18T09:11:34.995Z</time></trkpt><trkpt lat="43.53640520949246" lon="10.836619287739355"><ele>157.0</ele><time>2026-04-18T09:11:35.995Z</time></trkpt><trkpt lat="43.53631434966208" lon="10.836509484807808"><ele>157.0</ele><time>2026-04-18T09:11:36.995Z</time></trkpt><trkpt lat="43.53621992752285" lon="10.836411332721669"><ele>157.0</ele><time>2026-04-18T09:11:37.995Z</time></trkpt><trkpt lat="43.536132168996645" lon="10.836349139000136"><ele>157.0</ele><time>2026-04-18T09:11:38.995Z</time></trkpt><trkpt lat="43.5360361123863" lon="10.83630488255139"><ele>157.0</ele><time>2026-04-18T09:11:39.995Z</time></trkpt><trkpt lat="43.53594533637495" lon="10.83624235355373"><ele>158.25</ele><time>2026-04-18T09:11:40.995Z</time></trkpt><trkpt lat="43.53585963141502" lon="10.836143363277275"><ele>159.5</ele><time>2026-04-18T09:11:41.995Z</time></trkpt><trkpt lat="43.53577769831152" lon="10.836012605587799"><ele>160.75</ele><time>2026-04-18T09:11:42.995Z</time></trkpt><trkpt lat="43.53568755094291" lon="10.835875980566103"><ele>162.0</ele><time>2026-04-18T09:11:43.995Z</time></trkpt><trkpt lat="43.53559560146512" lon="10.835735332230884"><ele>162.0</ele><time>2026-04-18T09:11:44.995Z</time></trkpt><trkpt lat="43.53549250405611" lon="10.835603317255933"><ele>162.0</ele><time>2026-04-18T09:11:45.995Z</time></trkpt><trkpt lat="43.53538110856296" lon="10.835473649213869"><ele>162.0</ele><time>2026-04-18T09:11:46.995Z</time></trkpt><trkpt lat="43.53527771778734" lon="10.835369713614542"><ele>162.0</ele><time>2026-04-18T09:11:47.995Z</time></trkpt><trkpt lat="43.535183463286174" lon="10.835297545428235"><ele>163.33333333333334</ele><time>2026-04-18T09:11:48.995Z</time></trkpt><trkpt lat="43.53510203309686" lon="10.835248846570808"><ele>164.66666666666666</ele><time>2026-04-18T09:11:49.995Z</time></trkpt><trkpt lat="43.535031373653126" lon="10.835185730839926"><ele>166.0</ele><time>2026-04-18T09:11:50.995Z</time></trkpt><trkpt lat="43.53496586907984" lon="10.835115239034252"><ele>167.33333333333331</ele><time>2026-04-18T09:11:51.995Z</time></trkpt><trkpt lat="43.534916457760644" lon="10.83502722905095"><ele>168.66666666666666</ele><time>2026-04-18T09:11:52.995Z</time></trkpt><trkpt lat="43.53486998010756" lon="10.834916085014896"><ele>170.0</ele><time>2026-04-18T09:11:53.995Z</time></trkpt><trkpt lat="43.53480581663878" lon="10.834762528548794"><ele>170.0</ele><time>2026-04-18T09:11:54.995Z</time></trkpt><trkpt lat="43.53474580221207" lon="10.834628166640954"><ele>170.0</ele><time>2026-04-18T09:11:55.995Z</time></trkpt><trkpt lat="43.53468427904279" lon="10.834513250748472"><ele>170.0</ele><time>2026-04-18T09:11:56.995Z</time></trkpt><trkpt lat="43.53460603397669" lon="10.834394646818595"><ele>170.0</ele><time>2026-04-18T09:11:57.995Z</time></trkpt><trkpt lat="43.534506498876524" lon="10.83426347003396"><ele>170.5</ele><time>2026-04-18T09:11:58.995Z</time></trkpt><trkpt lat="43.534400761168015" lon="10.834140423695402"><ele>171.0</ele><time>2026-04-18T09:11:59.995Z</time></trkpt><trkpt lat="43.534295652102244" lon="10.83402693272646"><ele>171.5</ele><time>2026-04-18T09:12:00.995Z</time></trkpt><trkpt lat="43.534196913282884" lon="10.83392241039391"><ele>172.0</ele><time>2026-04-18T09:12:01.995Z</time></trkpt><trkpt lat="43.53409452833564" lon="10.833844374875383"><ele>172.0</ele><time>2026-04-18T09:12:02.995Z</time></trkpt><trkpt lat="43.53400107011528" lon="10.833758628005938"><ele>172.0</ele><time>2026-04-18T09:12:03.995Z</time></trkpt><trkpt lat="43.53392424997271" lon="10.833665756518798"><ele>172.0</ele><time>2026-04-18T09:12:04.995Z</time></trkpt><trkpt lat="43.53385455444784" lon="10.83355301992114"><ele>172.0</ele><time>2026-04-18T09:12:05.995Z</time></trkpt><trkpt lat="43.533785026561034" lon="10.833432991067724"><ele>172.0</ele><time>2026-04-18T09:12:06.995Z</time></trkpt><trkpt lat="43.5337125230986" lon="10.833307430158214"><ele>171.25</ele><time>2026-04-18T09:12:07.995Z</time></trkpt><trkpt lat="43.533636080141676" lon="10.833195196474746"><ele>170.5</ele><time>2026-04-18T09:12:08.995Z</time></trkpt><trkpt lat="43.53356164884151" lon="10.833053961406305"><ele>169.75</ele><time>2026-04-18T09:12:09.995Z</time></trkpt><trkpt lat="43.533486966084254" lon="10.83291448653753"><ele>169.0</ele><time>2026-04-18T09:12:10.995Z</time></trkpt><trkpt lat="43.533428167033506" lon="10.83277861588712"><ele>169.0</ele><time>2026-04-18T09:12:11.995Z</time></trkpt><trkpt lat="43.53337695360513" lon="10.832642074684456"><ele>169.0</ele><time>2026-04-18T09:12:12.995Z</time></trkpt><trkpt lat="43.53333001494737" lon="10.832518022517517"><ele>169.0</ele><time>2026-04-18T09:12:13.995Z</time></trkpt><trkpt lat="43.53327528111966" lon="10.832414841289475"><ele>169.0</ele><time>2026-04-18T09:12:14.995Z</time></trkpt><trkpt lat="43.53321639824988" lon="10.832318952317193"><ele>169.0</ele><time>2026-04-18T09:12:15.995Z</time></trkpt><trkpt lat="43.533165939192784" lon="10.832238821322873"><ele>169.16666666666669</ele><time>2026-04-18T09:12:16.995Z</time></trkpt><trkpt lat="43.53311598304988" lon="10.832174113030389"><ele>169.33333333333334</ele><time>2026-04-18T09:12:17.995Z</time></trkpt><trkpt lat="43.53304083928795" lon="10.832074619839743"><ele>169.5</ele><time>2026-04-18T09:12:19.995Z</time></trkpt><trkpt lat="43.532995744648886" lon="10.832005050043419"><ele>169.66666666666666</ele><time>2026-04-18T09:12:21.995Z</time></trkpt><trkpt lat="43.53294411212535" lon="10.831908993433073"><ele>169.83333333333331</ele><time>2026-04-18T09:12:36Z</time></trkpt><trkpt lat="43.53288916875006" lon="10.831805141652778"><ele>170.0</ele><time>2026-04-18T09:12:38Z</time></trkpt><trkpt lat="43.532866663340045" lon="10.831715120012715"><ele>170.0</ele><time>2026-04-18T09:12:41Z</time></trkpt><trkpt lat="43.532826807390464" lon="10.831634402285173"><ele>170.0</ele><time>2026-04-18T09:13:02Z</time></trkpt><trkpt lat="43.53274885569097" lon="10.83146911115463"><ele>170.0</ele><time>2026-04-18T09:13:04Z</time></trkpt><trkpt lat="43.53269906718613" lon="10.83137137816365"><ele>170.0</ele><time>2026-04-18T09:13:05Z</time></trkpt><trkpt lat="43.53265799586059" lon="10.831293342645122"><ele>170.0</ele><time>2026-04-18T09:13:06Z</time></trkpt><trkpt lat="43.53259760424824" lon="10.83121069707985"><ele>170.0</ele><time>2026-04-18T09:13:07Z</time></trkpt><trkpt lat="43.532538847107006" lon="10.83113056608553"><ele>170.0</ele><time>2026-04-18T09:13:08Z</time></trkpt><trkpt lat="43.53246047631235" lon="10.831055464233113"><ele>170.0</ele><time>2026-04-18T09:13:09Z</time></trkpt><trkpt lat="43.53238063868464" lon="10.830990001569344"><ele>170.0</ele><time>2026-04-18T09:13:10Z</time></trkpt><trkpt lat="43.53230289653273" lon="10.83093459718938"><ele>170.0</ele><time>2026-04-18T09:13:11Z</time></trkpt><trkpt lat="43.53222414855243" lon="10.830877851704908"><ele>170.0</ele><time>2026-04-18T09:13:12Z</time></trkpt><trkpt lat="43.532142550725055" lon="10.830829739580704"><ele>171.83333333333331</ele><time>2026-04-18T09:13:13Z</time></trkpt><trkpt lat="43.53205638476045" lon="10.830792272473527"><ele>173.66666666666666</ele><time>2026-04-18T09:13:14Z</time></trkpt><trkpt lat="43.531973906833244" lon="10.830746255825115"><ele>175.5</ele><time>2026-04-18T09:13:15Z</time></trkpt><trkpt lat="43.531888495239926" lon="10.830690348530961"><ele>177.33333333333334</ele><time>2026-04-18T09:13:16Z</time></trkpt><trkpt lat="43.5318051791224" lon="10.830645421529962"><ele>179.16666666666669</ele><time>2026-04-18T09:13:17Z</time></trkpt><trkpt lat="43.53172861043693" lon="10.830599823976709"><ele>181.0</ele><time>2026-04-18T09:13:18Z</time></trkpt><trkpt lat="43.531636996235264" lon="10.830566044906927"><ele>181.0</ele><time>2026-04-18T09:13:19Z</time></trkpt><trkpt lat="43.53154940534712" lon="10.830523129562689"><ele>181.0</ele><time>2026-04-18T09:13:20Z</time></trkpt><trkpt lat="43.53147174701424" lon="10.83047820256169"><ele>181.0</ele><time>2026-04-18T09:13:21Z</time></trkpt><trkpt lat="43.531391951296044" lon="10.830436879779054"><ele>181.0</ele><time>2026-04-18T09:13:22Z</time></trkpt><trkpt lat="43.5313165141675" lon="10.830384241427137"><ele>181.0</ele><time>2026-04-18T09:13:23Z</time></trkpt><trkpt lat="43.53124271151007" lon="10.830332525084568"><ele>181.0</ele><time>2026-04-18T09:13:24Z</time></trkpt><trkpt lat="43.5311735608089" lon="10.830270415182067"><ele>180.5</ele><time>2026-04-18T09:13:25Z</time></trkpt><trkpt lat="43.53111530658186" lon="10.830196905891253"><ele>180.0</ele><time>2026-04-18T09:13:26Z</time></trkpt><trkpt lat="43.5310718045044" lon="10.830109063546015"><ele>179.5</ele><time>2026-04-18T09:13:27Z</time></trkpt><trkpt lat="43.53104531769038" lon="10.830001188452197"><ele>179.0</ele><time>2026-04-18T09:13:28Z</time></trkpt><trkpt lat="43.531021680723434" lon="10.829870179305626"><ele>178.5</ele><time>2026-04-18T09:13:29Z</time></trkpt><trkpt lat="43.53099703792811" lon="10.82972768695171"><ele>178.0</ele><time>2026-04-18T09:13:30Z</time></trkpt><trkpt lat="43.530976250808244" lon="10.829585865150047"><ele>178.0</ele><time>2026-04-18T09:13:31Z</time></trkpt><trkpt lat="43.53095806207836" lon="10.829438176016165"><ele>178.0</ele><time>2026-04-18T09:13:32Z</time></trkpt><trkpt lat="43.53094075344831" lon="10.829307418326687"><ele>178.0</ele><time>2026-04-18T09:13:33Z</time></trkpt><trkpt lat="43.5309145600009" lon="10.82918344997878"><ele>178.0</ele><time>2026-04-18T09:13:34Z</time></trkpt><trkpt lat="43.53087457832277" lon="10.829049255709004"><ele>178.0</ele><time>2026-04-18T09:13:35Z</time></trkpt><trkpt lat="43.5308212694186" lon="10.828912630687308"><ele>177.60000000000002</ele><time>2026-04-18T09:13:36Z</time></trkpt><trkpt lat="43.530768337700074" lon="10.828787488872957"><ele>177.20000000000002</ele><time>2026-04-18T09:13:37Z</time></trkpt><trkpt lat="43.53070597634048" lon="10.828679362322044"><ele>176.8</ele><time>2026-04-18T09:13:38Z</time></trkpt><trkpt lat="43.53064336352379" lon="10.828571403409194"><ele>176.4</ele><time>2026-04-18T09:13:39Z</time></trkpt><trkpt lat="43.530575595836645" lon="10.828469898561787"><ele>176.0</ele><time>2026-04-18T09:13:40Z</time></trkpt><trkpt lat="43.53051453367204" lon="10.82836596296246"><ele>175.20000000000002</ele><time>2026-04-18T09:13:41Z</time></trkpt><trkpt lat="43.53044504769475" lon="10.828271834189843"><ele>174.4</ele><time>2026-04-18T09:13:42Z</time></trkpt><trkpt lat="43.53036508433849" lon="10.8281739335608"><ele>173.6</ele><time>2026-04-18T09:13:43Z</time></trkpt><trkpt lat="43.530287761281734" lon="10.82808357664461"><ele>172.8</ele><time>2026-04-18T09:13:44Z</time></trkpt><trkpt lat="43.53021211460561" lon="10.828001266355466"><ele>172.0</ele><time>2026-04-18T09:13:45Z</time></trkpt><trkpt lat="43.53014908269376" lon="10.827927337969493"><ele>171.2</ele><time>2026-04-18T09:13:46Z</time></trkpt><trkpt lat="43.530110903124815" lon="10.827853493402552"><ele>170.39999999999998</ele><time>2026-04-18T09:13:47Z</time></trkpt><trkpt lat="43.53004862558425" lon="10.827724328274678"><ele>169.60000000000002</ele><time>2026-04-18T09:13:49Z</time></trkpt><trkpt lat="43.52997888814986" lon="10.827615028257322"><ele>168.8</ele><time>2026-04-18T09:13:51Z</time></trkpt><trkpt lat="43.5299036605689" lon="10.827470775703738"><ele>168.0</ele><time>2026-04-18T09:13:53Z</time></trkpt><trkpt lat="43.52985743437291" lon="10.827382178987214"><ele>168.0</ele><time>2026-04-18T09:13:54Z</time></trkpt><trkpt lat="43.52981238164336" lon="10.827293666089723"><ele>168.0</ele><time>2026-04-18T09:13:55Z</time></trkpt><trkpt lat="43.52977022067041" lon="10.827214457104752"><ele>168.0</ele><time>2026-04-18T09:13:56Z</time></trkpt><trkpt lat="43.529733424115484" lon="10.827134326110432"><ele>168.0</ele><time>2026-04-18T09:13:57Z</time></trkpt><trkpt lat="43.5296903830427" lon="10.827055787677715"><ele>168.0</ele><time>2026-04-18T09:13:58Z</time></trkpt><trkpt lat="43.52964130699963" lon="10.826980099092076"><ele>168.0</ele><time>2026-04-18T09:13:59Z</time></trkpt><trkpt lat="43.5295936558801" lon="10.826912289495418"><ele>168.0</ele><time>2026-04-18T09:14:00Z</time></trkpt><trkpt lat="43.52951272860498" lon="10.826787231500099"><ele>165.83333333333334</ele><time>2026-04-18T09:14:02Z</time></trkpt><trkpt lat="43.52943691429079" lon="10.826649097735832"><ele>163.66666666666666</ele><time>2026-04-18T09:14:04Z</time></trkpt><trkpt lat="43.52940556597293" lon="10.82657030784602"><ele>161.5</ele><time>2026-04-18T09:14:05Z</time></trkpt><trkpt lat="43.52936122570515" lon="10.826478777463386"><ele>159.33333333333331</ele><time>2026-04-18T09:14:06Z</time></trkpt><trkpt lat="43.52931743026108" lon="10.826384229595611"><ele>157.16666666666666</ele><time>2026-04-18T09:14:07Z</time></trkpt><trkpt lat="43.52926856376559" lon="10.826296554888437"><ele>155.0</ele><time>2026-04-18T09:14:08Z</time></trkpt><trkpt lat="43.52922749244005" lon="10.82622095012183"><ele>155.0</ele><time>2026-04-18T09:14:09Z</time></trkpt><trkpt lat="43.52918751076192" lon="10.826141741136858"><ele>155.0</ele><time>2026-04-18T09:14:10Z</time></trkpt><trkpt lat="43.52914602034122" lon="10.826058676476428"><ele>155.0</ele><time>2026-04-18T09:14:11Z</time></trkpt><trkpt lat="43.52908948440433" lon="10.825957339267084"><ele>155.0</ele><time>2026-04-18T09:14:12Z</time></trkpt><trkpt lat="43.529036929871445" lon="10.825851224372933"><ele>155.0</ele><time>2026-04-18T09:14:13Z</time></trkpt><trkpt lat="43.52899074558497" lon="10.825738823051402"><ele>155.0</ele><time>2026-04-18T09:14:14Z</time></trkpt><trkpt lat="43.52894808169783" lon="10.825621476407001"><ele>152.6</ele><time>2026-04-18T09:14:15Z</time></trkpt><trkpt lat="43.52890604645342" lon="10.82549591549749"><ele>150.2</ele><time>2026-04-18T09:14:16Z</time></trkpt><trkpt lat="43.52886933371753" lon="10.825358200828381"><ele>147.8</ele><time>2026-04-18T09:14:17Z</time></trkpt><trkpt lat="43.528835806104844" lon="10.825214199731894"><ele>145.4</ele><time>2026-04-18T09:14:18Z</time></trkpt><trkpt lat="43.52880831346244" lon="10.825091069574304"><ele>143.0</ele><time>2026-04-18T09:14:19Z</time></trkpt><trkpt lat="43.52878199428648" lon="10.824978919709869"><ele>142.0</ele><time>2026-04-18T09:14:20Z</time></trkpt><trkpt lat="43.5287587764147" lon="10.824875235567637"><ele>141.0</ele><time>2026-04-18T09:14:21Z</time></trkpt><trkpt lat="43.52873702537597" lon="10.824760319675155"><ele>140.0</ele><time>2026-04-18T09:14:21.999Z</time></trkpt><trkpt lat="43.528714184689825" lon="10.824644900868483"><ele>139.0</ele><time>2026-04-18T09:14:22.999Z</time></trkpt><trkpt lat="43.528688703704184" lon="10.824552197019406"><ele>138.0</ele><time>2026-04-18T09:14:23.999Z</time></trkpt><trkpt lat="43.52865605619133" lon="10.824456224228092"><ele>137.0</ele><time>2026-04-18T09:14:24.999Z</time></trkpt><trkpt lat="43.528633131686156" lon="10.824365867311903"><ele>136.83333333333331</ele><time>2026-04-18T09:14:25.999Z</time></trkpt><trkpt lat="43.52860928517163" lon="10.824275510395713"><ele>136.66666666666666</ele><time>2026-04-18T09:14:26.999Z</time></trkpt><trkpt lat="43.52858845614225" lon="10.824186997498222"><ele>136.5</ele><time>2026-04-18T09:14:27.999Z</time></trkpt><trkpt lat="43.52855668872923" lon="10.824098736057826"><ele>136.33333333333334</ele><time>2026-04-18T09:14:28.999Z</time></trkpt><trkpt lat="43.528506690676814" lon="10.823956076065846"><ele>136.16666666666669</ele><time>2026-04-18T09:14:30.999Z</time></trkpt><trkpt lat="43.52847488135428" lon="10.823879297832795"><ele>136.0</ele><time>2026-04-18T09:14:31.999Z</time></trkpt><trkpt lat="43.528449819463795" lon="10.82379941829557"><ele>136.0</ele><time>2026-04-18T09:14:32.999Z</time></trkpt><trkpt lat="43.528424841392344" lon="10.823716102178045"><ele>136.0</ele><time>2026-04-18T09:14:33.999Z</time></trkpt><trkpt lat="43.52839692965478" lon="10.823634294803089"><ele>136.0</ele><time>2026-04-18T09:14:34.999Z</time></trkpt><trkpt lat="43.5283597140047" lon="10.82355173305685"><ele>136.0</ele><time>2026-04-18T09:14:35.999Z</time></trkpt><trkpt lat="43.52831713393659" lon="10.82345500589425"><ele>136.0</ele><time>2026-04-18T09:14:36.999Z</time></trkpt><trkpt lat="43.528279122005706" lon="10.82335484215135"><ele>136.0</ele><time>2026-04-18T09:14:37.999Z</time></trkpt><trkpt lat="43.52823071651489" lon="10.823239171887582"><ele>134.25</ele><time>2026-04-18T09:14:38.999Z</time></trkpt><trkpt lat="43.52817560550154" lon="10.823120567957705"><ele>132.5</ele><time>2026-04-18T09:14:39.999Z</time></trkpt><trkpt lat="43.52811110675663" lon="10.822975728670901"><ele>130.75</ele><time>2026-04-18T09:14:40.999Z</time></trkpt><trkpt lat="43.52804954167784" lon="10.82283985802049"><ele>129.0</ele><time>2026-04-18T09:14:41.999Z</time></trkpt><trkpt lat="43.52798894051791" lon="10.822711531082934"><ele>127.5</ele><time>2026-04-18T09:14:42.999Z</time></trkpt><trkpt lat="43.52793613452793" lon="10.822598626847213"><ele>126.0</ele><time>2026-04-18T09:14:43.999Z</time></trkpt><trkpt lat="43.527893973554974" lon="10.822498966018504"><ele>124.5</ele><time>2026-04-18T09:14:44.999Z</time></trkpt><trkpt lat="43.527867361012405" lon="10.822401233027524"><ele>123.0</ele><time>2026-04-18T09:14:45.999Z</time></trkpt><trkpt lat="43.5278631281513" lon="10.822312049577778"><ele>121.5</ele><time>2026-04-18T09:14:46.999Z</time></trkpt><trkpt lat="43.52787796411992" lon="10.822226889441556"><ele>120.0</ele><time>2026-04-18T09:14:47.999Z</time></trkpt><trkpt lat="43.52791082118035" lon="10.822150027389473"><ele>120.0</ele><time>2026-04-18T09:14:48.999Z</time></trkpt><trkpt lat="43.52794833019704" lon="10.822072159509009"><ele>120.0</ele><time>2026-04-18T09:14:49.999Z</time></trkpt><trkpt lat="43.52798378564746" lon="10.821982640783137"><ele>120.0</ele><time>2026-04-18T09:14:50.999Z</time></trkpt><trkpt lat="43.52800675206215" lon="10.821855319673961"><ele>120.0</ele><time>2026-04-18T09:14:51.999Z</time></trkpt><trkpt lat="43.5280185286361" lon="10.821688184524719"><ele>120.0</ele><time>2026-04-18T09:14:52.999Z</time></trkpt><trkpt lat="43.528012242208725" lon="10.821489617238585"><ele>118.0</ele><time>2026-04-18T09:14:53.999Z</time></trkpt><trkpt lat="43.527989778708225" lon="10.82128610462958"><ele>116.0</ele><time>2026-04-18T09:14:54.999Z</time></trkpt><trkpt lat="43.5279632918942" lon="10.821088543171827"><ele>114.0</ele><time>2026-04-18T09:14:55.999Z</time></trkpt><trkpt lat="43.52794195995063" lon="10.820901459093038"><ele>112.0</ele><time>2026-04-18T09:14:56.999Z</time></trkpt><trkpt lat="43.52791660469354" lon="10.82075008192176"><ele>111.6</ele><time>2026-04-18T09:14:57.999Z</time></trkpt><trkpt lat="43.527875449548965" lon="10.820629214878027"><ele>111.19999999999999</ele><time>2026-04-18T09:14:58.999Z</time></trkpt><trkpt lat="43.52781061552793" lon="10.820524692545478"><ele>110.8</ele><time>2026-04-18T09:14:59.999Z</time></trkpt><trkpt lat="43.527718414593046" lon="10.820453027273361"><ele>110.4</ele><time>2026-04-18T09:15:00.999Z</time></trkpt><trkpt lat="43.52761271879405" lon="10.820401813844983"><ele>110.0</ele><time>2026-04-18T09:15:01.999Z</time></trkpt><trkpt lat="43.52750610098571" lon="10.82037826069707"><ele>110.0</ele><time>2026-04-18T09:15:02.999Z</time></trkpt><trkpt lat="43.52739361584515" lon="10.82035965287203"><ele>110.0</ele><time>2026-04-18T09:15:03.999Z</time></trkpt><trkpt lat="43.52728159170926" lon="10.820330148572866"><ele>110.0</ele><time>2026-04-18T09:15:04.999Z</time></trkpt><trkpt lat="43.52717627309591" lon="10.820281365896408"><ele>110.0</ele><time>2026-04-18T09:15:05.999Z</time></trkpt><trkpt lat="43.527094884816115" lon="10.820200229073707"><ele>110.0</ele><time>2026-04-18T09:15:06.999Z</time></trkpt><trkpt lat="43.527041869278555" lon="10.820109620700423"><ele>108.0</ele><time>2026-04-18T09:15:07.999Z</time></trkpt><trkpt lat="43.52701865140677" lon="10.819981629038994"><ele>106.0</ele><time>2026-04-18T09:15:08.999Z</time></trkpt><trkpt lat="43.527023554820126" lon="10.819848272959533"><ele>104.0</ele><time>2026-04-18T09:15:09.999Z</time></trkpt><trkpt lat="43.52703424174667" lon="10.819685161123815"><ele>102.0</ele><time>2026-04-18T09:15:10.999Z</time></trkpt><trkpt lat="43.527049957815116" lon="10.81951735542232"><ele>100.0</ele><time>2026-04-18T09:15:11.999Z</time></trkpt><trkpt lat="43.52706269830794" lon="10.819350471730175"><ele>98.2</ele><time>2026-04-18T09:15:12.999Z</time></trkpt><trkpt lat="43.52706399750293" lon="10.819197501997294"><ele>96.4</ele><time>2026-04-18T09:15:13.999Z</time></trkpt><trkpt lat="43.52704664696336" lon="10.81906389446074"><ele>94.6</ele><time>2026-04-18T09:15:14.999Z</time></trkpt><trkpt lat="43.527011820155685" lon="10.818941351036372"><ele>92.8</ele><time>2026-04-18T09:15:15.999Z</time></trkpt><trkpt lat="43.526961444917625" lon="10.818826854239049"><ele>91.0</ele><time>2026-04-18T09:15:16.999Z</time></trkpt><trkpt lat="43.52691224314601" lon="10.818735407675447"><ele>90.66666666666666</ele><time>2026-04-18T09:15:17.999Z</time></trkpt><trkpt lat="43.5268572578612" lon="10.818636417398992"><ele>90.33333333333333</ele><time>2026-04-18T09:15:19.999Z</time></trkpt><trkpt lat="43.52680487096638" lon="10.818548491234722"><ele>90.0</ele><time>2026-04-18T09:15:28.999Z</time></trkpt><trkpt lat="43.52675273552865" lon="10.818491997207346"><ele>89.66666666666667</ele><time>2026-04-18T09:15:30.999Z</time></trkpt><trkpt lat="43.5266828304562" lon="10.818402729938569"><ele>89.33333333333334</ele><time>2026-04-18T09:15:32.999Z</time></trkpt><trkpt lat="43.526626545976406" lon="10.818326203162613"><ele>89.0</ele><time>2026-04-18T09:15:34.999Z</time></trkpt><trkpt lat="43.526559281203454" lon="10.81826593727881"><ele>89.0</ele><time>2026-04-18T09:16:09.999Z</time></trkpt><trkpt lat="43.52662197783918" lon="10.8183216769349"><ele>89.0</ele><time>2026-04-18T09:16:48.999Z</time></trkpt><trkpt lat="43.526675831567054" lon="10.818400885919871"><ele>89.0</ele><time>2026-04-18T09:16:50.999Z</time></trkpt><trkpt lat="43.52673718709827" lon="10.818463582555594"><ele>89.0</ele><time>2026-04-18T09:16:52.999Z</time></trkpt><trkpt lat="43.52678861007423" lon="10.818519992763939"><ele>89.0</ele><time>2026-04-18T09:16:55.999Z</time></trkpt><trkpt lat="43.52686346046955" lon="10.81845997833723"><ele>89.0</ele><time>2026-04-18T09:17:17.999Z</time></trkpt><trkpt lat="43.52693399418474" lon="10.818298878158274"><ele>89.0</ele><time>2026-04-18T09:17:19.999Z</time></trkpt><trkpt lat="43.526984704698926" lon="10.818208018327894"><ele>89.0</ele><time>2026-04-18T09:17:20.999Z</time></trkpt><trkpt lat="43.527038726064866" lon="10.818113302822056"><ele>89.0</ele><time>2026-04-18T09:17:21.999Z</time></trkpt><trkpt lat="43.52710552983314" lon="10.81799427979702"><ele>89.0</ele><time>2026-04-18T09:17:22.999Z</time></trkpt><trkpt lat="43.52716122757972" lon="10.817871149639428"><ele>89.0</ele><time>2026-04-18T09:17:23.999Z</time></trkpt><trkpt lat="43.527211435179716" lon="10.81775883213693"><ele>88.0</ele><time>2026-04-18T09:17:24.999Z</time></trkpt><trkpt lat="43.5272491956535" lon="10.817630002285183"><ele>87.0</ele><time>2026-04-18T09:17:25.999Z</time></trkpt><trkpt lat="43.52730770133764" lon="10.817529587085188"><ele>86.0</ele><time>2026-04-18T09:17:26.999Z</time></trkpt><trkpt lat="43.52738783233196" lon="10.817439481626094"><ele>85.0</ele><time>2026-04-18T09:17:27.999Z</time></trkpt><trkpt lat="43.527496336068516" lon="10.817350968728602"><ele>84.0</ele><time>2026-04-18T09:17:28.999Z</time></trkpt><trkpt lat="43.52758241821409" lon="10.81727368758136"><ele>84.0</ele><time>2026-04-18T09:17:29.999Z</time></trkpt><trkpt lat="43.52766917091191" lon="10.817186851064504"><ele>84.0</ele><time>2026-04-18T09:17:30.999Z</time></trkpt><trkpt lat="43.52773739960373" lon="10.817077467228115"><ele>84.0</ele><time>2026-04-18T09:17:31.999Z</time></trkpt><trkpt lat="43.527787313837116" lon="10.816945871348322"><ele>84.0</ele><time>2026-04-18T09:17:32.999Z</time></trkpt><trkpt lat="43.52783249229521" lon="10.816782508055509"><ele>84.0</ele><time>2026-04-18T09:17:33.999Z</time></trkpt><trkpt lat="43.52788693275631" lon="10.81663012505585"><ele>85.5</ele><time>2026-04-18T09:17:34.999Z</time></trkpt><trkpt lat="43.52792863272459" lon="10.81647958607489"><ele>87.0</ele><time>2026-04-18T09:17:35.999Z</time></trkpt><trkpt lat="43.52798043288619" lon="10.816339273015798"><ele>88.5</ele><time>2026-04-18T09:17:36.999Z</time></trkpt><trkpt lat="43.5280325264144" lon="10.816201893622816"><ele>90.0</ele><time>2026-04-18T09:17:37.999Z</time></trkpt><trkpt lat="43.52810100656331" lon="10.81607943401748"><ele>90.0</ele><time>2026-04-18T09:17:38.999Z</time></trkpt><trkpt lat="43.52817849725813" lon="10.816008439297615"><ele>90.0</ele><time>2026-04-18T09:17:39.999Z</time></trkpt><trkpt lat="43.528265166136926" lon="10.815960494811474"><ele>90.0</ele><time>2026-04-18T09:17:40.999Z</time></trkpt><trkpt lat="43.528352296020394" lon="10.815971726561724"><ele>90.0</ele><time>2026-04-18T09:17:41.999Z</time></trkpt><trkpt lat="43.52846503261805" lon="10.816001985232173"><ele>90.0</ele><time>2026-04-18T09:17:42.999Z</time></trkpt><trkpt lat="43.528604717034405" lon="10.816036853949367"><ele>92.25</ele><time>2026-04-18T09:17:43.998Z</time></trkpt><trkpt lat="43.5287394980374" lon="10.81606526860112"><ele>94.5</ele><time>2026-04-18T09:17:44.998Z</time></trkpt><trkpt lat="43.528858856338566" lon="10.816071890304626"><ele>96.75</ele><time>2026-04-18T09:17:45.998Z</time></trkpt><trkpt lat="43.52897280831218" lon="10.816053701574742"><ele>99.0</ele><time>2026-04-18T09:17:46.998Z</time></trkpt><trkpt lat="43.529087430838054" lon="10.816013216982423"><ele>102.80000000000001</ele><time>2026-04-18T09:17:47.998Z</time></trkpt><trkpt lat="43.52919551547945" lon="10.8159573935073"><ele>106.60000000000001</ele><time>2026-04-18T09:17:48.998Z</time></trkpt><trkpt lat="43.529299870173936" lon="10.815909616659223"><ele>110.4</ele><time>2026-04-18T09:17:49.998Z</time></trkpt><trkpt lat="43.52940342858762" lon="10.81586452202016"><ele>114.2</ele><time>2026-04-18T09:17:50.998Z</time></trkpt><trkpt lat="43.52951281242401" lon="10.815819511200129"><ele>118.0</ele><time>2026-04-18T09:17:51.998Z</time></trkpt><trkpt lat="43.52962806359262" lon="10.815782211731015"><ele>119.5</ele><time>2026-04-18T09:17:52.998Z</time></trkpt><trkpt lat="43.52975534279228" lon="10.81573988312"><ele>121.0</ele><time>2026-04-18T09:17:53.998Z</time></trkpt><trkpt lat="43.529871935065394" lon="10.815711217011152"><ele>122.5</ele><time>2026-04-18T09:17:54.998Z</time></trkpt><trkpt lat="43.52998588703901" lon="10.815688921148716"><ele>124.0</ele><time>2026-04-18T09:17:55.998Z</time></trkpt><trkpt lat="43.53010176685036" lon="10.815672576437532"><ele>124.0</ele><time>2026-04-18T09:17:56.998Z</time></trkpt><trkpt lat="43.53022032887072" lon="10.815652040774761"><ele>124.0</ele><time>2026-04-18T09:17:57.998Z</time></trkpt><trkpt lat="43.53033486757756" lon="10.815626727427183"><ele>124.0</ele><time>2026-04-18T09:17:58.998Z</time></trkpt><trkpt lat="43.53044534106136" lon="10.815611975277601"><ele>124.0</ele><time>2026-04-18T09:17:59.998Z</time></trkpt><trkpt lat="43.53055401243598" lon="10.815593535090624"><ele>124.75</ele><time>2026-04-18T09:18:00.998Z</time></trkpt><trkpt lat="43.53065405045033" lon="10.815571993599473"><ele>125.5</ele><time>2026-04-18T09:18:01.998Z</time></trkpt><trkpt lat="43.53075186726034" lon="10.815569311390458"><ele>126.25</ele><time>2026-04-18T09:18:02.998Z</time></trkpt><trkpt lat="43.53086062245399" lon="10.815598815689622"><ele>127.0</ele><time>2026-04-18T09:18:03.998Z</time></trkpt><trkpt lat="43.53100722194046" lon="10.815646173442541"><ele>127.0</ele><time>2026-04-18T09:18:04.998Z</time></trkpt><trkpt lat="43.53114979811341" lon="10.815696716318666"><ele>127.0</ele><time>2026-04-18T09:18:05.998Z</time></trkpt><trkpt lat="43.53128906343461" lon="10.81574533135706"><ele>127.0</ele><time>2026-04-18T09:18:06.998Z</time></trkpt><trkpt lat="43.53142346725197" lon="10.815781624997793"><ele>127.0</ele><time>2026-04-18T09:18:07.998Z</time></trkpt><trkpt lat="43.53154990826131" lon="10.81580836326891"><ele>128.0</ele><time>2026-04-18T09:18:08.998Z</time></trkpt><trkpt lat="43.53166796736748" lon="10.815817248086272"><ele>129.0</ele><time>2026-04-18T09:18:09.998Z</time></trkpt><trkpt lat="43.53178078778417" lon="10.815815823162733"><ele>130.0</ele><time>2026-04-18T09:18:10.998Z</time></trkpt><trkpt lat="43.5318908002633" lon="10.815842226157724"><ele>131.0</ele><time>2026-04-18T09:18:11.998Z</time></trkpt><trkpt lat="43.531988072249604" lon="10.815875502313315"><ele>132.0</ele><time>2026-04-18T09:18:12.998Z</time></trkpt><trkpt lat="43.532095612067295" lon="10.81594616175705"><ele>133.5</ele><time>2026-04-18T09:18:13.998Z</time></trkpt><trkpt lat="43.532211240421546" lon="10.816041799272238"><ele>135.0</ele><time>2026-04-18T09:18:14.998Z</time></trkpt><trkpt lat="43.53233562786461" lon="10.816154619688929"><ele>136.5</ele><time>2026-04-18T09:18:15.998Z</time></trkpt><trkpt lat="43.53245846465559" lon="10.816250257204116"><ele>138.0</ele><time>2026-04-18T09:18:16.998Z</time></trkpt><trkpt lat="43.532580840441895" lon="10.816320497552693"><ele>138.0</ele><time>2026-04-18T09:18:17.998Z</time></trkpt><trkpt lat="43.53271889038713" lon="10.816374644647182"><ele>138.0</ele><time>2026-04-18T09:18:18.998Z</time></trkpt><trkpt lat="43.532856940332366" lon="10.816419236372054"><ele>138.0</ele><time>2026-04-18T09:18:19.998Z</time></trkpt><trkpt lat="43.5330105806175" lon="10.816485537226141"><ele>138.0</ele><time>2026-04-18T09:18:20.998Z</time></trkpt><trkpt lat="43.533158144022835" lon="10.816548736776054"><ele>137.75</ele><time>2026-04-18T09:18:21.998Z</time></trkpt><trkpt lat="43.53329133246423" lon="10.816609421755016"><ele>137.5</ele><time>2026-04-18T09:18:22.998Z</time></trkpt><trkpt lat="43.533409056294275" lon="10.81667262130493"><ele>137.25</ele><time>2026-04-18T09:18:23.998Z</time></trkpt><trkpt lat="43.533513075712634" lon="10.816710675145329"><ele>137.0</ele><time>2026-04-18T09:18:24.998Z</time></trkpt><trkpt lat="43.53360527664752" lon="10.816725175837815"><ele>137.0</ele><time>2026-04-18T09:18:25.998Z</time></trkpt><trkpt lat="43.533695382106615" lon="10.816716374839485"><ele>137.0</ele><time>2026-04-18T09:18:26.998Z</time></trkpt><trkpt lat="43.53380769960911" lon="10.816679075370372"><ele>137.0</ele><time>2026-04-18T09:18:27.998Z</time></trkpt><trkpt lat="43.53393032685251" lon="10.816639177511275"><ele>137.0</ele><time>2026-04-18T09:18:28.998Z</time></trkpt><trkpt lat="43.534059911075545" lon="10.816612020145"><ele>138.5</ele><time>2026-04-18T09:18:29.998Z</time></trkpt><trkpt lat="43.53418932766051" lon="10.816604979346335"><ele>140.0</ele><time>2026-04-18T09:18:30.998Z</time></trkpt><trkpt lat="43.534325701225114" lon="10.816609757031143"><ele>141.5</ele><time>2026-04-18T09:18:31.998Z</time></trkpt><trkpt lat="43.53446102705182" lon="10.816615624363363"><ele>143.0</ele><time>2026-04-18T09:18:32.998Z</time></trkpt><trkpt lat="43.53458918635131" lon="10.816627945761025"><ele>144.8</ele><time>2026-04-18T09:18:33.998Z</time></trkpt><trkpt lat="43.53471068203778" lon="10.816646302128971"><ele>146.60000000000002</ele><time>2026-04-18T09:18:34.998Z</time></trkpt><trkpt lat="43.5348219937119" lon="10.81666331739241"><ele>148.39999999999998</ele><time>2026-04-18T09:18:35.998Z</time></trkpt><trkpt lat="43.53490686048151" lon="10.816680667931974"><ele>150.2</ele><time>2026-04-18T09:18:36.998Z</time></trkpt><trkpt lat="43.534984434995366" lon="10.81667555497104"><ele>152.0</ele><time>2026-04-18T09:18:37.998Z</time></trkpt><trkpt lat="43.535064482170654" lon="10.81664429047221"><ele>152.0</ele><time>2026-04-18T09:18:38.998Z</time></trkpt><trkpt lat="43.5351528693396" lon="10.816588718454183"><ele>152.0</ele><time>2026-04-18T09:18:39.998Z</time></trkpt><trkpt lat="43.53524632755996" lon="10.816529206941665"><ele>152.0</ele><time>2026-04-18T09:18:40.998Z</time></trkpt><trkpt lat="43.535337229299856" lon="10.816471707085908"><ele>152.0</ele><time>2026-04-18T09:18:41.998Z</time></trkpt><trkpt lat="43.535438608418715" lon="10.816390821720303"><ele>152.0</ele><time>2026-04-18T09:18:42.998Z</time></trkpt><trkpt lat="43.53556320540936" lon="10.81629342400545"><ele>155.0</ele><time>2026-04-18T09:18:43.998Z</time></trkpt><trkpt lat="43.53567250542672" lon="10.816197032118977"><ele>158.0</ele><time>2026-04-18T09:18:44.998Z</time></trkpt><trkpt lat="43.53578461338164" lon="10.816099215308965"><ele>161.0</ele><time>2026-04-18T09:18:45.998Z</time></trkpt><trkpt lat="43.53588259782971" lon="10.815999973575412"><ele>164.0</ele><time>2026-04-18T09:18:46.998Z</time></trkpt><trkpt lat="43.53598703634323" lon="10.81591439434403"><ele>164.0</ele><time>2026-04-18T09:18:47.998Z</time></trkpt><trkpt lat="43.536083302501154" lon="10.81584742293769"><ele>164.0</ele><time>2026-04-18T09:18:48.998Z</time></trkpt><trkpt lat="43.53617986202569" lon="10.815789671624838"><ele>164.0</ele><time>2026-04-18T09:18:49.998Z</time></trkpt><trkpt lat="43.53628308516325" lon="10.815739296386777"><ele>164.0</ele><time>2026-04-18T09:18:50.998Z</time></trkpt><trkpt lat="43.5363876074958" lon="10.815699147070585"><ele>164.0</ele><time>2026-04-18T09:18:51.998Z</time></trkpt><trkpt lat="43.53649460248978" lon="10.81566520036274"><ele>165.6</ele><time>2026-04-18T09:18:52.998Z</time></trkpt><trkpt lat="43.536599502007974" lon="10.815637120987116"><ele>167.2</ele><time>2026-04-18T09:18:53.998Z</time></trkpt><trkpt lat="43.53669635489912" lon="10.815644580880939"><ele>168.79999999999998</ele><time>2026-04-18T09:18:54.998Z</time></trkpt><trkpt lat="43.536784532520485" lon="10.815647766004144"><ele>170.39999999999998</ele><time>2026-04-18T09:18:55.998Z</time></trkpt><trkpt lat="43.536870447027994" lon="10.815644832338034"><ele>172.0</ele><time>2026-04-18T09:18:56.998Z</time></trkpt><trkpt lat="43.53694705762298" lon="10.815638042996465"><ele>172.0</ele><time>2026-04-18T09:18:57.998Z</time></trkpt><trkpt lat="43.537021279375566" lon="10.815563192601143"><ele>172.0</ele><time>2026-04-18T09:18:58.998Z</time></trkpt><trkpt lat="43.53709348947139" lon="10.815493538985788"><ele>172.0</ele><time>2026-04-18T09:18:59.998Z</time></trkpt><trkpt lat="43.53713330351145" lon="10.815373342494308"><ele>172.0</ele><time>2026-04-18T09:19:00.998Z</time></trkpt><trkpt lat="43.53717521302731" lon="10.81525767223054"><ele>172.0</ele><time>2026-04-18T09:19:01.998Z</time></trkpt><trkpt lat="43.53721071038724" lon="10.815179301435887"><ele>172.0</ele><time>2026-04-18T09:19:02.998Z</time></trkpt><trkpt lat="43.53725572120727" lon="10.81504996866995"><ele>169.6</ele><time>2026-04-18T09:19:04.998Z</time></trkpt><trkpt lat="43.53726251054884" lon="10.814912086362778"><ele>167.2</ele><time>2026-04-18T09:19:07.998Z</time></trkpt><trkpt lat="43.53723158132614" lon="10.814788369471966"><ele>164.8</ele><time>2026-04-18T09:19:09.998Z</time></trkpt><trkpt lat="43.537198849994255" lon="10.814623665074645"><ele>162.4</ele><time>2026-04-18T09:19:11.998Z</time></trkpt><trkpt lat="43.53717684749843" lon="10.814447728927075"><ele>160.0</ele><time>2026-04-18T09:19:13.998Z</time></trkpt><trkpt lat="43.537174668203605" lon="10.814350079755126"><ele>161.4</ele><time>2026-04-18T09:19:14.998Z</time></trkpt><trkpt lat="43.537181834730816" lon="10.814230218539773"><ele>162.8</ele><time>2026-04-18T09:19:15.998Z</time></trkpt><trkpt lat="43.537215949076725" lon="10.81408848055714"><ele>164.2</ele><time>2026-04-18T09:19:16.998Z</time></trkpt><trkpt lat="43.53726515084834" lon="10.81395453774446"><ele>165.6</ele><time>2026-04-18T09:19:17.998Z</time></trkpt><trkpt lat="43.53731565181495" lon="10.813827216635284"><ele>167.0</ele><time>2026-04-18T09:19:18.998Z</time></trkpt><trkpt lat="43.53737562433214" lon="10.813708612705407"><ele>167.0</ele><time>2026-04-18T09:19:19.998Z</time></trkpt><trkpt lat="43.53743169926436" lon="10.8135949540984"><ele>167.0</ele><time>2026-04-18T09:19:20.998Z</time></trkpt><trkpt lat="43.53748471480192" lon="10.813485570262012"><ele>167.0</ele><time>2026-04-18T09:19:21.998Z</time></trkpt><trkpt lat="43.5375306476313" lon="10.813369732360181"><ele>167.0</ele><time>2026-04-18T09:19:22.998Z</time></trkpt><trkpt lat="43.53754594460459" lon="10.813243668536481"><ele>167.0</ele><time>2026-04-18T09:19:23.998Z</time></trkpt><trkpt lat="43.53754472922863" lon="10.813093548650679"><ele>168.75</ele><time>2026-04-18T09:19:24.998Z</time></trkpt><trkpt lat="43.53750416081728" lon="10.81294309348875"><ele>170.5</ele><time>2026-04-18T09:19:25.998Z</time></trkpt><trkpt lat="43.53743677031578" lon="10.812807893390593"><ele>172.25</ele><time>2026-04-18T09:19:26.998Z</time></trkpt><trkpt lat="43.53733145170243" lon="10.812703538696107"><ele>174.0</ele><time>2026-04-18T09:19:27.998Z</time></trkpt><trkpt lat="43.53723652664901" lon="10.812620306397614"><ele>174.0</ele><time>2026-04-18T09:19:28.998Z</time></trkpt><trkpt lat="43.53714872621329" lon="10.81253657118493"><ele>174.0</ele><time>2026-04-18T09:19:29.998Z</time></trkpt><trkpt lat="43.53706637401463" lon="10.81243590452784"><ele>174.0</ele><time>2026-04-18T09:19:30.998Z</time></trkpt><trkpt lat="43.536981926340175" lon="10.812332136566576"><ele>174.0</ele><time>2026-04-18T09:19:31.998Z</time></trkpt><trkpt lat="43.53689990941764" lon="10.81223121845239"><ele>174.0</ele><time>2026-04-18T09:19:32.998Z</time></trkpt><trkpt lat="43.53682141289444" lon="10.81211395562702"><ele>174.25</ele><time>2026-04-18T09:19:33.998Z</time></trkpt><trkpt lat="43.536743251647366" lon="10.811988310898478"><ele>174.5</ele><time>2026-04-18T09:19:34.998Z</time></trkpt><trkpt lat="43.536668485071075" lon="10.811858642856414"><ele>174.75</ele><time>2026-04-18T09:19:35.998Z</time></trkpt><trkpt lat="43.53659761607976" lon="10.81171229482704"><ele>175.0</ele><time>2026-04-18T09:19:36.998Z</time></trkpt><trkpt lat="43.53654522918494" lon="10.8115520328384"><ele>173.5</ele><time>2026-04-18T09:19:37.998Z</time></trkpt><trkpt lat="43.53649435103269" lon="10.811365786949928"><ele>172.0</ele><time>2026-04-18T09:19:38.998Z</time></trkpt><trkpt lat="43.53645424362601" lon="10.81116654911154"><ele>170.5</ele><time>2026-04-18T09:19:39.998Z</time></trkpt><trkpt lat="43.536437521729184" lon="10.810961946855123"><ele>169.0</ele><time>2026-04-18T09:19:40.998Z</time></trkpt><trkpt lat="43.536446113179935" lon="10.810769665996368"><ele>168.5</ele><time>2026-04-18T09:19:41.998Z</time></trkpt><trkpt lat="43.53645063940765" lon="10.81056841650122"><ele>168.0</ele><time>2026-04-18T09:19:42.998Z</time></trkpt><trkpt lat="43.536449340212656" lon="10.810376722375686"><ele>167.5</ele><time>2026-04-18T09:19:43.998Z</time></trkpt><trkpt lat="43.53641438767643" lon="10.810194918895894"><ele>167.0</ele><time>2026-04-18T09:19:44.998Z</time></trkpt><trkpt lat="43.53635085285039" lon="10.810021581138306"><ele>166.5</ele><time>2026-04-18T09:19:45.998Z</time></trkpt><trkpt lat="43.53626342960031" lon="10.80986785703414"><ele>166.0</ele><time>2026-04-18T09:19:46.998Z</time></trkpt><trkpt lat="43.536175880621684" lon="10.809716144586735"><ele>165.5</ele><time>2026-04-18T09:19:47.998Z</time></trkpt><trkpt lat="43.536114064085794" lon="10.809517242024475"><ele>165.0</ele><time>2026-04-18T09:19:48.998Z</time></trkpt><trkpt lat="43.536063479300154" lon="10.80931322650128"><ele>164.75</ele><time>2026-04-18T09:19:49.998Z</time></trkpt><trkpt lat="43.53602651510717" lon="10.809113653386765"><ele>164.5</ele><time>2026-04-18T09:19:50.998Z</time></trkpt><trkpt lat="43.53600514125408" lon="10.808911314244204"><ele>164.25</ele><time>2026-04-18T09:19:51.998Z</time></trkpt><trkpt lat="43.53601566054256" lon="10.80870344304555"><ele>164.0</ele><time>2026-04-18T09:19:52.998Z</time></trkpt><trkpt lat="43.536044242832375" lon="10.808482412258916"><ele>163.0</ele><time>2026-04-18T09:19:53.998Z</time></trkpt><trkpt lat="43.53608020119698" lon="10.808273870508007"><ele>162.0</ele><time>2026-04-18T09:19:54.998Z</time></trkpt><trkpt lat="43.53611582428546" lon="10.808076476688317"><ele>161.0</ele><time>2026-04-18T09:19:55.998Z</time></trkpt><trkpt lat="43.53613686286242" lon="10.807865839461616"><ele>161.66666666666666</ele><time>2026-04-18T09:19:56.998Z</time></trkpt><trkpt lat="43.53613573130549" lon="10.807654531682662"><ele>162.33333333333334</ele><time>2026-04-18T09:19:57.998Z</time></trkpt><trkpt lat="43.536138120147896" lon="10.8074350096386"><ele>163.0</ele><time>2026-04-18T09:19:59.001Z</time></trkpt><trkpt lat="43.536133677739215" lon="10.807215403775505"><ele>163.0</ele><time>2026-04-18T09:20:00.001Z</time></trkpt><trkpt lat="43.5361032514307" lon="10.80701339990907"><ele>163.0</ele><time>2026-04-18T09:20:01.001Z</time></trkpt><trkpt lat="43.536078650544894" lon="10.806806031624607"><ele>163.0</ele><time>2026-04-18T09:20:02.001Z</time></trkpt><trkpt lat="43.53604462001802" lon="10.806606207052997"><ele>163.25</ele><time>2026-04-18T09:20:03.001Z</time></trkpt><trkpt lat="43.536021485965264" lon="10.806412585089733"><ele>163.5</ele><time>2026-04-18T09:20:04.001Z</time></trkpt><trkpt lat="43.53601117622436" lon="10.806224411363532"><ele>163.75</ele><time>2026-04-18T09:20:05.001Z</time></trkpt><trkpt lat="43.53603091560633" lon="10.806019222373893"><ele>164.0</ele><time>2026-04-18T09:20:06.001Z</time></trkpt><trkpt lat="43.53605928834857" lon="10.805814703936507"><ele>164.0</ele><time>2026-04-18T09:20:07.001Z</time></trkpt><trkpt lat="43.5361085320297" lon="10.805609682584931"><ele>164.0</ele><time>2026-04-18T09:20:08.001Z</time></trkpt><trkpt lat="43.53615622505875" lon="10.805417653183271"><ele>164.0</ele><time>2026-04-18T09:20:09.001Z</time></trkpt><trkpt lat="43.536224537569595" lon="10.805220846096804"><ele>164.0</ele><time>2026-04-18T09:20:10.001Z</time></trkpt><trkpt lat="43.53631049398662" lon="10.805020434791972"><ele>164.0</ele><time>2026-04-18T09:20:11.001Z</time></trkpt><trkpt lat="43.53639129553319" lon="10.804822789515187"><ele>164.0</ele><time>2026-04-18T09:20:12.001Z</time></trkpt><trkpt lat="43.53646405045272" lon="10.804618606353928"><ele>164.0</ele><time>2026-04-18T09:20:13Z</time></trkpt><trkpt lat="43.53652343623669" lon="10.804403694356608"><ele>164.0</ele><time>2026-04-18T09:20:14Z</time></trkpt><trkpt lat="43.53658546232016" lon="10.804189536730576"><ele>164.0</ele><time>2026-04-18T09:20:15Z</time></trkpt><trkpt lat="43.5366370948437" lon="10.80396691338234"><ele>162.0</ele><time>2026-04-18T09:20:16Z</time></trkpt><trkpt lat="43.536672340746534" lon="10.803738506520915"><ele>160.0</ele><time>2026-04-18T09:20:17Z</time></trkpt><trkpt lat="43.53669446897091" lon="10.803514206792045"><ele>158.0</ele><time>2026-04-18T09:20:18Z</time></trkpt><trkpt lat="43.53670964021565" lon="10.803284207369018"><ele>157.33333333333331</ele><time>2026-04-18T09:20:19Z</time></trkpt><trkpt lat="43.53672154251815" lon="10.803051190460849"><ele>156.66666666666666</ele><time>2026-04-18T09:20:20Z</time></trkpt><trkpt lat="43.53672053668977" lon="10.802824376161027"><ele>156.0</ele><time>2026-04-18T09:20:21Z</time></trkpt><trkpt lat="43.536723931360555" lon="10.802614074210451"><ele>157.33333333333334</ele><time>2026-04-18T09:20:22Z</time></trkpt><trkpt lat="43.536732522811306" lon="10.80240142532699"><ele>158.66666666666669</ele><time>2026-04-18T09:20:23Z</time></trkpt><trkpt lat="43.53675859053017" lon="10.802185256044195"><ele>160.0</ele><time>2026-04-18T09:20:24Z</time></trkpt><trkpt lat="43.53681101933451" lon="10.801967997113989"><ele>161.33333333333334</ele><time>2026-04-18T09:20:25Z</time></trkpt><trkpt lat="43.53689457782739" lon="10.801755968534186"><ele>162.66666666666666</ele><time>2026-04-18T09:20:26Z</time></trkpt><trkpt lat="43.536990702861544" lon="10.801558086752287"><ele>164.0</ele><time>2026-04-18T09:20:27Z</time></trkpt><trkpt lat="43.537105761070215" lon="10.80140494098113"><ele>164.0</ele><time>2026-04-18T09:20:28Z</time></trkpt><trkpt lat="43.53723156931151" lon="10.801286454512978"><ele>164.0</ele><time>2026-04-18T09:20:29Z</time></trkpt><trkpt lat="43.53736189459434" lon="10.801178086543583"><ele>164.0</ele><time>2026-04-18T09:20:30Z</time></trkpt><trkpt lat="43.53747910431928" lon="10.801070138231193"><ele>164.0</ele><time>2026-04-18T09:20:31Z</time></trkpt><trkpt lat="43.537586812366754" lon="10.800960217284334"><ele>163.0</ele><time>2026-04-18T09:20:32Z</time></trkpt><trkpt lat="43.53768451237779" lon="10.800847256186334"><ele>162.0</ele><time>2026-04-18T09:20:33Z</time></trkpt><trkpt lat="43.537770034113876" lon="10.800742709019481"><ele>161.0</ele><time>2026-04-18T09:20:34Z</time></trkpt><trkpt lat="43.53786073710307" lon="10.800624233758482"><ele>160.0</ele><time>2026-04-18T09:20:35Z</time></trkpt><trkpt lat="43.537954151783275" lon="10.80049966692279"><ele>160.0</ele><time>2026-04-18T09:20:36Z</time></trkpt><trkpt lat="43.5380474385891" lon="10.800333008810881"><ele>160.0</ele><time>2026-04-18T09:20:37Z</time></trkpt><trkpt lat="43.53812165253833" lon="10.800158860724533"><ele>160.0</ele><time>2026-04-18T09:20:38Z</time></trkpt><trkpt lat="43.538197344872245" lon="10.79995715665302"><ele>162.0</ele><time>2026-04-18T09:20:39Z</time></trkpt><trkpt lat="43.53827638819949" lon="10.799748893910195"><ele>164.0</ele><time>2026-04-18T09:20:40Z</time></trkpt><trkpt lat="43.538336441892696" lon="10.799542777250334"><ele>166.0</ele><time>2026-04-18T09:20:41Z</time></trkpt><trkpt lat="43.53841443550171" lon="10.799345048154517"><ele>164.66666666666669</ele><time>2026-04-18T09:20:42Z</time></trkpt><trkpt lat="43.538474240380836" lon="10.799145726497098"><ele>163.33333333333334</ele><time>2026-04-18T09:20:43Z</time></trkpt><trkpt lat="43.5385158984396" lon="10.798940286050364"><ele>162.0</ele><time>2026-04-18T09:20:44Z</time></trkpt><trkpt lat="43.538536266464305" lon="10.79872034491114"><ele>160.33333333333334</ele><time>2026-04-18T09:20:45Z</time></trkpt><trkpt lat="43.5385254118997" lon="10.798488920564575"><ele>158.66666666666669</ele><time>2026-04-18T09:20:46Z</time></trkpt><trkpt lat="43.538500350009215" lon="10.798234194527192"><ele>157.0</ele><time>2026-04-18T09:20:47Z</time></trkpt><trkpt lat="43.538469588424576" lon="10.79797510990016"><ele>157.0</ele><time>2026-04-18T09:20:48Z</time></trkpt><trkpt lat="43.53843962312074" lon="10.797724826271457"><ele>157.0</ele><time>2026-04-18T09:20:49Z</time></trkpt><trkpt lat="43.53840978354545" lon="10.79749675468616"><ele>157.0</ele><time>2026-04-18T09:20:50Z</time></trkpt><trkpt lat="43.53837998587967" lon="10.79728083686046"><ele>158.0</ele><time>2026-04-18T09:20:51Z</time></trkpt><trkpt lat="43.538338160182846" lon="10.797068690891189"><ele>159.0</ele><time>2026-04-18T09:20:52Z</time></trkpt><trkpt lat="43.53828694675447" lon="10.796870207424085"><ele>160.0</ele><time>2026-04-18T09:20:53Z</time></trkpt><trkpt lat="43.53822186127634" lon="10.796689325953643"><ele>162.0</ele><time>2026-04-18T09:20:54Z</time></trkpt><trkpt lat="43.53816670835347" lon="10.796523615727942"><ele>164.0</ele><time>2026-04-18T09:20:55Z</time></trkpt><trkpt lat="43.5381308338079" lon="10.796356983492892"><ele>166.0</ele><time>2026-04-18T09:20:56Z</time></trkpt><trkpt lat="43.538121362257314" lon="10.796201918284218"><ele>168.0</ele><time>2026-04-18T09:20:57Z</time></trkpt><trkpt lat="43.5381358629498" lon="10.796059006835144"><ele>169.4</ele><time>2026-04-18T09:20:58Z</time></trkpt><trkpt lat="43.53818162589295" lon="10.795927476898951"><ele>170.8</ele><time>2026-04-18T09:20:59Z</time></trkpt><trkpt lat="43.538232384965454" lon="10.79577766924428"><ele>172.2</ele><time>2026-04-18T09:21:00Z</time></trkpt><trkpt lat="43.53827579882325" lon="10.795646784837167"><ele>173.6</ele><time>2026-04-18T09:21:01Z</time></trkpt><trkpt lat="43.5383396270159" lon="10.795538742105286"><ele>175.0</ele><time>2026-04-18T09:21:02Z</time></trkpt><trkpt lat="43.53844889646901" lon="10.795490636795336"><ele>175.0</ele><time>2026-04-18T09:21:03Z</time></trkpt><trkpt lat="43.53854531891973" lon="10.795412762100618"><ele>175.0</ele><time>2026-04-18T09:21:04Z</time></trkpt><trkpt lat="43.53865378074677" lon="10.795340761552374"><ele>175.0</ele><time>2026-04-18T09:21:05Z</time></trkpt><trkpt lat="43.53875989564092" lon="10.795262558395784"><ele>175.0</ele><time>2026-04-18T09:21:06Z</time></trkpt><trkpt lat="43.53884631306262" lon="10.795145714665573"><ele>175.8</ele><time>2026-04-18T09:21:07Z</time></trkpt><trkpt lat="43.538905154022885" lon="10.795010430748382"><ele>176.6</ele><time>2026-04-18T09:21:08Z</time></trkpt><trkpt lat="43.53893863972606" lon="10.7948730513554"><ele>177.39999999999998</ele><time>2026-04-18T09:21:09Z</time></trkpt><trkpt lat="43.53897086814376" lon="10.794728212068597"><ele>178.2</ele><time>2026-04-18T09:21:10Z</time></trkpt><trkpt lat="43.53898834441187" lon="10.794596280912677"><ele>179.0</ele><time>2026-04-18T09:21:11Z</time></trkpt><trkpt lat="43.53900037244292" lon="10.794473234574118"><ele>179.0</ele><time>2026-04-18T09:21:12Z</time></trkpt><trkpt lat="43.5390204051915" lon="10.794353960091987"><ele>179.0</ele><time>2026-04-18T09:21:13Z</time></trkpt><trkpt lat="43.539045844267626" lon="10.794249773035565"><ele>179.0</ele><time>2026-04-18T09:21:14Z</time></trkpt><trkpt lat="43.53908079680385" lon="10.794148519645253"><ele>179.0</ele><time>2026-04-18T09:21:15Z</time></trkpt><trkpt lat="43.539137919473966" lon="10.79405992292873"><ele>179.0</ele><time>2026-04-18T09:21:16Z</time></trkpt><trkpt lat="43.5391932400349" lon="10.793981887410203"><ele>179.0</ele><time>2026-04-18T09:21:16.999Z</time></trkpt><trkpt lat="43.539258130498595" lon="10.793934708019961"><ele>179.16666666666666</ele><time>2026-04-18T09:21:17.999Z</time></trkpt><trkpt lat="43.53931762409326" lon="10.79386834190443"><ele>179.33333333333331</ele><time>2026-04-18T09:21:18.999Z</time></trkpt><trkpt lat="43.53936008181753" lon="10.793794468055287"><ele>179.5</ele><time>2026-04-18T09:21:19.999Z</time></trkpt><trkpt lat="43.53941952193286" lon="10.793755190476665"><ele>179.66666666666666</ele><time>2026-04-18T09:21:20.999Z</time></trkpt><trkpt lat="43.539504704165665" lon="10.793656266229197"><ele>179.83333333333334</ele><time>2026-04-18T09:21:22.999Z</time></trkpt><trkpt lat="43.53956549715607" lon="10.793527601227828"><ele>180.0</ele><time>2026-04-18T09:21:24.999Z</time></trkpt><trkpt lat="43.53958338893341" lon="10.793441223646129"><ele>180.2</ele><time>2026-04-18T09:21:25.999Z</time></trkpt><trkpt lat="43.53959804404857" lon="10.793298929939786"><ele>180.4</ele><time>2026-04-18T09:21:27.999Z</time></trkpt><trkpt lat="43.53961628751392" lon="10.793155016391628"><ele>180.60000000000002</ele><time>2026-04-18T09:21:29.999Z</time></trkpt><trkpt lat="43.53960694381574" lon="10.793003639071594"><ele>180.8</ele><time>2026-04-18T09:21:31.999Z</time></trkpt><trkpt lat="43.53957174928279" lon="10.7928841785117"><ele>181.0</ele><time>2026-04-18T09:21:33.999Z</time></trkpt><trkpt lat="43.539516782227125" lon="10.79274382187853"><ele>181.0</ele><time>2026-04-18T09:21:35.999Z</time></trkpt><trkpt lat="43.5394848078297" lon="10.79266540679721"><ele>181.0</ele><time>2026-04-18T09:21:36.999Z</time></trkpt><trkpt lat="43.53943493221285" lon="10.792502900595583"><ele>181.0</ele><time>2026-04-18T09:21:38.999Z</time></trkpt><trkpt lat="43.539395830634554" lon="10.792413214231647"><ele>181.0</ele><time>2026-04-18T09:21:39.999Z</time></trkpt><trkpt lat="43.53934365328731" lon="10.792325036610283"><ele>181.0</ele><time>2026-04-18T09:21:40.999Z</time></trkpt><trkpt lat="43.53929935492905" lon="10.792233254770554"><ele>181.0</ele><time>2026-04-18T09:21:41.999Z</time></trkpt><trkpt lat="43.539261049631556" lon="10.792134264494099"><ele>181.0</ele><time>2026-04-18T09:21:42.999Z</time></trkpt><trkpt lat="43.53922274433406" lon="10.792032424370564"><ele>181.0</ele><time>2026-04-18T09:21:43.999Z</time></trkpt><trkpt lat="43.53918389421286" lon="10.791929494599618"><ele>181.0</ele><time>2026-04-18T09:21:44.999Z</time></trkpt><trkpt lat="43.53914194278749" lon="10.79182011076323"><ele>181.0</ele><time>2026-04-18T09:21:45.999Z</time></trkpt><trkpt lat="43.539103930856605" lon="10.79172246159128"><ele>181.0</ele><time>2026-04-18T09:21:46.999Z</time></trkpt><trkpt lat="43.53904982567163" lon="10.791652472699798"><ele>181.0</ele><time>2026-04-18T09:21:47.999Z</time></trkpt><trkpt lat="43.539003767113705" lon="10.791567228744544"><ele>182.16666666666669</ele><time>2026-04-18T09:21:48.999Z</time></trkpt><trkpt lat="43.53895557117047" lon="10.791475111628689"><ele>183.33333333333334</ele><time>2026-04-18T09:21:49.999Z</time></trkpt><trkpt lat="43.53889874186696" lon="10.791384084160246"><ele>184.5</ele><time>2026-04-18T09:21:50.999Z</time></trkpt><trkpt lat="43.53884015236379" lon="10.791290290663756"><ele>185.66666666666666</ele><time>2026-04-18T09:21:51.999Z</time></trkpt><trkpt lat="43.53877582125695" lon="10.791204962889468"><ele>186.83333333333331</ele><time>2026-04-18T09:21:52.999Z</time></trkpt><trkpt lat="43.5387151781875" lon="10.791117539639389"><ele>188.0</ele><time>2026-04-18T09:21:53.999Z</time></trkpt><trkpt lat="43.538646237033916" lon="10.79103204422704"><ele>186.2</ele><time>2026-04-18T09:21:54.999Z</time></trkpt><trkpt lat="43.53858701888801" lon="10.790955517451083"><ele>184.4</ele><time>2026-04-18T09:21:55.999Z</time></trkpt><trkpt lat="43.53850952819319" lon="10.790841188291823"><ele>182.6</ele><time>2026-04-18T09:21:57.999Z</time></trkpt><trkpt lat="43.53841322012575" lon="10.790800619880473"><ele>180.79999999999998</ele><time>2026-04-18T09:21:59.999Z</time></trkpt><trkpt lat="43.538322779390526" lon="10.790796680385982"><ele>179.0</ele><time>2026-04-18T09:22:01.999Z</time></trkpt><trkpt lat="43.53824541442425" lon="10.790824340666449"><ele>179.00000000000003</ele><time>2026-04-18T09:22:03.999Z</time></trkpt><trkpt lat="43.53826109221819" lon="10.790910215778682"><ele>179.0</ele><time>2026-04-18T09:22:05.999Z</time></trkpt><trkpt lat="43.53828367781223" lon="10.79079701566211"><ele>179.0</ele><time>2026-04-18T09:24:39.998Z</time></trkpt><trkpt lat="43.53826779410572" lon="10.79069492408148"><ele>179.0</ele><time>2026-04-18T09:24:42.998Z</time></trkpt><trkpt lat="43.53819889486165" lon="10.790753848860776"><ele>179.0</ele><time>2026-04-18T09:27:36.997Z</time></trkpt><trkpt lat="43.538136114406896" lon="10.790694588805353"><ele>179.00000000000003</ele><time>2026-04-18T09:27:40.997Z</time></trkpt><trkpt lat="43.53807237003328" lon="10.79067438841871"><ele>179.0</ele><time>2026-04-18T09:27:42.997Z</time></trkpt><trkpt lat="43.537975265685034" lon="10.790651757280147"><ele>178.6</ele><time>2026-04-18T09:27:44.996Z</time></trkpt><trkpt lat="43.5378554463792" lon="10.790616385648763"><ele>178.2</ele><time>2026-04-18T09:27:46.996Z</time></trkpt><trkpt lat="43.537743464152825" lon="10.790606243545925"><ele>177.79999999999998</ele><time>2026-04-18T09:27:48.996Z</time></trkpt><trkpt lat="43.53763508614482" lon="10.790617307658112"><ele>177.39999999999998</ele><time>2026-04-18T09:27:50.996Z</time></trkpt><trkpt lat="43.53753559295417" lon="10.790647817785656"><ele>177.0</ele><time>2026-04-18T09:27:52.996Z</time></trkpt><trkpt lat="43.5374304838884" lon="10.790684362883484"><ele>177.0</ele><time>2026-04-18T09:27:54.996Z</time></trkpt><trkpt lat="43.537308024283064" lon="10.790729373703515"><ele>177.0</ele><time>2026-04-18T09:27:56.996Z</time></trkpt><trkpt lat="43.53722692936988" lon="10.790750747556602"><ele>177.0</ele><time>2026-04-18T09:27:57.996Z</time></trkpt><trkpt lat="43.5371474270183" lon="10.790780670950925"><ele>177.0</ele><time>2026-04-18T09:27:58.996Z</time></trkpt><trkpt lat="43.53707190607072" lon="10.790803050632393"><ele>177.0</ele><time>2026-04-18T09:27:59.996Z</time></trkpt><trkpt lat="43.53700015697957" lon="10.790809169421708"><ele>177.0</ele><time>2026-04-18T09:28:00.996Z</time></trkpt><trkpt lat="43.536925977136505" lon="10.790803721184647"><ele>177.33333333333334</ele><time>2026-04-18T09:28:01.996Z</time></trkpt><trkpt lat="43.53685066573651" lon="10.790798775861775"><ele>177.66666666666666</ele><time>2026-04-18T09:28:02.996Z</time></trkpt><trkpt lat="43.536770576651705" lon="10.790786370645082"><ele>178.0</ele><time>2026-04-18T09:28:03.996Z</time></trkpt><trkpt lat="43.53669404987575" lon="10.790777737284815"><ele>178.33333333333331</ele><time>2026-04-18T09:28:04.996Z</time></trkpt><trkpt lat="43.53660369295956" lon="10.790769271562612"><ele>178.66666666666666</ele><time>2026-04-18T09:28:05.996Z</time></trkpt><trkpt lat="43.536513587500465" lon="10.790764577696836"><ele>179.0</ele><time>2026-04-18T09:28:06.996Z</time></trkpt><trkpt lat="43.53643643208177" lon="10.79076918774358"><ele>179.00000000000003</ele><time>2026-04-18T09:28:07.996Z</time></trkpt><trkpt lat="43.53636380289079" lon="10.790790393958604"><ele>179.0</ele><time>2026-04-18T09:28:08.996Z</time></trkpt><trkpt lat="43.5362874437529" lon="10.790802296261107"><ele>179.0</ele><time>2026-04-18T09:28:09.996Z</time></trkpt><trkpt lat="43.53621921506108" lon="10.790811516354596"><ele>179.0</ele><time>2026-04-18T09:28:10.996Z</time></trkpt><trkpt lat="43.53615215983571" lon="10.790812773640072"><ele>179.0</ele><time>2026-04-18T09:28:11.996Z</time></trkpt><trkpt lat="43.536080368835044" lon="10.790812522182977"><ele>179.00000000000003</ele><time>2026-04-18T09:28:12.996Z</time></trkpt><trkpt lat="43.53600799110116" lon="10.790787711749589"><ele>179.0</ele><time>2026-04-18T09:28:13.996Z</time></trkpt><trkpt lat="43.53591834664674" lon="10.790733648474133"><ele>178.75</ele><time>2026-04-18T09:28:14.996Z</time></trkpt><trkpt lat="43.53581327949048" lon="10.79065829516462"><ele>178.5</ele><time>2026-04-18T09:28:15.996Z</time></trkpt><trkpt lat="43.53568009104909" lon="10.790560478354609"><ele>178.25</ele><time>2026-04-18T09:28:16.996Z</time></trkpt><trkpt lat="43.53553835306646" lon="10.790450256327903"><ele>178.0</ele><time>2026-04-18T09:28:17.996Z</time></trkpt><trkpt lat="43.53539326232256" lon="10.790327209989345"><ele>176.25</ele><time>2026-04-18T09:28:18.996Z</time></trkpt><trkpt lat="43.53525898423375" lon="10.790214054296529"><ele>174.5</ele><time>2026-04-18T09:28:19.996Z</time></trkpt><trkpt lat="43.535131453576994" lon="10.790107185031092"><ele>172.75</ele><time>2026-04-18T09:28:20.996Z</time></trkpt><trkpt lat="43.535019848536265" lon="10.790011631334936"><ele>171.0</ele><time>2026-04-18T09:28:21.996Z</time></trkpt><trkpt lat="43.5349144880134" lon="10.789934182549631"><ele>171.0</ele><time>2026-04-18T09:28:22.996Z</time></trkpt><trkpt lat="43.53480925321908" lon="10.789860673258817"><ele>171.0</ele><time>2026-04-18T09:28:23.996Z</time></trkpt><trkpt lat="43.53471860293628" lon="10.789772579456484"><ele>171.0</ele><time>2026-04-18T09:28:24.996Z</time></trkpt><trkpt lat="43.53462015748353" lon="10.789703931669509"><ele>171.0</ele><time>2026-04-18T09:28:25.996Z</time></trkpt><trkpt lat="43.534527537453485" lon="10.789634445692217"><ele>171.0</ele><time>2026-04-18T09:28:26.996Z</time></trkpt><trkpt lat="43.53443055883379" lon="10.789577700207746"><ele>170.75</ele><time>2026-04-18T09:28:27.996Z</time></trkpt><trkpt lat="43.53432930544348" lon="10.789520200351989"><ele>170.5</ele><time>2026-04-18T09:28:28.996Z</time></trkpt><trkpt lat="43.53422105316402" lon="10.789457336078202"><ele>170.25</ele><time>2026-04-18T09:28:29.996Z</time></trkpt><trkpt lat="43.534109699580384" lon="10.789387766281878"><ele>170.0</ele><time>2026-04-18T09:28:30.996Z</time></trkpt><trkpt lat="43.5339966277066" lon="10.789318364123616"><ele>170.0</ele><time>2026-04-18T09:28:31.996Z</time></trkpt><trkpt lat="43.53387777231963" lon="10.789249548698578"><ele>170.0</ele><time>2026-04-18T09:28:32.996Z</time></trkpt><trkpt lat="43.53376796938808" lon="10.78917687759808"><ele>170.0</ele><time>2026-04-18T09:28:33.996Z</time></trkpt><trkpt lat="43.53366080675603" lon="10.78911627643815"><ele>170.0</ele><time>2026-04-18T09:28:34.996Z</time></trkpt><trkpt lat="43.53355087809594" lon="10.789052909250174"><ele>168.4</ele><time>2026-04-18T09:28:35.996Z</time></trkpt><trkpt lat="43.53344773877741" lon="10.788994319747005"><ele>166.8</ele><time>2026-04-18T09:28:36.996Z</time></trkpt><trkpt lat="43.533348036039186" lon="10.78894184903315"><ele>165.2</ele><time>2026-04-18T09:28:37.996Z</time></trkpt><trkpt lat="43.53324267551632" lon="10.788890551785741"><ele>163.6</ele><time>2026-04-18T09:28:38.996Z</time></trkpt><trkpt lat="43.53313949428828" lon="10.788838332528982"><ele>162.0</ele><time>2026-04-18T09:28:39.996Z</time></trkpt><trkpt lat="43.53304130029262" lon="10.788785191262875"><ele>162.0</ele><time>2026-04-18T09:28:40.996Z</time></trkpt><trkpt lat="43.532938077155066" lon="10.788730457435165"><ele>162.0</ele><time>2026-04-18T09:28:41.996Z</time></trkpt><trkpt lat="43.53283451874138" lon="10.788671784112964"><ele>162.0</ele><time>2026-04-18T09:28:42.996Z</time></trkpt><trkpt lat="43.53272697892369" lon="10.78860908747724"><ele>162.0</ele><time>2026-04-18T09:28:43.996Z</time></trkpt><trkpt lat="43.532622414681626" lon="10.788547396669898"><ele>161.0</ele><time>2026-04-18T09:28:44.996Z</time></trkpt><trkpt lat="43.53252262812437" lon="10.78848838807157"><ele>160.0</ele><time>2026-04-18T09:28:45.996Z</time></trkpt><trkpt lat="43.532428373623205" lon="10.788433570424829"><ele>159.0</ele><time>2026-04-18T09:28:46.996Z</time></trkpt><trkpt lat="43.532336507964445" lon="10.788378668959055"><ele>158.0</ele><time>2026-04-18T09:28:47.996Z</time></trkpt><trkpt lat="43.532235841307354" lon="10.788309602076922"><ele>157.0</ele><time>2026-04-18T09:28:48.996Z</time></trkpt><trkpt lat="43.53213873695911" lon="10.788257131363068"><ele>154.79999999999998</ele><time>2026-04-18T09:28:49.996Z</time></trkpt><trkpt lat="43.53203941140653" lon="10.788196865479264"><ele>152.6</ele><time>2026-04-18T09:28:50.996Z</time></trkpt><trkpt lat="43.53194624655278" lon="10.78813064844421"><ele>150.39999999999998</ele><time>2026-04-18T09:28:51.996Z</time></trkpt><trkpt lat="43.53187013887198" lon="10.788048757250223"><ele>148.2</ele><time>2026-04-18T09:28:52.996Z</time></trkpt><trkpt lat="43.53179859932841" lon="10.787941385070596"><ele>146.0</ele><time>2026-04-18T09:28:53.996Z</time></trkpt><trkpt lat="43.53172337174745" lon="10.787835689271603"><ele>146.0</ele><time>2026-04-18T09:28:54.996Z</time></trkpt><trkpt lat="43.53165778335513" lon="10.78772563488296"><ele>146.0</ele><time>2026-04-18T09:28:55.996Z</time></trkpt><trkpt lat="43.53159584109069" lon="10.787621112550411"><ele>146.0</ele><time>2026-04-18T09:28:56.996Z</time></trkpt><trkpt lat="43.53152878586532" lon="10.787522457550082"><ele>146.0</ele><time>2026-04-18T09:28:57.996Z</time></trkpt><trkpt lat="43.5314703220907" lon="10.787417180846246"><ele>146.0</ele><time>2026-04-18T09:28:58.996Z</time></trkpt><trkpt lat="43.5314158816296" lon="10.787311485047253"><ele>145.0</ele><time>2026-04-18T09:28:59.996Z</time></trkpt><trkpt lat="43.53135452609838" lon="10.787203442315372"><ele>144.0</ele><time>2026-04-18T09:29:00.996Z</time></trkpt><trkpt lat="43.531294008757484" lon="10.787096908326061"><ele>143.0</ele><time>2026-04-18T09:29:01.996Z</time></trkpt><trkpt lat="43.531234329606896" lon="10.786996409307035"><ele>142.0</ele><time>2026-04-18T09:29:02.996Z</time></trkpt><trkpt lat="43.531169579404896" lon="10.786896077926071"><ele>141.0</ele><time>2026-04-18T09:29:03.996Z</time></trkpt><trkpt lat="43.531103613826936" lon="10.786788621927412"><ele>141.0</ele><time>2026-04-18T09:29:04.996Z</time></trkpt><trkpt lat="43.53104037236751" lon="10.786688290546449"><ele>141.0</ele><time>2026-04-18T09:29:05.996Z</time></trkpt><trkpt lat="43.530982411507075" lon="10.786598268906387"><ele>141.0</ele><time>2026-04-18T09:29:06.996Z</time></trkpt><trkpt lat="43.53092122361392" lon="10.786504559228929"><ele>141.0</ele><time>2026-04-18T09:29:07.996Z</time></trkpt><trkpt lat="43.53085571904064" lon="10.786413112665327"><ele>141.0</ele><time>2026-04-18T09:29:08.996Z</time></trkpt><trkpt lat="43.53079247758121" lon="10.786327952529104"><ele>141.0</ele><time>2026-04-18T09:29:09.996Z</time></trkpt><trkpt lat="43.53073698938221" lon="10.786247402439626"><ele>141.0</ele><time>2026-04-18T09:29:10.996Z</time></trkpt><trkpt lat="43.530692146200245" lon="10.786158889542135"><ele>141.0</ele><time>2026-04-18T09:29:11.996Z</time></trkpt><trkpt lat="43.53066884450943" lon="10.786068197349818"><ele>141.0</ele><time>2026-04-18T09:29:12.996Z</time></trkpt><trkpt lat="43.53066607848138" lon="10.785961830998572"><ele>141.0</ele><time>2026-04-18T09:29:13.996Z</time></trkpt><trkpt lat="43.53069491222829" lon="10.78582495451978"><ele>141.0</ele><time>2026-04-18T09:29:14.996Z</time></trkpt><trkpt lat="43.530742730985885" lon="10.785693107182892"><ele>140.6</ele><time>2026-04-18T09:29:15.996Z</time></trkpt><trkpt lat="43.530800105113094" lon="10.785564444969209"><ele>140.2</ele><time>2026-04-18T09:29:16.996Z</time></trkpt><trkpt lat="43.53085115090341" lon="10.785425389195591"><ele>139.8</ele><time>2026-04-18T09:29:17.996Z</time></trkpt><trkpt lat="43.53088652253479" lon="10.785292787487418"><ele>139.4</ele><time>2026-04-18T09:29:18.996Z</time></trkpt><trkpt lat="43.53089850865633" lon="10.78516638838759"><ele>139.0</ele><time>2026-04-18T09:29:19.996Z</time></trkpt><trkpt lat="43.53088828273446" lon="10.785033870498449"><ele>139.0</ele><time>2026-04-18T09:29:20.996Z</time></trkpt><trkpt lat="43.530856557230955" lon="10.784896323467404"><ele>139.0</ele><time>2026-04-18T09:29:21.996Z</time></trkpt><trkpt lat="43.53082294579924" lon="10.784759614626676"><ele>139.0</ele><time>2026-04-18T09:29:22.996Z</time></trkpt><trkpt lat="43.53078824472011" lon="10.784622151414663"><ele>139.0</ele><time>2026-04-18T09:29:23.996Z</time></trkpt><trkpt lat="43.53076435629607" lon="10.784501703466088"><ele>139.0</ele><time>2026-04-18T09:29:24.996Z</time></trkpt><trkpt lat="43.53074289862395" lon="10.784394247467429"><ele>137.2</ele><time>2026-04-18T09:29:25.996Z</time></trkpt><trkpt lat="43.53070476096452" lon="10.784305566931874"><ele>135.4</ele><time>2026-04-18T09:29:26.996Z</time></trkpt><trkpt lat="43.53067609485567" lon="10.784227950508505"><ele>133.6</ele><time>2026-04-18T09:29:27.996Z</time></trkpt><trkpt lat="43.53057643402696" lon="10.784150334085137"><ele>131.8</ele><time>2026-04-18T09:29:29.996Z</time></trkpt><trkpt lat="43.530464200343495" lon="10.78414413147679"><ele>130.0</ele><time>2026-04-18T09:29:31.996Z</time></trkpt><trkpt lat="43.530356450978225" lon="10.784220239157587"><ele>130.83333333333334</ele><time>2026-04-18T09:29:33.996Z</time></trkpt><trkpt lat="43.53026492059559" lon="10.784346805895478"><ele>131.66666666666669</ele><time>2026-04-18T09:29:35.996Z</time></trkpt><trkpt lat="43.5302168503809" lon="10.78441486694923"><ele>132.5</ele><time>2026-04-18T09:29:36.996Z</time></trkpt><trkpt lat="43.530166349414294" lon="10.784472282985956"><ele>133.33333333333334</ele><time>2026-04-18T09:29:37.996Z</time></trkpt><trkpt lat="43.53011408824802" lon="10.78452626244238"><ele>134.16666666666666</ele><time>2026-04-18T09:29:38.996Z</time></trkpt><trkpt lat="43.53005336135954" lon="10.784569345424682"><ele>135.0</ele><time>2026-04-18T09:29:39.996Z</time></trkpt><trkpt lat="43.52998450402499" lon="10.78461318277827"><ele>135.0</ele><time>2026-04-18T09:29:40.996Z</time></trkpt><trkpt lat="43.529913802671736" lon="10.78465375118962"><ele>135.0</ele><time>2026-04-18T09:29:41.996Z</time></trkpt><trkpt lat="43.52984402332783" lon="10.784682501117498"><ele>135.0</ele><time>2026-04-18T09:29:42.996Z</time></trkpt><trkpt lat="43.52976049766273" lon="10.784701611856729"><ele>135.0</ele><time>2026-04-18T09:29:43.996Z</time></trkpt><trkpt lat="43.52967345159829" lon="10.784711167226344"><ele>135.0</ele><time>2026-04-18T09:29:44.996Z</time></trkpt><trkpt lat="43.52958472915322" lon="10.78471141868344"><ele>135.0</ele><time>2026-04-18T09:29:45.996Z</time></trkpt><trkpt lat="43.529494539875095" lon="10.784712759787947"><ele>131.33333333333334</ele><time>2026-04-18T09:29:46.996Z</time></trkpt><trkpt lat="43.52940078828812" lon="10.784709909940869"><ele>127.66666666666666</ele><time>2026-04-18T09:29:47.996Z</time></trkpt><trkpt lat="43.52931671779931" lon="10.784704796979934"><ele>124.0</ele><time>2026-04-18T09:29:48.996Z</time></trkpt><trkpt lat="43.52923319213421" lon="10.784691218296796"><ele>120.33333333333333</ele><time>2026-04-18T09:29:49.996Z</time></trkpt><trkpt lat="43.529152055311506" lon="10.784675879413992"><ele>116.66666666666666</ele><time>2026-04-18T09:29:50.996Z</time></trkpt><trkpt lat="43.529065051156586" lon="10.78465668485573"><ele>113.0</ele><time>2026-04-18T09:29:51.996Z</time></trkpt><trkpt lat="43.528988482471114" lon="10.784639166678101"><ele>113.0</ele><time>2026-04-18T09:29:52.995Z</time></trkpt><trkpt lat="43.528917655389314" lon="10.784625671813995"><ele>113.0</ele><time>2026-04-18T09:29:53.995Z</time></trkpt><trkpt lat="43.528843685093825" lon="10.784604968513161"><ele>113.0</ele><time>2026-04-18T09:29:54.995Z</time></trkpt><trkpt lat="43.528773067559605" lon="10.784595832238704"><ele>113.0</ele><time>2026-04-18T09:29:55.995Z</time></trkpt><trkpt lat="43.52870525796295" lon="10.784587450335533"><ele>113.0</ele><time>2026-04-18T09:29:56.995Z</time></trkpt><trkpt lat="43.52863581389517" lon="10.784577224413663"><ele>113.0</ele><time>2026-04-18T09:29:57.995Z</time></trkpt><trkpt lat="43.52856360379935" lon="10.784580828632027"><ele>113.0</ele><time>2026-04-18T09:29:58.995Z</time></trkpt><trkpt lat="43.52848829239935" lon="10.784596502790958"><ele>110.99999999999999</ele><time>2026-04-18T09:29:59.995Z</time></trkpt><trkpt lat="43.52841381918967" lon="10.784610165293127"><ele>109.0</ele><time>2026-04-18T09:30:00.995Z</time></trkpt><trkpt lat="43.52833502929986" lon="10.784625001261741"><ele>107.0</ele><time>2026-04-18T09:30:01.995Z</time></trkpt><trkpt lat="43.528249911073154" lon="10.784646542752892"><ele>105.0</ele><time>2026-04-18T09:30:02.995Z</time></trkpt><trkpt lat="43.528167349326914" lon="10.784660540531188"><ele>102.99999999999999</ele><time>2026-04-18T09:30:03.995Z</time></trkpt><trkpt lat="43.528079926076835" lon="10.784663641835362"><ele>101.0</ele><time>2026-04-18T09:30:04.995Z</time></trkpt><trkpt lat="43.52798982061774" lon="10.784656852493793"><ele>101.0</ele><time>2026-04-18T09:30:05.995Z</time></trkpt><trkpt lat="43.52789757777334" lon="10.784639334316164"><ele>101.0</ele><time>2026-04-18T09:30:06.995Z</time></trkpt><trkpt lat="43.52780420337201" lon="10.784626510004312"><ele>101.0</ele><time>2026-04-18T09:30:07.995Z</time></trkpt><trkpt lat="43.52770776957602" lon="10.784606477255732"><ele>101.0</ele><time>2026-04-18T09:30:08.995Z</time></trkpt><trkpt lat="43.52761074904681" lon="10.78458979726842"><ele>101.0</ele><time>2026-04-18T09:30:09.995Z</time></trkpt><trkpt lat="43.52751582399339" lon="10.784550821418673"><ele>99.4</ele><time>2026-04-18T09:30:10.995Z</time></trkpt><trkpt lat="43.527426347177034" lon="10.784493740658075"><ele>97.8</ele><time>2026-04-18T09:30:11.995Z</time></trkpt><trkpt lat="43.52735162251026" lon="10.784420063729197"><ele>96.2</ele><time>2026-04-18T09:30:12.995Z</time></trkpt><trkpt lat="43.52728431582779" lon="10.784330880279452"><ele>94.60000000000001</ele><time>2026-04-18T09:30:13.995Z</time></trkpt><trkpt lat="43.52721646432162" lon="10.78423063271752"><ele>93.0</ele><time>2026-04-18T09:30:14.995Z</time></trkpt><trkpt lat="43.527162359136646" lon="10.784119656319529"><ele>93.0</ele><time>2026-04-18T09:30:15.995Z</time></trkpt><trkpt lat="43.527100752148336" lon="10.783999459828049"><ele>93.0</ele><time>2026-04-18T09:30:16.995Z</time></trkpt><trkpt lat="43.527030050795084" lon="10.783882532278806"><ele>93.0</ele><time>2026-04-18T09:30:17.995Z</time></trkpt><trkpt lat="43.52695838552297" lon="10.783759821216375"><ele>93.0</ele><time>2026-04-18T09:30:18.995Z</time></trkpt><trkpt lat="43.52688533723683" lon="10.783646916980654"><ele>93.0</ele><time>2026-04-18T09:30:19.995Z</time></trkpt><trkpt lat="43.52681652181179" lon="10.783531749631075"><ele>91.80000000000001</ele><time>2026-04-18T09:30:20.995Z</time></trkpt><trkpt lat="43.526752609800106" lon="10.783428316945939"><ele>90.6</ele><time>2026-04-18T09:30:21.995Z</time></trkpt><trkpt lat="43.52668924261213" lon="10.783317256728916"><ele>89.4</ele><time>2026-04-18T09:30:22.995Z</time></trkpt><trkpt lat="43.52663031783283" lon="10.7831972278755"><ele>88.19999999999999</ele><time>2026-04-18T09:30:23.995Z</time></trkpt><trkpt lat="43.52658551656038" lon="10.78307904304078"><ele>87.0</ele><time>2026-04-18T09:30:24.995Z</time></trkpt><trkpt lat="43.52654825900078" lon="10.782951721931605"><ele>87.0</ele><time>2026-04-18T09:30:25.995Z</time></trkpt><trkpt lat="43.52650714576573" lon="10.782815096909909"><ele>87.0</ele><time>2026-04-18T09:30:26.995Z</time></trkpt><trkpt lat="43.52646351795972" lon="10.78269691207519"><ele>87.0</ele><time>2026-04-18T09:30:27.995Z</time></trkpt><trkpt lat="43.526419764425164" lon="10.782560370872526"><ele>87.0</ele><time>2026-04-18T09:30:28.995Z</time></trkpt><trkpt lat="43.526373622048204" lon="10.782417124147324"><ele>87.0</ele><time>2026-04-18T09:30:29.995Z</time></trkpt><trkpt lat="43.52632915605188" lon="10.782271949584393"><ele>84.0</ele><time>2026-04-18T09:30:30.995Z</time></trkpt><trkpt lat="43.52627697870464" lon="10.782108837748675"><ele>81.0</ele><time>2026-04-18T09:30:31.995Z</time></trkpt><trkpt lat="43.52622915994704" lon="10.781933739791421"><ele>78.0</ele><time>2026-04-18T09:30:32.995Z</time></trkpt><trkpt lat="43.52617941335172" lon="10.781771214688925"><ele>75.0</ele><time>2026-04-18T09:30:33.995Z</time></trkpt><trkpt lat="43.52613553408862" lon="10.781625201935675"><ele>74.0</ele><time>2026-04-18T09:30:34.995Z</time></trkpt><trkpt lat="43.52610100064755" lon="10.781503412882593"><ele>73.0</ele><time>2026-04-18T09:30:35.995Z</time></trkpt><trkpt lat="43.52607753131867" lon="10.78140408733001"><ele>72.0</ele><time>2026-04-18T09:30:36.995Z</time></trkpt><trkpt lat="43.52605783384622" lon="10.781321357945707"><ele>71.0</ele><time>2026-04-18T09:30:37.995Z</time></trkpt><trkpt lat="43.5260250186953" lon="10.781235946352389"><ele>70.0</ele><time>2026-04-18T09:30:39.995Z</time></trkpt><trkpt lat="43.52594715081484" lon="10.7812008261781"><ele>69.0</ele><time>2026-04-18T09:30:43.995Z</time></trkpt><trkpt lat="43.525855913798814" lon="10.781269390146043"><ele>69.0</ele><time>2026-04-18T09:30:45.995Z</time></trkpt><trkpt lat="43.52580210198045" lon="10.781316831717994"><ele>69.0</ele><time>2026-04-18T09:30:46.995Z</time></trkpt><trkpt lat="43.52574854161919" lon="10.781374415392783"><ele>69.0</ele><time>2026-04-18T09:30:47.995Z</time></trkpt><trkpt lat="43.525689784477954" lon="10.781433675448206"><ele>69.0</ele><time>2026-04-18T09:30:48.995Z</time></trkpt><trkpt lat="43.525628261308675" lon="10.781492767865565"><ele>69.0</ele><time>2026-04-18T09:30:49.995Z</time></trkpt><trkpt lat="43.52555324327529" lon="10.781568121175077"><ele>69.0</ele><time>2026-04-18T09:30:50.995Z</time></trkpt><trkpt lat="43.52546653248698" lon="10.781654119501617"><ele>69.5</ele><time>2026-04-18T09:30:51.995Z</time></trkpt><trkpt lat="43.525365404825216" lon="10.781757049272565"><ele>70.0</ele><time>2026-04-18T09:30:52.995Z</time></trkpt><trkpt lat="43.525245124514704" lon="10.781877329583077"><ele>70.5</ele><time>2026-04-18T09:30:53.995Z</time></trkpt><trkpt lat="43.52512103043825" lon="10.78199861572197"><ele>71.0</ele><time>2026-04-18T09:30:54.995Z</time></trkpt><trkpt lat="43.52500368379385" lon="10.7821110170435"><ele>71.0</ele><time>2026-04-18T09:30:55.995Z</time></trkpt><trkpt lat="43.524889899458294" lon="10.782235991219787"><ele>71.0</ele><time>2026-04-18T09:30:56.995Z</time></trkpt><trkpt lat="43.52478110235513" lon="10.782378232116608"><ele>71.0</ele><time>2026-04-18T09:30:57.995Z</time></trkpt><trkpt lat="43.5246694973144" lon="10.782558694491891"><ele>72.33333333333334</ele><time>2026-04-18T09:30:58.995Z</time></trkpt><trkpt lat="43.52456392724395" lon="10.782770002270846"><ele>73.66666666666667</ele><time>2026-04-18T09:30:59.995Z</time></trkpt><trkpt lat="43.52446246430606" lon="10.782992960895209"><ele>75.0</ele><time>2026-04-18T09:31:00.995Z</time></trkpt><trkpt lat="43.524359534535115" lon="10.783204268674163"><ele>71.66666666666667</ele><time>2026-04-18T09:31:01.995Z</time></trkpt><trkpt lat="43.524270812090045" lon="10.783402919779329"><ele>68.33333333333334</ele><time>2026-04-18T09:31:02.995Z</time></trkpt><trkpt lat="43.52418573577285" lon="10.783596625561623"><ele>65.0</ele><time>2026-04-18T09:31:03.995Z</time></trkpt><trkpt lat="43.52409156509072" lon="10.783788068230063"><ele>65.0</ele><time>2026-04-18T09:31:04.995Z</time></trkpt><trkpt lat="43.52400133390308" lon="10.783971967185646"><ele>65.0</ele><time>2026-04-18T09:31:05.995Z</time></trkpt><trkpt lat="43.52390997115851" lon="10.784139940525204"><ele>65.0</ele><time>2026-04-18T09:31:06.995Z</time></trkpt><trkpt lat="43.523800252045994" lon="10.784289306039721"><ele>66.33333333333334</ele><time>2026-04-18T09:31:07.995Z</time></trkpt><trkpt lat="43.52366651878089" lon="10.784416627148897"><ele>67.66666666666667</ele><time>2026-04-18T09:31:08.995Z</time></trkpt><trkpt lat="43.52352846883565" lon="10.784517712901145"><ele>69.0</ele><time>2026-04-18T09:31:09.995Z</time></trkpt><trkpt lat="43.523391843813954" lon="10.784604381779939"><ele>69.0</ele><time>2026-04-18T09:31:10.995Z</time></trkpt><trkpt lat="43.523262343409954" lon="10.784686608250052"><ele>69.0</ele><time>2026-04-18T09:31:11.995Z</time></trkpt><trkpt lat="43.52313741114318" lon="10.784759530807644"><ele>69.0</ele><time>2026-04-18T09:31:12.995Z</time></trkpt><trkpt lat="43.523014741990266" lon="10.784835219393283"><ele>69.0</ele><time>2026-04-18T09:31:13.995Z</time></trkpt><trkpt lat="43.52289676670313" lon="10.784911829988271"><ele>68.60000000000001</ele><time>2026-04-18T09:31:14.995Z</time></trkpt><trkpt lat="43.52277606729746" lon="10.784983243803293"><ele>68.2</ele><time>2026-04-18T09:31:15.995Z</time></trkpt><trkpt lat="43.52266819220364" lon="10.785046778629333"><ele>67.80000000000001</ele><time>2026-04-18T09:31:16.995Z</time></trkpt><trkpt lat="43.52256798655122" lon="10.785102769742519"><ele>67.4</ele><time>2026-04-18T09:31:17.995Z</time></trkpt><trkpt lat="43.52248919666141" lon="10.785146188000947"><ele>67.0</ele><time>2026-04-18T09:31:18.995Z</time></trkpt><trkpt lat="43.52241472345173" lon="10.78517904506138"><ele>67.33333333333333</ele><time>2026-04-18T09:31:19.995Z</time></trkpt><trkpt lat="43.52233555637628" lon="10.785235539088756"><ele>67.66666666666666</ele><time>2026-04-18T09:31:21.995Z</time></trkpt><trkpt lat="43.52229750253588" lon="10.785316508273393"><ele>68.0</ele><time>2026-04-18T09:31:26Z</time></trkpt><trkpt lat="43.52235973816693" lon="10.785377779985577"><ele>68.33333333333333</ele><time>2026-04-18T09:31:30Z</time></trkpt><trkpt lat="43.52242939178228" lon="10.785427819947511"><ele>68.66666666666667</ele><time>2026-04-18T09:31:33Z</time></trkpt><trkpt lat="43.52250155996859" lon="10.785498479391247"><ele>69.0</ele><time>2026-04-18T09:31:36Z</time></trkpt><trkpt lat="43.52255625188678" lon="10.785617167140158"><ele>69.0</ele><time>2026-04-18T09:31:39Z</time></trkpt><trkpt lat="43.52257527880698" lon="10.785728478814276"><ele>69.0</ele><time>2026-04-18T09:31:42Z</time></trkpt><trkpt lat="43.522571423131524" lon="10.785847669477375"><ele>69.0</ele><time>2026-04-18T09:31:45Z</time></trkpt><trkpt lat="43.52256895047009" lon="10.785944312820943"><ele>69.0</ele><time>2026-04-18T09:31:47Z</time></trkpt><trkpt lat="43.5225700401175" lon="10.786051601181539"><ele>69.0</ele><time>2026-04-18T09:31:49Z</time></trkpt><trkpt lat="43.52257092021733" lon="10.786202810714753"><ele>69.0</ele><time>2026-04-18T09:31:51Z</time></trkpt><trkpt lat="43.5225716326791" lon="10.78628964723161"><ele>69.16666666666667</ele><time>2026-04-18T09:31:52Z</time></trkpt><trkpt lat="43.52257766764939" lon="10.78644697555414"><ele>69.33333333333333</ele><time>2026-04-18T09:31:54Z</time></trkpt><trkpt lat="43.52259179115623" lon="10.786619307483347"><ele>69.5</ele><time>2026-04-18T09:31:56Z</time></trkpt><trkpt lat="43.52260507647276" lon="10.78671083786598"><ele>69.66666666666666</ele><time>2026-04-18T09:31:57Z</time></trkpt><trkpt lat="43.522615931037365" lon="10.786804799000533"><ele>69.83333333333333</ele><time>2026-04-18T09:31:58Z</time></trkpt><trkpt lat="43.5226331977579" lon="10.786894317726405"><ele>70.0</ele><time>2026-04-18T09:31:59Z</time></trkpt><trkpt lat="43.522652559954224" lon="10.786997834230574"><ele>70.33333333333333</ele><time>2026-04-18T09:32:00Z</time></trkpt><trkpt lat="43.522671461145876" lon="10.787108642990502"><ele>70.66666666666666</ele><time>2026-04-18T09:32:01Z</time></trkpt><trkpt lat="43.52269643921733" lon="10.787225402901681"><ele>71.0</ele><time>2026-04-18T09:32:02Z</time></trkpt><trkpt lat="43.5227116942811" lon="10.787337301309021"><ele>71.33333333333333</ele><time>2026-04-18T09:32:03Z</time></trkpt><trkpt lat="43.52272900291115" lon="10.787459258000169"><ele>71.66666666666667</ele><time>2026-04-18T09:32:04Z</time></trkpt><trkpt lat="43.522740360389946" lon="10.787584064538393"><ele>72.0</ele><time>2026-04-18T09:32:05Z</time></trkpt><trkpt lat="43.522752304601966" lon="10.787711637104664"><ele>72.4</ele><time>2026-04-18T09:32:06Z</time></trkpt><trkpt lat="43.52277216971248" lon="10.787845663736377"><ele>72.80000000000001</ele><time>2026-04-18T09:32:07Z</time></trkpt><trkpt lat="43.52278901733786" lon="10.787979271272931"><ele>73.2</ele><time>2026-04-18T09:32:08Z</time></trkpt><trkpt lat="43.52280959491014" lon="10.788124445835862"><ele>73.60000000000001</ele><time>2026-04-18T09:32:09Z</time></trkpt><trkpt lat="43.52282883137792" lon="10.788265261809144"><ele>74.0</ele><time>2026-04-18T09:32:10Z</time></trkpt><trkpt lat="43.52284697819829" lon="10.788394678394113"><ele>75.0</ele><time>2026-04-18T09:32:11Z</time></trkpt><trkpt lat="43.522868058684764" lon="10.78852350824586"><ele>76.0</ele><time>2026-04-18T09:32:12Z</time></trkpt><trkpt lat="43.522878577973245" lon="10.788650494078908"><ele>77.0</ele><time>2026-04-18T09:32:13Z</time></trkpt><trkpt lat="43.522899323183594" lon="10.788763314495597"><ele>78.0</ele><time>2026-04-18T09:32:14Z</time></trkpt><trkpt lat="43.52291629653752" lon="10.788878733302269"><ele>79.0</ele><time>2026-04-18T09:32:15Z</time></trkpt><trkpt lat="43.52293146778226" lon="10.788993062461529"><ele>80.0</ele><time>2026-04-18T09:32:16Z</time></trkpt><trkpt lat="43.52294244807541" lon="10.789107391620789"><ele>80.66666666666667</ele><time>2026-04-18T09:32:17Z</time></trkpt><trkpt lat="43.52295560766339" lon="10.78922473826519"><ele>81.33333333333334</ele><time>2026-04-18T09:32:18Z</time></trkpt><trkpt lat="43.52297966372549" lon="10.78934049234799"><ele>82.0</ele><time>2026-04-18T09:32:19Z</time></trkpt><trkpt lat="43.52299910974085" lon="10.789458593363678"><ele>82.66666666666667</ele><time>2026-04-18T09:32:20Z</time></trkpt><trkpt lat="43.523020651232" lon="10.789565462629115"><ele>83.33333333333333</ele><time>2026-04-18T09:32:21Z</time></trkpt><trkpt lat="43.52304659322232" lon="10.789664033810412"><ele>84.0</ele><time>2026-04-18T09:32:22Z</time></trkpt><trkpt lat="43.523067254613636" lon="10.789766125391042"><ele>85.2</ele><time>2026-04-18T09:32:23Z</time></trkpt><trkpt lat="43.523089634295104" lon="10.789856314669168"><ele>86.4</ele><time>2026-04-18T09:32:24Z</time></trkpt><trkpt lat="43.52312073115587" lon="10.79001624138168"><ele>87.6</ele><time>2026-04-18T09:32:26Z</time></trkpt><trkpt lat="43.523143236565886" lon="10.790216149772322"><ele>88.8</ele><time>2026-04-18T09:32:28Z</time></trkpt><trkpt lat="43.52316314358592" lon="10.79034699128083"><ele>90.0</ele><time>2026-04-18T09:32:29Z</time></trkpt><trkpt lat="43.523183218244014" lon="10.790460649887835"><ele>90.5</ele><time>2026-04-18T09:32:30Z</time></trkpt><trkpt lat="43.52320023350745" lon="10.790567686791336"><ele>91.0</ele><time>2026-04-18T09:32:31Z</time></trkpt><trkpt lat="43.523208699229656" lon="10.790668856362617"><ele>91.5</ele><time>2026-04-18T09:32:32Z</time></trkpt><trkpt lat="43.52322424766004" lon="10.790767176086819"><ele>92.0</ele><time>2026-04-18T09:32:33Z</time></trkpt><trkpt lat="43.52324335839927" lon="10.790872536609685"><ele>92.5</ele><time>2026-04-18T09:32:34Z</time></trkpt><trkpt lat="43.523266366723476" lon="10.790971694524204"><ele>93.0</ele><time>2026-04-18T09:32:35Z</time></trkpt><trkpt lat="43.5233021155405" lon="10.79106825404874"><ele>93.0</ele><time>2026-04-18T09:32:36Z</time></trkpt><trkpt lat="43.523350562940834" lon="10.791157269860422"><ele>93.0</ele><time>2026-04-18T09:32:37Z</time></trkpt><trkpt lat="43.52340450048774" lon="10.791236395026361"><ele>93.0</ele><time>2026-04-18T09:32:38Z</time></trkpt><trkpt lat="43.52345600728273" lon="10.791308395574607"><ele>93.0</ele><time>2026-04-18T09:32:39Z</time></trkpt><trkpt lat="43.523505460511444" lon="10.791388610387958"><ele>93.0</ele><time>2026-04-18T09:32:40Z</time></trkpt><trkpt lat="43.52354992650777" lon="10.791468741382278"><ele>93.0</ele><time>2026-04-18T09:32:40.999Z</time></trkpt><trkpt lat="43.52360336114049" lon="10.791559014479436"><ele>93.0</ele><time>2026-04-18T09:32:41.999Z</time></trkpt><trkpt lat="43.52364996452212" lon="10.791657585660733"><ele>93.0</ele><time>2026-04-18T09:32:42.999Z</time></trkpt><trkpt lat="43.52368060037822" lon="10.791751965890445"><ele>93.0</ele><time>2026-04-18T09:32:43.999Z</time></trkpt><trkpt lat="43.523700884583896" lon="10.791849363605298"><ele>93.0</ele><time>2026-04-18T09:32:44.999Z</time></trkpt><trkpt lat="43.523695017251676" lon="10.791952125738181"><ele>93.0</ele><time>2026-04-18T09:32:45.999Z</time></trkpt><trkpt lat="43.523692502680724" lon="10.7920478470724"><ele>93.0</ele><time>2026-04-18T09:32:46.999Z</time></trkpt><trkpt lat="43.5236824024874" lon="10.792153710509456"><ele>93.0</ele><time>2026-04-18T09:32:47.999Z</time></trkpt><trkpt lat="43.523675696964865" lon="10.792264686907448"><ele>93.0</ele><time>2026-04-18T09:32:48.999Z</time></trkpt><trkpt lat="43.52365126371711" lon="10.792363090450682"><ele>93.0</ele><time>2026-04-18T09:32:49.999Z</time></trkpt><trkpt lat="43.52362414826035" lon="10.792470797906436"><ele>93.0</ele><time>2026-04-18T09:32:50.999Z</time></trkpt><trkpt lat="43.523590033914445" lon="10.792579762647666"><ele>93.0</ele><time>2026-04-18T09:32:51.999Z</time></trkpt><trkpt lat="43.523555123287736" lon="10.79269627110175"><ele>93.0</ele><time>2026-04-18T09:32:52.999Z</time></trkpt><trkpt lat="43.52352880411178" lon="10.79282820225767"><ele>93.60000000000001</ele><time>2026-04-18T09:32:53.999Z</time></trkpt><trkpt lat="43.523515560704766" lon="10.792956361557163"><ele>94.2</ele><time>2026-04-18T09:32:54.999Z</time></trkpt><trkpt lat="43.52350328121662" lon="10.793089969093717"><ele>94.8</ele><time>2026-04-18T09:32:55.999Z</time></trkpt><trkpt lat="43.523495444137154" lon="10.79322441482059"><ele>95.4</ele><time>2026-04-18T09:32:56.999Z</time></trkpt><trkpt lat="43.52349590514183" lon="10.793357351804891"><ele>96.0</ele><time>2026-04-18T09:32:57.999Z</time></trkpt><trkpt lat="43.523502820211945" lon="10.793477296839276"><ele>96.0</ele><time>2026-04-18T09:32:58.999Z</time></trkpt><trkpt lat="43.52351224985301" lon="10.793596906597534"><ele>96.0</ele><time>2026-04-18T09:32:59.999Z</time></trkpt><trkpt lat="43.52351623125702" lon="10.793710146109381"><ele>96.0</ele><time>2026-04-18T09:33:00.999Z</time></trkpt><trkpt lat="43.52351551879525" lon="10.793826738382498"><ele>96.0</ele><time>2026-04-18T09:33:01.999Z</time></trkpt><trkpt lat="43.523520925122796" lon="10.79394165427498"><ele>96.0</ele><time>2026-04-18T09:33:02.999Z</time></trkpt><trkpt lat="43.523516189347504" lon="10.794065957899013"><ele>96.0</ele><time>2026-04-18T09:33:03.999Z</time></trkpt><trkpt lat="43.523508687544165" lon="10.794189171875635"><ele>96.0</ele><time>2026-04-18T09:33:04.999Z</time></trkpt><trkpt lat="43.523500179912446" lon="10.794323114688316"><ele>96.0</ele><time>2026-04-18T09:33:05.999Z</time></trkpt><trkpt lat="43.52349112745702" lon="10.794459991167107"><ele>96.0</ele><time>2026-04-18T09:33:06.999Z</time></trkpt><trkpt lat="43.52348295510143" lon="10.794593347246566"><ele>96.0</ele><time>2026-04-18T09:33:07.999Z</time></trkpt><trkpt lat="43.52346996315151" lon="10.794712789366761"><ele>96.0</ele><time>2026-04-18T09:33:08.999Z</time></trkpt><trkpt lat="43.523457306477724" lon="10.794821586469928"><ele>96.0</ele><time>2026-04-18T09:33:09.999Z</time></trkpt><trkpt lat="43.5234559234637" lon="10.79492191785089"><ele>96.0</ele><time>2026-04-18T09:33:10.999Z</time></trkpt><trkpt lat="43.5234585637632" lon="10.795025685812154"><ele>96.0</ele><time>2026-04-18T09:33:11.999Z</time></trkpt><trkpt lat="43.52346707139492" lon="10.795122832069914"><ele>96.0</ele><time>2026-04-18T09:33:12.999Z</time></trkpt><trkpt lat="43.52348756514817" lon="10.795245375494282"><ele>96.0</ele><time>2026-04-18T09:33:13.999Z</time></trkpt><trkpt lat="43.523522350046335" lon="10.795395830656211"><ele>96.0</ele><time>2026-04-18T09:33:14.999Z</time></trkpt><trkpt lat="43.52355923042029" lon="10.795550895864885"><ele>95.75</ele><time>2026-04-18T09:33:15.999Z</time></trkpt><trkpt lat="43.52360306777388" lon="10.79570453615002"><ele>95.5</ele><time>2026-04-18T09:33:16.999Z</time></trkpt><trkpt lat="43.52365277245969" lon="10.795868569995086"><ele>95.25</ele><time>2026-04-18T09:33:17.999Z</time></trkpt><trkpt lat="43.52371144578189" lon="10.796041069562357"><ele>95.0</ele><time>2026-04-18T09:33:18.999Z</time></trkpt><trkpt lat="43.523774435784226" lon="10.796200241903584"><ele>95.0</ele><time>2026-04-18T09:33:19.999Z</time></trkpt><trkpt lat="43.52382971443564" lon="10.796348769227784"><ele>95.0</ele><time>2026-04-18T09:33:20.999Z</time></trkpt><trkpt lat="43.523877533193236" lon="10.796504253531616"><ele>95.0</ele><time>2026-04-18T09:33:21.999Z</time></trkpt><trkpt lat="43.52391621567637" lon="10.796672897423427"><ele>95.0</ele><time>2026-04-18T09:33:22.999Z</time></trkpt><trkpt lat="43.523946935351496" lon="10.796830477203052"><ele>94.75</ele><time>2026-04-18T09:33:23.999Z</time></trkpt><trkpt lat="43.523974763270026" lon="10.796993924314899"><ele>94.5</ele><time>2026-04-18T09:33:24.999Z</time></trkpt><trkpt lat="43.52399383209974" lon="10.79716399313025"><ele>94.25</ele><time>2026-04-18T09:33:25.999Z</time></trkpt><trkpt lat="43.52401155982495" lon="10.797342611486835"><ele>94.0</ele><time>2026-04-18T09:33:26.999Z</time></trkpt><trkpt lat="43.524028994183546" lon="10.797525839890165"><ele>95.0</ele><time>2026-04-18T09:33:27.999Z</time></trkpt><trkpt lat="43.52403947156251" lon="10.797704877341909"><ele>96.0</ele><time>2026-04-18T09:33:28.999Z</time></trkpt><trkpt lat="43.524055313359504" lon="10.797874862338228"><ele>97.0</ele><time>2026-04-18T09:33:29.999Z</time></trkpt><trkpt lat="43.52406893395216" lon="10.798039566735548"><ele>98.0</ele><time>2026-04-18T09:33:30.999Z</time></trkpt><trkpt lat="43.52408561393947" lon="10.798210725198311"><ele>98.0</ele><time>2026-04-18T09:33:31.999Z</time></trkpt><trkpt lat="43.52410795171142" lon="10.798371657739205"><ele>98.0</ele><time>2026-04-18T09:33:32.999Z</time></trkpt><trkpt lat="43.52413582153947" lon="10.798529405156893"><ele>98.0</ele><time>2026-04-18T09:33:33.999Z</time></trkpt><trkpt lat="43.52416398473412" lon="10.798689164231343"><ele>98.0</ele><time>2026-04-18T09:33:34.999Z</time></trkpt><trkpt lat="43.52418607104898" lon="10.798850348229331"><ele>98.60000000000001</ele><time>2026-04-18T09:33:35.999Z</time></trkpt><trkpt lat="43.5242022481221" lon="10.799009855846688"><ele>99.2</ele><time>2026-04-18T09:33:36.999Z</time></trkpt><trkpt lat="43.52421892810941" lon="10.799156371514126"><ele>99.8</ele><time>2026-04-18T09:33:37.999Z</time></trkpt><trkpt lat="43.52423229724497" lon="10.79928947613649"><ele>100.4</ele><time>2026-04-18T09:33:38.999Z</time></trkpt><trkpt lat="43.52424428336651" lon="10.799423418949171"><ele>101.0</ele><time>2026-04-18T09:33:39.999Z</time></trkpt><trkpt lat="43.52424759421826" lon="10.799542441974207"><ele>101.4</ele><time>2026-04-18T09:33:40.999Z</time></trkpt><trkpt lat="43.524248641956156" lon="10.799662135551497"><ele>101.8</ele><time>2026-04-18T09:33:41.999Z</time></trkpt><trkpt lat="43.52424202025265" lon="10.79978300259523"><ele>102.2</ele><time>2026-04-18T09:33:42.999Z</time></trkpt><trkpt lat="43.52422119122327" lon="10.79990956933312"><ele>102.60000000000001</ele><time>2026-04-18T09:33:43.999Z</time></trkpt><trkpt lat="43.52420245766968" lon="10.800030855472013"><ele>103.0</ele><time>2026-04-18T09:33:44.999Z</time></trkpt><trkpt lat="43.52418540049673" lon="10.800159852961823"><ele>102.4</ele><time>2026-04-18T09:33:45.999Z</time></trkpt><trkpt lat="43.524172660003906" lon="10.800294214869663"><ele>101.80000000000001</ele><time>2026-04-18T09:33:46.999Z</time></trkpt><trkpt lat="43.52416503247202" lon="10.800440898175165"><ele>101.2</ele><time>2026-04-18T09:33:47.999Z</time></trkpt><trkpt lat="43.52415832694948" lon="10.800598897049948"><ele>100.6</ele><time>2026-04-18T09:33:48.999Z</time></trkpt><trkpt lat="43.52414826866568" lon="10.800751699144765"><ele>100.0</ele><time>2026-04-18T09:33:49.999Z</time></trkpt><trkpt lat="43.52413334887803" lon="10.800892934213207"><ele>98.5</ele><time>2026-04-18T09:33:50.999Z</time></trkpt><trkpt lat="43.524107113521104" lon="10.801042718822883"><ele>97.0</ele><time>2026-04-18T09:33:51.999Z</time></trkpt><trkpt lat="43.52406537164331" lon="10.80119065941386"><ele>95.5</ele><time>2026-04-18T09:33:52.999Z</time></trkpt><trkpt lat="43.524008374701744" lon="10.801352933059261"><ele>94.0</ele><time>2026-04-18T09:33:53.999Z</time></trkpt><trkpt lat="43.523943414952164" lon="10.801509926105664"><ele>94.0</ele><time>2026-04-18T09:33:54.999Z</time></trkpt><trkpt lat="43.52387904193581" lon="10.80165292137377"><ele>94.0</ele><time>2026-04-18T09:33:55.999Z</time></trkpt><trkpt lat="43.52381194480092" lon="10.801788289109991"><ele>94.0</ele><time>2026-04-18T09:33:56.999Z</time></trkpt><trkpt lat="43.52373131089241" lon="10.801904462287949"><ele>94.0</ele><time>2026-04-18T09:33:57.999Z</time></trkpt><trkpt lat="43.523630811873375" lon="10.802005296583102"><ele>96.25</ele><time>2026-04-18T09:33:58.999Z</time></trkpt><trkpt lat="43.52351874582797" lon="10.802084924663232"><ele>98.5</ele><time>2026-04-18T09:33:59.999Z</time></trkpt><trkpt lat="43.523412882390915" lon="10.802157428125666"><ele>100.75</ele><time>2026-04-18T09:34:00.999Z</time></trkpt><trkpt lat="43.52331074890077" lon="10.802224399532006"><ele>103.0</ele><time>2026-04-18T09:34:01.999Z</time></trkpt><trkpt lat="43.52322198454618" lon="10.80230277032666"><ele>103.0</ele><time>2026-04-18T09:34:02.999Z</time></trkpt><trkpt lat="43.52314717606038" lon="10.802390864128993"><ele>103.0</ele><time>2026-04-18T09:34:03.999Z</time></trkpt><trkpt lat="43.52308795791447" lon="10.802493374804781"><ele>103.0</ele><time>2026-04-18T09:34:04.999Z</time></trkpt><trkpt lat="43.52303582247674" lon="10.8026218693804"><ele>103.0</ele><time>2026-04-18T09:34:05.999Z</time></trkpt><trkpt lat="43.522995128336845" lon="10.802762769172716"><ele>103.0</ele><time>2026-04-18T09:34:06.999Z</time></trkpt><trkpt lat="43.52296570785671" lon="10.802895789976048"><ele>103.60000000000001</ele><time>2026-04-18T09:34:07.999Z</time></trkpt><trkpt lat="43.52294802204102" lon="10.803013388077545"><ele>104.2</ele><time>2026-04-18T09:34:08.999Z</time></trkpt><trkpt lat="43.5229310486871" lon="10.80314456486218"><ele>104.8</ele><time>2026-04-18T09:34:09.999Z</time></trkpt><trkpt lat="43.52292245723635" lon="10.803278256217766"><ele>105.4</ele><time>2026-04-18T09:34:10.999Z</time></trkpt><trkpt lat="43.522926438640354" lon="10.803406918431449"><ele>106.0</ele><time>2026-04-18T09:34:11.999Z</time></trkpt><trkpt lat="43.522940184961556" lon="10.803535664464164"><ele>106.0</ele><time>2026-04-18T09:34:12.999Z</time></trkpt><trkpt lat="43.52296734232783" lon="10.803663572306561"><ele>106.0</ele><time>2026-04-18T09:34:13.999Z</time></trkpt><trkpt lat="43.52301524490446" lon="10.803795084367323"><ele>106.0</ele><time>2026-04-18T09:34:14.999Z</time></trkpt><trkpt lat="43.52308468897223" lon="10.803942605863142"><ele>106.0</ele><time>2026-04-18T09:34:15.999Z</time></trkpt><trkpt lat="43.52317068729877" lon="10.8041174523633"><ele>106.0</ele><time>2026-04-18T09:34:16.999Z</time></trkpt><trkpt lat="43.5232503153789" lon="10.804297495643425"><ele>106.0</ele><time>2026-04-18T09:34:17.999Z</time></trkpt><trkpt lat="43.52331841834217" lon="10.80446823501103"><ele>106.0</ele><time>2026-04-18T09:34:18.999Z</time></trkpt><trkpt lat="43.52338308472514" lon="10.804618522534897"><ele>106.0</ele><time>2026-04-18T09:34:19.999Z</time></trkpt><trkpt lat="43.523444859351514" lon="10.804759589965274"><ele>104.8</ele><time>2026-04-18T09:34:20.999Z</time></trkpt><trkpt lat="43.523504748049675" lon="10.804891688759257"><ele>103.6</ele><time>2026-04-18T09:34:21.999Z</time></trkpt><trkpt lat="43.523559272329805" lon="10.80502328463905"><ele>102.4</ele><time>2026-04-18T09:34:22.999Z</time></trkpt><trkpt lat="43.523609354201255" lon="10.805163932974269"><ele>101.2</ele><time>2026-04-18T09:34:23.999Z</time></trkpt><trkpt lat="43.52364485156119" lon="10.805311119193961"><ele>100.0</ele><time>2026-04-18T09:34:24.999Z</time></trkpt><trkpt lat="43.52367586460293" lon="10.805463083098461"><ele>99.8</ele><time>2026-04-18T09:34:25.999Z</time></trkpt><trkpt lat="43.52369979493648" lon="10.805607587109138"><ele>99.6</ele><time>2026-04-18T09:34:26.999Z</time></trkpt><trkpt lat="43.523729927878385" lon="10.805744631225993"><ele>99.4</ele><time>2026-04-18T09:34:27.999Z</time></trkpt><trkpt lat="43.52376408413381" lon="10.805871784697105"><ele>99.2</ele><time>2026-04-18T09:34:28.999Z</time></trkpt><trkpt lat="43.52378834974349" lon="10.805991394455363"><ele>99.0</ele><time>2026-04-18T09:34:29.999Z</time></trkpt><trkpt lat="43.523812196258014" lon="10.806103460500767"><ele>98.4</ele><time>2026-04-18T09:34:30.999Z</time></trkpt><trkpt lat="43.523820997256344" lon="10.80623161980026"><ele>97.80000000000001</ele><time>2026-04-18T09:34:31.999Z</time></trkpt><trkpt lat="43.52381554901928" lon="10.806370591754844"><ele>97.19999999999999</ele><time>2026-04-18T09:34:32.999Z</time></trkpt><trkpt lat="43.523796396370535" lon="10.806517694155504"><ele>96.6</ele><time>2026-04-18T09:34:33.999Z</time></trkpt><trkpt lat="43.523773136589234" lon="10.80666353927069"><ele>96.0</ele><time>2026-04-18T09:34:34.999Z</time></trkpt><trkpt lat="43.5237482004273" lon="10.806795638064674"><ele>96.0</ele><time>2026-04-18T09:34:35.999Z</time></trkpt><trkpt lat="43.52373692676753" lon="10.806941315541795"><ele>96.0</ele><time>2026-04-18T09:34:36.998Z</time></trkpt><trkpt lat="43.52373642385334" lon="10.807080538953475"><ele>96.0</ele><time>2026-04-18T09:34:37.998Z</time></trkpt><trkpt lat="43.52375226565034" lon="10.807232335219911"><ele>96.0</ele><time>2026-04-18T09:34:38.998Z</time></trkpt><trkpt lat="43.52377967447371" lon="10.807384802038602"><ele>96.0</ele><time>2026-04-18T09:34:39.998Z</time></trkpt><trkpt lat="43.52382292509407" lon="10.807546740407876"><ele>96.0</ele><time>2026-04-18T09:34:40.998Z</time></trkpt><trkpt lat="43.52387900002629" lon="10.807709768424562"><ele>96.0</ele><time>2026-04-18T09:34:41.998Z</time></trkpt><trkpt lat="43.523937840986555" lon="10.80786164851003"><ele>96.0</ele><time>2026-04-18T09:34:42.998Z</time></trkpt><trkpt lat="43.52399295199991" lon="10.808010427291325"><ele>96.0</ele><time>2026-04-18T09:34:43.998Z</time></trkpt><trkpt lat="43.52404374633313" lon="10.808137999857596"><ele>96.0</ele><time>2026-04-18T09:34:44.998Z</time></trkpt><trkpt lat="43.5240796208787" lon="10.808264398957423"><ele>96.0</ele><time>2026-04-18T09:34:45.998Z</time></trkpt><trkpt lat="43.5240970552373" lon="10.808401778350404"><ele>96.0</ele><time>2026-04-18T09:34:46.998Z</time></trkpt><trkpt lat="43.52410091091276" lon="10.808556592101985"><ele>96.0</ele><time>2026-04-18T09:34:47.998Z</time></trkpt><trkpt lat="43.524089008610254" lon="10.808735797191792"><ele>96.0</ele><time>2026-04-18T09:34:48.998Z</time></trkpt><trkpt lat="43.524071699980205" lon="10.808934280658894"><ele>97.0</ele><time>2026-04-18T09:34:49.998Z</time></trkpt><trkpt lat="43.5240616416964" lon="10.809123963127666"><ele>98.0</ele><time>2026-04-18T09:34:50.998Z</time></trkpt><trkpt lat="43.524064701091056" lon="10.809309287006789"><ele>99.0</ele><time>2026-04-18T09:34:51.998Z</time></trkpt><trkpt lat="43.52407450791777" lon="10.8094969578188"><ele>100.0</ele><time>2026-04-18T09:34:52.998Z</time></trkpt><trkpt lat="43.52409915071309" lon="10.809666104624801"><ele>100.6</ele><time>2026-04-18T09:34:53.998Z</time></trkpt><trkpt lat="43.52411650125266" lon="10.809823265309268"><ele>101.2</ele><time>2026-04-18T09:34:54.998Z</time></trkpt><trkpt lat="43.52412940938354" lon="10.80997196027153"><ele>101.80000000000001</ele><time>2026-04-18T09:34:55.998Z</time></trkpt><trkpt lat="43.52412819400758" lon="10.81011462026351"><ele>102.4</ele><time>2026-04-18T09:34:56.998Z</time></trkpt><trkpt lat="43.52411972828538" lon="10.810253759856158"><ele>103.0</ele><time>2026-04-18T09:34:57.998Z</time></trkpt><trkpt lat="43.52409378629506" lon="10.810407148684199"><ele>103.25</ele><time>2026-04-18T09:34:58.998Z</time></trkpt><trkpt lat="43.52405657064498" lon="10.810563890273507"><ele>103.5</ele><time>2026-04-18T09:34:59.998Z</time></trkpt><trkpt lat="43.52402166001827" lon="10.810743514458473"><ele>103.75</ele><time>2026-04-18T09:35:00.998Z</time></trkpt><trkpt lat="43.524001794907754" lon="10.810923557738597"><ele>104.0</ele><time>2026-04-18T09:35:01.998Z</time></trkpt><trkpt lat="43.52398457009674" lon="10.81109027379268"><ele>103.6</ele><time>2026-04-18T09:35:02.998Z</time></trkpt><trkpt lat="43.52395217404098" lon="10.81124131568783"><ele>103.2</ele><time>2026-04-18T09:35:03.998Z</time></trkpt><trkpt lat="43.52390892342061" lon="10.811378192166622"><ele>102.8</ele><time>2026-04-18T09:35:04.998Z</time></trkpt><trkpt lat="43.52385460868806" lon="10.811503250161941"><ele>102.39999999999999</ele><time>2026-04-18T09:35:05.998Z</time></trkpt><trkpt lat="43.52378767919124" lon="10.811606850485141"><ele>102.0</ele><time>2026-04-18T09:35:06.998Z</time></trkpt><trkpt lat="43.5237170197475" lon="10.81171036698931"><ele>103.6</ele><time>2026-04-18T09:35:07.998Z</time></trkpt><trkpt lat="43.52365038361728" lon="10.81179636531585"><ele>105.19999999999999</ele><time>2026-04-18T09:35:08.998Z</time></trkpt><trkpt lat="43.52357620377421" lon="10.811879597614343"><ele>106.8</ele><time>2026-04-18T09:35:09.998Z</time></trkpt><trkpt lat="43.52349305529475" lon="10.81194447354489"><ele>108.4</ele><time>2026-04-18T09:35:10.998Z</time></trkpt><trkpt lat="43.52339310109943" lon="10.81199962646776"><ele>110.0</ele><time>2026-04-18T09:35:11.998Z</time></trkpt><trkpt lat="43.52329406891346" lon="10.812048912058408"><ele>111.2</ele><time>2026-04-18T09:35:12.998Z</time></trkpt><trkpt lat="43.52320857350111" lon="10.812103394429023"><ele>112.4</ele><time>2026-04-18T09:35:13.998Z</time></trkpt><trkpt lat="43.52313330401063" lon="10.81216433086508"><ele>113.6</ele><time>2026-04-18T09:35:14.998Z</time></trkpt><trkpt lat="43.52305225100696" lon="10.812239935631688"><ele>114.8</ele><time>2026-04-18T09:35:15.998Z</time></trkpt><trkpt lat="43.5229950026083" lon="10.81233331003302"><ele>116.0</ele><time>2026-04-18T09:35:16.998Z</time></trkpt><trkpt lat="43.52294098124236" lon="10.81247647293919"><ele>117.19999999999999</ele><time>2026-04-18T09:35:17.998Z</time></trkpt><trkpt lat="43.5228972277078" lon="10.812611505399284"><ele>118.39999999999999</ele><time>2026-04-18T09:35:18.998Z</time></trkpt><trkpt lat="43.52286416109979" lon="10.812750728810963"><ele>119.6</ele><time>2026-04-18T09:35:19.998Z</time></trkpt><trkpt lat="43.52281860545605" lon="10.81287863665336"><ele>120.8</ele><time>2026-04-18T09:35:20.998Z</time></trkpt><trkpt lat="43.52276684720397" lon="10.81298852340394"><ele>122.0</ele><time>2026-04-18T09:35:21.998Z</time></trkpt><trkpt lat="43.522717896889446" lon="10.813096733773884"><ele>122.0</ele><time>2026-04-18T09:35:22.998Z</time></trkpt><trkpt lat="43.5226606904003" lon="10.813165046284732"><ele>121.99999999999999</ele><time>2026-04-18T09:35:23.998Z</time></trkpt><trkpt lat="43.522589611861406" lon="10.813243165622291"><ele>121.99999999999999</ele><time>2026-04-18T09:35:24.998Z</time></trkpt><trkpt lat="43.522510193328856" lon="10.813322458426294"><ele>122.0</ele><time>2026-04-18T09:35:25.998Z</time></trkpt><trkpt lat="43.522422979626356" lon="10.813385574157175"><ele>122.0</ele><time>2026-04-18T09:35:26.998Z</time></trkpt><trkpt lat="43.522349931340216" lon="10.8134688902747"><ele>122.49999999999999</ele><time>2026-04-18T09:35:27.998Z</time></trkpt><trkpt lat="43.52226472929448" lon="10.813559666286048"><ele>123.0</ele><time>2026-04-18T09:35:28.998Z</time></trkpt><trkpt lat="43.52219436321735" lon="10.813636779795226"><ele>123.5</ele><time>2026-04-18T09:35:29.998Z</time></trkpt><trkpt lat="43.52213862356126" lon="10.81371464767569"><ele>124.0</ele><time>2026-04-18T09:35:30.998Z</time></trkpt><trkpt lat="43.52208632048547" lon="10.813809279362497"><ele>124.49999999999999</ele><time>2026-04-18T09:35:31.998Z</time></trkpt><trkpt lat="43.5220504459399" lon="10.813914304609236"><ele>125.0</ele><time>2026-04-18T09:35:32.998Z</time></trkpt><trkpt lat="43.52201842706978" lon="10.8140249457311"><ele>125.6</ele><time>2026-04-18T09:35:33.998Z</time></trkpt><trkpt lat="43.5219896771419" lon="10.814147237698373"><ele>126.2</ele><time>2026-04-18T09:35:34.998Z</time></trkpt><trkpt lat="43.5219621844995" lon="10.814270786951123"><ele>126.80000000000001</ele><time>2026-04-18T09:35:35.998Z</time></trkpt><trkpt lat="43.52193829607546" lon="10.814397018412887"><ele>127.4</ele><time>2026-04-18T09:35:36.998Z</time></trkpt><trkpt lat="43.52189022586077" lon="10.81451495179051"><ele>128.0</ele><time>2026-04-18T09:35:37.998Z</time></trkpt><trkpt lat="43.52184169464141" lon="10.814632885168134"><ele>128.0</ele><time>2026-04-18T09:35:38.998Z</time></trkpt><trkpt lat="43.52180372462004" lon="10.814751237640916"><ele>128.0</ele><time>2026-04-18T09:35:39.998Z</time></trkpt><trkpt lat="43.521783063228725" lon="10.814852323393165"><ele>128.0</ele><time>2026-04-18T09:35:40.998Z</time></trkpt><trkpt lat="43.5217602644521" lon="10.814963299791156"><ele>128.0</ele><time>2026-04-18T09:35:41.998Z</time></trkpt><trkpt lat="43.52175527721971" lon="10.815124902884303"><ele>128.0</ele><time>2026-04-18T09:35:42.998Z</time></trkpt><trkpt lat="43.52175096053958" lon="10.81527234056109"><ele>127.80000000000001</ele><time>2026-04-18T09:35:43.998Z</time></trkpt><trkpt lat="43.52174660194993" lon="10.81541743130499"><ele>127.60000000000001</ele><time>2026-04-18T09:35:44.998Z</time></trkpt><trkpt lat="43.52174383592188" lon="10.815550033013164"><ele>127.39999999999999</ele><time>2026-04-18T09:35:45.998Z</time></trkpt><trkpt lat="43.52174676958799" lon="10.815668385485946"><ele>127.19999999999999</ele><time>2026-04-18T09:35:46.998Z</time></trkpt><trkpt lat="43.52175825279534" lon="10.8157692197811"><ele>127.0</ele><time>2026-04-18T09:35:47.998Z</time></trkpt><trkpt lat="43.52181499827981" lon="10.815935684378086"><ele>126.57142857142858</ele><time>2026-04-18T09:35:49.998Z</time></trkpt><trkpt lat="43.521858542266784" lon="10.816015731553374"><ele>126.14285714285714</ele><time>2026-04-18T09:35:50.998Z</time></trkpt><trkpt lat="43.521896260831056" lon="10.816096365461886"><ele>125.71428571428572</ele><time>2026-04-18T09:35:51.998Z</time></trkpt><trkpt lat="43.52193272210985" lon="10.816171551133335"><ele>125.28571428571429</ele><time>2026-04-18T09:35:52.998Z</time></trkpt><trkpt lat="43.52198334880501" lon="10.816240450377405"><ele>124.85714285714286</ele><time>2026-04-18T09:35:53.998Z</time></trkpt><trkpt lat="43.522021528373955" lon="10.816327705989421"><ele>124.42857142857143</ele><time>2026-04-18T09:35:54.998Z</time></trkpt><trkpt lat="43.5220581153813" lon="10.816407585526646"><ele>124.0</ele><time>2026-04-18T09:35:55.998Z</time></trkpt><trkpt lat="43.522093067917524" lon="10.816489979634822"><ele>124.0</ele><time>2026-04-18T09:35:56.998Z</time></trkpt><trkpt lat="43.52213082839131" lon="10.816650409261525"><ele>124.0</ele><time>2026-04-18T09:35:58.998Z</time></trkpt><trkpt lat="43.522127768996654" lon="10.816771611581386"><ele>124.0</ele><time>2026-04-18T09:35:59.998Z</time></trkpt><trkpt lat="43.52212043483138" lon="10.81690278836602"><ele>124.0</ele><time>2026-04-18T09:36:00.998Z</time></trkpt><trkpt lat="43.522094367112516" lon="10.817029690380037"><ele>124.0</ele><time>2026-04-18T09:36:01.998Z</time></trkpt><trkpt lat="43.52206855085075" lon="10.817149803052486"><ele>123.80000000000001</ele><time>2026-04-18T09:36:02.998Z</time></trkpt><trkpt lat="43.52204001047045" lon="10.817274441952646"><ele>123.60000000000001</ele><time>2026-04-18T09:36:03.998Z</time></trkpt><trkpt lat="43.522004010196326" lon="10.817396063367665"><ele>123.4</ele><time>2026-04-18T09:36:04.998Z</time></trkpt><trkpt lat="43.52195288058698" lon="10.817528329799712"><ele>123.2</ele><time>2026-04-18T09:36:05.998Z</time></trkpt><trkpt lat="43.52191838905543" lon="10.81763913855964"><ele>123.0</ele><time>2026-04-18T09:36:06.998Z</time></trkpt><trkpt lat="43.52187773682505" lon="10.817745085815728"><ele>124.33333333333333</ele><time>2026-04-18T09:36:07.998Z</time></trkpt><trkpt lat="43.52184429303139" lon="10.817845501015723"><ele>125.66666666666666</ele><time>2026-04-18T09:36:08.998Z</time></trkpt><trkpt lat="43.52180385034859" lon="10.817948346967638"><ele>127.0</ele><time>2026-04-18T09:36:09.998Z</time></trkpt><trkpt lat="43.521729041862784" lon="10.818043397749605"><ele>128.33333333333331</ele><time>2026-04-18T09:36:10.998Z</time></trkpt><trkpt lat="43.521663160103856" lon="10.818115649754944"><ele>129.66666666666666</ele><time>2026-04-18T09:36:11.998Z</time></trkpt><trkpt lat="43.52159128528416" lon="10.81818630919868"><ele>131.0</ele><time>2026-04-18T09:36:12.998Z</time></trkpt><trkpt lat="43.521526074077485" lon="10.818247832367959"><ele>131.0</ele><time>2026-04-18T09:36:13.998Z</time></trkpt><trkpt lat="43.52147217844009" lon="10.818317905078473"><ele>131.0</ele><time>2026-04-18T09:36:14.998Z</time></trkpt><trkpt lat="43.52141945626914" lon="10.818375237296166"><ele>131.0</ele><time>2026-04-18T09:36:15.998Z</time></trkpt><trkpt lat="43.52134896446347" lon="10.818450339148583"><ele>131.0</ele><time>2026-04-18T09:36:17.998Z</time></trkpt><trkpt lat="43.52130839605212" lon="10.818533403809013"><ele>131.0</ele><time>2026-04-18T09:36:24.998Z</time></trkpt><trkpt lat="43.52129079405546" lon="10.818656785423698"><ele>131.0</ele><time>2026-04-18T09:36:28.998Z</time></trkpt><trkpt lat="43.52128756702274" lon="10.818784274170937"><ele>129.75</ele><time>2026-04-18T09:36:30.998Z</time></trkpt><trkpt lat="43.521285471546946" lon="10.818970017145219"><ele>128.5</ele><time>2026-04-18T09:36:32.997Z</time></trkpt><trkpt lat="43.52133396085679" lon="10.819106558347883"><ele>127.25</ele><time>2026-04-18T09:36:34.997Z</time></trkpt><trkpt lat="43.52137763057232" lon="10.819232370714488"><ele>126.0</ele><time>2026-04-18T09:36:36.997Z</time></trkpt><trkpt lat="43.521426832343934" lon="10.819365642974915"><ele>123.8</ele><time>2026-04-18T09:36:38.997Z</time></trkpt><trkpt lat="43.52145042740136" lon="10.819527497525158"><ele>121.6</ele><time>2026-04-18T09:36:40.997Z</time></trkpt><trkpt lat="43.52144103966981" lon="10.819704271863046"><ele>119.4</ele><time>2026-04-18T09:36:42.997Z</time></trkpt><trkpt lat="43.5214172350648" lon="10.819804435605946"><ele>117.2</ele><time>2026-04-18T09:36:43.997Z</time></trkpt><trkpt lat="43.521392634178994" lon="10.819891355941836"><ele>115.0</ele><time>2026-04-18T09:36:44.997Z</time></trkpt><trkpt lat="43.521365518722234" lon="10.81997659989709"><ele>115.00000000000001</ele><time>2026-04-18T09:36:45.997Z</time></trkpt><trkpt lat="43.52130039133459" lon="10.820140885199253"><ele>115.0</ele><time>2026-04-18T09:36:47.997Z</time></trkpt><trkpt lat="43.52128287315696" lon="10.820228392268364"><ele>115.0</ele><time>2026-04-18T09:36:48.997Z</time></trkpt><trkpt lat="43.52127352733493" lon="10.820317994813268"><ele>115.0</ele><time>2026-04-18T09:36:49.997Z</time></trkpt><trkpt lat="43.521272647235094" lon="10.82041874528939"><ele>115.00000000000001</ele><time>2026-04-18T09:36:50.997Z</time></trkpt><trkpt lat="43.52128035858601" lon="10.820515640090052"><ele>115.0</ele><time>2026-04-18T09:36:51.997Z</time></trkpt><trkpt lat="43.52128714792758" lon="10.820610858510081"><ele>113.66666666666667</ele><time>2026-04-18T09:36:52.997Z</time></trkpt><trkpt lat="43.52129360199302" lon="10.820717141042296"><ele>112.33333333333334</ele><time>2026-04-18T09:36:53.997Z</time></trkpt><trkpt lat="43.521303199272154" lon="10.820822920660321"><ele>111.0</ele><time>2026-04-18T09:36:54.997Z</time></trkpt><trkpt lat="43.521310365799366" lon="10.820924341688697"><ele>109.66666666666666</ele><time>2026-04-18T09:36:55.997Z</time></trkpt><trkpt lat="43.52131438911289" lon="10.821029283116404"><ele>108.33333333333333</ele><time>2026-04-18T09:36:56.997Z</time></trkpt><trkpt lat="43.521314514841436" lon="10.821141181523744"><ele>107.0</ele><time>2026-04-18T09:36:57.997Z</time></trkpt><trkpt lat="43.52132071744978" lon="10.821257187063638"><ele>106.66666666666666</ele><time>2026-04-18T09:36:58.997Z</time></trkpt><trkpt lat="43.521330901462136" lon="10.821371935318057"><ele>106.33333333333333</ele><time>2026-04-18T09:36:59.997Z</time></trkpt><trkpt lat="43.52134372577399" lon="10.821488443772141"><ele>106.0</ele><time>2026-04-18T09:37:00.997Z</time></trkpt><trkpt lat="43.521357220638095" lon="10.821597911427562"><ele>105.66666666666666</ele><time>2026-04-18T09:37:01.997Z</time></trkpt><trkpt lat="43.52136254314661" lon="10.821711318577472"><ele>105.33333333333333</ele><time>2026-04-18T09:37:02.997Z</time></trkpt><trkpt lat="43.521363381336926" lon="10.821830928335732"><ele>105.0</ele><time>2026-04-18T09:37:03.997Z</time></trkpt><trkpt lat="43.52136950012624" lon="10.821939893076962"><ele>104.83333333333333</ele><time>2026-04-18T09:37:04.997Z</time></trkpt><trkpt lat="43.52137385871589" lon="10.822056904445237"><ele>104.66666666666666</ele><time>2026-04-18T09:37:05.997Z</time></trkpt><trkpt lat="43.521382114890514" lon="10.822176346565431"><ele>104.5</ele><time>2026-04-18T09:37:06.997Z</time></trkpt><trkpt lat="43.52139523256898" lon="10.822283551106995"><ele>104.33333333333333</ele><time>2026-04-18T09:37:07.997Z</time></trkpt><trkpt lat="43.5214042850244" lon="10.822372147823518"><ele>104.16666666666666</ele><time>2026-04-18T09:37:08.997Z</time></trkpt><trkpt lat="43.52145122368216" lon="10.822527883584446"><ele>104.0</ele><time>2026-04-18T09:37:10.997Z</time></trkpt><trkpt lat="43.52149971299201" lon="10.822589322934693"><ele>104.0</ele><time>2026-04-18T09:37:11.997Z</time></trkpt><trkpt lat="43.52156375073224" lon="10.82263458521182"><ele>104.0</ele><time>2026-04-18T09:37:12.997Z</time></trkpt><trkpt lat="43.52163357198566" lon="10.822664173330015"><ele>104.0</ele><time>2026-04-18T09:37:13.997Z</time></trkpt><trkpt lat="43.52169719063073" lon="10.822699712599462"><ele>104.0</ele><time>2026-04-18T09:37:14.997Z</time></trkpt><trkpt lat="43.521754019934235" lon="10.822755703712648"><ele>104.0</ele><time>2026-04-18T09:37:15.997Z</time></trkpt><trkpt lat="43.521802173967956" lon="10.822826782251543"><ele>104.0</ele><time>2026-04-18T09:37:16.997Z</time></trkpt><trkpt lat="43.521844963583646" lon="10.822920324290937"><ele>104.0</ele><time>2026-04-18T09:37:17.997Z</time></trkpt><trkpt lat="43.521883939433394" lon="10.823044041181749"><ele>103.75</ele><time>2026-04-18T09:37:18.997Z</time></trkpt><trkpt lat="43.52192182563573" lon="10.823208913217133"><ele>103.5</ele><time>2026-04-18T09:37:19.997Z</time></trkpt><trkpt lat="43.521959418471454" lon="10.82336808555836"><ele>103.25</ele><time>2026-04-18T09:37:20.997Z</time></trkpt><trkpt lat="43.52199579593122" lon="10.823513260121292"><ele>103.0</ele><time>2026-04-18T09:37:21.997Z</time></trkpt><trkpt lat="43.52202077400267" lon="10.823647286753005"><ele>103.0</ele><time>2026-04-18T09:37:22.997Z</time></trkpt><trkpt lat="43.5220234981212" lon="10.823768572891899"><ele>103.0</ele><time>2026-04-18T09:37:23.997Z</time></trkpt><trkpt lat="43.522005644667445" lon="10.823910143236466"><ele>103.0</ele><time>2026-04-18T09:37:24.997Z</time></trkpt><trkpt lat="43.52196876429349" lon="10.824068561206408"><ele>103.0</ele><time>2026-04-18T09:37:25.997Z</time></trkpt><trkpt lat="43.52192534603506" lon="10.824216585616417"><ele>103.0</ele><time>2026-04-18T09:37:26.997Z</time></trkpt><trkpt lat="43.52189730856895" lon="10.824364358569332"><ele>102.0</ele><time>2026-04-18T09:37:27.997Z</time></trkpt><trkpt lat="43.52189043540835" lon="10.824526799852796"><ele>101.0</ele><time>2026-04-18T09:37:28.997Z</time></trkpt><trkpt lat="43.521909629966615" lon="10.824724026034422"><ele>100.0</ele><time>2026-04-18T09:37:29.997Z</time></trkpt><trkpt lat="43.52193192582905" lon="10.824927873919554"><ele>99.0</ele><time>2026-04-18T09:37:30.997Z</time></trkpt><trkpt lat="43.521950617473124" lon="10.825112275789328"><ele>97.75</ele><time>2026-04-18T09:37:31.997Z</time></trkpt><trkpt lat="43.52197291333556" lon="10.825284942994662"><ele>96.5</ele><time>2026-04-18T09:37:32.997Z</time></trkpt><trkpt lat="43.52199516728848" lon="10.825454592714854"><ele>95.25</ele><time>2026-04-18T09:37:33.997Z</time></trkpt><trkpt lat="43.521998771506844" lon="10.825604042048404"><ele>94.0</ele><time>2026-04-18T09:37:34.997Z</time></trkpt><trkpt lat="43.52198800076127" lon="10.825756927962253"><ele>94.0</ele><time>2026-04-18T09:37:35.997Z</time></trkpt><trkpt lat="43.52197291333556" lon="10.825894223536203"><ele>94.0</ele><time>2026-04-18T09:37:36.997Z</time></trkpt><trkpt lat="43.52195497606277" lon="10.826012156913826"><ele>94.0</ele><time>2026-04-18T09:37:37.997Z</time></trkpt><trkpt lat="43.52194722280234" lon="10.826118690903137"><ele>94.0</ele><time>2026-04-18T09:37:38.997Z</time></trkpt><trkpt lat="43.521945336874126" lon="10.826207203800628"><ele>94.0</ele><time>2026-04-18T09:37:39.997Z</time></trkpt><trkpt lat="43.52194127165109" lon="10.826296806345532"><ele>94.0</ele><time>2026-04-18T09:37:40.997Z</time></trkpt><trkpt lat="43.52196692027479" lon="10.826467797170231"><ele>94.75</ele><time>2026-04-18T09:37:42.997Z</time></trkpt><trkpt lat="43.522007865871785" lon="10.82661774941797"><ele>95.5</ele><time>2026-04-18T09:37:44.997Z</time></trkpt><trkpt lat="43.5220372444424" lon="10.826761582876394"><ele>96.25</ele><time>2026-04-18T09:37:46.997Z</time></trkpt><trkpt lat="43.52207052059799" lon="10.826908350000927"><ele>97.0</ele><time>2026-04-18T09:37:48.997Z</time></trkpt><trkpt lat="43.522102665196655" lon="10.82706827671344"><ele>97.0</ele><time>2026-04-18T09:37:50.997Z</time></trkpt><trkpt lat="43.522133133414684" lon="10.82722459920759"><ele>97.0</ele><time>2026-04-18T09:37:52.997Z</time></trkpt><trkpt lat="43.522155890281795" lon="10.827341694394896"><ele>97.0</ele><time>2026-04-18T09:37:54.997Z</time></trkpt><trkpt lat="43.52219356693655" lon="10.827461723248312"><ele>97.0</ele><time>2026-04-18T09:37:56.997Z</time></trkpt><trkpt lat="43.52222625635892" lon="10.827596755708408"><ele>97.0</ele><time>2026-04-18T09:37:58.997Z</time></trkpt><trkpt lat="43.52225588638663" lon="10.827726256112408"><ele>97.00000000000001</ele><time>2026-04-18T09:38:00.997Z</time></trkpt><trkpt lat="43.522253832820354" lon="10.827817870314073"><ele>97.0</ele><time>2026-04-18T09:38:26.997Z</time></trkpt><trkpt lat="43.52221372541368" lon="10.827932618568491"><ele>97.0</ele><time>2026-04-18T09:38:28.996Z</time></trkpt><trkpt lat="43.52215614173889" lon="10.827988525862645"><ele>97.0</ele><time>2026-04-18T09:38:29.996Z</time></trkpt><trkpt lat="43.52207831576794" lon="10.828047450641941"><ele>97.00000000000001</ele><time>2026-04-18T09:38:31.996Z</time></trkpt><trkpt lat="43.521999483968614" lon="10.828072261075329"><ele>97.0</ele><time>2026-04-18T09:38:33.996Z</time></trkpt><trkpt lat="43.52192320864975" lon="10.828104196126413"><ele>99.6</ele><time>2026-04-18T09:38:35.996Z</time></trkpt><trkpt lat="43.521824427920876" lon="10.828111739839267"><ele>102.19999999999999</ele><time>2026-04-18T09:38:38.001Z</time></trkpt><trkpt lat="43.521714666898845" lon="10.82809916698451"><ele>104.8</ele><time>2026-04-18T09:38:40.001Z</time></trkpt><trkpt lat="43.52160511542439" lon="10.828110482553791"><ele>107.4</ele><time>2026-04-18T09:38:42.001Z</time></trkpt><trkpt lat="43.52147557311088" lon="10.828122468675327"><ele>110.0</ele><time>2026-04-18T09:38:44.001Z</time></trkpt><trkpt lat="43.52139619648784" lon="10.82812112757082"><ele>109.99999999999999</ele><time>2026-04-18T09:38:45.001Z</time></trkpt><trkpt lat="43.521319166797696" lon="10.828137137005877"><ele>110.0</ele><time>2026-04-18T09:38:46.001Z</time></trkpt><trkpt lat="43.5212507285583" lon="10.828141998509716"><ele>110.0</ele><time>2026-04-18T09:38:47.001Z</time></trkpt><trkpt lat="43.52117110047817" lon="10.828138226653289"><ele>110.0</ele><time>2026-04-18T09:38:48.001Z</time></trkpt><trkpt lat="43.52109495088786" lon="10.828139819214892"><ele>109.99999999999999</ele><time>2026-04-18T09:38:49.001Z</time></trkpt><trkpt lat="43.52102814711958" lon="10.828143591071319"><ele>110.0</ele><time>2026-04-18T09:38:50.001Z</time></trkpt><trkpt lat="43.520925007801054" lon="10.828162115077328"><ele>112.6</ele><time>2026-04-18T09:38:52.001Z</time></trkpt><trkpt lat="43.520840099121926" lon="10.828197654346775"><ele>115.2</ele><time>2026-04-18T09:38:54Z</time></trkpt><trkpt lat="43.52075041275799" lon="10.828268649066638"><ele>117.80000000000001</ele><time>2026-04-18T09:38:56Z</time></trkpt><trkpt lat="43.52066617463112" lon="10.828342074538421"><ele>120.4</ele><time>2026-04-18T09:38:58Z</time></trkpt><trkpt lat="43.52057682354331" lon="10.828419355685662"><ele>123.0</ele><time>2026-04-18T09:39:00Z</time></trkpt><trkpt lat="43.52052125152528" lon="10.828471574942421"><ele>121.80000000000001</ele><time>2026-04-18T09:39:01Z</time></trkpt><trkpt lat="43.520458387251495" lon="10.828535193587493"><ele>120.60000000000001</ele><time>2026-04-18T09:39:02Z</time></trkpt><trkpt lat="43.520391709211765" lon="10.828594369823884"><ele>119.39999999999999</ele><time>2026-04-18T09:39:03Z</time></trkpt><trkpt lat="43.52027277000576" lon="10.828678607950758"><ele>118.19999999999999</ele><time>2026-04-18T09:39:05Z</time></trkpt><trkpt lat="43.52017583329558" lon="10.828724456961107"><ele>117.0</ele><time>2026-04-18T09:39:06Z</time></trkpt><trkpt lat="43.520070179406105" lon="10.82877541893239"><ele>119.8</ele><time>2026-04-18T09:39:07Z</time></trkpt><trkpt lat="43.51997701455235" lon="10.828818585733723"><ele>122.6</ele><time>2026-04-18T09:39:08Z</time></trkpt><trkpt lat="43.51990270898074" lon="10.828848425309014"><ele>125.39999999999999</ele><time>2026-04-18T09:39:09Z</time></trkpt><trkpt lat="43.51979110394001" lon="10.82889125683422"><ele>128.2</ele><time>2026-04-18T09:39:11Z</time></trkpt><trkpt lat="43.51970305204719" lon="10.828926963741731"><ele>131.0</ele><time>2026-04-18T09:39:13Z</time></trkpt><trkpt lat="43.519602133933006" lon="10.8289596531641"><ele>131.8</ele><time>2026-04-18T09:39:15Z</time></trkpt><trkpt lat="43.519513830583094" lon="10.828991504396152"><ele>132.6</ele><time>2026-04-18T09:39:17Z</time></trkpt><trkpt lat="43.519422048743365" lon="10.82901874558146"><ele>133.4</ele><time>2026-04-18T09:39:19Z</time></trkpt><trkpt lat="43.51931195244521" lon="10.829048249880623"><ele>134.2</ele><time>2026-04-18T09:39:21Z</time></trkpt><trkpt lat="43.51920659192234" lon="10.829087477187466"><ele>135.0</ele><time>2026-04-18T09:39:23Z</time></trkpt><trkpt lat="43.519088071811495" lon="10.829138271520685"><ele>135.0</ele><time>2026-04-18T09:39:25Z</time></trkpt><trkpt lat="43.51902063940048" lon="10.829170206571769"><ele>135.0</ele><time>2026-04-18T09:39:26Z</time></trkpt><trkpt lat="43.51895802658379" lon="10.829206751669597"><ele>135.0</ele><time>2026-04-18T09:39:27Z</time></trkpt><trkpt lat="43.518891390453575" lon="10.829235836873602"><ele>135.0</ele><time>2026-04-18T09:39:28Z</time></trkpt><trkpt lat="43.51883217230767" lon="10.829268274838876"><ele>135.0</ele><time>2026-04-18T09:39:29Z</time></trkpt><trkpt lat="43.51871964525759" lon="10.829340023930024"><ele>135.0</ele><time>2026-04-18T09:39:31Z</time></trkpt><trkpt lat="43.51865351204157" lon="10.829372126619171"><ele>136.33333333333334</ele><time>2026-04-18T09:39:32Z</time></trkpt><trkpt lat="43.51859085731536" lon="10.82941018045957"><ele>137.66666666666666</ele><time>2026-04-18T09:39:33Z</time></trkpt><trkpt lat="43.51852233525693" lon="10.829439684758736"><ele>139.0</ele><time>2026-04-18T09:39:34Z</time></trkpt><trkpt lat="43.51844819732338" lon="10.82946432755406"><ele>140.33333333333331</ele><time>2026-04-18T09:39:34.999Z</time></trkpt><trkpt lat="43.518381477374135" lon="10.829491401101304"><ele>141.66666666666666</ele><time>2026-04-18T09:39:35.999Z</time></trkpt><trkpt lat="43.51832024757147" lon="10.82951855846758"><ele>143.0</ele><time>2026-04-18T09:39:36.999Z</time></trkpt><trkpt lat="43.51820994172573" lon="10.829555606479598"><ele>143.0</ele><time>2026-04-18T09:39:38.999Z</time></trkpt><trkpt lat="43.518103617284" lon="10.829591145749045"><ele>143.0</ele><time>2026-04-18T09:39:40.999Z</time></trkpt><trkpt lat="43.5179868154633" lon="10.829638419682933"><ele>143.0</ele><time>2026-04-18T09:39:42.999Z</time></trkpt><trkpt lat="43.51791716184795" lon="10.829664235944701"><ele>143.0</ele><time>2026-04-18T09:39:43.999Z</time></trkpt><trkpt lat="43.51784629285663" lon="10.829692734415485"><ele>143.0</ele><time>2026-04-18T09:39:44.999Z</time></trkpt><trkpt lat="43.51777345411807" lon="10.829715281735016"><ele>145.83333333333331</ele><time>2026-04-18T09:39:45.999Z</time></trkpt><trkpt lat="43.517699567641614" lon="10.829741265634848"><ele>148.66666666666666</ele><time>2026-04-18T09:39:46.999Z</time></trkpt><trkpt lat="43.517626100260316" lon="10.829760627831174"><ele>151.5</ele><time>2026-04-18T09:39:47.999Z</time></trkpt><trkpt lat="43.51755996704429" lon="10.829785186807467"><ele>154.33333333333334</ele><time>2026-04-18T09:39:48.999Z</time></trkpt><trkpt lat="43.517500539350806" lon="10.829819301153375"><ele>157.16666666666669</ele><time>2026-04-18T09:39:49.999Z</time></trkpt><trkpt lat="43.51740213580757" lon="10.829897504309965"><ele>160.0</ele><time>2026-04-18T09:39:51.999Z</time></trkpt><trkpt lat="43.51733709223896" lon="10.830027759085251"><ele>159.66666666666669</ele><time>2026-04-18T09:39:53.999Z</time></trkpt><trkpt lat="43.51728193931609" lon="10.830154828737331"><ele>159.33333333333334</ele><time>2026-04-18T09:39:55.999Z</time></trkpt><trkpt lat="43.51724405311376" lon="10.830230349684907"><ele>159.0</ele><time>2026-04-18T09:39:57.999Z</time></trkpt><trkpt lat="43.517194809432624" lon="10.830320455144001"><ele>158.66666666666666</ele><time>2026-04-18T09:40:00.999Z</time></trkpt><trkpt lat="43.51715662986368" lon="10.830403184528304"><ele>158.33333333333331</ele><time>2026-04-18T09:40:03.999Z</time></trkpt><trkpt lat="43.51712335370809" lon="10.830486919740988"><ele>158.0</ele><time>2026-04-18T09:40:11.999Z</time></trkpt><trkpt lat="43.51706321355283" lon="10.830598650510264"><ele>161.16666666666666</ele><time>2026-04-18T09:40:13.999Z</time></trkpt><trkpt lat="43.5170232318747" lon="10.83068054170425"><ele>164.33333333333331</ele><time>2026-04-18T09:40:15.999Z</time></trkpt><trkpt lat="43.51698366929173" lon="10.830767713497234"><ele>167.5</ele><time>2026-04-18T09:40:17.999Z</time></trkpt><trkpt lat="43.516928306821285" lon="10.830855136747314"><ele>170.66666666666666</ele><time>2026-04-18T09:40:20.999Z</time></trkpt><trkpt lat="43.51688618775785" lon="10.83094633185382"><ele>173.83333333333334</ele><time>2026-04-18T09:40:23.999Z</time></trkpt><trkpt lat="43.516854546073375" lon="10.831024702648474"><ele>177.0</ele><time>2026-04-18T09:40:25.999Z</time></trkpt><trkpt lat="43.516810834448336" lon="10.831121010715915"><ele>177.0</ele><time>2026-04-18T09:40:28.999Z</time></trkpt><trkpt lat="43.51677697155952" lon="10.831196866939617"><ele>177.0</ele><time>2026-04-18T09:40:37.999Z</time></trkpt><trkpt lat="43.51671498738557" lon="10.83136106842275"><ele>177.0</ele><time>2026-04-18T09:40:39.999Z</time></trkpt><trkpt lat="43.51665840953916" lon="10.831462405632093"><ele>177.0</ele><time>2026-04-18T09:40:40.999Z</time></trkpt><trkpt lat="43.51660229269743" lon="10.831563742841437"><ele>177.0</ele><time>2026-04-18T09:40:41.999Z</time></trkpt><trkpt lat="43.51654743314117" lon="10.831653345386341"><ele>177.0</ele><time>2026-04-18T09:40:42.999Z</time></trkpt><trkpt lat="43.51649839900762" lon="10.83173003980036"><ele>177.0</ele><time>2026-04-18T09:40:43.999Z</time></trkpt><trkpt lat="43.51641244259059" lon="10.831835316504195"><ele>177.0</ele><time>2026-04-18T09:40:45.999Z</time></trkpt><trkpt lat="43.51630217865437" lon="10.831881752247766"><ele>177.0</ele><time>2026-04-18T09:40:47.999Z</time></trkpt><trkpt lat="43.516223933588265" lon="10.831889715055778"><ele>177.0</ele><time>2026-04-18T09:40:48.999Z</time></trkpt><trkpt lat="43.51614438932717" lon="10.831884769732907"><ele>176.16666666666666</ele><time>2026-04-18T09:40:49.999Z</time></trkpt><trkpt lat="43.516063462052045" lon="10.831858785833075"><ele>175.33333333333334</ele><time>2026-04-18T09:40:51.999Z</time></trkpt><trkpt lat="43.51599774793117" lon="10.831861719499186"><ele>174.5</ele><time>2026-04-18T09:41:40.998Z</time></trkpt><trkpt lat="43.515911120961896" lon="10.831808997328237"><ele>173.66666666666669</ele><time>2026-04-18T09:41:43.998Z</time></trkpt><trkpt lat="43.515858608338526" lon="10.831706989566639"><ele>172.83333333333334</ele><time>2026-04-18T09:41:45.998Z</time></trkpt><trkpt lat="43.51578157864838" lon="10.831594252968982"><ele>172.0</ele><time>2026-04-18T09:41:47.998Z</time></trkpt><trkpt lat="43.51568183400064" lon="10.831469781706884"><ele>175.25</ele><time>2026-04-18T09:41:49.998Z</time></trkpt><trkpt lat="43.51558762140899" lon="10.831381184990361"><ele>178.5</ele><time>2026-04-18T09:41:51.998Z</time></trkpt><trkpt lat="43.51548946932285" lon="10.831284625465823"><ele>181.75</ele><time>2026-04-18T09:41:53.998Z</time></trkpt><trkpt lat="43.51538884457528" lon="10.831197788948966"><ele>185.0</ele><time>2026-04-18T09:41:55.998Z</time></trkpt><trkpt lat="43.515278287272444" lon="10.831127045686198"><ele>185.0</ele><time>2026-04-18T09:41:57.998Z</time></trkpt><trkpt lat="43.51517213046878" lon="10.831077424819423"><ele>185.0</ele><time>2026-04-18T09:41:59.998Z</time></trkpt><trkpt lat="43.515073098282805" lon="10.83101766184981"><ele>185.0</ele><time>2026-04-18T09:42:01.998Z</time></trkpt><trkpt lat="43.51498181935727" lon="10.830974914143635"><ele>185.0</ele><time>2026-04-18T09:42:03.998Z</time></trkpt><trkpt lat="43.51487943441003" lon="10.830947672958327"><ele>185.0</ele><time>2026-04-18T09:42:05.998Z</time></trkpt><trkpt lat="43.51477721710085" lon="10.830930992971016"><ele>185.8</ele><time>2026-04-18T09:42:07.998Z</time></trkpt><trkpt lat="43.514675586524895" lon="10.830935854474856"><ele>186.6</ele><time>2026-04-18T09:42:09.998Z</time></trkpt><trkpt lat="43.51455564149051" lon="10.830932585532619"><ele>187.39999999999998</ele><time>2026-04-18T09:42:11.998Z</time></trkpt><trkpt lat="43.5144387977603" lon="10.83095362410958"><ele>188.2</ele><time>2026-04-18T09:42:13.998Z</time></trkpt><trkpt lat="43.51436474364578" lon="10.830967286611749"><ele>189.0</ele><time>2026-04-18T09:42:14.998Z</time></trkpt><trkpt lat="43.51429685023009" lon="10.83098446951325"><ele>189.0</ele><time>2026-04-18T09:42:15.998Z</time></trkpt><trkpt lat="43.51422904063343" lon="10.830999724577023"><ele>189.0</ele><time>2026-04-18T09:42:16.998Z</time></trkpt><trkpt lat="43.51415871646582" lon="10.831005508090211"><ele>189.0</ele><time>2026-04-18T09:42:17.998Z</time></trkpt><trkpt lat="43.51408357270389" lon="10.831010621051146"><ele>189.0</ele><time>2026-04-18T09:42:18.998Z</time></trkpt><trkpt lat="43.51401090160339" lon="10.831017494211746"><ele>189.0</ele><time>2026-04-18T09:42:19.997Z</time></trkpt><trkpt lat="43.51391882639705" lon="10.831016907478524"><ele>189.0</ele><time>2026-04-18T09:42:20.997Z</time></trkpt><trkpt lat="43.51384305399238" lon="10.831014560545636"><ele>189.0</ele><time>2026-04-18T09:42:21.997Z</time></trkpt><trkpt lat="43.51377344228654" lon="10.831022355715586"><ele>189.0</ele><time>2026-04-18T09:42:22.997Z</time></trkpt><trkpt lat="43.51370600987553" lon="10.831048591072513"><ele>189.0</ele><time>2026-04-18T09:42:23.997Z</time></trkpt><trkpt lat="43.51364125967353" lon="10.831088740388704"><ele>189.0</ele><time>2026-04-18T09:42:24.997Z</time></trkpt><trkpt lat="43.51357625801443" lon="10.831142971302224"><ele>189.0</ele><time>2026-04-18T09:42:25.997Z</time></trkpt><trkpt lat="43.513495791743985" lon="10.831193849454475"><ele>189.0</ele><time>2026-04-18T09:42:26.997Z</time></trkpt><trkpt lat="43.51342509039073" lon="10.831236513341619"><ele>191.5</ele><time>2026-04-18T09:42:27.997Z</time></trkpt><trkpt lat="43.513355143408766" lon="10.83124833182509"><ele>194.0</ele><time>2026-04-18T09:42:28.997Z</time></trkpt><trkpt lat="43.51329387169658" lon="10.831287140036775"><ele>196.5</ele><time>2026-04-18T09:42:29.997Z</time></trkpt><trkpt lat="43.5132273193854" lon="10.831352518881515"><ele>199.0</ele><time>2026-04-18T09:42:30.997Z</time></trkpt><trkpt lat="43.513148152309945" lon="10.831447402025416"><ele>201.5</ele><time>2026-04-18T09:42:31.997Z</time></trkpt><trkpt lat="43.513070326339" lon="10.831548152501538"><ele>204.0</ele><time>2026-04-18T09:42:32.997Z</time></trkpt><trkpt lat="43.51300607905119" lon="10.831647980968311"><ele>204.0</ele><time>2026-04-18T09:42:33.997Z</time></trkpt><trkpt lat="43.51294334050595" lon="10.831745713959291"><ele>204.0</ele><time>2026-04-18T09:42:34.997Z</time></trkpt><trkpt lat="43.51287418980478" lon="10.831838333989337"><ele>204.0</ele><time>2026-04-18T09:42:35.997Z</time></trkpt><trkpt lat="43.51278974213033" lon="10.831923661763623"><ele>204.0</ele><time>2026-04-18T09:42:36.997Z</time></trkpt><trkpt lat="43.512707641388765" lon="10.83197529428716"><ele>204.0</ele><time>2026-04-18T09:42:37.997Z</time></trkpt><trkpt lat="43.51260446016072" lon="10.832022652040079"><ele>205.33333333333334</ele><time>2026-04-18T09:42:38.997Z</time></trkpt><trkpt lat="43.51251699500113" lon="10.832061124975636"><ele>206.66666666666669</ele><time>2026-04-18T09:42:39.997Z</time></trkpt><trkpt lat="43.512437115463904" lon="10.832097083340242"><ele>208.0</ele><time>2026-04-18T09:42:40.997Z</time></trkpt><trkpt lat="43.51237546656608" lon="10.832134215171292"><ele>209.33333333333334</ele><time>2026-04-18T09:42:41.997Z</time></trkpt><trkpt lat="43.51228267889797" lon="10.832195319245413"><ele>210.66666666666669</ele><time>2026-04-18T09:42:43.997Z</time></trkpt><trkpt lat="43.51220816377877" lon="10.83227234893556"><ele>212.0</ele><time>2026-04-18T09:42:45.997Z</time></trkpt><trkpt lat="43.51212329700916" lon="10.832389611760929"><ele>212.00000000000003</ele><time>2026-04-18T09:42:47.997Z</time></trkpt><trkpt lat="43.51207728036075" lon="10.832456834624365"><ele>212.0</ele><time>2026-04-18T09:42:48.997Z</time></trkpt><trkpt lat="43.51202518683254" lon="10.832541324208334"><ele>212.0</ele><time>2026-04-18T09:42:49.997Z</time></trkpt><trkpt lat="43.51198906082987" lon="10.832624556506827"><ele>212.0</ele><time>2026-04-18T09:42:50.997Z</time></trkpt><trkpt lat="43.51195800587862" lon="10.832714829603985"><ele>212.00000000000003</ele><time>2026-04-18T09:42:51.997Z</time></trkpt><trkpt lat="43.51192196369498" lon="10.832816166813329"><ele>212.0</ele><time>2026-04-18T09:42:52.997Z</time></trkpt><trkpt lat="43.511888016987136" lon="10.83292027005072"><ele>209.83333333333334</ele><time>2026-04-18T09:42:53.997Z</time></trkpt><trkpt lat="43.511845646466604" lon="10.833027893687442"><ele>207.66666666666669</ele><time>2026-04-18T09:42:54.997Z</time></trkpt><trkpt lat="43.511795648414186" lon="10.833137109885767"><ele>205.5</ele><time>2026-04-18T09:42:55.997Z</time></trkpt><trkpt lat="43.51174024403422" lon="10.83323442378159"><ele>203.33333333333331</ele><time>2026-04-18T09:42:56.997Z</time></trkpt><trkpt lat="43.51168534256845" lon="10.833319248641686"><ele>201.16666666666666</ele><time>2026-04-18T09:42:57.997Z</time></trkpt><trkpt lat="43.51162298120885" lon="10.833395021046357"><ele>199.0</ele><time>2026-04-18T09:42:58.997Z</time></trkpt><trkpt lat="43.51155655462622" lon="10.833459729338841"><ele>199.39999999999998</ele><time>2026-04-18T09:42:59.997Z</time></trkpt><trkpt lat="43.51147839337914" lon="10.833520917231994"><ele>199.8</ele><time>2026-04-18T09:43:00.997Z</time></trkpt><trkpt lat="43.511390048119715" lon="10.83359065466638"><ele>200.2</ele><time>2026-04-18T09:43:01.997Z</time></trkpt><trkpt lat="43.51130149331271" lon="10.833672378222303"><ele>200.60000000000002</ele><time>2026-04-18T09:43:02.997Z</time></trkpt><trkpt lat="43.51121059157281" lon="10.833739852542834"><ele>201.0</ele><time>2026-04-18T09:43:03.997Z</time></trkpt><trkpt lat="43.51114487745195" lon="10.833797855312781"><ele>201.0</ele><time>2026-04-18T09:43:04.997Z</time></trkpt><trkpt lat="43.511090478900364" lon="10.833853846425967"><ele>201.0</ele><time>2026-04-18T09:43:05.997Z</time></trkpt><trkpt lat="43.511052425059965" lon="10.833996003503756"><ele>201.0</ele><time>2026-04-18T09:43:07.997Z</time></trkpt><trkpt lat="43.51108142644494" lon="10.834158193330126"><ele>201.0</ele><time>2026-04-18T09:43:09.997Z</time></trkpt><trkpt lat="43.51110791325896" lon="10.834325244660334"><ele>201.0</ele><time>2026-04-18T09:43:11.997Z</time></trkpt><trkpt lat="43.51111943837582" lon="10.83441250027235"><ele>200.66666666666666</ele><time>2026-04-18T09:43:12.997Z</time></trkpt><trkpt lat="43.51112199485629" lon="10.834505036483364"><ele>200.33333333333331</ele><time>2026-04-18T09:43:13.997Z</time></trkpt><trkpt lat="43.51112178530871" lon="10.834593884656982"><ele>200.0</ele><time>2026-04-18T09:43:14.997Z</time></trkpt><trkpt lat="43.5111103859204" lon="10.834693210209565"><ele>199.66666666666666</ele><time>2026-04-18T09:43:15.997Z</time></trkpt><trkpt lat="43.511090059805205" lon="10.834789853553133"><ele>199.33333333333331</ele><time>2026-04-18T09:43:16.997Z</time></trkpt><trkpt lat="43.51106747057616" lon="10.834871744747119"><ele>199.0</ele><time>2026-04-18T09:43:17.997Z</time></trkpt><trkpt lat="43.51100657604962" lon="10.83502228372808"><ele>198.99999999999997</ele><time>2026-04-18T09:43:19.997Z</time></trkpt><trkpt lat="43.51097774230271" lon="10.835099900151448"><ele>199.0</ele><time>2026-04-18T09:43:20.997Z</time></trkpt><trkpt lat="43.51092866625964" lon="10.835255049179155"><ele>199.0</ele><time>2026-04-18T09:43:22.997Z</time></trkpt><trkpt lat="43.510914123657635" lon="10.835342472429234"><ele>199.0</ele><time>2026-04-18T09:43:23.997Z</time></trkpt><trkpt lat="43.51089568347066" lon="10.835435343916375"><ele>198.99999999999997</ele><time>2026-04-18T09:43:24.997Z</time></trkpt><trkpt lat="43.51087099876582" lon="10.83552846686061"><ele>199.0</ele><time>2026-04-18T09:43:25.997Z</time></trkpt><trkpt lat="43.510836632962814" lon="10.835694177086312"><ele>197.85714285714283</ele><time>2026-04-18T09:43:27.997Z</time></trkpt><trkpt lat="43.51083097517817" lon="10.835782773802835"><ele>196.71428571428572</ele><time>2026-04-18T09:43:28.997Z</time></trkpt><trkpt lat="43.51083252583026" lon="10.835871621976453"><ele>195.57142857142856</ele><time>2026-04-18T09:43:29.997Z</time></trkpt><trkpt lat="43.510838141705385" lon="10.835968600596148"><ele>194.42857142857142</ele><time>2026-04-18T09:43:30.997Z</time></trkpt><trkpt lat="43.51084094964295" lon="10.83606591449197"><ele>193.28571428571428</ele><time>2026-04-18T09:43:31.997Z</time></trkpt><trkpt lat="43.510844805318406" lon="10.836160378540713"><ele>192.14285714285714</ele><time>2026-04-18T09:43:32.997Z</time></trkpt><trkpt lat="43.510847864713064" lon="10.836255261684615"><ele>191.0</ele><time>2026-04-18T09:43:33.997Z</time></trkpt><trkpt lat="43.51085327104061" lon="10.836343606944043"><ele>190.83333333333331</ele><time>2026-04-18T09:43:34.997Z</time></trkpt><trkpt lat="43.51084803235113" lon="10.836458858112652"><ele>190.66666666666666</ele><time>2026-04-18T09:43:35.997Z</time></trkpt><trkpt lat="43.51084870290338" lon="10.83656723612066"><ele>190.5</ele><time>2026-04-18T09:43:36.997Z</time></trkpt><trkpt lat="43.51083981808602" lon="10.836678128699619"><ele>190.33333333333334</ele><time>2026-04-18T09:43:37.997Z</time></trkpt><trkpt lat="43.510838435071996" lon="10.836795810620147"><ele>190.16666666666669</ele><time>2026-04-18T09:43:38.997Z</time></trkpt><trkpt lat="43.510838435071996" lon="10.83691030741747"><ele>190.0</ele><time>2026-04-18T09:43:39.997Z</time></trkpt><trkpt lat="43.51083336402058" lon="10.837016254673559"><ele>190.0</ele><time>2026-04-18T09:43:40.997Z</time></trkpt><trkpt lat="43.51082879588335" lon="10.837114322940668"><ele>190.0</ele><time>2026-04-18T09:43:41.997Z</time></trkpt><trkpt lat="43.510811235796204" lon="10.837211804474553"><ele>190.0</ele><time>2026-04-18T09:43:42.997Z</time></trkpt><trkpt lat="43.510767524171165" lon="10.8373802807283"><ele>190.0</ele><time>2026-04-18T09:43:44.996Z</time></trkpt><trkpt lat="43.51074615031808" lon="10.83746820689257"><ele>190.0</ele><time>2026-04-18T09:43:45.996Z</time></trkpt><trkpt lat="43.510720082599214" lon="10.837557306523284"><ele>190.0</ele><time>2026-04-18T09:43:46.996Z</time></trkpt><trkpt lat="43.510687686543456" lon="10.837651100019773"><ele>190.14285714285714</ele><time>2026-04-18T09:43:47.996Z</time></trkpt><trkpt lat="43.51066601932376" lon="10.837750677029451"><ele>190.28571428571428</ele><time>2026-04-18T09:43:48.996Z</time></trkpt><trkpt lat="43.510652985464326" lon="10.837843213240465"><ele>190.42857142857144</ele><time>2026-04-18T09:43:49.996Z</time></trkpt><trkpt lat="43.510646615217915" lon="10.837941030050477"><ele>190.57142857142856</ele><time>2026-04-18T09:43:50.996Z</time></trkpt><trkpt lat="43.51064556748002" lon="10.83803742193695"><ele>190.7142857142857</ele><time>2026-04-18T09:43:51.996Z</time></trkpt><trkpt lat="43.51065487139254" lon="10.838143117735942"><ele>190.85714285714286</ele><time>2026-04-18T09:43:52.996Z</time></trkpt><trkpt lat="43.510672305751136" lon="10.838251663382014"><ele>191.0</ele><time>2026-04-18T09:43:53.996Z</time></trkpt><trkpt lat="43.5106938891518" lon="10.83835358732458"><ele>191.0</ele><time>2026-04-18T09:43:54.996Z</time></trkpt><trkpt lat="43.51071857385664" lon="10.838444530973991"><ele>191.0</ele><time>2026-04-18T09:43:55.996Z</time></trkpt><trkpt lat="43.51075239483594" lon="10.838598841811379"><ele>191.0</ele><time>2026-04-18T09:43:57.996Z</time></trkpt><trkpt lat="43.510784204158476" lon="10.838753487924894"><ele>191.0</ele><time>2026-04-18T09:43:59.996Z</time></trkpt><trkpt lat="43.51078122858285" lon="10.838927160958608"><ele>191.0</ele><time>2026-04-18T09:44:01.996Z</time></trkpt><trkpt lat="43.51076861381858" lon="10.839013075466118"><ele>190.20000000000002</ele><time>2026-04-18T09:44:02.996Z</time></trkpt><trkpt lat="43.51074430629938" lon="10.839170068512521"><ele>189.4</ele><time>2026-04-18T09:44:04.996Z</time></trkpt><trkpt lat="43.51070939567267" lon="10.83930728026744"><ele>188.6</ele><time>2026-04-18T09:44:06.996Z</time></trkpt><trkpt lat="43.51066308565765" lon="10.83944021725174"><ele>187.8</ele><time>2026-04-18T09:44:08.996Z</time></trkpt><trkpt lat="43.51064908787935" lon="10.839596455926857"><ele>187.0</ele><time>2026-04-18T09:44:10.996Z</time></trkpt><trkpt lat="43.51065788887768" lon="10.839748922745548"><ele>186.5</ele><time>2026-04-18T09:44:12.996Z</time></trkpt><trkpt lat="43.510667569975844" lon="10.839899713183604"><ele>186.0</ele><time>2026-04-18T09:44:14.996Z</time></trkpt><trkpt lat="43.51068265740155" lon="10.840007085363231"><ele>185.5</ele><time>2026-04-18T09:44:16.996Z</time></trkpt><trkpt lat="43.51071174260556" lon="10.840084785605631"><ele>185.0</ele><time>2026-04-18T09:44:20.996Z</time></trkpt><trkpt lat="43.51070998240589" lon="10.840179165835343"><ele>184.5</ele><time>2026-04-18T09:48:41.998Z</time></trkpt><trkpt lat="43.510728883597544" lon="10.84032903426405"><ele>184.0</ele><time>2026-04-18T09:48:43.998Z</time></trkpt><trkpt lat="43.51074158218085" lon="10.840488625700436"><ele>183.79999999999998</ele><time>2026-04-18T09:48:45.998Z</time></trkpt><trkpt lat="43.51075981282025" lon="10.840640673423968"><ele>183.6</ele><time>2026-04-18T09:48:47.998Z</time></trkpt><trkpt lat="43.510775319341114" lon="10.840743687013946"><ele>183.4</ele><time>2026-04-18T09:48:48.998Z</time></trkpt><trkpt lat="43.510788269381514" lon="10.84087184631344"><ele>183.2</ele><time>2026-04-18T09:48:49.998Z</time></trkpt><trkpt lat="43.510803440626255" lon="10.841012327010596"><ele>183.0</ele><time>2026-04-18T09:48:50.998Z</time></trkpt><trkpt lat="43.51081136152475" lon="10.84114300088104"><ele>183.0</ele><time>2026-04-18T09:48:51.998Z</time></trkpt><trkpt lat="43.51081743840455" lon="10.841271411637628"><ele>183.0</ele><time>2026-04-18T09:48:52.998Z</time></trkpt><trkpt lat="43.51081945006131" lon="10.841385908434951"><ele>183.0</ele><time>2026-04-18T09:48:53.998Z</time></trkpt><trkpt lat="43.51083667487233" lon="10.84150560201224"><ele>183.0</ele><time>2026-04-18T09:48:54.998Z</time></trkpt><trkpt lat="43.510847361798874" lon="10.841623703027928"><ele>183.0</ele><time>2026-04-18T09:48:55.998Z</time></trkpt><trkpt lat="43.51086588580488" lon="10.841745156804883"><ele>183.0</ele><time>2026-04-18T09:48:56.998Z</time></trkpt><trkpt lat="43.51089656357049" lon="10.841870130981171"><ele>183.4</ele><time>2026-04-18T09:48:57.998Z</time></trkpt><trkpt lat="43.510939017910054" lon="10.841989573101365"><ele>183.8</ele><time>2026-04-18T09:48:58.998Z</time></trkpt><trkpt lat="43.51098365154444" lon="10.84210264497515"><ele>184.2</ele><time>2026-04-18T09:48:59.998Z</time></trkpt><trkpt lat="43.51102727935045" lon="10.842215716848933"><ele>184.6</ele><time>2026-04-18T09:49:00.998Z</time></trkpt><trkpt lat="43.511060513596526" lon="10.842330968017542"><ele>185.0</ele><time>2026-04-18T09:49:01.998Z</time></trkpt><trkpt lat="43.51108498875379" lon="10.842473125095331"><ele>185.0</ele><time>2026-04-18T09:49:02.998Z</time></trkpt><trkpt lat="43.51109437648534" lon="10.842602206404173"><ele>185.0</ele><time>2026-04-18T09:49:03.998Z</time></trkpt><trkpt lat="43.51109487939953" lon="10.842753332118356"><ele>185.0</ele><time>2026-04-18T09:49:04.998Z</time></trkpt><trkpt lat="43.51109001789569" lon="10.842900266880955"><ele>185.0</ele><time>2026-04-18T09:49:05.998Z</time></trkpt><trkpt lat="43.51108222272574" lon="10.843048794205155"><ele>185.0</ele><time>2026-04-18T09:49:06.998Z</time></trkpt><trkpt lat="43.51106462072908" lon="10.84318734706458"><ele>184.6</ele><time>2026-04-18T09:49:07.998Z</time></trkpt><trkpt lat="43.51104651581823" lon="10.843332353989448"><ele>184.2</ele><time>2026-04-18T09:49:08.998Z</time></trkpt><trkpt lat="43.511028662364474" lon="10.843471242125"><ele>183.8</ele><time>2026-04-18T09:49:09.998Z</time></trkpt><trkpt lat="43.511010641272655" lon="10.843614991764392"><ele>183.4</ele><time>2026-04-18T09:49:10.998Z</time></trkpt><trkpt lat="43.510993039275995" lon="10.843754801909293"><ele>183.0</ele><time>2026-04-18T09:49:11.998Z</time></trkpt><trkpt lat="43.510988177772155" lon="10.843912214050855"><ele>182.2</ele><time>2026-04-18T09:49:12.998Z</time></trkpt><trkpt lat="43.510993542190185" lon="10.844064010317291"><ele>181.4</ele><time>2026-04-18T09:49:13.998Z</time></trkpt><trkpt lat="43.51100393575012" lon="10.84421295673665"><ele>180.6</ele><time>2026-04-18T09:49:14.998Z</time></trkpt><trkpt lat="43.51101906508534" lon="10.844352850700583"><ele>179.79999999999998</ele><time>2026-04-18T09:49:15.998Z</time></trkpt><trkpt lat="43.51103788245796" lon="10.844487799341644"><ele>179.0</ele><time>2026-04-18T09:49:16.998Z</time></trkpt><trkpt lat="43.511067512485674" lon="10.844615707184042"><ele>178.66666666666666</ele><time>2026-04-18T09:49:17.997Z</time></trkpt><trkpt lat="43.511104225221565" lon="10.844732970009414"><ele>178.33333333333331</ele><time>2026-04-18T09:49:18.997Z</time></trkpt><trkpt lat="43.51114584137081" lon="10.844848221178022"><ele>178.0</ele><time>2026-04-18T09:49:19.997Z</time></trkpt><trkpt lat="43.51119303148567" lon="10.844952240596381"><ele>177.66666666666666</ele><time>2026-04-18T09:49:20.997Z</time></trkpt><trkpt lat="43.5112388385865" lon="10.845045866454807"><ele>177.33333333333334</ele><time>2026-04-18T09:49:21.997Z</time></trkpt><trkpt lat="43.51128783081054" lon="10.845151478434769"><ele>177.0</ele><time>2026-04-18T09:49:22.997Z</time></trkpt><trkpt lat="43.51134151690035" lon="10.84526144900438"><ele>177.0</ele><time>2026-04-18T09:49:23.997Z</time></trkpt><trkpt lat="43.51139507726162" lon="10.845368150631753"><ele>177.0</ele><time>2026-04-18T09:49:24.997Z</time></trkpt><trkpt lat="43.5114529123935" lon="10.845468984926907"><ele>177.0</ele><time>2026-04-18T09:49:25.997Z</time></trkpt><trkpt lat="43.51151229817747" lon="10.845571830878821"><ele>177.0</ele><time>2026-04-18T09:49:26.997Z</time></trkpt><trkpt lat="43.51157092959016" lon="10.845674006278482"><ele>177.0</ele><time>2026-04-18T09:49:27.997Z</time></trkpt><trkpt lat="43.511624783318034" lon="10.845775427306858"><ele>177.0</ele><time>2026-04-18T09:49:28.997Z</time></trkpt><trkpt lat="43.51167230870902" lon="10.8458820451152"><ele>177.0</ele><time>2026-04-18T09:49:29.997Z</time></trkpt><trkpt lat="43.511704788583806" lon="10.845999559397665"><ele>177.0</ele><time>2026-04-18T09:49:30.997Z</time></trkpt><trkpt lat="43.51172046274274" lon="10.846142219389645"><ele>177.0</ele><time>2026-04-18T09:49:31.997Z</time></trkpt><trkpt lat="43.511725030879965" lon="10.846289740885464"><ele>177.0</ele><time>2026-04-18T09:49:32.997Z</time></trkpt><trkpt lat="43.51171509832471" lon="10.846444135541883"><ele>177.39999999999998</ele><time>2026-04-18T09:49:33.997Z</time></trkpt><trkpt lat="43.511699424165776" lon="10.846599116931527"><ele>177.79999999999998</ele><time>2026-04-18T09:49:34.997Z</time></trkpt><trkpt lat="43.51168219935476" lon="10.846727695326178"><ele>178.2</ele><time>2026-04-18T09:49:35.997Z</time></trkpt><trkpt lat="43.51166283715843" lon="10.846863901252716"><ele>178.6</ele><time>2026-04-18T09:49:36.997Z</time></trkpt><trkpt lat="43.51164087657212" lon="10.846989545981257"><ele>179.0</ele><time>2026-04-18T09:49:37.997Z</time></trkpt><trkpt lat="43.51162792653172" lon="10.847098007808297"><ele>179.0</ele><time>2026-04-18T09:49:38.997Z</time></trkpt><trkpt lat="43.51162570532738" lon="10.84719096311447"><ele>179.0</ele><time>2026-04-18T09:49:39.997Z</time></trkpt><trkpt lat="43.51163936782955" lon="10.847335970039337"><ele>179.0</ele><time>2026-04-18T09:49:41.997Z</time></trkpt><trkpt lat="43.511662418063274" lon="10.847455663616627"><ele>179.0</ele><time>2026-04-18T09:49:43.997Z</time></trkpt><trkpt lat="43.51168672558247" lon="10.847562951977222"><ele>179.0</ele><time>2026-04-18T09:49:45.997Z</time></trkpt><trkpt lat="43.51169946607529" lon="10.847653811807602"><ele>179.0</ele><time>2026-04-18T09:49:46.997Z</time></trkpt><trkpt lat="43.511706213507345" lon="10.84779001773414"><ele>179.0</ele><time>2026-04-18T09:49:47.997Z</time></trkpt><trkpt lat="43.511720881837896" lon="10.847910130406587"><ele>179.0</ele><time>2026-04-18T09:49:48.997Z</time></trkpt><trkpt lat="43.511731401126376" lon="10.848028063784211"><ele>179.0</ele><time>2026-04-18T09:49:49.997Z</time></trkpt><trkpt lat="43.51174053740083" lon="10.848128730441301"><ele>179.0</ele><time>2026-04-18T09:49:50.997Z</time></trkpt><trkpt lat="43.51174929648965" lon="10.84823710844931"><ele>179.0</ele><time>2026-04-18T09:49:51.997Z</time></trkpt><trkpt lat="43.51176849104791" lon="10.848341630781858"><ele>179.0</ele><time>2026-04-18T09:49:52.997Z</time></trkpt><trkpt lat="43.5117948940429" lon="10.84845554084596"><ele>177.6</ele><time>2026-04-18T09:49:53.997Z</time></trkpt><trkpt lat="43.51182930175542" lon="10.84856492468235"><ele>176.2</ele><time>2026-04-18T09:49:54.997Z</time></trkpt><trkpt lat="43.511861111077955" lon="10.848706914122076"><ele>174.79999999999998</ele><time>2026-04-18T09:49:55.997Z</time></trkpt><trkpt lat="43.51190955847829" lon="10.848861308778496"><ele>173.39999999999998</ele><time>2026-04-18T09:49:56.997Z</time></trkpt><trkpt lat="43.51195993371635" lon="10.848991815010876"><ele>172.0</ele><time>2026-04-18T09:49:57.997Z</time></trkpt><trkpt lat="43.51202011578112" lon="10.849113771702022"><ele>172.2</ele><time>2026-04-18T09:49:58.997Z</time></trkpt><trkpt lat="43.51209173914372" lon="10.84923530929801"><ele>172.39999999999998</ele><time>2026-04-18T09:49:59.997Z</time></trkpt><trkpt lat="43.512160177383116" lon="10.849348297352762"><ele>172.60000000000002</ele><time>2026-04-18T09:50:00.997Z</time></trkpt><trkpt lat="43.512231004464915" lon="10.849459022293658"><ele>172.8</ele><time>2026-04-18T09:50:01.997Z</time></trkpt><trkpt lat="43.512304052751055" lon="10.849558683122368"><ele>173.0</ele><time>2026-04-18T09:50:02.997Z</time></trkpt><trkpt lat="43.512369724962404" lon="10.849652979533047"><ele>173.0</ele><time>2026-04-18T09:50:03.997Z</time></trkpt><trkpt lat="43.51242236331432" lon="10.849733194346399"><ele>173.0</ele><time>2026-04-18T09:50:04.997Z</time></trkpt><trkpt lat="43.51248024035572" lon="10.849819025034876"><ele>173.0</ele><time>2026-04-18T09:50:05.997Z</time></trkpt><trkpt lat="43.512546583119324" lon="10.849912902350397"><ele>173.0</ele><time>2026-04-18T09:50:06.997Z</time></trkpt><trkpt lat="43.51261271633535" lon="10.84999957122919"><ele>173.0</ele><time>2026-04-18T09:50:07.997Z</time></trkpt><trkpt lat="43.51268019065588" lon="10.850089089955063"><ele>173.0</ele><time>2026-04-18T09:50:08.997Z</time></trkpt><trkpt lat="43.51274908989995" lon="10.850164527083606"><ele>172.4</ele><time>2026-04-18T09:50:09.997Z</time></trkpt><trkpt lat="43.512823395471564" lon="10.850252788524003"><ele>171.8</ele><time>2026-04-18T09:50:10.997Z</time></trkpt><trkpt lat="43.512896946671894" lon="10.850343899811477"><ele>171.2</ele><time>2026-04-18T09:50:11.997Z</time></trkpt><trkpt lat="43.51296748038708" lon="10.850425707186433"><ele>170.6</ele><time>2026-04-18T09:50:12.997Z</time></trkpt><trkpt lat="43.513028961646846" lon="10.85049930029628"><ele>170.0</ele><time>2026-04-18T09:50:13.997Z</time></trkpt><trkpt lat="43.51308294110327" lon="10.850585214803788"><ele>170.0</ele><time>2026-04-18T09:50:14.997Z</time></trkpt><trkpt lat="43.51313050840377" lon="10.850666686902615"><ele>170.0</ele><time>2026-04-18T09:50:15.997Z</time></trkpt><trkpt lat="43.513169190886906" lon="10.850751344124648"><ele>170.0</ele><time>2026-04-18T09:50:16.997Z</time></trkpt><trkpt lat="43.51318511650293" lon="10.850852765153023"><ele>170.0</ele><time>2026-04-18T09:50:17.997Z</time></trkpt><trkpt lat="43.513170112896255" lon="10.85095326417205"><ele>170.0</ele><time>2026-04-18T09:50:18.997Z</time></trkpt><trkpt lat="43.513138052116624" lon="10.851042531440827"><ele>170.0</ele><time>2026-04-18T09:50:19.997Z</time></trkpt><trkpt lat="43.513096142600766" lon="10.851132888357016"><ele>170.0</ele><time>2026-04-18T09:50:20.997Z</time></trkpt><trkpt lat="43.51305490363716" lon="10.851256772885892"><ele>170.5</ele><time>2026-04-18T09:50:21.997Z</time></trkpt><trkpt lat="43.513019154820135" lon="10.851418208340975"><ele>171.0</ele><time>2026-04-18T09:50:22.997Z</time></trkpt><trkpt lat="43.51299706850528" lon="10.851587858061167"><ele>171.5</ele><time>2026-04-18T09:50:23.997Z</time></trkpt><trkpt lat="43.51298277736037" lon="10.851736469204399"><ele>172.0</ele><time>2026-04-18T09:50:24.997Z</time></trkpt><trkpt lat="43.51295964330762" lon="10.851882817233774"><ele>172.0</ele><time>2026-04-18T09:50:25.997Z</time></trkpt><trkpt lat="43.51291718896805" lon="10.852037128071162"><ele>172.0</ele><time>2026-04-18T09:50:26.997Z</time></trkpt><trkpt lat="43.51288240406989" lon="10.85217727349219"><ele>172.0</ele><time>2026-04-18T09:50:27.997Z</time></trkpt><trkpt lat="43.512840410735" lon="10.852298811088177"><ele>172.0</ele><time>2026-04-18T09:50:28.997Z</time></trkpt><trkpt lat="43.51279766302883" lon="10.85240928457198"><ele>172.0</ele><time>2026-04-18T09:50:29.997Z</time></trkpt><trkpt lat="43.512751562561384" lon="10.852520931522225"><ele>172.39999999999998</ele><time>2026-04-18T09:50:30.997Z</time></trkpt><trkpt lat="43.51268090311765" lon="10.85261254572389"><ele>172.79999999999998</ele><time>2026-04-18T09:50:31.997Z</time></trkpt><trkpt lat="43.512605549808136" lon="10.85268387571988"><ele>173.2</ele><time>2026-04-18T09:50:32.997Z</time></trkpt><trkpt lat="43.5125150671634" lon="10.852754032249425"><ele>173.6</ele><time>2026-04-18T09:50:33.997Z</time></trkpt><trkpt lat="43.512437702197126" lon="10.85283734836695"><ele>174.0</ele><time>2026-04-18T09:50:34.997Z</time></trkpt><trkpt lat="43.51238472856908" lon="10.852943630899166"><ele>174.25</ele><time>2026-04-18T09:50:35.997Z</time></trkpt><trkpt lat="43.512353841255894" lon="10.85305913352487"><ele>174.5</ele><time>2026-04-18T09:50:36.996Z</time></trkpt><trkpt lat="43.51233405996441" lon="10.853215707476114"><ele>174.75</ele><time>2026-04-18T09:50:37.996Z</time></trkpt><trkpt lat="43.51233368277877" lon="10.853396253670429"><ele>175.0</ele><time>2026-04-18T09:50:38.996Z</time></trkpt><trkpt lat="43.512330958660236" lon="10.853581912825678"><ele>175.0</ele><time>2026-04-18T09:50:39.996Z</time></trkpt><trkpt lat="43.51232169665723" lon="10.853762542839025"><ele>175.0</ele><time>2026-04-18T09:50:40.996Z</time></trkpt><trkpt lat="43.51231532641082" lon="10.853907046849702"><ele>175.0</ele><time>2026-04-18T09:50:41.996Z</time></trkpt><trkpt lat="43.51231344048261" lon="10.854039648557876"><ele>175.0</ele><time>2026-04-18T09:50:42.996Z</time></trkpt><trkpt lat="43.512307405512324" lon="10.854177363226984"><ele>175.0</ele><time>2026-04-18T09:50:43.996Z</time></trkpt><trkpt lat="43.512293743010154" lon="10.85431683809576"><ele>175.25</ele><time>2026-04-18T09:50:44.996Z</time></trkpt><trkpt lat="43.512287456582776" lon="10.854471400390244"><ele>175.5</ele><time>2026-04-18T09:50:45.996Z</time></trkpt><trkpt lat="43.51227928422718" lon="10.854645492519117"><ele>175.75</ele><time>2026-04-18T09:50:46.996Z</time></trkpt><trkpt lat="43.512267423834196" lon="10.854812879125452"><ele>176.0</ele><time>2026-04-18T09:50:47.996Z</time></trkpt><trkpt lat="43.51225359369396" lon="10.854981523017264"><ele>176.25</ele><time>2026-04-18T09:50:48.996Z</time></trkpt><trkpt lat="43.51224491842418" lon="10.855141952643967"><ele>176.5</ele><time>2026-04-18T09:50:49.996Z</time></trkpt><trkpt lat="43.512226352508655" lon="10.855308081964827"><ele>176.75</ele><time>2026-04-18T09:50:50.996Z</time></trkpt><trkpt lat="43.512206529307655" lon="10.85547287018118"><ele>177.0</ele><time>2026-04-18T09:50:51.996Z</time></trkpt><trkpt lat="43.51219089705824" lon="10.855651153261638"><ele>177.0</ele><time>2026-04-18T09:50:52.996Z</time></trkpt><trkpt lat="43.51217337888061" lon="10.855830023075319"><ele>177.0</ele><time>2026-04-18T09:50:53.996Z</time></trkpt><trkpt lat="43.512164535972765" lon="10.8560157660496"><ele>177.0</ele><time>2026-04-18T09:50:54.996Z</time></trkpt><trkpt lat="43.51214881990432" lon="10.856217769916036"><ele>177.0</ele><time>2026-04-18T09:50:55.996Z</time></trkpt><trkpt lat="43.51212229118078" lon="10.856401417414524"><ele>177.8</ele><time>2026-04-18T09:50:56.996Z</time></trkpt><trkpt lat="43.51210196506559" lon="10.856573162610509"><ele>178.6</ele><time>2026-04-18T09:50:57.996Z</time></trkpt><trkpt lat="43.51208155513137" lon="10.856723450134375"><ele>179.4</ele><time>2026-04-18T09:50:58.996Z</time></trkpt><trkpt lat="43.51205867253571" lon="10.856853621090629"><ele>180.20000000000002</ele><time>2026-04-18T09:50:59.996Z</time></trkpt><trkpt lat="43.5120462254095" lon="10.856976918886282"><ele>181.0</ele><time>2026-04-18T09:51:00.996Z</time></trkpt><trkpt lat="43.512036753858915" lon="10.857100971053221"><ele>181.0</ele><time>2026-04-18T09:51:01.996Z</time></trkpt><trkpt lat="43.51204216018646" lon="10.857232147837856"><ele>181.0</ele><time>2026-04-18T09:51:02.996Z</time></trkpt><trkpt lat="43.51205976218312" lon="10.857365503917315"><ele>181.0</ele><time>2026-04-18T09:51:03.996Z</time></trkpt><trkpt lat="43.512083399150065" lon="10.857505314062216"><ele>181.0</ele><time>2026-04-18T09:51:04.996Z</time></trkpt><trkpt lat="43.51211918987661" lon="10.857650488625147"><ele>181.0</ele><time>2026-04-18T09:51:05.996Z</time></trkpt><trkpt lat="43.51215753708362" lon="10.857781833047845"><ele>181.4</ele><time>2026-04-18T09:51:06.996Z</time></trkpt><trkpt lat="43.51220351182251" lon="10.857917284603097"><ele>181.8</ele><time>2026-04-18T09:51:07.996Z</time></trkpt><trkpt lat="43.51224240385323" lon="10.858042845512609"><ele>182.20000000000002</ele><time>2026-04-18T09:51:08.996Z</time></trkpt><trkpt lat="43.51227861367493" lon="10.858162958185057"><ele>182.60000000000002</ele><time>2026-04-18T09:51:09.996Z</time></trkpt><trkpt lat="43.512311554554394" lon="10.858277203525285"><ele>183.0</ele><time>2026-04-18T09:51:10.996Z</time></trkpt><trkpt lat="43.512353338341704" lon="10.858392706150989"><ele>182.4</ele><time>2026-04-18T09:51:11.996Z</time></trkpt><trkpt lat="43.51239130836307" lon="10.858498904864172"><ele>181.8</ele><time>2026-04-18T09:51:12.996Z</time></trkpt><trkpt lat="43.51242571607559" lon="10.858608623976687"><ele>181.2</ele><time>2026-04-18T09:51:13.996Z</time></trkpt><trkpt lat="43.51247177463352" lon="10.858714990327934"><ele>180.6</ele><time>2026-04-18T09:51:14.996Z</time></trkpt><trkpt lat="43.51252386816173" lon="10.858821189041118"><ele>180.0</ele><time>2026-04-18T09:51:15.996Z</time></trkpt><trkpt lat="43.51259343795805" lon="10.858926549563984"><ele>180.0</ele><time>2026-04-18T09:51:16.996Z</time></trkpt><trkpt lat="43.51266552232533" lon="10.859036687771658"><ele>180.0</ele><time>2026-04-18T09:51:17.996Z</time></trkpt><trkpt lat="43.51274732970028" lon="10.859147496531586"><ele>180.0</ele><time>2026-04-18T09:51:18.996Z</time></trkpt><trkpt lat="43.512813882011464" lon="10.859252689416389"><ele>180.0</ele><time>2026-04-18T09:51:19.996Z</time></trkpt><trkpt lat="43.512888439040175" lon="10.85935779848216"><ele>180.0</ele><time>2026-04-18T09:51:20.996Z</time></trkpt><trkpt lat="43.51296986922949" lon="10.859465254480819"><ele>181.0</ele><time>2026-04-18T09:51:21.996Z</time></trkpt><trkpt lat="43.513052850070885" lon="10.859557036320547"><ele>182.0</ele><time>2026-04-18T09:51:22.996Z</time></trkpt><trkpt lat="43.513134908902934" lon="10.859640939171294"><ele>183.0</ele><time>2026-04-18T09:51:23.996Z</time></trkpt><trkpt lat="43.51321864411562" lon="10.85973598995326"><ele>184.0</ele><time>2026-04-18T09:51:24.996Z</time></trkpt><trkpt lat="43.513306989375046" lon="10.859845709065775"><ele>185.0</ele><time>2026-04-18T09:51:25.996Z</time></trkpt><trkpt lat="43.51339265242546" lon="10.859966911385637"><ele>185.0</ele><time>2026-04-18T09:51:26.996Z</time></trkpt><trkpt lat="43.51346683226853" lon="10.860080821449738"><ele>185.0</ele><time>2026-04-18T09:51:27.996Z</time></trkpt><trkpt lat="43.51354004819273" lon="10.860199341560584"><ele>185.0</ele><time>2026-04-18T09:51:28.996Z</time></trkpt><trkpt lat="43.51361431185483" lon="10.860303109521848"><ele>185.0</ele><time>2026-04-18T09:51:29.996Z</time></trkpt><trkpt lat="43.51368522275566" lon="10.860391957695466"><ele>185.0</ele><time>2026-04-18T09:51:30.996Z</time></trkpt><trkpt lat="43.51375940259873" lon="10.860458677644711"><ele>186.5</ele><time>2026-04-18T09:51:31.996Z</time></trkpt><trkpt lat="43.513832911889544" lon="10.8605162613195"><ele>188.0</ele><time>2026-04-18T09:51:32.996Z</time></trkpt><trkpt lat="43.51390843283712" lon="10.860544005418998"><ele>189.5</ele><time>2026-04-18T09:51:33.996Z</time></trkpt><trkpt lat="43.51397749971925" lon="10.860567893843037"><ele>191.0</ele><time>2026-04-18T09:51:34.996Z</time></trkpt><trkpt lat="43.514045057858816" lon="10.860597314323169"><ele>192.50000000000003</ele><time>2026-04-18T09:51:35.996Z</time></trkpt><trkpt lat="43.51411550775497" lon="10.860650204132181"><ele>194.0</ele><time>2026-04-18T09:51:36.996Z</time></trkpt><trkpt lat="43.514167391735604" lon="10.860706111426335"><ele>194.0</ele><time>2026-04-18T09:51:37.996Z</time></trkpt><trkpt lat="43.514218060340276" lon="10.860779955993277"><ele>194.0</ele><time>2026-04-18T09:51:38.996Z</time></trkpt><trkpt lat="43.51427480582475" lon="10.860882634307128"><ele>194.0</ele><time>2026-04-18T09:51:39.996Z</time></trkpt><trkpt lat="43.514327863271824" lon="10.861017247672063"><ele>194.0</ele><time>2026-04-18T09:51:40.996Z</time></trkpt><trkpt lat="43.51436352826982" lon="10.861164014796596"><ele>194.0</ele><time>2026-04-18T09:51:41.996Z</time></trkpt><trkpt lat="43.51438951216965" lon="10.861302400017959"><ele>195.33333333333334</ele><time>2026-04-18T09:51:42.996Z</time></trkpt><trkpt lat="43.5144084133613" lon="10.86141924374817"><ele>196.66666666666669</ele><time>2026-04-18T09:51:43.996Z</time></trkpt><trkpt lat="43.51441935174494" lon="10.861519323672038"><ele>198.0</ele><time>2026-04-18T09:51:44.996Z</time></trkpt><trkpt lat="43.51438645277499" lon="10.861676149080377"><ele>199.33333333333331</ele><time>2026-04-18T09:51:46.996Z</time></trkpt><trkpt lat="43.514351416419736" lon="10.861749826009255"><ele>200.66666666666666</ele><time>2026-04-18T09:51:47.996Z</time></trkpt><trkpt lat="43.51429064762174" lon="10.86180673913179"><ele>202.0</ele><time>2026-04-18T09:51:48.996Z</time></trkpt><trkpt lat="43.51423105229019" lon="10.861849822114094"><ele>202.49999999999997</ele><time>2026-04-18T09:51:49.996Z</time></trkpt><trkpt lat="43.51416408088385" lon="10.861907992522104"><ele>203.0</ele><time>2026-04-18T09:51:50.996Z</time></trkpt><trkpt lat="43.514095852192035" lon="10.861974963928445"><ele>203.5</ele><time>2026-04-18T09:51:51.996Z</time></trkpt><trkpt lat="43.51404208228319" lon="10.86205828004597"><ele>204.0</ele><time>2026-04-18T09:51:52.996Z</time></trkpt><trkpt lat="43.51398906674563" lon="10.86213991978286"><ele>204.49999999999997</ele><time>2026-04-18T09:51:53.996Z</time></trkpt><trkpt lat="43.51394476838737" lon="10.862228684137447"><ele>205.0</ele><time>2026-04-18T09:51:54.996Z</time></trkpt><trkpt lat="43.5139147192645" lon="10.862326500947459"><ele>204.99999999999997</ele><time>2026-04-18T09:51:55.995Z</time></trkpt><trkpt lat="43.5138930520448" lon="10.862419456253631"><ele>205.0</ele><time>2026-04-18T09:51:56.995Z</time></trkpt><trkpt lat="43.51388022773295" lon="10.862523308033927"><ele>205.0</ele><time>2026-04-18T09:51:57.995Z</time></trkpt><trkpt lat="43.51387708451926" lon="10.862634787346108"><ele>205.0</ele><time>2026-04-18T09:51:58.995Z</time></trkpt><trkpt lat="43.51388261657535" lon="10.862748865048273"><ele>204.99999999999997</ele><time>2026-04-18T09:51:59.995Z</time></trkpt><trkpt lat="43.51389682390123" lon="10.862862858931406"><ele>205.0</ele><time>2026-04-18T09:52:00.995Z</time></trkpt><trkpt lat="43.513921424787036" lon="10.862975008795841"><ele>206.0</ele><time>2026-04-18T09:52:01.995Z</time></trkpt><trkpt lat="43.513961490284196" lon="10.863087996850593"><ele>207.0</ele><time>2026-04-18T09:52:02.995Z</time></trkpt><trkpt lat="43.514020582701555" lon="10.863205846409185"><ele>208.0</ele><time>2026-04-18T09:52:03.995Z</time></trkpt><trkpt lat="43.51408093240439" lon="10.863316403712018"><ele>209.0</ele><time>2026-04-18T09:52:04.995Z</time></trkpt><trkpt lat="43.51413696542709" lon="10.863412125046237"><ele>210.0</ele><time>2026-04-18T09:52:05.995Z</time></trkpt><trkpt lat="43.51418859795063" lon="10.863497201363428"><ele>210.85714285714286</ele><time>2026-04-18T09:52:06.995Z</time></trkpt><trkpt lat="43.514212905469826" lon="10.86359309033571"><ele>211.71428571428572</ele><time>2026-04-18T09:52:07.995Z</time></trkpt><trkpt lat="43.514232225756636" lon="10.863690990964754"><ele>212.57142857142856</ele><time>2026-04-18T09:52:08.995Z</time></trkpt><trkpt lat="43.514251965138605" lon="10.863790819431529"><ele>213.42857142857144</ele><time>2026-04-18T09:52:09.995Z</time></trkpt><trkpt lat="43.51425586272358" lon="10.863884277651891"><ele>214.28571428571428</ele><time>2026-04-18T09:52:10.995Z</time></trkpt><trkpt lat="43.51426772311657" lon="10.863981088633523"><ele>215.14285714285714</ele><time>2026-04-18T09:52:11.995Z</time></trkpt><trkpt lat="43.514278158586016" lon="10.864089131365404"><ele>216.0</ele><time>2026-04-18T09:52:12.995Z</time></trkpt><trkpt lat="43.5142857861179" lon="10.864199604849205"><ele>217.5</ele><time>2026-04-18T09:52:13.995Z</time></trkpt><trkpt lat="43.51429542530655" lon="10.864309910694942"><ele>219.0</ele><time>2026-04-18T09:52:14.995Z</time></trkpt><trkpt lat="43.514297688420406" lon="10.864419043074236"><ele>220.5</ele><time>2026-04-18T09:52:15.995Z</time></trkpt><trkpt lat="43.51430967454194" lon="10.864532198767051"><ele>222.0</ele><time>2026-04-18T09:52:16.995Z</time></trkpt><trkpt lat="43.51432241503476" lon="10.864643845717296"><ele>223.5</ele><time>2026-04-18T09:52:17.995Z</time></trkpt><trkpt lat="43.51432756990521" lon="10.864761946732983"><ele>225.0</ele><time>2026-04-18T09:52:18.995Z</time></trkpt><trkpt lat="43.51433306005179" lon="10.864872420216784"><ele>225.0</ele><time>2026-04-18T09:52:19.995Z</time></trkpt><trkpt lat="43.514344836625746" lon="10.865002842630133"><ele>225.0</ele><time>2026-04-18T09:52:20.995Z</time></trkpt><trkpt lat="43.514359002042106" lon="10.865125050778374"><ele>225.0</ele><time>2026-04-18T09:52:21.995Z</time></trkpt><trkpt lat="43.51437744222908" lon="10.86525631138204"><ele>225.0</ele><time>2026-04-18T09:52:22.995Z</time></trkpt><trkpt lat="43.5144023364815" lon="10.865385392690882"><ele>225.0</ele><time>2026-04-18T09:52:23.995Z</time></trkpt><trkpt lat="43.514413442503205" lon="10.865510031591043"><ele>227.0</ele><time>2026-04-18T09:52:24.995Z</time></trkpt><trkpt lat="43.514421237673155" lon="10.865630647177682"><ele>229.0</ele><time>2026-04-18T09:52:25.995Z</time></trkpt><trkpt lat="43.51443381052791" lon="10.865754950801717"><ele>231.0</ele><time>2026-04-18T09:52:26.995Z</time></trkpt><trkpt lat="43.51445099342941" lon="10.865884451205718"><ele>233.0</ele><time>2026-04-18T09:52:27.995Z</time></trkpt><trkpt lat="43.514462518546274" lon="10.86603607983409"><ele>235.0</ele><time>2026-04-18T09:52:28.995Z</time></trkpt><trkpt lat="43.5144913942027" lon="10.866192653785335"><ele>234.8</ele><time>2026-04-18T09:52:29.995Z</time></trkpt><trkpt lat="43.51451767146914" lon="10.866338331262456"><ele>234.6</ele><time>2026-04-18T09:52:30.995Z</time></trkpt><trkpt lat="43.514548307325235" lon="10.866476381207692"><ele>234.39999999999998</ele><time>2026-04-18T09:52:31.995Z</time></trkpt><trkpt lat="43.514568842988005" lon="10.866622142503845"><ele>234.2</ele><time>2026-04-18T09:52:32.995Z</time></trkpt><trkpt lat="43.51457445886313" lon="10.866771340380298"><ele>234.0</ele><time>2026-04-18T09:52:33.995Z</time></trkpt><trkpt lat="43.51457144137799" lon="10.86691358127712"><ele>234.0</ele><time>2026-04-18T09:52:34.995Z</time></trkpt><trkpt lat="43.5145672504264" lon="10.867055989812004"><ele>234.0</ele><time>2026-04-18T09:52:35.995Z</time></trkpt><trkpt lat="43.51459289905011" lon="10.867219688380944"><ele>234.0</ele><time>2026-04-18T09:52:36.995Z</time></trkpt><trkpt lat="43.51464130454092" lon="10.867372658113824"><ele>234.0</ele><time>2026-04-18T09:52:37.995Z</time></trkpt><trkpt lat="43.51469658319234" lon="10.867527052770244"><ele>235.75</ele><time>2026-04-18T09:52:38.995Z</time></trkpt><trkpt lat="43.51475320294826" lon="10.867685973654378"><ele>237.5</ele><time>2026-04-18T09:52:39.995Z</time></trkpt><trkpt lat="43.51481040943741" lon="10.867837183187593"><ele>239.25</ele><time>2026-04-18T09:52:40.995Z</time></trkpt><trkpt lat="43.51487260315894" lon="10.867963498468388"><ele>241.0</ele><time>2026-04-18T09:52:41.995Z</time></trkpt><trkpt lat="43.51493362341403" lon="10.868077324713457"><ele>241.0</ele><time>2026-04-18T09:52:42.995Z</time></trkpt><trkpt lat="43.514997325878134" lon="10.86818838493048"><ele>241.0</ele><time>2026-04-18T09:52:43.995Z</time></trkpt><trkpt lat="43.51506178271352" lon="10.868306569765199"><ele>241.0</ele><time>2026-04-18T09:52:44.995Z</time></trkpt><trkpt lat="43.515131478238395" lon="10.868433387960184"><ele>241.0</ele><time>2026-04-18T09:52:45.995Z</time></trkpt><trkpt lat="43.51520984903305" lon="10.86856758222996"><ele>240.0</ele><time>2026-04-18T09:52:46.995Z</time></trkpt><trkpt lat="43.515290315303496" lon="10.868701525042642"><ele>239.0</ele><time>2026-04-18T09:52:47.995Z</time></trkpt><trkpt lat="43.51537698418229" lon="10.868831612179864"><ele>238.0</ele><time>2026-04-18T09:52:48.995Z</time></trkpt><trkpt lat="43.51547035858362" lon="10.868958514193881"><ele>237.0</ele><time>2026-04-18T09:52:49.995Z</time></trkpt><trkpt lat="43.51556951649814" lon="10.869086757312406"><ele>239.5</ele><time>2026-04-18T09:52:50.995Z</time></trkpt><trkpt lat="43.515663351904145" lon="10.869213910783518"><ele>242.0</ele><time>2026-04-18T09:52:51.995Z</time></trkpt><trkpt lat="43.51575919896691" lon="10.869346596310724"><ele>244.5</ele><time>2026-04-18T09:52:52.995Z</time></trkpt><trkpt lat="43.515854459296456" lon="10.869482047865977"><ele>247.0</ele><time>2026-04-18T09:52:53.995Z</time></trkpt><trkpt lat="43.51595495831548" lon="10.86962043308734"><ele>248.75</ele><time>2026-04-18T09:52:54.995Z</time></trkpt><trkpt lat="43.51604527332216" lon="10.869747754196515"><ele>250.5</ele><time>2026-04-18T09:52:55.995Z</time></trkpt><trkpt lat="43.51612590723067" lon="10.869862921546092"><ele>252.25</ele><time>2026-04-18T09:52:56.995Z</time></trkpt><trkpt lat="43.51620574485838" lon="10.869974149401179"><ele>254.0</ele><time>2026-04-18T09:52:57.995Z</time></trkpt><trkpt lat="43.5162618197906" lon="10.87007925846695"><ele>259.4</ele><time>2026-04-18T09:52:58.995Z</time></trkpt><trkpt lat="43.51630205292582" lon="10.87018872612237"><ele>264.79999999999995</ele><time>2026-04-18T09:52:59.995Z</time></trkpt><trkpt lat="43.516318020451365" lon="10.87029526011168"><ele>270.20000000000005</ele><time>2026-04-18T09:53:00.995Z</time></trkpt><trkpt lat="43.51631005764335" lon="10.87042819709598"><ele>275.6</ele><time>2026-04-18T09:53:01.995Z</time></trkpt><trkpt lat="43.5162956407699" lon="10.870566163222184"><ele>281.0</ele><time>2026-04-18T09:53:02.995Z</time></trkpt><trkpt lat="43.51628859997123" lon="10.870696501816502"><ele>281.0</ele><time>2026-04-18T09:53:03.995Z</time></trkpt><trkpt lat="43.5162729258123" lon="10.870808484042874"><ele>281.0</ele><time>2026-04-18T09:53:04.995Z</time></trkpt><trkpt lat="43.51624601990312" lon="10.87089138106524"><ele>281.0</ele><time>2026-04-18T09:53:05.995Z</time></trkpt><trkpt lat="43.51614883173585" lon="10.87095784955739"><ele>281.0</ele><time>2026-04-18T09:53:07.995Z</time></trkpt><trkpt lat="43.51607607681632" lon="10.870952149863234"><ele>281.0</ele><time>2026-04-18T09:53:08.995Z</time></trkpt><trkpt lat="43.51599292833685" lon="10.870950305844536"><ele>281.0</ele><time>2026-04-18T09:53:09.995Z</time></trkpt><trkpt lat="43.515920550602964" lon="10.870962794880262"><ele>281.83333333333337</ele><time>2026-04-18T09:53:10.995Z</time></trkpt><trkpt lat="43.515850310254386" lon="10.870993556464901"><ele>282.6666666666667</ele><time>2026-04-18T09:53:11.995Z</time></trkpt><trkpt lat="43.51577914789646" lon="10.871047619740358"><ele>283.5</ele><time>2026-04-18T09:53:12.995Z</time></trkpt><trkpt lat="43.5157184629175" lon="10.87111861446022"><ele>284.3333333333333</ele><time>2026-04-18T09:53:13.995Z</time></trkpt><trkpt lat="43.51567554757326" lon="10.871204528967729"><ele>285.16666666666663</ele><time>2026-04-18T09:53:14.995Z</time></trkpt><trkpt lat="43.51563975684672" lon="10.871307794014802"><ele>286.0</ele><time>2026-04-18T09:53:15.994Z</time></trkpt><trkpt lat="43.51561130028545" lon="10.871439138437502"><ele>286.0</ele><time>2026-04-18T09:53:16.994Z</time></trkpt><trkpt lat="43.51558850150882" lon="10.871573751802437"><ele>286.0</ele><time>2026-04-18T09:53:17.994Z</time></trkpt><trkpt lat="43.51556696001767" lon="10.871699145073883"><ele>286.0</ele><time>2026-04-18T09:53:18.994Z</time></trkpt><trkpt lat="43.51555204023003" lon="10.871798973540656"><ele>286.0</ele><time>2026-04-18T09:53:19.994Z</time></trkpt><trkpt lat="43.51554600525974" lon="10.871950853626124"><ele>286.0</ele><time>2026-04-18T09:53:21.994Z</time></trkpt><trkpt lat="43.51560501385807" lon="10.872055459777705"><ele>288.0</ele><time>2026-04-18T09:53:23.994Z</time></trkpt><trkpt lat="43.51574637465506" lon="10.87208404206752"><ele>290.0</ele><time>2026-04-18T09:53:25.994Z</time></trkpt><trkpt lat="43.515856387134185" lon="10.872090496132962"><ele>292.0</ele><time>2026-04-18T09:53:26.994Z</time></trkpt><trkpt lat="43.51595445540129" lon="10.872106757025115"><ele>294.0</ele><time>2026-04-18T09:53:27.994Z</time></trkpt><trkpt lat="43.51602565966874" lon="10.872136680419437"><ele>296.0</ele><time>2026-04-18T09:53:28.994Z</time></trkpt><trkpt lat="43.51608186032951" lon="10.872198287407748"><ele>296.0</ele><time>2026-04-18T09:53:29.994Z</time></trkpt><trkpt lat="43.516120123717485" lon="10.872278418402068"><ele>296.0</ele><time>2026-04-18T09:53:30.994Z</time></trkpt><trkpt lat="43.516146233345864" lon="10.8723821025443"><ele>296.0</ele><time>2026-04-18T09:53:31.994Z</time></trkpt><trkpt lat="43.51615335796356" lon="10.872490312914245"><ele>296.0</ele><time>2026-04-18T09:53:32.994Z</time></trkpt><trkpt lat="43.51616417061865" lon="10.872593577961318"><ele>296.0</ele><time>2026-04-18T09:53:33.994Z</time></trkpt><trkpt lat="43.516198033507465" lon="10.872706398378007"><ele>296.0</ele><time>2026-04-18T09:53:34.994Z</time></trkpt><trkpt lat="43.5162573354724" lon="10.872790887961976"><ele>300.0</ele><time>2026-04-18T09:53:35.994Z</time></trkpt><trkpt lat="43.516318816732166" lon="10.872868588204376"><ele>304.0</ele><time>2026-04-18T09:53:36.994Z</time></trkpt><trkpt lat="43.516375604126154" lon="10.87291368284344"><ele>308.0</ele><time>2026-04-18T09:53:37.994Z</time></trkpt><trkpt lat="43.51642509926438" lon="10.873014014224403"><ele>312.0</ele><time>2026-04-18T09:53:39.994Z</time></trkpt><trkpt lat="43.5163921164754" lon="10.873132031421058"><ele>316.0</ele><time>2026-04-18T09:53:41.994Z</time></trkpt><trkpt lat="43.516368814784585" lon="10.87330210023641"><ele>316.0</ele><time>2026-04-18T09:53:43.994Z</time></trkpt><trkpt lat="43.51637313146472" lon="10.873413076634401"><ele>316.0</ele><time>2026-04-18T09:53:44.994Z</time></trkpt><trkpt lat="43.51637698714018" lon="10.873520700271124"><ele>316.0</ele><time>2026-04-18T09:53:45.994Z</time></trkpt><trkpt lat="43.51638218392014" lon="10.873625474060768"><ele>316.0</ele><time>2026-04-18T09:53:46.994Z</time></trkpt><trkpt lat="43.51636089388609" lon="10.873734271163935"><ele>316.0</ele><time>2026-04-18T09:53:47.994Z</time></trkpt><trkpt lat="43.51634333379894" lon="10.873856144036049"><ele>316.0</ele><time>2026-04-18T09:53:48.994Z</time></trkpt><trkpt lat="43.5163273662734" lon="10.873968629176611"><ele>315.75</ele><time>2026-04-18T09:53:49.994Z</time></trkpt><trkpt lat="43.51628277454853" lon="10.874097207571262"><ele>315.5</ele><time>2026-04-18T09:53:50.994Z</time></trkpt><trkpt lat="43.51621144455254" lon="10.874236263344878"><ele>315.25</ele><time>2026-04-18T09:53:51.994Z</time></trkpt><trkpt lat="43.51613604933351" lon="10.87435998023569"><ele>315.0</ele><time>2026-04-18T09:53:52.994Z</time></trkpt><trkpt lat="43.51606593471348" lon="10.874476153413648"><ele>315.0</ele><time>2026-04-18T09:53:53.994Z</time></trkpt><trkpt lat="43.51600596219628" lon="10.874524097899789"><ele>315.0</ele><time>2026-04-18T09:53:54.994Z</time></trkpt><trkpt lat="43.51594079289912" lon="10.874562570835346"><ele>315.0</ele><time>2026-04-18T09:53:55.994Z</time></trkpt><trkpt lat="43.51587021727442" lon="10.874586543078417"><ele>315.0</ele><time>2026-04-18T09:53:56.994Z</time></trkpt><trkpt lat="43.515760079066744" lon="10.874635325754875"><ele>315.0</ele><time>2026-04-18T09:53:58.994Z</time></trkpt><trkpt lat="43.515696544240704" lon="10.874653095389599"><ele>315.0</ele><time>2026-04-18T09:53:59.994Z</time></trkpt><trkpt lat="43.5156278126347" lon="10.874716378758544"><ele>315.0</ele><time>2026-04-18T09:54:00.994Z</time></trkpt><trkpt lat="43.515536366071096" lon="10.874850321571225"><ele>315.0</ele><time>2026-04-18T09:54:02.994Z</time></trkpt><trkpt lat="43.51548829585641" lon="10.874908659617299"><ele>315.0</ele><time>2026-04-18T09:54:03.994Z</time></trkpt><trkpt lat="43.51543117318629" lon="10.874958951036328"><ele>315.0</ele><time>2026-04-18T09:54:04.994Z</time></trkpt><trkpt lat="43.515327363315514" lon="10.87505282835185"><ele>315.0</ele><time>2026-04-18T09:54:06.994Z</time></trkpt><trkpt lat="43.51523281544774" lon="10.875162547464365"><ele>315.0</ele><time>2026-04-18T09:54:08.994Z</time></trkpt><trkpt lat="43.51520197004407" lon="10.875250054533478"><ele>315.0</ele><time>2026-04-18T09:54:09.994Z</time></trkpt><trkpt lat="43.51519752763539" lon="10.875353571037646"><ele>315.0</ele><time>2026-04-18T09:54:10.994Z</time></trkpt><trkpt lat="43.51519979074924" lon="10.8754544053328"><ele>315.0</ele><time>2026-04-18T09:54:11.994Z</time></trkpt><trkpt lat="43.51520834029048" lon="10.875581726441975"><ele>315.0</ele><time>2026-04-18T09:54:13.994Z</time></trkpt><trkpt lat="43.515200084115854" lon="10.875683231289383"><ele>315.0</ele><time>2026-04-18T09:54:15.994Z</time></trkpt><trkpt lat="43.5151640000227" lon="10.875775683681365"><ele>315.0</ele><time>2026-04-18T09:54:17.994Z</time></trkpt><trkpt lat="43.51514237471252" lon="10.875886576260324"><ele>315.0</ele><time>2026-04-18T09:54:42.993Z</time></trkpt><trkpt lat="43.51520201195358" lon="10.87596452795982"><ele>315.0</ele><time>2026-04-18T09:54:45.993Z</time></trkpt><trkpt lat="43.51532002915024" lon="10.875978022823926"><ele>315.0</ele><time>2026-04-18T09:54:47.993Z</time></trkpt><trkpt lat="43.51539114959865" lon="10.875984309251304"><ele>315.0</ele><time>2026-04-18T09:54:48.993Z</time></trkpt><trkpt lat="43.515458372462085" lon="10.87600559928536"><ele>315.0</ele><time>2026-04-18T09:54:49.993Z</time></trkpt><trkpt lat="43.51558070633887" lon="10.876085981736775"><ele>317.8333333333333</ele><time>2026-04-18T09:54:51.993Z</time></trkpt><trkpt lat="43.51563678127109" lon="10.876136776069995"><ele>320.6666666666667</ele><time>2026-04-18T09:54:52.993Z</time></trkpt><trkpt lat="43.51568791088044" lon="10.876201819638606"><ele>323.5</ele><time>2026-04-18T09:54:53.993Z</time></trkpt><trkpt lat="43.515745620283774" lon="10.876264013360139"><ele>326.33333333333337</ele><time>2026-04-18T09:54:54.993Z</time></trkpt><trkpt lat="43.515832917805305" lon="10.876306341971155"><ele>329.1666666666667</ele><time>2026-04-18T09:54:55.993Z</time></trkpt><trkpt lat="43.515940876718155" lon="10.876310197646614"><ele>332.0</ele><time>2026-04-18T09:54:56.993Z</time></trkpt><trkpt lat="43.516070041846035" lon="10.876272227625247"><ele>332.0</ele><time>2026-04-18T09:54:57.993Z</time></trkpt><trkpt lat="43.51621144455254" lon="10.876191677535768"><ele>332.0</ele><time>2026-04-18T09:54:58.993Z</time></trkpt><trkpt lat="43.51634936876923" lon="10.876103164638277"><ele>332.0</ele><time>2026-04-18T09:54:59.993Z</time></trkpt><trkpt lat="43.516476857516466" lon="10.876029739166494"><ele>332.0</ele><time>2026-04-18T09:55:00.993Z</time></trkpt><trkpt lat="43.5165950842607" lon="10.875965282331105"><ele>332.75</ele><time>2026-04-18T09:55:01.993Z</time></trkpt><trkpt lat="43.51670346226871" lon="10.875898310924764"><ele>333.5</ele><time>2026-04-18T09:55:02.993Z</time></trkpt><trkpt lat="43.51679763295084" lon="10.875812899331446"><ele>334.25</ele><time>2026-04-18T09:55:03.993Z</time></trkpt><trkpt lat="43.5168871097672" lon="10.875684488574858"><ele>335.0</ele><time>2026-04-18T09:55:04.993Z</time></trkpt><trkpt lat="43.51695064459324" lon="10.875513162474032"><ele>335.0</ele><time>2026-04-18T09:55:05.993Z</time></trkpt><trkpt lat="43.51701040756285" lon="10.875327251861687"><ele>335.0</ele><time>2026-04-18T09:55:06.993Z</time></trkpt><trkpt lat="43.51708488077253" lon="10.875141005973214"><ele>335.0</ele><time>2026-04-18T09:55:07.993Z</time></trkpt><trkpt lat="43.517170418094395" lon="10.874997759248012"><ele>335.0</ele><time>2026-04-18T09:55:08.993Z</time></trkpt><trkpt lat="43.517291913780866" lon="10.874883430088753"><ele>338.0</ele><time>2026-04-18T09:55:09.993Z</time></trkpt><trkpt lat="43.517440650652645" lon="10.874810758988255"><ele>341.0</ele><time>2026-04-18T09:55:10.993Z</time></trkpt><trkpt lat="43.517597978975175" lon="10.874763485054368"><ele>344.0</ele><time>2026-04-18T09:55:11.993Z</time></trkpt><trkpt lat="43.517747302580176" lon="10.874744458134169"><ele>346.0</ele><time>2026-04-18T09:55:12.993Z</time></trkpt><trkpt lat="43.517907480749784" lon="10.874748481447691"><ele>348.0</ele><time>2026-04-18T09:55:13.993Z</time></trkpt><trkpt lat="43.51805433169335" lon="10.874768598015303"><ele>350.0</ele><time>2026-04-18T09:55:14.993Z</time></trkpt><trkpt lat="43.51819405801922" lon="10.874781506146187"><ele>352.0</ele><time>2026-04-18T09:55:15.993Z</time></trkpt><trkpt lat="43.5183409508723" lon="10.87480413728475"><ele>352.0</ele><time>2026-04-18T09:55:16.993Z</time></trkpt><trkpt lat="43.51847661197513" lon="10.87483246811747"><ele>352.0</ele><time>2026-04-18T09:55:17.993Z</time></trkpt><trkpt lat="43.51860938132137" lon="10.874854344884747"><ele>352.0</ele><time>2026-04-18T09:55:18.993Z</time></trkpt><trkpt lat="43.518723836209176" lon="10.874871695424313"><ele>352.0</ele><time>2026-04-18T09:55:19.993Z</time></trkpt><trkpt lat="43.51883208848864" lon="10.874888794506782"><ele>352.25</ele><time>2026-04-18T09:55:20.993Z</time></trkpt><trkpt lat="43.51894499272436" lon="10.874913353483075"><ele>352.5</ele><time>2026-04-18T09:55:21.993Z</time></trkpt><trkpt lat="43.51904054642051" lon="10.874962387616629"><ele>352.75</ele><time>2026-04-18T09:55:22.993Z</time></trkpt><trkpt lat="43.51912947841316" lon="10.875054588551516"><ele>353.0</ele><time>2026-04-18T09:55:23.993Z</time></trkpt><trkpt lat="43.519229935522674" lon="10.875198254371877"><ele>353.0</ele><time>2026-04-18T09:55:24.993Z</time></trkpt><trkpt lat="43.51927125830531" lon="10.875374441976543"><ele>353.0</ele><time>2026-04-18T09:55:25.993Z</time></trkpt><trkpt lat="43.51933315866023" lon="10.8755545690757"><ele>353.0</ele><time>2026-04-18T09:55:26.993Z</time></trkpt><trkpt lat="43.51939648393869" lon="10.875723296786543"><ele>353.0</ele><time>2026-04-18T09:55:27.993Z</time></trkpt><trkpt lat="43.519470118958054" lon="10.875878781090375"><ele>348.0</ele><time>2026-04-18T09:55:28.993Z</time></trkpt><trkpt lat="43.51957116280079" lon="10.875985901812907"><ele>343.0</ele><time>2026-04-18T09:55:29.993Z</time></trkpt><trkpt lat="43.51968285166055" lon="10.876082377518411"><ele>338.0</ele><time>2026-04-18T09:55:30.993Z</time></trkpt><trkpt lat="43.519797516095934" lon="10.876206597323414"><ele>333.0</ele><time>2026-04-18T09:55:31.993Z</time></trkpt><trkpt lat="43.51986180529326" lon="10.876354621733423"><ele>333.0</ele><time>2026-04-18T09:55:32.993Z</time></trkpt><trkpt lat="43.519896967377065" lon="10.876519493768807"><ele>333.0</ele><time>2026-04-18T09:55:33.993Z</time></trkpt><trkpt lat="43.51992927961379" lon="10.87669115514576"><ele>333.0</ele><time>2026-04-18T09:55:34.993Z</time></trkpt><trkpt lat="43.51995631125152" lon="10.876889219517704"><ele>333.0</ele><time>2026-04-18T09:55:35.993Z</time></trkpt><trkpt lat="43.5199528327617" lon="10.877098767096994"><ele>335.25</ele><time>2026-04-18T09:55:36.993Z</time></trkpt><trkpt lat="43.519986108917294" lon="10.87730529719114"><ele>337.5</ele><time>2026-04-18T09:55:37.993Z</time></trkpt><trkpt lat="43.52003572978407" lon="10.87748651393771"><ele>339.75</ele><time>2026-04-18T09:55:38.993Z</time></trkpt><trkpt lat="43.52007005367756" lon="10.877682399014828"><ele>342.0</ele><time>2026-04-18T09:55:39.993Z</time></trkpt><trkpt lat="43.52010576058507" lon="10.877861687923668"><ele>343.25</ele><time>2026-04-18T09:55:40.993Z</time></trkpt><trkpt lat="43.5201515676859" lon="10.87803133764386"><ele>344.5</ele><time>2026-04-18T09:55:41.993Z</time></trkpt><trkpt lat="43.52018748414099" lon="10.878191767270563"><ele>345.75</ele><time>2026-04-18T09:55:42.993Z</time></trkpt><trkpt lat="43.520217575173376" lon="10.87833576836705"><ele>347.0</ele><time>2026-04-18T09:55:43.993Z</time></trkpt><trkpt lat="43.52024686992496" lon="10.878462754200099"><ele>344.8</ele><time>2026-04-18T09:55:44.993Z</time></trkpt><trkpt lat="43.520258143584726" lon="10.87859619409859"><ele>342.6</ele><time>2026-04-18T09:55:45.993Z</time></trkpt><trkpt lat="43.52023857184082" lon="10.878724856312273"><ele>340.40000000000003</ele><time>2026-04-18T09:55:46.993Z</time></trkpt><trkpt lat="43.52020860653698" lon="10.878864750276206"><ele>338.20000000000005</ele><time>2026-04-18T09:55:47.993Z</time></trkpt><trkpt lat="43.520149807486234" lon="10.878982767472861"><ele>336.0</ele><time>2026-04-18T09:55:48.993Z</time></trkpt><trkpt lat="43.520070975686906" lon="10.879090977842807"><ele>336.0</ele><time>2026-04-18T09:55:49.993Z</time></trkpt><trkpt lat="43.51995375477105" lon="10.87918301113963"><ele>336.0</ele><time>2026-04-18T09:55:50.993Z</time></trkpt><trkpt lat="43.51984013807356" lon="10.879242271195054"><ele>336.0</ele><time>2026-04-18T09:55:51.993Z</time></trkpt><trkpt lat="43.519733771722315" lon="10.879196338365674"><ele>336.0</ele><time>2026-04-18T09:55:52.993Z</time></trkpt><trkpt lat="43.51962598044753" lon="10.879166247333288"><ele>337.75</ele><time>2026-04-18T09:55:53.992Z</time></trkpt><trkpt lat="43.51949765350997" lon="10.879136994491219"><ele>339.5</ele><time>2026-04-18T09:55:54.992Z</time></trkpt><trkpt lat="43.519389275501965" lon="10.879119560132622"><ele>341.25</ele><time>2026-04-18T09:55:55.992Z</time></trkpt><trkpt lat="43.51925558414638" lon="10.879110423858165"><ele>343.0</ele><time>2026-04-18T09:55:56.992Z</time></trkpt><trkpt lat="43.519145655486284" lon="10.87914286182344"><ele>343.0</ele><time>2026-04-18T09:55:57.992Z</time></trkpt><trkpt lat="43.51903878622085" lon="10.8791932370615"><ele>343.0</ele><time>2026-04-18T09:55:58.992Z</time></trkpt><trkpt lat="43.5189530393514" lon="10.879265656704902"><ele>343.0</ele><time>2026-04-18T09:55:59.992Z</time></trkpt><trkpt lat="43.518877727951406" lon="10.879381913701891"><ele>343.0</ele><time>2026-04-18T09:56:00.992Z</time></trkpt><trkpt lat="43.51900919810265" lon="10.879503870393037"><ele>342.59999999999997</ele><time>2026-04-18T09:56:01.992Z</time></trkpt><trkpt lat="43.51908823944956" lon="10.879602776850462"><ele>342.2</ele><time>2026-04-18T09:56:02.992Z</time></trkpt><trkpt lat="43.519189660477934" lon="10.879658265049457"><ele>341.8</ele><time>2026-04-18T09:56:03.992Z</time></trkpt><trkpt lat="43.519288189749716" lon="10.879689361910224"><ele>341.4</ele><time>2026-04-18T09:56:04.992Z</time></trkpt><trkpt lat="43.51938780866891" lon="10.879720374951958"><ele>341.0</ele><time>2026-04-18T09:56:05.992Z</time></trkpt><trkpt lat="43.51947150197208" lon="10.87977619842708"><ele>341.0</ele><time>2026-04-18T09:56:06.992Z</time></trkpt><trkpt lat="43.51955301598042" lon="10.879858676354289"><ele>341.0</ele><time>2026-04-18T09:56:07.992Z</time></trkpt><trkpt lat="43.51963955913067" lon="10.879956409345269"><ele>341.0</ele><time>2026-04-18T09:56:08.992Z</time></trkpt><trkpt lat="43.51968280975103" lon="10.880063530067801"><ele>341.0</ele><time>2026-04-18T09:56:09.992Z</time></trkpt><trkpt lat="43.51967857688993" lon="10.880172746266126"><ele>341.0</ele><time>2026-04-18T09:56:10.992Z</time></trkpt><trkpt lat="43.51966545921147" lon="10.880300821746587"><ele>340.75</ele><time>2026-04-18T09:56:11.992Z</time></trkpt><trkpt lat="43.51962103512466" lon="10.88044314646244"><ele>340.5</ele><time>2026-04-18T09:56:12.992Z</time></trkpt><trkpt lat="43.51960858799845" lon="10.880594020719528"><ele>340.25</ele><time>2026-04-18T09:56:13.992Z</time></trkpt><trkpt lat="43.51958671123117" lon="10.880777416760921"><ele>340.0</ele><time>2026-04-18T09:56:14.992Z</time></trkpt><trkpt lat="43.51957640149027" lon="10.88093466126442"><ele>340.0</ele><time>2026-04-18T09:56:15.992Z</time></trkpt><trkpt lat="43.51958516057908" lon="10.881073717038037"><ele>340.0</ele><time>2026-04-18T09:56:16.992Z</time></trkpt><trkpt lat="43.51957342591464" lon="10.88122048416257"><ele>340.0</ele><time>2026-04-18T09:56:17.992Z</time></trkpt><trkpt lat="43.51955695547491" lon="10.881362976516487"><ele>340.0</ele><time>2026-04-18T09:56:18.992Z</time></trkpt><trkpt lat="43.51952590052366" lon="10.881514353687765"><ele>340.0</ele><time>2026-04-18T09:56:19.992Z</time></trkpt><trkpt lat="43.5195032693851" lon="10.881679393361212"><ele>341.8</ele><time>2026-04-18T09:56:20.992Z</time></trkpt><trkpt lat="43.51948051251799" lon="10.881858849908115"><ele>343.6</ele><time>2026-04-18T09:56:21.992Z</time></trkpt><trkpt lat="43.519491953815816" lon="10.882013328383566"><ele>345.4</ele><time>2026-04-18T09:56:22.992Z</time></trkpt><trkpt lat="43.51952296685755" lon="10.882153641442658"><ele>347.2</ele><time>2026-04-18T09:56:23.992Z</time></trkpt><trkpt lat="43.51956290662616" lon="10.882274089391233"><ele>349.0</ele><time>2026-04-18T09:56:24.992Z</time></trkpt><trkpt lat="43.51961416196406" lon="10.882393028597237"><ele>349.0</ele><time>2026-04-18T09:56:25.992Z</time></trkpt><trkpt lat="43.51966319609761" lon="10.882513979460002"><ele>349.0</ele><time>2026-04-18T09:56:26.992Z</time></trkpt><trkpt lat="43.51972228851497" lon="10.882626883695723"><ele>349.0</ele><time>2026-04-18T09:56:27.992Z</time></trkpt><trkpt lat="43.519791439216135" lon="10.882725287238957"><ele>349.0</ele><time>2026-04-18T09:56:28.992Z</time></trkpt><trkpt lat="43.51987949110895" lon="10.882818913097383"><ele>349.0</ele><time>2026-04-18T09:56:29.992Z</time></trkpt><trkpt lat="43.51996012501746" lon="10.882903570319417"><ele>350.4</ele><time>2026-04-18T09:56:30.992Z</time></trkpt><trkpt lat="43.52006590463549" lon="10.882952939729098"><ele>351.79999999999995</ele><time>2026-04-18T09:56:31.992Z</time></trkpt><trkpt lat="43.52013061292797" lon="10.883037932227257"><ele>353.20000000000005</ele><time>2026-04-18T09:56:32.992Z</time></trkpt><trkpt lat="43.52020881608456" lon="10.883099371577504"><ele>354.6</ele><time>2026-04-18T09:56:33.992Z</time></trkpt><trkpt lat="43.520309650379716" lon="10.883125858391526"><ele>356.0</ele><time>2026-04-18T09:56:34.992Z</time></trkpt><trkpt lat="43.5204158490929" lon="10.883105825642946"><ele>356.0</ele><time>2026-04-18T09:56:35.992Z</time></trkpt><trkpt lat="43.520521209615765" lon="10.88305905462325"><ele>356.0</ele><time>2026-04-18T09:56:36.992Z</time></trkpt><trkpt lat="43.520639687817095" lon="10.883033322180513"><ele>356.0</ele><time>2026-04-18T09:56:37.992Z</time></trkpt><trkpt lat="43.52075162813395" lon="10.883041368807557"><ele>356.0</ele><time>2026-04-18T09:56:38.992Z</time></trkpt><trkpt lat="43.5208672564882" lon="10.883071878935102"><ele>356.0</ele><time>2026-04-18T09:56:39.992Z</time></trkpt><trkpt lat="43.520975802134274" lon="10.883118566135767"><ele>356.0</ele><time>2026-04-18T09:56:40.992Z</time></trkpt><trkpt lat="43.5210839705947" lon="10.883179502571824"><ele>356.0</ele><time>2026-04-18T09:56:41.992Z</time></trkpt><trkpt lat="43.521177219267486" lon="10.883253011862639"><ele>356.0</ele><time>2026-04-18T09:56:42.992Z</time></trkpt><trkpt lat="43.52127943657666" lon="10.883358288566473"><ele>353.20000000000005</ele><time>2026-04-18T09:56:43.992Z</time></trkpt><trkpt lat="43.521334966685174" lon="10.883501116196516"><ele>350.40000000000003</ele><time>2026-04-18T09:56:44.992Z</time></trkpt><trkpt lat="43.52138228252858" lon="10.883628521124724"><ele>347.6</ele><time>2026-04-18T09:56:45.992Z</time></trkpt><trkpt lat="43.52140550040036" lon="10.883762631575468"><ele>344.8</ele><time>2026-04-18T09:56:46.992Z</time></trkpt><trkpt lat="43.52139967497766" lon="10.883884672085646"><ele>342.0</ele><time>2026-04-18T09:56:47.992Z</time></trkpt><trkpt lat="43.52131070107549" lon="10.8839820698005"><ele>345.8</ele><time>2026-04-18T09:56:48.992Z</time></trkpt><trkpt lat="43.521200604777334" lon="10.88406228461385"><ele>349.6</ele><time>2026-04-18T09:56:49.992Z</time></trkpt><trkpt lat="43.52115429476231" lon="10.88414828294039"><ele>353.40000000000003</ele><time>2026-04-18T09:56:50.992Z</time></trkpt><trkpt lat="43.52112738885313" lon="10.884276190782789"><ele>357.20000000000005</ele><time>2026-04-18T09:56:51.992Z</time></trkpt><trkpt lat="43.52110086012959" lon="10.884403092796806"><ele>361.0</ele><time>2026-04-18T09:56:52.992Z</time></trkpt><trkpt lat="43.521150522905884" lon="10.88461146690965"><ele>359.66666666666663</ele><time>2026-04-18T09:56:53.992Z</time></trkpt><trkpt lat="43.5211944440785" lon="10.884808357815151"><ele>358.3333333333333</ele><time>2026-04-18T09:56:54.992Z</time></trkpt><trkpt lat="43.521234802942274" lon="10.885035758848195"><ele>357.0</ele><time>2026-04-18T09:56:55.992Z</time></trkpt><trkpt lat="43.52129360199302" lon="10.885260226215129"><ele>357.0</ele><time>2026-04-18T09:56:56.992Z</time></trkpt><trkpt lat="43.52139996834427" lon="10.885478742430811"><ele>357.0</ele><time>2026-04-18T09:56:57.992Z</time></trkpt><trkpt lat="43.52152490061104" lon="10.885686278353338"><ele>357.0</ele><time>2026-04-18T09:56:58.992Z</time></trkpt><trkpt lat="43.521633739623724" lon="10.88589741849423"><ele>361.3333333333333</ele><time>2026-04-18T09:56:59.992Z</time></trkpt><trkpt lat="43.52173113733858" lon="10.886116018528943"><ele>365.66666666666663</ele><time>2026-04-18T09:57:00.992Z</time></trkpt><trkpt lat="43.5218318878147" lon="10.886355154226427"><ele>370.0</ele><time>2026-04-18T09:57:01.992Z</time></trkpt><trkpt lat="43.52193418894291" lon="10.886581633250122"><ele>368.0</ele><time>2026-04-18T09:57:02.992Z</time></trkpt><trkpt lat="43.52202731188714" lon="10.88679889218033"><ele>366.0</ele><time>2026-04-18T09:57:03.992Z</time></trkpt><trkpt lat="43.52211343594223" lon="10.887026712308533"><ele>364.0</ele><time>2026-04-18T09:57:04.992Z</time></trkpt><trkpt lat="43.52219163909882" lon="10.887222262109525"><ele>364.0</ele><time>2026-04-18T09:57:05.992Z</time></trkpt><trkpt lat="43.52223644037127" lon="10.887387050325877"><ele>364.0</ele><time>2026-04-18T09:57:06.992Z</time></trkpt><trkpt lat="43.52229947228312" lon="10.887556113312847"><ele>364.0</ele><time>2026-04-18T09:57:07.992Z</time></trkpt><trkpt lat="43.52233786139965" lon="10.887701455513842"><ele>364.0</ele><time>2026-04-18T09:57:08.992Z</time></trkpt><trkpt lat="43.52236799434155" lon="10.887854676703817"><ele>366.66666666666663</ele><time>2026-04-18T09:57:09.992Z</time></trkpt><trkpt lat="43.522372101474105" lon="10.888052573437697"><ele>369.3333333333333</ele><time>2026-04-18T09:57:10.992Z</time></trkpt><trkpt lat="43.522344776469765" lon="10.888257846246368"><ele>372.0</ele><time>2026-04-18T09:57:11.992Z</time></trkpt><trkpt lat="43.52232570764005" lon="10.888471836234338"><ele>374.6666666666667</ele><time>2026-04-18T09:57:12.992Z</time></trkpt><trkpt lat="43.522279020439385" lon="10.888749780143508"><ele>377.33333333333337</ele><time>2026-04-18T09:57:13.991Z</time></trkpt><trkpt lat="43.52224591192186" lon="10.888975588614949"><ele>380.0</ele><time>2026-04-18T09:57:14.991Z</time></trkpt><trkpt lat="43.52221125275224" lon="10.889200810353168"><ele>382.0</ele><time>2026-04-18T09:57:15.991Z</time></trkpt><trkpt lat="43.52217818614423" lon="10.889397701258668"><ele>384.0</ele><time>2026-04-18T09:57:16.991Z</time></trkpt><trkpt lat="43.52216188334256" lon="10.889578750367173"><ele>386.0</ele><time>2026-04-18T09:57:17.991Z</time></trkpt><trkpt lat="43.52214482616961" lon="10.889762397865661"><ele>388.0</ele><time>2026-04-18T09:57:18.991Z</time></trkpt><trkpt lat="43.52219155527979" lon="10.889913858855971"><ele>389.0</ele><time>2026-04-18T09:57:19.991Z</time></trkpt><trkpt lat="43.52220123637795" lon="10.890102954591521"><ele>390.0</ele><time>2026-04-18T09:57:20.991Z</time></trkpt><trkpt lat="43.52221825164139" lon="10.89029490017415"><ele>391.0</ele><time>2026-04-18T09:57:21.991Z</time></trkpt><trkpt lat="43.522270722355245" lon="10.890514589856277"><ele>392.0</ele><time>2026-04-18T09:57:22.991Z</time></trkpt><trkpt lat="43.522335682104824" lon="10.890716258446584"><ele>392.0</ele><time>2026-04-18T09:57:23.991Z</time></trkpt><trkpt lat="43.52239548698395" lon="10.8909227047217"><ele>392.0</ele><time>2026-04-18T09:57:24.991Z</time></trkpt><trkpt lat="43.52245499849647" lon="10.891129653911005"><ele>392.0</ele><time>2026-04-18T09:57:25.991Z</time></trkpt><trkpt lat="43.522523143369256" lon="10.891336770738373"><ele>393.3333333333333</ele><time>2026-04-18T09:57:26.991Z</time></trkpt><trkpt lat="43.52259292271316" lon="10.891542630280266"><ele>394.66666666666663</ele><time>2026-04-18T09:57:27.991Z</time></trkpt><trkpt lat="43.52265675090581" lon="10.891741113747369"><ele>396.0</ele><time>2026-04-18T09:57:28.991Z</time></trkpt><trkpt lat="43.522709095891116" lon="10.891914954419146"><ele>395.0</ele><time>2026-04-18T09:57:29.991Z</time></trkpt><trkpt lat="43.522762823890446" lon="10.892080413187752"><ele>394.0</ele><time>2026-04-18T09:57:30.991Z</time></trkpt><trkpt lat="43.522816468070744" lon="10.892238663519631"><ele>393.0</ele><time>2026-04-18T09:57:31.991Z</time></trkpt><trkpt lat="43.52286952551782" lon="10.892405547211778"><ele>392.0</ele><time>2026-04-18T09:57:32.991Z</time></trkpt><trkpt lat="43.522928869392274" lon="10.892575532208097"><ele>394.0</ele><time>2026-04-18T09:57:33.991Z</time></trkpt><trkpt lat="43.52297957990646" lon="10.892747277404082"><ele>396.0</ele><time>2026-04-18T09:57:34.991Z</time></trkpt><trkpt lat="43.52302966177791" lon="10.892930589626443"><ele>398.0</ele><time>2026-04-18T09:57:35.991Z</time></trkpt><trkpt lat="43.52308343168676" lon="10.893107112507236"><ele>400.0</ele><time>2026-04-18T09:57:36.991Z</time></trkpt><trkpt lat="43.523139799985586" lon="10.893272655094874"><ele>402.0</ele><time>2026-04-18T09:57:37.991Z</time></trkpt><trkpt lat="43.52317898538291" lon="10.893437694768322"><ele>404.0</ele><time>2026-04-18T09:57:38.991Z</time></trkpt><trkpt lat="43.52322261318892" lon="10.893582198778999"><ele>406.0</ele><time>2026-04-18T09:57:39.991Z</time></trkpt><trkpt lat="43.5232711863178" lon="10.89373567142607"><ele>408.0</ele><time>2026-04-18T09:57:40.991Z</time></trkpt><trkpt lat="43.5233256267789" lon="10.893884031112206"><ele>408.0</ele><time>2026-04-18T09:57:41.991Z</time></trkpt><trkpt lat="43.523384342010615" lon="10.894046053300512"><ele>408.0</ele><time>2026-04-18T09:57:42.991Z</time></trkpt><trkpt lat="43.52344259623766" lon="10.894215703020704"><ele>408.0</ele><time>2026-04-18T09:57:43.991Z</time></trkpt><trkpt lat="43.52350763980627" lon="10.894381999979629"><ele>408.0</ele><time>2026-04-18T09:57:44.991Z</time></trkpt><trkpt lat="43.523566774133144" lon="10.894532203684463"><ele>407.75</ele><time>2026-04-18T09:57:45.991Z</time></trkpt><trkpt lat="43.52362439971745" lon="10.89467276820065"><ele>407.5</ele><time>2026-04-18T09:57:46.991Z</time></trkpt><trkpt lat="43.52368659343899" lon="10.894815260554566"><ele>407.25</ele><time>2026-04-18T09:57:47.991Z</time></trkpt><trkpt lat="43.523746104951506" lon="10.894955825070753"><ele>407.0</ele><time>2026-04-18T09:57:48.991Z</time></trkpt><trkpt lat="43.523804987821286" lon="10.895104436213984"><ele>407.0</ele><time>2026-04-18T09:57:49.991Z</time></trkpt><trkpt lat="43.52385251321227" lon="10.895250029872074"><ele>407.0</ele><time>2026-04-18T09:57:50.991Z</time></trkpt><trkpt lat="43.523888806853" lon="10.895406268547191"><ele>407.0</ele><time>2026-04-18T09:57:51.991Z</time></trkpt><trkpt lat="43.52392665114582" lon="10.895565357069387"><ele>407.0</ele><time>2026-04-18T09:57:52.991Z</time></trkpt><trkpt lat="43.523964118253" lon="10.89569837787272"><ele>407.0</ele><time>2026-04-18T09:57:53.991Z</time></trkpt><trkpt lat="43.52399089843363" lon="10.895818490545167"><ele>407.0</ele><time>2026-04-18T09:57:54.991Z</time></trkpt><trkpt lat="43.52401541550041" lon="10.895948661501421"><ele>407.0</ele><time>2026-04-18T09:57:55.991Z</time></trkpt><trkpt lat="43.52404642854214" lon="10.896067265431299"><ele>407.0</ele><time>2026-04-18T09:57:56.991Z</time></trkpt><trkpt lat="43.524072202894395" lon="10.896204225729123"><ele>407.0</ele><time>2026-04-18T09:57:57.991Z</time></trkpt><trkpt lat="43.5240962589565" lon="10.896340515474693"><ele>408.0</ele><time>2026-04-18T09:57:58.991Z</time></trkpt><trkpt lat="43.524125930893725" lon="10.896475799391881"><ele>409.0</ele><time>2026-04-18T09:57:59.991Z</time></trkpt><trkpt lat="43.5241454188186" lon="10.89660764672877"><ele>410.0</ele><time>2026-04-18T09:58:00.991Z</time></trkpt><trkpt lat="43.52416461337686" lon="10.896748462702051"><ele>411.0</ele><time>2026-04-18T09:58:01.991Z</time></trkpt><trkpt lat="43.52420061365098" lon="10.896881483505384"><ele>412.0</ele><time>2026-04-18T09:58:02.991Z</time></trkpt><trkpt lat="43.52423166860223" lon="10.897016096870319"><ele>412.20000000000005</ele><time>2026-04-18T09:58:03.991Z</time></trkpt><trkpt lat="43.52426062807769" lon="10.897153057168142"><ele>412.4</ele><time>2026-04-18T09:58:04.991Z</time></trkpt><trkpt lat="43.524291557300394" lon="10.89728733525695"><ele>412.6</ele><time>2026-04-18T09:58:05.991Z</time></trkpt><trkpt lat="43.52433116179288" lon="10.897420523698345"><ele>412.79999999999995</ele><time>2026-04-18T09:58:06.991Z</time></trkpt><trkpt lat="43.52435161363662" lon="10.897539295266286"><ele>413.0</ele><time>2026-04-18T09:58:07.991Z</time></trkpt><trkpt lat="43.52437181402326" lon="10.897645913074628"><ele>414.0</ele><time>2026-04-18T09:58:08.991Z</time></trkpt><trkpt lat="43.52439662445665" lon="10.897744065160767"><ele>415.0</ele><time>2026-04-18T09:58:09.991Z</time></trkpt><trkpt lat="43.52442130916149" lon="10.89790935629131"><ele>416.0</ele><time>2026-04-18T09:58:11.991Z</time></trkpt><trkpt lat="43.52441267580122" lon="10.898045897493974"><ele>417.0</ele><time>2026-04-18T09:58:13.991Z</time></trkpt><trkpt lat="43.52436351593912" lon="10.89817799628796"><ele>418.0</ele><time>2026-04-18T09:58:15.991Z</time></trkpt><trkpt lat="43.52431661919088" lon="10.898240525285619"><ele>418.0</ele><time>2026-04-18T09:58:16.991Z</time></trkpt><trkpt lat="43.524269890080696" lon="10.898299952979105"><ele>418.0</ele><time>2026-04-18T09:58:17.991Z</time></trkpt><trkpt lat="43.52421905383796" lon="10.898357285196798"><ele>418.0</ele><time>2026-04-18T09:58:18.991Z</time></trkpt><trkpt lat="43.52417089980424" lon="10.898434817801135"><ele>418.0</ele><time>2026-04-18T09:58:19.991Z</time></trkpt><trkpt lat="43.524122284765845" lon="10.89849608951332"><ele>418.0</ele><time>2026-04-18T09:58:20.991Z</time></trkpt><trkpt lat="43.52405958813012" lon="10.8985523320836"><ele>418.0</ele><time>2026-04-18T09:58:21.991Z</time></trkpt><trkpt lat="43.52401155982495" lon="10.898611675958055"><ele>418.0</ele><time>2026-04-18T09:58:22.991Z</time></trkpt><trkpt lat="43.52396336388171" lon="10.898674707869905"><ele>419.6666666666667</ele><time>2026-04-18T09:58:23.991Z</time></trkpt><trkpt lat="43.523862361948495" lon="10.898781158040183"><ele>421.33333333333337</ele><time>2026-04-18T09:58:25.991Z</time></trkpt><trkpt lat="43.52380473636419" lon="10.898839579905289"><ele>423.0</ele><time>2026-04-18T09:58:26.991Z</time></trkpt><trkpt lat="43.523735082748836" lon="10.89889188298108"><ele>424.66666666666663</ele><time>2026-04-18T09:58:27.991Z</time></trkpt><trkpt lat="43.52366744079024" lon="10.898938234905618"><ele>426.3333333333333</ele><time>2026-04-18T09:58:28.991Z</time></trkpt><trkpt lat="43.523605917620955" lon="10.899022640670555"><ele>428.0</ele><time>2026-04-18T09:58:29.991Z</time></trkpt><trkpt lat="43.52352683436453" lon="10.89911618270995"><ele>427.5</ele><time>2026-04-18T09:58:30.991Z</time></trkpt><trkpt lat="43.52342708971679" lon="10.899211568768042"><ele>427.0</ele><time>2026-04-18T09:58:31.991Z</time></trkpt><trkpt lat="43.52327034812748" lon="10.899295387799757"><ele>426.5</ele><time>2026-04-18T09:58:32.99Z</time></trkpt><trkpt lat="43.52312802341163" lon="10.899369986737984"><ele>426.0</ele><time>2026-04-18T09:58:33.99Z</time></trkpt><trkpt lat="43.5230026720497" lon="10.899462522948998"><ele>426.66666666666663</ele><time>2026-04-18T09:58:34.99Z</time></trkpt><trkpt lat="43.52282367650747" lon="10.899538714448827"><ele>427.3333333333333</ele><time>2026-04-18T09:58:35.99Z</time></trkpt><trkpt lat="43.52264937483102" lon="10.899622198204415"><ele>428.0</ele><time>2026-04-18T09:58:36.99Z</time></trkpt><trkpt lat="43.52249648891717" lon="10.899697048599737"><ele>428.0</ele><time>2026-04-18T09:58:37.99Z</time></trkpt><trkpt lat="43.52234368682235" lon="10.899763433272856"><ele>428.0</ele><time>2026-04-18T09:58:38.99Z</time></trkpt><trkpt lat="43.52218413729548" lon="10.899847922856825"><ele>428.0</ele><time>2026-04-18T09:58:39.99Z</time></trkpt><trkpt lat="43.522009793709515" lon="10.899940878162997"><ele>429.66666666666663</ele><time>2026-04-18T09:58:40.99Z</time></trkpt><trkpt lat="43.521842951926885" lon="10.900062415758986"><ele>431.33333333333337</ele><time>2026-04-18T09:58:41.99Z</time></trkpt><trkpt lat="43.521673176478146" lon="10.90020381846549"><ele>433.0</ele><time>2026-04-18T09:58:42.99Z</time></trkpt><trkpt lat="43.5214914987269" lon="10.900386879230757"><ele>433.0</ele><time>2026-04-18T09:58:43.99Z</time></trkpt><trkpt lat="43.5213181190598" lon="10.90056440793993"><ele>433.0</ele><time>2026-04-18T09:58:44.99Z</time></trkpt><trkpt lat="43.52115609687149" lon="10.90073397384109"><ele>433.0</ele><time>2026-04-18T09:58:45.99Z</time></trkpt><trkpt lat="43.52099315267384" lon="10.900908652703185"><ele>435.0</ele><time>2026-04-18T09:58:46.99Z</time></trkpt><trkpt lat="43.520840518217085" lon="10.90109456331553"><ele>437.0</ele><time>2026-04-18T09:58:47.99Z</time></trkpt><trkpt lat="43.52069023069322" lon="10.901269745091815"><ele>439.0</ele><time>2026-04-18T09:58:48.99Z</time></trkpt><trkpt lat="43.520513204898236" lon="10.901450123648067"><ele>438.0</ele><time>2026-04-18T09:58:49.99Z</time></trkpt><trkpt lat="43.520380770828126" lon="10.901622539396305"><ele>437.0</ele><time>2026-04-18T09:58:50.99Z</time></trkpt><trkpt lat="43.52023576390326" lon="10.90178648942234"><ele>436.0</ele><time>2026-04-18T09:58:51.99Z</time></trkpt><trkpt lat="43.52010018661946" lon="10.90195932426574"><ele>436.0</ele><time>2026-04-18T09:58:52.99Z</time></trkpt><trkpt lat="43.51995476059943" lon="10.902114473293445"><ele>436.0</ele><time>2026-04-18T09:58:53.99Z</time></trkpt><trkpt lat="43.519808747846184" lon="10.902251349772236"><ele>436.0</ele><time>2026-04-18T09:58:54.99Z</time></trkpt><trkpt lat="43.51964768957674" lon="10.902374982844016"><ele>437.6666666666667</ele><time>2026-04-18T09:58:55.99Z</time></trkpt><trkpt lat="43.5194842424649" lon="10.902470871816298"><ele>439.33333333333337</ele><time>2026-04-18T09:58:56.99Z</time></trkpt><trkpt lat="43.51930248089462" lon="10.90254865587773"><ele>441.0</ele><time>2026-04-18T09:58:57.99Z</time></trkpt><trkpt lat="43.51911564827293" lon="10.90260238387706"><ele>441.0</ele><time>2026-04-18T09:58:58.99Z</time></trkpt><trkpt lat="43.51892584007561" lon="10.902626607577226"><ele>441.0</ele><time>2026-04-18T09:58:59.99Z</time></trkpt><trkpt lat="43.51872928444624" lon="10.902636917318127"><ele>441.0</ele><time>2026-04-18T09:59:00.99Z</time></trkpt><trkpt lat="43.518541823181806" lon="10.90264194646003"><ele>441.0</ele><time>2026-04-18T09:59:01.99Z</time></trkpt><trkpt lat="43.51834933277547" lon="10.902643371383569"><ele>441.0</ele><time>2026-04-18T09:59:02.99Z</time></trkpt><trkpt lat="43.51815994367331" lon="10.902656782428643"><ele>441.0</ele><time>2026-04-18T09:59:03.99Z</time></trkpt><trkpt lat="43.517960999201534" lon="10.902663320313117"><ele>444.0</ele><time>2026-04-18T09:59:04.99Z</time></trkpt><trkpt lat="43.517771400551794" lon="10.902666086341164"><ele>447.0</ele><time>2026-04-18T09:59:05.99Z</time></trkpt><trkpt lat="43.51758540612042" lon="10.902662063027641"><ele>450.0</ele><time>2026-04-18T09:59:06.99Z</time></trkpt><trkpt lat="43.51742350966066" lon="10.902611268694422"><ele>449.66666666666663</ele><time>2026-04-18T09:59:07.99Z</time></trkpt><trkpt lat="43.51726123601526" lon="10.902528539310119"><ele>449.3333333333333</ele><time>2026-04-18T09:59:08.99Z</time></trkpt><trkpt lat="43.51711212195784" lon="10.902415635074398"><ele>449.0</ele><time>2026-04-18T09:59:09.99Z</time></trkpt><trkpt lat="43.51696569010943" lon="10.902266437197945"><ele>452.66666666666663</ele><time>2026-04-18T09:59:10.99Z</time></trkpt><trkpt lat="43.51682411976486" lon="10.902100894610307"><ele>456.33333333333337</ele><time>2026-04-18T09:59:11.99Z</time></trkpt><trkpt lat="43.516687620471714" lon="10.901925880472085"><ele>460.0</ele><time>2026-04-18T09:59:12.99Z</time></trkpt><trkpt lat="43.51653967988074" lon="10.9017454180968"><ele>460.0</ele><time>2026-04-18T09:59:13.99Z</time></trkpt><trkpt lat="43.5163868358764" lon="10.901577696214337"><ele>460.0</ele><time>2026-04-18T09:59:14.99Z</time></trkpt><trkpt lat="43.51623218976289" lon="10.901409639055748"><ele>460.0</ele><time>2026-04-18T09:59:15.99Z</time></trkpt><trkpt lat="43.51606279149979" lon="10.901262788112183"><ele>461.33333333333337</ele><time>2026-04-18T09:59:16.99Z</time></trkpt><trkpt lat="43.5158825805816" lon="10.901128007109184"><ele>462.66666666666663</ele><time>2026-04-18T09:59:17.99Z</time></trkpt><trkpt lat="43.51569214374154" lon="10.900994818667789"><ele>464.0</ele><time>2026-04-18T09:59:18.99Z</time></trkpt><trkpt lat="43.515502293634704" lon="10.900864228616376"><ele>467.0</ele><time>2026-04-18T09:59:19.99Z</time></trkpt><trkpt lat="43.515306408557585" lon="10.9007369075072"><ele>470.0</ele><time>2026-04-18T09:59:20.99Z</time></trkpt><trkpt lat="43.51510897282838" lon="10.900603299970646"><ele>473.0</ele><time>2026-04-18T09:59:21.99Z</time></trkpt><trkpt lat="43.51492616352021" lon="10.900493999953289"><ele>473.0</ele><time>2026-04-18T09:59:22.99Z</time></trkpt><trkpt lat="43.51475483741938" lon="10.900389896715899"><ele>473.0</ele><time>2026-04-18T09:59:23.99Z</time></trkpt><trkpt lat="43.51458761845111" lon="10.900275986651797"><ele>473.0</ele><time>2026-04-18T09:59:24.99Z</time></trkpt><trkpt lat="43.51441591516464" lon="10.900143301124592"><ele>474.66666666666663</ele><time>2026-04-18T09:59:25.99Z</time></trkpt><trkpt lat="43.51424706172525" lon="10.89998697863044"><ele>476.33333333333337</ele><time>2026-04-18T09:59:26.99Z</time></trkpt><trkpt lat="43.51408478807985" lon="10.89982864447953"><ele>478.0</ele><time>2026-04-18T09:59:27.99Z</time></trkpt><trkpt lat="43.51392737593829" lon="10.899643152962344"><ele>478.0</ele><time>2026-04-18T09:59:28.99Z</time></trkpt><trkpt lat="43.513766443397394" lon="10.899478197107928"><ele>478.0</ele><time>2026-04-18T09:59:29.99Z</time></trkpt><trkpt lat="43.513615569140306" lon="10.899333860735315"><ele>478.0</ele><time>2026-04-18T09:59:31.002Z</time></trkpt><trkpt lat="43.5134699335727" lon="10.899202432493585"><ele>479.6666666666667</ele><time>2026-04-18T09:59:32.002Z</time></trkpt><trkpt lat="43.51331868212997" lon="10.89907519520344"><ele>481.33333333333337</ele><time>2026-04-18T09:59:33.001Z</time></trkpt><trkpt lat="43.51315238517105" lon="10.898977965126651"><ele>483.0</ele><time>2026-04-18T09:59:34.001Z</time></trkpt><trkpt lat="43.512977161485246" lon="10.898913675929325"><ele>481.33333333333337</ele><time>2026-04-18T09:59:35.001Z</time></trkpt><trkpt lat="43.51278232414602" lon="10.898881237964051"><ele>479.6666666666667</ele><time>2026-04-18T09:59:36.001Z</time></trkpt><trkpt lat="43.51258702580213" lon="10.898906299854534"><ele>478.0</ele><time>2026-04-18T09:59:37.001Z</time></trkpt><trkpt lat="43.51239315238177" lon="10.898970756689923"><ele>478.0</ele><time>2026-04-18T09:59:38.001Z</time></trkpt><trkpt lat="43.5122240893948" lon="10.89907804505052"><ele>478.0</ele><time>2026-04-18T09:59:39.001Z</time></trkpt><trkpt lat="43.51207447242319" lon="10.89922908694567"><ele>478.0</ele><time>2026-04-18T09:59:40.001Z</time></trkpt><trkpt lat="43.51195138417511" lon="10.899419691423791"><ele>480.0</ele><time>2026-04-18T09:59:41.001Z</time></trkpt><trkpt lat="43.5118527710843" lon="10.899649355570691"><ele>482.0</ele><time>2026-04-18T09:59:42.001Z</time></trkpt><trkpt lat="43.51179229565292" lon="10.899899555380362"><ele>484.0</ele><time>2026-04-18T09:59:43.001Z</time></trkpt><trkpt lat="43.511772388632885" lon="10.900173811252136"><ele>484.0</ele><time>2026-04-18T09:59:44.001Z</time></trkpt><trkpt lat="43.51177326873272" lon="10.90046525002541"><ele>484.0</ele><time>2026-04-18T09:59:45.001Z</time></trkpt><trkpt lat="43.51179418158113" lon="10.90075987392189"><ele>484.0</ele><time>2026-04-18T09:59:46.001Z</time></trkpt><trkpt lat="43.5118414136055" lon="10.901038991297503"><ele>484.0</ele><time>2026-04-18T09:59:47Z</time></trkpt><trkpt lat="43.51189933255642" lon="10.901319617415686"><ele>484.0</ele><time>2026-04-18T09:59:48Z</time></trkpt><trkpt lat="43.51197384767561" lon="10.901558082560916"><ele>484.0</ele><time>2026-04-18T09:59:49Z</time></trkpt><trkpt lat="43.51206755735307" lon="10.901796631525178"><ele>483.6666666666667</ele><time>2026-04-18T09:59:50Z</time></trkpt><trkpt lat="43.51215041246592" lon="10.90203266591849"><ele>483.33333333333337</ele><time>2026-04-18T09:59:51Z</time></trkpt><trkpt lat="43.51219219625323" lon="10.90229745023968"><ele>483.0</ele><time>2026-04-18T09:59:52Z</time></trkpt><trkpt lat="43.51221004970699" lon="10.9025691915405"><ele>483.33333333333337</ele><time>2026-04-18T09:59:53Z</time></trkpt><trkpt lat="43.51222132336675" lon="10.902849482382557"><ele>483.6666666666667</ele><time>2026-04-18T09:59:54Z</time></trkpt><trkpt lat="43.5121828714258" lon="10.903109698033061"><ele>484.0</ele><time>2026-04-18T09:59:55Z</time></trkpt><trkpt lat="43.512163125474466" lon="10.903375655317545"><ele>484.33333333333337</ele><time>2026-04-18T09:59:56Z</time></trkpt><trkpt lat="43.512143221334775" lon="10.903639435636492"><ele>484.66666666666663</ele><time>2026-04-18T09:59:57Z</time></trkpt><trkpt lat="43.51212177576774" lon="10.90388915823689"><ele>485.0</ele><time>2026-04-18T09:59:58Z</time></trkpt><trkpt lat="43.51209111050098" lon="10.904124034578823"><ele>486.66666666666663</ele><time>2026-04-18T09:59:59Z</time></trkpt><trkpt lat="43.51200980604022" lon="10.904339281852268"><ele>488.33333333333337</ele><time>2026-04-18T10:00:00Z</time></trkpt><trkpt lat="43.51189543497144" lon="10.9045275393975"><ele>490.0</ele><time>2026-04-18T10:00:01Z</time></trkpt><trkpt lat="43.51175311025559" lon="10.904671959589146"><ele>490.0</ele><time>2026-04-18T10:00:02Z</time></trkpt><trkpt lat="43.511585343663945" lon="10.904767993093548"><ele>490.0</ele><time>2026-04-18T10:00:03Z</time></trkpt><trkpt lat="43.51139801288419" lon="10.904835607313016"><ele>490.0</ele><time>2026-04-18T10:00:04Z</time></trkpt><trkpt lat="43.511203592683664" lon="10.904918052266263"><ele>489.33333333333337</ele><time>2026-04-18T10:00:05Z</time></trkpt><trkpt lat="43.511012359562805" lon="10.904985526586794"><ele>488.66666666666663</ele><time>2026-04-18T10:00:06Z</time></trkpt><trkpt lat="43.510808385949126" lon="10.905046546841882"><ele>488.0</ele><time>2026-04-18T10:00:07Z</time></trkpt><trkpt lat="43.51061296187668" lon="10.905117206285619"><ele>487.0</ele><time>2026-04-18T10:00:08Z</time></trkpt><trkpt lat="43.51041263439088" lon="10.905179400007151"><ele>486.0</ele><time>2026-04-18T10:00:09Z</time></trkpt><trkpt lat="43.510212893638304" lon="10.905257770801805"><ele>485.0</ele><time>2026-04-18T10:00:10Z</time></trkpt><trkpt lat="43.51001420062362" lon="10.90532784351232"><ele>487.0</ele><time>2026-04-18T10:00:11Z</time></trkpt><trkpt lat="43.509811735752514" lon="10.90539825149896"><ele>489.0</ele><time>2026-04-18T10:00:12Z</time></trkpt><trkpt lat="43.50961279128074" lon="10.905460109944366"><ele>491.0</ele><time>2026-04-18T10:00:13Z</time></trkpt><trkpt lat="43.50940978158592" lon="10.905526578436517"><ele>493.66666666666663</ele><time>2026-04-18T10:00:14Z</time></trkpt><trkpt lat="43.50921456706106" lon="10.905596315870904"><ele>496.33333333333337</ele><time>2026-04-18T10:00:15Z</time></trkpt><trkpt lat="43.50902714770614" lon="10.90565968305888"><ele>499.0</ele><time>2026-04-18T10:00:16Z</time></trkpt><trkpt lat="43.50884542804538" lon="10.905723217884923"><ele>501.0</ele><time>2026-04-18T10:00:17Z</time></trkpt><trkpt lat="43.50865461401968" lon="10.905777197341347"><ele>503.0</ele><time>2026-04-18T10:00:17.999Z</time></trkpt><trkpt lat="43.50847343918263" lon="10.90584081598642"><ele>505.0</ele><time>2026-04-18T10:00:18.999Z</time></trkpt><trkpt lat="43.50828962404607" lon="10.905910385782743"><ele>505.6666666666667</ele><time>2026-04-18T10:00:19.999Z</time></trkpt><trkpt lat="43.50810350388615" lon="10.905975848446513"><ele>506.33333333333337</ele><time>2026-04-18T10:00:20.999Z</time></trkpt><trkpt lat="43.507918473373635" lon="10.906050698841835"><ele>507.0</ele><time>2026-04-18T10:00:21.999Z</time></trkpt><trkpt lat="43.50774781782506" lon="10.90612764471295"><ele>508.0</ele><time>2026-04-18T10:00:22.999Z</time></trkpt><trkpt lat="43.50758868739335" lon="10.906236525635148"><ele>509.0</ele><time>2026-04-18T10:00:23.999Z</time></trkpt><trkpt lat="43.507420504506214" lon="10.906371641914273"><ele>510.0</ele><time>2026-04-18T10:00:24.999Z</time></trkpt><trkpt lat="43.50726548120706" lon="10.906528299684549"><ele>510.0</ele><time>2026-04-18T10:00:25.999Z</time></trkpt><trkpt lat="43.50711561277835" lon="10.90669501573863"><ele>510.0</ele><time>2026-04-18T10:00:26.999Z</time></trkpt><trkpt lat="43.506960673298224" lon="10.906865587468172"><ele>510.0</ele><time>2026-04-18T10:00:27.999Z</time></trkpt><trkpt lat="43.506819522048815" lon="10.907029788951302"><ele>513.3333333333334</ele><time>2026-04-18T10:00:28.999Z</time></trkpt><trkpt lat="43.506692955310925" lon="10.907183010141278"><ele>516.6666666666667</ele><time>2026-04-18T10:00:29.999Z</time></trkpt><trkpt lat="43.50656454455434" lon="10.90733748861673"><ele>520.0</ele><time>2026-04-18T10:00:30.999Z</time></trkpt><trkpt lat="43.5064325714889" lon="10.907479058961297"><ele>520.3333333333334</ele><time>2026-04-18T10:00:31.999Z</time></trkpt><trkpt lat="43.50630449600844" lon="10.907626496638086"><ele>520.6666666666666</ele><time>2026-04-18T10:00:32.999Z</time></trkpt><trkpt lat="43.50618589207856" lon="10.90776446276429"><ele>521.0</ele><time>2026-04-18T10:00:33.999Z</time></trkpt><trkpt lat="43.50606209136872" lon="10.907883821065452"><ele>522.0</ele><time>2026-04-18T10:00:34.999Z</time></trkpt><trkpt lat="43.50590220656572" lon="10.907989097769287"><ele>523.0</ele><time>2026-04-18T10:00:35.999Z</time></trkpt><trkpt lat="43.50574022628693" lon="10.90806646273556"><ele>524.0</ele><time>2026-04-18T10:00:36.999Z</time></trkpt><trkpt lat="43.50556693043886" lon="10.908114071945574"><ele>525.3333333333333</ele><time>2026-04-18T10:00:37.999Z</time></trkpt><trkpt lat="43.50539606534271" lon="10.908125387514856"><ele>526.6666666666666</ele><time>2026-04-18T10:00:38.999Z</time></trkpt><trkpt lat="43.50522209894238" lon="10.908111473555591"><ele>528.0</ele><time>2026-04-18T10:00:39.999Z</time></trkpt><trkpt lat="43.50505672399281" lon="10.908094039196994"><ele>528.0</ele><time>2026-04-18T10:00:40.999Z</time></trkpt><trkpt lat="43.50489461798547" lon="10.908081969256427"><ele>528.0</ele><time>2026-04-18T10:00:41.999Z</time></trkpt><trkpt lat="43.5047332244399" lon="10.908066127459433"><ele>528.0</ele><time>2026-04-18T10:00:42.999Z</time></trkpt><trkpt lat="43.50456621501921" lon="10.908035114417698"><ele>530.0</ele><time>2026-04-18T10:00:43.999Z</time></trkpt><trkpt lat="43.5044018039885" lon="10.9080004971576"><ele>532.0</ele><time>2026-04-18T10:00:44.999Z</time></trkpt><trkpt lat="43.50423680622457" lon="10.907982056970623"><ele>534.0</ele><time>2026-04-18T10:00:45.999Z</time></trkpt><trkpt lat="43.504068581427916" lon="10.907956743623044"><ele>534.0</ele><time>2026-04-18T10:00:46.999Z</time></trkpt><trkpt lat="43.50390605632542" lon="10.907930089170959"><ele>534.0</ele><time>2026-04-18T10:00:47.999Z</time></trkpt><trkpt lat="43.503746255341454" lon="10.907901255424049"><ele>534.0</ele><time>2026-04-18T10:00:48.999Z</time></trkpt><trkpt lat="43.50357874300657" lon="10.907873343686488"><ele>534.6666666666666</ele><time>2026-04-18T10:00:49.999Z</time></trkpt><trkpt lat="43.503403980325444" lon="10.90785004199567"><ele>535.3333333333333</ele><time>2026-04-18T10:00:50.999Z</time></trkpt><trkpt lat="43.50323416296719" lon="10.90781584383073"><ele>536.0</ele><time>2026-04-18T10:00:51.999Z</time></trkpt><trkpt lat="43.50306694399892" lon="10.907791536311533"><ele>535.3333333333333</ele><time>2026-04-18T10:00:52.999Z</time></trkpt><trkpt lat="43.502883841324135" lon="10.907759433622386"><ele>534.6666666666666</ele><time>2026-04-18T10:00:53.999Z</time></trkpt><trkpt lat="43.502701618749185" lon="10.907732862989333"><ele>534.0</ele><time>2026-04-18T10:00:54.999Z</time></trkpt><trkpt lat="43.50251038562833" lon="10.907699754471805"><ele>534.0</ele><time>2026-04-18T10:00:55.999Z</time></trkpt><trkpt lat="43.502330216619654" lon="10.907675027857449"><ele>534.0</ele><time>2026-04-18T10:00:56.999Z</time></trkpt><trkpt lat="43.50216484167008" lon="10.907652480537918"><ele>534.0</ele><time>2026-04-18T10:00:57.999Z</time></trkpt><trkpt lat="43.50200445395289" lon="10.907635716731575"><ele>535.0</ele><time>2026-04-18T10:00:58.999Z</time></trkpt><trkpt lat="43.50185513034789" lon="10.90764334426346"><ele>536.0</ele><time>2026-04-18T10:00:59.999Z</time></trkpt><trkpt lat="43.50171259608446" lon="10.907692294577982"><ele>537.0</ele><time>2026-04-18T10:01:00.999Z</time></trkpt><trkpt lat="43.50156494886009" lon="10.907771671201017"><ele>537.0</ele><time>2026-04-18T10:01:01.999Z</time></trkpt><trkpt lat="43.501417409241114" lon="10.907882063275546"><ele>537.0</ele><time>2026-04-18T10:01:02.999Z</time></trkpt><trkpt lat="43.501290326945224" lon="10.908037939282378"><ele>537.0</ele><time>2026-04-18T10:01:03.999Z</time></trkpt><trkpt lat="43.501191283616706" lon="10.908234016979959"><ele>538.6666666666666</ele><time>2026-04-18T10:01:04.999Z</time></trkpt><trkpt lat="43.50107754119067" lon="10.908411629508164"><ele>540.3333333333333</ele><time>2026-04-18T10:01:05.999Z</time></trkpt><trkpt lat="43.50099313542573" lon="10.908600892881777"><ele>542.0</ele><time>2026-04-18T10:01:06.999Z</time></trkpt><trkpt lat="43.50092553537665" lon="10.908790826807644"><ele>542.0</ele><time>2026-04-18T10:01:07.999Z</time></trkpt><trkpt lat="43.50085206799535" lon="10.908987717713144"><ele>542.0</ele><time>2026-04-18T10:01:08.999Z</time></trkpt><trkpt lat="43.50079737607716" lon="10.90917513706806"><ele>542.0</ele><time>2026-04-18T10:01:09.999Z</time></trkpt><trkpt lat="43.50074700083909" lon="10.909367417926815"><ele>542.0</ele><time>2026-04-18T10:01:10.999Z</time></trkpt><trkpt lat="43.5006946977633" lon="10.90956062079492"><ele>542.0</ele><time>2026-04-18T10:01:11.999Z</time></trkpt><trkpt lat="43.50064868111489" lon="10.909732365990905"><ele>542.0</ele><time>2026-04-18T10:01:12.999Z</time></trkpt><trkpt lat="43.50060706496564" lon="10.909910732890395"><ele>542.0</ele><time>2026-04-18T10:01:13.999Z</time></trkpt><trkpt lat="43.50059310909686" lon="10.910108797262339"><ele>543.0</ele><time>2026-04-18T10:01:14.999Z</time></trkpt><trkpt lat="43.50059239663509" lon="10.910315327356486"><ele>544.0</ele><time>2026-04-18T10:01:15.999Z</time></trkpt><trkpt lat="43.500613309483505" lon="10.910518588508396"><ele>545.0</ele><time>2026-04-18T10:01:16.999Z</time></trkpt><trkpt lat="43.500646334182" lon="10.910719754184512"><ele>546.0</ele><time>2026-04-18T10:01:17.999Z</time></trkpt><trkpt lat="43.50067709576664" lon="10.910930391411213"><ele>546.0</ele><time>2026-04-18T10:01:18.999Z</time></trkpt><trkpt lat="43.50071414377866" lon="10.911131137992172"><ele>546.0</ele><time>2026-04-18T10:01:19.998Z</time></trkpt><trkpt lat="43.500739163759626" lon="10.911308582882313"><ele>546.0</ele><time>2026-04-18T10:01:20.998Z</time></trkpt><trkpt lat="43.50077164363442" lon="10.911483848477632"><ele>546.0</ele><time>2026-04-18T10:01:21.998Z</time></trkpt><trkpt lat="43.50079150874494" lon="10.911680571745068"><ele>544.75</ele><time>2026-04-18T10:01:22.998Z</time></trkpt><trkpt lat="43.50079230502574" lon="10.911860866482288"><ele>543.5</ele><time>2026-04-18T10:01:23.998Z</time></trkpt><trkpt lat="43.500763932283505" lon="10.912047950561076"><ele>542.25</ele><time>2026-04-18T10:01:24.998Z</time></trkpt><trkpt lat="43.50071393423108" lon="10.912242829809815"><ele>541.0</ele><time>2026-04-18T10:01:25.998Z</time></trkpt><trkpt lat="43.50065253679035" lon="10.912427986050874"><ele>540.0</ele><time>2026-04-18T10:01:26.998Z</time></trkpt><trkpt lat="43.50058904387382" lon="10.912618590528995"><ele>539.0</ele><time>2026-04-18T10:01:27.998Z</time></trkpt><trkpt lat="43.50052341357199" lon="10.912819420928985"><ele>538.0</ele><time>2026-04-18T10:01:28.998Z</time></trkpt><trkpt lat="43.5004658298972" lon="10.91295939871195"><ele>537.0</ele><time>2026-04-18T10:01:29.998Z</time></trkpt><trkpt lat="43.5004021274331" lon="10.913133574659854"><ele>537.0</ele><time>2026-04-18T10:01:30.998Z</time></trkpt><trkpt lat="43.50032987542776" lon="10.91328679584983"><ele>537.0</ele><time>2026-04-18T10:01:31.998Z</time></trkpt><trkpt lat="43.50025682714162" lon="10.91344261542979"><ele>537.0</ele><time>2026-04-18T10:01:32.998Z</time></trkpt><trkpt lat="43.50019274749187" lon="10.913591310392054"><ele>537.0</ele><time>2026-04-18T10:01:33.998Z</time></trkpt><trkpt lat="43.50012296814797" lon="10.913732629279526"><ele>537.25</ele><time>2026-04-18T10:01:34.998Z</time></trkpt><trkpt lat="43.5000524763423" lon="10.913879983137281"><ele>537.5</ele><time>2026-04-18T10:01:35.998Z</time></trkpt><trkpt lat="43.49997817077068" lon="10.914021804938944"><ele>537.75</ele><time>2026-04-18T10:01:36.998Z</time></trkpt><trkpt lat="43.499910864088214" lon="10.914180977280171"><ele>538.0</ele><time>2026-04-18T10:01:37.998Z</time></trkpt><trkpt lat="43.499865015077866" lon="10.914347441877158"><ele>538.0</ele><time>2026-04-18T10:01:38.998Z</time></trkpt><trkpt lat="43.49982435498819" lon="10.914526498681811"><ele>538.0</ele><time>2026-04-18T10:01:39.998Z</time></trkpt><trkpt lat="43.4998228304816" lon="10.914719485028963"><ele>538.0</ele><time>2026-04-18T10:01:40.998Z</time></trkpt><trkpt lat="43.49985587880341" lon="10.91489670799199"><ele>538.0</ele><time>2026-04-18T10:01:41.998Z</time></trkpt><trkpt lat="43.49987482190458" lon="10.91507021338764"><ele>537.75</ele><time>2026-04-18T10:01:42.998Z</time></trkpt><trkpt lat="43.499901141080535" lon="10.915240114564927"><ele>537.5</ele><time>2026-04-18T10:01:43.998Z</time></trkpt><trkpt lat="43.49992079664347" lon="10.915422337139878"><ele>537.25</ele><time>2026-04-18T10:01:44.998Z</time></trkpt><trkpt lat="43.49994401451526" lon="10.915602799515161"><ele>537.0</ele><time>2026-04-18T10:01:45.998Z</time></trkpt><trkpt lat="43.49996786102978" lon="10.915789799774918"><ele>536.5</ele><time>2026-04-18T10:01:46.998Z</time></trkpt><trkpt lat="43.499985840212084" lon="10.9159789793295"><ele>536.0</ele><time>2026-04-18T10:01:47.998Z</time></trkpt><trkpt lat="43.49998961206851" lon="10.916163800294433"><ele>535.5</ele><time>2026-04-18T10:01:48.998Z</time></trkpt><trkpt lat="43.49995943721709" lon="10.916353566582236"><ele>535.0</ele><time>2026-04-18T10:01:49.998Z</time></trkpt><trkpt lat="43.49990365565149" lon="10.91651642696086"><ele>535.0</ele><time>2026-04-18T10:01:50.998Z</time></trkpt><trkpt lat="43.499817280139304" lon="10.916663110266361"><ele>535.0</ele><time>2026-04-18T10:01:51.998Z</time></trkpt><trkpt lat="43.49971849941043" lon="10.916785066957507"><ele>535.0</ele><time>2026-04-18T10:01:52.998Z</time></trkpt><trkpt lat="43.49961607255367" lon="10.916880788291726"><ele>535.0</ele><time>2026-04-18T10:01:53.998Z</time></trkpt><trkpt lat="43.49952533845184" lon="10.916955806325111"><ele>536.6</ele><time>2026-04-18T10:01:54.998Z</time></trkpt><trkpt lat="43.49943611309258" lon="10.917024705569181"><ele>538.2</ele><time>2026-04-18T10:01:55.998Z</time></trkpt><trkpt lat="43.49935858048824" lon="10.917085893462334"><ele>539.8</ele><time>2026-04-18T10:01:56.998Z</time></trkpt><trkpt lat="43.499294710386074" lon="10.917134676138792"><ele>541.4</ele><time>2026-04-18T10:01:57.998Z</time></trkpt><trkpt lat="43.499187463934994" lon="10.917221261198556"><ele>543.0</ele><time>2026-04-18T10:01:59.998Z</time></trkpt><trkpt lat="43.4991274914178" lon="10.917263841266667"><ele>543.0</ele><time>2026-04-18T10:02:00.998Z</time></trkpt><trkpt lat="43.49906479478208" lon="10.917314970876014"><ele>543.0</ele><time>2026-04-18T10:02:01.998Z</time></trkpt><trkpt lat="43.49899832628993" lon="10.917366268123423"><ele>543.0</ele><time>2026-04-18T10:02:02.998Z</time></trkpt><trkpt lat="43.498927163932" lon="10.917418068285023"><ele>543.0</ele><time>2026-04-18T10:02:03.998Z</time></trkpt><trkpt lat="43.498854702379084" lon="10.917476322512066"><ele>543.0</ele><time>2026-04-18T10:02:04.998Z</time></trkpt><trkpt lat="43.49876681812433" lon="10.91754103080455"><ele>543.0</ele><time>2026-04-18T10:02:05.998Z</time></trkpt><trkpt lat="43.49867495246557" lon="10.917596686641609"><ele>542.1666666666666</ele><time>2026-04-18T10:02:06.998Z</time></trkpt><trkpt lat="43.49857835103152" lon="10.917640859271323"><ele>541.3333333333334</ele><time>2026-04-18T10:02:07.998Z</time></trkpt><trkpt lat="43.49848669492034" lon="10.917669441561138"><ele>540.5</ele><time>2026-04-18T10:02:08.998Z</time></trkpt><trkpt lat="43.49841536492435" lon="10.917680170397198"><ele>539.6666666666667</ele><time>2026-04-18T10:02:09.998Z</time></trkpt><trkpt lat="43.498335862572766" lon="10.91768905521456"><ele>538.8333333333334</ele><time>2026-04-18T10:02:10.998Z</time></trkpt><trkpt lat="43.498269394080616" lon="10.917705148468649"><ele>538.0</ele><time>2026-04-18T10:02:11.998Z</time></trkpt><trkpt lat="43.49815523255942" lon="10.917743956680333"><ele>538.0</ele><time>2026-04-18T10:02:13.998Z</time></trkpt><trkpt lat="43.498094379942394" lon="10.917788883681332"><ele>538.0</ele><time>2026-04-18T10:02:14.998Z</time></trkpt><trkpt lat="43.498025950048245" lon="10.917831142177834"><ele>538.0</ele><time>2026-04-18T10:02:15.998Z</time></trkpt><trkpt lat="43.49797674201951" lon="10.91792295005639"><ele>538.0</ele><time>2026-04-18T10:02:16.998Z</time></trkpt><trkpt lat="43.49795218095509" lon="10.918038832033908"><ele>538.0</ele><time>2026-04-18T10:02:17.998Z</time></trkpt><trkpt lat="43.49790201441743" lon="10.918141086286537"><ele>538.0</ele><time>2026-04-18T10:02:18.998Z</time></trkpt><trkpt lat="43.4978677459659" lon="10.918254306647603"><ele>538.0</ele><time>2026-04-18T10:02:19.998Z</time></trkpt><trkpt lat="43.497834052731996" lon="10.918370019370407"><ele>538.0</ele><time>2026-04-18T10:02:20.998Z</time></trkpt><trkpt lat="43.49780438952951" lon="10.918477609059746"><ele>538.0</ele><time>2026-04-18T10:02:21.998Z</time></trkpt><trkpt lat="43.49777216572937" lon="10.918596846872678"><ele>538.0</ele><time>2026-04-18T10:02:22.998Z</time></trkpt><trkpt lat="43.49774182909738" lon="10.918709101570359"><ele>538.0</ele><time>2026-04-18T10:02:23.998Z</time></trkpt><trkpt lat="43.49770869425992" lon="10.918830777954135"><ele>538.0</ele><time>2026-04-18T10:02:24.998Z</time></trkpt><trkpt lat="43.497673105462674" lon="10.918951603522906"><ele>538.0</ele><time>2026-04-18T10:02:25.997Z</time></trkpt><trkpt lat="43.49763087061132" lon="10.919074822120022"><ele>538.0</ele><time>2026-04-18T10:02:26.997Z</time></trkpt><trkpt lat="43.49758828512407" lon="10.919194882818234"><ele>538.0</ele><time>2026-04-18T10:02:27.997Z</time></trkpt><trkpt lat="43.497543793846766" lon="10.919320315946635"><ele>538.0</ele><time>2026-04-18T10:02:28.997Z</time></trkpt><trkpt lat="43.49750518859132" lon="10.919429152879054"><ele>538.0</ele><time>2026-04-18T10:02:29.997Z</time></trkpt><trkpt lat="43.49746539850207" lon="10.919542865170916"><ele>536.8</ele><time>2026-04-18T10:02:30.997Z</time></trkpt><trkpt lat="43.49742744082645" lon="10.919656237851527"><ele>535.5999999999999</ele><time>2026-04-18T10:02:31.997Z</time></trkpt><trkpt lat="43.49739436460391" lon="10.919783421808743"><ele>534.4000000000001</ele><time>2026-04-18T10:02:32.997Z</time></trkpt><trkpt lat="43.497398388612545" lon="10.91990640387956"><ele>533.2</ele><time>2026-04-18T10:02:33.997Z</time></trkpt><trkpt lat="43.49737903869447" lon="10.920026165386906"><ele>532.0</ele><time>2026-04-18T10:02:34.997Z</time></trkpt><trkpt lat="43.49738291195225" lon="10.920145760566877"><ele>531.0</ele><time>2026-04-18T10:02:35.997Z</time></trkpt><trkpt lat="43.49738766021958" lon="10.920258659821812"><ele>530.0</ele><time>2026-04-18T10:02:36.997Z</time></trkpt><trkpt lat="43.49739309702134" lon="10.920375855938904"><ele>529.0</ele><time>2026-04-18T10:02:37.997Z</time></trkpt><trkpt lat="43.49741150629101" lon="10.920551056052483"><ele>528.0</ele><time>2026-04-18T10:02:39.997Z</time></trkpt><trkpt lat="43.49740664478717" lon="10.920648789043463"><ele>527.0</ele><time>2026-04-18T10:02:40.997Z</time></trkpt><trkpt lat="43.49734449297515" lon="10.920780971656479"><ele>527.0</ele><time>2026-04-18T10:02:42.997Z</time></trkpt><trkpt lat="43.49730006888834" lon="10.920852301652468"><ele>527.0</ele><time>2026-04-18T10:02:43.997Z</time></trkpt><trkpt lat="43.49721520211873" lon="10.92092857697133"><ele>527.0</ele><time>2026-04-18T10:02:44.997Z</time></trkpt><trkpt lat="43.497108835767484" lon="10.920989178131261"><ele>527.0</ele><time>2026-04-18T10:02:45.997Z</time></trkpt><trkpt lat="43.497032350901044" lon="10.92103360221807"><ele>527.0</ele><time>2026-04-18T10:02:46.997Z</time></trkpt><trkpt lat="43.496890906285024" lon="10.921113314117232"><ele>524.75</ele><time>2026-04-18T10:02:48.997Z</time></trkpt><trkpt lat="43.496783156919754" lon="10.921160420413056"><ele>522.5</ele><time>2026-04-18T10:02:49.997Z</time></trkpt><trkpt lat="43.496657805557824" lon="10.921202078471818"><ele>520.25</ele><time>2026-04-18T10:02:50.997Z</time></trkpt><trkpt lat="43.49654624242661" lon="10.921261589984336"><ele>518.0</ele><time>2026-04-18T10:02:51.997Z</time></trkpt><trkpt lat="43.49645173646835" lon="10.921330405409375"><ele>518.0</ele><time>2026-04-18T10:02:52.997Z</time></trkpt><trkpt lat="43.496369132812596" lon="10.921424534181991"><ele>518.0</ele><time>2026-04-18T10:02:53.997Z</time></trkpt><trkpt lat="43.49631536290375" lon="10.921536600227395"><ele>518.0</ele><time>2026-04-18T10:02:54.997Z</time></trkpt><trkpt lat="43.49625237290142" lon="10.921637685979643"><ele>518.0</ele><time>2026-04-18T10:02:55.997Z</time></trkpt><trkpt lat="43.49620338067738" lon="10.921752015138903"><ele>518.0</ele><time>2026-04-18T10:02:56.997Z</time></trkpt><trkpt lat="43.496143827255345" lon="10.921874726201334"><ele>517.75</ele><time>2026-04-18T10:02:57.997Z</time></trkpt><trkpt lat="43.4960850282046" lon="10.92200690881435"><ele>517.5</ele><time>2026-04-18T10:02:58.997Z</time></trkpt><trkpt lat="43.496024343225635" lon="10.92214034871284"><ele>517.25</ele><time>2026-04-18T10:02:59.997Z</time></trkpt><trkpt lat="43.495957665185905" lon="10.92227320187811"><ele>517.0</ele><time>2026-04-18T10:03:00.997Z</time></trkpt><trkpt lat="43.49588080313382" lon="10.922410832728186"><ele>517.0</ele><time>2026-04-18T10:03:01.997Z</time></trkpt><trkpt lat="43.49582141734985" lon="10.92254100368444"><ele>517.0</ele><time>2026-04-18T10:03:02.997Z</time></trkpt><trkpt lat="43.49576152865169" lon="10.922663463289776"><ele>517.0</ele><time>2026-04-18T10:03:03.997Z</time></trkpt><trkpt lat="43.495693509507454" lon="10.922789275656381"><ele>517.0</ele><time>2026-04-18T10:03:04.997Z</time></trkpt><trkpt lat="43.495616898912466" lon="10.922906454662721"><ele>517.0</ele><time>2026-04-18T10:03:05.997Z</time></trkpt><trkpt lat="43.49552603908209" lon="10.923022879297774"><ele>517.5</ele><time>2026-04-18T10:03:06.997Z</time></trkpt><trkpt lat="43.495429144281424" lon="10.923135364438336"><ele>518.0</ele><time>2026-04-18T10:03:07.997Z</time></trkpt><trkpt lat="43.495327765162564" lon="10.923254638920467"><ele>518.5</ele><time>2026-04-18T10:03:08.997Z</time></trkpt><trkpt lat="43.495219387154556" lon="10.923375841240327"><ele>519.0</ele><time>2026-04-18T10:03:09.997Z</time></trkpt><trkpt lat="43.49512320481566" lon="10.923495786274712"><ele>518.0</ele><time>2026-04-18T10:03:10.997Z</time></trkpt><trkpt lat="43.495022705796636" lon="10.923617491508763"><ele>517.0</ele><time>2026-04-18T10:03:11.997Z</time></trkpt><trkpt lat="43.49492585290549" lon="10.923734921972196"><ele>516.0</ele><time>2026-04-18T10:03:12.997Z</time></trkpt><trkpt lat="43.49483155649481" lon="10.92384992168371"><ele>515.0</ele><time>2026-04-18T10:03:13.997Z</time></trkpt><trkpt lat="43.49473403305141" lon="10.923968525613587"><ele>515.0</ele><time>2026-04-18T10:03:14.997Z</time></trkpt><trkpt lat="43.49465021401969" lon="10.924073969955485"><ele>515.0</ele><time>2026-04-18T10:03:15.997Z</time></trkpt><trkpt lat="43.494568029459096" lon="10.924176396812241"><ele>515.0</ele><time>2026-04-18T10:03:16.997Z</time></trkpt><trkpt lat="43.49448685072688" lon="10.924273710708063"><ele>515.0</ele><time>2026-04-18T10:03:17.997Z</time></trkpt><trkpt lat="43.494421136606014" lon="10.92437228188936"><ele>515.0</ele><time>2026-04-18T10:03:18.997Z</time></trkpt><trkpt lat="43.49436149936495" lon="10.92446414754812"><ele>513.6666666666666</ele><time>2026-04-18T10:03:19.997Z</time></trkpt><trkpt lat="43.494299221824384" lon="10.92454670929436"><ele>512.3333333333333</ele><time>2026-04-18T10:03:20.997Z</time></trkpt><trkpt lat="43.494240422773636" lon="10.924632623801868"><ele>511.0</ele><time>2026-04-18T10:03:21.997Z</time></trkpt><trkpt lat="43.49418288100836" lon="10.924710994596522"><ele>509.66666666666663</ele><time>2026-04-18T10:03:22.997Z</time></trkpt><trkpt lat="43.494136026169635" lon="10.924790203581495"><ele>508.3333333333333</ele><time>2026-04-18T10:03:23.997Z</time></trkpt><trkpt lat="43.49407827485678" lon="10.924876285727066"><ele>507.0</ele><time>2026-04-18T10:03:24.997Z</time></trkpt><trkpt lat="43.49402073309151" lon="10.924959601844591"><ele>507.0</ele><time>2026-04-18T10:03:25.997Z</time></trkpt><trkpt lat="43.49397773392824" lon="10.925048617656273"><ele>507.0</ele><time>2026-04-18T10:03:26.997Z</time></trkpt><trkpt lat="43.493952085304535" lon="10.925138806934399"><ele>507.0</ele><time>2026-04-18T10:03:27.997Z</time></trkpt><trkpt lat="43.493936620693184" lon="10.925225224356097"><ele>507.0</ele><time>2026-04-18T10:03:28.997Z</time></trkpt><trkpt lat="43.493923754471815" lon="10.92536360957746"><ele>507.0</ele><time>2026-04-18T10:03:30.997Z</time></trkpt><trkpt lat="43.493903516567094" lon="10.925448444211725"><ele>507.0</ele><time>2026-04-18T10:03:31.997Z</time></trkpt><trkpt lat="43.493901682907904" lon="10.925589920963091"><ele>506.20000000000005</ele><time>2026-04-18T10:03:33.996Z</time></trkpt><trkpt lat="43.49390040135627" lon="10.925726529191381"><ele>505.40000000000003</ele><time>2026-04-18T10:03:35.996Z</time></trkpt><trkpt lat="43.49389701658858" lon="10.925875164170952"><ele>504.59999999999997</ele><time>2026-04-18T10:03:37.996Z</time></trkpt><trkpt lat="43.49391063679335" lon="10.925980098555726"><ele>503.79999999999995</ele><time>2026-04-18T10:03:39.996Z</time></trkpt><trkpt lat="43.493890794418846" lon="10.926090019291701"><ele>503.0</ele><time>2026-04-18T10:03:42.996Z</time></trkpt><trkpt lat="43.493894417810715" lon="10.926218647519988"><ele>502.0</ele><time>2026-04-18T10:03:45.996Z</time></trkpt><trkpt lat="43.49387962375162" lon="10.926335155974073"><ele>500.99999999999994</ele><time>2026-04-18T10:03:47.996Z</time></trkpt><trkpt lat="43.4938875027406" lon="10.926466751853866"><ele>499.99999999999994</ele><time>2026-04-18T10:03:49.996Z</time></trkpt><trkpt lat="43.49387970757065" lon="10.926603125418467"><ele>499.0</ele><time>2026-04-18T10:03:51.996Z</time></trkpt><trkpt lat="43.493839390616394" lon="10.926715359101935"><ele>498.0</ele><time>2026-04-18T10:03:53.996Z</time></trkpt><trkpt lat="43.49375402093259" lon="10.926820384348675"><ele>498.0</ele><time>2026-04-18T10:03:55.996Z</time></trkpt><trkpt lat="43.49369777836231" lon="10.926885511736318"><ele>497.99999999999994</ele><time>2026-04-18T10:03:56.996Z</time></trkpt><trkpt lat="43.49363654855964" lon="10.926955081532642"><ele>497.99999999999994</ele><time>2026-04-18T10:03:57.996Z</time></trkpt><trkpt lat="43.493551639880515" lon="10.92704049312596"><ele>498.0</ele><time>2026-04-18T10:03:58.996Z</time></trkpt><trkpt lat="43.493489404249466" lon="10.927134705717608"><ele>498.0</ele><time>2026-04-18T10:03:59.996Z</time></trkpt><trkpt lat="43.49341882862476" lon="10.927238641316935"><ele>498.0</ele><time>2026-04-18T10:04:00.996Z</time></trkpt><trkpt lat="43.493353030684865" lon="10.92734006234531"><ele>498.0</ele><time>2026-04-18T10:04:01.996Z</time></trkpt><trkpt lat="43.49326900210557" lon="10.927449781457826"><ele>498.0</ele><time>2026-04-18T10:04:02.996Z</time></trkpt><trkpt lat="43.49318815864948" lon="10.927568804482862"><ele>498.0</ele><time>2026-04-18T10:04:03.996Z</time></trkpt><trkpt lat="43.493105806450814" lon="10.92769822106783"><ele>497.0</ele><time>2026-04-18T10:04:04.996Z</time></trkpt><trkpt lat="43.49302186169055" lon="10.927822189415737"><ele>496.0</ele><time>2026-04-18T10:04:05.996Z</time></trkpt><trkpt lat="43.492960715706914" lon="10.927925705919906"><ele>495.0</ele><time>2026-04-18T10:04:06.996Z</time></trkpt><trkpt lat="43.49286746703413" lon="10.928042046735927"><ele>494.0</ele><time>2026-04-18T10:04:07.996Z</time></trkpt><trkpt lat="43.492786791216105" lon="10.928161824132248"><ele>491.75</ele><time>2026-04-18T10:04:08.996Z</time></trkpt><trkpt lat="43.492707582231134" lon="10.928274812187"><ele>489.5</ele><time>2026-04-18T10:04:09.996Z</time></trkpt><trkpt lat="43.49263306711194" lon="10.928387045870467"><ele>487.25</ele><time>2026-04-18T10:04:10.996Z</time></trkpt><trkpt lat="43.49254996054199" lon="10.928501375029727"><ele>485.0</ele><time>2026-04-18T10:04:11.996Z</time></trkpt><trkpt lat="43.49246500995335" lon="10.92859676108782"><ele>484.8</ele><time>2026-04-18T10:04:12.996Z</time></trkpt><trkpt lat="43.49236983344284" lon="10.928667420531557"><ele>484.6</ele><time>2026-04-18T10:04:13.996Z</time></trkpt><trkpt lat="43.49228370938775" lon="10.92873204500501"><ele>484.4</ele><time>2026-04-18T10:04:14.996Z</time></trkpt><trkpt lat="43.49219020925787" lon="10.928784180442737"><ele>484.2</ele><time>2026-04-18T10:04:15.996Z</time></trkpt><trkpt lat="43.49209478129026" lon="10.928795496012018"><ele>484.0</ele><time>2026-04-18T10:04:16.996Z</time></trkpt><trkpt lat="43.49198606800613" lon="10.928779738034056"><ele>484.5</ele><time>2026-04-18T10:04:17.996Z</time></trkpt><trkpt lat="43.49187098447558" lon="10.928719639788316"><ele>485.0</ele><time>2026-04-18T10:04:18.996Z</time></trkpt><trkpt lat="43.49175129089829" lon="10.928654177124546"><ele>485.5</ele><time>2026-04-18T10:04:19.996Z</time></trkpt><trkpt lat="43.49164366726157" lon="10.92858309858565"><ele>486.0</ele><time>2026-04-18T10:04:20.996Z</time></trkpt><trkpt lat="43.491545682813495" lon="10.92851076276128"><ele>486.0</ele><time>2026-04-18T10:04:21.996Z</time></trkpt><trkpt lat="43.491455744992464" lon="10.928483270118877"><ele>486.0</ele><time>2026-04-18T10:04:22.996Z</time></trkpt><trkpt lat="43.491342715028196" lon="10.92848293484275"><ele>486.0</ele><time>2026-04-18T10:04:23.996Z</time></trkpt><trkpt lat="43.491228595416516" lon="10.928521491597339"><ele>486.0</ele><time>2026-04-18T10:04:24.996Z</time></trkpt><trkpt lat="43.491116487461596" lon="10.928603466610358"><ele>483.25</ele><time>2026-04-18T10:04:25.996Z</time></trkpt><trkpt lat="43.49101615608063" lon="10.92872768641536"><ele>480.5</ele><time>2026-04-18T10:04:26.996Z</time></trkpt><trkpt lat="43.490935103076964" lon="10.92887185514991"><ele>477.75</ele><time>2026-04-18T10:04:27.996Z</time></trkpt><trkpt lat="43.49086364735243" lon="10.929021723578618"><ele>475.0</ele><time>2026-04-18T10:04:28.996Z</time></trkpt><trkpt lat="43.490799609612196" lon="10.929172178740547"><ele>476.25</ele><time>2026-04-18T10:04:29.996Z</time></trkpt><trkpt lat="43.490740223828226" lon="10.929319951693461"><ele>477.5</ele><time>2026-04-18T10:04:30.996Z</time></trkpt><trkpt lat="43.490672749507695" lon="10.92946940102701"><ele>478.75</ele><time>2026-04-18T10:04:31.996Z</time></trkpt><trkpt lat="43.49060795739618" lon="10.929621784026669"><ele>480.0</ele><time>2026-04-18T10:04:32.996Z</time></trkpt><trkpt lat="43.490537884685665" lon="10.929783219481752"><ele>480.0</ele><time>2026-04-18T10:04:33.996Z</time></trkpt><trkpt lat="43.49047816362557" lon="10.929930824796603"><ele>480.0</ele><time>2026-04-18T10:04:34.996Z</time></trkpt><trkpt lat="43.49041228186664" lon="10.930086141462372"><ele>480.0</ele><time>2026-04-18T10:04:35.996Z</time></trkpt><trkpt lat="43.49035582974878" lon="10.930241374309109"><ele>480.0</ele><time>2026-04-18T10:04:36.996Z</time></trkpt><trkpt lat="43.49029581532207" lon="10.930393170575545"><ele>475.5</ele><time>2026-04-18T10:04:37.996Z</time></trkpt><trkpt lat="43.4902340406957" lon="10.930545888851332"><ele>471.0</ele><time>2026-04-18T10:04:38.996Z</time></trkpt><trkpt lat="43.49017796576348" lon="10.930700618783879"><ele>466.5</ele><time>2026-04-18T10:04:39.995Z</time></trkpt><trkpt lat="43.490131152834266" lon="10.930867921571183"><ele>462.0</ele><time>2026-04-18T10:04:40.995Z</time></trkpt><trkpt lat="43.49010194190171" lon="10.931052574898052"><ele>461.75</ele><time>2026-04-18T10:04:41.995Z</time></trkpt><trkpt lat="43.490105252753466" lon="10.931244352842617"><ele>461.5</ele><time>2026-04-18T10:04:42.995Z</time></trkpt><trkpt lat="43.49009330854145" lon="10.931401094431925"><ele>461.25</ele><time>2026-04-18T10:04:43.995Z</time></trkpt><trkpt lat="43.49007843066332" lon="10.931552471603203"><ele>461.0</ele><time>2026-04-18T10:04:44.995Z</time></trkpt><trkpt lat="43.49007549699721" lon="10.93170820736413"><ele>460.4</ele><time>2026-04-18T10:04:45.995Z</time></trkpt><trkpt lat="43.49007432353076" lon="10.931858327249932"><ele>459.8</ele><time>2026-04-18T10:04:46.995Z</time></trkpt><trkpt lat="43.49007549699721" lon="10.931995455185818"><ele>459.19999999999993</ele><time>2026-04-18T10:04:47.995Z</time></trkpt><trkpt lat="43.49007444925931" lon="10.932126715789485"><ele>458.59999999999997</ele><time>2026-04-18T10:04:48.995Z</time></trkpt><trkpt lat="43.49007302433577" lon="10.932249762128043"><ele>458.0</ele><time>2026-04-18T10:04:49.995Z</time></trkpt><trkpt lat="43.49005127329704" lon="10.932355960841226"><ele>457.99999999999994</ele><time>2026-04-18T10:04:50.995Z</time></trkpt><trkpt lat="43.49000345453945" lon="10.932435086007168"><ele>458.0</ele><time>2026-04-18T10:04:51.995Z</time></trkpt><trkpt lat="43.489937614690035" lon="10.93246207573538"><ele>458.0</ele><time>2026-04-18T10:04:52.995Z</time></trkpt><trkpt lat="43.489856477867335" lon="10.932427709932377"><ele>458.0</ele><time>2026-04-18T10:04:53.995Z</time></trkpt><trkpt lat="43.48978912927535" lon="10.932340705777454"><ele>457.99999999999994</ele><time>2026-04-18T10:04:54.995Z</time></trkpt><trkpt lat="43.4897546377438" lon="10.932199889804172"><ele>458.0</ele><time>2026-04-18T10:04:55.995Z</time></trkpt><trkpt lat="43.48974298689839" lon="10.93205270358448"><ele>458.0</ele><time>2026-04-18T10:04:56.995Z</time></trkpt><trkpt lat="43.48973741293278" lon="10.93191733584826"><ele>457.99999999999994</ele><time>2026-04-18T10:04:57.995Z</time></trkpt><trkpt lat="43.48972764801559" lon="10.931772831837582"><ele>457.99999999999994</ele><time>2026-04-18T10:04:58.995Z</time></trkpt><trkpt lat="43.4897133987802" lon="10.931611899296689"><ele>458.0</ele><time>2026-04-18T10:04:59.995Z</time></trkpt><trkpt lat="43.48969638351676" lon="10.93143847772007"><ele>458.0</ele><time>2026-04-18T10:05:00.995Z</time></trkpt><trkpt lat="43.489683559204906" lon="10.931250555450964"><ele>458.75</ele><time>2026-04-18T10:05:01.995Z</time></trkpt><trkpt lat="43.4896690166029" lon="10.931069254885363"><ele>459.5</ele><time>2026-04-18T10:05:02.995Z</time></trkpt><trkpt lat="43.48965531219122" lon="10.930890385071683"><ele>460.25</ele><time>2026-04-18T10:05:03.995Z</time></trkpt><trkpt lat="43.48963791974214" lon="10.930700032050657"><ele>461.0</ele><time>2026-04-18T10:05:04.995Z</time></trkpt><trkpt lat="43.48961671352711" lon="10.930517725656676"><ele>461.25</ele><time>2026-04-18T10:05:05.995Z</time></trkpt><trkpt lat="43.489592825103074" lon="10.93033818529074"><ele>461.5</ele><time>2026-04-18T10:05:06.995Z</time></trkpt><trkpt lat="43.48955908794281" lon="10.930162332962201"><ele>461.75</ele><time>2026-04-18T10:05:07.995Z</time></trkpt><trkpt lat="43.48951747179356" lon="10.929997880021975"><ele>462.0</ele><time>2026-04-18T10:05:08.995Z</time></trkpt><trkpt lat="43.48947145514515" lon="10.929822362969563"><ele>455.75</ele><time>2026-04-18T10:05:09.995Z</time></trkpt><trkpt lat="43.489417894783884" lon="10.929646929736183"><ele>449.5</ele><time>2026-04-18T10:05:10.995Z</time></trkpt><trkpt lat="43.48937200386402" lon="10.92947669328277"><ele>443.25</ele><time>2026-04-18T10:05:11.995Z</time></trkpt><trkpt lat="43.48932083234516" lon="10.929296147088454"><ele>437.0</ele><time>2026-04-18T10:05:12.995Z</time></trkpt><trkpt lat="43.489280096295744" lon="10.929119624207662"><ele>436.75</ele><time>2026-04-18T10:05:13.995Z</time></trkpt><trkpt lat="43.48925624978122" lon="10.928926169882462"><ele>436.5</ele><time>2026-04-18T10:05:14.995Z</time></trkpt><trkpt lat="43.489248831796914" lon="10.92872424983506"><ele>436.25</ele><time>2026-04-18T10:05:15.995Z</time></trkpt><trkpt lat="43.489257632795244" lon="10.92850590125744"><ele>436.0</ele><time>2026-04-18T10:05:16.995Z</time></trkpt><trkpt lat="43.4892738936874" lon="10.928291156898185"><ele>435.33333333333337</ele><time>2026-04-18T10:05:17.995Z</time></trkpt><trkpt lat="43.48929166332212" lon="10.928078172738596"><ele>434.66666666666663</ele><time>2026-04-18T10:05:18.995Z</time></trkpt><trkpt lat="43.489303146529465" lon="10.92786921189253"><ele>434.0</ele><time>2026-04-18T10:05:19.995Z</time></trkpt><trkpt lat="43.48931978460726" lon="10.927667543302222"><ele>433.5</ele><time>2026-04-18T10:05:20.995Z</time></trkpt><trkpt lat="43.489336129318446" lon="10.927476435909911"><ele>433.0</ele><time>2026-04-18T10:05:21.995Z</time></trkpt><trkpt lat="43.489350001368194" lon="10.927280383194729"><ele>432.5</ele><time>2026-04-18T10:05:22.995Z</time></trkpt><trkpt lat="43.48936814818856" lon="10.927078714604422"><ele>432.0</ele><time>2026-04-18T10:05:23.995Z</time></trkpt><trkpt lat="43.489380050491064" lon="10.926871765415116"><ele>430.25</ele><time>2026-04-18T10:05:24.995Z</time></trkpt><trkpt lat="43.48939941268739" lon="10.926673701043171"><ele>428.5</ele><time>2026-04-18T10:05:25.995Z</time></trkpt><trkpt lat="43.48942845598188" lon="10.926483431841177"><ele>426.75</ele><time>2026-04-18T10:05:26.995Z</time></trkpt><trkpt lat="43.48946960904251" lon="10.926305429026167"><ele>425.0</ele><time>2026-04-18T10:05:27.995Z</time></trkpt><trkpt lat="43.489496855565484" lon="10.92611862662288"><ele>425.0</ele><time>2026-04-18T10:05:28.995Z</time></trkpt><trkpt lat="43.489523123449196" lon="10.925938534282723"><ele>425.0</ele><time>2026-04-18T10:05:29.995Z</time></trkpt><trkpt lat="43.489546884549654" lon="10.92576923383364"><ele>425.0</ele><time>2026-04-18T10:05:30.995Z</time></trkpt><trkpt lat="43.489567773346614" lon="10.925619700274769"><ele>425.0</ele><time>2026-04-18T10:05:31.995Z</time></trkpt><trkpt lat="43.48958679747304" lon="10.925483560629965"><ele>424.99999999999994</ele><time>2026-04-18T10:05:32.995Z</time></trkpt><trkpt lat="43.48960487354657" lon="10.925355337600866"><ele>425.0</ele><time>2026-04-18T10:05:33.995Z</time></trkpt><trkpt lat="43.48962178679868" lon="10.92523536498177"><ele>425.0</ele><time>2026-04-18T10:05:34.995Z</time></trkpt><trkpt lat="43.489638519130544" lon="10.925120024699106"><ele>425.0</ele><time>2026-04-18T10:05:35.995Z</time></trkpt><trkpt lat="43.489652000926284" lon="10.92502799531253"><ele>424.99999999999994</ele><time>2026-04-18T10:05:36.995Z</time></trkpt><trkpt lat="43.489669121633305" lon="10.92491112352824"><ele>425.0</ele><time>2026-04-18T10:05:38.995Z</time></trkpt><trkpt lat="43.489607996347814" lon="10.924869328747434"><ele>423.85714285714283</ele><time>2026-04-18T10:05:39.995Z</time></trkpt><trkpt lat="43.48954090716337" lon="10.924850145287136"><ele>422.71428571428567</ele><time>2026-04-18T10:05:44.995Z</time></trkpt><trkpt lat="43.48947702911076" lon="10.92486815528099"><ele>421.57142857142856</ele><time>2026-04-18T10:06:12.994Z</time></trkpt><trkpt lat="43.489407165947824" lon="10.924891289333743"><ele>420.42857142857144</ele><time>2026-04-18T10:06:20.994Z</time></trkpt><trkpt lat="43.48932201749391" lon="10.924885706299834"><ele>419.2857142857143</ele><time>2026-04-18T10:06:22.994Z</time></trkpt><trkpt lat="43.489257733268296" lon="10.924907446448007"><ele>418.14285714285717</ele><time>2026-04-18T10:06:24.994Z</time></trkpt><trkpt lat="43.48923039160994" lon="10.925029087821883"><ele>417.0</ele><time>2026-04-18T10:06:28.994Z</time></trkpt><trkpt lat="43.48916324262833" lon="10.92511732174094"><ele>417.0</ele><time>2026-04-18T10:06:31.994Z</time></trkpt><trkpt lat="43.48912489410829" lon="10.925218511925374"><ele>417.0</ele><time>2026-04-18T10:06:33.994Z</time></trkpt><trkpt lat="43.48910385415097" lon="10.925374303003407"><ele>417.0</ele><time>2026-04-18T10:06:36.994Z</time></trkpt><trkpt lat="43.48909861498057" lon="10.925544147248624"><ele>417.0</ele><time>2026-04-18T10:06:38.994Z</time></trkpt><trkpt lat="43.489097869910424" lon="10.925655317970666"><ele>417.0</ele><time>2026-04-18T10:06:39.994Z</time></trkpt><trkpt lat="43.48909871209988" lon="10.925748152092817"><ele>417.0</ele><time>2026-04-18T10:06:40.994Z</time></trkpt><trkpt lat="43.48909028621589" lon="10.925880979238805"><ele>417.0</ele><time>2026-04-18T10:06:42.994Z</time></trkpt><trkpt lat="43.489074313164345" lon="10.925972189005194"><ele>417.0</ele><time>2026-04-18T10:06:44.994Z</time></trkpt><trkpt lat="43.489046660292416" lon="10.926073221499962"><ele>417.0</ele><time>2026-04-18T10:06:46.994Z</time></trkpt><trkpt lat="43.48899884153482" lon="10.926138851801795"><ele>417.0</ele><time>2026-04-18T10:06:48.994Z</time></trkpt><trkpt lat="43.488938617560535" lon="10.926206409941358"><ele>417.0</ele><time>2026-04-18T10:06:50.994Z</time></trkpt><trkpt lat="43.4888573969188" lon="10.926272124062223"><ele>418.3333333333333</ele><time>2026-04-18T10:06:52.993Z</time></trkpt><trkpt lat="43.48879745720942" lon="10.926320771555266"><ele>419.66666666666663</ele><time>2026-04-18T10:06:54.993Z</time></trkpt><trkpt lat="43.488717544864386" lon="10.926341023306293"><ele>421.0</ele><time>2026-04-18T10:06:56.993Z</time></trkpt><trkpt lat="43.48862827759561" lon="10.926406653608126"><ele>422.3333333333333</ele><time>2026-04-18T10:06:58.993Z</time></trkpt><trkpt lat="43.4885304607856" lon="10.926435068259877"><ele>423.66666666666663</ele><time>2026-04-18T10:07:00.993Z</time></trkpt><trkpt lat="43.48844693512049" lon="10.92644688674335"><ele>425.0</ele><time>2026-04-18T10:07:02.993Z</time></trkpt><trkpt lat="43.488432643975585" lon="10.92654026114468"><ele>425.0</ele><time>2026-04-18T10:07:10.993Z</time></trkpt><trkpt lat="43.48850313578126" lon="10.926483683298272"><ele>425.0</ele><time>2026-04-18T10:07:12.993Z</time></trkpt><trkpt lat="43.488626601214975" lon="10.926430542032165"><ele>425.0</ele><time>2026-04-18T10:07:14.993Z</time></trkpt><trkpt lat="43.48869759593484" lon="10.926402630294604"><ele>425.0</ele><time>2026-04-18T10:07:15.993Z</time></trkpt><trkpt lat="43.4887952870163" lon="10.926357787112636"><ele>425.0</ele><time>2026-04-18T10:07:16.993Z</time></trkpt><trkpt lat="43.488873364444345" lon="10.926299281428498"><ele>424.99999999999994</ele><time>2026-04-18T10:07:17.993Z</time></trkpt><trkpt lat="43.4889482986587" lon="10.926238428811473"><ele>425.0</ele><time>2026-04-18T10:07:18.993Z</time></trkpt><trkpt lat="43.48901313267973" lon="10.926157459626836"><ele>425.0</ele><time>2026-04-18T10:07:19.993Z</time></trkpt><trkpt lat="43.489069626707106" lon="10.926052266742033"><ele>425.0</ele><time>2026-04-18T10:07:20.993Z</time></trkpt><trkpt lat="43.48910172939625" lon="10.925938524315995"><ele>424.99999999999994</ele><time>2026-04-18T10:07:21.993Z</time></trkpt><trkpt lat="43.489122348878055" lon="10.925832912336034"><ele>425.0</ele><time>2026-04-18T10:07:22.993Z</time></trkpt><trkpt lat="43.48912486344901" lon="10.925721684480948"><ele>423.66666666666663</ele><time>2026-04-18T10:07:23.993Z</time></trkpt><trkpt lat="43.489129641133815" lon="10.925608864064259"><ele>422.3333333333333</ele><time>2026-04-18T10:07:24.993Z</time></trkpt><trkpt lat="43.48912633028206" lon="10.925486320639891"><ele>421.0</ele><time>2026-04-18T10:07:25.993Z</time></trkpt><trkpt lat="43.489134293090075" lon="10.925368303443236"><ele>419.66666666666663</ele><time>2026-04-18T10:07:26.993Z</time></trkpt><trkpt lat="43.48914908714917" lon="10.925267720605177"><ele>418.3333333333333</ele><time>2026-04-18T10:07:27.993Z</time></trkpt><trkpt lat="43.48915076352981" lon="10.925174178565783"><ele>417.0</ele><time>2026-04-18T10:07:28.993Z</time></trkpt><trkpt lat="43.48921434026536" lon="10.925037134448928"><ele>416.6666666666667</ele><time>2026-04-18T10:07:30.993Z</time></trkpt><trkpt lat="43.48926345821795" lon="10.924980305145425"><ele>416.33333333333337</ele><time>2026-04-18T10:07:31.993Z</time></trkpt><trkpt lat="43.4893687768313" lon="10.924908472235245"><ele>416.0</ele><time>2026-04-18T10:07:33.993Z</time></trkpt><trkpt lat="43.489456828724116" lon="10.924870502213878"><ele>415.6666666666667</ele><time>2026-04-18T10:07:35.993Z</time></trkpt><trkpt lat="43.48951336466101" lon="10.924912579367799"><ele>415.33333333333337</ele><time>2026-04-18T10:07:38.993Z</time></trkpt><trkpt lat="43.489565583917766" lon="10.924856252978486"><ele>415.0</ele><time>2026-04-18T10:14:24.947Z</time></trkpt><trkpt lat="43.48953134384331" lon="10.924935545782489"><ele>415.0</ele><time>2026-04-18T10:15:06.947Z</time></trkpt><trkpt lat="43.48958184480992" lon="10.924992375085992"><ele>415.0</ele><time>2026-04-18T10:21:46.941Z</time></trkpt><trkpt lat="43.489586957770854" lon="10.92513059266929"><ele>415.0</ele><time>2026-04-18T10:21:48.941Z</time></trkpt><trkpt lat="43.489579455967515" lon="10.925234947363776"><ele>415.0</ele><time>2026-04-18T10:21:49.941Z</time></trkpt><trkpt lat="43.4895630274373" lon="10.925420941795153"><ele>415.0</ele><time>2026-04-18T10:21:50.941Z</time></trkpt><trkpt lat="43.48954944875416" lon="10.92556645163421"><ele>415.5</ele><time>2026-04-18T10:21:51.941Z</time></trkpt><trkpt lat="43.489528661634296" lon="10.925741046677274"><ele>416.0</ele><time>2026-04-18T10:21:52.941Z</time></trkpt><trkpt lat="43.489502049091726" lon="10.925921592871589"><ele>416.5</ele><time>2026-04-18T10:21:53.941Z</time></trkpt><trkpt lat="43.48948096860525" lon="10.926109850416822"><ele>417.0</ele><time>2026-04-18T10:21:54.941Z</time></trkpt><trkpt lat="43.4894427890363" lon="10.926330881203455"><ele>419.0</ele><time>2026-04-18T10:21:55.941Z</time></trkpt><trkpt lat="43.48941198554215" lon="10.926540177325649"><ele>421.0</ele><time>2026-04-18T10:21:56.941Z</time></trkpt><trkpt lat="43.48938017621961" lon="10.92673220672731"><ele>423.0</ele><time>2026-04-18T10:21:57.941Z</time></trkpt><trkpt lat="43.489350504282385" lon="10.926918033520623"><ele>425.0</ele><time>2026-04-18T10:21:58.941Z</time></trkpt><trkpt lat="43.48932950761494" lon="10.927086677412435"><ele>426.4</ele><time>2026-04-18T10:21:59.941Z</time></trkpt><trkpt lat="43.48931970078823" lon="10.927238222221776"><ele>427.8</ele><time>2026-04-18T10:22:00.94Z</time></trkpt><trkpt lat="43.489306792657345" lon="10.927382139499231"><ele>429.20000000000005</ele><time>2026-04-18T10:22:01.94Z</time></trkpt><trkpt lat="43.48929937467304" lon="10.927513148645803"><ele>430.6</ele><time>2026-04-18T10:22:02.94Z</time></trkpt><trkpt lat="43.4892892325702" lon="10.927640805031105"><ele>432.0</ele><time>2026-04-18T10:22:03.94Z</time></trkpt><trkpt lat="43.48928244322863" lon="10.927760163332268"><ele>432.3333333333333</ele><time>2026-04-18T10:22:04.94Z</time></trkpt><trkpt lat="43.48926557840628" lon="10.927887998159582"><ele>432.66666666666663</ele><time>2026-04-18T10:22:05.94Z</time></trkpt><trkpt lat="43.489273516501754" lon="10.928017068664476"><ele>433.0</ele><time>2026-04-18T10:22:06.94Z</time></trkpt><trkpt lat="43.48926119510409" lon="10.928138606260463"><ele>433.3333333333333</ele><time>2026-04-18T10:22:07.94Z</time></trkpt><trkpt lat="43.489249125163525" lon="10.928254947076484"><ele>433.66666666666663</ele><time>2026-04-18T10:22:08.94Z</time></trkpt><trkpt lat="43.489240324165195" lon="10.928369192416712"><ele>434.0</ele><time>2026-04-18T10:22:09.94Z</time></trkpt><trkpt lat="43.48922720648673" lon="10.928492825488492"><ele>434.3333333333333</ele><time>2026-04-18T10:22:10.94Z</time></trkpt><trkpt lat="43.48922477573481" lon="10.928612267608688"><ele>434.66666666666663</ele><time>2026-04-18T10:22:11.94Z</time></trkpt><trkpt lat="43.489216016646" lon="10.928728524605678"><ele>435.0</ele><time>2026-04-18T10:22:12.94Z</time></trkpt><trkpt lat="43.489216142374545" lon="10.928844111050413"><ele>435.33333333333337</ele><time>2026-04-18T10:22:13.94Z</time></trkpt><trkpt lat="43.48921475936052" lon="10.92896070332353"><ele>435.6666666666667</ele><time>2026-04-18T10:22:14.94Z</time></trkpt><trkpt lat="43.489227374124795" lon="10.929066482941554"><ele>436.0</ele><time>2026-04-18T10:22:15.94Z</time></trkpt><trkpt lat="43.489232956612064" lon="10.929177711942293"><ele>436.1666666666667</ele><time>2026-04-18T10:22:16.94Z</time></trkpt><trkpt lat="43.48926084324147" lon="10.929287851405116"><ele>436.33333333333337</ele><time>2026-04-18T10:22:17.94Z</time></trkpt><trkpt lat="43.48928893998294" lon="10.92938779257252"><ele>436.5</ele><time>2026-04-18T10:22:18.94Z</time></trkpt><trkpt lat="43.48932202246294" lon="10.92949137507599"><ele>436.66666666666663</ele><time>2026-04-18T10:22:19.94Z</time></trkpt><trkpt lat="43.48935812134144" lon="10.929603039475545"><ele>436.8333333333333</ele><time>2026-04-18T10:22:20.94Z</time></trkpt><trkpt lat="43.48939187689872" lon="10.929710898142215"><ele>437.0</ele><time>2026-04-18T10:22:21.94Z</time></trkpt><trkpt lat="43.48942619150346" lon="10.929824215499305"><ele>437.0</ele><time>2026-04-18T10:22:22.94Z</time></trkpt><trkpt lat="43.48946261093319" lon="10.9299444841672"><ele>437.00000000000006</ele><time>2026-04-18T10:22:23.94Z</time></trkpt><trkpt lat="43.489495142601584" lon="10.930061120218435"><ele>437.00000000000006</ele><time>2026-04-18T10:22:24.94Z</time></trkpt><trkpt lat="43.48952436538878" lon="10.93017826633783"><ele>437.0</ele><time>2026-04-18T10:22:25.94Z</time></trkpt><trkpt lat="43.48955037582303" lon="10.930298135857047"><ele>437.0</ele><time>2026-04-18T10:22:26.94Z</time></trkpt><trkpt lat="43.4895844431999" lon="10.930404905239985"><ele>440.99999999999994</ele><time>2026-04-18T10:22:27.94Z</time></trkpt><trkpt lat="43.489609211723774" lon="10.930521246056008"><ele>445.0</ele><time>2026-04-18T10:22:28.94Z</time></trkpt><trkpt lat="43.48962325141159" lon="10.930635994310427"><ele>449.0</ele><time>2026-04-18T10:22:29.94Z</time></trkpt><trkpt lat="43.48963536326167" lon="10.930744204680371"><ele>453.0</ele><time>2026-04-18T10:22:30.94Z</time></trkpt><trkpt lat="43.48964890003529" lon="10.930857276554155"><ele>456.99999999999994</ele><time>2026-04-18T10:22:31.94Z</time></trkpt><trkpt lat="43.489658162038296" lon="10.93097671867435"><ele>461.0</ele><time>2026-04-18T10:22:32.94Z</time></trkpt><trkpt lat="43.48966851368871" lon="10.93109792099421"><ele>461.0</ele><time>2026-04-18T10:22:33.94Z</time></trkpt><trkpt lat="43.48967630885866" lon="10.931224823008227"><ele>461.0</ele><time>2026-04-18T10:22:34.94Z</time></trkpt><trkpt lat="43.48968795970407" lon="10.931353652859974"><ele>461.0</ele><time>2026-04-18T10:22:35.94Z</time></trkpt><trkpt lat="43.48969797607836" lon="10.931489355872321"><ele>461.0</ele><time>2026-04-18T10:22:36.94Z</time></trkpt><trkpt lat="43.48971272822794" lon="10.931626986722398"><ele>461.0</ele><time>2026-04-18T10:22:37.94Z</time></trkpt><trkpt lat="43.48972173877385" lon="10.931768976162124"><ele>460.49999999999994</ele><time>2026-04-18T10:22:38.94Z</time></trkpt><trkpt lat="43.489732928614586" lon="10.931913983086991"><ele>460.0</ele><time>2026-04-18T10:22:39.94Z</time></trkpt><trkpt lat="43.48974516619322" lon="10.932049350823211"><ele>459.5</ele><time>2026-04-18T10:22:40.94Z</time></trkpt><trkpt lat="43.489749440963834" lon="10.932173151533055"><ele>459.0</ele><time>2026-04-18T10:22:41.94Z</time></trkpt><trkpt lat="43.48975522447702" lon="10.932280020798492"><ele>458.49999999999994</ele><time>2026-04-18T10:22:42.94Z</time></trkpt><trkpt lat="43.48977303602126" lon="10.93238102273171"><ele>458.0</ele><time>2026-04-18T10:22:43.94Z</time></trkpt><trkpt lat="43.489806395995885" lon="10.932461908097316"><ele>457.99999999999994</ele><time>2026-04-18T10:22:44.94Z</time></trkpt><trkpt lat="43.48989226859388" lon="10.932550923908998"><ele>458.0</ele><time>2026-04-18T10:22:46.94Z</time></trkpt><trkpt lat="43.48995144483027" lon="10.932588391016175"><ele>458.0</ele><time>2026-04-18T10:22:48.94Z</time></trkpt><trkpt lat="43.490004083182185" lon="10.932657290260245"><ele>458.0</ele><time>2026-04-18T10:22:53.94Z</time></trkpt><trkpt lat="43.490068120922416" lon="10.932778073484947"><ele>457.99999999999994</ele><time>2026-04-18T10:23:37.939Z</time></trkpt><trkpt lat="43.49007629327801" lon="10.93287597411399"><ele>458.0</ele><time>2026-04-18T10:23:38.939Z</time></trkpt><trkpt lat="43.490076125639945" lon="10.93298393302684"><ele>458.0</ele><time>2026-04-18T10:23:39.939Z</time></trkpt><trkpt lat="43.4900672827321" lon="10.933107817555715"><ele>458.0</ele><time>2026-04-18T10:23:40.939Z</time></trkpt><trkpt lat="43.49005705681023" lon="10.933256344879915"><ele>458.0</ele><time>2026-04-18T10:23:41.939Z</time></trkpt><trkpt lat="43.49004624415514" lon="10.933420127267887"><ele>458.0</ele><time>2026-04-18T10:23:42.939Z</time></trkpt><trkpt lat="43.490035641047626" lon="10.933609809736659"><ele>458.0</ele><time>2026-04-18T10:23:43.939Z</time></trkpt><trkpt lat="43.490018248598545" lon="10.933809299032141"><ele>458.0</ele><time>2026-04-18T10:23:44.939Z</time></trkpt><trkpt lat="43.48998928912309" lon="10.934019014249493"><ele>458.0</ele><time>2026-04-18T10:23:45.939Z</time></trkpt><trkpt lat="43.48996192220923" lon="10.934242727245142"><ele>458.0</ele><time>2026-04-18T10:23:46.939Z</time></trkpt><trkpt lat="43.4899351420286" lon="10.934477671991042"><ele>458.0</ele><time>2026-04-18T10:23:47.939Z</time></trkpt><trkpt lat="43.48991389390406" lon="10.934727955619744"><ele>458.0</ele><time>2026-04-18T10:23:48.939Z</time></trkpt><trkpt lat="43.48989394497451" lon="10.93497798779135"><ele>456.66666666666663</ele><time>2026-04-18T10:23:49.939Z</time></trkpt><trkpt lat="43.489866284694045" lon="10.935242604474476"><ele>455.33333333333337</ele><time>2026-04-18T10:23:50.939Z</time></trkpt><trkpt lat="43.489838959689706" lon="10.935503281663111"><ele>454.0</ele><time>2026-04-18T10:23:51.939Z</time></trkpt><trkpt lat="43.489812975789874" lon="10.935778459544233"><ele>452.6666666666667</ele><time>2026-04-18T10:23:52.939Z</time></trkpt><trkpt lat="43.48978678234246" lon="10.936052883054069"><ele>451.33333333333337</ele><time>2026-04-18T10:23:53.939Z</time></trkpt><trkpt lat="43.48975715231475" lon="10.936336107562237"><ele>450.0</ele><time>2026-04-18T10:23:54.939Z</time></trkpt><trkpt lat="43.4897348145428" lon="10.93662846834486"><ele>449.66666666666663</ele><time>2026-04-18T10:23:55.939Z</time></trkpt><trkpt lat="43.48970606461492" lon="10.936919990937167"><ele>449.3333333333333</ele><time>2026-04-18T10:23:56.939Z</time></trkpt><trkpt lat="43.48966876514581" lon="10.937202628712111"><ele>449.0</ele><time>2026-04-18T10:23:57.939Z</time></trkpt><trkpt lat="43.489636117632955" lon="10.937474872927123"><ele>449.0</ele><time>2026-04-18T10:23:58.939Z</time></trkpt><trkpt lat="43.48960787061927" lon="10.93775616959756"><ele>449.0</ele><time>2026-04-18T10:23:59.939Z</time></trkpt><trkpt lat="43.489575600292056" lon="10.938042243952804"><ele>449.0</ele><time>2026-04-18T10:24:00.939Z</time></trkpt><trkpt lat="43.48954387478855" lon="10.938329407955463"><ele>450.3333333333333</ele><time>2026-04-18T10:24:01.939Z</time></trkpt><trkpt lat="43.48951483149406" lon="10.938608441512043"><ele>451.66666666666663</ele><time>2026-04-18T10:24:02.939Z</time></trkpt><trkpt lat="43.48948834468004" lon="10.938873058195169"><ele>453.0</ele><time>2026-04-18T10:24:03.939Z</time></trkpt><trkpt lat="43.48946282178488" lon="10.939133986840899"><ele>453.66666666666663</ele><time>2026-04-18T10:24:04.939Z</time></trkpt><trkpt lat="43.489435790147155" lon="10.939364070082958"><ele>454.3333333333333</ele><time>2026-04-18T10:24:05.939Z</time></trkpt><trkpt lat="43.48941366192278" lon="10.939575042585785"><ele>455.0</ele><time>2026-04-18T10:24:06.939Z</time></trkpt><trkpt lat="43.4893946769121" lon="10.939788697297628"><ele>455.0</ele><time>2026-04-18T10:24:07.939Z</time></trkpt><trkpt lat="43.489354150410264" lon="10.939990701164062"><ele>455.0</ele><time>2026-04-18T10:24:08.939Z</time></trkpt><trkpt lat="43.489294135983556" lon="10.940157752494272"><ele>455.0</ele><time>2026-04-18T10:24:09.939Z</time></trkpt><trkpt lat="43.489203695248335" lon="10.940314661721644"><ele>455.0</ele><time>2026-04-18T10:24:10.939Z</time></trkpt><trkpt lat="43.489072476554185" lon="10.940425470481571"><ele>453.3333333333333</ele><time>2026-04-18T10:24:11.939Z</time></trkpt><trkpt lat="43.488927888724476" lon="10.940540637831148"><ele>451.66666666666663</ele><time>2026-04-18T10:24:12.939Z</time></trkpt><trkpt lat="43.488768339197605" lon="10.940637532631811"><ele>450.0</ele><time>2026-04-18T10:24:13.938Z</time></trkpt><trkpt lat="43.488617590669065" lon="10.940725626434144"><ele>449.75</ele><time>2026-04-18T10:24:14.938Z</time></trkpt><trkpt lat="43.48848096564737" lon="10.940814474607762"><ele>449.5</ele><time>2026-04-18T10:24:15.938Z</time></trkpt><trkpt lat="43.488352932076424" lon="10.940923020253834"><ele>449.25</ele><time>2026-04-18T10:24:16.938Z</time></trkpt><trkpt lat="43.488253480795294" lon="10.941049670810756"><ele>449.0</ele><time>2026-04-18T10:24:17.938Z</time></trkpt><trkpt lat="43.488189736421674" lon="10.94122284093028"><ele>451.3333333333333</ele><time>2026-04-18T10:24:18.938Z</time></trkpt><trkpt lat="43.48814292349246" lon="10.941431047405061"><ele>453.66666666666663</ele><time>2026-04-18T10:24:19.938Z</time></trkpt><trkpt lat="43.48809053659764" lon="10.941658364619073"><ele>456.0</ele><time>2026-04-18T10:24:20.938Z</time></trkpt><trkpt lat="43.48803609613654" lon="10.941905295486507"><ele>457.0</ele><time>2026-04-18T10:24:21.938Z</time></trkpt><trkpt lat="43.487969166639715" lon="10.942146107564627"><ele>458.0</ele><time>2026-04-18T10:24:22.938Z</time></trkpt><trkpt lat="43.48788723353621" lon="10.942373257140575"><ele>459.0</ele><time>2026-04-18T10:24:23.938Z</time></trkpt><trkpt lat="43.487774496938556" lon="10.942559838305174"><ele>459.0</ele><time>2026-04-18T10:24:24.938Z</time></trkpt><trkpt lat="43.48764072176394" lon="10.942730829129873"><ele>459.0</ele><time>2026-04-18T10:24:25.938Z</time></trkpt><trkpt lat="43.487494750920206" lon="10.942903747792302"><ele>459.0</ele><time>2026-04-18T10:24:26.938Z</time></trkpt><trkpt lat="43.487358880269795" lon="10.943069625656067"><ele>459.0</ele><time>2026-04-18T10:24:27.938Z</time></trkpt><trkpt lat="43.4872386418688" lon="10.943229636187612"><ele>459.0</ele><time>2026-04-18T10:24:28.938Z</time></trkpt><trkpt lat="43.48713282034126" lon="10.943386964510141"><ele>459.0</ele><time>2026-04-18T10:24:29.938Z</time></trkpt><trkpt lat="43.48704849839535" lon="10.943561475734173"><ele>453.66666666666663</ele><time>2026-04-18T10:24:30.938Z</time></trkpt><trkpt lat="43.486988274421066" lon="10.943769682208954"><ele>448.3333333333333</ele><time>2026-04-18T10:24:31.938Z</time></trkpt><trkpt lat="43.48693027165112" lon="10.943988114605606"><ele>443.0</ele><time>2026-04-18T10:24:32.938Z</time></trkpt><trkpt lat="43.486882243345946" lon="10.944234710196913"><ele>443.0</ele><time>2026-04-18T10:24:33.938Z</time></trkpt><trkpt lat="43.486814978572994" lon="10.944480719054997"><ele>443.0</ele><time>2026-04-18T10:24:34.938Z</time></trkpt><trkpt lat="43.4867439000341" lon="10.944731924693048"><ele>443.0</ele><time>2026-04-18T10:24:35.938Z</time></trkpt><trkpt lat="43.486662511754304" lon="10.944964019591868"><ele>443.3333333333333</ele><time>2026-04-18T10:24:36.938Z</time></trkpt><trkpt lat="43.486574166494876" lon="10.945181697617233"><ele>443.66666666666663</ele><time>2026-04-18T10:24:37.938Z</time></trkpt><trkpt lat="43.48646629140106" lon="10.945378253246606"><ele>444.0</ele><time>2026-04-18T10:24:38.938Z</time></trkpt><trkpt lat="43.4863416525009" lon="10.94556952827698"><ele>443.66666666666663</ele><time>2026-04-18T10:24:39.938Z</time></trkpt><trkpt lat="43.486210140440136" lon="10.94576055185026"><ele>443.3333333333333</ele><time>2026-04-18T10:24:40.938Z</time></trkpt><trkpt lat="43.48609371580508" lon="10.945947049195828"><ele>443.0</ele><time>2026-04-18T10:24:41.938Z</time></trkpt><trkpt lat="43.485993342514604" lon="10.946142766634884"><ele>443.0</ele><time>2026-04-18T10:24:42.938Z</time></trkpt><trkpt lat="43.48590839192596" lon="10.946371844048562"><ele>443.0</ele><time>2026-04-18T10:24:43.938Z</time></trkpt><trkpt lat="43.48582725510326" lon="10.94662531280047"><ele>443.0</ele><time>2026-04-18T10:24:44.938Z</time></trkpt><trkpt lat="43.48574896812764" lon="10.946901245052876"><ele>443.3333333333333</ele><time>2026-04-18T10:24:45.938Z</time></trkpt><trkpt lat="43.48567378245619" lon="10.947179105143013"><ele>443.66666666666663</ele><time>2026-04-18T10:24:46.938Z</time></trkpt><trkpt lat="43.48560500894067" lon="10.947439195598426"><ele>444.0</ele><time>2026-04-18T10:24:47.938Z</time></trkpt><trkpt lat="43.485536528791755" lon="10.947696687663857"><ele>444.0</ele><time>2026-04-18T10:24:48.938Z</time></trkpt><trkpt lat="43.48547043748524" lon="10.947942025969688"><ele>444.0</ele><time>2026-04-18T10:24:49.938Z</time></trkpt><trkpt lat="43.485399568493925" lon="10.948197925473515"><ele>444.0</ele><time>2026-04-18T10:24:50.938Z</time></trkpt><trkpt lat="43.48538322378274" lon="10.94843856991357"><ele>444.66666666666663</ele><time>2026-04-18T10:24:51.938Z</time></trkpt><trkpt lat="43.48536017354902" lon="10.948686506609384"><ele>445.3333333333333</ele><time>2026-04-18T10:24:52.938Z</time></trkpt><trkpt lat="43.4853500733557" lon="10.948946848521892"><ele>446.0</ele><time>2026-04-18T10:24:53.938Z</time></trkpt><trkpt lat="43.485362730029486" lon="10.949218589822713"><ele>446.0</ele><time>2026-04-18T10:24:54.938Z</time></trkpt><trkpt lat="43.485375596250854" lon="10.94947054983205"><ele>446.0</ele><time>2026-04-18T10:24:55.938Z</time></trkpt><trkpt lat="43.485374674241505" lon="10.949698034684127"><ele>446.0</ele><time>2026-04-18T10:24:56.938Z</time></trkpt><trkpt lat="43.48535765897807" lon="10.94990682789213"><ele>449.75</ele><time>2026-04-18T10:24:57.938Z</time></trkpt><trkpt lat="43.485323167446516" lon="10.950083434591955"><ele>453.5</ele><time>2026-04-18T10:24:58.938Z</time></trkpt><trkpt lat="43.48525766287323" lon="10.950211929167574"><ele>457.25</ele><time>2026-04-18T10:24:59.938Z</time></trkpt><trkpt lat="43.48514853049394" lon="10.950279990221327"><ele>461.0</ele><time>2026-04-18T10:25:00.938Z</time></trkpt><trkpt lat="43.48503885329094" lon="10.950342938314146"><ele>461.0</ele><time>2026-04-18T10:25:01.938Z</time></trkpt><trkpt lat="43.4849372646245" lon="10.950399180884427"><ele>461.0</ele><time>2026-04-18T10:25:02.938Z</time></trkpt><trkpt lat="43.48487980667826" lon="10.950503367940849"><ele>461.0</ele><time>2026-04-18T10:25:03.938Z</time></trkpt><trkpt lat="43.484843010123335" lon="10.950618367652362"><ele>461.0</ele><time>2026-04-18T10:25:04.938Z</time></trkpt><trkpt lat="43.484840872738026" lon="10.950754238302773"><ele>461.0</ele><time>2026-04-18T10:25:05.938Z</time></trkpt><trkpt lat="43.48484376449462" lon="10.950935455049342"><ele>461.0</ele><time>2026-04-18T10:25:06.938Z</time></trkpt><trkpt lat="43.48484669816073" lon="10.951149696494406"><ele>461.0</ele><time>2026-04-18T10:25:07.938Z</time></trkpt><trkpt lat="43.48486077975806" lon="10.95132429153747"><ele>461.0</ele><time>2026-04-18T10:25:08.938Z</time></trkpt><trkpt lat="43.48485256549295" lon="10.951524451385207"><ele>461.0</ele><time>2026-04-18T10:25:09.938Z</time></trkpt><trkpt lat="43.4847575566205" lon="10.95171807334847"><ele>461.0</ele><time>2026-04-18T10:25:10.938Z</time></trkpt><trkpt lat="43.484665649052225" lon="10.95193114132709"><ele>461.0</ele><time>2026-04-18T10:25:11.938Z</time></trkpt><trkpt lat="43.48456372510966" lon="10.95214907080955"><ele>461.0</ele><time>2026-04-18T10:25:12.938Z</time></trkpt><trkpt lat="43.484460962976776" lon="10.952344369153447"><ele>461.75</ele><time>2026-04-18T10:25:13.938Z</time></trkpt><trkpt lat="43.484371695708" lon="10.952477809051938"><ele>462.5</ele><time>2026-04-18T10:25:14.938Z</time></trkpt><trkpt lat="43.484264281618856" lon="10.952581325556107"><ele>463.25</ele><time>2026-04-18T10:25:15.938Z</time></trkpt><trkpt lat="43.48414869517412" lon="10.952654331932731"><ele>464.0</ele><time>2026-04-18T10:25:16.938Z</time></trkpt><trkpt lat="43.483980302739404" lon="10.952685261155434"><ele>464.66666666666663</ele><time>2026-04-18T10:25:17.938Z</time></trkpt><trkpt lat="43.48379849925961" lon="10.952701941142745"><ele>465.33333333333337</ele><time>2026-04-18T10:25:18.938Z</time></trkpt><trkpt lat="43.48361074462857" lon="10.952733038003512"><ele>466.0</ele><time>2026-04-18T10:25:19.938Z</time></trkpt><trkpt lat="43.4834115486997" lon="10.952752819294997"><ele>466.0</ele><time>2026-04-18T10:25:20.937Z</time></trkpt><trkpt lat="43.48320950292375" lon="10.952784083793826"><ele>466.0</ele><time>2026-04-18T10:25:21.937Z</time></trkpt><trkpt lat="43.483006493228935" lon="10.952809229503341"><ele>466.0</ele><time>2026-04-18T10:25:22.937Z</time></trkpt><trkpt lat="43.48280662674781" lon="10.952827502052255"><ele>468.33333333333337</ele><time>2026-04-18T10:25:23.937Z</time></trkpt><trkpt lat="43.48263232507136" lon="10.95284921118147"><ele>470.66666666666663</ele><time>2026-04-18T10:25:24.937Z</time></trkpt><trkpt lat="43.48247093152579" lon="10.952849881733723"><ele>473.0</ele><time>2026-04-18T10:25:25.937Z</time></trkpt><trkpt lat="43.482315070036314" lon="10.95282238909132"><ele>473.0</ele><time>2026-04-18T10:25:26.937Z</time></trkpt><trkpt lat="43.482175050343834" lon="10.95274862834341"><ele>473.0</ele><time>2026-04-18T10:25:27.937Z</time></trkpt><trkpt lat="43.4820385929602" lon="10.952666401873298"><ele>473.0</ele><time>2026-04-18T10:25:28.937Z</time></trkpt><trkpt lat="43.481923425610624" lon="10.952614936987825"><ele>473.0</ele><time>2026-04-18T10:25:29.937Z</time></trkpt><trkpt lat="43.48180004399594" lon="10.952620133767791"><ele>472.0</ele><time>2026-04-18T10:25:30.937Z</time></trkpt><trkpt lat="43.481681607704125" lon="10.952658522884317"><ele>471.0</ele><time>2026-04-18T10:25:31.937Z</time></trkpt><trkpt lat="43.48157289441999" lon="10.952781066308685"><ele>470.0</ele><time>2026-04-18T10:25:32.937Z</time></trkpt><trkpt lat="43.48145911008444" lon="10.952919954444237"><ele>469.0</ele><time>2026-04-18T10:25:33.937Z</time></trkpt><trkpt lat="43.48132990304705" lon="10.953087089593478"><ele>469.0</ele><time>2026-04-18T10:25:34.937Z</time></trkpt><trkpt lat="43.481202456209324" lon="10.953224888081618"><ele>469.0</ele><time>2026-04-18T10:25:35.937Z</time></trkpt><trkpt lat="43.48107584756192" lon="10.953354639942713"><ele>469.0</ele><time>2026-04-18T10:25:36.937Z</time></trkpt><trkpt lat="43.48093239128914" lon="10.953473579148719"><ele>469.0</ele><time>2026-04-18T10:25:37.937Z</time></trkpt><trkpt lat="43.48076969854858" lon="10.953588997955391"><ele>469.0</ele><time>2026-04-18T10:25:38.937Z</time></trkpt><trkpt lat="43.480598833452426" lon="10.953693939383099"><ele>469.0</ele><time>2026-04-18T10:25:39.937Z</time></trkpt><trkpt lat="43.48042821981337" lon="10.953784799213478"><ele>469.0</ele><time>2026-04-18T10:25:40.937Z</time></trkpt><trkpt lat="43.48025421150353" lon="10.9538562130285"><ele>469.0</ele><time>2026-04-18T10:25:41.937Z</time></trkpt><trkpt lat="43.48009068057265" lon="10.953911365951368"><ele>469.0</ele><time>2026-04-18T10:25:42.937Z</time></trkpt><trkpt lat="43.47993293315496" lon="10.953977331529329"><ele>469.0</ele><time>2026-04-18T10:25:43.937Z</time></trkpt><trkpt lat="43.479780340607725" lon="10.954042710374067"><ele>469.0</ele><time>2026-04-18T10:25:44.937Z</time></trkpt><trkpt lat="43.479630597907565" lon="10.954097276563713"><ele>469.0</ele><time>2026-04-18T10:25:45.937Z</time></trkpt><trkpt lat="43.47949569117602" lon="10.954153100038836"><ele>470.25</ele><time>2026-04-18T10:25:46.937Z</time></trkpt><trkpt lat="43.47935948524948" lon="10.95421051607556"><ele>471.5</ele><time>2026-04-18T10:25:47.937Z</time></trkpt><trkpt lat="43.47923388243046" lon="10.954263992617795"><ele>472.75</ele><time>2026-04-18T10:25:48.937Z</time></trkpt><trkpt lat="43.47909830514666" lon="10.954309338713953"><ele>474.0</ele><time>2026-04-18T10:25:49.937Z</time></trkpt><trkpt lat="43.478954262140654" lon="10.954331466938326"><ele>474.0</ele><time>2026-04-18T10:25:50.937Z</time></trkpt><trkpt lat="43.47879567653265" lon="10.95436147415168"><ele>474.0</ele><time>2026-04-18T10:25:51.937Z</time></trkpt><trkpt lat="43.47863143314" lon="10.954375471929977"><ele>474.0</ele><time>2026-04-18T10:25:52.937Z</time></trkpt><trkpt lat="43.478469117585085" lon="10.954375974844167"><ele>474.33333333333337</ele><time>2026-04-18T10:25:53.937Z</time></trkpt><trkpt lat="43.47831120252933" lon="10.954358205209443"><ele>474.6666666666667</ele><time>2026-04-18T10:25:54.937Z</time></trkpt><trkpt lat="43.47815684978243" lon="10.954363485808441"><ele>475.0</ele><time>2026-04-18T10:25:55.937Z</time></trkpt><trkpt lat="43.477991265285276" lon="10.954371867711613"><ele>472.0</ele><time>2026-04-18T10:25:56.937Z</time></trkpt><trkpt lat="43.47783993002351" lon="10.95434781164951"><ele>469.0</ele><time>2026-04-18T10:25:57.937Z</time></trkpt><trkpt lat="43.47768633164789" lon="10.954285450289914"><ele>466.0</ele><time>2026-04-18T10:25:58.937Z</time></trkpt><trkpt lat="43.47751592755641" lon="10.954177407558033"><ele>466.0</ele><time>2026-04-18T10:25:59.937Z</time></trkpt><trkpt lat="43.47734447572704" lon="10.954040614898274"><ele>466.0</ele><time>2026-04-18T10:26:00.937Z</time></trkpt><trkpt lat="43.4771702159601" lon="10.953897116715977"><ele>466.0</ele><time>2026-04-18T10:26:01.937Z</time></trkpt><trkpt lat="43.47699901558782" lon="10.953756887475917"><ele>465.0</ele><time>2026-04-18T10:26:02.937Z</time></trkpt><trkpt lat="43.4768377477708" lon="10.953625543053219"><ele>464.0</ele><time>2026-04-18T10:26:03.937Z</time></trkpt><trkpt lat="43.47668771170403" lon="10.953506603847215"><ele>463.0</ele><time>2026-04-18T10:26:04.937Z</time></trkpt><trkpt lat="43.47652581524427" lon="10.95338087529964"><ele>463.33333333333337</ele><time>2026-04-18T10:26:05.937Z</time></trkpt><trkpt lat="43.47636588853176" lon="10.953256655494638"><ele>463.66666666666663</ele><time>2026-04-18T10:26:06.937Z</time></trkpt><trkpt lat="43.47620361488636" lon="10.953136375184126"><ele>464.0</ele><time>2026-04-18T10:26:07.937Z</time></trkpt><trkpt lat="43.4760253318059" lon="10.953026320795484"><ele>461.66666666666663</ele><time>2026-04-18T10:26:08.937Z</time></trkpt><trkpt lat="43.47582286693479" lon="10.95291618258781"><ele>459.33333333333337</ele><time>2026-04-18T10:26:09.937Z</time></trkpt><trkpt lat="43.47562031824465" lon="10.952810570607848"><ele>457.0</ele><time>2026-04-18T10:26:10.937Z</time></trkpt><trkpt lat="43.47542728301461" lon="10.952711245055266"><ele>459.33333333333337</ele><time>2026-04-18T10:26:11.937Z</time></trkpt><trkpt lat="43.47524686254884" lon="10.952617703015871"><ele>461.66666666666663</ele><time>2026-04-18T10:26:12.937Z</time></trkpt><trkpt lat="43.475078134838" lon="10.952542182068296"><ele>464.0</ele><time>2026-04-18T10:26:13.937Z</time></trkpt><trkpt lat="43.47493316982265" lon="10.952459871779151"><ele>464.0</ele><time>2026-04-18T10:26:14.937Z</time></trkpt><trkpt lat="43.47478925254519" lon="10.952369598681994"><ele>464.0</ele><time>2026-04-18T10:26:15.937Z</time></trkpt><trkpt lat="43.4746404737639" lon="10.952295418838926"><ele>464.0</ele><time>2026-04-18T10:26:16.937Z</time></trkpt><trkpt lat="43.47447719429012" lon="10.952253676961131"><ele>463.3333333333333</ele><time>2026-04-18T10:26:17.937Z</time></trkpt><trkpt lat="43.47432087179597" lon="10.95223699697382"><ele>462.66666666666663</ele><time>2026-04-18T10:26:18.937Z</time></trkpt><trkpt lat="43.47416526176359" lon="10.952234817678995"><ele>462.0</ele><time>2026-04-18T10:26:19.937Z</time></trkpt><trkpt lat="43.47401509996827" lon="10.952223921204872"><ele>462.0</ele><time>2026-04-18T10:26:20.937Z</time></trkpt><trkpt lat="43.473889790515855" lon="10.952167008082338"><ele>462.0</ele><time>2026-04-18T10:26:21.937Z</time></trkpt><trkpt lat="43.47376096066411" lon="10.952066173787184"><ele>462.0</ele><time>2026-04-18T10:26:22.937Z</time></trkpt><trkpt lat="43.4736414766344" lon="10.95189107582993"><ele>463.5</ele><time>2026-04-18T10:26:23.937Z</time></trkpt><trkpt lat="43.47352392044242" lon="10.95173961483962"><ele>465.0</ele><time>2026-04-18T10:26:24.937Z</time></trkpt><trkpt lat="43.47341151912089" lon="10.951644480238624"><ele>466.5</ele><time>2026-04-18T10:26:25.937Z</time></trkpt><trkpt lat="43.47329161599602" lon="10.951542723934121"><ele>468.0</ele><time>2026-04-18T10:26:26.937Z</time></trkpt><trkpt lat="43.47316379197265" lon="10.951507519940801"><ele>468.0</ele><time>2026-04-18T10:26:27.936Z</time></trkpt><trkpt lat="43.473029513883844" lon="10.951480278755492"><ele>468.0</ele><time>2026-04-18T10:26:28.936Z</time></trkpt><trkpt lat="43.472897079813734" lon="10.951443985114759"><ele>468.0</ele><time>2026-04-18T10:26:29.936Z</time></trkpt><trkpt lat="43.47275710203077" lon="10.951389167468017"><ele>468.0</ele><time>2026-04-18T10:26:30.936Z</time></trkpt><trkpt lat="43.472654046531275" lon="10.951352370913094"><ele>466.5</ele><time>2026-04-18T10:26:31.936Z</time></trkpt><trkpt lat="43.47254956610824" lon="10.951289925734466"><ele>465.0</ele><time>2026-04-18T10:26:32.936Z</time></trkpt><trkpt lat="43.47245254557903" lon="10.951232090602582"><ele>463.5</ele><time>2026-04-18T10:26:33.936Z</time></trkpt><trkpt lat="43.47234270073797" lon="10.951177189136809"><ele>462.0</ele><time>2026-04-18T10:26:34.936Z</time></trkpt><trkpt lat="43.472226276102916" lon="10.9511396382106"><ele>461.33333333333337</ele><time>2026-04-18T10:26:35.936Z</time></trkpt><trkpt lat="43.472102852578715" lon="10.951141985143488"><ele>460.6666666666667</ele><time>2026-04-18T10:26:36.936Z</time></trkpt><trkpt lat="43.471946530084566" lon="10.951174004013604"><ele>460.0</ele><time>2026-04-18T10:26:37.936Z</time></trkpt><trkpt lat="43.47178027503516" lon="10.951229827488726"><ele>460.0</ele><time>2026-04-18T10:26:38.936Z</time></trkpt><trkpt lat="43.47158225257273" lon="10.951277855793899"><ele>460.0</ele><time>2026-04-18T10:26:39.936Z</time></trkpt><trkpt lat="43.47137169916506" lon="10.95131163486368"><ele>460.0</ele><time>2026-04-18T10:26:40.936Z</time></trkpt><trkpt lat="43.47115326676841" lon="10.951300822208589"><ele>460.0</ele><time>2026-04-18T10:26:41.936Z</time></trkpt><trkpt lat="43.470940240699306" lon="10.9512466751141"><ele>460.0</ele><time>2026-04-18T10:26:42.936Z</time></trkpt><trkpt lat="43.47070873253371" lon="10.951177189136809"><ele>460.0</ele><time>2026-04-18T10:26:43.936Z</time></trkpt><trkpt lat="43.47049361098881" lon="10.951111139739817"><ele>460.0</ele><time>2026-04-18T10:26:44.936Z</time></trkpt><trkpt lat="43.47026373729433" lon="10.951059171940154"><ele>462.0</ele><time>2026-04-18T10:26:45.936Z</time></trkpt><trkpt lat="43.470049747306355" lon="10.951024219403928"><ele>464.0</ele><time>2026-04-18T10:26:46.936Z</time></trkpt><trkpt lat="43.469849210272976" lon="10.95099546947605"><ele>466.0</ele><time>2026-04-18T10:26:47.936Z</time></trkpt><trkpt lat="43.46966774206931" lon="10.950973676527804"><ele>466.0</ele><time>2026-04-18T10:26:48.936Z</time></trkpt><trkpt lat="43.469482963013895" lon="10.95092019998557"><ele>466.0</ele><time>2026-04-18T10:26:49.936Z</time></trkpt><trkpt lat="43.46932567660088" lon="10.950836548591917"><ele>466.0</ele><time>2026-04-18T10:26:50.936Z</time></trkpt><trkpt lat="43.4691848606276" lon="10.95073160716421"><ele>470.33333333333337</ele><time>2026-04-18T10:26:51.936Z</time></trkpt><trkpt lat="43.46904940907235" lon="10.950572267184919"><ele>474.66666666666663</ele><time>2026-04-18T10:26:52.936Z</time></trkpt><trkpt lat="43.46893830694581" lon="10.950394235561555"><ele>479.0</ele><time>2026-04-18T10:26:53.936Z</time></trkpt><trkpt lat="43.468851931433626" lon="10.950222322727507"><ele>478.75</ele><time>2026-04-18T10:26:54.936Z</time></trkpt><trkpt lat="43.46875868276084" lon="10.950071616108483"><ele>478.5</ele><time>2026-04-18T10:26:55.936Z</time></trkpt><trkpt lat="43.468644144054004" lon="10.949947731579607"><ele>478.25</ele><time>2026-04-18T10:26:56.936Z</time></trkpt><trkpt lat="43.46851657148773" lon="10.949847986931866"><ele>478.0</ele><time>2026-04-18T10:26:57.936Z</time></trkpt><trkpt lat="43.468347676138826" lon="10.949808256710833"><ele>480.33333333333337</ele><time>2026-04-18T10:26:58.936Z</time></trkpt><trkpt lat="43.468172955367216" lon="10.949783781553572"><ele>482.66666666666663</ele><time>2026-04-18T10:26:59.936Z</time></trkpt><trkpt lat="43.46801185518826" lon="10.94982569106943"><ele>485.0</ele><time>2026-04-18T10:27:00.936Z</time></trkpt><trkpt lat="43.46782778859461" lon="10.949885705496138"><ele>484.66666666666663</ele><time>2026-04-18T10:27:01.936Z</time></trkpt><trkpt lat="43.46763739366407" lon="10.949988299990958"><ele>484.33333333333337</ele><time>2026-04-18T10:27:02.936Z</time></trkpt><trkpt lat="43.46744616054321" lon="10.950121572251385"><ele>484.0</ele><time>2026-04-18T10:27:03.936Z</time></trkpt><trkpt lat="43.46725798681701" lon="10.95026498661465"><ele>489.0</ele><time>2026-04-18T10:27:04.936Z</time></trkpt><trkpt lat="43.467075428965934" lon="10.950424829508131"><ele>494.0</ele><time>2026-04-18T10:27:05.936Z</time></trkpt><trkpt lat="43.466902426484474" lon="10.950579894716805"><ele>499.0</ele><time>2026-04-18T10:27:06.936Z</time></trkpt><trkpt lat="43.46674115866745" lon="10.950733870278066"><ele>494.0</ele><time>2026-04-18T10:27:07.936Z</time></trkpt><trkpt lat="43.46659678038532" lon="10.950879547755187"><ele>489.0</ele><time>2026-04-18T10:27:08.936Z</time></trkpt><trkpt lat="43.46646375958199" lon="10.95101064072079"><ele>484.0</ele><time>2026-04-18T10:27:09.936Z</time></trkpt><trkpt lat="43.46630563497866" lon="10.951133938516444"><ele>488.33333333333337</ele><time>2026-04-18T10:27:10.936Z</time></trkpt><trkpt lat="43.46615538936431" lon="10.951235778639978"><ele>492.66666666666663</ele><time>2026-04-18T10:27:11.936Z</time></trkpt><trkpt lat="43.46598167442108" lon="10.95131842420525"><ele>497.0</ele><time>2026-04-18T10:27:12.936Z</time></trkpt><trkpt lat="43.46579157285715" lon="10.95139277168638"><ele>497.0</ele><time>2026-04-18T10:27:13.936Z</time></trkpt><trkpt lat="43.46558789261008" lon="10.951467789719766"><ele>497.0</ele><time>2026-04-18T10:27:14.936Z</time></trkpt><trkpt lat="43.465379225130626" lon="10.951540796096392"><ele>497.0</ele><time>2026-04-18T10:27:15.936Z</time></trkpt><trkpt lat="43.46515961926753" lon="10.9516076836837"><ele>497.66666666666663</ele><time>2026-04-18T10:27:16.936Z</time></trkpt><trkpt lat="43.46493443943883" lon="10.951670296500392"><ele>498.33333333333337</ele><time>2026-04-18T10:27:17.936Z</time></trkpt><trkpt lat="43.46472225156004" lon="10.951742129410572"><ele>499.0</ele><time>2026-04-18T10:27:18.936Z</time></trkpt><trkpt lat="43.46452242698843" lon="10.9517977014286"><ele>499.0</ele><time>2026-04-18T10:27:19.936Z</time></trkpt><trkpt lat="43.46435298681582" lon="10.951858470226593"><ele>499.0</ele><time>2026-04-18T10:27:20.936Z</time></trkpt><trkpt lat="43.46419192854638" lon="10.95191203058786"><ele>499.0</ele><time>2026-04-18T10:27:21.936Z</time></trkpt><trkpt lat="43.46403971318478" lon="10.951952347542115"><ele>499.0</ele><time>2026-04-18T10:27:22.936Z</time></trkpt><trkpt lat="43.463890976313" lon="10.9520014654947"><ele>499.0</ele><time>2026-04-18T10:27:23.936Z</time></trkpt><trkpt lat="43.46372853502954" lon="10.952045721943445"><ele>499.0</ele><time>2026-04-18T10:27:24.936Z</time></trkpt><trkpt lat="43.463559597771116" lon="10.952049829076"><ele>501.0</ele><time>2026-04-18T10:27:25.936Z</time></trkpt><trkpt lat="43.4633954381975" lon="10.952000878761478"><ele>503.0</ele><time>2026-04-18T10:27:26.936Z</time></trkpt><trkpt lat="43.463257513980814" lon="10.95191647299654"><ele>505.0</ele><time>2026-04-18T10:27:27.936Z</time></trkpt><trkpt lat="43.46317465886796" lon="10.95182410442359"><ele>507.0</ele><time>2026-04-18T10:27:28.936Z</time></trkpt><trkpt lat="43.463096036616214" lon="10.951682450259991"><ele>509.5</ele><time>2026-04-18T10:27:29.936Z</time></trkpt><trkpt lat="43.463006182614215" lon="10.951546914885707"><ele>512.0</ele><time>2026-04-18T10:27:30.936Z</time></trkpt><trkpt lat="43.462908952537425" lon="10.951410625140136"><ele>514.5</ele><time>2026-04-18T10:27:31.936Z</time></trkpt><trkpt lat="43.46278469082291" lon="10.951307276274031"><ele>517.0</ele><time>2026-04-18T10:27:32.936Z</time></trkpt><trkpt lat="43.46264039635981" lon="10.951217170814937"><ele>517.0</ele><time>2026-04-18T10:27:33.936Z</time></trkpt><trkpt lat="43.46246731005931" lon="10.951152713979548"><ele>517.0</ele><time>2026-04-18T10:27:34.935Z</time></trkpt><trkpt lat="43.46231861509705" lon="10.95110150055117"><ele>517.0</ele><time>2026-04-18T10:27:35.935Z</time></trkpt><trkpt lat="43.4621821158039" lon="10.951035115878051"><ele>516.25</ele><time>2026-04-18T10:27:36.935Z</time></trkpt><trkpt lat="43.46206112303162" lon="10.950934533039993"><ele>515.5</ele><time>2026-04-18T10:27:37.935Z</time></trkpt><trkpt lat="43.46193878915483" lon="10.950786424810952"><ele>514.75</ele><time>2026-04-18T10:27:38.935Z</time></trkpt><trkpt lat="43.46183527265066" lon="10.950652733455366"><ele>514.0</ele><time>2026-04-18T10:27:39.935Z</time></trkpt><trkpt lat="43.461726265999914" lon="10.950534632439679"><ele>517.25</ele><time>2026-04-18T10:27:40.935Z</time></trkpt><trkpt lat="43.46160284247571" lon="10.950456848378247"><ele>520.5</ele><time>2026-04-18T10:27:41.935Z</time></trkpt><trkpt lat="43.46145159103298" lon="10.950443185876077"><ele>523.75</ele><time>2026-04-18T10:27:42.935Z</time></trkpt><trkpt lat="43.461298495571555" lon="10.950470343242353"><ele>527.0</ele><time>2026-04-18T10:27:43.935Z</time></trkpt><trkpt lat="43.46113190524602" lon="10.95051761717624"><ele>528.3333333333333</ele><time>2026-04-18T10:27:44.935Z</time></trkpt><trkpt lat="43.460954711812974" lon="10.950528429831332"><ele>529.6666666666666</ele><time>2026-04-18T10:27:46.046Z</time></trkpt><trkpt lat="43.46077165104771" lon="10.950507223616308"><ele>531.0</ele><time>2026-04-18T10:27:47.048Z</time></trkpt><trkpt lat="43.460586033801974" lon="10.950445532808965"><ele>533.0</ele><time>2026-04-18T10:27:48.044Z</time></trkpt><trkpt lat="43.4604005841943" lon="10.950388535867399"><ele>535.0</ele><time>2026-04-18T10:27:49.05Z</time></trkpt><trkpt lat="43.46020008907044" lon="10.950347296903795"><ele>537.0</ele><time>2026-04-18T10:27:50.049Z</time></trkpt><trkpt lat="43.45998651817763" lon="10.950317792604631"><ele>537.0</ele><time>2026-04-18T10:27:51.045Z</time></trkpt><trkpt lat="43.45977273773724" lon="10.950306141759222"><ele>537.0</ele><time>2026-04-18T10:27:52.045Z</time></trkpt><trkpt lat="43.45955665227348" lon="10.950298430408305"><ele>537.0</ele><time>2026-04-18T10:27:53.048Z</time></trkpt><trkpt lat="43.45933063425446" lon="10.950293652723497"><ele>537.0</ele><time>2026-04-18T10:27:54.064Z</time></trkpt><trkpt lat="43.459123349789024" lon="10.950276888917154"><ele>537.0</ele><time>2026-04-18T10:27:55.048Z</time></trkpt><trkpt lat="43.45892205838436" lon="10.950245121504134"><ele>537.0</ele><time>2026-04-18T10:27:56.057Z</time></trkpt><trkpt lat="43.45873891380006" lon="10.950211007158225"><ele>535.3333333333334</ele><time>2026-04-18T10:27:57.052Z</time></trkpt><trkpt lat="43.45855233263546" lon="10.950177731002634"><ele>533.6666666666667</ele><time>2026-04-18T10:27:58.045Z</time></trkpt><trkpt lat="43.45835485499674" lon="10.950169600556558"><ele>532.0</ele><time>2026-04-18T10:27:59.041Z</time></trkpt><trkpt lat="43.458149037364365" lon="10.95017211512751"><ele>533.0</ele><time>2026-04-18T10:28:00.037Z</time></trkpt><trkpt lat="43.45793207180077" lon="10.950172366584605"><ele>534.0</ele><time>2026-04-18T10:28:01.042Z</time></trkpt><trkpt lat="43.45770270102048" lon="10.950189884762233"><ele>535.0</ele><time>2026-04-18T10:28:02.045Z</time></trkpt><trkpt lat="43.45747613817775" lon="10.950191896418994"><ele>535.0</ele><time>2026-04-18T10:28:03.044Z</time></trkpt><trkpt lat="43.45725137744421" lon="10.950197679932183"><ele>535.0</ele><time>2026-04-18T10:28:04.043Z</time></trkpt><trkpt lat="43.45702938273871" lon="10.950202792893117"><ele>535.0</ele><time>2026-04-18T10:28:05.042Z</time></trkpt><trkpt lat="43.45681669194573" lon="10.950208576406306"><ele>535.3333333333334</ele><time>2026-04-18T10:28:06.045Z</time></trkpt><trkpt lat="43.456616951193155" lon="10.950220981623"><ele>535.6666666666666</ele><time>2026-04-18T10:28:07.042Z</time></trkpt><trkpt lat="43.45641586933607" lon="10.950236991058057"><ele>536.0</ele><time>2026-04-18T10:28:08.067Z</time></trkpt><trkpt lat="43.45621570948833" lon="10.95027135686106"><ele>537.6666666666666</ele><time>2026-04-18T10:28:09.067Z</time></trkpt><trkpt lat="43.45601680692607" lon="10.950341261933511"><ele>539.3333333333334</ele><time>2026-04-18T10:28:10.052Z</time></trkpt><trkpt lat="43.45583475198919" lon="10.950430529202288"><ele>541.0</ele><time>2026-04-18T10:28:11.054Z</time></trkpt><trkpt lat="43.45567105342025" lon="10.950516695166892"><ele>541.0</ele><time>2026-04-18T10:28:12.044Z</time></trkpt><trkpt lat="43.45552734569037" lon="10.950572937737173"><ele>541.0</ele><time>2026-04-18T10:28:13.046Z</time></trkpt><trkpt lat="43.4553817939418" lon="10.950596909980243"><ele>541.0</ele><time>2026-04-18T10:28:14.047Z</time></trkpt><trkpt lat="43.4552467614817" lon="10.950607135902112"><ele>541.0</ele><time>2026-04-18T10:28:15.041Z</time></trkpt><trkpt lat="43.455168139229954" lon="10.950513510043686"><ele>543.6</ele><time>2026-04-18T10:28:16.064Z</time></trkpt><trkpt lat="43.45505418725634" lon="10.950461123148864"><ele>546.2</ele><time>2026-04-18T10:28:17.057Z</time></trkpt><trkpt lat="43.45495121557587" lon="10.950423153127497"><ele>548.8</ele><time>2026-04-18T10:28:18.063Z</time></trkpt><trkpt lat="43.45486094247871" lon="10.950496159504121"><ele>551.4</ele><time>2026-04-18T10:28:19.069Z</time></trkpt><trkpt lat="43.45477850646102" lon="10.950582912201947"><ele>554.0</ele><time>2026-04-18T10:28:20.049Z</time></trkpt><trkpt lat="43.454670296091074" lon="10.950660360987252"><ele>559.25</ele><time>2026-04-18T10:28:22.047Z</time></trkpt><trkpt lat="43.45457968771779" lon="10.950522897775238"><ele>564.5</ele><time>2026-04-18T10:28:24.048Z</time></trkpt><trkpt lat="43.45457155727171" lon="10.950375963012641"><ele>569.75</ele><time>2026-04-18T10:28:25.051Z</time></trkpt><trkpt lat="43.45456933606737" lon="10.950171025480097"><ele>575.0</ele><time>2026-04-18T10:28:26.045Z</time></trkpt><trkpt lat="43.45458521977388" lon="10.949955862025684"><ele>575.0</ele><time>2026-04-18T10:28:27.059Z</time></trkpt><trkpt lat="43.45457935244166" lon="10.949764335538214"><ele>575.0</ele><time>2026-04-18T10:28:28.052Z</time></trkpt><trkpt lat="43.454562923911446" lon="10.949613042185968"><ele>575.0</ele><time>2026-04-18T10:28:29.055Z</time></trkpt><trkpt lat="43.45453191086971" lon="10.949483877058093"><ele>575.0</ele><time>2026-04-18T10:28:30.062Z</time></trkpt><trkpt lat="43.45445400107973" lon="10.949388491"><ele>575.0</ele><time>2026-04-18T10:28:31.046Z</time></trkpt><trkpt lat="43.45434059392982" lon="10.94932151959366"><ele>575.0</ele><time>2026-04-18T10:28:32.06Z</time></trkpt><trkpt lat="43.45420359172248" lon="10.949263097728554"><ele>575.0</ele><time>2026-04-18T10:28:33.049Z</time></trkpt><trkpt lat="43.454038342501455" lon="10.949188414971296"><ele>575.0</ele><time>2026-04-18T10:28:34.044Z</time></trkpt><trkpt lat="43.4538788348841" lon="10.949104428301517"><ele>578.3333333333333</ele><time>2026-04-18T10:28:35.038Z</time></trkpt><trkpt lat="43.45370516185039" lon="10.949017005051438"><ele>581.6666666666666</ele><time>2026-04-18T10:28:36.038Z</time></trkpt><trkpt lat="43.45352746550315" lon="10.948937712247435"><ele>585.0</ele><time>2026-04-18T10:28:37.037Z</time></trkpt><trkpt lat="43.453384847420686" lon="10.94886462205178"><ele>585.0</ele><time>2026-04-18T10:28:38.054Z</time></trkpt><trkpt lat="43.45327211082303" lon="10.948766050870482"><ele>585.0</ele><time>2026-04-18T10:28:39.053Z</time></trkpt><trkpt lat="43.45318502284908" lon="10.94865549356765"><ele>585.0</ele><time>2026-04-18T10:28:40.055Z</time></trkpt><trkpt lat="43.45311536923372" lon="10.948538817475502"><ele>585.0</ele><time>2026-04-18T10:28:41.069Z</time></trkpt><trkpt lat="43.45303838145309" lon="10.94846497290856"><ele>585.0</ele><time>2026-04-18T10:28:42.067Z</time></trkpt><trkpt lat="43.45295896292054" lon="10.948447203273837"><ele>585.0</ele><time>2026-04-18T10:28:43.074Z</time></trkpt><trkpt lat="43.45287309032255" lon="10.94849523157901"><ele>585.0</ele><time>2026-04-18T10:28:44.062Z</time></trkpt><trkpt lat="43.45278797209584" lon="10.948588354523245"><ele>585.0</ele><time>2026-04-18T10:28:45.073Z</time></trkpt><trkpt lat="43.45268592242473" lon="10.948717519651119"><ele>585.0</ele><time>2026-04-18T10:28:46.044Z</time></trkpt><trkpt lat="43.45258961435729" lon="10.948869735012714"><ele>586.5</ele><time>2026-04-18T10:28:47.038Z</time></trkpt><trkpt lat="43.452481487806374" lon="10.948991021151606"><ele>588.0</ele><time>2026-04-18T10:28:48.039Z</time></trkpt><trkpt lat="43.45236145895296" lon="10.949096046398346"><ele>589.5</ele><time>2026-04-18T10:28:49.039Z</time></trkpt><trkpt lat="43.45223677814328" lon="10.949159916500513"><ele>591.0</ele><time>2026-04-18T10:28:50.035Z</time></trkpt><trkpt lat="43.45212718475931" lon="10.949214650328223"><ele>597.0</ele><time>2026-04-18T10:28:51.042Z</time></trkpt><trkpt lat="43.45196440819972" lon="10.949297212074462"><ele>603.0</ele><time>2026-04-18T10:28:52.04Z</time></trkpt><trkpt lat="43.45180863052928" lon="10.949400309483472"><ele>609.0</ele><time>2026-04-18T10:28:53.043Z</time></trkpt><trkpt lat="43.4516675630989" lon="10.949517991404"><ele>609.0</ele><time>2026-04-18T10:28:54.052Z</time></trkpt><trkpt lat="43.4514923394131" lon="10.94964682125575"><ele>609.0</ele><time>2026-04-18T10:28:55.051Z</time></trkpt><trkpt lat="43.451315145980054" lon="10.949791325266427"><ele>609.0</ele><time>2026-04-18T10:28:56.054Z</time></trkpt><trkpt lat="43.45113770108991" lon="10.949911857034033"><ele>608.6666666666666</ele><time>2026-04-18T10:28:57.066Z</time></trkpt><trkpt lat="43.45097622372531" lon="10.950018893937534"><ele>608.3333333333333</ele><time>2026-04-18T10:28:58.066Z</time></trkpt><trkpt lat="43.45082853459143" lon="10.950099611665076"><ele>608.0</ele><time>2026-04-18T10:28:59.052Z</time></trkpt><trkpt lat="43.45069178384119" lon="10.950165241966909"><ele>609.0</ele><time>2026-04-18T10:29:00.048Z</time></trkpt><trkpt lat="43.45058256764286" lon="10.95016239211983"><ele>610.0</ele><time>2026-04-18T10:29:01.052Z</time></trkpt><trkpt lat="43.45048047606223" lon="10.950088715190953"><ele>611.0</ele><time>2026-04-18T10:29:02.045Z</time></trkpt><trkpt lat="43.450371385592454" lon="10.949980840097135"><ele>612.0</ele><time>2026-04-18T10:29:03.052Z</time></trkpt><trkpt lat="43.45026510306024" lon="10.949906241158908"><ele>612.0</ele><time>2026-04-18T10:29:04.047Z</time></trkpt><trkpt lat="43.45015701841884" lon="10.949844382713502"><ele>612.0</ele><time>2026-04-18T10:29:05.059Z</time></trkpt><trkpt lat="43.450026679824525" lon="10.949847064922517"><ele>612.0</ele><time>2026-04-18T10:29:06.048Z</time></trkpt><trkpt lat="43.449895251582795" lon="10.9498911537332"><ele>612.0</ele><time>2026-04-18T10:29:07.07Z</time></trkpt><trkpt lat="43.44975539952838" lon="10.949975643317169"><ele>612.0</ele><time>2026-04-18T10:29:08.073Z</time></trkpt><trkpt lat="43.44962782696211" lon="10.95006264747209"><ele>612.0</ele><time>2026-04-18T10:29:09.047Z</time></trkpt><trkpt lat="43.44948520887964" lon="10.950108747939533"><ele>612.0</ele><time>2026-04-18T10:29:10.076Z</time></trkpt><trkpt lat="43.449353571090334" lon="10.9501208178801"><ele>612.0</ele><time>2026-04-18T10:29:11.076Z</time></trkpt><trkpt lat="43.449210701550776" lon="10.950078908364242"><ele>611.5</ele><time>2026-04-18T10:29:12.074Z</time></trkpt><trkpt lat="43.44907135241055" lon="10.950026940564578"><ele>611.0</ele><time>2026-04-18T10:29:13.05Z</time></trkpt><trkpt lat="43.448923076543444" lon="10.950004477064079"><ele>610.5</ele><time>2026-04-18T10:29:14.046Z</time></trkpt><trkpt lat="43.448777063790196" lon="10.950036160658067"><ele>610.0</ele><time>2026-04-18T10:29:15.046Z</time></trkpt><trkpt lat="43.44864027113044" lon="10.95014864579863"><ele>608.0</ele><time>2026-04-18T10:29:16.06Z</time></trkpt><trkpt lat="43.44851106409305" lon="10.950308907787269"><ele>606.0</ele><time>2026-04-18T10:29:17.061Z</time></trkpt><trkpt lat="43.44838667664998" lon="10.950490627448028"><ele>604.0</ele><time>2026-04-18T10:29:18.046Z</time></trkpt><trkpt lat="43.44827243130975" lon="10.95068810508675"><ele>602.6666666666667</ele><time>2026-04-18T10:29:19.043Z</time></trkpt><trkpt lat="43.44815407883697" lon="10.950881559411949"><ele>601.3333333333334</ele><time>2026-04-18T10:29:20.047Z</time></trkpt><trkpt lat="43.44804582655751" lon="10.951065542186564"><ele>600.0</ele><time>2026-04-18T10:29:21.043Z</time></trkpt><trkpt lat="43.44794159759157" lon="10.951249692599243"><ele>600.0</ele><time>2026-04-18T10:29:22.041Z</time></trkpt><trkpt lat="43.44784692399525" lon="10.951446667323774"><ele>600.0</ele><time>2026-04-18T10:29:23.044Z</time></trkpt><trkpt lat="43.4477529628607" lon="10.95165504143662"><ele>600.0</ele><time>2026-04-18T10:29:24.047Z</time></trkpt><trkpt lat="43.447665581520134" lon="10.951858637864657"><ele>598.3333333333334</ele><time>2026-04-18T10:29:25.042Z</time></trkpt><trkpt lat="43.44758486379259" lon="10.952044799934097"><ele>596.6666666666667</ele><time>2026-04-18T10:29:26.043Z</time></trkpt><trkpt lat="43.44749911692315" lon="10.952219646434255"><ele>595.0</ele><time>2026-04-18T10:29:27.046Z</time></trkpt><trkpt lat="43.4473953908714" lon="10.95235082321889"><ele>595.0</ele><time>2026-04-18T10:29:28.047Z</time></trkpt><trkpt lat="43.44726450745337" lon="10.952446879829235"><ele>595.0</ele><time>2026-04-18T10:29:29.047Z</time></trkpt><trkpt lat="43.447106005664395" lon="10.952506307522722"><ele>595.0</ele><time>2026-04-18T10:29:30.072Z</time></trkpt><trkpt lat="43.44694410920464" lon="10.95252432861454"><ele>591.6666666666667</ele><time>2026-04-18T10:29:31.05Z</time></trkpt><trkpt lat="43.446782967116164" lon="10.952564058835573"><ele>588.3333333333334</ele><time>2026-04-18T10:29:32.047Z</time></trkpt><trkpt lat="43.44661474231951" lon="10.952598927552767"><ele>585.0</ele><time>2026-04-18T10:29:33.061Z</time></trkpt><trkpt lat="43.446434405672775" lon="10.95261225477881"><ele>586.0</ele><time>2026-04-18T10:29:34.049Z</time></trkpt><trkpt lat="43.44625172209315" lon="10.952583756308027"><ele>587.0</ele><time>2026-04-18T10:29:35.072Z</time></trkpt><trkpt lat="43.446080312173294" lon="10.952520724396177"><ele>588.0</ele><time>2026-04-18T10:29:36.063Z</time></trkpt><trkpt lat="43.445901735726224" lon="10.9524280205471"><ele>589.0</ele><time>2026-04-18T10:29:37.045Z</time></trkpt><trkpt lat="43.445757650810705" lon="10.952352751056619"><ele>590.0</ele><time>2026-04-18T10:29:38.069Z</time></trkpt><trkpt lat="43.44560996167682" lon="10.952279074127741"><ele>591.0</ele><time>2026-04-18T10:29:39.047Z</time></trkpt><trkpt lat="43.445458584505545" lon="10.952214282016225"><ele>591.3333333333334</ele><time>2026-04-18T10:29:40.034Z</time></trkpt><trkpt lat="43.445298615883516" lon="10.952169690291353"><ele>591.6666666666667</ele><time>2026-04-18T10:29:41.047Z</time></trkpt><trkpt lat="43.44512376938336" lon="10.952128116051622"><ele>592.0</ele><time>2026-04-18T10:29:42.037Z</time></trkpt><trkpt lat="43.44494012188487" lon="10.952091235677667"><ele>592.0</ele><time>2026-04-18T10:29:43.036Z</time></trkpt><trkpt lat="43.4447406744989" lon="10.952052343646951"><ele>592.0</ele><time>2026-04-18T10:29:44.034Z</time></trkpt><trkpt lat="43.44454411886953" lon="10.952007584284015"><ele>592.0</ele><time>2026-04-18T10:29:45.037Z</time></trkpt><trkpt lat="43.444349616806434" lon="10.951989563192196"><ele>592.3333333333334</ele><time>2026-04-18T10:29:46.036Z</time></trkpt><trkpt lat="43.44417623713933" lon="10.95200733282692"><ele>592.6666666666666</ele><time>2026-04-18T10:29:47.056Z</time></trkpt><trkpt lat="43.44400746751897" lon="10.952049409980841"><ele>593.0</ele><time>2026-04-18T10:29:48.047Z</time></trkpt><trkpt lat="43.44384498432599" lon="10.952076567347117"><ele>593.6666666666666</ele><time>2026-04-18T10:29:49.071Z</time></trkpt><trkpt lat="43.44366598878376" lon="10.95208067447967"><ele>594.3333333333334</ele><time>2026-04-18T10:29:50.036Z</time></trkpt><trkpt lat="43.44347530048661" lon="10.952065587053962"><ele>595.0</ele><time>2026-04-18T10:29:51.033Z</time></trkpt><trkpt lat="43.44327711038612" lon="10.952064581225581"><ele>595.0</ele><time>2026-04-18T10:29:52.034Z</time></trkpt><trkpt lat="43.44305989336543" lon="10.952091570953794"><ele>595.0</ele><time>2026-04-18T10:29:53.037Z</time></trkpt><trkpt lat="43.442843933630215" lon="10.952141024182506"><ele>595.0</ele><time>2026-04-18T10:29:54.05Z</time></trkpt><trkpt lat="43.4426366910743" lon="10.952201960618563"><ele>597.0</ele><time>2026-04-18T10:29:55.065Z</time></trkpt><trkpt lat="43.44244466167264" lon="10.952257364998527"><ele>599.0</ele><time>2026-04-18T10:29:56.045Z</time></trkpt><trkpt lat="43.442270485724734" lon="10.952289886782832"><ele>601.0</ele><time>2026-04-18T10:29:57.053Z</time></trkpt><trkpt lat="43.44212656844728" lon="10.952319642539091"><ele>601.0</ele><time>2026-04-18T10:29:58.067Z</time></trkpt><trkpt lat="43.44199706804328" lon="10.952340848754115"><ele>601.0</ele><time>2026-04-18T10:29:59.063Z</time></trkpt><trkpt lat="43.44187138140522" lon="10.95239189454443"><ele>601.0</ele><time>2026-04-18T10:30:00.051Z</time></trkpt><trkpt lat="43.44178923875414" lon="10.952506307522722"><ele>601.0</ele><time>2026-04-18T10:30:01.061Z</time></trkpt><trkpt lat="43.44172163870506" lon="10.952637987221546"><ele>601.75</ele><time>2026-04-18T10:30:02.048Z</time></trkpt><trkpt lat="43.44168069310807" lon="10.952807301665612"><ele>602.5</ele><time>2026-04-18T10:30:03.048Z</time></trkpt><trkpt lat="43.44168379441224" lon="10.953018022711344"><ele>603.25</ele><time>2026-04-18T10:30:04.048Z</time></trkpt><trkpt lat="43.44168492596917" lon="10.95322161913938"><ele>604.0</ele><time>2026-04-18T10:30:05.049Z</time></trkpt><trkpt lat="43.44168936837785" lon="10.953423874462912"><ele>604.0</ele><time>2026-04-18T10:30:06.067Z</time></trkpt><trkpt lat="43.44170114495181" lon="10.953629398728678"><ele>604.0</ele><time>2026-04-18T10:30:07.071Z</time></trkpt><trkpt lat="43.44171782493912" lon="10.953843304897616"><ele>604.0</ele><time>2026-04-18T10:30:08.065Z</time></trkpt><trkpt lat="43.44172075860523" lon="10.95405804925687"><ele>603.6666666666667</ele><time>2026-04-18T10:30:09.072Z</time></trkpt><trkpt lat="43.44171719629638" lon="10.954285869385073"><ele>603.3333333333334</ele><time>2026-04-18T10:30:10.047Z</time></trkpt><trkpt lat="43.44169422988169" lon="10.954529196034143"><ele>603.0</ele><time>2026-04-18T10:30:11.048Z</time></trkpt><trkpt lat="43.44165852297418" lon="10.954779563481877"><ele>603.0</ele><time>2026-04-18T10:30:12.047Z</time></trkpt><trkpt lat="43.441614266525434" lon="10.955016436065504"><ele>603.0</ele><time>2026-04-18T10:30:13.059Z</time></trkpt><trkpt lat="43.44156808223896" lon="10.955244256193707"><ele>603.0</ele><time>2026-04-18T10:30:14.044Z</time></trkpt><trkpt lat="43.44151494097285" lon="10.955475009988021"><ele>602.3333333333334</ele><time>2026-04-18T10:30:15.046Z</time></trkpt><trkpt lat="43.44144147359155" lon="10.9557212703032"><ele>601.6666666666667</ele><time>2026-04-18T10:30:16.047Z</time></trkpt><trkpt lat="43.44133938201092" lon="10.95597482287414"><ele>601.0</ele><time>2026-04-18T10:30:17.045Z</time></trkpt><trkpt lat="43.44121051024966" lon="10.956227118159603"><ele>601.3333333333334</ele><time>2026-04-18T10:30:18.073Z</time></trkpt><trkpt lat="43.44106839508139" lon="10.956456027935218"><ele>601.6666666666666</ele><time>2026-04-18T10:30:19.062Z</time></trkpt><trkpt lat="43.44092963267438" lon="10.956681501130532"><ele>602.0</ele><time>2026-04-18T10:30:20.041Z</time></trkpt><trkpt lat="43.44079351056688" lon="10.956898257146548"><ele>602.0</ele><time>2026-04-18T10:30:21.055Z</time></trkpt><trkpt lat="43.440663716796266" lon="10.95709866845138"><ele>602.0</ele><time>2026-04-18T10:30:22.036Z</time></trkpt><trkpt lat="43.440539371262716" lon="10.957293380062056"><ele>602.0</ele><time>2026-04-18T10:30:23.041Z</time></trkpt><trkpt lat="43.44041925859027" lon="10.957490354786588"><ele>600.6666666666666</ele><time>2026-04-18T10:30:24.066Z</time></trkpt><trkpt lat="43.44029801436089" lon="10.957690095539165"><ele>599.3333333333334</ele><time>2026-04-18T10:30:25.037Z</time></trkpt><trkpt lat="43.44017228581332" lon="10.957892937595917"><ele>598.0</ele><time>2026-04-18T10:30:26.033Z</time></trkpt><trkpt lat="43.440043120685445" lon="10.958103155727459"><ele>598.0</ele><time>2026-04-18T10:30:27.085Z</time></trkpt><trkpt lat="43.43992015816592" lon="10.958316978077365"><ele>598.0</ele><time>2026-04-18T10:30:28.043Z</time></trkpt><trkpt lat="43.43979803383671" lon="10.958535494293047"><ele>598.0</ele><time>2026-04-18T10:30:29.043Z</time></trkpt><trkpt lat="43.43967339493654" lon="10.958749232823921"><ele>595.6666666666667</ele><time>2026-04-18T10:30:30.05Z</time></trkpt><trkpt lat="43.4395511867883" lon="10.958954337994529"><ele>593.3333333333334</ele><time>2026-04-18T10:30:31.036Z</time></trkpt><trkpt lat="43.43942726034991" lon="10.959172686572149"><ele>591.0</ele><time>2026-04-18T10:30:32.038Z</time></trkpt><trkpt lat="43.43929671220801" lon="10.959374271343425"><ele>590.6666666666666</ele><time>2026-04-18T10:30:33.039Z</time></trkpt><trkpt lat="43.43916063201002" lon="10.959570072601512"><ele>590.3333333333333</ele><time>2026-04-18T10:30:34.035Z</time></trkpt><trkpt lat="43.43899446077965" lon="10.959762940193489"><ele>590.0</ele><time>2026-04-18T10:30:35.066Z</time></trkpt><trkpt lat="43.438803772482494" lon="10.959948766986802"><ele>590.5</ele><time>2026-04-18T10:30:36.036Z</time></trkpt><trkpt lat="43.43860428318701" lon="10.96011967399247"><ele>591.0</ele><time>2026-04-18T10:30:37.034Z</time></trkpt><trkpt lat="43.43842252161674" lon="10.96028337256141"><ele>591.0</ele><time>2026-04-18T10:30:38.04Z</time></trkpt><trkpt lat="43.43824910004012" lon="10.960429804409817"><ele>591.0</ele><time>2026-04-18T10:30:39.044Z</time></trkpt><trkpt lat="43.438066416460494" lon="10.960563663403466"><ele>591.0</ele><time>2026-04-18T10:30:40.041Z</time></trkpt><trkpt lat="43.437900077592055" lon="10.960694169635847"><ele>590.3333333333334</ele><time>2026-04-18T10:30:41.046Z</time></trkpt><trkpt lat="43.437729086767355" lon="10.960809756080582"><ele>589.6666666666667</ele><time>2026-04-18T10:30:42.048Z</time></trkpt><trkpt lat="43.43756207734666" lon="10.96090296284385"><ele>589.0</ele><time>2026-04-18T10:30:43.066Z</time></trkpt><trkpt lat="43.43740743123315" lon="10.961005473519638"><ele>590.3333333333334</ele><time>2026-04-18T10:30:44.051Z</time></trkpt><trkpt lat="43.43725010291062" lon="10.961128268401103"><ele>591.6666666666666</ele><time>2026-04-18T10:30:45.047Z</time></trkpt><trkpt lat="43.43710890975169" lon="10.961291212598757"><ele>593.0</ele><time>2026-04-18T10:30:46.062Z</time></trkpt><trkpt lat="43.43700292058609" lon="10.961499167616443"><ele>590.6666666666666</ele><time>2026-04-18T10:30:47.071Z</time></trkpt><trkpt lat="43.436922328587094" lon="10.961727742115931"><ele>588.3333333333334</ele><time>2026-04-18T10:30:48.075Z</time></trkpt><trkpt lat="43.43685791366122" lon="10.96198230051525"><ele>586.0</ele><time>2026-04-18T10:30:49.065Z</time></trkpt><trkpt lat="43.43680582013301" lon="10.962239541123585"><ele>586.0</ele><time>2026-04-18T10:30:50.073Z</time></trkpt><trkpt lat="43.43674207575939" lon="10.962475659335928"><ele>586.0</ele><time>2026-04-18T10:30:51.075Z</time></trkpt><trkpt lat="43.43665465250931" lon="10.96268101596363"><ele>586.0</ele><time>2026-04-18T10:30:52.065Z</time></trkpt><trkpt lat="43.43654153872601" lon="10.962838931019382"><ele>586.3333333333334</ele><time>2026-04-18T10:30:53.08Z</time></trkpt><trkpt lat="43.43641987540148" lon="10.962971868003685"><ele>586.6666666666666</ele><time>2026-04-18T10:30:54.078Z</time></trkpt><trkpt lat="43.436293224844555" lon="10.963105307902175"><ele>587.0</ele><time>2026-04-18T10:30:55.074Z</time></trkpt><trkpt lat="43.43617168724857" lon="10.963265988985974"><ele>586.6666666666666</ele><time>2026-04-18T10:30:56.077Z</time></trkpt><trkpt lat="43.43604407277278" lon="10.963428430269438"><ele>586.3333333333334</ele><time>2026-04-18T10:30:57.075Z</time></trkpt><trkpt lat="43.435930497984806" lon="10.963614340881783"><ele>586.0</ele><time>2026-04-18T10:30:58.079Z</time></trkpt><trkpt lat="43.43583486046962" lon="10.963829001422006"><ele>586.0</ele><time>2026-04-18T10:30:59.08Z</time></trkpt><trkpt lat="43.43575590294174" lon="10.964045086885768"><ele>586.0</ele><time>2026-04-18T10:31:00.075Z</time></trkpt><trkpt lat="43.435683650936404" lon="10.964270057166893"><ele>586.0</ele><time>2026-04-18T10:31:01.047Z</time></trkpt><trkpt lat="43.4355787095087" lon="10.964491171772558"><ele>584.6666666666667</ele><time>2026-04-18T10:31:02.043Z</time></trkpt><trkpt lat="43.43546077613107" lon="10.964686637754518"><ele>583.3333333333334</ele><time>2026-04-18T10:31:03.042Z</time></trkpt><trkpt lat="43.435342800843934" lon="10.964887551973542"><ele>582.0</ele><time>2026-04-18T10:31:04.039Z</time></trkpt><trkpt lat="43.43523815278284" lon="10.965097518647989"><ele>580.0</ele><time>2026-04-18T10:31:05.035Z</time></trkpt><trkpt lat="43.43513413336448" lon="10.965328523899396"><ele>578.0</ele><time>2026-04-18T10:31:06.055Z</time></trkpt><trkpt lat="43.4350321675124" lon="10.965544274087032"><ele>576.0</ele><time>2026-04-18T10:31:07.038Z</time></trkpt><trkpt lat="43.43491750307701" lon="10.965755498046954"><ele>573.3333333333334</ele><time>2026-04-18T10:31:08.036Z</time></trkpt><trkpt lat="43.43479039151541" lon="10.965949120010217"><ele>570.6666666666667</ele><time>2026-04-18T10:31:09.044Z</time></trkpt><trkpt lat="43.43464546840958" lon="10.966132348413547"><ele>568.0</ele><time>2026-04-18T10:31:10.053Z</time></trkpt><trkpt lat="43.43451600991509" lon="10.96631817520686"><ele>568.0</ele><time>2026-04-18T10:31:11.07Z</time></trkpt><trkpt lat="43.43440323140792" lon="10.966525124396165"><ele>568.0</ele><time>2026-04-18T10:31:12.041Z</time></trkpt><trkpt lat="43.4342852980303" lon="10.966730732480963"><ele>568.0</ele><time>2026-04-18T10:31:13.033Z</time></trkpt><trkpt lat="43.434130316640655" lon="10.966917816559754"><ele>566.3333333333334</ele><time>2026-04-18T10:31:14.044Z</time></trkpt><trkpt lat="43.43395978682063" lon="10.967083023871265"><ele>564.6666666666666</ele><time>2026-04-18T10:31:15.038Z</time></trkpt><trkpt lat="43.43377961781196" lon="10.967219732711992"><ele>563.0</ele><time>2026-04-18T10:31:16.039Z</time></trkpt><trkpt lat="43.43359592840395" lon="10.967354262257896"><ele>562.3333333333333</ele><time>2026-04-18T10:31:17.033Z</time></trkpt><trkpt lat="43.433420872356216" lon="10.967476218949042"><ele>561.6666666666666</ele><time>2026-04-18T10:31:17.993Z</time></trkpt><trkpt lat="43.43324384656123" lon="10.967601025487266"><ele>561.0</ele><time>2026-04-18T10:31:18.993Z</time></trkpt><trkpt lat="43.43306619212351" lon="10.96771602519878"><ele>560.6666666666666</ele><time>2026-04-18T10:31:19.994Z</time></trkpt><trkpt lat="43.43289189044706" lon="10.967801855887256"><ele>560.3333333333333</ele><time>2026-04-18T10:31:20.994Z</time></trkpt><trkpt lat="43.43274005227111" lon="10.967840580279908"><ele>560.0</ele><time>2026-04-18T10:31:21.995Z</time></trkpt><trkpt lat="43.4325856995242" lon="10.967912832285247"><ele>560.0</ele><time>2026-04-18T10:31:22.995Z</time></trkpt><trkpt lat="43.4324408602374" lon="10.968048954392753"><ele>560.0</ele><time>2026-04-18T10:31:23.995Z</time></trkpt><trkpt lat="43.432323639321545" lon="10.968213910247169"><ele>560.0</ele><time>2026-04-18T10:31:24.996Z</time></trkpt><trkpt lat="43.432219326536575" lon="10.968341734270535"><ele>556.6666666666666</ele><time>2026-04-18T10:31:25.996Z</time></trkpt><trkpt lat="43.43209749557398" lon="10.968444328765354"><ele>553.3333333333334</ele><time>2026-04-18T10:31:26.996Z</time></trkpt><trkpt lat="43.43195655387214" lon="10.968494871641479"><ele>550.0</ele><time>2026-04-18T10:31:27.996Z</time></trkpt><trkpt lat="43.43179407067916" lon="10.968484394262514"><ele>550.0</ele><time>2026-04-18T10:31:28.997Z</time></trkpt><trkpt lat="43.43160950117132" lon="10.968443322936974"><ele>550.0</ele><time>2026-04-18T10:31:29.997Z</time></trkpt><trkpt lat="43.43143763024679" lon="10.968375094245157"><ele>550.0</ele><time>2026-04-18T10:31:30.997Z</time></trkpt><trkpt lat="43.43129186895064" lon="10.968260765085898"><ele>549.3333333333334</ele><time>2026-04-18T10:31:31.997Z</time></trkpt><trkpt lat="43.43114585619739" lon="10.968162948275886"><ele>548.6666666666666</ele><time>2026-04-18T10:31:32.997Z</time></trkpt><trkpt lat="43.43098504938504" lon="10.968132941062532"><ele>548.0</ele><time>2026-04-18T10:31:33.998Z</time></trkpt><trkpt lat="43.43081787232629" lon="10.968094384307943"><ele>548.0</ele><time>2026-04-18T10:31:34.998Z</time></trkpt><trkpt lat="43.430655011947664" lon="10.968077788139663"><ele>548.0</ele><time>2026-04-18T10:31:35.998Z</time></trkpt><trkpt lat="43.43048494313231" lon="10.96812212840744"><ele>548.0</ele><time>2026-04-18T10:31:36.998Z</time></trkpt><trkpt lat="43.43032145411095" lon="10.968226483101926"><ele>544.6666666666666</ele><time>2026-04-18T10:31:37.998Z</time></trkpt><trkpt lat="43.430164335336" lon="10.968365371237478"><ele>541.3333333333334</ele><time>2026-04-18T10:31:38.998Z</time></trkpt><trkpt lat="43.430012245702954" lon="10.968547509993396"><ele>538.0</ele><time>2026-04-18T10:31:39.998Z</time></trkpt><trkpt lat="43.42986480802617" lon="10.968722440312588"><ele>538.0</ele><time>2026-04-18T10:31:40.998Z</time></trkpt><trkpt lat="43.42972407587192" lon="10.968922348703229"><ele>538.0</ele><time>2026-04-18T10:31:41.999Z</time></trkpt><trkpt lat="43.429590049240204" lon="10.96913784743377"><ele>538.0</ele><time>2026-04-18T10:31:42.999Z</time></trkpt><trkpt lat="43.42947848610899" lon="10.969375977302873"><ele>535.6666666666667</ele><time>2026-04-18T10:31:43.999Z</time></trkpt><trkpt lat="43.42937681362352" lon="10.969609329487168"><ele>533.3333333333334</ele><time>2026-04-18T10:31:44.999Z</time></trkpt><trkpt lat="43.42926939953438" lon="10.969822648922884"><ele>531.0</ele><time>2026-04-18T10:31:45.999Z</time></trkpt><trkpt lat="43.429161147254916" lon="10.96999690868982"><ele>531.3333333333334</ele><time>2026-04-18T10:31:46.999Z</time></trkpt><trkpt lat="43.42902536042354" lon="10.970122553418362"><ele>531.6666666666667</ele><time>2026-04-18T10:31:47.999Z</time></trkpt><trkpt lat="43.428868451196166" lon="10.970201427127206"><ele>532.0</ele><time>2026-04-18T10:31:48.999Z</time></trkpt><trkpt lat="43.428690000477644" lon="10.970255490402662"><ele>530.75</ele><time>2026-04-18T10:31:49.999Z</time></trkpt><trkpt lat="43.42851825528166" lon="10.970284491787636"><ele>529.5</ele><time>2026-04-18T10:31:50.999Z</time></trkpt><trkpt lat="43.428375134285005" lon="10.970314415181958"><ele>528.25</ele><time>2026-04-18T10:31:51.999Z</time></trkpt><trkpt lat="43.42825187839887" lon="10.970364958058083"><ele>527.0</ele><time>2026-04-18T10:31:52.999Z</time></trkpt><trkpt lat="43.428160431835266" lon="10.97044249066242"><ele>527.0</ele><time>2026-04-18T10:31:53.999Z</time></trkpt><trkpt lat="43.428096897009226" lon="10.97056654282936"><ele>527.0</ele><time>2026-04-18T10:31:54.999Z</time></trkpt><trkpt lat="43.42807837300322" lon="10.9707077778978"><ele>527.0</ele><time>2026-04-18T10:31:55.999Z</time></trkpt><trkpt lat="43.428079001645955" lon="10.970892095948543"><ele>527.0</ele><time>2026-04-18T10:31:56.999Z</time></trkpt><trkpt lat="43.42808595862559" lon="10.971092171977247"><ele>526.0</ele><time>2026-04-18T10:31:57.999Z</time></trkpt><trkpt lat="43.42809115540555" lon="10.971320075924481"><ele>525.0</ele><time>2026-04-18T10:31:58.999Z</time></trkpt><trkpt lat="43.428066261153134" lon="10.971537586311783"><ele>524.0</ele><time>2026-04-18T10:31:59.999Z</time></trkpt><trkpt lat="43.428006246726426" lon="10.971753168861355"><ele>520.3333333333333</ele><time>2026-04-18T10:32:00.999Z</time></trkpt><trkpt lat="43.427901850122424" lon="10.971973445276703"><ele>516.6666666666666</ele><time>2026-04-18T10:32:01.999Z</time></trkpt><trkpt lat="43.427778510417255" lon="10.972203109423603"><ele>513.0</ele><time>2026-04-18T10:32:02.999Z</time></trkpt><trkpt lat="43.42763295866868" lon="10.972441826025928"><ele>512.5</ele><time>2026-04-18T10:32:03.999Z</time></trkpt><trkpt lat="43.42746217739156" lon="10.972692277292696"><ele>512.0</ele><time>2026-04-18T10:32:04.999Z</time></trkpt><trkpt lat="43.42728636697254" lon="10.972937531779495"><ele>511.66666666666663</ele><time>2026-04-18T10:32:05.999Z</time></trkpt><trkpt lat="43.42711722016654" lon="10.973158730204192"><ele>511.33333333333337</ele><time>2026-04-18T10:32:06.999Z</time></trkpt><trkpt lat="43.42695276722631" lon="10.973347825939742"><ele>511.0</ele><time>2026-04-18T10:32:07.999Z</time></trkpt><trkpt lat="43.426778800825986" lon="10.973499035472956"><ele>510.6666666666667</ele><time>2026-04-18T10:32:09Z</time></trkpt><trkpt lat="43.42659712307474" lon="10.973618226136056"><ele>510.33333333333337</ele><time>2026-04-18T10:32:10Z</time></trkpt><trkpt lat="43.42640287246874" lon="10.97370103933939"><ele>510.0</ele><time>2026-04-18T10:32:11Z</time></trkpt><trkpt lat="43.42620912477693" lon="10.973726771782127"><ele>509.5</ele><time>2026-04-18T10:32:12Z</time></trkpt><trkpt lat="43.426057747605654" lon="10.973708750690308"><ele>509.0</ele><time>2026-04-18T10:32:13Z</time></trkpt><trkpt lat="43.425933402072104" lon="10.973635325218526"><ele>508.5</ele><time>2026-04-18T10:32:14Z</time></trkpt><trkpt lat="43.42581509150884" lon="10.973505740995494"><ele>508.0</ele><time>2026-04-18T10:32:15Z</time></trkpt><trkpt lat="43.42569414064607" lon="10.97338386812338"><ele>507.5</ele><time>2026-04-18T10:32:16Z</time></trkpt><trkpt lat="43.42554607432655" lon="10.973301557834235"><ele>507.0</ele><time>2026-04-18T10:32:17Z</time></trkpt><trkpt lat="43.42539390087447" lon="10.973273059363452"><ele>506.5</ele><time>2026-04-18T10:32:18Z</time></trkpt><trkpt lat="43.42526335273257" lon="10.973289236436573"><ele>506.0</ele><time>2026-04-18T10:32:19Z</time></trkpt><trkpt lat="43.4251616802471" lon="10.973371630544749"><ele>504.0</ele><time>2026-04-18T10:32:20Z</time></trkpt><trkpt lat="43.42509609185478" lon="10.97350607627162"><ele>502.0</ele><time>2026-04-18T10:32:21Z</time></trkpt><trkpt lat="43.425055607262465" lon="10.97369609401652"><ele>500.0</ele><time>2026-04-18T10:32:22Z</time></trkpt><trkpt lat="43.42502844989619" lon="10.973924417058912"><ele>498.0</ele><time>2026-04-18T10:32:23Z</time></trkpt><trkpt lat="43.424990940879496" lon="10.974170845012155"><ele>496.66666666666663</ele><time>2026-04-18T10:32:24Z</time></trkpt><trkpt lat="43.42491835359803" lon="10.974430181096285"><ele>495.3333333333333</ele><time>2026-04-18T10:32:25Z</time></trkpt><trkpt lat="43.424824937287184" lon="10.974687421704619"><ele>494.0</ele><time>2026-04-18T10:32:26Z</time></trkpt><trkpt lat="43.42471123677066" lon="10.974921612079232"><ele>493.66666666666663</ele><time>2026-04-18T10:32:27Z</time></trkpt><trkpt lat="43.424596572335275" lon="10.975108109424799"><ele>493.33333333333337</ele><time>2026-04-18T10:32:28Z</time></trkpt><trkpt lat="43.42442721598169" lon="10.975227719183057"><ele>493.0</ele><time>2026-04-18T10:32:28.999Z</time></trkpt><trkpt lat="43.424249645363" lon="10.975318998108595"><ele>493.0</ele><time>2026-04-18T10:32:29.999Z</time></trkpt><trkpt lat="43.424051287624444" lon="10.97541505471894"><ele>493.0</ele><time>2026-04-18T10:32:30.999Z</time></trkpt><trkpt lat="43.423842662054504" lon="10.975528461868851"><ele>493.0</ele><time>2026-04-18T10:32:31.999Z</time></trkpt><trkpt lat="43.42363965235969" lon="10.975659303377359"><ele>493.33333333333337</ele><time>2026-04-18T10:32:32.999Z</time></trkpt><trkpt lat="43.42344259381613" lon="10.975808249796717"><ele>493.66666666666663</ele><time>2026-04-18T10:32:33.999Z</time></trkpt><trkpt lat="43.423264226916636" lon="10.97594956868419"><ele>494.0</ele><time>2026-04-18T10:32:34.999Z</time></trkpt><trkpt lat="43.423087787854875" lon="10.976077811802714"><ele>494.66666666666663</ele><time>2026-04-18T10:32:35.999Z</time></trkpt><trkpt lat="43.422909420955385" lon="10.976184261972993"><ele>495.33333333333337</ele><time>2026-04-18T10:32:36.999Z</time></trkpt><trkpt lat="43.42272765938511" lon="10.976245114590018"><ele>496.0</ele><time>2026-04-18T10:32:37.999Z</time></trkpt><trkpt lat="43.42255574655106" lon="10.976246288056462"><ele>496.0</ele><time>2026-04-18T10:32:38.999Z</time></trkpt><trkpt lat="43.42239925641885" lon="10.976178813735931"><ele>496.0</ele><time>2026-04-18T10:32:39.999Z</time></trkpt><trkpt lat="43.42226087119749" lon="10.976062808196037"><ele>496.0</ele><time>2026-04-18T10:32:40.999Z</time></trkpt><trkpt lat="43.422144237014855" lon="10.975928446288197"><ele>498.75</ele><time>2026-04-18T10:32:41.999Z</time></trkpt><trkpt lat="43.42203778684458" lon="10.975823672498553"><ele>501.5</ele><time>2026-04-18T10:32:42.999Z</time></trkpt><trkpt lat="43.421915075782145" lon="10.975773967812746"><ele>504.25</ele><time>2026-04-18T10:32:43.999Z</time></trkpt><trkpt lat="43.42177886985561" lon="10.975776230926602"><ele>507.0</ele><time>2026-04-18T10:32:44.999Z</time></trkpt><trkpt lat="43.4216213319855" lon="10.975814536224096"><ele>507.0</ele><time>2026-04-18T10:32:45.999Z</time></trkpt><trkpt lat="43.42144418046197" lon="10.975853092978685"><ele>507.0</ele><time>2026-04-18T10:32:46.999Z</time></trkpt><trkpt lat="43.42126124542525" lon="10.975859630863159"><ele>507.0</ele><time>2026-04-18T10:32:47.999Z</time></trkpt><trkpt lat="43.42109054796716" lon="10.97583867610523"><ele>508.66666666666663</ele><time>2026-04-18T10:32:48.999Z</time></trkpt><trkpt lat="43.42093204617819" lon="10.975786289210408"><ele>510.3333333333333</ele><time>2026-04-18T10:32:49.999Z</time></trkpt><trkpt lat="43.4207700658994" lon="10.975739099095552"><ele>512.0</ele><time>2026-04-18T10:32:50.999Z</time></trkpt><trkpt lat="43.42061717998555" lon="10.97569894977936"><ele>513.25</ele><time>2026-04-18T10:32:51.999Z</time></trkpt><trkpt lat="43.42046043839624" lon="10.97568671220073"><ele>514.5</ele><time>2026-04-18T10:32:52.999Z</time></trkpt><trkpt lat="43.42031425800493" lon="10.975694675008743"><ele>515.75</ele><time>2026-04-18T10:32:53.999Z</time></trkpt><trkpt lat="43.42016925108006" lon="10.975704146559327"><ele>517.0</ele><time>2026-04-18T10:32:54.999Z</time></trkpt><trkpt lat="43.42001741290411" lon="10.975741697485535"><ele>517.0</ele><time>2026-04-18T10:32:55.999Z</time></trkpt><trkpt lat="43.41985744428208" lon="10.975796431313245"><ele>517.0</ele><time>2026-04-18T10:32:56.999Z</time></trkpt><trkpt lat="43.41970271434953" lon="10.97585820593962"><ele>517.0</ele><time>2026-04-18T10:32:57.999Z</time></trkpt><trkpt lat="43.41953947678527" lon="10.975921070213406"><ele>517.6666666666667</ele><time>2026-04-18T10:32:58.999Z</time></trkpt><trkpt lat="43.41937355701199" lon="10.975996088246792"><ele>518.3333333333334</ele><time>2026-04-18T10:32:59.999Z</time></trkpt><trkpt lat="43.41923177711984" lon="10.976069262261479"><ele>519.0</ele><time>2026-04-18T10:33:00.999Z</time></trkpt><trkpt lat="43.419087650294806" lon="10.97614847124645"><ele>519.0</ele><time>2026-04-18T10:33:01.999Z</time></trkpt><trkpt lat="43.41894892979732" lon="10.976210162053793"><ele>519.0</ele><time>2026-04-18T10:33:02.999Z</time></trkpt><trkpt lat="43.41882215351185" lon="10.976247712980001"><ele>519.0</ele><time>2026-04-18T10:33:03.999Z</time></trkpt><trkpt lat="43.41870254375359" lon="10.976211335520237"><ele>519.0</ele><time>2026-04-18T10:33:04.999Z</time></trkpt><trkpt lat="43.4186267294394" lon="10.97615190782675"><ele>520.0</ele><time>2026-04-18T10:33:05.999Z</time></trkpt><trkpt lat="43.41856855903139" lon="10.9761079028351"><ele>521.0</ele><time>2026-04-18T10:33:06.999Z</time></trkpt><trkpt lat="43.41848168060502" lon="10.976047720770328"><ele>522.0</ele><time>2026-04-18T10:33:08.999Z</time></trkpt><trkpt lat="43.41842028316429" lon="10.976017210642784"><ele>523.0</ele><time>2026-04-18T10:33:09.999Z</time></trkpt><trkpt lat="43.41831257570853" lon="10.975979994992702"><ele>524.0</ele><time>2026-04-18T10:33:11.999Z</time></trkpt><trkpt lat="43.41820210222473" lon="10.975959291691868"><ele>524.0</ele><time>2026-04-18T10:33:13.999Z</time></trkpt><trkpt lat="43.41812917966714" lon="10.975970271985023"><ele>524.0</ele><time>2026-04-18T10:33:14.999Z</time></trkpt><trkpt lat="43.41804326515963" lon="10.976000363017409"><ele>524.0</ele><time>2026-04-18T10:33:15.999Z</time></trkpt><trkpt lat="43.417947627644445" lon="10.976030873144953"><ele>524.0</ele><time>2026-04-18T10:33:16.999Z</time></trkpt><trkpt lat="43.41785102621039" lon="10.976059790710895"><ele>524.0</ele><time>2026-04-18T10:33:17.999Z</time></trkpt><trkpt lat="43.41775211975297" lon="10.976084768782346"><ele>524.75</ele><time>2026-04-18T10:33:18.999Z</time></trkpt><trkpt lat="43.41762513391992" lon="10.976109160120576"><ele>525.5</ele><time>2026-04-18T10:33:19.999Z</time></trkpt><trkpt lat="43.4175000759246" lon="10.976176047707884"><ele>526.25</ele><time>2026-04-18T10:33:20.999Z</time></trkpt><trkpt lat="43.417392787564005" lon="10.976261878396361"><ele>527.0</ele><time>2026-04-18T10:33:21.999Z</time></trkpt><trkpt lat="43.41727891940942" lon="10.97633111291656"><ele>526.25</ele><time>2026-04-18T10:33:22.999Z</time></trkpt><trkpt lat="43.41714112092128" lon="10.97633312457332"><ele>525.5</ele><time>2026-04-18T10:33:23.999Z</time></trkpt><trkpt lat="43.41698752254566" lon="10.976290125410051"><ele>524.75</ele><time>2026-04-18T10:33:24.999Z</time></trkpt><trkpt lat="43.41684821531495" lon="10.976257268349617"><ele>524.0</ele><time>2026-04-18T10:33:25.999Z</time></trkpt><trkpt lat="43.41670710597505" lon="10.976240085448115"><ele>524.0</ele><time>2026-04-18T10:33:26.999Z</time></trkpt><trkpt lat="43.416565200354356" lon="10.976294064904542"><ele>524.0</ele><time>2026-04-18T10:33:27.999Z</time></trkpt><trkpt lat="43.41643037744184" lon="10.976361120129914"><ele>524.0</ele><time>2026-04-18T10:33:28.999Z</time></trkpt><trkpt lat="43.41633134525587" lon="10.976481735716552"><ele>524.0</ele><time>2026-04-18T10:33:29.999Z</time></trkpt><trkpt lat="43.416256327222484" lon="10.976622132594676"><ele>524.75</ele><time>2026-04-18T10:33:30.999Z</time></trkpt><trkpt lat="43.416199246461886" lon="10.976779796193332"><ele>525.5</ele><time>2026-04-18T10:33:31.999Z</time></trkpt><trkpt lat="43.41614690147658" lon="10.976971909414024"><ele>526.25</ele><time>2026-04-18T10:33:32.999Z</time></trkpt><trkpt lat="43.41607779268493" lon="10.977159161130876"><ele>527.0</ele><time>2026-04-18T10:33:33.999Z</time></trkpt><trkpt lat="43.416001056361395" lon="10.977306850264759"><ele>527.0</ele><time>2026-04-18T10:33:34.999Z</time></trkpt><trkpt lat="43.41591216627826" lon="10.977409863854737"><ele>527.0</ele><time>2026-04-18T10:33:35.999Z</time></trkpt><trkpt lat="43.4157959931003" lon="10.977471387024016"><ele>527.0</ele><time>2026-04-18T10:33:36.999Z</time></trkpt><trkpt lat="43.41564910024722" lon="10.977481948222012"><ele>527.0</ele><time>2026-04-18T10:33:37.999Z</time></trkpt><trkpt lat="43.415502375032204" lon="10.977473985413999"><ele>528.25</ele><time>2026-04-18T10:33:38.999Z</time></trkpt><trkpt lat="43.415348776656586" lon="10.977410115311832"><ele>529.5</ele><time>2026-04-18T10:33:39.999Z</time></trkpt><trkpt lat="43.415227280970115" lon="10.977300144742221"><ele>530.75</ele><time>2026-04-18T10:33:40.999Z</time></trkpt><trkpt lat="43.41511521492471" lon="10.977201741198988"><ele>532.0</ele><time>2026-04-18T10:33:41.999Z</time></trkpt><trkpt lat="43.41499221049567" lon="10.977127896632046"><ele>532.0</ele><time>2026-04-18T10:33:42.999Z</time></trkpt><trkpt lat="43.414835133630234" lon="10.977142984057755"><ele>532.0</ele><time>2026-04-18T10:33:43.999Z</time></trkpt><trkpt lat="43.41466682501455" lon="10.977178104232044"><ele>532.0</ele><time>2026-04-18T10:33:44.999Z</time></trkpt><trkpt lat="43.41449005067666" lon="10.977226048718185"><ele>532.6666666666667</ele><time>2026-04-18T10:33:45.999Z</time></trkpt><trkpt lat="43.41433125552108" lon="10.977293103943557"><ele>533.3333333333334</ele><time>2026-04-18T10:33:46.999Z</time></trkpt><trkpt lat="43.414161102886695" lon="10.977332247431368"><ele>534.0</ele><time>2026-04-18T10:33:47.999Z</time></trkpt><trkpt lat="43.41397334825565" lon="10.977330906326861"><ele>533.6666666666666</ele><time>2026-04-18T10:33:48.999Z</time></trkpt><trkpt lat="43.41379590336551" lon="10.977291846658082"><ele>533.3333333333333</ele><time>2026-04-18T10:33:49.999Z</time></trkpt><trkpt lat="43.413637611124116" lon="10.977214146415681"><ele>533.0</ele><time>2026-04-18T10:33:50.999Z</time></trkpt><trkpt lat="43.41349055063297" lon="10.97712907009849"><ele>533.0</ele><time>2026-04-18T10:33:51.999Z</time></trkpt><trkpt lat="43.41335681736787" lon="10.97706696019599"><ele>533.0</ele><time>2026-04-18T10:33:52.999Z</time></trkpt><trkpt lat="43.41322727505435" lon="10.977044748152585"><ele>533.0</ele><time>2026-04-18T10:33:53.999Z</time></trkpt><trkpt lat="43.413089350837666" lon="10.977068301300497"><ele>533.0</ele><time>2026-04-18T10:33:54.999Z</time></trkpt><trkpt lat="43.41293047186305" lon="10.977131333212347"><ele>530.0</ele><time>2026-04-18T10:33:55.999Z</time></trkpt><trkpt lat="43.41279254764636" lon="10.977216828624696"><ele>527.0</ele><time>2026-04-18T10:33:56.999Z</time></trkpt><trkpt lat="43.41264314022233" lon="10.977288745353908"><ele>524.0</ele><time>2026-04-18T10:33:57.999Z</time></trkpt><trkpt lat="43.41248824265172" lon="10.977359404797644"><ele>524.0</ele><time>2026-04-18T10:33:58.999Z</time></trkpt><trkpt lat="43.412334183271426" lon="10.977401314313502"><ele>524.0</ele><time>2026-04-18T10:33:59.999Z</time></trkpt><trkpt lat="43.41216386299898" lon="10.977375581870765"><ele>524.0</ele><time>2026-04-18T10:34:00.999Z</time></trkpt><trkpt lat="43.41200251136293" lon="10.977317076186628"><ele>522.25</ele><time>2026-04-18T10:34:01.999Z</time></trkpt><trkpt lat="43.41186542533656" lon="10.97726343200633"><ele>520.5</ele><time>2026-04-18T10:34:02.999Z</time></trkpt><trkpt lat="43.41173571538498" lon="10.977216409529538"><ele>518.75</ele><time>2026-04-18T10:34:03.999Z</time></trkpt><trkpt lat="43.41160550251921" lon="10.97719210201034"><ele>517.0</ele><time>2026-04-18T10:34:04.999Z</time></trkpt><trkpt lat="43.41148430019935" lon="10.977230491126866"><ele>517.0</ele><time>2026-04-18T10:34:05.999Z</time></trkpt><trkpt lat="43.41136104431321" lon="10.977307017902822"><ele>517.0</ele><time>2026-04-18T10:34:06.999Z</time></trkpt><trkpt lat="43.41124713424911" lon="10.977431908260078"><ele>517.0</ele><time>2026-04-18T10:34:07.999Z</time></trkpt><trkpt lat="43.41111700520237" lon="10.977597031752557"><ele>515.0</ele><time>2026-04-18T10:34:08.999Z</time></trkpt><trkpt lat="43.41098670851757" lon="10.977777913223"><ele>513.0</ele><time>2026-04-18T10:34:09.999Z</time></trkpt><trkpt lat="43.41086399745514" lon="10.977935157726497"><ele>511.0</ele><time>2026-04-18T10:34:10.999Z</time></trkpt><trkpt lat="43.41073378458937" lon="10.978057617331833"><ele>511.0</ele><time>2026-04-18T10:34:11.999Z</time></trkpt><trkpt lat="43.41059280097802" lon="10.978136407221646"><ele>511.0</ele><time>2026-04-18T10:34:12.999Z</time></trkpt><trkpt lat="43.41045776851793" lon="10.9781595412744"><ele>511.0</ele><time>2026-04-18T10:34:13.998Z</time></trkpt><trkpt lat="43.41031871274431" lon="10.978120397786588"><ele>511.0</ele><time>2026-04-18T10:34:14.998Z</time></trkpt><trkpt lat="43.4101941995727" lon="10.978002380589933"><ele>508.6666666666667</ele><time>2026-04-18T10:34:15.998Z</time></trkpt><trkpt lat="43.41008925814499" lon="10.97782929428944"><ele>506.33333333333337</ele><time>2026-04-18T10:34:16.998Z</time></trkpt><trkpt lat="43.41000774413665" lon="10.977631062279434"><ele>504.0</ele><time>2026-04-18T10:34:17.998Z</time></trkpt><trkpt lat="43.40993234891762" lon="10.977433417002649"><ele>503.0</ele><time>2026-04-18T10:34:18.998Z</time></trkpt><trkpt lat="43.40985272083749" lon="10.977261755625696"><ele>502.0</ele><time>2026-04-18T10:34:19.998Z</time></trkpt><trkpt lat="43.40973772112598" lon="10.977124879146904"><ele>501.0</ele><time>2026-04-18T10:34:20.998Z</time></trkpt><trkpt lat="43.4095863439547" lon="10.977015076215357"><ele>501.0</ele><time>2026-04-18T10:34:21.998Z</time></trkpt><trkpt lat="43.40940734841247" lon="10.976943913857431"><ele>501.0</ele><time>2026-04-18T10:34:22.998Z</time></trkpt><trkpt lat="43.40922998734136" lon="10.976911392073125"><ele>501.0</ele><time>2026-04-18T10:34:23.998Z</time></trkpt><trkpt lat="43.40905845169295" lon="10.97692237236628"><ele>501.0</ele><time>2026-04-18T10:34:24.998Z</time></trkpt><trkpt lat="43.40890678115506" lon="10.976940393458099"><ele>501.0</ele><time>2026-04-18T10:34:25.998Z</time></trkpt><trkpt lat="43.40876604900081" lon="10.976930335174293"><ele>501.0</ele><time>2026-04-18T10:34:26.998Z</time></trkpt><trkpt lat="43.40863110035975" lon="10.976841067905516"><ele>501.0</ele><time>2026-04-18T10:34:27.998Z</time></trkpt><trkpt lat="43.408500929403495" lon="10.976700754846425"><ele>497.33333333333337</ele><time>2026-04-18T10:34:28.998Z</time></trkpt><trkpt lat="43.40838718697746" lon="10.97654418089518"><ele>493.6666666666667</ele><time>2026-04-18T10:34:29.998Z</time></trkpt><trkpt lat="43.40827704876978" lon="10.976396240304203"><ele>490.0</ele><time>2026-04-18T10:34:30.998Z</time></trkpt><trkpt lat="43.40815425388832" lon="10.976253664131253"><ele>490.0</ele><time>2026-04-18T10:34:31.998Z</time></trkpt><trkpt lat="43.408009372692" lon="10.976132294173329"><ele>490.0</ele><time>2026-04-18T10:34:32.998Z</time></trkpt><trkpt lat="43.407845716032575" lon="10.976029867316573"><ele>490.0</ele><time>2026-04-18T10:34:33.998Z</time></trkpt><trkpt lat="43.407680802087675" lon="10.975934648896544"><ele>487.33333333333337</ele><time>2026-04-18T10:34:34.998Z</time></trkpt><trkpt lat="43.40752355758418" lon="10.975838592286198"><ele>484.66666666666663</ele><time>2026-04-18T10:34:35.998Z</time></trkpt><trkpt lat="43.40737301860322" lon="10.975739685828774"><ele>482.0</ele><time>2026-04-18T10:34:36.998Z</time></trkpt><trkpt lat="43.407231909263324" lon="10.975649496550648"><ele>482.3333333333333</ele><time>2026-04-18T10:34:37.998Z</time></trkpt><trkpt lat="43.40707847852577" lon="10.9755449742181"><ele>482.66666666666663</ele><time>2026-04-18T10:34:38.998Z</time></trkpt><trkpt lat="43.40692358095516" lon="10.97543408163914"><ele>483.0</ele><time>2026-04-18T10:34:39.998Z</time></trkpt><trkpt lat="43.40675912801493" lon="10.97533148714432"><ele>483.0</ele><time>2026-04-18T10:34:40.998Z</time></trkpt><trkpt lat="43.40658289850075" lon="10.97522788682112"><ele>483.0</ele><time>2026-04-18T10:34:41.998Z</time></trkpt><trkpt lat="43.40640407059659" lon="10.975125459964364"><ele>483.0</ele><time>2026-04-18T10:34:42.998Z</time></trkpt><trkpt lat="43.406230481381904" lon="10.975013980652182"><ele>481.33333333333337</ele><time>2026-04-18T10:34:43.998Z</time></trkpt><trkpt lat="43.40607742782999" lon="10.974912056709616"><ele>479.6666666666667</ele><time>2026-04-18T10:34:44.998Z</time></trkpt><trkpt lat="43.4059310378911" lon="10.974800409759371"><ele>478.0</ele><time>2026-04-18T10:34:45.998Z</time></trkpt><trkpt lat="43.40578959327508" lon="10.974681554372399"><ele>478.0</ele><time>2026-04-18T10:34:46.998Z</time></trkpt><trkpt lat="43.405656195286106" lon="10.974564626823156"><ele>478.0</ele><time>2026-04-18T10:34:47.998Z</time></trkpt><trkpt lat="43.405530047643374" lon="10.97445826047191"><ele>478.0</ele><time>2026-04-18T10:34:48.998Z</time></trkpt><trkpt lat="43.405404277186285" lon="10.97437720746824"><ele>478.0</ele><time>2026-04-18T10:34:49.998Z</time></trkpt><trkpt lat="43.40527959637661" lon="10.97434937954971"><ele>478.5</ele><time>2026-04-18T10:34:50.998Z</time></trkpt><trkpt lat="43.40516426138897" lon="10.974372010688272"><ele>479.0</ele><time>2026-04-18T10:34:51.998Z</time></trkpt><trkpt lat="43.405053620267104" lon="10.974436383704631"><ele>479.5</ele><time>2026-04-18T10:34:52.998Z</time></trkpt><trkpt lat="43.404956180642735" lon="10.974511485557048"><ele>480.0</ele><time>2026-04-18T10:34:53.998Z</time></trkpt><trkpt lat="43.404862303327214" lon="10.974582647914975"><ele>480.0</ele><time>2026-04-18T10:34:54.998Z</time></trkpt><trkpt lat="43.40476821646411" lon="10.974638890485256"><ele>480.0</ele><time>2026-04-18T10:34:55.998Z</time></trkpt><trkpt lat="43.40466868136395" lon="10.974654983739345"><ele>480.0</ele><time>2026-04-18T10:34:56.998Z</time></trkpt><trkpt lat="43.404565542045425" lon="10.974651044244855"><ele>480.0</ele><time>2026-04-18T10:34:57.998Z</time></trkpt><trkpt lat="43.404466803226065" lon="10.974636962647526"><ele>480.0</ele><time>2026-04-18T10:34:58.998Z</time></trkpt><trkpt lat="43.40437653012891" lon="10.97461659462282"><ele>478.0</ele><time>2026-04-18T10:34:59.998Z</time></trkpt><trkpt lat="43.404286005574654" lon="10.974574014554708"><ele>476.0</ele><time>2026-04-18T10:35:00.998Z</time></trkpt><trkpt lat="43.404200803528916" lon="10.974511234099953"><ele>474.0</ele><time>2026-04-18T10:35:01.998Z</time></trkpt><trkpt lat="43.404126539866816" lon="10.97441140563318"><ele>472.0</ele><time>2026-04-18T10:35:02.998Z</time></trkpt><trkpt lat="43.404065729159306" lon="10.974294058988777"><ele>470.0</ele><time>2026-04-18T10:35:03.998Z</time></trkpt><trkpt lat="43.40401468336899" lon="10.974156679595795"><ele>468.75</ele><time>2026-04-18T10:35:04.998Z</time></trkpt><trkpt lat="43.403952741104554" lon="10.974012175585118"><ele>467.5</ele><time>2026-04-18T10:35:05.998Z</time></trkpt><trkpt lat="43.403879986185025" lon="10.973842358226863"><ele>466.25</ele><time>2026-04-18T10:35:06.998Z</time></trkpt><trkpt lat="43.40379696343411" lon="10.97365166992971"><ele>465.0</ele><time>2026-04-18T10:35:07.998Z</time></trkpt><trkpt lat="43.403705265413414" lon="10.973445223654595"><ele>464.66666666666663</ele><time>2026-04-18T10:35:08.998Z</time></trkpt><trkpt lat="43.403603970113586" lon="10.973227210353103"><ele>464.3333333333333</ele><time>2026-04-18T10:35:09.998Z</time></trkpt><trkpt lat="43.403507452498566" lon="10.972999138767806"><ele>464.0</ele><time>2026-04-18T10:35:10.998Z</time></trkpt><trkpt lat="43.40340536091794" lon="10.97276385874578"><ele>464.0</ele><time>2026-04-18T10:35:11.998Z</time></trkpt><trkpt lat="43.40329979084749" lon="10.972525477419582"><ele>464.0</ele><time>2026-04-18T10:35:12.998Z</time></trkpt><trkpt lat="43.40319883082379" lon="10.972288353378858"><ele>464.0</ele><time>2026-04-18T10:35:13.998Z</time></trkpt><trkpt lat="43.40308450166453" lon="10.972043769444312"><ele>462.3333333333333</ele><time>2026-04-18T10:35:14.998Z</time></trkpt><trkpt lat="43.402976794208776" lon="10.971802119175877"><ele>460.66666666666663</ele><time>2026-04-18T10:35:15.998Z</time></trkpt><trkpt lat="43.40285349641312" lon="10.971560552726473"><ele>459.0</ele><time>2026-04-18T10:35:16.998Z</time></trkpt><trkpt lat="43.402717290486585" lon="10.971314040954198"><ele>458.0</ele><time>2026-04-18T10:35:17.998Z</time></trkpt><trkpt lat="43.40257618114669" lon="10.97107130103835"><ele>457.0</ele><time>2026-04-18T10:35:18.998Z</time></trkpt><trkpt lat="43.4024358680876" lon="10.97082889639863"><ele>453.6666666666667</ele><time>2026-04-18T10:35:19.998Z</time></trkpt><trkpt lat="43.40230058417041" lon="10.970596969137873"><ele>450.33333333333337</ele><time>2026-04-18T10:35:20.998Z</time></trkpt><trkpt lat="43.402176112908315" lon="10.970373004685127"><ele>447.0</ele><time>2026-04-18T10:35:21.998Z</time></trkpt><trkpt lat="43.402060568373095" lon="10.970157757411682"><ele>446.66666666666663</ele><time>2026-04-18T10:35:22.998Z</time></trkpt><trkpt lat="43.40194619730432" lon="10.969934463511192"><ele>446.3333333333333</ele><time>2026-04-18T10:35:23.998Z</time></trkpt><trkpt lat="43.401838699396144" lon="10.969698764394009"><ele>446.0</ele><time>2026-04-18T10:35:24.998Z</time></trkpt><trkpt lat="43.4017349733444" lon="10.969444960365974"><ele>444.3333333333333</ele><time>2026-04-18T10:35:25.998Z</time></trkpt><trkpt lat="43.401637240353416" lon="10.969184702272498"><ele>442.66666666666663</ele><time>2026-04-18T10:35:26.998Z</time></trkpt><trkpt lat="43.401543195399825" lon="10.968910362581694"><ele>441.0</ele><time>2026-04-18T10:35:27.998Z</time></trkpt><trkpt lat="43.40144634250868" lon="10.96863862128087"><ele>437.5</ele><time>2026-04-18T10:35:28.998Z</time></trkpt><trkpt lat="43.40135053735543" lon="10.968355312953673"><ele>434.0</ele><time>2026-04-18T10:35:29.998Z</time></trkpt><trkpt lat="43.401249786879305" lon="10.968073345730982"><ele>433.0</ele><time>2026-04-18T10:35:30.998Z</time></trkpt><trkpt lat="43.40115268253106" lon="10.96778986976572"><ele>432.0</ele><time>2026-04-18T10:35:31.998Z</time></trkpt><trkpt lat="43.40105478190202" lon="10.967499353001795"><ele>431.0</ele><time>2026-04-18T10:35:32.998Z</time></trkpt><trkpt lat="43.40095918629635" lon="10.967208752418838"><ele>430.0</ele><time>2026-04-18T10:35:33.998Z</time></trkpt><trkpt lat="43.40086170476246" lon="10.966924270625196"><ele>428.5</ele><time>2026-04-18T10:35:34.998Z</time></trkpt><trkpt lat="43.40075751770604" lon="10.966651523495992"><ele>427.0</ele><time>2026-04-18T10:35:35.998Z</time></trkpt><trkpt lat="43.40064553547967" lon="10.966380536566456"><ele>427.0</ele><time>2026-04-18T10:35:36.998Z</time></trkpt><trkpt lat="43.40053166732508" lon="10.966123631234248"><ele>427.0</ele><time>2026-04-18T10:35:37.998Z</time></trkpt><trkpt lat="43.40041536841858" lon="10.965871252129753"><ele>427.0</ele><time>2026-04-18T10:35:38.998Z</time></trkpt><trkpt lat="43.40029303454179" lon="10.965611832226594"><ele>425.6666666666667</ele><time>2026-04-18T10:35:39.998Z</time></trkpt><trkpt lat="43.40016969483662" lon="10.965357692922433"><ele>424.33333333333337</ele><time>2026-04-18T10:35:40.998Z</time></trkpt><trkpt lat="43.40005624577719" lon="10.965109588588556"><ele>423.0</ele><time>2026-04-18T10:35:41.998Z</time></trkpt><trkpt lat="43.39993516918588" lon="10.964871710176547"><ele>421.66666666666663</ele><time>2026-04-18T10:35:42.998Z</time></trkpt><trkpt lat="43.39981434405166" lon="10.964645901705104"><ele>420.3333333333333</ele><time>2026-04-18T10:35:43.998Z</time></trkpt><trkpt lat="43.39968174234349" lon="10.96443358809777"><ele>419.0</ele><time>2026-04-18T10:35:44.998Z</time></trkpt><trkpt lat="43.39954972736854" lon="10.964236026640016"><ele>419.0</ele><time>2026-04-18T10:35:45.998Z</time></trkpt><trkpt lat="43.399408408481065" lon="10.9640261437846"><ele>419.0</ele><time>2026-04-18T10:35:46.998Z</time></trkpt><trkpt lat="43.39925933633316" lon="10.963812656710822"><ele>419.0</ele><time>2026-04-18T10:35:47.998Z</time></trkpt><trkpt lat="43.399108420166556" lon="10.963599588732201"><ele>419.0</ele><time>2026-04-18T10:35:48.998Z</time></trkpt><trkpt lat="43.398947361897115" lon="10.963392052809674"><ele>419.0</ele><time>2026-04-18T10:35:49.998Z</time></trkpt><trkpt lat="43.39878349569011" lon="10.963190803314525"><ele>419.0</ele><time>2026-04-18T10:35:50.998Z</time></trkpt><trkpt lat="43.39861334305573" lon="10.962971784184653"><ele>417.0</ele><time>2026-04-18T10:35:51.997Z</time></trkpt><trkpt lat="43.39843786791283" lon="10.96275083721705"><ele>415.0</ele><time>2026-04-18T10:35:52.997Z</time></trkpt><trkpt lat="43.39826348241735" lon="10.962536763410048"><ele>415.0</ele><time>2026-04-18T10:35:53.997Z</time></trkpt><trkpt lat="43.39808348104674" lon="10.962315062071161"><ele>415.0</ele><time>2026-04-18T10:35:54.997Z</time></trkpt><trkpt lat="43.3979007555576" lon="10.962092773999052"><ele>415.0</ele><time>2026-04-18T10:35:55.997Z</time></trkpt><trkpt lat="43.397716563235406" lon="10.961870737384038"><ele>415.0</ele><time>2026-04-18T10:35:56.997Z</time></trkpt><trkpt lat="43.397533753927235" lon="10.96163830720909"><ele>413.5</ele><time>2026-04-18T10:35:57.997Z</time></trkpt><trkpt lat="43.39735019024778" lon="10.96141350456603"><ele>412.0</ele><time>2026-04-18T10:35:58.997Z</time></trkpt><trkpt lat="43.39716184888351" lon="10.961187193180399"><ele>409.5</ele><time>2026-04-18T10:35:59.997Z</time></trkpt><trkpt lat="43.39697514199037" lon="10.960952164615467"><ele>407.0</ele><time>2026-04-18T10:36:00.997Z</time></trkpt><trkpt lat="43.39678885419238" lon="10.960720069716647"><ele>407.0</ele><time>2026-04-18T10:36:01.997Z</time></trkpt><trkpt lat="43.39660114147085" lon="10.960480012009814"><ele>407.0</ele><time>2026-04-18T10:36:02.997Z</time></trkpt><trkpt lat="43.39642482813764" lon="10.960239786664918"><ele>407.5</ele><time>2026-04-18T10:36:03.997Z</time></trkpt><trkpt lat="43.396259159821454" lon="10.959998387853577"><ele>408.0</ele><time>2026-04-18T10:36:04.997Z</time></trkpt><trkpt lat="43.39611230887789" lon="10.959744835282638"><ele>408.0</ele><time>2026-04-18T10:36:05.997Z</time></trkpt><trkpt lat="43.395980629179064" lon="10.959479799504354"><ele>408.0</ele><time>2026-04-18T10:36:06.997Z</time></trkpt><trkpt lat="43.39585917540211" lon="10.959203196699693"><ele>407.5</ele><time>2026-04-18T10:36:07.997Z</time></trkpt><trkpt lat="43.39574036192465" lon="10.958915697420908"><ele>407.0</ele><time>2026-04-18T10:36:08.997Z</time></trkpt><trkpt lat="43.395625697489265" lon="10.958612272526098"><ele>406.5</ele><time>2026-04-18T10:36:09.997Z</time></trkpt><trkpt lat="43.39551312852967" lon="10.958308512355162"><ele>406.0</ele><time>2026-04-18T10:36:10.997Z</time></trkpt><trkpt lat="43.395402319769744" lon="10.957989161844326"><ele>414.0</ele><time>2026-04-18T10:36:11.997Z</time></trkpt><trkpt lat="43.39528803252" lon="10.957667715857697"><ele>422.0</ele><time>2026-04-18T10:36:12.997Z</time></trkpt><trkpt lat="43.3951741224559" lon="10.957334702844692"><ele>422.0</ele><time>2026-04-18T10:36:13.997Z</time></trkpt><trkpt lat="43.39505887128729" lon="10.956998337070416"><ele>422.0</ele><time>2026-04-18T10:36:14.997Z</time></trkpt><trkpt lat="43.39493888434339" lon="10.95667060465641"><ele>422.0</ele><time>2026-04-18T10:36:15.997Z</time></trkpt><trkpt lat="43.3948183944853" lon="10.956362402076792"><ele>422.0</ele><time>2026-04-18T10:36:16.997Z</time></trkpt><trkpt lat="43.39468616996277" lon="10.956075657169293"><ele>425.5</ele><time>2026-04-18T10:36:17.997Z</time></trkpt><trkpt lat="43.39454397097546" lon="10.955812213952612"><ele>429.0</ele><time>2026-04-18T10:36:18.997Z</time></trkpt><trkpt lat="43.39438282888699" lon="10.955567965294193"><ele>429.0</ele><time>2026-04-18T10:36:19.997Z</time></trkpt><trkpt lat="43.394216741475645" lon="10.955329500148963"><ele>429.0</ele><time>2026-04-18T10:36:20.997Z</time></trkpt><trkpt lat="43.3940247539835" lon="10.955137638385365"><ele>430.5</ele><time>2026-04-18T10:36:21.997Z</time></trkpt><trkpt lat="43.39381432630437" lon="10.954957678924272"><ele>432.0</ele><time>2026-04-18T10:36:22.997Z</time></trkpt><trkpt lat="43.393592415417906" lon="10.95479875804014"><ele>432.0</ele><time>2026-04-18T10:36:23.997Z</time></trkpt><trkpt lat="43.39336371518987" lon="10.954649141068527"><ele>432.0</ele><time>2026-04-18T10:36:24.997Z</time></trkpt><trkpt lat="43.393138241994556" lon="10.954501116658518"><ele>435.0</ele><time>2026-04-18T10:36:25.997Z</time></trkpt><trkpt lat="43.39290530890542" lon="10.954362982894251"><ele>438.0</ele><time>2026-04-18T10:36:26.997Z</time></trkpt><trkpt lat="43.392681847366866" lon="10.954224430034825"><ele>431.5</ele><time>2026-04-18T10:36:27.997Z</time></trkpt><trkpt lat="43.39245335668641" lon="10.954084200794766"><ele>425.0</ele><time>2026-04-18T10:36:28.997Z</time></trkpt><trkpt lat="43.3922337089138" lon="10.953933661813805"><ele>428.0</ele><time>2026-04-18T10:36:29.997Z</time></trkpt><trkpt lat="43.39201766535955" lon="10.9537750762058"><ele>431.0</ele><time>2026-04-18T10:36:30.997Z</time></trkpt><trkpt lat="43.39180950079429" lon="10.953604336838195"><ele>431.0</ele><time>2026-04-18T10:36:31.997Z</time></trkpt><trkpt lat="43.39160766456592" lon="10.95342814923353"><ele>431.0</ele><time>2026-04-18T10:36:32.997Z</time></trkpt><trkpt lat="43.39141932320165" lon="10.953251542533703"><ele>428.0</ele><time>2026-04-18T10:36:33.997Z</time></trkpt><trkpt lat="43.391231610480126" lon="10.953060770417519"><ele>425.0</ele><time>2026-04-18T10:36:34.997Z</time></trkpt><trkpt lat="43.39106183503139" lon="10.952872093777128"><ele>425.0</ele><time>2026-04-18T10:36:35.997Z</time></trkpt><trkpt lat="43.39089071847814" lon="10.95266212710268"><ele>425.0</ele><time>2026-04-18T10:36:36.997Z</time></trkpt><trkpt lat="43.39072618171888" lon="10.952459452683993"><ele>423.3333333333333</ele><time>2026-04-18T10:36:37.997Z</time></trkpt><trkpt lat="43.390560429583665" lon="10.952247139076658"><ele>421.66666666666663</ele><time>2026-04-18T10:36:38.997Z</time></trkpt><trkpt lat="43.39039870076197" lon="10.952042704458304"><ele>420.0</ele><time>2026-04-18T10:36:39.997Z</time></trkpt><trkpt lat="43.39023952842074" lon="10.951830139393874"><ele>418.66666666666663</ele><time>2026-04-18T10:36:40.997Z</time></trkpt><trkpt lat="43.39007909879404" lon="10.951619418348141"><ele>417.3333333333333</ele><time>2026-04-18T10:36:41.997Z</time></trkpt><trkpt lat="43.38991933971959" lon="10.951406601826614"><ele>416.0</ele><time>2026-04-18T10:36:42.997Z</time></trkpt><trkpt lat="43.38977873329389" lon="10.951154390360182"><ele>417.0</ele><time>2026-04-18T10:36:43.997Z</time></trkpt><trkpt lat="43.38964110244381" lon="10.950902262712782"><ele>418.0</ele><time>2026-04-18T10:36:44.997Z</time></trkpt><trkpt lat="43.38950753681677" lon="10.950646027932828"><ele>418.0</ele><time>2026-04-18T10:36:45.997Z</time></trkpt><trkpt lat="43.38937979661244" lon="10.9503695089472"><ele>418.0</ele><time>2026-04-18T10:36:46.997Z</time></trkpt><trkpt lat="43.389257714192745" lon="10.950075471783942"><ele>413.5</ele><time>2026-04-18T10:36:47.997Z</time></trkpt><trkpt lat="43.389155622612115" lon="10.949764922271436"><ele>409.0</ele><time>2026-04-18T10:36:48.997Z</time></trkpt><trkpt lat="43.38906371504384" lon="10.949453534568612"><ele>406.5</ele><time>2026-04-18T10:36:49.997Z</time></trkpt><trkpt lat="43.388979686464545" lon="10.949135441343252"><ele>404.0</ele><time>2026-04-18T10:36:50.997Z</time></trkpt><trkpt lat="43.388906931545016" lon="10.94881039113826"><ele>399.5</ele><time>2026-04-18T10:36:51.997Z</time></trkpt><trkpt lat="43.38883312888759" lon="10.948485340933267"><ele>395.0</ele><time>2026-04-18T10:36:52.997Z</time></trkpt><trkpt lat="43.3887617988916" lon="10.948145957673852"><ele>394.5</ele><time>2026-04-18T10:36:53.997Z</time></trkpt><trkpt lat="43.388685355934676" lon="10.947823086763684"><ele>394.0</ele><time>2026-04-18T10:36:54.997Z</time></trkpt><trkpt lat="43.3886114275487" lon="10.947511531422796"><ele>395.33333333333337</ele><time>2026-04-18T10:36:55.997Z</time></trkpt><trkpt lat="43.38854445614236" lon="10.947220260287585"><ele>396.66666666666663</ele><time>2026-04-18T10:36:56.997Z</time></trkpt><trkpt lat="43.38848431598711" lon="10.946958912546696"><ele>398.0</ele><time>2026-04-18T10:36:57.997Z</time></trkpt><trkpt lat="43.388429791706976" lon="10.946725811819496"><ele>397.75</ele><time>2026-04-18T10:36:58.997Z</time></trkpt><trkpt lat="43.38838737927693" lon="10.946523975591125"><ele>397.5</ele><time>2026-04-18T10:36:59.997Z</time></trkpt><trkpt lat="43.38835095990765" lon="10.94635566697544"><ele>397.25</ele><time>2026-04-18T10:37:00.997Z</time></trkpt><trkpt lat="43.38832271289396" lon="10.946220215420189"><ele>397.0</ele><time>2026-04-18T10:37:01.997Z</time></trkpt><trkpt lat="43.38829224467593" lon="10.946099432195487"><ele>397.0</ele><time>2026-04-18T10:37:02.997Z</time></trkpt><trkpt lat="43.38827242147493" lon="10.946009326736393"><ele>397.0</ele><time>2026-04-18T10:37:03.997Z</time></trkpt><trkpt lat="43.38825310118812" lon="10.945920646200838"><ele>397.0</ele><time>2026-04-18T10:37:05.997Z</time></trkpt><trkpt lat="43.388231643516" lon="10.945835905159774"><ele>397.0</ele><time>2026-04-18T10:37:09.997Z</time></trkpt><trkpt lat="43.388197696808156" lon="10.945743117491663"><ele>397.0</ele><time>2026-04-18T10:37:14.997Z</time></trkpt><trkpt lat="43.38817812506425" lon="10.945657286803186"><ele>397.0</ele><time>2026-04-18T10:37:17.997Z</time></trkpt><trkpt lat="43.388156625482615" lon="10.94555879944092"><ele>397.0</ele><time>2026-04-18T10:37:20.997Z</time></trkpt><trkpt lat="43.38814392689931" lon="10.945473890761793"><ele>396.33333333333337</ele><time>2026-04-18T10:37:23.997Z</time></trkpt><trkpt lat="43.388134664896306" lon="10.945386551330746"><ele>395.6666666666667</ele><time>2026-04-18T10:37:28.997Z</time></trkpt><trkpt lat="43.3881055796923" lon="10.945256380374492"><ele>395.0</ele><time>2026-04-18T10:37:53.996Z</time></trkpt><trkpt lat="43.388067190575775" lon="10.945104919384182"><ele>394.33333333333337</ele><time>2026-04-18T10:37:55.996Z</time></trkpt><trkpt lat="43.38804460134673" lon="10.945009198049963"><ele>393.6666666666667</ele><time>2026-04-18T10:37:56.996Z</time></trkpt><trkpt lat="43.3880262868883" lon="10.94490258024162"><ele>393.0</ele><time>2026-04-18T10:37:57.996Z</time></trkpt><trkpt lat="43.38800005153137" lon="10.944775678227604"><ele>390.2</ele><time>2026-04-18T10:37:58.996Z</time></trkpt><trkpt lat="43.38797469627428" lon="10.944657158116758"><ele>387.4</ele><time>2026-04-18T10:37:59.996Z</time></trkpt><trkpt lat="43.38794716172236" lon="10.944524221132458"><ele>384.59999999999997</ele><time>2026-04-18T10:38:00.996Z</time></trkpt><trkpt lat="43.387912293005165" lon="10.944382315511763"><ele>381.79999999999995</ele><time>2026-04-18T10:38:01.996Z</time></trkpt><trkpt lat="43.38787721474039" lon="10.944241331900418"><ele>379.0</ele><time>2026-04-18T10:38:02.996Z</time></trkpt><trkpt lat="43.38784213647562" lon="10.944088697443664"><ele>379.0</ele><time>2026-04-18T10:38:03.996Z</time></trkpt><trkpt lat="43.387806555296656" lon="10.943940840671718"><ele>379.0</ele><time>2026-04-18T10:38:04.996Z</time></trkpt><trkpt lat="43.38777818255442" lon="10.943798096860705"><ele>379.0</ele><time>2026-04-18T10:38:05.996Z</time></trkpt><trkpt lat="43.387745241674956" lon="10.943660298372565"><ele>379.0</ele><time>2026-04-18T10:38:06.996Z</time></trkpt><trkpt lat="43.38771129496711" lon="10.94350808301097"><ele>379.0</ele><time>2026-04-18T10:38:07.996Z</time></trkpt><trkpt lat="43.38767692916411" lon="10.943369530151545"><ele>379.2</ele><time>2026-04-18T10:38:08.996Z</time></trkpt><trkpt lat="43.387640635523375" lon="10.94322519377893"><ele>379.4</ele><time>2026-04-18T10:38:09.996Z</time></trkpt><trkpt lat="43.3876013243975" lon="10.943091921518503"><ele>379.6</ele><time>2026-04-18T10:38:10.996Z</time></trkpt><trkpt lat="43.38755782232004" lon="10.942966109151898"><ele>379.8</ele><time>2026-04-18T10:38:11.996Z</time></trkpt><trkpt lat="43.387524504254934" lon="10.942853037278114"><ele>380.0</ele><time>2026-04-18T10:38:12.996Z</time></trkpt><trkpt lat="43.38747597303557" lon="10.942721022303163"><ele>380.0</ele><time>2026-04-18T10:38:13.996Z</time></trkpt><trkpt lat="43.38742966302055" lon="10.942597892145573"><ele>380.0</ele><time>2026-04-18T10:38:14.996Z</time></trkpt><trkpt lat="43.387389429885324" lon="10.94247023576027"><ele>380.0</ele><time>2026-04-18T10:38:15.996Z</time></trkpt><trkpt lat="43.38733683344292" lon="10.942333024005352"><ele>380.0</ele><time>2026-04-18T10:38:16.996Z</time></trkpt><trkpt lat="43.38728142906296" lon="10.942190950746594"><ele>380.0</ele><time>2026-04-18T10:38:17.996Z</time></trkpt><trkpt lat="43.38721789423692" lon="10.942052230249105"><ele>377.75</ele><time>2026-04-18T10:38:18.996Z</time></trkpt><trkpt lat="43.38714572605061" lon="10.941906049857792"><ele>375.5</ele><time>2026-04-18T10:38:19.996Z</time></trkpt><trkpt lat="43.38705905717182" lon="10.941746709878501"><ele>373.25</ele><time>2026-04-18T10:38:20.996Z</time></trkpt><trkpt lat="43.386961952823576" lon="10.941559709618744"><ele>371.0</ele><time>2026-04-18T10:38:21.996Z</time></trkpt><trkpt lat="43.38687117681223" lon="10.941372290263828"><ele>371.0</ele><time>2026-04-18T10:38:22.996Z</time></trkpt><trkpt lat="43.38678081989604" lon="10.94117933885282"><ele>371.0</ele><time>2026-04-18T10:38:23.996Z</time></trkpt><trkpt lat="43.3866871521281" lon="10.940992338593063"><ele>371.0</ele><time>2026-04-18T10:38:24.996Z</time></trkpt><trkpt lat="43.386592981445965" lon="10.940805925066527"><ele>368.6666666666667</ele><time>2026-04-18T10:38:25.996Z</time></trkpt><trkpt lat="43.38649306916016" lon="10.94061599114066"><ele>366.3333333333333</ele><time>2026-04-18T10:38:26.996Z</time></trkpt><trkpt lat="43.386392234865006" lon="10.940406443561372"><ele>364.0</ele><time>2026-04-18T10:38:27.996Z</time></trkpt><trkpt lat="43.38628741916584" lon="10.94020745718008"><ele>366.3333333333333</ele><time>2026-04-18T10:38:28.996Z</time></trkpt><trkpt lat="43.38617179081159" lon="10.939997993419821"><ele>368.6666666666667</ele><time>2026-04-18T10:38:29.996Z</time></trkpt><trkpt lat="43.386056162457336" lon="10.93979515136307"><ele>371.0</ele><time>2026-04-18T10:38:30.996Z</time></trkpt><trkpt lat="43.385928086976875" lon="10.93959381804889"><ele>371.0</ele><time>2026-04-18T10:38:31.996Z</time></trkpt><trkpt lat="43.38579691019224" lon="10.939398184428866"><ele>371.0</ele><time>2026-04-18T10:38:32.996Z</time></trkpt><trkpt lat="43.38565483693348" lon="10.939213363463933"><ele>371.0</ele><time>2026-04-18T10:38:33.996Z</time></trkpt><trkpt lat="43.38550597433316" lon="10.939011024321372"><ele>370.0</ele><time>2026-04-18T10:38:34.996Z</time></trkpt><trkpt lat="43.38535572871881" lon="10.93883357943123"><ele>369.0</ele><time>2026-04-18T10:38:35.996Z</time></trkpt><trkpt lat="43.38520938068943" lon="10.938657224188502"><ele>368.0</ele><time>2026-04-18T10:38:36.996Z</time></trkpt><trkpt lat="43.3850565366851" lon="10.938474666337425"><ele>365.6666666666667</ele><time>2026-04-18T10:38:37.996Z</time></trkpt><trkpt lat="43.38489908263402" lon="10.938292359943445"><ele>363.3333333333333</ele><time>2026-04-18T10:38:38.996Z</time></trkpt><trkpt lat="43.384745651896466" lon="10.93811483123427"><ele>361.0</ele><time>2026-04-18T10:38:39.996Z</time></trkpt><trkpt lat="43.38459171824472" lon="10.93793747016316"><ele>361.0</ele><time>2026-04-18T10:38:40.996Z</time></trkpt><trkpt lat="43.38445169855224" lon="10.937764216224604"><ele>361.0</ele><time>2026-04-18T10:38:41.996Z</time></trkpt><trkpt lat="43.38430866137462" lon="10.937598673636966"><ele>361.0</ele><time>2026-04-18T10:38:42.996Z</time></trkpt><trkpt lat="43.38416172661202" lon="10.937425252060347"><ele>359.0</ele><time>2026-04-18T10:38:43.996Z</time></trkpt><trkpt lat="43.384017222601344" lon="10.937256440530472"><ele>357.0</ele><time>2026-04-18T10:38:44.996Z</time></trkpt><trkpt lat="43.3838796755703" lon="10.937092574323469"><ele>355.0</ele><time>2026-04-18T10:38:45.996Z</time></trkpt><trkpt lat="43.38374053597765" lon="10.936922756965213"><ele>352.3333333333333</ele><time>2026-04-18T10:38:46.996Z</time></trkpt><trkpt lat="43.383601983118226" lon="10.936754364530497"><ele>349.6666666666667</ele><time>2026-04-18T10:38:47.996Z</time></trkpt><trkpt lat="43.383471057790686" lon="10.936584882448368"><ele>347.0</ele><time>2026-04-18T10:38:48.996Z</time></trkpt><trkpt lat="43.383342982310225" lon="10.936396960179263"><ele>346.33333333333337</ele><time>2026-04-18T10:38:49.996Z</time></trkpt><trkpt lat="43.383225007023086" lon="10.936191938827685"><ele>345.6666666666667</ele><time>2026-04-18T10:38:50.996Z</time></trkpt><trkpt lat="43.38312128097134" lon="10.93597325497394"><ele>345.0</ele><time>2026-04-18T10:38:51.996Z</time></trkpt><trkpt lat="43.38302057240473" lon="10.935729509229711"><ele>344.3333333333333</ele><time>2026-04-18T10:38:52.996Z</time></trkpt><trkpt lat="43.382933819706906" lon="10.93547293917363"><ele>343.66666666666663</ele><time>2026-04-18T10:38:53.996Z</time></trkpt><trkpt lat="43.38285884358304" lon="10.935217039669803"><ele>343.0</ele><time>2026-04-18T10:38:54.996Z</time></trkpt><trkpt lat="43.382804025936295" lon="10.934959966699532"><ele>343.0</ele><time>2026-04-18T10:38:55.996Z</time></trkpt><trkpt lat="43.38276743892895" lon="10.934700127701214"><ele>343.0</ele><time>2026-04-18T10:38:56.996Z</time></trkpt><trkpt lat="43.38273617443012" lon="10.93445462175732"><ele>343.0</ele><time>2026-04-18T10:38:57.996Z</time></trkpt><trkpt lat="43.38270394601243" lon="10.934221353392054"><ele>343.3333333333333</ele><time>2026-04-18T10:38:58.996Z</time></trkpt><trkpt lat="43.38265386414098" lon="10.934001496071865"><ele>343.6666666666667</ele><time>2026-04-18T10:38:59.996Z</time></trkpt><trkpt lat="43.382594101171364" lon="10.9337769448859"><ele>344.0</ele><time>2026-04-18T10:39:00.996Z</time></trkpt><trkpt lat="43.38252172343748" lon="10.933558177213122"><ele>343.33333333333337</ele><time>2026-04-18T10:39:01.996Z</time></trkpt><trkpt lat="43.38244846560376" lon="10.933341505016138"><ele>342.6666666666667</ele><time>2026-04-18T10:39:02.996Z</time></trkpt><trkpt lat="43.38236812506186" lon="10.933132376532008"><ele>342.0</ele><time>2026-04-18T10:39:03.996Z</time></trkpt><trkpt lat="43.382292981299926" lon="10.932915369058897"><ele>342.0</ele><time>2026-04-18T10:39:04.996Z</time></trkpt><trkpt lat="43.38222131602781" lon="10.93270640821283"><ele>342.0</ele><time>2026-04-18T10:39:05.996Z</time></trkpt><trkpt lat="43.382150740403105" lon="10.932479426274945"><ele>342.0</ele><time>2026-04-18T10:39:06.996Z</time></trkpt><trkpt lat="43.38210099380778" lon="10.932241128767776"><ele>341.3333333333333</ele><time>2026-04-18T10:39:07.995Z</time></trkpt><trkpt lat="43.38206851393299" lon="10.93200383708899"><ele>340.66666666666663</ele><time>2026-04-18T10:39:08.995Z</time></trkpt><trkpt lat="43.38204705626087" lon="10.931770652542758"><ele>340.0</ele><time>2026-04-18T10:39:09.995Z</time></trkpt><trkpt lat="43.38206310760545" lon="10.931538473824906"><ele>340.0</ele><time>2026-04-18T10:39:10.995Z</time></trkpt><trkpt lat="43.38211327329593" lon="10.931306378926086"><ele>340.0</ele><time>2026-04-18T10:39:11.995Z</time></trkpt><trkpt lat="43.38218430992531" lon="10.93109356240456"><ele>340.0</ele><time>2026-04-18T10:39:12.995Z</time></trkpt><trkpt lat="43.38227370292263" lon="10.93089566567068"><ele>341.66666666666663</ele><time>2026-04-18T10:39:13.995Z</time></trkpt><trkpt lat="43.38236900516169" lon="10.930701792250323"><ele>343.3333333333333</ele><time>2026-04-18T10:39:14.995Z</time></trkpt><trkpt lat="43.38246749252396" lon="10.930509427572536"><ele>345.0</ele><time>2026-04-18T10:39:15.995Z</time></trkpt><trkpt lat="43.38255596351193" lon="10.930304657678054"><ele>345.0</ele><time>2026-04-18T10:39:16.995Z</time></trkpt><trkpt lat="43.38263073008822" lon="10.930090751509116"><ele>345.0</ele><time>2026-04-18T10:39:17.995Z</time></trkpt><trkpt lat="43.3826861763777" lon="10.929851280535505"><ele>345.0</ele><time>2026-04-18T10:39:18.995Z</time></trkpt><trkpt lat="43.38271379474865" lon="10.929599823440359"><ele>347.6666666666667</ele><time>2026-04-18T10:39:19.995Z</time></trkpt><trkpt lat="43.382715303491224" lon="10.929350964735196"><ele>350.33333333333337</ele><time>2026-04-18T10:39:20.995Z</time></trkpt><trkpt lat="43.38271228600608" lon="10.929104788239048"><ele>353.0</ele><time>2026-04-18T10:39:21.995Z</time></trkpt><trkpt lat="43.38270444892662" lon="10.928878225396321"><ele>355.5</ele><time>2026-04-18T10:39:22.995Z</time></trkpt><trkpt lat="43.38269774340408" lon="10.928676975901173"><ele>358.0</ele><time>2026-04-18T10:39:23.995Z</time></trkpt><trkpt lat="43.38268688883947" lon="10.928482683385655"><ele>360.5</ele><time>2026-04-18T10:39:24.995Z</time></trkpt><trkpt lat="43.38266295850592" lon="10.928291156898185"><ele>363.0</ele><time>2026-04-18T10:39:25.995Z</time></trkpt><trkpt lat="43.38262046225684" lon="10.928118070597693"><ele>363.0</ele><time>2026-04-18T10:39:26.995Z</time></trkpt><trkpt lat="43.38255981918739" lon="10.92794297264044"><ele>363.0</ele><time>2026-04-18T10:39:27.995Z</time></trkpt><trkpt lat="43.382490081753005" lon="10.927768712873503"><ele>363.0</ele><time>2026-04-18T10:39:28.995Z</time></trkpt><trkpt lat="43.38241992522346" lon="10.927584646279856"><ele>363.0</ele><time>2026-04-18T10:39:29.995Z</time></trkpt><trkpt lat="43.382367244962026" lon="10.927386833365007"><ele>363.0</ele><time>2026-04-18T10:39:30.995Z</time></trkpt><trkpt lat="43.38233422026353" lon="10.927179716537639"><ele>363.0</ele><time>2026-04-18T10:39:31.995Z</time></trkpt><trkpt lat="43.38231812700944" lon="10.92695793137972"><ele>363.0</ele><time>2026-04-18T10:39:32.995Z</time></trkpt><trkpt lat="43.38232986167388" lon="10.92674050481145"><ele>362.0</ele><time>2026-04-18T10:39:33.995Z</time></trkpt><trkpt lat="43.38236418556737" lon="10.926510505388421"><ele>361.0</ele><time>2026-04-18T10:39:34.995Z</time></trkpt><trkpt lat="43.38241518944817" lon="10.926318140710634"><ele>360.0</ele><time>2026-04-18T10:39:35.995Z</time></trkpt><trkpt lat="43.38248040065484" lon="10.926138767982764"><ele>360.0</ele><time>2026-04-18T10:39:36.995Z</time></trkpt><trkpt lat="43.382560196373035" lon="10.925981188203139"><ele>360.0</ele><time>2026-04-18T10:39:37.995Z</time></trkpt><trkpt lat="43.38264799680876" lon="10.925821429128689"><ele>360.0</ele><time>2026-04-18T10:39:38.995Z</time></trkpt><trkpt lat="43.38272519413697" lon="10.925652701417846"><ele>360.0</ele><time>2026-04-18T10:39:39.995Z</time></trkpt><trkpt lat="43.38278562765883" lon="10.925453882674617"><ele>361.0</ele><time>2026-04-18T10:39:40.995Z</time></trkpt><trkpt lat="43.382840151938964" lon="10.925242323438567"><ele>362.0</ele><time>2026-04-18T10:39:41.995Z</time></trkpt><trkpt lat="43.382885372306575" lon="10.925018610442919"><ele>363.0</ele><time>2026-04-18T10:39:42.995Z</time></trkpt><trkpt lat="43.3829314308645" lon="10.924771260480325"><ele>363.0</ele><time>2026-04-18T10:39:43.995Z</time></trkpt><trkpt lat="43.38298029735999" lon="10.924541009600203"><ele>363.0</ele><time>2026-04-18T10:39:44.995Z</time></trkpt><trkpt lat="43.383035115006734" lon="10.924320900822918"><ele>363.0</ele><time>2026-04-18T10:39:45.995Z</time></trkpt><trkpt lat="43.38309181858169" lon="10.92411135324363"><ele>358.6666666666667</ele><time>2026-04-18T10:39:46.995Z</time></trkpt><trkpt lat="43.3831708599286" lon="10.92390708626334"><ele>354.33333333333337</ele><time>2026-04-18T10:39:47.995Z</time></trkpt><trkpt lat="43.38327106558101" lon="10.923707345510762"><ele>350.0</ele><time>2026-04-18T10:39:48.995Z</time></trkpt><trkpt lat="43.383396291214396" lon="10.923530068258684"><ele>351.0</ele><time>2026-04-18T10:39:49.995Z</time></trkpt><trkpt lat="43.383542094420065" lon="10.923380535106103"><ele>352.0</ele><time>2026-04-18T10:39:50.995Z</time></trkpt><trkpt lat="43.383697914000024" lon="10.923243742446344"><ele>353.0</ele><time>2026-04-18T10:39:51.995Z</time></trkpt><trkpt lat="43.38385398503708" lon="10.923103429387252"><ele>353.0</ele><time>2026-04-18T10:39:52.995Z</time></trkpt><trkpt lat="43.38401583958732" lon="10.922981305058043"><ele>353.0</ele><time>2026-04-18T10:39:53.995Z</time></trkpt><trkpt lat="43.38418167554157" lon="10.922856247062722"><ele>353.0</ele><time>2026-04-18T10:39:54.995Z</time></trkpt><trkpt lat="43.384349355514516" lon="10.922723477716485"><ele>353.0</ele><time>2026-04-18T10:39:55.995Z</time></trkpt><trkpt lat="43.38450555228012" lon="10.922578386972585"><ele>353.0</ele><time>2026-04-18T10:39:56.995Z</time></trkpt><trkpt lat="43.38464393750148" lon="10.922412090013662"><ele>353.0</ele><time>2026-04-18T10:39:57.995Z</time></trkpt><trkpt lat="43.3847758686574" lon="10.922252330939212"><ele>351.6666666666667</ele><time>2026-04-18T10:39:58.995Z</time></trkpt><trkpt lat="43.38491890583502" lon="10.922087794179955"><ele>350.3333333333333</ele><time>2026-04-18T10:39:59.995Z</time></trkpt><trkpt lat="43.3850642061265" lon="10.921917641545573"><ele>349.0</ele><time>2026-04-18T10:40:00.995Z</time></trkpt><trkpt lat="43.38520301044302" lon="10.921757631014028"><ele>349.3333333333333</ele><time>2026-04-18T10:40:01.995Z</time></trkpt><trkpt lat="43.38532940954285" lon="10.921607762585321"><ele>349.6666666666667</ele><time>2026-04-18T10:40:02.995Z</time></trkpt><trkpt lat="43.38544210423099" lon="10.921457055966297"><ele>350.0</ele><time>2026-04-18T10:40:03.995Z</time></trkpt><trkpt lat="43.385530659038" lon="10.921282963837424"><ele>349.33333333333337</ele><time>2026-04-18T10:40:04.995Z</time></trkpt><trkpt lat="43.38558493186103" lon="10.921085905293861"><ele>348.6666666666667</ele><time>2026-04-18T10:40:05.995Z</time></trkpt><trkpt lat="43.38563099041896" lon="10.920869903649129"><ele>348.0</ele><time>2026-04-18T10:40:06.995Z</time></trkpt><trkpt lat="43.38566912807839" lon="10.920642502616085"><ele>350.6666666666667</ele><time>2026-04-18T10:40:07.995Z</time></trkpt><trkpt lat="43.3857066790046" lon="10.920414682487882"><ele>353.33333333333337</ele><time>2026-04-18T10:40:08.995Z</time></trkpt><trkpt lat="43.38572662793415" lon="10.920184766883887"><ele>356.0</ele><time>2026-04-18T10:40:09.995Z</time></trkpt><trkpt lat="43.385717952664365" lon="10.91996842996303"><ele>358.0</ele><time>2026-04-18T10:40:10.995Z</time></trkpt><trkpt lat="43.38569314223098" lon="10.91976131313566"><ele>360.0</ele><time>2026-04-18T10:40:11.995Z</time></trkpt><trkpt lat="43.385666948783566" lon="10.919585125530995"><ele>362.0</ele><time>2026-04-18T10:40:12.995Z</time></trkpt><trkpt lat="43.385667661245336" lon="10.919427210475243"><ele>364.0</ele><time>2026-04-18T10:40:13.995Z</time></trkpt><trkpt lat="43.38570940312313" lon="10.919297123338021"><ele>364.0</ele><time>2026-04-18T10:40:14.995Z</time></trkpt><trkpt lat="43.38578668427037" lon="10.919227972636856"><ele>364.0</ele><time>2026-04-18T10:40:15.995Z</time></trkpt><trkpt lat="43.38587310169207" lon="10.919215148325003"><ele>364.0</ele><time>2026-04-18T10:40:16.995Z</time></trkpt><trkpt lat="43.38596760765033" lon="10.91926577502016"><ele>364.0</ele><time>2026-04-18T10:40:17.995Z</time></trkpt><trkpt lat="43.386054863262345" lon="10.919364932934679"><ele>364.0</ele><time>2026-04-18T10:40:18.995Z</time></trkpt><trkpt lat="43.38614362761693" lon="10.919480938474573"><ele>364.0</ele><time>2026-04-18T10:40:19.995Z</time></trkpt><trkpt lat="43.38625079024898" lon="10.919606667022146"><ele>364.0</ele><time>2026-04-18T10:40:20.995Z</time></trkpt><trkpt lat="43.386378278996226" lon="10.91971043498341"><ele>364.0</ele><time>2026-04-18T10:40:21.995Z</time></trkpt><trkpt lat="43.386536613147136" lon="10.919797355319298"><ele>366.66666666666663</ele><time>2026-04-18T10:40:22.995Z</time></trkpt><trkpt lat="43.386714393313405" lon="10.91985653155569"><ele>369.3333333333333</ele><time>2026-04-18T10:40:23.995Z</time></trkpt><trkpt lat="43.38690818291473" lon="10.919885281483568"><ele>372.0</ele><time>2026-04-18T10:40:24.995Z</time></trkpt><trkpt lat="43.387094596441266" lon="10.919863656173385"><ele>373.3333333333333</ele><time>2026-04-18T10:40:25.995Z</time></trkpt><trkpt lat="43.38727329861688" lon="10.919799031699933"><ele>374.66666666666663</ele><time>2026-04-18T10:40:26.995Z</time></trkpt><trkpt lat="43.387438799295005" lon="10.919713787744678"><ele>376.0</ele><time>2026-04-18T10:40:27.995Z</time></trkpt><trkpt lat="43.387589757371124" lon="10.919630387808121"><ele>376.0</ele><time>2026-04-18T10:40:28.995Z</time></trkpt><trkpt lat="43.3877075650202" lon="10.919533325369395"><ele>376.0</ele><time>2026-04-18T10:40:29.995Z</time></trkpt><trkpt lat="43.387784091796156" lon="10.919407932097949"><ele>376.0</ele><time>2026-04-18T10:40:30.995Z</time></trkpt><trkpt lat="43.38781795468497" lon="10.919253956536688"><ele>376.0</ele><time>2026-04-18T10:40:31.995Z</time></trkpt><trkpt lat="43.3878164459424" lon="10.919069219390787"><ele>378.75</ele><time>2026-04-18T10:40:32.995Z</time></trkpt><trkpt lat="43.38779146787095" lon="10.918867802257573"><ele>381.5</ele><time>2026-04-18T10:40:33.995Z</time></trkpt><trkpt lat="43.387762759852585" lon="10.91866931879047"><ele>384.25</ele><time>2026-04-18T10:40:34.995Z</time></trkpt><trkpt lat="43.38770241014975" lon="10.91849430465225"><ele>387.0</ele><time>2026-04-18T10:40:35.995Z</time></trkpt><trkpt lat="43.38761599272805" lon="10.918335383768117"><ele>388.33333333333337</ele><time>2026-04-18T10:40:36.995Z</time></trkpt><trkpt lat="43.38751561943757" lon="10.918179983283316"><ele>389.6666666666667</ele><time>2026-04-18T10:40:37.995Z</time></trkpt><trkpt lat="43.38740887590068" lon="10.918023157874977"><ele>391.0</ele><time>2026-04-18T10:40:38.995Z</time></trkpt><trkpt lat="43.387302425730404" lon="10.917876474569475"><ele>391.0</ele><time>2026-04-18T10:40:39.995Z</time></trkpt><trkpt lat="43.387191323603865" lon="10.917734904224908"><ele>391.0</ele><time>2026-04-18T10:40:40.995Z</time></trkpt><trkpt lat="43.38708051484394" lon="10.917600458498036"><ele>391.0</ele><time>2026-04-18T10:40:41.995Z</time></trkpt><trkpt lat="43.38696505412775" lon="10.91745654122058"><ele>392.75</ele><time>2026-04-18T10:40:42.995Z</time></trkpt><trkpt lat="43.38686313018518" lon="10.917320000017916"><ele>394.5</ele><time>2026-04-18T10:40:43.995Z</time></trkpt><trkpt lat="43.3867923450129" lon="10.91717943550173"><ele>396.25</ele><time>2026-04-18T10:40:44.995Z</time></trkpt><trkpt lat="43.38674942966866" lon="10.917001906792555"><ele>398.0</ele><time>2026-04-18T10:40:45.994Z</time></trkpt><trkpt lat="43.38675072886365" lon="10.916817588741813"><ele>399.0</ele><time>2026-04-18T10:40:46.994Z</time></trkpt><trkpt lat="43.38678383738118" lon="10.916611645380888"><ele>400.0</ele><time>2026-04-18T10:40:47.994Z</time></trkpt><trkpt lat="43.38683132086265" lon="10.916381729776893"><ele>401.0</ele><time>2026-04-18T10:40:48.994Z</time></trkpt><trkpt lat="43.38690151930171" lon="10.91616857797924"><ele>401.0</ele><time>2026-04-18T10:40:49.994Z</time></trkpt><trkpt lat="43.38698667943793" lon="10.915984511385593"><ele>401.0</ele><time>2026-04-18T10:40:50.994Z</time></trkpt><trkpt lat="43.38707858700621" lon="10.91579675675455"><ele>401.0</ele><time>2026-04-18T10:40:51.994Z</time></trkpt><trkpt lat="43.387174643616554" lon="10.915611935789618"><ele>402.0</ele><time>2026-04-18T10:40:52.994Z</time></trkpt><trkpt lat="43.38726554535645" lon="10.915414039055738"><ele>403.0</ele><time>2026-04-18T10:40:53.994Z</time></trkpt><trkpt lat="43.38736277543324" lon="10.915212286646398"><ele>404.0</ele><time>2026-04-18T10:40:54.994Z</time></trkpt><trkpt lat="43.387437374371466" lon="10.9149910882217"><ele>404.0</ele><time>2026-04-18T10:40:55.994Z</time></trkpt><trkpt lat="43.387490306089994" lon="10.914778439338239"><ele>404.0</ele><time>2026-04-18T10:40:56.994Z</time></trkpt><trkpt lat="43.38752768937814" lon="10.91458842159334"><ele>404.0</ele><time>2026-04-18T10:40:57.994Z</time></trkpt><trkpt lat="43.387541477608856" lon="10.914404941732915"><ele>404.0</ele><time>2026-04-18T10:40:58.994Z</time></trkpt><trkpt lat="43.38751951702255" lon="10.914243254820736"><ele>404.5</ele><time>2026-04-18T10:40:59.994Z</time></trkpt><trkpt lat="43.387467926408526" lon="10.914091793830426"><ele>405.0</ele><time>2026-04-18T10:41:00.994Z</time></trkpt><trkpt lat="43.38740615178215" lon="10.913944942886861"><ele>405.5</ele><time>2026-04-18T10:41:01.994Z</time></trkpt><trkpt lat="43.38734739464092" lon="10.913782333965333"><ele>406.0</ele><time>2026-04-18T10:41:02.994Z</time></trkpt><trkpt lat="43.38729697749334" lon="10.913597261543305"><ele>405.0</ele><time>2026-04-18T10:41:03.994Z</time></trkpt><trkpt lat="43.38723658588099" lon="10.913376733670862"><ele>404.0</ele><time>2026-04-18T10:41:04.994Z</time></trkpt><trkpt lat="43.38717569135445" lon="10.913156205798417"><ele>403.0</ele><time>2026-04-18T10:41:05.994Z</time></trkpt><trkpt lat="43.38709333915579" lon="10.91294623912397"><ele>403.6666666666667</ele><time>2026-04-18T10:41:06.994Z</time></trkpt><trkpt lat="43.38699627671706" lon="10.912758652130991"><ele>404.33333333333337</ele><time>2026-04-18T10:41:07.994Z</time></trkpt><trkpt lat="43.386867782141444" lon="10.912584476183087"><ele>405.0</ele><time>2026-04-18T10:41:08.994Z</time></trkpt><trkpt lat="43.386715189594206" lon="10.912407115111977"><ele>405.0</ele><time>2026-04-18T10:41:09.994Z</time></trkpt><trkpt lat="43.38655333504396" lon="10.912235537554055"><ele>405.0</ele><time>2026-04-18T10:41:10.994Z</time></trkpt><trkpt lat="43.38639688682127" lon="10.912073766822845"><ele>405.0</ele><time>2026-04-18T10:41:11.994Z</time></trkpt><trkpt lat="43.38626068089472" lon="10.911914426843554"><ele>406.0</ele><time>2026-04-18T10:41:12.994Z</time></trkpt><trkpt lat="43.38613817937987" lon="10.91175936163488"><ele>407.0</ele><time>2026-04-18T10:41:13.994Z</time></trkpt><trkpt lat="43.38603822518455" lon="10.911623407165438"><ele>408.0</ele><time>2026-04-18T10:41:14.994Z</time></trkpt><trkpt lat="43.38594786826836" lon="10.911472197632223"><ele>409.0</ele><time>2026-04-18T10:41:15.994Z</time></trkpt><trkpt lat="43.38586882692145" lon="10.911331800754098"><ele>409.0</ele><time>2026-04-18T10:41:16.994Z</time></trkpt><trkpt lat="43.38580336425768" lon="10.911211436624555"><ele>409.0</ele><time>2026-04-18T10:41:17.994Z</time></trkpt><trkpt lat="43.38573429737555" lon="10.911102304245262"><ele>409.0</ele><time>2026-04-18T10:41:18.994Z</time></trkpt><trkpt lat="43.38566682305502" lon="10.911008678386835"><ele>409.0</ele><time>2026-04-18T10:41:19.994Z</time></trkpt><trkpt lat="43.385606054257025" lon="10.91093122960153"><ele>409.0</ele><time>2026-04-18T10:41:20.994Z</time></trkpt><trkpt lat="43.38554478254484" lon="10.910858558501033"><ele>410.0</ele><time>2026-04-18T10:41:21.994Z</time></trkpt><trkpt lat="43.38545606009977" lon="10.910759903500704"><ele>411.0</ele><time>2026-04-18T10:41:22.994Z</time></trkpt><trkpt lat="43.385367882478405" lon="10.910651022578506"><ele>412.0</ele><time>2026-04-18T10:41:23.994Z</time></trkpt><trkpt lat="43.38528544646071" lon="10.910540716732768"><ele>413.0</ele><time>2026-04-18T10:41:24.994Z</time></trkpt><trkpt lat="43.385213906917144" lon="10.910432087267665"><ele>413.0</ele><time>2026-04-18T10:41:25.994Z</time></trkpt><trkpt lat="43.38515473068075" lon="10.910325134183196"><ele>413.0</ele><time>2026-04-18T10:41:26.994Z</time></trkpt><trkpt lat="43.38511650920229" lon="10.910204183320431"><ele>413.0</ele><time>2026-04-18T10:41:27.994Z</time></trkpt><trkpt lat="43.38509312369244" lon="10.910085076476363"><ele>413.0</ele><time>2026-04-18T10:41:28.994Z</time></trkpt><trkpt lat="43.38508474178927" lon="10.909942667941479"><ele>413.0</ele><time>2026-04-18T10:41:29.994Z</time></trkpt><trkpt lat="43.38509752419161" lon="10.909802103425292"><ele>412.25</ele><time>2026-04-18T10:41:30.994Z</time></trkpt><trkpt lat="43.385126483667065" lon="10.90965198353949"><ele>411.5</ele><time>2026-04-18T10:41:31.994Z</time></trkpt><trkpt lat="43.3851757273482" lon="10.90950647370043"><ele>410.75</ele><time>2026-04-18T10:41:32.994Z</time></trkpt><trkpt lat="43.38522140872048" lon="10.909363226975229"><ele>410.0</ele><time>2026-04-18T10:41:33.994Z</time></trkpt><trkpt lat="43.38526688054519" lon="10.90922350064936"><ele>410.0</ele><time>2026-04-18T10:41:34.994Z</time></trkpt><trkpt lat="43.385308999608625" lon="10.90909257532182"><ele>410.0</ele><time>2026-04-18T10:41:35.994Z</time></trkpt><trkpt lat="43.38535476479994" lon="10.908956620852377"><ele>410.0</ele><time>2026-04-18T10:41:36.994Z</time></trkpt><trkpt lat="43.385409163351525" lon="10.908837765465405"><ele>410.0</ele><time>2026-04-18T10:41:37.994Z</time></trkpt><trkpt lat="43.38546414863633" lon="10.908723436306145"><ele>410.0</ele><time>2026-04-18T10:41:38.994Z</time></trkpt><trkpt lat="43.38553183250444" lon="10.90860734694722"><ele>407.0</ele><time>2026-04-18T10:41:39.994Z</time></trkpt><trkpt lat="43.385612717870046" lon="10.908492263416674"><ele>404.0</ele><time>2026-04-18T10:41:40.994Z</time></trkpt><trkpt lat="43.3857021946864" lon="10.908386819074776"><ele>401.0</ele><time>2026-04-18T10:41:41.994Z</time></trkpt><trkpt lat="43.385794227983226" lon="10.908293444673445"><ele>398.0</ele><time>2026-04-18T10:41:42.994Z</time></trkpt><trkpt lat="43.3858758258106" lon="10.908201243738558"><ele>397.99999999999994</ele><time>2026-04-18T10:41:43.994Z</time></trkpt><trkpt lat="43.38595968675183" lon="10.9081075340611"><ele>398.0</ele><time>2026-04-18T10:41:44.994Z</time></trkpt><trkpt lat="43.38603717744665" lon="10.908021787191656"><ele>398.0</ele><time>2026-04-18T10:41:45.994Z</time></trkpt><trkpt lat="43.38609849106835" lon="10.907952301214364"><ele>398.0</ele><time>2026-04-18T10:41:46.994Z</time></trkpt><trkpt lat="43.386148153844644" lon="10.907866889621046"><ele>397.99999999999994</ele><time>2026-04-18T10:41:47.994Z</time></trkpt><trkpt lat="43.38618666868972" lon="10.907773012305524"><ele>398.0</ele><time>2026-04-18T10:41:48.994Z</time></trkpt><trkpt lat="43.386205905157496" lon="10.907660694803026"><ele>397.2</ele><time>2026-04-18T10:41:49.994Z</time></trkpt><trkpt lat="43.38621072475182" lon="10.907542845244432"><ele>396.4</ele><time>2026-04-18T10:41:50.994Z</time></trkpt><trkpt lat="43.386204605962504" lon="10.907417451972986"><ele>395.59999999999997</ele><time>2026-04-18T10:41:51.994Z</time></trkpt><trkpt lat="43.3861953439595" lon="10.907292142520571"><ele>394.79999999999995</ele><time>2026-04-18T10:41:52.994Z</time></trkpt><trkpt lat="43.38618511803763" lon="10.907155936594034"><ele>394.0</ele><time>2026-04-18T10:41:53.994Z</time></trkpt><trkpt lat="43.386169695335795" lon="10.907045044015074"><ele>394.00000000000006</ele><time>2026-04-18T10:41:54.994Z</time></trkpt><trkpt lat="43.38615716439055" lon="10.906946891928936"><ele>394.0</ele><time>2026-04-18T10:41:55.994Z</time></trkpt><trkpt lat="43.386148447211255" lon="10.906857121745968"><ele>394.0</ele><time>2026-04-18T10:41:56.994Z</time></trkpt><trkpt lat="43.38613734118955" lon="10.906707756231452"><ele>394.0</ele><time>2026-04-18T10:41:58.994Z</time></trkpt><trkpt lat="43.38608772032278" lon="10.906625026847149"><ele>394.00000000000006</ele><time>2026-04-18T10:42:00.994Z</time></trkpt><trkpt lat="43.386033112223615" lon="10.906579513112927"><ele>394.0</ele><time>2026-04-18T10:42:02.994Z</time></trkpt><trkpt lat="43.38595650162863" lon="10.906569035733963"><ele>393.33333333333337</ele><time>2026-04-18T10:42:05.994Z</time></trkpt><trkpt lat="43.3858602354707" lon="10.906568616638804"><ele>392.6666666666667</ele><time>2026-04-18T10:42:07.994Z</time></trkpt><trkpt lat="43.385778260457684" lon="10.906537855054165"><ele>392.0</ele><time>2026-04-18T10:42:09.994Z</time></trkpt><trkpt lat="43.38571439035552" lon="10.906488150368357"><ele>391.33333333333337</ele><time>2026-04-18T10:42:12.994Z</time></trkpt><trkpt lat="43.38565089743899" lon="10.906511452059174"><ele>390.6666666666667</ele><time>2026-04-18T11:18:47.992Z</time></trkpt><trkpt lat="43.38567700706737" lon="10.90659921058538"><ele>390.0</ele><time>2026-04-18T11:18:51.992Z</time></trkpt><trkpt lat="43.38573836259859" lon="10.906642545024777"><ele>390.0</ele><time>2026-04-18T11:18:55.992Z</time></trkpt><trkpt lat="43.38580914777087" lon="10.906680598865176"><ele>390.0</ele><time>2026-04-18T11:19:06.992Z</time></trkpt><trkpt lat="43.385907844680716" lon="10.906717227782035"><ele>390.0</ele><time>2026-04-18T11:19:08.992Z</time></trkpt><trkpt lat="43.3860061224954" lon="10.906761651868845"><ele>390.0</ele><time>2026-04-18T11:19:10.992Z</time></trkpt><trkpt lat="43.38611144110875" lon="10.906707420955325"><ele>390.0</ele><time>2026-04-18T11:19:12.992Z</time></trkpt><trkpt lat="43.38618218437152" lon="10.90652880259874"><ele>390.0</ele><time>2026-04-18T11:19:14.992Z</time></trkpt><trkpt lat="43.386202175210585" lon="10.906397961090232"><ele>390.0</ele><time>2026-04-18T11:19:15.992Z</time></trkpt><trkpt lat="43.3862098865615" lon="10.906243901709939"><ele>390.0</ele><time>2026-04-18T11:19:16.992Z</time></trkpt><trkpt lat="43.38621059902327" lon="10.906073162342334"><ele>390.0</ele><time>2026-04-18T11:19:17.992Z</time></trkpt><trkpt lat="43.386205905157496" lon="10.905904937545682"><ele>388.5</ele><time>2026-04-18T11:19:18.992Z</time></trkpt><trkpt lat="43.3861919073792" lon="10.905730845416809"><ele>387.0</ele><time>2026-04-18T11:19:19.992Z</time></trkpt><trkpt lat="43.38617137171643" lon="10.905553568164729"><ele>385.5</ele><time>2026-04-18T11:19:20.992Z</time></trkpt><trkpt lat="43.38615221906768" lon="10.90537528508427"><ele>384.0</ele><time>2026-04-18T11:19:21.992Z</time></trkpt><trkpt lat="43.38614492681192" lon="10.905202114964746"><ele>382.79999999999995</ele><time>2026-04-18T11:19:23.049Z</time></trkpt><trkpt lat="43.38616722267436" lon="10.905040847147726"><ele>381.59999999999997</ele><time>2026-04-18T11:19:24.06Z</time></trkpt><trkpt lat="43.38622053157853" lon="10.904904808859252"><ele>380.4</ele><time>2026-04-18T11:19:25.076Z</time></trkpt><trkpt lat="43.386296974535455" lon="10.90479726904156"><ele>379.2</ele><time>2026-04-18T11:19:26.078Z</time></trkpt><trkpt lat="43.386370483826276" lon="10.904703056449913"><ele>378.0</ele><time>2026-04-18T11:19:27.081Z</time></trkpt><trkpt lat="43.38643359955716" lon="10.904579004282974"><ele>376.25</ele><time>2026-04-18T11:19:28.076Z</time></trkpt><trkpt lat="43.386472575406906" lon="10.904414299885653"><ele>374.5</ele><time>2026-04-18T11:19:29.06Z</time></trkpt><trkpt lat="43.38648405861425" lon="10.904225120331072"><ele>372.75</ele><time>2026-04-18T11:19:30.066Z</time></trkpt><trkpt lat="43.386476640629944" lon="10.904032168920063"><ele>371.0</ele><time>2026-04-18T11:19:31.084Z</time></trkpt><trkpt lat="43.386464780236956" lon="10.903845671574496"><ele>370.0</ele><time>2026-04-18T11:19:32.085Z</time></trkpt><trkpt lat="43.38644973472076" lon="10.903664371008894"><ele>369.0</ele><time>2026-04-18T11:19:33.053Z</time></trkpt><trkpt lat="43.38643800005632" lon="10.903503438468"><ele>368.0</ele><time>2026-04-18T11:19:34.083Z</time></trkpt><trkpt lat="43.38643552739489" lon="10.903357677171847"><ele>367.0</ele><time>2026-04-18T11:19:35.086Z</time></trkpt><trkpt lat="43.38646423541325" lon="10.903232954452655"><ele>366.5</ele><time>2026-04-18T11:19:36.094Z</time></trkpt><trkpt lat="43.386536822694715" lon="10.90313111432912"><ele>366.0</ele><time>2026-04-18T11:19:37.085Z</time></trkpt><trkpt lat="43.38664373386967" lon="10.903076631958506"><ele>365.5</ele><time>2026-04-18T11:19:38.09Z</time></trkpt><trkpt lat="43.386774282011565" lon="10.90304997750642"><ele>365.0</ele><time>2026-04-18T11:19:39.083Z</time></trkpt><trkpt lat="43.38691342160421" lon="10.903016952807924"><ele>365.0</ele><time>2026-04-18T11:19:40.077Z</time></trkpt><trkpt lat="43.387050172354456" lon="10.902970684702417"><ele>365.0</ele><time>2026-04-18T11:19:41.08Z</time></trkpt><trkpt lat="43.38718097195345" lon="10.902915699417612"><ele>365.0</ele><time>2026-04-18T11:19:42.074Z</time></trkpt><trkpt lat="43.38730355728733" lon="10.902867922569534"><ele>365.0</ele><time>2026-04-18T11:19:43.109Z</time></trkpt><trkpt lat="43.387430291663286" lon="10.902810841808936"><ele>363.0</ele><time>2026-04-18T11:19:44.059Z</time></trkpt><trkpt lat="43.38755539156812" lon="10.902734231213948"><ele>361.0</ele><time>2026-04-18T11:19:45.055Z</time></trkpt><trkpt lat="43.38768137157279" lon="10.902629038329145"><ele>359.0</ele><time>2026-04-18T11:19:46.051Z</time></trkpt><trkpt lat="43.38780923750567" lon="10.90249828063967"><ele>357.0</ele><time>2026-04-18T11:19:47.054Z</time></trkpt><trkpt lat="43.38794217448997" lon="10.902358219037673"><ele>354.3333333333333</ele><time>2026-04-18T11:19:48.078Z</time></trkpt><trkpt lat="43.3880778355928" lon="10.902214217941186"><ele>351.66666666666663</ele><time>2026-04-18T11:19:49.057Z</time></trkpt><trkpt lat="43.38821580171901" lon="10.90206979774954"><ele>349.0</ele><time>2026-04-18T11:19:50.075Z</time></trkpt><trkpt lat="43.38834010534304" lon="10.901920516054055"><ele>349.0</ele><time>2026-04-18T11:19:51.075Z</time></trkpt><trkpt lat="43.38845942173469" lon="10.901756733666081"><ele>349.0</ele><time>2026-04-18T11:19:52.061Z</time></trkpt><trkpt lat="43.38857370898443" lon="10.901592532182951"><ele>349.0</ele><time>2026-04-18T11:19:53.073Z</time></trkpt><trkpt lat="43.38869344447124" lon="10.901416176940222"><ele>349.0</ele><time>2026-04-18T11:19:54.086Z</time></trkpt><trkpt lat="43.38881372478175" lon="10.901234960193653"><ele>349.0</ele><time>2026-04-18T11:19:55.088Z</time></trkpt><trkpt lat="43.38894682940411" lon="10.901047373200674"><ele>349.0</ele><time>2026-04-18T11:19:56.058Z</time></trkpt><trkpt lat="43.38908198759275" lon="10.900861546407361"><ele>347.0</ele><time>2026-04-18T11:19:57.073Z</time></trkpt><trkpt lat="43.38921580467689" lon="10.900682508955617"><ele>345.0</ele><time>2026-04-18T11:19:58.078Z</time></trkpt><trkpt lat="43.38935083713698" lon="10.900490898649116"><ele>343.0</ele><time>2026-04-18T11:19:59.072Z</time></trkpt><trkpt lat="43.389485953416106" lon="10.900307334969659"><ele>343.0</ele><time>2026-04-18T11:20:00.071Z</time></trkpt><trkpt lat="43.38961599864381" lon="10.90013542213561"><ele>343.0</ele><time>2026-04-18T11:20:01.085Z</time></trkpt><trkpt lat="43.38973523121643" lon="10.899975327785032"><ele>343.0</ele><time>2026-04-18T11:20:02.094Z</time></trkpt><trkpt lat="43.38984972801375" lon="10.899817915643471"><ele>342.0</ele><time>2026-04-18T11:20:03.09Z</time></trkpt><trkpt lat="43.38996372189688" lon="10.899652875970023"><ele>341.0</ele><time>2026-04-18T11:20:04.085Z</time></trkpt><trkpt lat="43.39008433748352" lon="10.899463444958347"><ele>340.0</ele><time>2026-04-18T11:20:05.058Z</time></trkpt><trkpt lat="43.39020721618402" lon="10.899247778589743"><ele>340.0</ele><time>2026-04-18T11:20:06.091Z</time></trkpt><trkpt lat="43.390350085723576" lon="10.899009816358703"><ele>340.0</ele><time>2026-04-18T11:20:07.077Z</time></trkpt><trkpt lat="43.39050272018033" lon="10.898789959038513"><ele>340.0</ele><time>2026-04-18T11:20:08.108Z</time></trkpt><trkpt lat="43.39065983895528" lon="10.898597594360727"><ele>338.66666666666663</ele><time>2026-04-18T11:20:09.081Z</time></trkpt><trkpt lat="43.39081850838232" lon="10.898418724547046"><ele>337.3333333333333</ele><time>2026-04-18T11:20:10.087Z</time></trkpt><trkpt lat="43.39097642343807" lon="10.898261815319675"><ele>336.0</ele><time>2026-04-18T11:20:11.067Z</time></trkpt><trkpt lat="43.391122352372285" lon="10.898092249418514"><ele>334.3333333333333</ele><time>2026-04-18T11:20:12.066Z</time></trkpt><trkpt lat="43.39126455135959" lon="10.897919749851242"><ele>332.66666666666663</ele><time>2026-04-18T11:20:13.079Z</time></trkpt><trkpt lat="43.39140457105207" lon="10.897737611095325"><ele>331.0</ele><time>2026-04-18T11:20:14.08Z</time></trkpt><trkpt lat="43.391550835262414" lon="10.897552454854265"><ele>329.66666666666663</ele><time>2026-04-18T11:20:15.094Z</time></trkpt><trkpt lat="43.391695213544544" lon="10.897358246157781"><ele>328.3333333333333</ele><time>2026-04-18T11:20:16.082Z</time></trkpt><trkpt lat="43.39183414358961" lon="10.897165630022899"><ele>327.0</ele><time>2026-04-18T11:20:17.092Z</time></trkpt><trkpt lat="43.39196435645538" lon="10.896963290880338"><ele>327.6666666666667</ele><time>2026-04-18T11:20:18.081Z</time></trkpt><trkpt lat="43.392083295661386" lon="10.896752150739447"><ele>328.33333333333337</ele><time>2026-04-18T11:20:19.084Z</time></trkpt><trkpt lat="43.39218517769444" lon="10.896526426087037"><ele>329.0</ele><time>2026-04-18T11:20:20.054Z</time></trkpt><trkpt lat="43.392276540439006" lon="10.896289469684378"><ele>329.0</ele><time>2026-04-18T11:20:21.047Z</time></trkpt><trkpt lat="43.3923555398764" lon="10.896034911285057"><ele>329.0</ele><time>2026-04-18T11:20:22.054Z</time></trkpt><trkpt lat="43.39241731450277" lon="10.89577415027739"><ele>329.0</ele><time>2026-04-18T11:20:23.071Z</time></trkpt><trkpt lat="43.392459978389915" lon="10.89551716112615"><ele>330.33333333333337</ele><time>2026-04-18T11:20:24.051Z</time></trkpt><trkpt lat="43.3924876805799" lon="10.895277271057381"><ele>331.6666666666667</ele><time>2026-04-18T11:20:25.07Z</time></trkpt><trkpt lat="43.39250603694784" lon="10.895057162280096"><ele>333.0</ele><time>2026-04-18T11:20:26.076Z</time></trkpt><trkpt lat="43.392525231506106" lon="10.894853901128187"><ele>334.0</ele><time>2026-04-18T11:20:27.074Z</time></trkpt><trkpt lat="43.392563369165536" lon="10.89467276820065"><ele>335.0</ele><time>2026-04-18T11:20:28.053Z</time></trkpt><trkpt lat="43.39262623343932" lon="10.89452231303872"><ele>336.0</ele><time>2026-04-18T11:20:29.047Z</time></trkpt><trkpt lat="43.392703598405596" lon="10.894399853433384"><ele>337.0</ele><time>2026-04-18T11:20:30.051Z</time></trkpt><trkpt lat="43.39278096337187" lon="10.894298935319199"><ele>336.20000000000005</ele><time>2026-04-18T11:20:31.059Z</time></trkpt><trkpt lat="43.392856777686056" lon="10.894208913679135"><ele>335.4</ele><time>2026-04-18T11:20:32.065Z</time></trkpt><trkpt lat="43.39293552566635" lon="10.894121909524214"><ele>334.6</ele><time>2026-04-18T11:20:33.087Z</time></trkpt><trkpt lat="43.39302349374014" lon="10.894034653912199"><ele>333.79999999999995</ele><time>2026-04-18T11:20:34.068Z</time></trkpt><trkpt lat="43.39311980180758" lon="10.893958797688496"><ele>333.0</ele><time>2026-04-18T11:20:35.081Z</time></trkpt><trkpt lat="43.39322340213078" lon="10.893882941464794"><ele>336.75</ele><time>2026-04-18T11:20:36.08Z</time></trkpt><trkpt lat="43.39333094194847" lon="10.89381043800236"><ele>340.5</ele><time>2026-04-18T11:20:37.056Z</time></trkpt><trkpt lat="43.39343613483327" lon="10.893726116056454"><ele>344.25</ele><time>2026-04-18T11:20:38.081Z</time></trkpt><trkpt lat="43.39353449646699" lon="10.893626622865808"><ele>348.0</ele><time>2026-04-18T11:20:39.08Z</time></trkpt><trkpt lat="43.39362870905864" lon="10.893503325070155"><ele>346.59999999999997</ele><time>2026-04-18T11:20:40.095Z</time></trkpt><trkpt lat="43.393705235834595" lon="10.89338044636966"><ele>345.2</ele><time>2026-04-18T11:20:41.079Z</time></trkpt><trkpt lat="43.39376487307566" lon="10.893261926258814"><ele>343.8</ele><time>2026-04-18T11:20:42.082Z</time></trkpt><trkpt lat="43.393820361274656" lon="10.893139299015415"><ele>342.4</ele><time>2026-04-18T11:20:43.077Z</time></trkpt><trkpt lat="43.39387199379819" lon="10.893022958199394"><ele>341.0</ele><time>2026-04-18T11:20:44.071Z</time></trkpt><trkpt lat="43.39391520250904" lon="10.892912149439466"><ele>341.0</ele><time>2026-04-18T11:20:45.081Z</time></trkpt><trkpt lat="43.39394558690804" lon="10.892799915756"><ele>341.0</ele><time>2026-04-18T11:20:46.053Z</time></trkpt><trkpt lat="43.39395585473943" lon="10.892684245492232"><ele>341.0</ele><time>2026-04-18T11:20:47.063Z</time></trkpt><trkpt lat="43.393940683494684" lon="10.892548374841821"><ele>341.0</ele><time>2026-04-18T11:20:48.07Z</time></trkpt><trkpt lat="43.39390962854343" lon="10.89241543785752"><ele>341.0</ele><time>2026-04-18T11:20:49.085Z</time></trkpt><trkpt lat="43.393842740956124" lon="10.892289374033819"><ele>340.33333333333337</ele><time>2026-04-18T11:20:50.08Z</time></trkpt><trkpt lat="43.39374010455179" lon="10.892154676849852"><ele>339.6666666666667</ele><time>2026-04-18T11:20:51.052Z</time></trkpt><trkpt lat="43.39361676484662" lon="10.89199139737607"><ele>339.0</ele><time>2026-04-18T11:20:52.05Z</time></trkpt><trkpt lat="43.393497322726425" lon="10.891810348267565"><ele>343.6666666666667</ele><time>2026-04-18T11:20:53.065Z</time></trkpt><trkpt lat="43.393386220599886" lon="10.89161613957108"><ele>348.33333333333337</ele><time>2026-04-18T11:20:54.085Z</time></trkpt><trkpt lat="43.39329703715014" lon="10.891416482637535"><ele>353.0</ele><time>2026-04-18T11:20:55.054Z</time></trkpt><trkpt lat="43.39321698997485" lon="10.891224034140716"><ele>353.0</ele><time>2026-04-18T11:20:56.078Z</time></trkpt><trkpt lat="43.39314297776985" lon="10.891047930355082"><ele>353.0</ele><time>2026-04-18T11:20:57.054Z</time></trkpt><trkpt lat="43.39308832776117" lon="10.890886997814189"><ele>353.0</ele><time>2026-04-18T11:20:58.058Z</time></trkpt><trkpt lat="43.393079359124776" lon="10.890731513510357"><ele>353.0</ele><time>2026-04-18T11:20:59.053Z</time></trkpt><trkpt lat="43.39310630694347" lon="10.890587847689996"><ele>356.0</ele><time>2026-04-18T11:21:00.054Z</time></trkpt><trkpt lat="43.39315592781025" lon="10.89044200257481"><ele>359.0</ele><time>2026-04-18T11:21:01.047Z</time></trkpt><trkpt lat="43.39321761861759" lon="10.890296492735752"><ele>362.0</ele><time>2026-04-18T11:21:02.049Z</time></trkpt><trkpt lat="43.39328429665732" lon="10.890139164413222"><ele>365.0</ele><time>2026-04-18T11:21:03.062Z</time></trkpt><trkpt lat="43.39334917258787" lon="10.889966916303047"><ele>365.0</ele><time>2026-04-18T11:21:04.058Z</time></trkpt><trkpt lat="43.3934227237882" lon="10.889780838052639"><ele>365.0</ele><time>2026-04-18T11:21:05.088Z</time></trkpt><trkpt lat="43.3934977837311" lon="10.889609511951813"><ele>365.0</ele><time>2026-04-18T11:21:06.079Z</time></trkpt><trkpt lat="43.39358034547734" lon="10.889451848353156"><ele>365.0</ele><time>2026-04-18T11:21:07.052Z</time></trkpt><trkpt lat="43.393674977164146" lon="10.889322347949156"><ele>367.75</ele><time>2026-04-18T11:21:08.073Z</time></trkpt><trkpt lat="43.39378888722825" lon="10.889217825616607"><ele>370.5</ele><time>2026-04-18T11:21:09.057Z</time></trkpt><trkpt lat="43.39391428049969" lon="10.8891076035899"><ele>373.25</ele><time>2026-04-18T11:21:10.052Z</time></trkpt><trkpt lat="43.394057401496354" lon="10.889005679647335"><ele>376.0</ele><time>2026-04-18T11:21:11.067Z</time></trkpt><trkpt lat="43.3941999776693" lon="10.8889004029435"><ele>376.0</ele><time>2026-04-18T11:21:12.08Z</time></trkpt><trkpt lat="43.39432138953674" lon="10.888781882832655"><ele>376.0</ele><time>2026-04-18T11:21:13.089Z</time></trkpt><trkpt lat="43.39442281056512" lon="10.888643246154198"><ele>376.0</ele><time>2026-04-18T11:21:14.089Z</time></trkpt><trkpt lat="43.39449330237079" lon="10.888477955023653"><ele>376.0</ele><time>2026-04-18T11:21:15.078Z</time></trkpt><trkpt lat="43.394540492485646" lon="10.888322303081758"><ele>376.8333333333333</ele><time>2026-04-18T11:21:16.075Z</time></trkpt><trkpt lat="43.3945971960606" lon="10.888190120468742"><ele>377.66666666666663</ele><time>2026-04-18T11:21:17.069Z</time></trkpt><trkpt lat="43.394669406156424" lon="10.888113090778596"><ele>378.5</ele><time>2026-04-18T11:21:18.054Z</time></trkpt><trkpt lat="43.3947441308232" lon="10.888106636713154"><ele>379.3333333333333</ele><time>2026-04-18T11:21:19.067Z</time></trkpt><trkpt lat="43.39480489962119" lon="10.888160029436357"><ele>380.1666666666667</ele><time>2026-04-18T11:21:20.051Z</time></trkpt><trkpt lat="43.394850497174446" lon="10.888253906751878"><ele>381.0</ele><time>2026-04-18T11:21:21.077Z</time></trkpt><trkpt lat="43.39487836700249" lon="10.888378797109134"><ele>381.75</ele><time>2026-04-18T11:21:22.076Z</time></trkpt><trkpt lat="43.39488364760149" lon="10.888526067147858"><ele>382.5</ele><time>2026-04-18T11:21:23.054Z</time></trkpt><trkpt lat="43.39486562650967" lon="10.88868540712715"><ele>383.25</ele><time>2026-04-18T11:21:24.076Z</time></trkpt><trkpt lat="43.394842115271274" lon="10.888848267505773"><ele>384.0</ele><time>2026-04-18T11:21:25.073Z</time></trkpt><trkpt lat="43.39483364954907" lon="10.889004841457018"><ele>384.0</ele><time>2026-04-18T11:21:26.067Z</time></trkpt><trkpt lat="43.394848275970105" lon="10.889140712107428"><ele>384.0</ele><time>2026-04-18T11:21:27.053Z</time></trkpt><trkpt lat="43.394890059757415" lon="10.889248084287056"><ele>384.0</ele><time>2026-04-18T11:21:28.064Z</time></trkpt><trkpt lat="43.39496063538212" lon="10.8893200848353"><ele>384.0</ele><time>2026-04-18T11:21:29.08Z</time></trkpt><trkpt lat="43.395040598738376" lon="10.889340033764848"><ele>384.0</ele><time>2026-04-18T11:21:30.056Z</time></trkpt><trkpt lat="43.39512269947994" lon="10.889294520030626"><ele>384.0</ele><time>2026-04-18T11:21:31.087Z</time></trkpt><trkpt lat="43.395202704745714" lon="10.889202486733803"><ele>384.0</ele><time>2026-04-18T11:21:32.078Z</time></trkpt><trkpt lat="43.39526640720982" lon="10.889064352969536"><ele>384.0</ele><time>2026-04-18T11:21:33.071Z</time></trkpt><trkpt lat="43.395331786054555" lon="10.888891350488075"><ele>384.0</ele><time>2026-04-18T11:21:34.079Z</time></trkpt><trkpt lat="43.395404331426505" lon="10.888699404905447"><ele>384.0</ele><time>2026-04-18T11:21:35.093Z</time></trkpt><trkpt lat="43.39547800835538" lon="10.888499580333836"><ele>385.75</ele><time>2026-04-18T11:21:36.082Z</time></trkpt><trkpt lat="43.39555797171164" lon="10.888319704691774"><ele>387.5</ele><time>2026-04-18T11:21:37.089Z</time></trkpt><trkpt lat="43.395638437982086" lon="10.888169417167909"><ele>389.25</ele><time>2026-04-18T11:21:38.081Z</time></trkpt><trkpt lat="43.395733237306956" lon="10.888054920370585"><ele>391.0</ele><time>2026-04-18T11:21:39.081Z</time></trkpt><trkpt lat="43.39582434859443" lon="10.887974118824012"><ele>391.0</ele><time>2026-04-18T11:21:40.079Z</time></trkpt><trkpt lat="43.395911227020804" lon="10.887908907617337"><ele>391.0</ele><time>2026-04-18T11:21:41.052Z</time></trkpt><trkpt lat="43.3959934115814" lon="10.887817880148894"><ele>391.0</ele><time>2026-04-18T11:21:42.087Z</time></trkpt><trkpt lat="43.39604307435769" lon="10.887703886265761"><ele>391.0</ele><time>2026-04-18T11:21:43.082Z</time></trkpt><trkpt lat="43.396066920872215" lon="10.887586791078455"><ele>391.0</ele><time>2026-04-18T11:21:44.051Z</time></trkpt><trkpt lat="43.3960660826819" lon="10.887471875185973"><ele>392.20000000000005</ele><time>2026-04-18T11:21:45.058Z</time></trkpt><trkpt lat="43.39605187535602" lon="10.887352768341906"><ele>393.40000000000003</ele><time>2026-04-18T11:21:46.057Z</time></trkpt><trkpt lat="43.396025137084905" lon="10.887221172462112"><ele>394.6</ele><time>2026-04-18T11:21:47.066Z</time></trkpt><trkpt lat="43.395994878414456" lon="10.887077087546594"><ele>395.8</ele><time>2026-04-18T11:21:48.05Z</time></trkpt><trkpt lat="43.395963823463205" lon="10.886930488060123"><ele>397.0</ele><time>2026-04-18T11:21:49.052Z</time></trkpt><trkpt lat="43.39594613764751" lon="10.886782882745273"><ele>397.75</ele><time>2026-04-18T11:21:50.052Z</time></trkpt><trkpt lat="43.395947939756695" lon="10.886635528887517"><ele>398.5</ele><time>2026-04-18T11:21:51.05Z</time></trkpt><trkpt lat="43.39596864305753" lon="10.88648138568819"><ele>399.25</ele><time>2026-04-18T11:21:52.05Z</time></trkpt><trkpt lat="43.39601030111629" lon="10.886336546401386"><ele>400.0</ele><time>2026-04-18T11:21:53.066Z</time></trkpt><trkpt lat="43.39606889061946" lon="10.886190030733948"><ele>400.0</ele><time>2026-04-18T11:21:54.057Z</time></trkpt><trkpt lat="43.39614151981044" lon="10.886043263609414"><ele>400.0</ele><time>2026-04-18T11:21:55.076Z</time></trkpt><trkpt lat="43.396225464570705" lon="10.885907392959004"><ele>400.0</ele><time>2026-04-18T11:21:56.055Z</time></trkpt><trkpt lat="43.39631221726853" lon="10.885762637491231"><ele>400.0</ele><time>2026-04-18T11:21:57.078Z</time></trkpt><trkpt lat="43.39639808986652" lon="10.885613020519619"><ele>403.0</ele><time>2026-04-18T11:21:58.069Z</time></trkpt><trkpt lat="43.39648949452061" lon="10.885448819036489"><ele>406.0</ele><time>2026-04-18T11:21:59.07Z</time></trkpt><trkpt lat="43.396586054045144" lon="10.885273050526981"><ele>409.0</ele><time>2026-04-18T11:22:00.05Z</time></trkpt><trkpt lat="43.39668982200641" lon="10.885096862922316"><ele>408.0</ele><time>2026-04-18T11:22:01.067Z</time></trkpt><trkpt lat="43.39679509871024" lon="10.884919166575079"><ele>407.0</ele><time>2026-04-18T11:22:02.067Z</time></trkpt><trkpt lat="43.39689517863411" lon="10.884748930121665"><ele>406.0</ele><time>2026-04-18T11:22:03.051Z</time></trkpt><trkpt lat="43.39699467182476" lon="10.884573748345378"><ele>406.0</ele><time>2026-04-18T11:22:04.06Z</time></trkpt><trkpt lat="43.39707597628552" lon="10.884422119717005"><ele>406.0</ele><time>2026-04-18T11:22:05.049Z</time></trkpt><trkpt lat="43.39715095240939" lon="10.884266886870268"><ele>406.0</ele><time>2026-04-18T11:22:06.073Z</time></trkpt><trkpt lat="43.39721314613092" lon="10.884111151109341"><ele>406.0</ele><time>2026-04-18T11:22:07.087Z</time></trkpt><trkpt lat="43.39724281806815" lon="10.883937310437563"><ele>407.0</ele><time>2026-04-18T11:22:08.082Z</time></trkpt><trkpt lat="43.397240052040104" lon="10.883759446452263"><ele>408.0</ele><time>2026-04-18T11:22:09.073Z</time></trkpt><trkpt lat="43.397212727035765" lon="10.883552832539085"><ele>409.0</ele><time>2026-04-18T11:22:10.075Z</time></trkpt><trkpt lat="43.39718007952291" lon="10.883318139250282"><ele>406.6666666666667</ele><time>2026-04-18T11:22:11.086Z</time></trkpt><trkpt lat="43.39715887330789" lon="10.883063916127089"><ele>404.33333333333337</ele><time>2026-04-18T11:22:12.076Z</time></trkpt><trkpt lat="43.397151706780676" lon="10.882815727974178"><ele>402.0</ele><time>2026-04-18T11:22:13.08Z</time></trkpt><trkpt lat="43.39714835401941" lon="10.882575334991218"><ele>402.0</ele><time>2026-04-18T11:22:14.078Z</time></trkpt><trkpt lat="43.397139972116236" lon="10.882330499599577"><ele>402.0</ele><time>2026-04-18T11:22:15.054Z</time></trkpt><trkpt lat="43.397112563292865" lon="10.88209169917822"><ele>402.0</ele><time>2026-04-18T11:22:16.077Z</time></trkpt><trkpt lat="43.3970685163917" lon="10.881858514631988"><ele>406.0</ele><time>2026-04-18T11:22:17.084Z</time></trkpt><trkpt lat="43.39702509813327" lon="10.88163186797023"><ele>410.0</ele><time>2026-04-18T11:22:18.096Z</time></trkpt><trkpt lat="43.39698293716032" lon="10.88140128181398"><ele>414.0</ele><time>2026-04-18T11:22:19.078Z</time></trkpt><trkpt lat="43.396941782015745" lon="10.881186621273757"><ele>414.0</ele><time>2026-04-18T11:22:20.085Z</time></trkpt><trkpt lat="43.39690247088987" lon="10.880985120321514"><ele>414.0</ele><time>2026-04-18T11:22:21.079Z</time></trkpt><trkpt lat="43.396869739557985" lon="10.880795018757581"><ele>414.0</ele><time>2026-04-18T11:22:22.07Z</time></trkpt><trkpt lat="43.39684279173929" lon="10.880607934678793"><ele>414.0</ele><time>2026-04-18T11:22:23.081Z</time></trkpt><trkpt lat="43.396818861405734" lon="10.880416659648418"><ele>416.5</ele><time>2026-04-18T11:22:24.074Z</time></trkpt><trkpt lat="43.39680058885682" lon="10.880230162302851"><ele>419.0</ele><time>2026-04-18T11:22:25.056Z</time></trkpt><trkpt lat="43.39678068183679" lon="10.880032265568971"><ele>421.5</ele><time>2026-04-18T11:22:26.054Z</time></trkpt><trkpt lat="43.39675113562811" lon="10.879846857870817"><ele>424.0</ele><time>2026-04-18T11:22:27.052Z</time></trkpt><trkpt lat="43.39672439735699" lon="10.879669245342612"><ele>426.25</ele><time>2026-04-18T11:22:28.05Z</time></trkpt><trkpt lat="43.396703107322935" lon="10.879491884271502"><ele>428.5</ele><time>2026-04-18T11:22:29.058Z</time></trkpt><trkpt lat="43.39668877426851" lon="10.879299854869842"><ele>430.75</ele><time>2026-04-18T11:22:30.053Z</time></trkpt><trkpt lat="43.396683074574355" lon="10.879105143259167"><ele>433.0</ele><time>2026-04-18T11:22:31.067Z</time></trkpt><trkpt lat="43.39668961245883" lon="10.878913532952664"><ele>434.5</ele><time>2026-04-18T11:22:32.079Z</time></trkpt><trkpt lat="43.39671752419639" lon="10.878730304549334"><ele>436.0</ele><time>2026-04-18T11:22:33.078Z</time></trkpt><trkpt lat="43.39675675150323" lon="10.878555458049176"><ele>437.5</ele><time>2026-04-18T11:22:34.055Z</time></trkpt><trkpt lat="43.39682171125281" lon="10.878380527729986"><ele>439.0</ele><time>2026-04-18T11:22:35.073Z</time></trkpt><trkpt lat="43.39688813783545" lon="10.878178020949361"><ele>439.0</ele><time>2026-04-18T11:22:36.081Z</time></trkpt><trkpt lat="43.39695213366616" lon="10.877940813089607"><ele>439.0</ele><time>2026-04-18T11:22:37.073Z</time></trkpt><trkpt lat="43.39700250890422" lon="10.877683404843209"><ele>439.0</ele><time>2026-04-18T11:22:38.053Z</time></trkpt><trkpt lat="43.39704823218602" lon="10.877417949969766"><ele>439.0</ele><time>2026-04-18T11:22:39.085Z</time></trkpt><trkpt lat="43.39708427436966" lon="10.877169677997825"><ele>439.0</ele><time>2026-04-18T11:22:40.074Z</time></trkpt><trkpt lat="43.39710338510889" lon="10.87694713846862"><ele>439.0</ele><time>2026-04-18T11:22:41.089Z</time></trkpt><trkpt lat="43.397124591323916" lon="10.876750079925056"><ele>440.25</ele><time>2026-04-18T11:22:42.068Z</time></trkpt><trkpt lat="43.39714265432525" lon="10.876560397456284"><ele>441.5</ele><time>2026-04-18T11:22:43.086Z</time></trkpt><trkpt lat="43.39717249390054" lon="10.876377839605208"><ele>442.75</ele><time>2026-04-18T11:22:44.078Z</time></trkpt><trkpt lat="43.397214151959304" lon="10.876192180449959"><ele>444.0</ele><time>2026-04-18T11:22:45.068Z</time></trkpt><trkpt lat="43.39726993352491" lon="10.87601875887334"><ele>451.66666666666663</ele><time>2026-04-18T11:22:46.079Z</time></trkpt><trkpt lat="43.39732919358033" lon="10.875832261527773"><ele>459.3333333333333</ele><time>2026-04-18T11:22:47.078Z</time></trkpt><trkpt lat="43.39739981111455" lon="10.875643165792223"><ele>467.0</ele><time>2026-04-18T11:22:48.089Z</time></trkpt><trkpt lat="43.397466782520894" lon="10.875436887155171"><ele>467.0</ele><time>2026-04-18T11:22:49.081Z</time></trkpt><trkpt lat="43.397533334832076" lon="10.875231446708437"><ele>467.0</ele><time>2026-04-18T11:22:50.087Z</time></trkpt><trkpt lat="43.39759909086246" lon="10.875042434791917"><ele>467.0</ele><time>2026-04-18T11:22:51.081Z</time></trkpt><trkpt lat="43.397662751417045" lon="10.874864151711458"><ele>466.25</ele><time>2026-04-18T11:22:52.073Z</time></trkpt><trkpt lat="43.397724358405355" lon="10.87469911203801"><ele>465.5</ele><time>2026-04-18T11:22:53.079Z</time></trkpt><trkpt lat="43.39778965343106" lon="10.874545555571908"><ele>464.75</ele><time>2026-04-18T11:22:54.075Z</time></trkpt><trkpt lat="43.39787162844408" lon="10.87440985255956"><ele>464.0</ele><time>2026-04-18T11:22:55.091Z</time></trkpt><trkpt lat="43.39796005752254" lon="10.874293679381603"><ele>468.25</ele><time>2026-04-18T11:22:56.08Z</time></trkpt><trkpt lat="43.39804249354023" lon="10.8741781767559"><ele>472.5</ele><time>2026-04-18T11:22:57.054Z</time></trkpt><trkpt lat="43.39812610302437" lon="10.874065272520179"><ele>476.75</ele><time>2026-04-18T11:22:58.078Z</time></trkpt><trkpt lat="43.398208874318186" lon="10.873950272808665"><ele>481.0</ele><time>2026-04-18T11:22:59.08Z</time></trkpt><trkpt lat="43.398293363902155" lon="10.873833429078454"><ele>481.0</ele><time>2026-04-18T11:23:00.078Z</time></trkpt><trkpt lat="43.39836993258763" lon="10.873705437417025"><ele>481.0</ele><time>2026-04-18T11:23:01.06Z</time></trkpt><trkpt lat="43.398441472131196" lon="10.873572584251756"><ele>481.0</ele><time>2026-04-18T11:23:02.052Z</time></trkpt><trkpt lat="43.39850697670448" lon="10.873434953401679"><ele>481.0</ele><time>2026-04-18T11:23:03.054Z</time></trkpt><trkpt lat="43.39857164308745" lon="10.87330696174025"><ele>480.25</ele><time>2026-04-18T11:23:04.054Z</time></trkpt><trkpt lat="43.398637860122506" lon="10.873160194615714"><ele>479.5</ele><time>2026-04-18T11:23:05.058Z</time></trkpt><trkpt lat="43.398705753538195" lon="10.873027760545604"><ele>478.75</ele><time>2026-04-18T11:23:06.004Z</time></trkpt><trkpt lat="43.39877406604904" lon="10.872891135523908"><ele>478.0</ele><time>2026-04-18T11:23:07.004Z</time></trkpt><trkpt lat="43.39884250428844" lon="10.872769681746952"><ele>480.4</ele><time>2026-04-18T11:23:08.004Z</time></trkpt><trkpt lat="43.39890494946707" lon="10.872644372294538"><ele>482.79999999999995</ele><time>2026-04-18T11:23:09.003Z</time></trkpt><trkpt lat="43.398971753235344" lon="10.872521158317916"><ele>485.2</ele><time>2026-04-18T11:23:10.003Z</time></trkpt><trkpt lat="43.399040233384255" lon="10.872397860522263"><ele>487.6</ele><time>2026-04-18T11:23:11.003Z</time></trkpt><trkpt lat="43.399120154830996" lon="10.872285459200732"><ele>490.0</ele><time>2026-04-18T11:23:12.003Z</time></trkpt><trkpt lat="43.39919781316388" lon="10.872173812250487"><ele>490.0</ele><time>2026-04-18T11:23:13.003Z</time></trkpt><trkpt lat="43.39927727360595" lon="10.872068116451494"><ele>490.0</ele><time>2026-04-18T11:23:14.002Z</time></trkpt><trkpt lat="43.39935694359559" lon="10.871974322955005"><ele>490.0</ele><time>2026-04-18T11:23:15.002Z</time></trkpt><trkpt lat="43.399395458440665" lon="10.871837446476214"><ele>490.0</ele><time>2026-04-18T11:23:16.002Z</time></trkpt><trkpt lat="43.399462346027974" lon="10.87172144093632"><ele>490.0</ele><time>2026-04-18T11:23:17.002Z</time></trkpt><trkpt lat="43.399519091512445" lon="10.871612727652185"><ele>490.4</ele><time>2026-04-18T11:23:18.002Z</time></trkpt><trkpt lat="43.39957043066937" lon="10.871498733769052"><ele>490.8</ele><time>2026-04-18T11:23:19.002Z</time></trkpt><trkpt lat="43.399610747623626" lon="10.87135213428258"><ele>491.20000000000005</ele><time>2026-04-18T11:23:20.002Z</time></trkpt><trkpt lat="43.39966212869007" lon="10.871206708262553"><ele>491.6</ele><time>2026-04-18T11:23:21.001Z</time></trkpt><trkpt lat="43.39969641067404" lon="10.871059270585766"><ele>492.0</ele><time>2026-04-18T11:23:22.001Z</time></trkpt><trkpt lat="43.39973098602462" lon="10.870923986668577"><ele>493.25</ele><time>2026-04-18T11:23:23.001Z</time></trkpt><trkpt lat="43.39972662743497" lon="10.870755845690956"><ele>494.5</ele><time>2026-04-18T11:23:24.001Z</time></trkpt><trkpt lat="43.399721849750165" lon="10.870592650036206"><ele>495.75</ele><time>2026-04-18T11:23:25.001Z</time></trkpt><trkpt lat="43.3997095283525" lon="10.87042274885892"><ele>497.0</ele><time>2026-04-18T11:23:26.001Z</time></trkpt><trkpt lat="43.39969607539791" lon="10.870259720842233"><ele>497.6</ele><time>2026-04-18T11:23:27.001Z</time></trkpt><trkpt lat="43.39968408927638" lon="10.87010666729032"><ele>498.20000000000005</ele><time>2026-04-18T11:23:28.001Z</time></trkpt><trkpt lat="43.3996743662687" lon="10.86995906197547"><ele>498.8</ele><time>2026-04-18T11:23:29.001Z</time></trkpt><trkpt lat="43.39966631964165" lon="10.86981195957481"><ele>499.4</ele><time>2026-04-18T11:23:30.001Z</time></trkpt><trkpt lat="43.39966162577588" lon="10.869668545211544"><ele>500.0</ele><time>2026-04-18T11:23:31.001Z</time></trkpt><trkpt lat="43.39964125775117" lon="10.869527813057294"><ele>500.0</ele><time>2026-04-18T11:23:32.001Z</time></trkpt><trkpt lat="43.39962386530209" lon="10.869389344016898"><ele>500.0</ele><time>2026-04-18T11:23:33Z</time></trkpt><trkpt lat="43.39960605375785" lon="10.86925012060522"><ele>500.0</ele><time>2026-04-18T11:23:34Z</time></trkpt><trkpt lat="43.39957650754917" lon="10.86911232211708"><ele>500.0</ele><time>2026-04-18T11:23:35Z</time></trkpt><trkpt lat="43.39954708706904" lon="10.868965638811577"><ele>500.0</ele><time>2026-04-18T11:23:36Z</time></trkpt><trkpt lat="43.39951921724099" lon="10.868809651593555"><ele>500.25</ele><time>2026-04-18T11:23:37Z</time></trkpt><trkpt lat="43.39948527053315" lon="10.868662549192894"><ele>500.5</ele><time>2026-04-18T11:23:38Z</time></trkpt><trkpt lat="43.39945388030577" lon="10.86850111373781"><ele>500.75</ele><time>2026-04-18T11:23:39Z</time></trkpt><trkpt lat="43.39941788003165" lon="10.868349988023628"><ele>501.0</ele><time>2026-04-18T11:23:40Z</time></trkpt><trkpt lat="43.39938640598524" lon="10.868198694671381"><ele>501.0</ele><time>2026-04-18T11:23:41Z</time></trkpt><trkpt lat="43.399349735158864" lon="10.868053184832323"><ele>501.0</ele><time>2026-04-18T11:23:42Z</time></trkpt><trkpt lat="43.39932186533082" lon="10.867907674993265"><ele>501.0</ele><time>2026-04-18T11:23:43Z</time></trkpt><trkpt lat="43.39929118756521" lon="10.867766775200952"><ele>501.0</ele><time>2026-04-18T11:23:44Z</time></trkpt><trkpt lat="43.399273753206614" lon="10.867619253705133"><ele>501.0</ele><time>2026-04-18T11:23:45Z</time></trkpt><trkpt lat="43.399261808994595" lon="10.86746527814387"><ele>502.5</ele><time>2026-04-18T11:23:46Z</time></trkpt><trkpt lat="43.399250786791924" lon="10.86728347466408"><ele>504.0</ele><time>2026-04-18T11:23:47Z</time></trkpt><trkpt lat="43.39926118035186" lon="10.867127822722184"><ele>505.5</ele><time>2026-04-18T11:23:48Z</time></trkpt><trkpt lat="43.39926411401797" lon="10.866966554905163"><ele>507.0</ele><time>2026-04-18T11:23:49Z</time></trkpt><trkpt lat="43.39927123863566" lon="10.866790870214688"><ele>508.75</ele><time>2026-04-18T11:23:50Z</time></trkpt><trkpt lat="43.399272537830655" lon="10.866619292656766"><ele>510.5</ele><time>2026-04-18T11:23:51Z</time></trkpt><trkpt lat="43.39927681260127" lon="10.866444949070798"><ele>512.25</ele><time>2026-04-18T11:23:52Z</time></trkpt><trkpt lat="43.39928188365269" lon="10.866279825578319"><ele>514.0</ele><time>2026-04-18T11:23:53Z</time></trkpt><trkpt lat="43.39928544596154" lon="10.86612987333058"><ele>514.0</ele><time>2026-04-18T11:23:54Z</time></trkpt><trkpt lat="43.39929047510344" lon="10.865980926911222"><ele>514.0</ele><time>2026-04-18T11:23:55Z</time></trkpt><trkpt lat="43.399291858117465" lon="10.865819239999043"><ele>514.0</ele><time>2026-04-18T11:23:56Z</time></trkpt><trkpt lat="43.39927559722531" lon="10.86567792111157"><ele>514.0</ele><time>2026-04-18T11:23:57Z</time></trkpt><trkpt lat="43.39924999051112" lon="10.865542469556317"><ele>514.0</ele><time>2026-04-18T11:23:58Z</time></trkpt><trkpt lat="43.39921704963166" lon="10.86539897137402"><ele>514.75</ele><time>2026-04-18T11:23:59Z</time></trkpt><trkpt lat="43.39920577597189" lon="10.865210462371692"><ele>515.5</ele><time>2026-04-18T11:24:00Z</time></trkpt><trkpt lat="43.39920774571914" lon="10.865012314180717"><ele>516.25</ele><time>2026-04-18T11:24:01Z</time></trkpt><trkpt lat="43.39921998329777" lon="10.864823218445167"><ele>517.0</ele><time>2026-04-18T11:24:02Z</time></trkpt><trkpt lat="43.39923251424301" lon="10.864644264812455"><ele>517.0</ele><time>2026-04-18T11:24:03Z</time></trkpt><trkpt lat="43.39923888448942" lon="10.86446321570395"><ele>517.0</ele><time>2026-04-18T11:24:04Z</time></trkpt><trkpt lat="43.399249864782576" lon="10.864290799955711"><ele>517.0</ele><time>2026-04-18T11:24:05Z</time></trkpt><trkpt lat="43.39926398828942" lon="10.864110589037523"><ele>517.0</ele><time>2026-04-18T11:24:05.999Z</time></trkpt><trkpt lat="43.39926792778391" lon="10.863942280421838"><ele>516.5</ele><time>2026-04-18T11:24:06.999Z</time></trkpt><trkpt lat="43.399282847571556" lon="10.863757459456906"><ele>516.0</ele><time>2026-04-18T11:24:07.999Z</time></trkpt><trkpt lat="43.39929789308775" lon="10.86357741617678"><ele>515.5</ele><time>2026-04-18T11:24:08.999Z</time></trkpt><trkpt lat="43.399314112070385" lon="10.863387146974786"><ele>515.0</ele><time>2026-04-18T11:24:09.999Z</time></trkpt><trkpt lat="43.39932567909676" lon="10.863197045410855"><ele>513.75</ele><time>2026-04-18T11:24:10.999Z</time></trkpt><trkpt lat="43.39933816813249" lon="10.863008536408527"><ele>512.5</ele><time>2026-04-18T11:24:11.999Z</time></trkpt><trkpt lat="43.39935342319626" lon="10.862819273034914"><ele>511.25</ele><time>2026-04-18T11:24:12.999Z</time></trkpt><trkpt lat="43.39936566077489" lon="10.86262950674711"><ele>510.0</ele><time>2026-04-18T11:24:13.999Z</time></trkpt><trkpt lat="43.39937500659693" lon="10.862444685782178"><ele>508.25</ele><time>2026-04-18T11:24:14.999Z</time></trkpt><trkpt lat="43.39938883673716" lon="10.862256595875008"><ele>506.5</ele><time>2026-04-18T11:24:15.999Z</time></trkpt><trkpt lat="43.399400319944505" lon="10.86208032445131"><ele>504.75</ele><time>2026-04-18T11:24:16.999Z</time></trkpt><trkpt lat="43.39941188697088" lon="10.861901370818599"><ele>503.0</ele><time>2026-04-18T11:24:17.999Z</time></trkpt><trkpt lat="43.399428650777224" lon="10.861738175163847"><ele>501.0</ele><time>2026-04-18T11:24:18.999Z</time></trkpt><trkpt lat="43.3994436543839" lon="10.861569531272036"><ele>499.0</ele><time>2026-04-18T11:24:19.999Z</time></trkpt><trkpt lat="43.399452916386906" lon="10.8614021446657"><ele>497.0</ele><time>2026-04-18T11:24:20.999Z</time></trkpt><trkpt lat="43.39946351949442" lon="10.861246660361868"><ele>495.0</ele><time>2026-04-18T11:24:21.999Z</time></trkpt><trkpt lat="43.39947449978757" lon="10.861093606809956"><ele>494.0</ele><time>2026-04-18T11:24:22.999Z</time></trkpt><trkpt lat="43.39947969656754" lon="10.86094382220028"><ele>493.0</ele><time>2026-04-18T11:24:23.999Z</time></trkpt><trkpt lat="43.399491473141495" lon="10.860803760598284"><ele>492.0</ele><time>2026-04-18T11:24:24.999Z</time></trkpt><trkpt lat="43.399506434838656" lon="10.86066529155789"><ele>491.0</ele><time>2026-04-18T11:24:25.999Z</time></trkpt><trkpt lat="43.399514858651344" lon="10.860529504726511"><ele>490.0</ele><time>2026-04-18T11:24:26.999Z</time></trkpt><trkpt lat="43.399525377939824" lon="10.860389610762578"><ele>490.0</ele><time>2026-04-18T11:24:27.999Z</time></trkpt><trkpt lat="43.39953723833281" lon="10.860252482826692"><ele>490.0</ele><time>2026-04-18T11:24:28.999Z</time></trkpt><trkpt lat="43.39954997882563" lon="10.860121892775279"><ele>490.0</ele><time>2026-04-18T11:24:29.999Z</time></trkpt><trkpt lat="43.39956154585201" lon="10.85999540985642"><ele>490.0</ele><time>2026-04-18T11:24:30.999Z</time></trkpt><trkpt lat="43.39956925720293" lon="10.859863478700499"><ele>490.0</ele><time>2026-04-18T11:24:31.999Z</time></trkpt><trkpt lat="43.399578896391574" lon="10.859737833971957"><ele>489.2</ele><time>2026-04-18T11:24:32.999Z</time></trkpt><trkpt lat="43.39959079869408" lon="10.859605986635069"><ele>488.4</ele><time>2026-04-18T11:24:33.999Z</time></trkpt><trkpt lat="43.39961820751745" lon="10.85948587396262"><ele>487.6</ele><time>2026-04-18T11:24:34.999Z</time></trkpt><trkpt lat="43.39966305069942" lon="10.859369365508536"><ele>486.8</ele><time>2026-04-18T11:24:35.999Z</time></trkpt><trkpt lat="43.39972645979691" lon="10.859271883974651"><ele>486.0</ele><time>2026-04-18T11:24:36.999Z</time></trkpt><trkpt lat="43.3997977897929" lon="10.85917557590721"><ele>488.6</ele><time>2026-04-18T11:24:37.999Z</time></trkpt><trkpt lat="43.39987142481226" lon="10.859094355265478"><ele>491.20000000000005</ele><time>2026-04-18T11:24:38.999Z</time></trkpt><trkpt lat="43.399934917728785" lon="10.858989497656802"><ele>493.79999999999995</ele><time>2026-04-18T11:24:39.999Z</time></trkpt><trkpt lat="43.399997656274024" lon="10.858904924253801"><ele>496.4</ele><time>2026-04-18T11:24:40.999Z</time></trkpt><trkpt lat="43.40005792215783" lon="10.85881448351858"><ele>499.0</ele><time>2026-04-18T11:24:41.999Z</time></trkpt><trkpt lat="43.400125773664" lon="10.858722953135947"><ele>499.0</ele><time>2026-04-18T11:24:42.999Z</time></trkpt><trkpt lat="43.400192912708405" lon="10.85863418878136"><ele>499.0</ele><time>2026-04-18T11:24:43.999Z</time></trkpt><trkpt lat="43.40026235677618" lon="10.858539473275522"><ele>499.0</ele><time>2026-04-18T11:24:44.999Z</time></trkpt><trkpt lat="43.400331214110736" lon="10.858447188521604"><ele>499.0</ele><time>2026-04-18T11:24:45.999Z</time></trkpt><trkpt lat="43.40039311446566" lon="10.858351551006416"><ele>499.0</ele><time>2026-04-18T11:24:46.999Z</time></trkpt><trkpt lat="43.40044772256482" lon="10.858258511881212"><ele>501.4</ele><time>2026-04-18T11:24:47.999Z</time></trkpt><trkpt lat="43.40049545750338" lon="10.858186595152"><ele>503.79999999999995</ele><time>2026-04-18T11:24:48.999Z</time></trkpt><trkpt lat="43.40052533898819" lon="10.858039911846499"><ele>506.20000000000005</ele><time>2026-04-18T11:24:50.999Z</time></trkpt><trkpt lat="43.400457780848626" lon="10.85798190907655"><ele>508.6</ele><time>2026-04-18T11:24:52.999Z</time></trkpt><trkpt lat="43.400327274616245" lon="10.858021387840488"><ele>511.0</ele><time>2026-04-18T11:24:54.999Z</time></trkpt><trkpt lat="43.40024902955014" lon="10.858052568520288"><ele>506.0</ele><time>2026-04-18T11:24:55.999Z</time></trkpt><trkpt lat="43.40016131293345" lon="10.858090370903591"><ele>501.0</ele><time>2026-04-18T11:24:56.999Z</time></trkpt><trkpt lat="43.40006416667569" lon="10.858134040619115"><ele>496.0</ele><time>2026-04-18T11:24:57.999Z</time></trkpt><trkpt lat="43.39996278755683" lon="10.8581797219914"><ele>491.0</ele><time>2026-04-18T11:24:58.999Z</time></trkpt><trkpt lat="43.399856924119774" lon="10.858215596536974"><ele>486.0</ele><time>2026-04-18T11:24:59.999Z</time></trkpt><trkpt lat="43.39974955194015" lon="10.858251638720612"><ele>484.8</ele><time>2026-04-18T11:25:00.999Z</time></trkpt><trkpt lat="43.399642934131805" lon="10.858296398083548"><ele>483.6</ele><time>2026-04-18T11:25:01.999Z</time></trkpt><trkpt lat="43.399538914713446" lon="10.858330009515266"><ele>482.4</ele><time>2026-04-18T11:25:02.999Z</time></trkpt><trkpt lat="43.39943711649943" lon="10.85837468505917"><ele>481.2</ele><time>2026-04-18T11:25:03.999Z</time></trkpt><trkpt lat="43.399340934160534" lon="10.85843092762945"><ele>480.0</ele><time>2026-04-18T11:25:04.999Z</time></trkpt><trkpt lat="43.399248062673394" lon="10.858505107472519"><ele>480.0</ele><time>2026-04-18T11:25:05.999Z</time></trkpt><trkpt lat="43.39916545901764" lon="10.858591776351313"><ele>480.0</ele><time>2026-04-18T11:25:06.999Z</time></trkpt><trkpt lat="43.39908398691881" lon="10.85868305527685"><ele>480.0</ele><time>2026-04-18T11:25:07.999Z</time></trkpt><trkpt lat="43.39901781179327" lon="10.858796713883857"><ele>480.0</ele><time>2026-04-18T11:25:08.999Z</time></trkpt><trkpt lat="43.398955240886096" lon="10.858916407461146"><ele>480.0</ele><time>2026-04-18T11:25:09.999Z</time></trkpt><trkpt lat="43.398905075195614" lon="10.859042471284846"><ele>480.0</ele><time>2026-04-18T11:25:10.999Z</time></trkpt><trkpt lat="43.39886153120864" lon="10.859151771302203"><ele>480.0</ele><time>2026-04-18T11:25:11.999Z</time></trkpt><trkpt lat="43.39882561475355" lon="10.859245145703534"><ele>480.0</ele><time>2026-04-18T11:25:12.999Z</time></trkpt><trkpt lat="43.398780226747874" lon="10.859327791268806"><ele>480.0</ele><time>2026-04-18T11:25:14.999Z</time></trkpt><trkpt lat="43.3986986289205" lon="10.859376657764296"><ele>480.0</ele><time>2026-04-18T11:25:17.999Z</time></trkpt><trkpt lat="43.39863429781366" lon="10.85949853063641"><ele>480.0</ele><time>2026-04-18T11:25:19.999Z</time></trkpt><trkpt lat="43.39861535471249" lon="10.85958310403941"><ele>477.3333333333333</ele><time>2026-04-18T11:25:20.999Z</time></trkpt><trkpt lat="43.39859884236324" lon="10.859682848687152"><ele>474.66666666666663</ele><time>2026-04-18T11:25:21.999Z</time></trkpt><trkpt lat="43.39859029282201" lon="10.859794076542238"><ele>472.0</ele><time>2026-04-18T11:25:22.999Z</time></trkpt><trkpt lat="43.39859351985473" lon="10.859906477863769"><ele>469.3333333333333</ele><time>2026-04-18T11:25:23.999Z</time></trkpt><trkpt lat="43.39861891702134" lon="10.860039917762261"><ele>466.66666666666663</ele><time>2026-04-18T11:25:24.999Z</time></trkpt><trkpt lat="43.39864674493987" lon="10.8601829968494"><ele>464.0</ele><time>2026-04-18T11:25:25.999Z</time></trkpt><trkpt lat="43.39866434693653" lon="10.860327584679109"><ele>464.0</ele><time>2026-04-18T11:25:26.999Z</time></trkpt><trkpt lat="43.398676207329515" lon="10.860487092296463"><ele>464.0</ele><time>2026-04-18T11:25:27.999Z</time></trkpt><trkpt lat="43.39868454732317" lon="10.860624136413318"><ele>464.0</ele><time>2026-04-18T11:25:28.999Z</time></trkpt><trkpt lat="43.39868203275222" lon="10.860756570483428"><ele>464.0</ele><time>2026-04-18T11:25:29.999Z</time></trkpt><trkpt lat="43.39867021426875" lon="10.860877940441352"><ele>464.0</ele><time>2026-04-18T11:25:30.999Z</time></trkpt><trkpt lat="43.39864770885873" lon="10.860989335934502"><ele>464.8333333333333</ele><time>2026-04-18T11:25:31.999Z</time></trkpt><trkpt lat="43.39861627672184" lon="10.86108505726872"><ele>465.66666666666663</ele><time>2026-04-18T11:25:32.998Z</time></trkpt><trkpt lat="43.39856975715924" lon="10.861170971776229"><ele>466.5</ele><time>2026-04-18T11:25:33.998Z</time></trkpt><trkpt lat="43.39850689288545" lon="10.861260322864037"><ele>467.33333333333337</ele><time>2026-04-18T11:25:34.998Z</time></trkpt><trkpt lat="43.39843644298929" lon="10.861361157159191"><ele>468.1666666666667</ele><time>2026-04-18T11:25:35.998Z</time></trkpt><trkpt lat="43.39836532254088" lon="10.861460063616615"><ele>469.0</ele><time>2026-04-18T11:25:36.998Z</time></trkpt><trkpt lat="43.39830090761501" lon="10.861578164632302"><ele>469.0</ele><time>2026-04-18T11:25:37.998Z</time></trkpt><trkpt lat="43.39823959399331" lon="10.861691571782213"><ele>469.0</ele><time>2026-04-18T11:25:38.998Z</time></trkpt><trkpt lat="43.39818259705174" lon="10.861804056922775"><ele>469.0</ele><time>2026-04-18T11:25:39.998Z</time></trkpt><trkpt lat="43.39812388182003" lon="10.861901203180535"><ele>469.0</ele><time>2026-04-18T11:25:40.998Z</time></trkpt><trkpt lat="43.39806545995492" lon="10.86199424230574"><ele>469.0</ele><time>2026-04-18T11:25:41.998Z</time></trkpt><trkpt lat="43.398006032261435" lon="10.862084515402897"><ele>467.6</ele><time>2026-04-18T11:25:42.998Z</time></trkpt><trkpt lat="43.397933193522874" lon="10.862170765186532"><ele>466.2</ele><time>2026-04-18T11:25:43.998Z</time></trkpt><trkpt lat="43.39785230815727" lon="10.862237904230936"><ele>464.80000000000007</ele><time>2026-04-18T11:25:44.998Z</time></trkpt><trkpt lat="43.3977730991723" lon="10.862306132922752"><ele>463.40000000000003</ele><time>2026-04-18T11:25:45.998Z</time></trkpt><trkpt lat="43.397704828570966" lon="10.862343097115739"><ele>462.0</ele><time>2026-04-18T11:25:46.998Z</time></trkpt><trkpt lat="43.397594145539585" lon="10.862402943904383"><ele>462.0</ele><time>2026-04-18T11:25:48.998Z</time></trkpt><trkpt lat="43.3975328738274" lon="10.862436639155133"><ele>462.0</ele><time>2026-04-18T11:25:49.998Z</time></trkpt><trkpt lat="43.397469087544266" lon="10.86248290726064"><ele>462.0</ele><time>2026-04-18T11:25:50.998Z</time></trkpt><trkpt lat="43.39738807645011" lon="10.862506292770489"><ele>462.0</ele><time>2026-04-18T11:25:51.998Z</time></trkpt><trkpt lat="43.3972905110972" lon="10.862514590854628"><ele>462.0</ele><time>2026-04-18T11:25:52.998Z</time></trkpt><trkpt lat="43.39718816805947" lon="10.86252691225229"><ele>462.0</ele><time>2026-04-18T11:25:53.998Z</time></trkpt><trkpt lat="43.39708771094996" lon="10.862504784027918"><ele>461.6</ele><time>2026-04-18T11:25:54.998Z</time></trkpt><trkpt lat="43.39699173815865" lon="10.862469999129756"><ele>461.20000000000005</ele><time>2026-04-18T11:25:55.998Z</time></trkpt><trkpt lat="43.39689890858102" lon="10.862437812621577"><ele>460.8</ele><time>2026-04-18T11:25:56.998Z</time></trkpt><trkpt lat="43.39680046312827" lon="10.862420797358139"><ele>460.4</ele><time>2026-04-18T11:25:57.998Z</time></trkpt><trkpt lat="43.39670930993128" lon="10.862431526194198"><ele>460.0</ele><time>2026-04-18T11:25:58.998Z</time></trkpt><trkpt lat="43.39662427552361" lon="10.862448290000541"><ele>460.0</ele><time>2026-04-18T11:25:59.998Z</time></trkpt><trkpt lat="43.396528596098904" lon="10.862470082948787"><ele>460.0</ele><time>2026-04-18T11:26:00.998Z</time></trkpt><trkpt lat="43.396442974958006" lon="10.86250101217149"><ele>460.0</ele><time>2026-04-18T11:26:01.998Z</time></trkpt><trkpt lat="43.39635488115567" lon="10.862523559491022"><ele>460.0</ele><time>2026-04-18T11:26:02.998Z</time></trkpt><trkpt lat="43.39626163248289" lon="10.862563122073992"><ele>460.0</ele><time>2026-04-18T11:26:03.998Z</time></trkpt><trkpt lat="43.39616645597238" lon="10.862610647464974"><ele>457.8</ele><time>2026-04-18T11:26:04.998Z</time></trkpt><trkpt lat="43.39606880680043" lon="10.862650461505039"><ele>455.6</ele><time>2026-04-18T11:26:05.998Z</time></trkpt><trkpt lat="43.39596914597172" lon="10.86269203574477"><ele>453.4</ele><time>2026-04-18T11:26:06.998Z</time></trkpt><trkpt lat="43.395875310565714" lon="10.862709302465303"><ele>451.2</ele><time>2026-04-18T11:26:07.998Z</time></trkpt><trkpt lat="43.39577447627056" lon="10.862702513123734"><ele>449.0</ele><time>2026-04-18T11:26:08.998Z</time></trkpt><trkpt lat="43.39567686900813" lon="10.862670829529746"><ele>449.0</ele><time>2026-04-18T11:26:09.998Z</time></trkpt><trkpt lat="43.39557972275037" lon="10.862625315795524"><ele>449.0</ele><time>2026-04-18T11:26:10.998Z</time></trkpt><trkpt lat="43.39548358232099" lon="10.862598912800534"><ele>449.0</ele><time>2026-04-18T11:26:11.998Z</time></trkpt><trkpt lat="43.39538199365455" lon="10.862575946385844"><ele>449.0</ele><time>2026-04-18T11:26:12.998Z</time></trkpt><trkpt lat="43.39529016990531" lon="10.862551052133425"><ele>449.0</ele><time>2026-04-18T11:26:13.998Z</time></trkpt><trkpt lat="43.39520710524488" lon="10.862518865625246"><ele>447.8333333333333</ele><time>2026-04-18T11:26:14.998Z</time></trkpt><trkpt lat="43.39512714188862" lon="10.86249170825897"><ele>446.66666666666663</ele><time>2026-04-18T11:26:15.998Z</time></trkpt><trkpt lat="43.3950443705948" lon="10.862488104040606"><ele>445.5</ele><time>2026-04-18T11:26:16.998Z</time></trkpt><trkpt lat="43.394966251257244" lon="10.862507466236933"><ele>444.33333333333337</ele><time>2026-04-18T11:26:17.998Z</time></trkpt><trkpt lat="43.39488536589164" lon="10.862541245306714"><ele>443.1666666666667</ele><time>2026-04-18T11:26:18.998Z</time></trkpt><trkpt lat="43.39480037339348" lon="10.862583322460635"><ele>442.0</ele><time>2026-04-18T11:26:19.998Z</time></trkpt><trkpt lat="43.394709262106005" lon="10.862632608051284"><ele>439.40000000000003</ele><time>2026-04-18T11:26:20.998Z</time></trkpt><trkpt lat="43.394623263779465" lon="10.862680468718393"><ele>436.80000000000007</ele><time>2026-04-18T11:26:21.998Z</time></trkpt><trkpt lat="43.394540492485646" lon="10.862740734602196"><ele>434.2</ele><time>2026-04-18T11:26:22.998Z</time></trkpt><trkpt lat="43.39444665707964" lon="10.862810220579489"><ele>431.6</ele><time>2026-04-18T11:26:23.998Z</time></trkpt><trkpt lat="43.394349888007525" lon="10.862885741527064"><ele>429.0</ele><time>2026-04-18T11:26:24.998Z</time></trkpt><trkpt lat="43.394247000146095" lon="10.862955227504356"><ele>429.0</ele><time>2026-04-18T11:26:25.998Z</time></trkpt><trkpt lat="43.39414071761388" lon="10.863012475903018"><ele>429.0</ele><time>2026-04-18T11:26:26.998Z</time></trkpt><trkpt lat="43.39402848393041" lon="10.863064192245586"><ele>429.0</ele><time>2026-04-18T11:26:27.998Z</time></trkpt><trkpt lat="43.393924883607205" lon="10.863103671009524"><ele>429.0</ele><time>2026-04-18T11:26:28.998Z</time></trkpt><trkpt lat="43.39383754417616" lon="10.863119931901677"><ele>429.0</ele><time>2026-04-18T11:26:29.998Z</time></trkpt><trkpt lat="43.39375963438618" lon="10.863110125074966"><ele>426.3333333333333</ele><time>2026-04-18T11:26:30.998Z</time></trkpt><trkpt lat="43.39370485864895" lon="10.863063102598174"><ele>423.66666666666663</ele><time>2026-04-18T11:26:31.998Z</time></trkpt><trkpt lat="43.3936764439972" lon="10.862981211404188"><ele>421.0</ele><time>2026-04-18T11:26:32.998Z</time></trkpt><trkpt lat="43.39366399687099" lon="10.862865373502357"><ele>418.3333333333333</ele><time>2026-04-18T11:26:33.998Z</time></trkpt><trkpt lat="43.39365791999119" lon="10.86271793582557"><ele>415.66666666666663</ele><time>2026-04-18T11:26:34.998Z</time></trkpt><trkpt lat="43.39363658804762" lon="10.862552141780837"><ele>413.0</ele><time>2026-04-18T11:26:35.998Z</time></trkpt><trkpt lat="43.39360331189203" lon="10.862364303330763"><ele>412.25</ele><time>2026-04-18T11:26:36.998Z</time></trkpt><trkpt lat="43.393565719056305" lon="10.862181494022591"><ele>411.5</ele><time>2026-04-18T11:26:37.998Z</time></trkpt><trkpt lat="43.393527790944454" lon="10.86200354621826"><ele>410.75</ele><time>2026-04-18T11:26:38.998Z</time></trkpt><trkpt lat="43.39347967882025" lon="10.861831381927114"><ele>410.0</ele><time>2026-04-18T11:26:39.998Z</time></trkpt><trkpt lat="43.39342687283027" lon="10.86166550406335"><ele>410.0</ele><time>2026-04-18T11:26:40.998Z</time></trkpt><trkpt lat="43.39337042071241" lon="10.86150716991244"><ele>410.0</ele><time>2026-04-18T11:26:41.998Z</time></trkpt><trkpt lat="43.39331195693779" lon="10.861347075561863"><ele>410.0</ele><time>2026-04-18T11:26:42.998Z</time></trkpt><trkpt lat="43.39326702993679" lon="10.861196536580902"><ele>410.0</ele><time>2026-04-18T11:26:43.998Z</time></trkpt><trkpt lat="43.39322947901058" lon="10.861053625131827"><ele>409.49999999999994</ele><time>2026-04-18T11:26:44.998Z</time></trkpt><trkpt lat="43.393196621950146" lon="10.860928902412635"><ele>409.0</ele><time>2026-04-18T11:26:45.998Z</time></trkpt><trkpt lat="43.39316380679923" lon="10.860812310139519"><ele>408.5</ele><time>2026-04-18T11:26:46.998Z</time></trkpt><trkpt lat="43.393124705220934" lon="10.860732514421326"><ele>408.0</ele><time>2026-04-18T11:26:47.998Z</time></trkpt><trkpt lat="43.393013603094396" lon="10.860686497772914"><ele>407.49999999999994</ele><time>2026-04-18T11:26:49.998Z</time></trkpt><trkpt lat="43.39296041991877" lon="10.860735867182594"><ele>407.0</ele><time>2026-04-18T11:26:50.998Z</time></trkpt><trkpt lat="43.39291913904565" lon="10.86083142087875"><ele>403.0</ele><time>2026-04-18T11:26:51.998Z</time></trkpt><trkpt lat="43.3928960049929" lon="10.860949018980246"><ele>399.0</ele><time>2026-04-18T11:26:52.998Z</time></trkpt><trkpt lat="43.39288862891811" lon="10.861091511334163"><ele>395.0</ele><time>2026-04-18T11:26:53.998Z</time></trkpt><trkpt lat="43.392883893142816" lon="10.861242134134155"><ele>391.0</ele><time>2026-04-18T11:26:54.998Z</time></trkpt><trkpt lat="43.39287521787303" lon="10.861385129402262"><ele>387.0</ele><time>2026-04-18T11:26:55.998Z</time></trkpt><trkpt lat="43.3928476414116" lon="10.861528376127463"><ele>387.0</ele><time>2026-04-18T11:26:56.998Z</time></trkpt><trkpt lat="43.3927932009505" lon="10.861644716943484"><ele>387.0</ele><time>2026-04-18T11:26:57.998Z</time></trkpt><trkpt lat="43.39272643909174" lon="10.861744126315099"><ele>387.0</ele><time>2026-04-18T11:26:58.998Z</time></trkpt><trkpt lat="43.39264966085869" lon="10.861816713596564"><ele>387.0</ele><time>2026-04-18T11:26:59.998Z</time></trkpt><trkpt lat="43.39259044271278" lon="10.86185652763663"><ele>387.0</ele><time>2026-04-18T11:27:00.998Z</time></trkpt><trkpt lat="43.39251948990243" lon="10.861887456859334"><ele>387.0</ele><time>2026-04-18T11:27:03.998Z</time></trkpt><trkpt lat="43.39244396895486" lon="10.861793914819938"><ele>387.0</ele><time>2026-04-18T11:27:10.997Z</time></trkpt><trkpt lat="43.39240729812848" lon="10.861654859046322"><ele>387.0</ele><time>2026-04-18T11:27:12.997Z</time></trkpt><trkpt lat="43.39238324206638" lon="10.861563580120784"><ele>387.0</ele><time>2026-04-18T11:27:13.997Z</time></trkpt><trkpt lat="43.39235470168608" lon="10.861463332558852"><ele>387.0</ele><time>2026-04-18T11:27:14.997Z</time></trkpt><trkpt lat="43.392319162416634" lon="10.8613503445041"><ele>387.0</ele><time>2026-04-18T11:27:15.997Z</time></trkpt><trkpt lat="43.39228165339994" lon="10.861228639270049"><ele>387.0</ele><time>2026-04-18T11:27:16.997Z</time></trkpt><trkpt lat="43.39224339001196" lon="10.861107688407284"><ele>387.0</ele><time>2026-04-18T11:27:17.997Z</time></trkpt><trkpt lat="43.39219452351647" lon="10.860986402268392"><ele>387.0</ele><time>2026-04-18T11:27:18.997Z</time></trkpt><trkpt lat="43.392128138843354" lon="10.86087299511848"><ele>387.0</ele><time>2026-04-18T11:27:19.997Z</time></trkpt><trkpt lat="43.39204339780229" lon="10.860775848860722"><ele>387.0</ele><time>2026-04-18T11:27:20.997Z</time></trkpt><trkpt lat="43.391942563507136" lon="10.860710805292111"><ele>387.0</ele><time>2026-04-18T11:27:21.997Z</time></trkpt><trkpt lat="43.391833598765906" lon="10.860655233274084"><ele>382.8</ele><time>2026-04-18T11:27:22.997Z</time></trkpt><trkpt lat="43.391721700358566" lon="10.860601589093786"><ele>378.6</ele><time>2026-04-18T11:27:23.997Z</time></trkpt><trkpt lat="43.39161667511183" lon="10.860548950741869"><ele>374.40000000000003</ele><time>2026-04-18T11:27:24.997Z</time></trkpt><trkpt lat="43.39151303287911" lon="10.860494719828349"><ele>370.20000000000005</ele><time>2026-04-18T11:27:25.997Z</time></trkpt><trkpt lat="43.391426573547896" lon="10.860438477258068"><ele>366.0</ele><time>2026-04-18T11:27:26.997Z</time></trkpt><trkpt lat="43.39135591410416" lon="10.86035599933086"><ele>363.20000000000005</ele><time>2026-04-18T11:27:27.997Z</time></trkpt><trkpt lat="43.39130319193321" lon="10.860252566645723"><ele>360.40000000000003</ele><time>2026-04-18T11:27:28.997Z</time></trkpt><trkpt lat="43.39126505427378" lon="10.86013371125875"><ele>357.6</ele><time>2026-04-18T11:27:29.997Z</time></trkpt><trkpt lat="43.391228090080794" lon="10.85999591277061"><ele>354.8</ele><time>2026-04-18T11:27:30.997Z</time></trkpt><trkpt lat="43.39118756357896" lon="10.859850738207678"><ele>352.0</ele><time>2026-04-18T11:27:31.997Z</time></trkpt><trkpt lat="43.39115080893355" lon="10.859694583351592"><ele>351.25</ele><time>2026-04-18T11:27:32.997Z</time></trkpt><trkpt lat="43.391113760921534" lon="10.859532561163286"><ele>350.5</ele><time>2026-04-18T11:27:33.997Z</time></trkpt><trkpt lat="43.39107675481903" lon="10.859358552853445"><ele>349.75</ele><time>2026-04-18T11:27:34.997Z</time></trkpt><trkpt lat="43.391045155044075" lon="10.859181191782335"><ele>349.0</ele><time>2026-04-18T11:27:35.997Z</time></trkpt><trkpt lat="43.39101686612087" lon="10.859001986692528"><ele>348.25</ele><time>2026-04-18T11:27:36.997Z</time></trkpt><trkpt lat="43.390994989353594" lon="10.8588169142705"><ele>347.5</ele><time>2026-04-18T11:27:37.997Z</time></trkpt><trkpt lat="43.3909696340965" lon="10.858630919839124"><ele>346.75</ele><time>2026-04-18T11:27:38.997Z</time></trkpt><trkpt lat="43.39095173873323" lon="10.858452469120602"><ele>346.0</ele><time>2026-04-18T11:27:39.997Z</time></trkpt><trkpt lat="43.39093438819366" lon="10.858288602913598"><ele>344.6</ele><time>2026-04-18T11:27:40.997Z</time></trkpt><trkpt lat="43.3909170376541" lon="10.858148792768697"><ele>343.20000000000005</ele><time>2026-04-18T11:27:41.997Z</time></trkpt><trkpt lat="43.39089159857797" lon="10.858019879097917"><ele>341.79999999999995</ele><time>2026-04-18T11:27:42.997Z</time></trkpt><trkpt lat="43.39084956333357" lon="10.857920050631144"><ele>340.4</ele><time>2026-04-18T11:27:43.997Z</time></trkpt><trkpt lat="43.3907822566511" lon="10.857837237427809"><ele>339.0</ele><time>2026-04-18T11:27:44.997Z</time></trkpt><trkpt lat="43.390697515610036" lon="10.857757525528648"><ele>339.0</ele><time>2026-04-18T11:27:45.997Z</time></trkpt><trkpt lat="43.390601500909206" lon="10.857679322372057"><ele>339.0</ele><time>2026-04-18T11:27:46.997Z</time></trkpt><trkpt lat="43.390500121790346" lon="10.857598017911293"><ele>339.0</ele><time>2026-04-18T11:27:47.997Z</time></trkpt><trkpt lat="43.39039979040938" lon="10.857512690137007"><ele>339.0</ele><time>2026-04-18T11:27:48.997Z</time></trkpt><trkpt lat="43.39029815983343" lon="10.857421327392437"><ele>337.0</ele><time>2026-04-18T11:27:49.997Z</time></trkpt><trkpt lat="43.3902148437159" lon="10.857351841415145"><ele>335.0</ele><time>2026-04-18T11:27:50.997Z</time></trkpt><trkpt lat="43.39014053814429" lon="10.857290653521993"><ele>333.0</ele><time>2026-04-18T11:27:51.997Z</time></trkpt><trkpt lat="43.390077422413405" lon="10.857244804511645"><ele>331.0</ele><time>2026-04-18T11:27:52.997Z</time></trkpt><trkpt lat="43.3900129236685" lon="10.857200799519994"><ele>329.0</ele><time>2026-04-18T11:27:53.997Z</time></trkpt><trkpt lat="43.389943982514914" lon="10.857155453423836"><ele>327.0</ele><time>2026-04-18T11:27:54.997Z</time></trkpt><trkpt lat="43.389875795732614" lon="10.857107089842536"><ele>327.0</ele><time>2026-04-18T11:27:55.997Z</time></trkpt><trkpt lat="43.38980903387385" lon="10.85704573431132"><ele>327.0</ele><time>2026-04-18T11:27:56.997Z</time></trkpt><trkpt lat="43.389753461855825" lon="10.856959149251558"><ele>327.0</ele><time>2026-04-18T11:27:57.997Z</time></trkpt><trkpt lat="43.389706732745644" lon="10.856879185895302"><ele>327.0</ele><time>2026-04-18T11:27:58.997Z</time></trkpt><trkpt lat="43.38965396866518" lon="10.856804167861917"><ele>327.0</ele><time>2026-04-18T11:27:59.997Z</time></trkpt><trkpt lat="43.38958766781109" lon="10.856738537560084"><ele>327.0</ele><time>2026-04-18T11:28:00.997Z</time></trkpt><trkpt lat="43.38950908746886" lon="10.856677601124026"><ele>325.6666666666667</ele><time>2026-04-18T11:28:01.997Z</time></trkpt><trkpt lat="43.389431932050165" lon="10.85662110709665"><ele>324.3333333333333</ele><time>2026-04-18T11:28:02.997Z</time></trkpt><trkpt lat="43.38935628537404" lon="10.85655514151869"><ele>323.0</ele><time>2026-04-18T11:28:03.997Z</time></trkpt><trkpt lat="43.38928520683515" lon="10.85649261252103"><ele>321.66666666666663</ele><time>2026-04-18T11:28:04.997Z</time></trkpt><trkpt lat="43.38920930870193" lon="10.856431592265942"><ele>320.3333333333333</ele><time>2026-04-18T11:28:05.997Z</time></trkpt><trkpt lat="43.38913190182614" lon="10.85637040437279"><ele>319.0</ele><time>2026-04-18T11:28:06.997Z</time></trkpt><trkpt lat="43.389047076966044" lon="10.856291446844914"><ele>319.0</ele><time>2026-04-18T11:28:07.997Z</time></trkpt><trkpt lat="43.388965101953026" lon="10.856205616156437"><ele>319.0</ele><time>2026-04-18T11:28:08.997Z</time></trkpt><trkpt lat="43.38888291739243" lon="10.856127664456942"><ele>319.0</ele><time>2026-04-18T11:28:09.997Z</time></trkpt><trkpt lat="43.388807689811465" lon="10.856046443815208"><ele>319.0</ele><time>2026-04-18T11:28:10.997Z</time></trkpt><trkpt lat="43.38873845529127" lon="10.855958685289002"><ele>319.0</ele><time>2026-04-18T11:28:11.997Z</time></trkpt><trkpt lat="43.38868082970696" lon="10.855863466868973"><ele>317.2</ele><time>2026-04-18T11:28:12.997Z</time></trkpt><trkpt lat="43.38862827517408" lon="10.855755507956124"><ele>315.4</ele><time>2026-04-18T11:28:13.997Z</time></trkpt><trkpt lat="43.38857341561782" lon="10.855635730559802"><ele>313.6</ele><time>2026-04-18T11:28:14.997Z</time></trkpt><trkpt lat="43.38851956188994" lon="10.855505308146453"><ele>311.8</ele><time>2026-04-18T11:28:15.997Z</time></trkpt><trkpt lat="43.38846667208093" lon="10.85537128151474"><ele>310.0</ele><time>2026-04-18T11:28:16.997Z</time></trkpt><trkpt lat="43.388408543582436" lon="10.855239685634947"><ele>309.4</ele><time>2026-04-18T11:28:17.997Z</time></trkpt><trkpt lat="43.38835481558311" lon="10.855114879096723"><ele>308.8</ele><time>2026-04-18T11:28:18.997Z</time></trkpt><trkpt lat="43.38830184195506" lon="10.854987977082706"><ele>308.2</ele><time>2026-04-18T11:28:19.997Z</time></trkpt><trkpt lat="43.38824911978411" lon="10.854864008734799"><ele>307.6</ele><time>2026-04-18T11:28:20.997Z</time></trkpt><trkpt lat="43.3881978225367" lon="10.854742052043653"><ele>307.0</ele><time>2026-04-18T11:28:21.997Z</time></trkpt><trkpt lat="43.388144681270596" lon="10.854625375951505"><ele>307.0</ele><time>2026-04-18T11:28:22.997Z</time></trkpt><trkpt lat="43.388089234981116" lon="10.854519428695417"><ele>307.0</ele><time>2026-04-18T11:28:23.997Z</time></trkpt><trkpt lat="43.388018030713674" lon="10.854418091486073"><ele>307.0</ele><time>2026-04-18T11:28:24.997Z</time></trkpt><trkpt lat="43.387938612181124" lon="10.854321448142505"><ele>307.0</ele><time>2026-04-18T11:28:25.997Z</time></trkpt><trkpt lat="43.387847249436554" lon="10.85423033685503"><ele>307.0</ele><time>2026-04-18T11:28:26.997Z</time></trkpt><trkpt lat="43.38775886226761" lon="10.854140231395935"><ele>304.2</ele><time>2026-04-18T11:28:27.997Z</time></trkpt><trkpt lat="43.387667038518366" lon="10.854048030461048"><ele>301.4</ele><time>2026-04-18T11:28:28.997Z</time></trkpt><trkpt lat="43.38758958973306" lon="10.853962367410634"><ele>298.6</ele><time>2026-04-18T11:28:29.997Z</time></trkpt><trkpt lat="43.387523163150426" lon="10.85388936103401"><ele>295.8</ele><time>2026-04-18T11:28:30.997Z</time></trkpt><trkpt lat="43.387465914751765" lon="10.853823479275082"><ele>293.0</ele><time>2026-04-18T11:28:31.997Z</time></trkpt><trkpt lat="43.387403595301684" lon="10.85375206546006"><ele>293.0</ele><time>2026-04-18T11:28:32.997Z</time></trkpt><trkpt lat="43.38733897082823" lon="10.853682328025673"><ele>293.0</ele><time>2026-04-18T11:28:33.997Z</time></trkpt><trkpt lat="43.38726474907565" lon="10.853641172881101"><ele>293.0</ele><time>2026-04-18T11:28:34.997Z</time></trkpt><trkpt lat="43.38717690673041" lon="10.853632036606644"><ele>293.0</ele><time>2026-04-18T11:28:35.997Z</time></trkpt><trkpt lat="43.38709011212307" lon="10.853636814291452"><ele>293.0</ele><time>2026-04-18T11:28:36.997Z</time></trkpt><trkpt lat="43.387012537609216" lon="10.853654081011985"><ele>293.0</ele><time>2026-04-18T11:28:37.997Z</time></trkpt><trkpt lat="43.386930604505714" lon="10.853680064911817"><ele>291.5</ele><time>2026-04-18T11:28:38.997Z</time></trkpt><trkpt lat="43.38685013823527" lon="10.853713676343535"><ele>290.0</ele><time>2026-04-18T11:28:39.997Z</time></trkpt><trkpt lat="43.38677289899754" lon="10.853757513697122"><ele>288.5</ele><time>2026-04-18T11:28:40.997Z</time></trkpt><trkpt lat="43.386708106886026" lon="10.853819036866401"><ele>287.0</ele><time>2026-04-18T11:28:41.996Z</time></trkpt><trkpt lat="43.38666007858085" lon="10.853903694088434"><ele>285.5</ele><time>2026-04-18T11:28:42.996Z</time></trkpt><trkpt lat="43.38663644161391" lon="10.854000002155875"><ele>284.0</ele><time>2026-04-18T11:28:43.996Z</time></trkpt><trkpt lat="43.38663070001024" lon="10.854107877249692"><ele>284.0</ele><time>2026-04-18T11:28:44.996Z</time></trkpt><trkpt lat="43.38662835307735" lon="10.854214075962878"><ele>284.0</ele><time>2026-04-18T11:28:45.996Z</time></trkpt><trkpt lat="43.3866239944877" lon="10.854322034875727"><ele>284.0</ele><time>2026-04-18T11:28:46.996Z</time></trkpt><trkpt lat="43.386621312278685" lon="10.854425886656022"><ele>284.0</ele><time>2026-04-18T11:28:47.996Z</time></trkpt><trkpt lat="43.386620180721756" lon="10.85453275592146"><ele>284.0</ele><time>2026-04-18T11:28:48.996Z</time></trkpt><trkpt lat="43.386557400267" lon="10.854647336537814"><ele>284.0</ele><time>2026-04-18T11:28:50.996Z</time></trkpt><trkpt lat="43.38642052378821" lon="10.85469008424399"><ele>281.33333333333337</ele><time>2026-04-18T11:28:52.996Z</time></trkpt><trkpt lat="43.38633838113713" lon="10.85470869206903"><ele>278.6666666666667</ele><time>2026-04-18T11:28:53.996Z</time></trkpt><trkpt lat="43.386253556277026" lon="10.8547223545712"><ele>276.0</ele><time>2026-04-18T11:28:54.996Z</time></trkpt><trkpt lat="43.386165839660336" lon="10.854744063700414"><ele>273.3333333333333</ele><time>2026-04-18T11:28:55.996Z</time></trkpt><trkpt lat="43.38608453519957" lon="10.85478832014916"><ele>270.66666666666663</ele><time>2026-04-18T11:28:56.996Z</time></trkpt><trkpt lat="43.38601890489774" lon="10.854868870238638"><ele>268.0</ele><time>2026-04-18T11:28:57.996Z</time></trkpt><trkpt lat="43.38596111167537" lon="10.854962077001906"><ele>268.0</ele><time>2026-04-18T11:28:58.996Z</time></trkpt><trkpt lat="43.38589879222529" lon="10.85504287854848"><ele>268.0</ele><time>2026-04-18T11:28:59.996Z</time></trkpt><trkpt lat="43.385826498310436" lon="10.855093086148477"><ele>268.0</ele><time>2026-04-18T11:29:00.996Z</time></trkpt><trkpt lat="43.38574372701662" lon="10.85510448553679"><ele>268.0</ele><time>2026-04-18T11:29:01.996Z</time></trkpt><trkpt lat="43.385659572708775" lon="10.855075065056658"><ele>268.0</ele><time>2026-04-18T11:29:02.996Z</time></trkpt><trkpt lat="43.38556531820761" lon="10.855020834143138"><ele>268.0</ele><time>2026-04-18T11:29:03.996Z</time></trkpt><trkpt lat="43.38545882612782" lon="10.854963166649318"><ele>265.0</ele><time>2026-04-18T11:29:04.996Z</time></trkpt><trkpt lat="43.38534508370178" lon="10.85490415805099"><ele>262.0</ele><time>2026-04-18T11:29:05.996Z</time></trkpt><trkpt lat="43.38523121554719" lon="10.85484355689106"><ele>259.0</ele><time>2026-04-18T11:29:06.996Z</time></trkpt><trkpt lat="43.38510942649411" lon="10.854792175824619"><ele>256.0</ele><time>2026-04-18T11:29:07.996Z</time></trkpt><trkpt lat="43.38499782145338" lon="10.854738280187226"><ele>255.99999999999997</ele><time>2026-04-18T11:29:08.996Z</time></trkpt><trkpt lat="43.38490545288043" lon="10.854688407863355"><ele>256.0</ele><time>2026-04-18T11:29:09.996Z</time></trkpt><trkpt lat="43.384825279976596" lon="10.854638870815611"><ele>256.0</ele><time>2026-04-18T11:29:10.996Z</time></trkpt><trkpt lat="43.38476400826441" lon="10.854588160301423"><ele>256.0</ele><time>2026-04-18T11:29:11.996Z</time></trkpt><trkpt lat="43.38470089253353" lon="10.854551112289405"><ele>255.99999999999997</ele><time>2026-04-18T11:29:12.996Z</time></trkpt><trkpt lat="43.38463161610382" lon="10.854524206380225"><ele>256.0</ele><time>2026-04-18T11:29:13.996Z</time></trkpt><trkpt lat="43.384562339674105" lon="10.854508783678389"><ele>254.33333333333331</ele><time>2026-04-18T11:29:14.996Z</time></trkpt><trkpt lat="43.38445153091418" lon="10.854495959366536"><ele>252.66666666666666</ele><time>2026-04-18T11:29:16.996Z</time></trkpt><trkpt lat="43.384358156512846" lon="10.854487242187238"><ele>251.0</ele><time>2026-04-18T11:29:18.996Z</time></trkpt><trkpt lat="43.38429131083505" lon="10.854484476159191"><ele>249.33333333333331</ele><time>2026-04-18T11:29:20.996Z</time></trkpt><trkpt lat="43.384215915616025" lon="10.854505347098089"><ele>247.66666666666666</ele><time>2026-04-18T11:29:23.996Z</time></trkpt><trkpt lat="43.38415468581336" lon="10.854530073712445"><ele>246.0</ele><time>2026-04-18T11:29:26.996Z</time></trkpt><trkpt lat="43.38409404274391" lon="10.854554967964864"><ele>246.0</ele><time>2026-04-18T11:29:34.996Z</time></trkpt></trkseg></trk></gpx>